<?xml version="1.0" encoding="UTF-8"?>
<gpx creator="strava.com Android" version="1.1" xmlns="http://www.topografix.com/GPX/1/1" xmlns:xsi="http://www.w3.org/2001/XMLSchema-instance" xsi:schemaLocation="http://www.topografix.com/GPX/1/1 http://www.topografix.com/GPX/1/1/gpx.xsd http://www.garmin.com/xmlschemas/GpxExtensions/v3 http://www.garmin.com/xmlschemas/GpxExtensionsv3.xsd http://www.garmin.com/xmlschemas/TrackPointExtension/v1 http://www.garmin.com/xmlschemas/TrackPointExtensionv1.xsd http://www.garmin.com/xmlschemas/GpxExtensions/v3 http://www.garmin.com/xmlschemas/GpxExtensionsv3.xsd http://www.garmin.com/xmlschemas/TrackPointExtension/v1 http://www.garmin.com/xmlschemas/TrackPointExtensionv1.xsd">
 <metadata>
  <time>2014-02-21T05:24:32Z</time>
 </metadata>
 <trk>
  <name>Yokneam - Mishmar HaEmek, 21.02.14</name>
  <trkseg>
   <trkpt lat="32.6362790" lon="35.0904920">
    <ele>208.6</ele>
    <time>2014-02-21T05:24:32Z</time>
   </trkpt>
   <trkpt lat="32.6361870" lon="35.0905640">
    <ele>207.5</ele>
    <time>2014-02-21T05:24:34Z</time>
   </trkpt>
   <trkpt lat="32.6361460" lon="35.0904810">
    <ele>206.4</ele>
    <time>2014-02-21T05:24:35Z</time>
   </trkpt>
   <trkpt lat="32.6361230" lon="35.0905100">
    <ele>206.1</ele>
    <time>2014-02-21T05:24:39Z</time>
   </trkpt>
   <trkpt lat="32.6361610" lon="35.0905180">
    <ele>206.8</ele>
    <time>2014-02-21T05:24:42Z</time>
   </trkpt>
   <trkpt lat="32.6361900" lon="35.0904980">
    <ele>207.3</ele>
    <time>2014-02-21T05:24:45Z</time>
   </trkpt>
   <trkpt lat="32.6362050" lon="35.0905300">
    <ele>207.7</ele>
    <time>2014-02-21T05:24:48Z</time>
   </trkpt>
   <trkpt lat="32.6362360" lon="35.0905410">
    <ele>208.3</ele>
    <time>2014-02-21T05:24:51Z</time>
   </trkpt>
   <trkpt lat="32.6362040" lon="35.0905150">
    <ele>207.6</ele>
    <time>2014-02-21T05:24:54Z</time>
   </trkpt>
   <trkpt lat="32.6361660" lon="35.0905160">
    <ele>206.9</ele>
    <time>2014-02-21T05:24:56Z</time>
   </trkpt>
   <trkpt lat="32.6361340" lon="35.0905370">
    <ele>206.4</ele>
    <time>2014-02-21T05:24:58Z</time>
   </trkpt>
   <trkpt lat="32.6361090" lon="35.0905590">
    <ele>206.1</ele>
    <time>2014-02-21T05:25:01Z</time>
   </trkpt>
   <trkpt lat="32.6360850" lon="35.0905840">
    <ele>205.7</ele>
    <time>2014-02-21T05:25:03Z</time>
   </trkpt>
   <trkpt lat="32.6360860" lon="35.0906290">
    <ele>205.9</ele>
    <time>2014-02-21T05:25:05Z</time>
   </trkpt>
   <trkpt lat="32.6361130" lon="35.0906760">
    <ele>206.6</ele>
    <time>2014-02-21T05:25:07Z</time>
   </trkpt>
   <trkpt lat="32.6362500" lon="35.0905950">
    <ele>208.9</ele>
    <time>2014-02-21T05:25:08Z</time>
   </trkpt>
   <trkpt lat="32.6363970" lon="35.0905090">
    <ele>209.9</ele>
    <time>2014-02-21T05:25:09Z</time>
   </trkpt>
   <trkpt lat="32.6364330" lon="35.0904940">
    <ele>210.2</ele>
    <time>2014-02-21T05:25:10Z</time>
   </trkpt>
   <trkpt lat="32.6361240" lon="35.0907170">
    <ele>207.0</ele>
    <time>2014-02-21T05:26:39Z</time>
   </trkpt>
   <trkpt lat="32.6361330" lon="35.0906820">
    <ele>207.0</ele>
    <time>2014-02-21T05:26:41Z</time>
   </trkpt>
   <trkpt lat="32.6361420" lon="35.0906480">
    <ele>207.1</ele>
    <time>2014-02-21T05:26:44Z</time>
   </trkpt>
   <trkpt lat="32.6361570" lon="35.0905890">
    <ele>207.1</ele>
    <time>2014-02-21T05:26:46Z</time>
   </trkpt>
   <trkpt lat="32.6361350" lon="35.0906170">
    <ele>206.8</ele>
    <time>2014-02-21T05:26:49Z</time>
   </trkpt>
   <trkpt lat="32.6361020" lon="35.0906600">
    <ele>206.3</ele>
    <time>2014-02-21T05:26:51Z</time>
   </trkpt>
   <trkpt lat="32.6360820" lon="35.0906930">
    <ele>206.1</ele>
    <time>2014-02-21T05:26:52Z</time>
   </trkpt>
   <trkpt lat="32.6360650" lon="35.0907270">
    <ele>205.9</ele>
    <time>2014-02-21T05:26:53Z</time>
   </trkpt>
   <trkpt lat="32.6360480" lon="35.0907650">
    <ele>205.7</ele>
    <time>2014-02-21T05:26:54Z</time>
   </trkpt>
   <trkpt lat="32.6360290" lon="35.0908080">
    <ele>205.5</ele>
    <time>2014-02-21T05:26:55Z</time>
   </trkpt>
   <trkpt lat="32.6360100" lon="35.0908490">
    <ele>205.3</ele>
    <time>2014-02-21T05:26:56Z</time>
   </trkpt>
   <trkpt lat="32.6359880" lon="35.0908960">
    <ele>205.0</ele>
    <time>2014-02-21T05:26:57Z</time>
   </trkpt>
   <trkpt lat="32.6359680" lon="35.0909370">
    <ele>204.8</ele>
    <time>2014-02-21T05:26:58Z</time>
   </trkpt>
   <trkpt lat="32.6359530" lon="35.0909780">
    <ele>204.6</ele>
    <time>2014-02-21T05:26:59Z</time>
   </trkpt>
   <trkpt lat="32.6359410" lon="35.0910200">
    <ele>204.5</ele>
    <time>2014-02-21T05:27:00Z</time>
   </trkpt>
   <trkpt lat="32.6359280" lon="35.0910600">
    <ele>204.4</ele>
    <time>2014-02-21T05:27:01Z</time>
   </trkpt>
   <trkpt lat="32.6359170" lon="35.0910970">
    <ele>204.3</ele>
    <time>2014-02-21T05:27:02Z</time>
   </trkpt>
   <trkpt lat="32.6359050" lon="35.0911330">
    <ele>204.2</ele>
    <time>2014-02-21T05:27:03Z</time>
   </trkpt>
   <trkpt lat="32.6358930" lon="35.0911720">
    <ele>204.0</ele>
    <time>2014-02-21T05:27:04Z</time>
   </trkpt>
   <trkpt lat="32.6358810" lon="35.0912130">
    <ele>203.9</ele>
    <time>2014-02-21T05:27:05Z</time>
   </trkpt>
   <trkpt lat="32.6358720" lon="35.0912500">
    <ele>203.8</ele>
    <time>2014-02-21T05:27:06Z</time>
   </trkpt>
   <trkpt lat="32.6358610" lon="35.0912870">
    <ele>203.8</ele>
    <time>2014-02-21T05:27:07Z</time>
   </trkpt>
   <trkpt lat="32.6358490" lon="35.0913240">
    <ele>203.8</ele>
    <time>2014-02-21T05:27:08Z</time>
   </trkpt>
   <trkpt lat="32.6358350" lon="35.0913620">
    <ele>203.8</ele>
    <time>2014-02-21T05:27:09Z</time>
   </trkpt>
   <trkpt lat="32.6358210" lon="35.0914030">
    <ele>203.8</ele>
    <time>2014-02-21T05:27:10Z</time>
   </trkpt>
   <trkpt lat="32.6358040" lon="35.0914460">
    <ele>203.7</ele>
    <time>2014-02-21T05:27:11Z</time>
   </trkpt>
   <trkpt lat="32.6357860" lon="35.0914870">
    <ele>203.7</ele>
    <time>2014-02-21T05:27:12Z</time>
   </trkpt>
   <trkpt lat="32.6357710" lon="35.0915240">
    <ele>203.6</ele>
    <time>2014-02-21T05:27:13Z</time>
   </trkpt>
   <trkpt lat="32.6357550" lon="35.0915580">
    <ele>203.6</ele>
    <time>2014-02-21T05:27:14Z</time>
   </trkpt>
   <trkpt lat="32.6357350" lon="35.0915880">
    <ele>203.4</ele>
    <time>2014-02-21T05:27:15Z</time>
   </trkpt>
   <trkpt lat="32.6356990" lon="35.0916170">
    <ele>203.0</ele>
    <time>2014-02-21T05:27:16Z</time>
   </trkpt>
   <trkpt lat="32.6356600" lon="35.0916460">
    <ele>202.6</ele>
    <time>2014-02-21T05:27:17Z</time>
   </trkpt>
   <trkpt lat="32.6356070" lon="35.0917130">
    <ele>202.2</ele>
    <time>2014-02-21T05:27:18Z</time>
   </trkpt>
   <trkpt lat="32.6355830" lon="35.0917610">
    <ele>202.3</ele>
    <time>2014-02-21T05:27:19Z</time>
   </trkpt>
   <trkpt lat="32.6355710" lon="35.0918000">
    <ele>202.4</ele>
    <time>2014-02-21T05:27:20Z</time>
   </trkpt>
   <trkpt lat="32.6355690" lon="35.0918350">
    <ele>202.7</ele>
    <time>2014-02-21T05:27:21Z</time>
   </trkpt>
   <trkpt lat="32.6355590" lon="35.0918800">
    <ele>203.0</ele>
    <time>2014-02-21T05:27:22Z</time>
   </trkpt>
   <trkpt lat="32.6355440" lon="35.0919210">
    <ele>203.1</ele>
    <time>2014-02-21T05:27:24Z</time>
   </trkpt>
   <trkpt lat="32.6355300" lon="35.0919510">
    <ele>203.2</ele>
    <time>2014-02-21T05:27:30Z</time>
   </trkpt>
   <trkpt lat="32.6355080" lon="35.0919700">
    <ele>203.1</ele>
    <time>2014-02-21T05:27:33Z</time>
   </trkpt>
   <trkpt lat="32.6354810" lon="35.0919790">
    <ele>202.8</ele>
    <time>2014-02-21T05:27:35Z</time>
   </trkpt>
   <trkpt lat="32.6354520" lon="35.0919870">
    <ele>202.5</ele>
    <time>2014-02-21T05:27:40Z</time>
   </trkpt>
   <trkpt lat="32.6354510" lon="35.0920240">
    <ele>202.8</ele>
    <time>2014-02-21T05:27:45Z</time>
   </trkpt>
   <trkpt lat="32.6354360" lon="35.0920560">
    <ele>203.0</ele>
    <time>2014-02-21T05:28:50Z</time>
   </trkpt>
   <trkpt lat="32.6354170" lon="35.0920940">
    <ele>203.1</ele>
    <time>2014-02-21T05:28:52Z</time>
   </trkpt>
   <trkpt lat="32.6354020" lon="35.0921260">
    <ele>203.0</ele>
    <time>2014-02-21T05:28:53Z</time>
   </trkpt>
   <trkpt lat="32.6353830" lon="35.0921600">
    <ele>202.9</ele>
    <time>2014-02-21T05:28:54Z</time>
   </trkpt>
   <trkpt lat="32.6353650" lon="35.0921940">
    <ele>202.7</ele>
    <time>2014-02-21T05:28:55Z</time>
   </trkpt>
   <trkpt lat="32.6353510" lon="35.0922280">
    <ele>202.7</ele>
    <time>2014-02-21T05:28:56Z</time>
   </trkpt>
   <trkpt lat="32.6353380" lon="35.0922660">
    <ele>202.7</ele>
    <time>2014-02-21T05:28:57Z</time>
   </trkpt>
   <trkpt lat="32.6353270" lon="35.0923090">
    <ele>202.8</ele>
    <time>2014-02-21T05:28:58Z</time>
   </trkpt>
   <trkpt lat="32.6353180" lon="35.0923540">
    <ele>202.9</ele>
    <time>2014-02-21T05:28:59Z</time>
   </trkpt>
   <trkpt lat="32.6353190" lon="35.0924050">
    <ele>203.3</ele>
    <time>2014-02-21T05:29:00Z</time>
   </trkpt>
   <trkpt lat="32.6353260" lon="35.0924510">
    <ele>203.7</ele>
    <time>2014-02-21T05:29:01Z</time>
   </trkpt>
   <trkpt lat="32.6353360" lon="35.0924930">
    <ele>204.3</ele>
    <time>2014-02-21T05:29:02Z</time>
   </trkpt>
   <trkpt lat="32.6353400" lon="35.0925340">
    <ele>204.6</ele>
    <time>2014-02-21T05:29:03Z</time>
   </trkpt>
   <trkpt lat="32.6353490" lon="35.0925810">
    <ele>205.2</ele>
    <time>2014-02-21T05:29:05Z</time>
   </trkpt>
   <trkpt lat="32.6353660" lon="35.0926350">
    <ele>205.9</ele>
    <time>2014-02-21T05:29:07Z</time>
   </trkpt>
   <trkpt lat="32.6353810" lon="35.0926650">
    <ele>206.4</ele>
    <time>2014-02-21T05:29:08Z</time>
   </trkpt>
   <trkpt lat="32.6354020" lon="35.0927020">
    <ele>207.1</ele>
    <time>2014-02-21T05:29:09Z</time>
   </trkpt>
   <trkpt lat="32.6354300" lon="35.0927420">
    <ele>207.9</ele>
    <time>2014-02-21T05:29:10Z</time>
   </trkpt>
   <trkpt lat="32.6354570" lon="35.0927850">
    <ele>208.4</ele>
    <time>2014-02-21T05:29:11Z</time>
   </trkpt>
   <trkpt lat="32.6354840" lon="35.0928270">
    <ele>208.9</ele>
    <time>2014-02-21T05:29:12Z</time>
   </trkpt>
   <trkpt lat="32.6355110" lon="35.0928670">
    <ele>209.4</ele>
    <time>2014-02-21T05:29:13Z</time>
   </trkpt>
   <trkpt lat="32.6355470" lon="35.0928980">
    <ele>209.8</ele>
    <time>2014-02-21T05:29:14Z</time>
   </trkpt>
   <trkpt lat="32.6355860" lon="35.0929230">
    <ele>210.2</ele>
    <time>2014-02-21T05:29:15Z</time>
   </trkpt>
   <trkpt lat="32.6356310" lon="35.0929310">
    <ele>210.5</ele>
    <time>2014-02-21T05:29:16Z</time>
   </trkpt>
   <trkpt lat="32.6357190" lon="35.0929260">
    <ele>211.1</ele>
    <time>2014-02-21T05:29:17Z</time>
   </trkpt>
   <trkpt lat="32.6357760" lon="35.0929280">
    <ele>211.5</ele>
    <time>2014-02-21T05:29:18Z</time>
   </trkpt>
   <trkpt lat="32.6358210" lon="35.0929260">
    <ele>211.9</ele>
    <time>2014-02-21T05:29:19Z</time>
   </trkpt>
   <trkpt lat="32.6358640" lon="35.0929140">
    <ele>212.2</ele>
    <time>2014-02-21T05:29:20Z</time>
   </trkpt>
   <trkpt lat="32.6359090" lon="35.0928910">
    <ele>212.5</ele>
    <time>2014-02-21T05:29:21Z</time>
   </trkpt>
   <trkpt lat="32.6359620" lon="35.0928830">
    <ele>212.8</ele>
    <time>2014-02-21T05:29:22Z</time>
   </trkpt>
   <trkpt lat="32.6360090" lon="35.0928370">
    <ele>213.0</ele>
    <time>2014-02-21T05:29:23Z</time>
   </trkpt>
   <trkpt lat="32.6360450" lon="35.0928090">
    <ele>213.2</ele>
    <time>2014-02-21T05:29:24Z</time>
   </trkpt>
   <trkpt lat="32.6360800" lon="35.0927700">
    <ele>213.4</ele>
    <time>2014-02-21T05:29:25Z</time>
   </trkpt>
   <trkpt lat="32.6361120" lon="35.0927470">
    <ele>213.6</ele>
    <time>2014-02-21T05:29:26Z</time>
   </trkpt>
   <trkpt lat="32.6361250" lon="35.0927030">
    <ele>213.7</ele>
    <time>2014-02-21T05:29:27Z</time>
   </trkpt>
   <trkpt lat="32.6361420" lon="35.0926570">
    <ele>213.7</ele>
    <time>2014-02-21T05:29:28Z</time>
   </trkpt>
   <trkpt lat="32.6361640" lon="35.0926090">
    <ele>213.8</ele>
    <time>2014-02-21T05:29:29Z</time>
   </trkpt>
   <trkpt lat="32.6361920" lon="35.0925500">
    <ele>214.0</ele>
    <time>2014-02-21T05:29:30Z</time>
   </trkpt>
   <trkpt lat="32.6362140" lon="35.0924910">
    <ele>214.1</ele>
    <time>2014-02-21T05:29:31Z</time>
   </trkpt>
   <trkpt lat="32.6362350" lon="35.0924320">
    <ele>214.3</ele>
    <time>2014-02-21T05:29:32Z</time>
   </trkpt>
   <trkpt lat="32.6362480" lon="35.0923870">
    <ele>214.3</ele>
    <time>2014-02-21T05:29:33Z</time>
   </trkpt>
   <trkpt lat="32.6362720" lon="35.0923330">
    <ele>214.1</ele>
    <time>2014-02-21T05:29:34Z</time>
   </trkpt>
   <trkpt lat="32.6362940" lon="35.0922810">
    <ele>213.8</ele>
    <time>2014-02-21T05:29:35Z</time>
   </trkpt>
   <trkpt lat="32.6363180" lon="35.0922180">
    <ele>213.5</ele>
    <time>2014-02-21T05:29:36Z</time>
   </trkpt>
   <trkpt lat="32.6363450" lon="35.0921640">
    <ele>213.2</ele>
    <time>2014-02-21T05:29:37Z</time>
   </trkpt>
   <trkpt lat="32.6363650" lon="35.0921120">
    <ele>213.0</ele>
    <time>2014-02-21T05:29:38Z</time>
   </trkpt>
   <trkpt lat="32.6363920" lon="35.0920600">
    <ele>212.8</ele>
    <time>2014-02-21T05:29:39Z</time>
   </trkpt>
   <trkpt lat="32.6364210" lon="35.0920030">
    <ele>212.5</ele>
    <time>2014-02-21T05:29:40Z</time>
   </trkpt>
   <trkpt lat="32.6364430" lon="35.0919420">
    <ele>212.3</ele>
    <time>2014-02-21T05:29:41Z</time>
   </trkpt>
   <trkpt lat="32.6364700" lon="35.0918840">
    <ele>212.1</ele>
    <time>2014-02-21T05:29:42Z</time>
   </trkpt>
   <trkpt lat="32.6364970" lon="35.0918340">
    <ele>211.9</ele>
    <time>2014-02-21T05:29:43Z</time>
   </trkpt>
   <trkpt lat="32.6365140" lon="35.0917790">
    <ele>211.9</ele>
    <time>2014-02-21T05:29:44Z</time>
   </trkpt>
   <trkpt lat="32.6365310" lon="35.0917240">
    <ele>211.8</ele>
    <time>2014-02-21T05:29:45Z</time>
   </trkpt>
   <trkpt lat="32.6365540" lon="35.0916740">
    <ele>211.7</ele>
    <time>2014-02-21T05:29:46Z</time>
   </trkpt>
   <trkpt lat="32.6365690" lon="35.0916210">
    <ele>211.7</ele>
    <time>2014-02-21T05:29:47Z</time>
   </trkpt>
   <trkpt lat="32.6365880" lon="35.0915670">
    <ele>211.7</ele>
    <time>2014-02-21T05:29:48Z</time>
   </trkpt>
   <trkpt lat="32.6366090" lon="35.0915130">
    <ele>211.7</ele>
    <time>2014-02-21T05:29:49Z</time>
   </trkpt>
   <trkpt lat="32.6366250" lon="35.0914690">
    <ele>211.7</ele>
    <time>2014-02-21T05:29:50Z</time>
   </trkpt>
   <trkpt lat="32.6366470" lon="35.0914230">
    <ele>211.7</ele>
    <time>2014-02-21T05:29:51Z</time>
   </trkpt>
   <trkpt lat="32.6366590" lon="35.0913780">
    <ele>211.8</ele>
    <time>2014-02-21T05:29:52Z</time>
   </trkpt>
   <trkpt lat="32.6366690" lon="35.0913200">
    <ele>211.9</ele>
    <time>2014-02-21T05:29:53Z</time>
   </trkpt>
   <trkpt lat="32.6366870" lon="35.0912590">
    <ele>212.0</ele>
    <time>2014-02-21T05:29:54Z</time>
   </trkpt>
   <trkpt lat="32.6367110" lon="35.0912130">
    <ele>212.0</ele>
    <time>2014-02-21T05:29:55Z</time>
   </trkpt>
   <trkpt lat="32.6367310" lon="35.0911670">
    <ele>212.1</ele>
    <time>2014-02-21T05:29:56Z</time>
   </trkpt>
   <trkpt lat="32.6367530" lon="35.0911070">
    <ele>212.2</ele>
    <time>2014-02-21T05:29:57Z</time>
   </trkpt>
   <trkpt lat="32.6367720" lon="35.0910590">
    <ele>212.4</ele>
    <time>2014-02-21T05:29:58Z</time>
   </trkpt>
   <trkpt lat="32.6367860" lon="35.0910160">
    <ele>212.5</ele>
    <time>2014-02-21T05:29:59Z</time>
   </trkpt>
   <trkpt lat="32.6368000" lon="35.0909780">
    <ele>212.6</ele>
    <time>2014-02-21T05:30:00Z</time>
   </trkpt>
   <trkpt lat="32.6368280" lon="35.0909310">
    <ele>212.9</ele>
    <time>2014-02-21T05:30:01Z</time>
   </trkpt>
   <trkpt lat="32.6368330" lon="35.0908850">
    <ele>213.0</ele>
    <time>2014-02-21T05:30:02Z</time>
   </trkpt>
   <trkpt lat="32.6368470" lon="35.0908530">
    <ele>213.2</ele>
    <time>2014-02-21T05:30:03Z</time>
   </trkpt>
   <trkpt lat="32.6368600" lon="35.0908160">
    <ele>213.3</ele>
    <time>2014-02-21T05:30:04Z</time>
   </trkpt>
   <trkpt lat="32.6368930" lon="35.0907600">
    <ele>213.7</ele>
    <time>2014-02-21T05:30:06Z</time>
   </trkpt>
   <trkpt lat="32.6369230" lon="35.0907330">
    <ele>214.0</ele>
    <time>2014-02-21T05:30:07Z</time>
   </trkpt>
   <trkpt lat="32.6369570" lon="35.0907130">
    <ele>214.3</ele>
    <time>2014-02-21T05:30:08Z</time>
   </trkpt>
   <trkpt lat="32.6369910" lon="35.0906880">
    <ele>214.7</ele>
    <time>2014-02-21T05:30:09Z</time>
   </trkpt>
   <trkpt lat="32.6370300" lon="35.0906680">
    <ele>215.1</ele>
    <time>2014-02-21T05:30:10Z</time>
   </trkpt>
   <trkpt lat="32.6370670" lon="35.0906510">
    <ele>215.5</ele>
    <time>2014-02-21T05:30:11Z</time>
   </trkpt>
   <trkpt lat="32.6371050" lon="35.0906370">
    <ele>215.8</ele>
    <time>2014-02-21T05:30:12Z</time>
   </trkpt>
   <trkpt lat="32.6371430" lon="35.0906240">
    <ele>216.2</ele>
    <time>2014-02-21T05:30:13Z</time>
   </trkpt>
   <trkpt lat="32.6371810" lon="35.0906130">
    <ele>216.6</ele>
    <time>2014-02-21T05:30:14Z</time>
   </trkpt>
   <trkpt lat="32.6372200" lon="35.0906050">
    <ele>217.0</ele>
    <time>2014-02-21T05:30:15Z</time>
   </trkpt>
   <trkpt lat="32.6372610" lon="35.0906040">
    <ele>217.3</ele>
    <time>2014-02-21T05:30:16Z</time>
   </trkpt>
   <trkpt lat="32.6373030" lon="35.0906060">
    <ele>217.6</ele>
    <time>2014-02-21T05:30:17Z</time>
   </trkpt>
   <trkpt lat="32.6373440" lon="35.0906120">
    <ele>217.9</ele>
    <time>2014-02-21T05:30:18Z</time>
   </trkpt>
   <trkpt lat="32.6373820" lon="35.0906300">
    <ele>218.0</ele>
    <time>2014-02-21T05:30:19Z</time>
   </trkpt>
   <trkpt lat="32.6374170" lon="35.0906550">
    <ele>218.1</ele>
    <time>2014-02-21T05:30:20Z</time>
   </trkpt>
   <trkpt lat="32.6374450" lon="35.0906860">
    <ele>218.0</ele>
    <time>2014-02-21T05:30:21Z</time>
   </trkpt>
   <trkpt lat="32.6374740" lon="35.0907160">
    <ele>217.9</ele>
    <time>2014-02-21T05:30:22Z</time>
   </trkpt>
   <trkpt lat="32.6375000" lon="35.0907510">
    <ele>217.8</ele>
    <time>2014-02-21T05:30:23Z</time>
   </trkpt>
   <trkpt lat="32.6375250" lon="35.0907870">
    <ele>217.6</ele>
    <time>2014-02-21T05:30:24Z</time>
   </trkpt>
   <trkpt lat="32.6375450" lon="35.0908260">
    <ele>217.3</ele>
    <time>2014-02-21T05:30:25Z</time>
   </trkpt>
   <trkpt lat="32.6375650" lon="35.0908660">
    <ele>217.1</ele>
    <time>2014-02-21T05:30:26Z</time>
   </trkpt>
   <trkpt lat="32.6375840" lon="35.0909050">
    <ele>216.8</ele>
    <time>2014-02-21T05:30:27Z</time>
   </trkpt>
   <trkpt lat="32.6376020" lon="35.0909450">
    <ele>216.4</ele>
    <time>2014-02-21T05:30:28Z</time>
   </trkpt>
   <trkpt lat="32.6376170" lon="35.0909860">
    <ele>216.1</ele>
    <time>2014-02-21T05:30:29Z</time>
   </trkpt>
   <trkpt lat="32.6376320" lon="35.0910260">
    <ele>215.7</ele>
    <time>2014-02-21T05:30:30Z</time>
   </trkpt>
   <trkpt lat="32.6376470" lon="35.0910620">
    <ele>215.4</ele>
    <time>2014-02-21T05:30:31Z</time>
   </trkpt>
   <trkpt lat="32.6376620" lon="35.0910970">
    <ele>215.1</ele>
    <time>2014-02-21T05:30:32Z</time>
   </trkpt>
   <trkpt lat="32.6376790" lon="35.0911350">
    <ele>214.7</ele>
    <time>2014-02-21T05:30:33Z</time>
   </trkpt>
   <trkpt lat="32.6376940" lon="35.0911750">
    <ele>214.3</ele>
    <time>2014-02-21T05:30:34Z</time>
   </trkpt>
   <trkpt lat="32.6377110" lon="35.0912160">
    <ele>213.9</ele>
    <time>2014-02-21T05:30:35Z</time>
   </trkpt>
   <trkpt lat="32.6377270" lon="35.0912570">
    <ele>213.5</ele>
    <time>2014-02-21T05:30:36Z</time>
   </trkpt>
   <trkpt lat="32.6377400" lon="35.0912990">
    <ele>213.1</ele>
    <time>2014-02-21T05:30:37Z</time>
   </trkpt>
   <trkpt lat="32.6377550" lon="35.0913410">
    <ele>212.8</ele>
    <time>2014-02-21T05:30:38Z</time>
   </trkpt>
   <trkpt lat="32.6377690" lon="35.0913870">
    <ele>212.4</ele>
    <time>2014-02-21T05:30:39Z</time>
   </trkpt>
   <trkpt lat="32.6377860" lon="35.0914380">
    <ele>212.0</ele>
    <time>2014-02-21T05:30:40Z</time>
   </trkpt>
   <trkpt lat="32.6378060" lon="35.0914850">
    <ele>211.6</ele>
    <time>2014-02-21T05:30:41Z</time>
   </trkpt>
   <trkpt lat="32.6378270" lon="35.0915300">
    <ele>211.2</ele>
    <time>2014-02-21T05:30:42Z</time>
   </trkpt>
   <trkpt lat="32.6378510" lon="35.0915750">
    <ele>210.8</ele>
    <time>2014-02-21T05:30:43Z</time>
   </trkpt>
   <trkpt lat="32.6378770" lon="35.0916180">
    <ele>210.4</ele>
    <time>2014-02-21T05:30:44Z</time>
   </trkpt>
   <trkpt lat="32.6379040" lon="35.0916570">
    <ele>210.1</ele>
    <time>2014-02-21T05:30:45Z</time>
   </trkpt>
   <trkpt lat="32.6379330" lon="35.0916930">
    <ele>210.0</ele>
    <time>2014-02-21T05:30:46Z</time>
   </trkpt>
   <trkpt lat="32.6379630" lon="35.0917290">
    <ele>210.1</ele>
    <time>2014-02-21T05:30:47Z</time>
   </trkpt>
   <trkpt lat="32.6379820" lon="35.0917620">
    <ele>210.1</ele>
    <time>2014-02-21T05:30:48Z</time>
   </trkpt>
   <trkpt lat="32.6379950" lon="35.0918040">
    <ele>209.9</ele>
    <time>2014-02-21T05:30:49Z</time>
   </trkpt>
   <trkpt lat="32.6379970" lon="35.0918520">
    <ele>209.5</ele>
    <time>2014-02-21T05:30:50Z</time>
   </trkpt>
   <trkpt lat="32.6379910" lon="35.0918980">
    <ele>208.9</ele>
    <time>2014-02-21T05:30:51Z</time>
   </trkpt>
   <trkpt lat="32.6379860" lon="35.0919360">
    <ele>208.5</ele>
    <time>2014-02-21T05:30:52Z</time>
   </trkpt>
   <trkpt lat="32.6379830" lon="35.0919680">
    <ele>208.2</ele>
    <time>2014-02-21T05:30:53Z</time>
   </trkpt>
   <trkpt lat="32.6379820" lon="35.0920020">
    <ele>207.8</ele>
    <time>2014-02-21T05:30:56Z</time>
   </trkpt>
   <trkpt lat="32.6379870" lon="35.0920500">
    <ele>207.5</ele>
    <time>2014-02-21T05:30:59Z</time>
   </trkpt>
   <trkpt lat="32.6379960" lon="35.0921120">
    <ele>207.0</ele>
    <time>2014-02-21T05:31:01Z</time>
   </trkpt>
   <trkpt lat="32.6379960" lon="35.0921740">
    <ele>206.4</ele>
    <time>2014-02-21T05:31:02Z</time>
   </trkpt>
   <trkpt lat="32.6379990" lon="35.0922810">
    <ele>205.3</ele>
    <time>2014-02-21T05:31:03Z</time>
   </trkpt>
   <trkpt lat="32.6379880" lon="35.0923760">
    <ele>204.1</ele>
    <time>2014-02-21T05:31:04Z</time>
   </trkpt>
   <trkpt lat="32.6379840" lon="35.0924700">
    <ele>203.0</ele>
    <time>2014-02-21T05:31:05Z</time>
   </trkpt>
   <trkpt lat="32.6379750" lon="35.0925700">
    <ele>201.8</ele>
    <time>2014-02-21T05:31:06Z</time>
   </trkpt>
   <trkpt lat="32.6379750" lon="35.0926720">
    <ele>200.7</ele>
    <time>2014-02-21T05:31:07Z</time>
   </trkpt>
   <trkpt lat="32.6379760" lon="35.0927820">
    <ele>199.5</ele>
    <time>2014-02-21T05:31:08Z</time>
   </trkpt>
   <trkpt lat="32.6379920" lon="35.0928820">
    <ele>198.7</ele>
    <time>2014-02-21T05:31:09Z</time>
   </trkpt>
   <trkpt lat="32.6380180" lon="35.0929780">
    <ele>198.1</ele>
    <time>2014-02-21T05:31:10Z</time>
   </trkpt>
   <trkpt lat="32.6380430" lon="35.0930810">
    <ele>197.4</ele>
    <time>2014-02-21T05:31:11Z</time>
   </trkpt>
   <trkpt lat="32.6380960" lon="35.0931950">
    <ele>196.9</ele>
    <time>2014-02-21T05:31:12Z</time>
   </trkpt>
   <trkpt lat="32.6381520" lon="35.0932940">
    <ele>196.6</ele>
    <time>2014-02-21T05:31:13Z</time>
   </trkpt>
   <trkpt lat="32.6382260" lon="35.0933750">
    <ele>196.8</ele>
    <time>2014-02-21T05:31:14Z</time>
   </trkpt>
   <trkpt lat="32.6383010" lon="35.0934390">
    <ele>197.1</ele>
    <time>2014-02-21T05:31:15Z</time>
   </trkpt>
   <trkpt lat="32.6383970" lon="35.0934890">
    <ele>197.9</ele>
    <time>2014-02-21T05:31:16Z</time>
   </trkpt>
   <trkpt lat="32.6384980" lon="35.0935410">
    <ele>198.6</ele>
    <time>2014-02-21T05:31:17Z</time>
   </trkpt>
   <trkpt lat="32.6385820" lon="35.0935670">
    <ele>199.5</ele>
    <time>2014-02-21T05:31:18Z</time>
   </trkpt>
   <trkpt lat="32.6386940" lon="35.0935490">
    <ele>201.3</ele>
    <time>2014-02-21T05:31:19Z</time>
   </trkpt>
   <trkpt lat="32.6387990" lon="35.0935050">
    <ele>202.5</ele>
    <time>2014-02-21T05:31:20Z</time>
   </trkpt>
   <trkpt lat="32.6388970" lon="35.0934580">
    <ele>202.7</ele>
    <time>2014-02-21T05:31:21Z</time>
   </trkpt>
   <trkpt lat="32.6390000" lon="35.0934180">
    <ele>202.7</ele>
    <time>2014-02-21T05:31:22Z</time>
   </trkpt>
   <trkpt lat="32.6391050" lon="35.0933680">
    <ele>203.0</ele>
    <time>2014-02-21T05:31:23Z</time>
   </trkpt>
   <trkpt lat="32.6392260" lon="35.0933250">
    <ele>203.1</ele>
    <time>2014-02-21T05:31:24Z</time>
   </trkpt>
   <trkpt lat="32.6393350" lon="35.0932830">
    <ele>203.3</ele>
    <time>2014-02-21T05:31:25Z</time>
   </trkpt>
   <trkpt lat="32.6394390" lon="35.0932430">
    <ele>203.5</ele>
    <time>2014-02-21T05:31:26Z</time>
   </trkpt>
   <trkpt lat="32.6395470" lon="35.0931970">
    <ele>203.8</ele>
    <time>2014-02-21T05:31:27Z</time>
   </trkpt>
   <trkpt lat="32.6396540" lon="35.0931500">
    <ele>202.9</ele>
    <time>2014-02-21T05:31:28Z</time>
   </trkpt>
   <trkpt lat="32.6397600" lon="35.0930970">
    <ele>201.4</ele>
    <time>2014-02-21T05:31:29Z</time>
   </trkpt>
   <trkpt lat="32.6398600" lon="35.0930360">
    <ele>200.2</ele>
    <time>2014-02-21T05:31:30Z</time>
   </trkpt>
   <trkpt lat="32.6399660" lon="35.0929670">
    <ele>198.9</ele>
    <time>2014-02-21T05:31:31Z</time>
   </trkpt>
   <trkpt lat="32.6400710" lon="35.0929050">
    <ele>197.5</ele>
    <time>2014-02-21T05:31:32Z</time>
   </trkpt>
   <trkpt lat="32.6401730" lon="35.0928140">
    <ele>196.9</ele>
    <time>2014-02-21T05:31:33Z</time>
   </trkpt>
   <trkpt lat="32.6402750" lon="35.0927330">
    <ele>196.1</ele>
    <time>2014-02-21T05:31:34Z</time>
   </trkpt>
   <trkpt lat="32.6403680" lon="35.0926390">
    <ele>195.8</ele>
    <time>2014-02-21T05:31:35Z</time>
   </trkpt>
   <trkpt lat="32.6404740" lon="35.0925540">
    <ele>195.4</ele>
    <time>2014-02-21T05:31:36Z</time>
   </trkpt>
   <trkpt lat="32.6405820" lon="35.0924710">
    <ele>195.3</ele>
    <time>2014-02-21T05:31:37Z</time>
   </trkpt>
   <trkpt lat="32.6406820" lon="35.0923820">
    <ele>195.4</ele>
    <time>2014-02-21T05:31:38Z</time>
   </trkpt>
   <trkpt lat="32.6407850" lon="35.0923020">
    <ele>195.1</ele>
    <time>2014-02-21T05:31:39Z</time>
   </trkpt>
   <trkpt lat="32.6408950" lon="35.0922340">
    <ele>194.5</ele>
    <time>2014-02-21T05:31:40Z</time>
   </trkpt>
   <trkpt lat="32.6410070" lon="35.0921800">
    <ele>193.6</ele>
    <time>2014-02-21T05:31:41Z</time>
   </trkpt>
   <trkpt lat="32.6411320" lon="35.0921310">
    <ele>192.2</ele>
    <time>2014-02-21T05:31:42Z</time>
   </trkpt>
   <trkpt lat="32.6412640" lon="35.0920920">
    <ele>190.6</ele>
    <time>2014-02-21T05:31:43Z</time>
   </trkpt>
   <trkpt lat="32.6413850" lon="35.0920660">
    <ele>188.3</ele>
    <time>2014-02-21T05:31:44Z</time>
   </trkpt>
   <trkpt lat="32.6415090" lon="35.0920330">
    <ele>185.9</ele>
    <time>2014-02-21T05:31:45Z</time>
   </trkpt>
   <trkpt lat="32.6416330" lon="35.0920020">
    <ele>183.5</ele>
    <time>2014-02-21T05:31:46Z</time>
   </trkpt>
   <trkpt lat="32.6417630" lon="35.0919670">
    <ele>180.9</ele>
    <time>2014-02-21T05:31:47Z</time>
   </trkpt>
   <trkpt lat="32.6418930" lon="35.0919360">
    <ele>178.2</ele>
    <time>2014-02-21T05:31:48Z</time>
   </trkpt>
   <trkpt lat="32.6420150" lon="35.0918980">
    <ele>175.7</ele>
    <time>2014-02-21T05:31:49Z</time>
   </trkpt>
   <trkpt lat="32.6421360" lon="35.0918700">
    <ele>173.8</ele>
    <time>2014-02-21T05:31:50Z</time>
   </trkpt>
   <trkpt lat="32.6422380" lon="35.0918270">
    <ele>173.1</ele>
    <time>2014-02-21T05:31:51Z</time>
   </trkpt>
   <trkpt lat="32.6423180" lon="35.0917760">
    <ele>172.6</ele>
    <time>2014-02-21T05:31:52Z</time>
   </trkpt>
   <trkpt lat="32.6423840" lon="35.0917380">
    <ele>172.3</ele>
    <time>2014-02-21T05:31:53Z</time>
   </trkpt>
   <trkpt lat="32.6424420" lon="35.0917170">
    <ele>171.9</ele>
    <time>2014-02-21T05:31:54Z</time>
   </trkpt>
   <trkpt lat="32.6424920" lon="35.0917090">
    <ele>171.6</ele>
    <time>2014-02-21T05:31:55Z</time>
   </trkpt>
   <trkpt lat="32.6424850" lon="35.0917700">
    <ele>171.4</ele>
    <time>2014-02-21T05:31:56Z</time>
   </trkpt>
   <trkpt lat="32.6424650" lon="35.0918140">
    <ele>171.4</ele>
    <time>2014-02-21T05:31:57Z</time>
   </trkpt>
   <trkpt lat="32.6424450" lon="35.0918390">
    <ele>171.5</ele>
    <time>2014-02-21T05:31:58Z</time>
   </trkpt>
   <trkpt lat="32.6424140" lon="35.0918790">
    <ele>171.6</ele>
    <time>2014-02-21T05:31:59Z</time>
   </trkpt>
   <trkpt lat="32.6423830" lon="35.0919200">
    <ele>171.7</ele>
    <time>2014-02-21T05:32:00Z</time>
   </trkpt>
   <trkpt lat="32.6423430" lon="35.0919560">
    <ele>171.9</ele>
    <time>2014-02-21T05:32:01Z</time>
   </trkpt>
   <trkpt lat="32.6423110" lon="35.0919810">
    <ele>172.1</ele>
    <time>2014-02-21T05:32:02Z</time>
   </trkpt>
   <trkpt lat="32.6422730" lon="35.0920090">
    <ele>172.4</ele>
    <time>2014-02-21T05:32:03Z</time>
   </trkpt>
   <trkpt lat="32.6422280" lon="35.0920390">
    <ele>172.7</ele>
    <time>2014-02-21T05:32:04Z</time>
   </trkpt>
   <trkpt lat="32.6421830" lon="35.0920880">
    <ele>173.0</ele>
    <time>2014-02-21T05:32:05Z</time>
   </trkpt>
   <trkpt lat="32.6421400" lon="35.0921590">
    <ele>172.6</ele>
    <time>2014-02-21T05:32:06Z</time>
   </trkpt>
   <trkpt lat="32.6421040" lon="35.0922340">
    <ele>172.0</ele>
    <time>2014-02-21T05:32:07Z</time>
   </trkpt>
   <trkpt lat="32.6421010" lon="35.0922960">
    <ele>171.3</ele>
    <time>2014-02-21T05:32:08Z</time>
   </trkpt>
   <trkpt lat="32.6421130" lon="35.0923530">
    <ele>170.5</ele>
    <time>2014-02-21T05:32:09Z</time>
   </trkpt>
   <trkpt lat="32.6421380" lon="35.0924140">
    <ele>169.7</ele>
    <time>2014-02-21T05:32:10Z</time>
   </trkpt>
   <trkpt lat="32.6421730" lon="35.0924640">
    <ele>168.9</ele>
    <time>2014-02-21T05:32:11Z</time>
   </trkpt>
   <trkpt lat="32.6422080" lon="35.0925040">
    <ele>168.2</ele>
    <time>2014-02-21T05:32:12Z</time>
   </trkpt>
   <trkpt lat="32.6422500" lon="35.0925510">
    <ele>167.5</ele>
    <time>2014-02-21T05:32:13Z</time>
   </trkpt>
   <trkpt lat="32.6422850" lon="35.0925950">
    <ele>166.8</ele>
    <time>2014-02-21T05:32:14Z</time>
   </trkpt>
   <trkpt lat="32.6423320" lon="35.0926390">
    <ele>166.1</ele>
    <time>2014-02-21T05:32:15Z</time>
   </trkpt>
   <trkpt lat="32.6423740" lon="35.0926860">
    <ele>165.5</ele>
    <time>2014-02-21T05:32:16Z</time>
   </trkpt>
   <trkpt lat="32.6424100" lon="35.0927250">
    <ele>165.0</ele>
    <time>2014-02-21T05:32:17Z</time>
   </trkpt>
   <trkpt lat="32.6424430" lon="35.0927650">
    <ele>164.5</ele>
    <time>2014-02-21T05:32:18Z</time>
   </trkpt>
   <trkpt lat="32.6424850" lon="35.0927960">
    <ele>164.1</ele>
    <time>2014-02-21T05:32:19Z</time>
   </trkpt>
   <trkpt lat="32.6425190" lon="35.0928310">
    <ele>163.7</ele>
    <time>2014-02-21T05:32:20Z</time>
   </trkpt>
   <trkpt lat="32.6425650" lon="35.0928620">
    <ele>163.3</ele>
    <time>2014-02-21T05:32:21Z</time>
   </trkpt>
   <trkpt lat="32.6426040" lon="35.0929020">
    <ele>162.9</ele>
    <time>2014-02-21T05:32:22Z</time>
   </trkpt>
   <trkpt lat="32.6426280" lon="35.0929420">
    <ele>162.5</ele>
    <time>2014-02-21T05:32:23Z</time>
   </trkpt>
   <trkpt lat="32.6426480" lon="35.0930000">
    <ele>162.1</ele>
    <time>2014-02-21T05:32:24Z</time>
   </trkpt>
   <trkpt lat="32.6426640" lon="35.0930370">
    <ele>161.9</ele>
    <time>2014-02-21T05:32:25Z</time>
   </trkpt>
   <trkpt lat="32.6426840" lon="35.0930980">
    <ele>161.5</ele>
    <time>2014-02-21T05:32:26Z</time>
   </trkpt>
   <trkpt lat="32.6426980" lon="35.0931340">
    <ele>161.3</ele>
    <time>2014-02-21T05:32:27Z</time>
   </trkpt>
   <trkpt lat="32.6426750" lon="35.0931760">
    <ele>161.0</ele>
    <time>2014-02-21T05:32:28Z</time>
   </trkpt>
   <trkpt lat="32.6426510" lon="35.0932290">
    <ele>160.7</ele>
    <time>2014-02-21T05:32:29Z</time>
   </trkpt>
   <trkpt lat="32.6426320" lon="35.0932800">
    <ele>160.3</ele>
    <time>2014-02-21T05:32:30Z</time>
   </trkpt>
   <trkpt lat="32.6426290" lon="35.0933290">
    <ele>160.0</ele>
    <time>2014-02-21T05:32:31Z</time>
   </trkpt>
   <trkpt lat="32.6426150" lon="35.0933750">
    <ele>159.7</ele>
    <time>2014-02-21T05:32:32Z</time>
   </trkpt>
   <trkpt lat="32.6426210" lon="35.0934210">
    <ele>159.4</ele>
    <time>2014-02-21T05:32:33Z</time>
   </trkpt>
   <trkpt lat="32.6426110" lon="35.0934810">
    <ele>159.0</ele>
    <time>2014-02-21T05:32:34Z</time>
   </trkpt>
   <trkpt lat="32.6425990" lon="35.0935210">
    <ele>158.7</ele>
    <time>2014-02-21T05:32:35Z</time>
   </trkpt>
   <trkpt lat="32.6426070" lon="35.0935650">
    <ele>158.4</ele>
    <time>2014-02-21T05:32:36Z</time>
   </trkpt>
   <trkpt lat="32.6426060" lon="35.0936030">
    <ele>158.1</ele>
    <time>2014-02-21T05:32:37Z</time>
   </trkpt>
   <trkpt lat="32.6426030" lon="35.0936370">
    <ele>157.9</ele>
    <time>2014-02-21T05:32:38Z</time>
   </trkpt>
   <trkpt lat="32.6425980" lon="35.0936760">
    <ele>157.6</ele>
    <time>2014-02-21T05:32:40Z</time>
   </trkpt>
   <trkpt lat="32.6425920" lon="35.0937080">
    <ele>157.3</ele>
    <time>2014-02-21T05:32:43Z</time>
   </trkpt>
   <trkpt lat="32.6426040" lon="35.0937380">
    <ele>157.2</ele>
    <time>2014-02-21T05:33:06Z</time>
   </trkpt>
   <trkpt lat="32.6426100" lon="35.0937700">
    <ele>157.1</ele>
    <time>2014-02-21T05:35:55Z</time>
   </trkpt>
   <trkpt lat="32.6426180" lon="35.0938070">
    <ele>157.1</ele>
    <time>2014-02-21T05:38:34Z</time>
   </trkpt>
   <trkpt lat="32.6426230" lon="35.0938600">
    <ele>157.0</ele>
    <time>2014-02-21T05:38:36Z</time>
   </trkpt>
   <trkpt lat="32.6426400" lon="35.0939120">
    <ele>157.0</ele>
    <time>2014-02-21T05:38:38Z</time>
   </trkpt>
   <trkpt lat="32.6426670" lon="35.0939700">
    <ele>157.1</ele>
    <time>2014-02-21T05:38:40Z</time>
   </trkpt>
   <trkpt lat="32.6426710" lon="35.0940060">
    <ele>157.0</ele>
    <time>2014-02-21T05:38:41Z</time>
   </trkpt>
   <trkpt lat="32.6426670" lon="35.0940400">
    <ele>156.9</ele>
    <time>2014-02-21T05:38:42Z</time>
   </trkpt>
   <trkpt lat="32.6426580" lon="35.0940730">
    <ele>156.8</ele>
    <time>2014-02-21T05:38:43Z</time>
   </trkpt>
   <trkpt lat="32.6426420" lon="35.0941040">
    <ele>156.6</ele>
    <time>2014-02-21T05:38:44Z</time>
   </trkpt>
   <trkpt lat="32.6426170" lon="35.0941260">
    <ele>156.4</ele>
    <time>2014-02-21T05:38:45Z</time>
   </trkpt>
   <trkpt lat="32.6425860" lon="35.0941360">
    <ele>156.2</ele>
    <time>2014-02-21T05:38:46Z</time>
   </trkpt>
   <trkpt lat="32.6425510" lon="35.0941340">
    <ele>155.9</ele>
    <time>2014-02-21T05:38:47Z</time>
   </trkpt>
   <trkpt lat="32.6425170" lon="35.0941260">
    <ele>155.7</ele>
    <time>2014-02-21T05:38:48Z</time>
   </trkpt>
   <trkpt lat="32.6424680" lon="35.0941150">
    <ele>155.4</ele>
    <time>2014-02-21T05:38:49Z</time>
   </trkpt>
   <trkpt lat="32.6424070" lon="35.0941010">
    <ele>155.0</ele>
    <time>2014-02-21T05:38:50Z</time>
   </trkpt>
   <trkpt lat="32.6423210" lon="35.0940600">
    <ele>154.5</ele>
    <time>2014-02-21T05:38:51Z</time>
   </trkpt>
   <trkpt lat="32.6422410" lon="35.0940320">
    <ele>154.1</ele>
    <time>2014-02-21T05:38:52Z</time>
   </trkpt>
   <trkpt lat="32.6421560" lon="35.0940040">
    <ele>153.6</ele>
    <time>2014-02-21T05:38:53Z</time>
   </trkpt>
   <trkpt lat="32.6420770" lon="35.0939710">
    <ele>153.2</ele>
    <time>2014-02-21T05:38:54Z</time>
   </trkpt>
   <trkpt lat="32.6420030" lon="35.0939250">
    <ele>153.8</ele>
    <time>2014-02-21T05:38:55Z</time>
   </trkpt>
   <trkpt lat="32.6419380" lon="35.0938720">
    <ele>154.4</ele>
    <time>2014-02-21T05:38:56Z</time>
   </trkpt>
   <trkpt lat="32.6418830" lon="35.0938110">
    <ele>154.9</ele>
    <time>2014-02-21T05:38:57Z</time>
   </trkpt>
   <trkpt lat="32.6418390" lon="35.0937440">
    <ele>155.6</ele>
    <time>2014-02-21T05:38:58Z</time>
   </trkpt>
   <trkpt lat="32.6418110" lon="35.0936720">
    <ele>156.8</ele>
    <time>2014-02-21T05:38:59Z</time>
   </trkpt>
   <trkpt lat="32.6417830" lon="35.0936070">
    <ele>158.0</ele>
    <time>2014-02-21T05:39:00Z</time>
   </trkpt>
   <trkpt lat="32.6417460" lon="35.0935660">
    <ele>158.9</ele>
    <time>2014-02-21T05:39:01Z</time>
   </trkpt>
   <trkpt lat="32.6417120" lon="35.0935390">
    <ele>159.5</ele>
    <time>2014-02-21T05:39:02Z</time>
   </trkpt>
   <trkpt lat="32.6416740" lon="35.0935140">
    <ele>160.3</ele>
    <time>2014-02-21T05:39:03Z</time>
   </trkpt>
   <trkpt lat="32.6416390" lon="35.0934860">
    <ele>161.0</ele>
    <time>2014-02-21T05:39:04Z</time>
   </trkpt>
   <trkpt lat="32.6416080" lon="35.0934580">
    <ele>161.8</ele>
    <time>2014-02-21T05:39:05Z</time>
   </trkpt>
   <trkpt lat="32.6415850" lon="35.0934300">
    <ele>162.4</ele>
    <time>2014-02-21T05:39:06Z</time>
   </trkpt>
   <trkpt lat="32.6415690" lon="35.0934040">
    <ele>163.0</ele>
    <time>2014-02-21T05:39:07Z</time>
   </trkpt>
   <trkpt lat="32.6415500" lon="35.0933570">
    <ele>164.0</ele>
    <time>2014-02-21T05:39:09Z</time>
   </trkpt>
   <trkpt lat="32.6415560" lon="35.0932950">
    <ele>165.0</ele>
    <time>2014-02-21T05:39:11Z</time>
   </trkpt>
   <trkpt lat="32.6415660" lon="35.0932360">
    <ele>166.0</ele>
    <time>2014-02-21T05:39:13Z</time>
   </trkpt>
   <trkpt lat="32.6415800" lon="35.0931760">
    <ele>166.8</ele>
    <time>2014-02-21T05:39:15Z</time>
   </trkpt>
   <trkpt lat="32.6416060" lon="35.0931210">
    <ele>167.4</ele>
    <time>2014-02-21T05:39:17Z</time>
   </trkpt>
   <trkpt lat="32.6416350" lon="35.0930680">
    <ele>168.0</ele>
    <time>2014-02-21T05:39:19Z</time>
   </trkpt>
   <trkpt lat="32.6416540" lon="35.0930100">
    <ele>168.7</ele>
    <time>2014-02-21T05:39:21Z</time>
   </trkpt>
   <trkpt lat="32.6416620" lon="35.0929520">
    <ele>169.5</ele>
    <time>2014-02-21T05:39:23Z</time>
   </trkpt>
   <trkpt lat="32.6416680" lon="35.0928950">
    <ele>170.3</ele>
    <time>2014-02-21T05:39:25Z</time>
   </trkpt>
   <trkpt lat="32.6416750" lon="35.0928410">
    <ele>171.0</ele>
    <time>2014-02-21T05:39:27Z</time>
   </trkpt>
   <trkpt lat="32.6416870" lon="35.0927900">
    <ele>171.6</ele>
    <time>2014-02-21T05:39:29Z</time>
   </trkpt>
   <trkpt lat="32.6416990" lon="35.0927410">
    <ele>172.1</ele>
    <time>2014-02-21T05:39:31Z</time>
   </trkpt>
   <trkpt lat="32.6417030" lon="35.0926920">
    <ele>172.8</ele>
    <time>2014-02-21T05:39:33Z</time>
   </trkpt>
   <trkpt lat="32.6417060" lon="35.0926410">
    <ele>173.5</ele>
    <time>2014-02-21T05:39:35Z</time>
   </trkpt>
   <trkpt lat="32.6417030" lon="35.0925900">
    <ele>174.3</ele>
    <time>2014-02-21T05:39:37Z</time>
   </trkpt>
   <trkpt lat="32.6416900" lon="35.0925360">
    <ele>175.3</ele>
    <time>2014-02-21T05:39:39Z</time>
   </trkpt>
   <trkpt lat="32.6416690" lon="35.0924870">
    <ele>176.4</ele>
    <time>2014-02-21T05:39:41Z</time>
   </trkpt>
   <trkpt lat="32.6416320" lon="35.0924540">
    <ele>177.6</ele>
    <time>2014-02-21T05:39:43Z</time>
   </trkpt>
   <trkpt lat="32.6415850" lon="35.0924390">
    <ele>178.6</ele>
    <time>2014-02-21T05:39:45Z</time>
   </trkpt>
   <trkpt lat="32.6415350" lon="35.0924500">
    <ele>179.3</ele>
    <time>2014-02-21T05:39:47Z</time>
   </trkpt>
   <trkpt lat="32.6414890" lon="35.0924730">
    <ele>179.8</ele>
    <time>2014-02-21T05:39:49Z</time>
   </trkpt>
   <trkpt lat="32.6414420" lon="35.0924990">
    <ele>180.2</ele>
    <time>2014-02-21T05:39:51Z</time>
   </trkpt>
   <trkpt lat="32.6414150" lon="35.0925120">
    <ele>180.4</ele>
    <time>2014-02-21T05:39:52Z</time>
   </trkpt>
   <trkpt lat="32.6413890" lon="35.0925230">
    <ele>180.7</ele>
    <time>2014-02-21T05:39:53Z</time>
   </trkpt>
   <trkpt lat="32.6413630" lon="35.0925350">
    <ele>180.9</ele>
    <time>2014-02-21T05:39:54Z</time>
   </trkpt>
   <trkpt lat="32.6413370" lon="35.0925480">
    <ele>181.2</ele>
    <time>2014-02-21T05:39:55Z</time>
   </trkpt>
   <trkpt lat="32.6412870" lon="35.0925690">
    <ele>181.6</ele>
    <time>2014-02-21T05:39:57Z</time>
   </trkpt>
   <trkpt lat="32.6412360" lon="35.0925880">
    <ele>182.1</ele>
    <time>2014-02-21T05:39:59Z</time>
   </trkpt>
   <trkpt lat="32.6411900" lon="35.0926210">
    <ele>182.3</ele>
    <time>2014-02-21T05:40:01Z</time>
   </trkpt>
   <trkpt lat="32.6411680" lon="35.0926420">
    <ele>182.3</ele>
    <time>2014-02-21T05:40:02Z</time>
   </trkpt>
   <trkpt lat="32.6411460" lon="35.0926610">
    <ele>182.3</ele>
    <time>2014-02-21T05:40:03Z</time>
   </trkpt>
   <trkpt lat="32.6411240" lon="35.0926810">
    <ele>182.3</ele>
    <time>2014-02-21T05:40:04Z</time>
   </trkpt>
   <trkpt lat="32.6411020" lon="35.0927010">
    <ele>182.3</ele>
    <time>2014-02-21T05:40:05Z</time>
   </trkpt>
   <trkpt lat="32.6410790" lon="35.0927200">
    <ele>182.3</ele>
    <time>2014-02-21T05:40:06Z</time>
   </trkpt>
   <trkpt lat="32.6410570" lon="35.0927390">
    <ele>182.3</ele>
    <time>2014-02-21T05:40:07Z</time>
   </trkpt>
   <trkpt lat="32.6410340" lon="35.0927560">
    <ele>182.4</ele>
    <time>2014-02-21T05:40:08Z</time>
   </trkpt>
   <trkpt lat="32.6410110" lon="35.0927740">
    <ele>182.4</ele>
    <time>2014-02-21T05:40:09Z</time>
   </trkpt>
   <trkpt lat="32.6409890" lon="35.0927940">
    <ele>182.4</ele>
    <time>2014-02-21T05:40:10Z</time>
   </trkpt>
   <trkpt lat="32.6409670" lon="35.0928150">
    <ele>182.3</ele>
    <time>2014-02-21T05:40:11Z</time>
   </trkpt>
   <trkpt lat="32.6409440" lon="35.0928350">
    <ele>182.3</ele>
    <time>2014-02-21T05:40:12Z</time>
   </trkpt>
   <trkpt lat="32.6409210" lon="35.0928530">
    <ele>182.3</ele>
    <time>2014-02-21T05:40:13Z</time>
   </trkpt>
   <trkpt lat="32.6408980" lon="35.0928730">
    <ele>182.3</ele>
    <time>2014-02-21T05:40:14Z</time>
   </trkpt>
   <trkpt lat="32.6408740" lon="35.0928930">
    <ele>182.3</ele>
    <time>2014-02-21T05:40:15Z</time>
   </trkpt>
   <trkpt lat="32.6408520" lon="35.0929130">
    <ele>182.3</ele>
    <time>2014-02-21T05:40:16Z</time>
   </trkpt>
   <trkpt lat="32.6408300" lon="35.0929340">
    <ele>182.2</ele>
    <time>2014-02-21T05:40:17Z</time>
   </trkpt>
   <trkpt lat="32.6407890" lon="35.0929740">
    <ele>182.2</ele>
    <time>2014-02-21T05:40:19Z</time>
   </trkpt>
   <trkpt lat="32.6407500" lon="35.0930120">
    <ele>182.1</ele>
    <time>2014-02-21T05:40:21Z</time>
   </trkpt>
   <trkpt lat="32.6407120" lon="35.0930530">
    <ele>182.0</ele>
    <time>2014-02-21T05:40:23Z</time>
   </trkpt>
   <trkpt lat="32.6406700" lon="35.0930900">
    <ele>182.1</ele>
    <time>2014-02-21T05:40:25Z</time>
   </trkpt>
   <trkpt lat="32.6406470" lon="35.0931070">
    <ele>182.2</ele>
    <time>2014-02-21T05:40:26Z</time>
   </trkpt>
   <trkpt lat="32.6406250" lon="35.0931260">
    <ele>182.2</ele>
    <time>2014-02-21T05:40:27Z</time>
   </trkpt>
   <trkpt lat="32.6406040" lon="35.0931460">
    <ele>182.3</ele>
    <time>2014-02-21T05:40:28Z</time>
   </trkpt>
   <trkpt lat="32.6405620" lon="35.0931870">
    <ele>182.3</ele>
    <time>2014-02-21T05:40:30Z</time>
   </trkpt>
   <trkpt lat="32.6405400" lon="35.0932060">
    <ele>182.4</ele>
    <time>2014-02-21T05:40:31Z</time>
   </trkpt>
   <trkpt lat="32.6405170" lon="35.0932250">
    <ele>182.4</ele>
    <time>2014-02-21T05:40:32Z</time>
   </trkpt>
   <trkpt lat="32.6404940" lon="35.0932440">
    <ele>182.5</ele>
    <time>2014-02-21T05:40:33Z</time>
   </trkpt>
   <trkpt lat="32.6404710" lon="35.0932630">
    <ele>182.6</ele>
    <time>2014-02-21T05:40:34Z</time>
   </trkpt>
   <trkpt lat="32.6404480" lon="35.0932810">
    <ele>182.8</ele>
    <time>2014-02-21T05:40:35Z</time>
   </trkpt>
   <trkpt lat="32.6404240" lon="35.0932980">
    <ele>182.9</ele>
    <time>2014-02-21T05:40:36Z</time>
   </trkpt>
   <trkpt lat="32.6404000" lon="35.0933140">
    <ele>183.2</ele>
    <time>2014-02-21T05:40:37Z</time>
   </trkpt>
   <trkpt lat="32.6403760" lon="35.0933310">
    <ele>183.4</ele>
    <time>2014-02-21T05:40:38Z</time>
   </trkpt>
   <trkpt lat="32.6403530" lon="35.0933490">
    <ele>183.7</ele>
    <time>2014-02-21T05:40:39Z</time>
   </trkpt>
   <trkpt lat="32.6403290" lon="35.0933660">
    <ele>183.9</ele>
    <time>2014-02-21T05:40:40Z</time>
   </trkpt>
   <trkpt lat="32.6403060" lon="35.0933830">
    <ele>184.2</ele>
    <time>2014-02-21T05:40:41Z</time>
   </trkpt>
   <trkpt lat="32.6402840" lon="35.0934000">
    <ele>184.4</ele>
    <time>2014-02-21T05:40:42Z</time>
   </trkpt>
   <trkpt lat="32.6402610" lon="35.0934190">
    <ele>184.6</ele>
    <time>2014-02-21T05:40:43Z</time>
   </trkpt>
   <trkpt lat="32.6402380" lon="35.0934390">
    <ele>184.7</ele>
    <time>2014-02-21T05:40:44Z</time>
   </trkpt>
   <trkpt lat="32.6402160" lon="35.0934610">
    <ele>184.9</ele>
    <time>2014-02-21T05:40:45Z</time>
   </trkpt>
   <trkpt lat="32.6401930" lon="35.0934830">
    <ele>185.0</ele>
    <time>2014-02-21T05:40:46Z</time>
   </trkpt>
   <trkpt lat="32.6401710" lon="35.0935050">
    <ele>185.1</ele>
    <time>2014-02-21T05:40:47Z</time>
   </trkpt>
   <trkpt lat="32.6401490" lon="35.0935270">
    <ele>185.2</ele>
    <time>2014-02-21T05:40:48Z</time>
   </trkpt>
   <trkpt lat="32.6401270" lon="35.0935500">
    <ele>185.3</ele>
    <time>2014-02-21T05:40:49Z</time>
   </trkpt>
   <trkpt lat="32.6401050" lon="35.0935720">
    <ele>185.4</ele>
    <time>2014-02-21T05:40:50Z</time>
   </trkpt>
   <trkpt lat="32.6400830" lon="35.0935930">
    <ele>185.5</ele>
    <time>2014-02-21T05:40:51Z</time>
   </trkpt>
   <trkpt lat="32.6400620" lon="35.0936140">
    <ele>185.6</ele>
    <time>2014-02-21T05:40:52Z</time>
   </trkpt>
   <trkpt lat="32.6400420" lon="35.0936360">
    <ele>185.6</ele>
    <time>2014-02-21T05:40:53Z</time>
   </trkpt>
   <trkpt lat="32.6400210" lon="35.0936600">
    <ele>185.6</ele>
    <time>2014-02-21T05:40:54Z</time>
   </trkpt>
   <trkpt lat="32.6399990" lon="35.0936820">
    <ele>185.7</ele>
    <time>2014-02-21T05:40:55Z</time>
   </trkpt>
   <trkpt lat="32.6399780" lon="35.0937030">
    <ele>185.8</ele>
    <time>2014-02-21T05:40:56Z</time>
   </trkpt>
   <trkpt lat="32.6399520" lon="35.0937190">
    <ele>186.0</ele>
    <time>2014-02-21T05:40:57Z</time>
   </trkpt>
   <trkpt lat="32.6399270" lon="35.0937350">
    <ele>186.3</ele>
    <time>2014-02-21T05:40:58Z</time>
   </trkpt>
   <trkpt lat="32.6399020" lon="35.0937510">
    <ele>186.5</ele>
    <time>2014-02-21T05:40:59Z</time>
   </trkpt>
   <trkpt lat="32.6398760" lon="35.0937640">
    <ele>186.8</ele>
    <time>2014-02-21T05:41:00Z</time>
   </trkpt>
   <trkpt lat="32.6398270" lon="35.0937850">
    <ele>187.4</ele>
    <time>2014-02-21T05:41:02Z</time>
   </trkpt>
   <trkpt lat="32.6397800" lon="35.0938080">
    <ele>187.9</ele>
    <time>2014-02-21T05:41:04Z</time>
   </trkpt>
   <trkpt lat="32.6397330" lon="35.0938280">
    <ele>188.5</ele>
    <time>2014-02-21T05:41:06Z</time>
   </trkpt>
   <trkpt lat="32.6396890" lon="35.0938510">
    <ele>189.0</ele>
    <time>2014-02-21T05:41:08Z</time>
   </trkpt>
   <trkpt lat="32.6396470" lon="35.0938770">
    <ele>189.3</ele>
    <time>2014-02-21T05:41:10Z</time>
   </trkpt>
   <trkpt lat="32.6396050" lon="35.0939060">
    <ele>189.6</ele>
    <time>2014-02-21T05:41:12Z</time>
   </trkpt>
   <trkpt lat="32.6395650" lon="35.0939400">
    <ele>189.5</ele>
    <time>2014-02-21T05:41:14Z</time>
   </trkpt>
   <trkpt lat="32.6395220" lon="35.0939780">
    <ele>189.1</ele>
    <time>2014-02-21T05:41:16Z</time>
   </trkpt>
   <trkpt lat="32.6394790" lon="35.0940110">
    <ele>188.8</ele>
    <time>2014-02-21T05:41:18Z</time>
   </trkpt>
   <trkpt lat="32.6394340" lon="35.0940410">
    <ele>188.6</ele>
    <time>2014-02-21T05:41:20Z</time>
   </trkpt>
   <trkpt lat="32.6393890" lon="35.0940710">
    <ele>188.3</ele>
    <time>2014-02-21T05:41:22Z</time>
   </trkpt>
   <trkpt lat="32.6393440" lon="35.0940970">
    <ele>188.2</ele>
    <time>2014-02-21T05:41:24Z</time>
   </trkpt>
   <trkpt lat="32.6393000" lon="35.0941200">
    <ele>188.1</ele>
    <time>2014-02-21T05:41:26Z</time>
   </trkpt>
   <trkpt lat="32.6392570" lon="35.0941430">
    <ele>188.0</ele>
    <time>2014-02-21T05:41:28Z</time>
   </trkpt>
   <trkpt lat="32.6392140" lon="35.0941650">
    <ele>187.9</ele>
    <time>2014-02-21T05:41:30Z</time>
   </trkpt>
   <trkpt lat="32.6391690" lon="35.0941850">
    <ele>187.9</ele>
    <time>2014-02-21T05:41:32Z</time>
   </trkpt>
   <trkpt lat="32.6391270" lon="35.0942060">
    <ele>187.8</ele>
    <time>2014-02-21T05:41:34Z</time>
   </trkpt>
   <trkpt lat="32.6390860" lon="35.0942270">
    <ele>187.8</ele>
    <time>2014-02-21T05:41:36Z</time>
   </trkpt>
   <trkpt lat="32.6390460" lon="35.0942480">
    <ele>187.7</ele>
    <time>2014-02-21T05:41:38Z</time>
   </trkpt>
   <trkpt lat="32.6390050" lon="35.0942700">
    <ele>187.6</ele>
    <time>2014-02-21T05:41:40Z</time>
   </trkpt>
   <trkpt lat="32.6389660" lon="35.0942940">
    <ele>187.5</ele>
    <time>2014-02-21T05:41:42Z</time>
   </trkpt>
   <trkpt lat="32.6389250" lon="35.0943170">
    <ele>187.4</ele>
    <time>2014-02-21T05:41:44Z</time>
   </trkpt>
   <trkpt lat="32.6388820" lon="35.0943370">
    <ele>187.4</ele>
    <time>2014-02-21T05:41:46Z</time>
   </trkpt>
   <trkpt lat="32.6388400" lon="35.0943600">
    <ele>187.3</ele>
    <time>2014-02-21T05:41:48Z</time>
   </trkpt>
   <trkpt lat="32.6387980" lon="35.0943850">
    <ele>187.2</ele>
    <time>2014-02-21T05:41:50Z</time>
   </trkpt>
   <trkpt lat="32.6387580" lon="35.0944120">
    <ele>187.0</ele>
    <time>2014-02-21T05:41:52Z</time>
   </trkpt>
   <trkpt lat="32.6387240" lon="35.0944410">
    <ele>186.5</ele>
    <time>2014-02-21T05:41:54Z</time>
   </trkpt>
   <trkpt lat="32.6386920" lon="35.0944730">
    <ele>185.8</ele>
    <time>2014-02-21T05:41:56Z</time>
   </trkpt>
   <trkpt lat="32.6386560" lon="35.0945060">
    <ele>185.1</ele>
    <time>2014-02-21T05:41:58Z</time>
   </trkpt>
   <trkpt lat="32.6386280" lon="35.0945440">
    <ele>184.4</ele>
    <time>2014-02-21T05:42:00Z</time>
   </trkpt>
   <trkpt lat="32.6386130" lon="35.0945830">
    <ele>183.7</ele>
    <time>2014-02-21T05:42:02Z</time>
   </trkpt>
   <trkpt lat="32.6385860" lon="35.0946090">
    <ele>183.5</ele>
    <time>2014-02-21T05:42:04Z</time>
   </trkpt>
   <trkpt lat="32.6385530" lon="35.0946290">
    <ele>183.4</ele>
    <time>2014-02-21T05:42:06Z</time>
   </trkpt>
   <trkpt lat="32.6385220" lon="35.0946590">
    <ele>183.3</ele>
    <time>2014-02-21T05:42:08Z</time>
   </trkpt>
   <trkpt lat="32.6384860" lon="35.0946890">
    <ele>183.2</ele>
    <time>2014-02-21T05:42:10Z</time>
   </trkpt>
   <trkpt lat="32.6384440" lon="35.0947160">
    <ele>183.1</ele>
    <time>2014-02-21T05:42:12Z</time>
   </trkpt>
   <trkpt lat="32.6384020" lon="35.0947440">
    <ele>183.0</ele>
    <time>2014-02-21T05:42:14Z</time>
   </trkpt>
   <trkpt lat="32.6383570" lon="35.0947630">
    <ele>182.9</ele>
    <time>2014-02-21T05:42:16Z</time>
   </trkpt>
   <trkpt lat="32.6383080" lon="35.0947590">
    <ele>182.9</ele>
    <time>2014-02-21T05:42:18Z</time>
   </trkpt>
   <trkpt lat="32.6382590" lon="35.0947360">
    <ele>182.8</ele>
    <time>2014-02-21T05:42:20Z</time>
   </trkpt>
   <trkpt lat="32.6382100" lon="35.0947210">
    <ele>182.7</ele>
    <time>2014-02-21T05:42:22Z</time>
   </trkpt>
   <trkpt lat="32.6381610" lon="35.0947180">
    <ele>182.7</ele>
    <time>2014-02-21T05:42:24Z</time>
   </trkpt>
   <trkpt lat="32.6381110" lon="35.0947220">
    <ele>182.6</ele>
    <time>2014-02-21T05:42:26Z</time>
   </trkpt>
   <trkpt lat="32.6380600" lon="35.0947260">
    <ele>182.5</ele>
    <time>2014-02-21T05:42:28Z</time>
   </trkpt>
   <trkpt lat="32.6380080" lon="35.0947430">
    <ele>182.5</ele>
    <time>2014-02-21T05:42:30Z</time>
   </trkpt>
   <trkpt lat="32.6379830" lon="35.0947580">
    <ele>182.5</ele>
    <time>2014-02-21T05:42:31Z</time>
   </trkpt>
   <trkpt lat="32.6379610" lon="35.0947770">
    <ele>182.5</ele>
    <time>2014-02-21T05:42:32Z</time>
   </trkpt>
   <trkpt lat="32.6379410" lon="35.0948020">
    <ele>182.5</ele>
    <time>2014-02-21T05:42:33Z</time>
   </trkpt>
   <trkpt lat="32.6379240" lon="35.0948300">
    <ele>182.6</ele>
    <time>2014-02-21T05:42:34Z</time>
   </trkpt>
   <trkpt lat="32.6379080" lon="35.0948600">
    <ele>182.7</ele>
    <time>2014-02-21T05:42:35Z</time>
   </trkpt>
   <trkpt lat="32.6378930" lon="35.0948910">
    <ele>182.7</ele>
    <time>2014-02-21T05:42:36Z</time>
   </trkpt>
   <trkpt lat="32.6378790" lon="35.0949240">
    <ele>182.7</ele>
    <time>2014-02-21T05:42:37Z</time>
   </trkpt>
   <trkpt lat="32.6378690" lon="35.0949590">
    <ele>182.8</ele>
    <time>2014-02-21T05:42:38Z</time>
   </trkpt>
   <trkpt lat="32.6378600" lon="35.0950330">
    <ele>182.8</ele>
    <time>2014-02-21T05:42:40Z</time>
   </trkpt>
   <trkpt lat="32.6378620" lon="35.0950760">
    <ele>182.9</ele>
    <time>2014-02-21T05:42:41Z</time>
   </trkpt>
   <trkpt lat="32.6378690" lon="35.0951170">
    <ele>183.0</ele>
    <time>2014-02-21T05:42:42Z</time>
   </trkpt>
   <trkpt lat="32.6378800" lon="35.0951560">
    <ele>183.2</ele>
    <time>2014-02-21T05:42:43Z</time>
   </trkpt>
   <trkpt lat="32.6378920" lon="35.0951940">
    <ele>183.3</ele>
    <time>2014-02-21T05:42:44Z</time>
   </trkpt>
   <trkpt lat="32.6379030" lon="35.0952300">
    <ele>183.5</ele>
    <time>2014-02-21T05:42:45Z</time>
   </trkpt>
   <trkpt lat="32.6379120" lon="35.0952660">
    <ele>183.6</ele>
    <time>2014-02-21T05:42:46Z</time>
   </trkpt>
   <trkpt lat="32.6379160" lon="35.0953020">
    <ele>183.7</ele>
    <time>2014-02-21T05:42:47Z</time>
   </trkpt>
   <trkpt lat="32.6379150" lon="35.0953360">
    <ele>183.8</ele>
    <time>2014-02-21T05:42:48Z</time>
   </trkpt>
   <trkpt lat="32.6379020" lon="35.0953640">
    <ele>183.7</ele>
    <time>2014-02-21T05:42:49Z</time>
   </trkpt>
   <trkpt lat="32.6378880" lon="35.0953920">
    <ele>183.7</ele>
    <time>2014-02-21T05:42:50Z</time>
   </trkpt>
   <trkpt lat="32.6378740" lon="35.0954220">
    <ele>183.6</ele>
    <time>2014-02-21T05:42:51Z</time>
   </trkpt>
   <trkpt lat="32.6378570" lon="35.0954770">
    <ele>183.8</ele>
    <time>2014-02-21T05:42:53Z</time>
   </trkpt>
   <trkpt lat="32.6378470" lon="35.0955080">
    <ele>183.9</ele>
    <time>2014-02-21T05:42:54Z</time>
   </trkpt>
   <trkpt lat="32.6378530" lon="35.0955570">
    <ele>184.2</ele>
    <time>2014-02-21T05:42:56Z</time>
   </trkpt>
   <trkpt lat="32.6378620" lon="35.0956050">
    <ele>184.6</ele>
    <time>2014-02-21T05:42:58Z</time>
   </trkpt>
   <trkpt lat="32.6378670" lon="35.0956570">
    <ele>184.9</ele>
    <time>2014-02-21T05:43:00Z</time>
   </trkpt>
   <trkpt lat="32.6378660" lon="35.0957100">
    <ele>185.2</ele>
    <time>2014-02-21T05:43:02Z</time>
   </trkpt>
   <trkpt lat="32.6378560" lon="35.0957610">
    <ele>185.4</ele>
    <time>2014-02-21T05:43:04Z</time>
   </trkpt>
   <trkpt lat="32.6378380" lon="35.0958090">
    <ele>185.5</ele>
    <time>2014-02-21T05:43:06Z</time>
   </trkpt>
   <trkpt lat="32.6378190" lon="35.0958580">
    <ele>185.5</ele>
    <time>2014-02-21T05:43:08Z</time>
   </trkpt>
   <trkpt lat="32.6378010" lon="35.0959080">
    <ele>185.6</ele>
    <time>2014-02-21T05:43:10Z</time>
   </trkpt>
   <trkpt lat="32.6377880" lon="35.0959600">
    <ele>185.7</ele>
    <time>2014-02-21T05:43:12Z</time>
   </trkpt>
   <trkpt lat="32.6377780" lon="35.0960110">
    <ele>185.9</ele>
    <time>2014-02-21T05:43:14Z</time>
   </trkpt>
   <trkpt lat="32.6377760" lon="35.0960640">
    <ele>186.1</ele>
    <time>2014-02-21T05:43:16Z</time>
   </trkpt>
   <trkpt lat="32.6377700" lon="35.0961180">
    <ele>186.4</ele>
    <time>2014-02-21T05:43:18Z</time>
   </trkpt>
   <trkpt lat="32.6377540" lon="35.0961670">
    <ele>186.4</ele>
    <time>2014-02-21T05:43:20Z</time>
   </trkpt>
   <trkpt lat="32.6377320" lon="35.0962140">
    <ele>186.4</ele>
    <time>2014-02-21T05:43:22Z</time>
   </trkpt>
   <trkpt lat="32.6377080" lon="35.0962590">
    <ele>186.3</ele>
    <time>2014-02-21T05:43:24Z</time>
   </trkpt>
   <trkpt lat="32.6376820" lon="35.0963010">
    <ele>186.2</ele>
    <time>2014-02-21T05:43:26Z</time>
   </trkpt>
   <trkpt lat="32.6376500" lon="35.0963370">
    <ele>186.0</ele>
    <time>2014-02-21T05:43:28Z</time>
   </trkpt>
   <trkpt lat="32.6376170" lon="35.0963730">
    <ele>185.9</ele>
    <time>2014-02-21T05:43:30Z</time>
   </trkpt>
   <trkpt lat="32.6375840" lon="35.0964070">
    <ele>185.7</ele>
    <time>2014-02-21T05:43:32Z</time>
   </trkpt>
   <trkpt lat="32.6375500" lon="35.0964410">
    <ele>185.6</ele>
    <time>2014-02-21T05:43:34Z</time>
   </trkpt>
   <trkpt lat="32.6375160" lon="35.0964730">
    <ele>185.4</ele>
    <time>2014-02-21T05:43:36Z</time>
   </trkpt>
   <trkpt lat="32.6374830" lon="35.0965040">
    <ele>185.3</ele>
    <time>2014-02-21T05:43:38Z</time>
   </trkpt>
   <trkpt lat="32.6374440" lon="35.0965260">
    <ele>185.1</ele>
    <time>2014-02-21T05:43:40Z</time>
   </trkpt>
   <trkpt lat="32.6374090" lon="35.0965470">
    <ele>184.9</ele>
    <time>2014-02-21T05:43:42Z</time>
   </trkpt>
   <trkpt lat="32.6373680" lon="35.0965560">
    <ele>184.6</ele>
    <time>2014-02-21T05:43:44Z</time>
   </trkpt>
   <trkpt lat="32.6373250" lon="35.0965670">
    <ele>184.2</ele>
    <time>2014-02-21T05:43:46Z</time>
   </trkpt>
   <trkpt lat="32.6372810" lon="35.0965820">
    <ele>183.9</ele>
    <time>2014-02-21T05:43:48Z</time>
   </trkpt>
   <trkpt lat="32.6372380" lon="35.0965990">
    <ele>183.7</ele>
    <time>2014-02-21T05:43:50Z</time>
   </trkpt>
   <trkpt lat="32.6371920" lon="35.0966230">
    <ele>183.5</ele>
    <time>2014-02-21T05:43:52Z</time>
   </trkpt>
   <trkpt lat="32.6371480" lon="35.0966470">
    <ele>183.4</ele>
    <time>2014-02-21T05:43:54Z</time>
   </trkpt>
   <trkpt lat="32.6371030" lon="35.0966700">
    <ele>183.2</ele>
    <time>2014-02-21T05:43:56Z</time>
   </trkpt>
   <trkpt lat="32.6370610" lon="35.0966950">
    <ele>183.1</ele>
    <time>2014-02-21T05:43:58Z</time>
   </trkpt>
   <trkpt lat="32.6370200" lon="35.0967280">
    <ele>183.1</ele>
    <time>2014-02-21T05:44:00Z</time>
   </trkpt>
   <trkpt lat="32.6369810" lon="35.0967630">
    <ele>183.1</ele>
    <time>2014-02-21T05:44:02Z</time>
   </trkpt>
   <trkpt lat="32.6369580" lon="35.0967870">
    <ele>183.2</ele>
    <time>2014-02-21T05:44:03Z</time>
   </trkpt>
   <trkpt lat="32.6369370" lon="35.0968120">
    <ele>183.3</ele>
    <time>2014-02-21T05:44:04Z</time>
   </trkpt>
   <trkpt lat="32.6369150" lon="35.0968360">
    <ele>183.4</ele>
    <time>2014-02-21T05:44:05Z</time>
   </trkpt>
   <trkpt lat="32.6368930" lon="35.0968590">
    <ele>183.5</ele>
    <time>2014-02-21T05:44:06Z</time>
   </trkpt>
   <trkpt lat="32.6368680" lon="35.0968830">
    <ele>183.5</ele>
    <time>2014-02-21T05:44:07Z</time>
   </trkpt>
   <trkpt lat="32.6368420" lon="35.0969040">
    <ele>183.6</ele>
    <time>2014-02-21T05:44:08Z</time>
   </trkpt>
   <trkpt lat="32.6368140" lon="35.0969220">
    <ele>183.6</ele>
    <time>2014-02-21T05:44:09Z</time>
   </trkpt>
   <trkpt lat="32.6367830" lon="35.0969380">
    <ele>183.5</ele>
    <time>2014-02-21T05:44:10Z</time>
   </trkpt>
   <trkpt lat="32.6367460" lon="35.0969550">
    <ele>183.4</ele>
    <time>2014-02-21T05:44:11Z</time>
   </trkpt>
   <trkpt lat="32.6367070" lon="35.0969700">
    <ele>183.2</ele>
    <time>2014-02-21T05:44:12Z</time>
   </trkpt>
   <trkpt lat="32.6366680" lon="35.0969840">
    <ele>183.1</ele>
    <time>2014-02-21T05:44:13Z</time>
   </trkpt>
   <trkpt lat="32.6366280" lon="35.0969990">
    <ele>182.9</ele>
    <time>2014-02-21T05:44:14Z</time>
   </trkpt>
   <trkpt lat="32.6365870" lon="35.0970180">
    <ele>182.9</ele>
    <time>2014-02-21T05:44:15Z</time>
   </trkpt>
   <trkpt lat="32.6365320" lon="35.0970530">
    <ele>182.9</ele>
    <time>2014-02-21T05:44:16Z</time>
   </trkpt>
   <trkpt lat="32.6364870" lon="35.0970800">
    <ele>182.9</ele>
    <time>2014-02-21T05:44:17Z</time>
   </trkpt>
   <trkpt lat="32.6364480" lon="35.0971100">
    <ele>183.0</ele>
    <time>2014-02-21T05:44:18Z</time>
   </trkpt>
   <trkpt lat="32.6364090" lon="35.0971390">
    <ele>183.0</ele>
    <time>2014-02-21T05:44:19Z</time>
   </trkpt>
   <trkpt lat="32.6363710" lon="35.0971600">
    <ele>182.9</ele>
    <time>2014-02-21T05:44:20Z</time>
   </trkpt>
   <trkpt lat="32.6363360" lon="35.0971840">
    <ele>183.0</ele>
    <time>2014-02-21T05:44:21Z</time>
   </trkpt>
   <trkpt lat="32.6362990" lon="35.0972050">
    <ele>183.0</ele>
    <time>2014-02-21T05:44:22Z</time>
   </trkpt>
   <trkpt lat="32.6362670" lon="35.0972260">
    <ele>183.0</ele>
    <time>2014-02-21T05:44:23Z</time>
   </trkpt>
   <trkpt lat="32.6362320" lon="35.0972400">
    <ele>182.9</ele>
    <time>2014-02-21T05:44:24Z</time>
   </trkpt>
   <trkpt lat="32.6361980" lon="35.0972540">
    <ele>182.7</ele>
    <time>2014-02-21T05:44:25Z</time>
   </trkpt>
   <trkpt lat="32.6361660" lon="35.0972620">
    <ele>182.5</ele>
    <time>2014-02-21T05:44:26Z</time>
   </trkpt>
   <trkpt lat="32.6361290" lon="35.0972620">
    <ele>182.1</ele>
    <time>2014-02-21T05:44:27Z</time>
   </trkpt>
   <trkpt lat="32.6360910" lon="35.0972620">
    <ele>181.8</ele>
    <time>2014-02-21T05:44:28Z</time>
   </trkpt>
   <trkpt lat="32.6360540" lon="35.0972630">
    <ele>181.4</ele>
    <time>2014-02-21T05:44:29Z</time>
   </trkpt>
   <trkpt lat="32.6360180" lon="35.0972610">
    <ele>181.0</ele>
    <time>2014-02-21T05:44:30Z</time>
   </trkpt>
   <trkpt lat="32.6359830" lon="35.0972620">
    <ele>180.7</ele>
    <time>2014-02-21T05:44:31Z</time>
   </trkpt>
   <trkpt lat="32.6359470" lon="35.0972630">
    <ele>180.3</ele>
    <time>2014-02-21T05:44:32Z</time>
   </trkpt>
   <trkpt lat="32.6359110" lon="35.0972680">
    <ele>180.0</ele>
    <time>2014-02-21T05:44:33Z</time>
   </trkpt>
   <trkpt lat="32.6358730" lon="35.0972760">
    <ele>179.7</ele>
    <time>2014-02-21T05:44:34Z</time>
   </trkpt>
   <trkpt lat="32.6358350" lon="35.0972860">
    <ele>179.4</ele>
    <time>2014-02-21T05:44:35Z</time>
   </trkpt>
   <trkpt lat="32.6357970" lon="35.0972980">
    <ele>179.2</ele>
    <time>2014-02-21T05:44:36Z</time>
   </trkpt>
   <trkpt lat="32.6357600" lon="35.0973110">
    <ele>179.0</ele>
    <time>2014-02-21T05:44:37Z</time>
   </trkpt>
   <trkpt lat="32.6357240" lon="35.0973210">
    <ele>178.7</ele>
    <time>2014-02-21T05:44:38Z</time>
   </trkpt>
   <trkpt lat="32.6356930" lon="35.0973370">
    <ele>178.6</ele>
    <time>2014-02-21T05:44:39Z</time>
   </trkpt>
   <trkpt lat="32.6356650" lon="35.0973490">
    <ele>178.4</ele>
    <time>2014-02-21T05:44:40Z</time>
   </trkpt>
   <trkpt lat="32.6356330" lon="35.0973680">
    <ele>178.3</ele>
    <time>2014-02-21T05:44:42Z</time>
   </trkpt>
   <trkpt lat="32.6356080" lon="35.0973910">
    <ele>178.3</ele>
    <time>2014-02-21T05:44:44Z</time>
   </trkpt>
   <trkpt lat="32.6355970" lon="35.0974280">
    <ele>178.6</ele>
    <time>2014-02-21T05:44:48Z</time>
   </trkpt>
   <trkpt lat="32.6355700" lon="35.0974370">
    <ele>178.4</ele>
    <time>2014-02-21T05:46:12Z</time>
   </trkpt>
   <trkpt lat="32.6355370" lon="35.0974340">
    <ele>178.1</ele>
    <time>2014-02-21T05:46:15Z</time>
   </trkpt>
   <trkpt lat="32.6354840" lon="35.0974590">
    <ele>177.8</ele>
    <time>2014-02-21T05:46:18Z</time>
   </trkpt>
   <trkpt lat="32.6354490" lon="35.0974890">
    <ele>177.7</ele>
    <time>2014-02-21T05:46:19Z</time>
   </trkpt>
   <trkpt lat="32.6354090" lon="35.0975340">
    <ele>177.7</ele>
    <time>2014-02-21T05:46:20Z</time>
   </trkpt>
   <trkpt lat="32.6353760" lon="35.0976030">
    <ele>177.7</ele>
    <time>2014-02-21T05:46:21Z</time>
   </trkpt>
   <trkpt lat="32.6353460" lon="35.0976590">
    <ele>177.6</ele>
    <time>2014-02-21T05:46:22Z</time>
   </trkpt>
   <trkpt lat="32.6353330" lon="35.0977510">
    <ele>178.2</ele>
    <time>2014-02-21T05:46:23Z</time>
   </trkpt>
   <trkpt lat="32.6353140" lon="35.0978230">
    <ele>178.3</ele>
    <time>2014-02-21T05:46:24Z</time>
   </trkpt>
   <trkpt lat="32.6352910" lon="35.0978960">
    <ele>178.4</ele>
    <time>2014-02-21T05:46:25Z</time>
   </trkpt>
   <trkpt lat="32.6352610" lon="35.0979720">
    <ele>177.5</ele>
    <time>2014-02-21T05:46:26Z</time>
   </trkpt>
   <trkpt lat="32.6352430" lon="35.0980570">
    <ele>176.8</ele>
    <time>2014-02-21T05:46:27Z</time>
   </trkpt>
   <trkpt lat="32.6352320" lon="35.0981380">
    <ele>176.3</ele>
    <time>2014-02-21T05:46:28Z</time>
   </trkpt>
   <trkpt lat="32.6352270" lon="35.0982250">
    <ele>176.0</ele>
    <time>2014-02-21T05:46:29Z</time>
   </trkpt>
   <trkpt lat="32.6352230" lon="35.0983110">
    <ele>175.6</ele>
    <time>2014-02-21T05:46:30Z</time>
   </trkpt>
   <trkpt lat="32.6351540" lon="35.0983810">
    <ele>173.9</ele>
    <time>2014-02-21T05:46:31Z</time>
   </trkpt>
   <trkpt lat="32.6351200" lon="35.0984660">
    <ele>173.1</ele>
    <time>2014-02-21T05:46:32Z</time>
   </trkpt>
   <trkpt lat="32.6350930" lon="35.0985500">
    <ele>172.4</ele>
    <time>2014-02-21T05:46:33Z</time>
   </trkpt>
   <trkpt lat="32.6350630" lon="35.0986340">
    <ele>171.7</ele>
    <time>2014-02-21T05:46:34Z</time>
   </trkpt>
   <trkpt lat="32.6350330" lon="35.0987230">
    <ele>171.1</ele>
    <time>2014-02-21T05:46:35Z</time>
   </trkpt>
   <trkpt lat="32.6350070" lon="35.0988070">
    <ele>170.6</ele>
    <time>2014-02-21T05:46:36Z</time>
   </trkpt>
   <trkpt lat="32.6349800" lon="35.0988980">
    <ele>170.1</ele>
    <time>2014-02-21T05:46:37Z</time>
   </trkpt>
   <trkpt lat="32.6349750" lon="35.0989890">
    <ele>170.1</ele>
    <time>2014-02-21T05:46:38Z</time>
   </trkpt>
   <trkpt lat="32.6349820" lon="35.0990830">
    <ele>170.2</ele>
    <time>2014-02-21T05:46:39Z</time>
   </trkpt>
   <trkpt lat="32.6349680" lon="35.0991680">
    <ele>170.0</ele>
    <time>2014-02-21T05:46:40Z</time>
   </trkpt>
   <trkpt lat="32.6349340" lon="35.0992420">
    <ele>169.4</ele>
    <time>2014-02-21T05:46:41Z</time>
   </trkpt>
   <trkpt lat="32.6349180" lon="35.0993220">
    <ele>169.2</ele>
    <time>2014-02-21T05:46:42Z</time>
   </trkpt>
   <trkpt lat="32.6349150" lon="35.0994080">
    <ele>169.1</ele>
    <time>2014-02-21T05:46:43Z</time>
   </trkpt>
   <trkpt lat="32.6349070" lon="35.0994780">
    <ele>169.0</ele>
    <time>2014-02-21T05:46:44Z</time>
   </trkpt>
   <trkpt lat="32.6348850" lon="35.0995310">
    <ele>168.7</ele>
    <time>2014-02-21T05:46:45Z</time>
   </trkpt>
   <trkpt lat="32.6348500" lon="35.0995530">
    <ele>168.1</ele>
    <time>2014-02-21T05:46:46Z</time>
   </trkpt>
   <trkpt lat="32.6348110" lon="35.0995500">
    <ele>167.5</ele>
    <time>2014-02-21T05:46:47Z</time>
   </trkpt>
   <trkpt lat="32.6347650" lon="35.0995240">
    <ele>166.8</ele>
    <time>2014-02-21T05:46:48Z</time>
   </trkpt>
   <trkpt lat="32.6347180" lon="35.0994890">
    <ele>166.0</ele>
    <time>2014-02-21T05:46:49Z</time>
   </trkpt>
   <trkpt lat="32.6346750" lon="35.0994410">
    <ele>165.3</ele>
    <time>2014-02-21T05:46:50Z</time>
   </trkpt>
   <trkpt lat="32.6346390" lon="35.0993780">
    <ele>164.7</ele>
    <time>2014-02-21T05:46:51Z</time>
   </trkpt>
   <trkpt lat="32.6346050" lon="35.0993080">
    <ele>164.0</ele>
    <time>2014-02-21T05:46:52Z</time>
   </trkpt>
   <trkpt lat="32.6345760" lon="35.0992340">
    <ele>163.5</ele>
    <time>2014-02-21T05:46:53Z</time>
   </trkpt>
   <trkpt lat="32.6345460" lon="35.0991660">
    <ele>162.9</ele>
    <time>2014-02-21T05:46:54Z</time>
   </trkpt>
   <trkpt lat="32.6345180" lon="35.0990940">
    <ele>162.4</ele>
    <time>2014-02-21T05:46:55Z</time>
   </trkpt>
   <trkpt lat="32.6344860" lon="35.0990210">
    <ele>161.8</ele>
    <time>2014-02-21T05:46:56Z</time>
   </trkpt>
   <trkpt lat="32.6344640" lon="35.0989580">
    <ele>161.4</ele>
    <time>2014-02-21T05:46:57Z</time>
   </trkpt>
   <trkpt lat="32.6344620" lon="35.0988990">
    <ele>161.3</ele>
    <time>2014-02-21T05:46:58Z</time>
   </trkpt>
   <trkpt lat="32.6344560" lon="35.0988350">
    <ele>161.1</ele>
    <time>2014-02-21T05:46:59Z</time>
   </trkpt>
   <trkpt lat="32.6344500" lon="35.0987720">
    <ele>160.9</ele>
    <time>2014-02-21T05:47:00Z</time>
   </trkpt>
   <trkpt lat="32.6344320" lon="35.0987070">
    <ele>160.5</ele>
    <time>2014-02-21T05:47:01Z</time>
   </trkpt>
   <trkpt lat="32.6344290" lon="35.0986460">
    <ele>160.3</ele>
    <time>2014-02-21T05:47:02Z</time>
   </trkpt>
   <trkpt lat="32.6344290" lon="35.0985770">
    <ele>160.0</ele>
    <time>2014-02-21T05:47:03Z</time>
   </trkpt>
   <trkpt lat="32.6344140" lon="35.0985060">
    <ele>159.6</ele>
    <time>2014-02-21T05:47:04Z</time>
   </trkpt>
   <trkpt lat="32.6343970" lon="35.0984360">
    <ele>159.2</ele>
    <time>2014-02-21T05:47:05Z</time>
   </trkpt>
   <trkpt lat="32.6343800" lon="35.0983880">
    <ele>158.8</ele>
    <time>2014-02-21T05:47:06Z</time>
   </trkpt>
   <trkpt lat="32.6343490" lon="35.0983610">
    <ele>158.4</ele>
    <time>2014-02-21T05:47:07Z</time>
   </trkpt>
   <trkpt lat="32.6343110" lon="35.0983600">
    <ele>158.0</ele>
    <time>2014-02-21T05:47:08Z</time>
   </trkpt>
   <trkpt lat="32.6342740" lon="35.0983860">
    <ele>157.6</ele>
    <time>2014-02-21T05:47:09Z</time>
   </trkpt>
   <trkpt lat="32.6342400" lon="35.0984420">
    <ele>157.2</ele>
    <time>2014-02-21T05:47:10Z</time>
   </trkpt>
   <trkpt lat="32.6342050" lon="35.0985130">
    <ele>156.9</ele>
    <time>2014-02-21T05:47:11Z</time>
   </trkpt>
   <trkpt lat="32.6341760" lon="35.0985880">
    <ele>156.5</ele>
    <time>2014-02-21T05:47:12Z</time>
   </trkpt>
   <trkpt lat="32.6341460" lon="35.0986650">
    <ele>156.1</ele>
    <time>2014-02-21T05:47:13Z</time>
   </trkpt>
   <trkpt lat="32.6341070" lon="35.0987310">
    <ele>155.6</ele>
    <time>2014-02-21T05:47:14Z</time>
   </trkpt>
   <trkpt lat="32.6340650" lon="35.0987850">
    <ele>154.9</ele>
    <time>2014-02-21T05:47:15Z</time>
   </trkpt>
   <trkpt lat="32.6340220" lon="35.0988390">
    <ele>154.3</ele>
    <time>2014-02-21T05:47:16Z</time>
   </trkpt>
   <trkpt lat="32.6339720" lon="35.0988700">
    <ele>153.5</ele>
    <time>2014-02-21T05:47:17Z</time>
   </trkpt>
   <trkpt lat="32.6339400" lon="35.0989330">
    <ele>153.0</ele>
    <time>2014-02-21T05:47:18Z</time>
   </trkpt>
   <trkpt lat="32.6339120" lon="35.0990000">
    <ele>152.6</ele>
    <time>2014-02-21T05:47:19Z</time>
   </trkpt>
   <trkpt lat="32.6338820" lon="35.0990680">
    <ele>152.1</ele>
    <time>2014-02-21T05:47:20Z</time>
   </trkpt>
   <trkpt lat="32.6338510" lon="35.0991360">
    <ele>151.6</ele>
    <time>2014-02-21T05:47:21Z</time>
   </trkpt>
   <trkpt lat="32.6338120" lon="35.0992110">
    <ele>151.0</ele>
    <time>2014-02-21T05:47:22Z</time>
   </trkpt>
   <trkpt lat="32.6337770" lon="35.0992880">
    <ele>150.4</ele>
    <time>2014-02-21T05:47:23Z</time>
   </trkpt>
   <trkpt lat="32.6337460" lon="35.0993640">
    <ele>150.0</ele>
    <time>2014-02-21T05:47:24Z</time>
   </trkpt>
   <trkpt lat="32.6337140" lon="35.0994400">
    <ele>149.8</ele>
    <time>2014-02-21T05:47:25Z</time>
   </trkpt>
   <trkpt lat="32.6336950" lon="35.0995210">
    <ele>149.6</ele>
    <time>2014-02-21T05:47:26Z</time>
   </trkpt>
   <trkpt lat="32.6336630" lon="35.0995830">
    <ele>149.4</ele>
    <time>2014-02-21T05:47:27Z</time>
   </trkpt>
   <trkpt lat="32.6336070" lon="35.0996240">
    <ele>149.0</ele>
    <time>2014-02-21T05:47:28Z</time>
   </trkpt>
   <trkpt lat="32.6335550" lon="35.0996680">
    <ele>148.6</ele>
    <time>2014-02-21T05:47:29Z</time>
   </trkpt>
   <trkpt lat="32.6335060" lon="35.0997220">
    <ele>148.2</ele>
    <time>2014-02-21T05:47:30Z</time>
   </trkpt>
   <trkpt lat="32.6334640" lon="35.0997730">
    <ele>147.8</ele>
    <time>2014-02-21T05:47:31Z</time>
   </trkpt>
   <trkpt lat="32.6334190" lon="35.0998190">
    <ele>147.4</ele>
    <time>2014-02-21T05:47:32Z</time>
   </trkpt>
   <trkpt lat="32.6333750" lon="35.0998780">
    <ele>146.9</ele>
    <time>2014-02-21T05:47:33Z</time>
   </trkpt>
   <trkpt lat="32.6333230" lon="35.0999370">
    <ele>146.3</ele>
    <time>2014-02-21T05:47:34Z</time>
   </trkpt>
   <trkpt lat="32.6332600" lon="35.0999880">
    <ele>145.4</ele>
    <time>2014-02-21T05:47:35Z</time>
   </trkpt>
   <trkpt lat="32.6332010" lon="35.1000330">
    <ele>144.6</ele>
    <time>2014-02-21T05:47:36Z</time>
   </trkpt>
   <trkpt lat="32.6331510" lon="35.1000870">
    <ele>143.9</ele>
    <time>2014-02-21T05:47:37Z</time>
   </trkpt>
   <trkpt lat="32.6331130" lon="35.1001400">
    <ele>143.2</ele>
    <time>2014-02-21T05:47:38Z</time>
   </trkpt>
   <trkpt lat="32.6331010" lon="35.1002100">
    <ele>142.7</ele>
    <time>2014-02-21T05:47:39Z</time>
   </trkpt>
   <trkpt lat="32.6331030" lon="35.1002840">
    <ele>142.5</ele>
    <time>2014-02-21T05:47:40Z</time>
   </trkpt>
   <trkpt lat="32.6331000" lon="35.1003620">
    <ele>142.1</ele>
    <time>2014-02-21T05:47:41Z</time>
   </trkpt>
   <trkpt lat="32.6330930" lon="35.1004490">
    <ele>141.6</ele>
    <time>2014-02-21T05:47:42Z</time>
   </trkpt>
   <trkpt lat="32.6330880" lon="35.1005340">
    <ele>141.2</ele>
    <time>2014-02-21T05:47:43Z</time>
   </trkpt>
   <trkpt lat="32.6330780" lon="35.1006150">
    <ele>140.7</ele>
    <time>2014-02-21T05:47:44Z</time>
   </trkpt>
   <trkpt lat="32.6330800" lon="35.1006960">
    <ele>140.3</ele>
    <time>2014-02-21T05:47:45Z</time>
   </trkpt>
   <trkpt lat="32.6331040" lon="35.1007740">
    <ele>140.3</ele>
    <time>2014-02-21T05:47:46Z</time>
   </trkpt>
   <trkpt lat="32.6331220" lon="35.1008520">
    <ele>140.2</ele>
    <time>2014-02-21T05:47:47Z</time>
   </trkpt>
   <trkpt lat="32.6331330" lon="35.1009370">
    <ele>140.0</ele>
    <time>2014-02-21T05:47:48Z</time>
   </trkpt>
   <trkpt lat="32.6331470" lon="35.1010210">
    <ele>139.8</ele>
    <time>2014-02-21T05:47:49Z</time>
   </trkpt>
   <trkpt lat="32.6331520" lon="35.1011080">
    <ele>139.5</ele>
    <time>2014-02-21T05:47:50Z</time>
   </trkpt>
   <trkpt lat="32.6331500" lon="35.1011990">
    <ele>139.0</ele>
    <time>2014-02-21T05:47:51Z</time>
   </trkpt>
   <trkpt lat="32.6331480" lon="35.1012860">
    <ele>138.8</ele>
    <time>2014-02-21T05:47:52Z</time>
   </trkpt>
   <trkpt lat="32.6331430" lon="35.1013610">
    <ele>138.7</ele>
    <time>2014-02-21T05:47:53Z</time>
   </trkpt>
   <trkpt lat="32.6331260" lon="35.1014250">
    <ele>138.6</ele>
    <time>2014-02-21T05:47:54Z</time>
   </trkpt>
   <trkpt lat="32.6331080" lon="35.1014680">
    <ele>138.4</ele>
    <time>2014-02-21T05:47:55Z</time>
   </trkpt>
   <trkpt lat="32.6330950" lon="35.1014980">
    <ele>138.2</ele>
    <time>2014-02-21T05:47:56Z</time>
   </trkpt>
   <trkpt lat="32.6330690" lon="35.1015500">
    <ele>138.0</ele>
    <time>2014-02-21T05:47:58Z</time>
   </trkpt>
   <trkpt lat="32.6330460" lon="35.1015800">
    <ele>137.8</ele>
    <time>2014-02-21T05:47:59Z</time>
   </trkpt>
   <trkpt lat="32.6330190" lon="35.1016020">
    <ele>137.5</ele>
    <time>2014-02-21T05:48:00Z</time>
   </trkpt>
   <trkpt lat="32.6329890" lon="35.1016250">
    <ele>137.2</ele>
    <time>2014-02-21T05:48:01Z</time>
   </trkpt>
   <trkpt lat="32.6329570" lon="35.1016500">
    <ele>136.9</ele>
    <time>2014-02-21T05:48:03Z</time>
   </trkpt>
   <trkpt lat="32.6329250" lon="35.1016720">
    <ele>136.6</ele>
    <time>2014-02-21T05:52:14Z</time>
   </trkpt>
   <trkpt lat="32.6328970" lon="35.1016800">
    <ele>136.4</ele>
    <time>2014-02-21T05:52:17Z</time>
   </trkpt>
   <trkpt lat="32.6328630" lon="35.1016860">
    <ele>136.3</ele>
    <time>2014-02-21T05:52:20Z</time>
   </trkpt>
   <trkpt lat="32.6328260" lon="35.1017030">
    <ele>136.1</ele>
    <time>2014-02-21T05:52:23Z</time>
   </trkpt>
   <trkpt lat="32.6327890" lon="35.1017170">
    <ele>135.9</ele>
    <time>2014-02-21T05:52:25Z</time>
   </trkpt>
   <trkpt lat="32.6327360" lon="35.1017370">
    <ele>135.7</ele>
    <time>2014-02-21T05:52:27Z</time>
   </trkpt>
   <trkpt lat="32.6327060" lon="35.1017490">
    <ele>135.5</ele>
    <time>2014-02-21T05:52:28Z</time>
   </trkpt>
   <trkpt lat="32.6326760" lon="35.1017620">
    <ele>135.4</ele>
    <time>2014-02-21T05:52:29Z</time>
   </trkpt>
   <trkpt lat="32.6326460" lon="35.1017720">
    <ele>135.2</ele>
    <time>2014-02-21T05:52:30Z</time>
   </trkpt>
   <trkpt lat="32.6325830" lon="35.1017910">
    <ele>134.9</ele>
    <time>2014-02-21T05:52:32Z</time>
   </trkpt>
   <trkpt lat="32.6325520" lon="35.1018000">
    <ele>134.8</ele>
    <time>2014-02-21T05:52:33Z</time>
   </trkpt>
   <trkpt lat="32.6325190" lon="35.1018080">
    <ele>134.6</ele>
    <time>2014-02-21T05:52:34Z</time>
   </trkpt>
   <trkpt lat="32.6324860" lon="35.1018150">
    <ele>134.4</ele>
    <time>2014-02-21T05:52:35Z</time>
   </trkpt>
   <trkpt lat="32.6324540" lon="35.1018260">
    <ele>134.3</ele>
    <time>2014-02-21T05:52:36Z</time>
   </trkpt>
   <trkpt lat="32.6324220" lon="35.1018380">
    <ele>134.1</ele>
    <time>2014-02-21T05:52:37Z</time>
   </trkpt>
   <trkpt lat="32.6323900" lon="35.1018520">
    <ele>133.9</ele>
    <time>2014-02-21T05:52:38Z</time>
   </trkpt>
   <trkpt lat="32.6323550" lon="35.1018650">
    <ele>133.7</ele>
    <time>2014-02-21T05:52:39Z</time>
   </trkpt>
   <trkpt lat="32.6323200" lon="35.1018810">
    <ele>133.5</ele>
    <time>2014-02-21T05:52:40Z</time>
   </trkpt>
   <trkpt lat="32.6322830" lon="35.1019000">
    <ele>133.3</ele>
    <time>2014-02-21T05:52:41Z</time>
   </trkpt>
   <trkpt lat="32.6322440" lon="35.1019200">
    <ele>133.1</ele>
    <time>2014-02-21T05:52:42Z</time>
   </trkpt>
   <trkpt lat="32.6322020" lon="35.1019430">
    <ele>132.8</ele>
    <time>2014-02-21T05:52:43Z</time>
   </trkpt>
   <trkpt lat="32.6321600" lon="35.1019680">
    <ele>132.6</ele>
    <time>2014-02-21T05:52:44Z</time>
   </trkpt>
   <trkpt lat="32.6321060" lon="35.1020120">
    <ele>132.2</ele>
    <time>2014-02-21T05:52:45Z</time>
   </trkpt>
   <trkpt lat="32.6320740" lon="35.1020440">
    <ele>132.0</ele>
    <time>2014-02-21T05:52:46Z</time>
   </trkpt>
   <trkpt lat="32.6320460" lon="35.1020810">
    <ele>132.0</ele>
    <time>2014-02-21T05:52:47Z</time>
   </trkpt>
   <trkpt lat="32.6320230" lon="35.1021160">
    <ele>132.0</ele>
    <time>2014-02-21T05:52:48Z</time>
   </trkpt>
   <trkpt lat="32.6319930" lon="35.1021510">
    <ele>132.0</ele>
    <time>2014-02-21T05:52:49Z</time>
   </trkpt>
   <trkpt lat="32.6319580" lon="35.1021830">
    <ele>132.0</ele>
    <time>2014-02-21T05:52:50Z</time>
   </trkpt>
   <trkpt lat="32.6319170" lon="35.1022200">
    <ele>131.9</ele>
    <time>2014-02-21T05:52:51Z</time>
   </trkpt>
   <trkpt lat="32.6318760" lon="35.1022610">
    <ele>131.9</ele>
    <time>2014-02-21T05:52:52Z</time>
   </trkpt>
   <trkpt lat="32.6318350" lon="35.1023090">
    <ele>131.8</ele>
    <time>2014-02-21T05:52:53Z</time>
   </trkpt>
   <trkpt lat="32.6317930" lon="35.1023580">
    <ele>131.6</ele>
    <time>2014-02-21T05:52:54Z</time>
   </trkpt>
   <trkpt lat="32.6317490" lon="35.1024090">
    <ele>131.4</ele>
    <time>2014-02-21T05:52:55Z</time>
   </trkpt>
   <trkpt lat="32.6317020" lon="35.1024690">
    <ele>131.2</ele>
    <time>2014-02-21T05:52:56Z</time>
   </trkpt>
   <trkpt lat="32.6316660" lon="35.1025300">
    <ele>131.0</ele>
    <time>2014-02-21T05:52:57Z</time>
   </trkpt>
   <trkpt lat="32.6316050" lon="35.1025690">
    <ele>130.6</ele>
    <time>2014-02-21T05:52:58Z</time>
   </trkpt>
   <trkpt lat="32.6315340" lon="35.1025860">
    <ele>130.2</ele>
    <time>2014-02-21T05:52:59Z</time>
   </trkpt>
   <trkpt lat="32.6314580" lon="35.1026020">
    <ele>129.7</ele>
    <time>2014-02-21T05:53:00Z</time>
   </trkpt>
   <trkpt lat="32.6313830" lon="35.1026210">
    <ele>129.2</ele>
    <time>2014-02-21T05:53:01Z</time>
   </trkpt>
   <trkpt lat="32.6313020" lon="35.1026450">
    <ele>128.6</ele>
    <time>2014-02-21T05:53:02Z</time>
   </trkpt>
   <trkpt lat="32.6312180" lon="35.1026740">
    <ele>128.2</ele>
    <time>2014-02-21T05:53:03Z</time>
   </trkpt>
   <trkpt lat="32.6311310" lon="35.1026970">
    <ele>128.1</ele>
    <time>2014-02-21T05:53:04Z</time>
   </trkpt>
   <trkpt lat="32.6310490" lon="35.1027180">
    <ele>128.0</ele>
    <time>2014-02-21T05:53:05Z</time>
   </trkpt>
   <trkpt lat="32.6309560" lon="35.1027260">
    <ele>127.9</ele>
    <time>2014-02-21T05:53:06Z</time>
   </trkpt>
   <trkpt lat="32.6308810" lon="35.1027310">
    <ele>127.9</ele>
    <time>2014-02-21T05:53:07Z</time>
   </trkpt>
   <trkpt lat="32.6308270" lon="35.1027710">
    <ele>127.7</ele>
    <time>2014-02-21T05:53:08Z</time>
   </trkpt>
   <trkpt lat="32.6307890" lon="35.1028260">
    <ele>127.4</ele>
    <time>2014-02-21T05:53:09Z</time>
   </trkpt>
   <trkpt lat="32.6307520" lon="35.1028930">
    <ele>127.1</ele>
    <time>2014-02-21T05:53:10Z</time>
   </trkpt>
   <trkpt lat="32.6307050" lon="35.1029570">
    <ele>126.9</ele>
    <time>2014-02-21T05:53:11Z</time>
   </trkpt>
   <trkpt lat="32.6306640" lon="35.1030150">
    <ele>126.7</ele>
    <time>2014-02-21T05:53:12Z</time>
   </trkpt>
   <trkpt lat="32.6306050" lon="35.1030760">
    <ele>126.5</ele>
    <time>2014-02-21T05:53:13Z</time>
   </trkpt>
   <trkpt lat="32.6305370" lon="35.1031180">
    <ele>126.3</ele>
    <time>2014-02-21T05:53:14Z</time>
   </trkpt>
   <trkpt lat="32.6304690" lon="35.1031610">
    <ele>126.1</ele>
    <time>2014-02-21T05:53:15Z</time>
   </trkpt>
   <trkpt lat="32.6303960" lon="35.1031850">
    <ele>126.0</ele>
    <time>2014-02-21T05:53:16Z</time>
   </trkpt>
   <trkpt lat="32.6303210" lon="35.1031940">
    <ele>126.0</ele>
    <time>2014-02-21T05:53:17Z</time>
   </trkpt>
   <trkpt lat="32.6302480" lon="35.1031830">
    <ele>126.0</ele>
    <time>2014-02-21T05:53:18Z</time>
   </trkpt>
   <trkpt lat="32.6301860" lon="35.1031560">
    <ele>126.0</ele>
    <time>2014-02-21T05:53:19Z</time>
   </trkpt>
   <trkpt lat="32.6301220" lon="35.1031370">
    <ele>126.0</ele>
    <time>2014-02-21T05:53:20Z</time>
   </trkpt>
   <trkpt lat="32.6300620" lon="35.1031290">
    <ele>126.0</ele>
    <time>2014-02-21T05:53:21Z</time>
   </trkpt>
   <trkpt lat="32.6300010" lon="35.1031610">
    <ele>125.9</ele>
    <time>2014-02-21T05:53:22Z</time>
   </trkpt>
   <trkpt lat="32.6299340" lon="35.1031940">
    <ele>125.8</ele>
    <time>2014-02-21T05:53:23Z</time>
   </trkpt>
   <trkpt lat="32.6298760" lon="35.1032330">
    <ele>125.7</ele>
    <time>2014-02-21T05:53:24Z</time>
   </trkpt>
   <trkpt lat="32.6298320" lon="35.1032730">
    <ele>125.6</ele>
    <time>2014-02-21T05:53:25Z</time>
   </trkpt>
   <trkpt lat="32.6297910" lon="35.1033340">
    <ele>125.5</ele>
    <time>2014-02-21T05:53:26Z</time>
   </trkpt>
   <trkpt lat="32.6297680" lon="35.1034060">
    <ele>125.4</ele>
    <time>2014-02-21T05:53:27Z</time>
   </trkpt>
   <trkpt lat="32.6297460" lon="35.1034840">
    <ele>125.2</ele>
    <time>2014-02-21T05:53:28Z</time>
   </trkpt>
   <trkpt lat="32.6297250" lon="35.1035630">
    <ele>125.1</ele>
    <time>2014-02-21T05:53:29Z</time>
   </trkpt>
   <trkpt lat="32.6296930" lon="35.1036430">
    <ele>125.0</ele>
    <time>2014-02-21T05:53:30Z</time>
   </trkpt>
   <trkpt lat="32.6296590" lon="35.1037180">
    <ele>125.0</ele>
    <time>2014-02-21T05:53:31Z</time>
   </trkpt>
   <trkpt lat="32.6296360" lon="35.1038050">
    <ele>124.7</ele>
    <time>2014-02-21T05:53:32Z</time>
   </trkpt>
   <trkpt lat="32.6296200" lon="35.1038920">
    <ele>124.3</ele>
    <time>2014-02-21T05:53:33Z</time>
   </trkpt>
   <trkpt lat="32.6296120" lon="35.1039740">
    <ele>123.9</ele>
    <time>2014-02-21T05:53:34Z</time>
   </trkpt>
   <trkpt lat="32.6296030" lon="35.1040570">
    <ele>123.5</ele>
    <time>2014-02-21T05:53:35Z</time>
   </trkpt>
   <trkpt lat="32.6295840" lon="35.1041400">
    <ele>123.1</ele>
    <time>2014-02-21T05:53:36Z</time>
   </trkpt>
   <trkpt lat="32.6295790" lon="35.1042280">
    <ele>122.7</ele>
    <time>2014-02-21T05:53:37Z</time>
   </trkpt>
   <trkpt lat="32.6295870" lon="35.1043070">
    <ele>122.3</ele>
    <time>2014-02-21T05:53:38Z</time>
   </trkpt>
   <trkpt lat="32.6295920" lon="35.1043940">
    <ele>121.9</ele>
    <time>2014-02-21T05:53:39Z</time>
   </trkpt>
   <trkpt lat="32.6295860" lon="35.1044680">
    <ele>121.6</ele>
    <time>2014-02-21T05:53:40Z</time>
   </trkpt>
   <trkpt lat="32.6295650" lon="35.1045550">
    <ele>121.1</ele>
    <time>2014-02-21T05:53:41Z</time>
   </trkpt>
   <trkpt lat="32.6295410" lon="35.1046370">
    <ele>120.6</ele>
    <time>2014-02-21T05:53:42Z</time>
   </trkpt>
   <trkpt lat="32.6294950" lon="35.1047130">
    <ele>120.2</ele>
    <time>2014-02-21T05:53:43Z</time>
   </trkpt>
   <trkpt lat="32.6294460" lon="35.1047720">
    <ele>119.8</ele>
    <time>2014-02-21T05:53:44Z</time>
   </trkpt>
   <trkpt lat="32.6293940" lon="35.1048260">
    <ele>119.4</ele>
    <time>2014-02-21T05:53:45Z</time>
   </trkpt>
   <trkpt lat="32.6293480" lon="35.1048920">
    <ele>119.1</ele>
    <time>2014-02-21T05:53:46Z</time>
   </trkpt>
   <trkpt lat="32.6293080" lon="35.1049650">
    <ele>118.7</ele>
    <time>2014-02-21T05:53:47Z</time>
   </trkpt>
   <trkpt lat="32.6292610" lon="35.1050320">
    <ele>118.3</ele>
    <time>2014-02-21T05:53:48Z</time>
   </trkpt>
   <trkpt lat="32.6292230" lon="35.1051160">
    <ele>117.9</ele>
    <time>2014-02-21T05:53:49Z</time>
   </trkpt>
   <trkpt lat="32.6291740" lon="35.1051910">
    <ele>117.5</ele>
    <time>2014-02-21T05:53:50Z</time>
   </trkpt>
   <trkpt lat="32.6291220" lon="35.1052580">
    <ele>117.1</ele>
    <time>2014-02-21T05:53:51Z</time>
   </trkpt>
   <trkpt lat="32.6290720" lon="35.1053260">
    <ele>116.8</ele>
    <time>2014-02-21T05:53:52Z</time>
   </trkpt>
   <trkpt lat="32.6290290" lon="35.1053820">
    <ele>116.5</ele>
    <time>2014-02-21T05:53:53Z</time>
   </trkpt>
   <trkpt lat="32.6289860" lon="35.1054380">
    <ele>116.5</ele>
    <time>2014-02-21T05:53:54Z</time>
   </trkpt>
   <trkpt lat="32.6289610" lon="35.1054980">
    <ele>117.1</ele>
    <time>2014-02-21T05:53:55Z</time>
   </trkpt>
   <trkpt lat="32.6289330" lon="35.1055280">
    <ele>117.4</ele>
    <time>2014-02-21T05:53:56Z</time>
   </trkpt>
   <trkpt lat="32.6289080" lon="35.1055560">
    <ele>117.8</ele>
    <time>2014-02-21T05:53:58Z</time>
   </trkpt>
   <trkpt lat="32.6288930" lon="35.1055930">
    <ele>118.2</ele>
    <time>2014-02-21T05:54:00Z</time>
   </trkpt>
   <trkpt lat="32.6289080" lon="35.1056310">
    <ele>118.6</ele>
    <time>2014-02-21T05:54:02Z</time>
   </trkpt>
   <trkpt lat="32.6289330" lon="35.1056540">
    <ele>118.8</ele>
    <time>2014-02-21T05:54:04Z</time>
   </trkpt>
   <trkpt lat="32.6289650" lon="35.1056760">
    <ele>118.9</ele>
    <time>2014-02-21T05:54:13Z</time>
   </trkpt>
   <trkpt lat="32.6289500" lon="35.1056480">
    <ele>118.6</ele>
    <time>2014-02-21T05:54:18Z</time>
   </trkpt>
   <trkpt lat="32.6289240" lon="35.1056380">
    <ele>118.6</ele>
    <time>2014-02-21T05:54:21Z</time>
   </trkpt>
   <trkpt lat="32.6289040" lon="35.1056110">
    <ele>118.4</ele>
    <time>2014-02-21T05:54:24Z</time>
   </trkpt>
   <trkpt lat="32.6288870" lon="35.1055780">
    <ele>118.0</ele>
    <time>2014-02-21T05:54:27Z</time>
   </trkpt>
   <trkpt lat="32.6288620" lon="35.1055550">
    <ele>117.8</ele>
    <time>2014-02-21T05:54:30Z</time>
   </trkpt>
   <trkpt lat="32.6288470" lon="35.1055240">
    <ele>117.5</ele>
    <time>2014-02-21T05:54:33Z</time>
   </trkpt>
   <trkpt lat="32.6288440" lon="35.1054880">
    <ele>117.0</ele>
    <time>2014-02-21T05:54:36Z</time>
   </trkpt>
   <trkpt lat="32.6288120" lon="35.1054900">
    <ele>117.0</ele>
    <time>2014-02-21T05:54:41Z</time>
   </trkpt>
   <trkpt lat="32.6288270" lon="35.1055430">
    <ele>117.7</ele>
    <time>2014-02-21T05:54:44Z</time>
   </trkpt>
   <trkpt lat="32.6288580" lon="35.1055630">
    <ele>117.9</ele>
    <time>2014-02-21T05:54:47Z</time>
   </trkpt>
   <trkpt lat="32.6288910" lon="35.1055810">
    <ele>118.1</ele>
    <time>2014-02-21T05:54:50Z</time>
   </trkpt>
   <trkpt lat="32.6289150" lon="35.1056080">
    <ele>118.3</ele>
    <time>2014-02-21T05:54:52Z</time>
   </trkpt>
   <trkpt lat="32.6289540" lon="35.1056530">
    <ele>118.7</ele>
    <time>2014-02-21T05:54:54Z</time>
   </trkpt>
   <trkpt lat="32.6289820" lon="35.1056870">
    <ele>118.9</ele>
    <time>2014-02-21T05:54:55Z</time>
   </trkpt>
   <trkpt lat="32.6290150" lon="35.1057280">
    <ele>119.1</ele>
    <time>2014-02-21T05:54:56Z</time>
   </trkpt>
   <trkpt lat="32.6290760" lon="35.1058070">
    <ele>119.4</ele>
    <time>2014-02-21T05:54:57Z</time>
   </trkpt>
   <trkpt lat="32.6291060" lon="35.1058540">
    <ele>119.6</ele>
    <time>2014-02-21T05:54:58Z</time>
   </trkpt>
   <trkpt lat="32.6291240" lon="35.1059130">
    <ele>119.9</ele>
    <time>2014-02-21T05:54:59Z</time>
   </trkpt>
   <trkpt lat="32.6291390" lon="35.1059750">
    <ele>120.1</ele>
    <time>2014-02-21T05:55:00Z</time>
   </trkpt>
   <trkpt lat="32.6291570" lon="35.1060420">
    <ele>120.4</ele>
    <time>2014-02-21T05:55:01Z</time>
   </trkpt>
   <trkpt lat="32.6291610" lon="35.1061070">
    <ele>120.7</ele>
    <time>2014-02-21T05:55:02Z</time>
   </trkpt>
   <trkpt lat="32.6291660" lon="35.1061970">
    <ele>121.2</ele>
    <time>2014-02-21T05:55:03Z</time>
   </trkpt>
   <trkpt lat="32.6291490" lon="35.1062660">
    <ele>121.8</ele>
    <time>2014-02-21T05:55:04Z</time>
   </trkpt>
   <trkpt lat="32.6291160" lon="35.1063260">
    <ele>122.5</ele>
    <time>2014-02-21T05:55:05Z</time>
   </trkpt>
   <trkpt lat="32.6290780" lon="35.1063820">
    <ele>123.2</ele>
    <time>2014-02-21T05:55:06Z</time>
   </trkpt>
   <trkpt lat="32.6290390" lon="35.1064420">
    <ele>124.1</ele>
    <time>2014-02-21T05:55:07Z</time>
   </trkpt>
   <trkpt lat="32.6290030" lon="35.1064940">
    <ele>124.9</ele>
    <time>2014-02-21T05:55:08Z</time>
   </trkpt>
   <trkpt lat="32.6289800" lon="35.1065440">
    <ele>125.5</ele>
    <time>2014-02-21T05:55:09Z</time>
   </trkpt>
   <trkpt lat="32.6289560" lon="35.1066040">
    <ele>126.2</ele>
    <time>2014-02-21T05:55:10Z</time>
   </trkpt>
   <trkpt lat="32.6289400" lon="35.1066670">
    <ele>126.7</ele>
    <time>2014-02-21T05:55:11Z</time>
   </trkpt>
   <trkpt lat="32.6289220" lon="35.1067320">
    <ele>127.4</ele>
    <time>2014-02-21T05:55:12Z</time>
   </trkpt>
   <trkpt lat="32.6289090" lon="35.1067790">
    <ele>127.8</ele>
    <time>2014-02-21T05:55:13Z</time>
   </trkpt>
   <trkpt lat="32.6288980" lon="35.1068370">
    <ele>128.3</ele>
    <time>2014-02-21T05:55:14Z</time>
   </trkpt>
   <trkpt lat="32.6288780" lon="35.1069000">
    <ele>129.1</ele>
    <time>2014-02-21T05:55:15Z</time>
   </trkpt>
   <trkpt lat="32.6288650" lon="35.1069550">
    <ele>129.6</ele>
    <time>2014-02-21T05:55:16Z</time>
   </trkpt>
   <trkpt lat="32.6288480" lon="35.1070140">
    <ele>130.3</ele>
    <time>2014-02-21T05:55:17Z</time>
   </trkpt>
   <trkpt lat="32.6288250" lon="35.1070760">
    <ele>131.2</ele>
    <time>2014-02-21T05:55:18Z</time>
   </trkpt>
   <trkpt lat="32.6287960" lon="35.1071380">
    <ele>131.2</ele>
    <time>2014-02-21T05:55:19Z</time>
   </trkpt>
   <trkpt lat="32.6287710" lon="35.1071990">
    <ele>130.9</ele>
    <time>2014-02-21T05:55:20Z</time>
   </trkpt>
   <trkpt lat="32.6287540" lon="35.1072650">
    <ele>130.3</ele>
    <time>2014-02-21T05:55:21Z</time>
   </trkpt>
   <trkpt lat="32.6287380" lon="35.1073230">
    <ele>130.0</ele>
    <time>2014-02-21T05:55:22Z</time>
   </trkpt>
   <trkpt lat="32.6287220" lon="35.1073850">
    <ele>129.7</ele>
    <time>2014-02-21T05:55:23Z</time>
   </trkpt>
   <trkpt lat="32.6286850" lon="35.1074190">
    <ele>130.5</ele>
    <time>2014-02-21T05:55:24Z</time>
   </trkpt>
   <trkpt lat="32.6286550" lon="35.1074300">
    <ele>131.5</ele>
    <time>2014-02-21T05:55:25Z</time>
   </trkpt>
   <trkpt lat="32.6286210" lon="35.1074300">
    <ele>132.7</ele>
    <time>2014-02-21T05:55:26Z</time>
   </trkpt>
   <trkpt lat="32.6285990" lon="35.1074000">
    <ele>133.9</ele>
    <time>2014-02-21T05:55:27Z</time>
   </trkpt>
   <trkpt lat="32.6285790" lon="35.1073670">
    <ele>135.1</ele>
    <time>2014-02-21T05:55:28Z</time>
   </trkpt>
   <trkpt lat="32.6285620" lon="35.1073290">
    <ele>136.3</ele>
    <time>2014-02-21T05:55:29Z</time>
   </trkpt>
   <trkpt lat="32.6285440" lon="35.1072930">
    <ele>137.5</ele>
    <time>2014-02-21T05:55:30Z</time>
   </trkpt>
   <trkpt lat="32.6285360" lon="35.1072590">
    <ele>138.2</ele>
    <time>2014-02-21T05:55:31Z</time>
   </trkpt>
   <trkpt lat="32.6285280" lon="35.1072240">
    <ele>139.0</ele>
    <time>2014-02-21T05:55:32Z</time>
   </trkpt>
   <trkpt lat="32.6285270" lon="35.1071870">
    <ele>139.6</ele>
    <time>2014-02-21T05:55:33Z</time>
   </trkpt>
   <trkpt lat="32.6285390" lon="35.1071540">
    <ele>139.6</ele>
    <time>2014-02-21T05:55:34Z</time>
   </trkpt>
   <trkpt lat="32.6285480" lon="35.1071230">
    <ele>139.7</ele>
    <time>2014-02-21T05:55:35Z</time>
   </trkpt>
   <trkpt lat="32.6285540" lon="35.1070630">
    <ele>139.9</ele>
    <time>2014-02-21T05:55:37Z</time>
   </trkpt>
   <trkpt lat="32.6285570" lon="35.1070300">
    <ele>139.6</ele>
    <time>2014-02-21T05:55:38Z</time>
   </trkpt>
   <trkpt lat="32.6285620" lon="35.1069970">
    <ele>139.2</ele>
    <time>2014-02-21T05:55:39Z</time>
   </trkpt>
   <trkpt lat="32.6285720" lon="35.1069630">
    <ele>138.6</ele>
    <time>2014-02-21T05:55:40Z</time>
   </trkpt>
   <trkpt lat="32.6285860" lon="35.1069300">
    <ele>137.8</ele>
    <time>2014-02-21T05:55:41Z</time>
   </trkpt>
   <trkpt lat="32.6286040" lon="35.1068980">
    <ele>137.0</ele>
    <time>2014-02-21T05:55:42Z</time>
   </trkpt>
   <trkpt lat="32.6286230" lon="35.1068580">
    <ele>136.1</ele>
    <time>2014-02-21T05:55:43Z</time>
   </trkpt>
   <trkpt lat="32.6286380" lon="35.1068180">
    <ele>135.3</ele>
    <time>2014-02-21T05:55:44Z</time>
   </trkpt>
   <trkpt lat="32.6286510" lon="35.1067740">
    <ele>134.5</ele>
    <time>2014-02-21T05:55:45Z</time>
   </trkpt>
   <trkpt lat="32.6286610" lon="35.1067300">
    <ele>133.9</ele>
    <time>2014-02-21T05:55:46Z</time>
   </trkpt>
   <trkpt lat="32.6286690" lon="35.1066840">
    <ele>133.3</ele>
    <time>2014-02-21T05:55:47Z</time>
   </trkpt>
   <trkpt lat="32.6286740" lon="35.1066390">
    <ele>132.9</ele>
    <time>2014-02-21T05:55:48Z</time>
   </trkpt>
   <trkpt lat="32.6286790" lon="35.1065920">
    <ele>132.4</ele>
    <time>2014-02-21T05:55:49Z</time>
   </trkpt>
   <trkpt lat="32.6286820" lon="35.1065450">
    <ele>132.0</ele>
    <time>2014-02-21T05:55:50Z</time>
   </trkpt>
   <trkpt lat="32.6286850" lon="35.1064980">
    <ele>131.6</ele>
    <time>2014-02-21T05:55:51Z</time>
   </trkpt>
   <trkpt lat="32.6286890" lon="35.1064500">
    <ele>131.2</ele>
    <time>2014-02-21T05:55:52Z</time>
   </trkpt>
   <trkpt lat="32.6286930" lon="35.1064020">
    <ele>130.7</ele>
    <time>2014-02-21T05:55:53Z</time>
   </trkpt>
   <trkpt lat="32.6286970" lon="35.1063540">
    <ele>130.3</ele>
    <time>2014-02-21T05:55:54Z</time>
   </trkpt>
   <trkpt lat="32.6287020" lon="35.1063050">
    <ele>129.8</ele>
    <time>2014-02-21T05:55:55Z</time>
   </trkpt>
   <trkpt lat="32.6287040" lon="35.1062560">
    <ele>129.5</ele>
    <time>2014-02-21T05:55:56Z</time>
   </trkpt>
   <trkpt lat="32.6287000" lon="35.1062080">
    <ele>128.9</ele>
    <time>2014-02-21T05:55:57Z</time>
   </trkpt>
   <trkpt lat="32.6286910" lon="35.1061600">
    <ele>128.5</ele>
    <time>2014-02-21T05:55:58Z</time>
   </trkpt>
   <trkpt lat="32.6286840" lon="35.1061140">
    <ele>128.0</ele>
    <time>2014-02-21T05:55:59Z</time>
   </trkpt>
   <trkpt lat="32.6286790" lon="35.1060670">
    <ele>127.5</ele>
    <time>2014-02-21T05:56:00Z</time>
   </trkpt>
   <trkpt lat="32.6286760" lon="35.1060200">
    <ele>126.9</ele>
    <time>2014-02-21T05:56:01Z</time>
   </trkpt>
   <trkpt lat="32.6286720" lon="35.1059730">
    <ele>126.3</ele>
    <time>2014-02-21T05:56:02Z</time>
   </trkpt>
   <trkpt lat="32.6286650" lon="35.1059260">
    <ele>125.8</ele>
    <time>2014-02-21T05:56:03Z</time>
   </trkpt>
   <trkpt lat="32.6286540" lon="35.1058800">
    <ele>125.5</ele>
    <time>2014-02-21T05:56:04Z</time>
   </trkpt>
   <trkpt lat="32.6286390" lon="35.1058360">
    <ele>125.2</ele>
    <time>2014-02-21T05:56:05Z</time>
   </trkpt>
   <trkpt lat="32.6286210" lon="35.1057940">
    <ele>125.1</ele>
    <time>2014-02-21T05:56:06Z</time>
   </trkpt>
   <trkpt lat="32.6286020" lon="35.1057510">
    <ele>125.0</ele>
    <time>2014-02-21T05:56:07Z</time>
   </trkpt>
   <trkpt lat="32.6285850" lon="35.1057070">
    <ele>124.8</ele>
    <time>2014-02-21T05:56:08Z</time>
   </trkpt>
   <trkpt lat="32.6285750" lon="35.1056590">
    <ele>124.4</ele>
    <time>2014-02-21T05:56:09Z</time>
   </trkpt>
   <trkpt lat="32.6285710" lon="35.1055920">
    <ele>123.4</ele>
    <time>2014-02-21T05:56:10Z</time>
   </trkpt>
   <trkpt lat="32.6285600" lon="35.1055450">
    <ele>123.0</ele>
    <time>2014-02-21T05:56:11Z</time>
   </trkpt>
   <trkpt lat="32.6285410" lon="35.1055080">
    <ele>122.9</ele>
    <time>2014-02-21T05:56:12Z</time>
   </trkpt>
   <trkpt lat="32.6285140" lon="35.1054670">
    <ele>123.0</ele>
    <time>2014-02-21T05:56:13Z</time>
   </trkpt>
   <trkpt lat="32.6285040" lon="35.1054250">
    <ele>122.6</ele>
    <time>2014-02-21T05:56:14Z</time>
   </trkpt>
   <trkpt lat="32.6284800" lon="35.1053900">
    <ele>123.0</ele>
    <time>2014-02-21T05:56:15Z</time>
   </trkpt>
   <trkpt lat="32.6284570" lon="35.1053650">
    <ele>123.5</ele>
    <time>2014-02-21T05:56:16Z</time>
   </trkpt>
   <trkpt lat="32.6284420" lon="35.1053280">
    <ele>123.7</ele>
    <time>2014-02-21T05:56:17Z</time>
   </trkpt>
   <trkpt lat="32.6284300" lon="35.1052910">
    <ele>123.9</ele>
    <time>2014-02-21T05:56:18Z</time>
   </trkpt>
   <trkpt lat="32.6284240" lon="35.1052500">
    <ele>123.8</ele>
    <time>2014-02-21T05:56:19Z</time>
   </trkpt>
   <trkpt lat="32.6284130" lon="35.1052190">
    <ele>123.9</ele>
    <time>2014-02-21T05:56:20Z</time>
   </trkpt>
   <trkpt lat="32.6283980" lon="35.1051900">
    <ele>124.0</ele>
    <time>2014-02-21T05:56:21Z</time>
   </trkpt>
   <trkpt lat="32.6283820" lon="35.1051620">
    <ele>124.2</ele>
    <time>2014-02-21T05:56:22Z</time>
   </trkpt>
   <trkpt lat="32.6283650" lon="35.1051330">
    <ele>124.4</ele>
    <time>2014-02-21T05:56:23Z</time>
   </trkpt>
   <trkpt lat="32.6283480" lon="35.1051030">
    <ele>124.5</ele>
    <time>2014-02-21T05:56:24Z</time>
   </trkpt>
   <trkpt lat="32.6283310" lon="35.1050740">
    <ele>124.6</ele>
    <time>2014-02-21T05:56:25Z</time>
   </trkpt>
   <trkpt lat="32.6283130" lon="35.1050440">
    <ele>124.7</ele>
    <time>2014-02-21T05:56:26Z</time>
   </trkpt>
   <trkpt lat="32.6282960" lon="35.1050150">
    <ele>124.7</ele>
    <time>2014-02-21T05:56:27Z</time>
   </trkpt>
   <trkpt lat="32.6282770" lon="35.1049860">
    <ele>124.8</ele>
    <time>2014-02-21T05:56:28Z</time>
   </trkpt>
   <trkpt lat="32.6282590" lon="35.1049590">
    <ele>124.8</ele>
    <time>2014-02-21T05:56:29Z</time>
   </trkpt>
   <trkpt lat="32.6282400" lon="35.1049320">
    <ele>124.8</ele>
    <time>2014-02-21T05:56:30Z</time>
   </trkpt>
   <trkpt lat="32.6282210" lon="35.1049040">
    <ele>124.8</ele>
    <time>2014-02-21T05:56:31Z</time>
   </trkpt>
   <trkpt lat="32.6282030" lon="35.1048760">
    <ele>124.7</ele>
    <time>2014-02-21T05:56:32Z</time>
   </trkpt>
   <trkpt lat="32.6281850" lon="35.1048480">
    <ele>124.6</ele>
    <time>2014-02-21T05:56:33Z</time>
   </trkpt>
   <trkpt lat="32.6281670" lon="35.1048200">
    <ele>124.5</ele>
    <time>2014-02-21T05:56:34Z</time>
   </trkpt>
   <trkpt lat="32.6281480" lon="35.1047930">
    <ele>124.4</ele>
    <time>2014-02-21T05:56:35Z</time>
   </trkpt>
   <trkpt lat="32.6281280" lon="35.1047660">
    <ele>124.3</ele>
    <time>2014-02-21T05:56:36Z</time>
   </trkpt>
   <trkpt lat="32.6281080" lon="35.1047390">
    <ele>124.1</ele>
    <time>2014-02-21T05:56:37Z</time>
   </trkpt>
   <trkpt lat="32.6280890" lon="35.1047100">
    <ele>123.9</ele>
    <time>2014-02-21T05:56:38Z</time>
   </trkpt>
   <trkpt lat="32.6280710" lon="35.1046800">
    <ele>123.6</ele>
    <time>2014-02-21T05:56:39Z</time>
   </trkpt>
   <trkpt lat="32.6280520" lon="35.1046500">
    <ele>123.3</ele>
    <time>2014-02-21T05:56:40Z</time>
   </trkpt>
   <trkpt lat="32.6280320" lon="35.1046180">
    <ele>123.0</ele>
    <time>2014-02-21T05:56:41Z</time>
   </trkpt>
   <trkpt lat="32.6280140" lon="35.1045850">
    <ele>122.6</ele>
    <time>2014-02-21T05:56:42Z</time>
   </trkpt>
   <trkpt lat="32.6279940" lon="35.1045510">
    <ele>122.5</ele>
    <time>2014-02-21T05:56:43Z</time>
   </trkpt>
   <trkpt lat="32.6279710" lon="35.1045190">
    <ele>122.4</ele>
    <time>2014-02-21T05:56:44Z</time>
   </trkpt>
   <trkpt lat="32.6279490" lon="35.1044910">
    <ele>122.3</ele>
    <time>2014-02-21T05:56:45Z</time>
   </trkpt>
   <trkpt lat="32.6279270" lon="35.1044650">
    <ele>122.3</ele>
    <time>2014-02-21T05:56:46Z</time>
   </trkpt>
   <trkpt lat="32.6279010" lon="35.1044450">
    <ele>122.3</ele>
    <time>2014-02-21T05:56:47Z</time>
   </trkpt>
   <trkpt lat="32.6278760" lon="35.1044240">
    <ele>122.3</ele>
    <time>2014-02-21T05:56:48Z</time>
   </trkpt>
   <trkpt lat="32.6278340" lon="35.1043910">
    <ele>122.4</ele>
    <time>2014-02-21T05:56:50Z</time>
   </trkpt>
   <trkpt lat="32.6277990" lon="35.1043490">
    <ele>122.3</ele>
    <time>2014-02-21T05:56:52Z</time>
   </trkpt>
   <trkpt lat="32.6277600" lon="35.1043010">
    <ele>122.2</ele>
    <time>2014-02-21T05:56:54Z</time>
   </trkpt>
   <trkpt lat="32.6277250" lon="35.1042670">
    <ele>122.2</ele>
    <time>2014-02-21T05:56:56Z</time>
   </trkpt>
   <trkpt lat="32.6276820" lon="35.1042320">
    <ele>122.2</ele>
    <time>2014-02-21T05:56:58Z</time>
   </trkpt>
   <trkpt lat="32.6276420" lon="35.1041940">
    <ele>122.2</ele>
    <time>2014-02-21T05:57:00Z</time>
   </trkpt>
   <trkpt lat="32.6276010" lon="35.1041520">
    <ele>122.1</ele>
    <time>2014-02-21T05:57:02Z</time>
   </trkpt>
   <trkpt lat="32.6275790" lon="35.1041310">
    <ele>122.1</ele>
    <time>2014-02-21T05:57:03Z</time>
   </trkpt>
   <trkpt lat="32.6275570" lon="35.1041070">
    <ele>122.0</ele>
    <time>2014-02-21T05:57:04Z</time>
   </trkpt>
   <trkpt lat="32.6275130" lon="35.1040720">
    <ele>121.9</ele>
    <time>2014-02-21T05:57:06Z</time>
   </trkpt>
   <trkpt lat="32.6274720" lon="35.1040350">
    <ele>121.9</ele>
    <time>2014-02-21T05:57:08Z</time>
   </trkpt>
   <trkpt lat="32.6274480" lon="35.1040160">
    <ele>121.8</ele>
    <time>2014-02-21T05:57:09Z</time>
   </trkpt>
   <trkpt lat="32.6274220" lon="35.1039980">
    <ele>121.8</ele>
    <time>2014-02-21T05:57:10Z</time>
   </trkpt>
   <trkpt lat="32.6273930" lon="35.1039800">
    <ele>121.8</ele>
    <time>2014-02-21T05:57:11Z</time>
   </trkpt>
   <trkpt lat="32.6273610" lon="35.1039630">
    <ele>121.8</ele>
    <time>2014-02-21T05:57:12Z</time>
   </trkpt>
   <trkpt lat="32.6273290" lon="35.1039470">
    <ele>121.8</ele>
    <time>2014-02-21T05:57:13Z</time>
   </trkpt>
   <trkpt lat="32.6272960" lon="35.1039350">
    <ele>121.8</ele>
    <time>2014-02-21T05:57:14Z</time>
   </trkpt>
   <trkpt lat="32.6272630" lon="35.1039250">
    <ele>121.9</ele>
    <time>2014-02-21T05:57:15Z</time>
   </trkpt>
   <trkpt lat="32.6272280" lon="35.1039200">
    <ele>122.0</ele>
    <time>2014-02-21T05:57:16Z</time>
   </trkpt>
   <trkpt lat="32.6271950" lon="35.1039200">
    <ele>122.1</ele>
    <time>2014-02-21T05:57:17Z</time>
   </trkpt>
   <trkpt lat="32.6271620" lon="35.1039210">
    <ele>122.3</ele>
    <time>2014-02-21T05:57:18Z</time>
   </trkpt>
   <trkpt lat="32.6271300" lon="35.1039210">
    <ele>122.4</ele>
    <time>2014-02-21T05:57:19Z</time>
   </trkpt>
   <trkpt lat="32.6271000" lon="35.1039170">
    <ele>122.5</ele>
    <time>2014-02-21T05:57:20Z</time>
   </trkpt>
   <trkpt lat="32.6270690" lon="35.1039090">
    <ele>122.6</ele>
    <time>2014-02-21T05:57:21Z</time>
   </trkpt>
   <trkpt lat="32.6270370" lon="35.1039000">
    <ele>122.7</ele>
    <time>2014-02-21T05:57:22Z</time>
   </trkpt>
   <trkpt lat="32.6270060" lon="35.1038920">
    <ele>122.7</ele>
    <time>2014-02-21T05:57:23Z</time>
   </trkpt>
   <trkpt lat="32.6269750" lon="35.1038850">
    <ele>122.8</ele>
    <time>2014-02-21T05:57:24Z</time>
   </trkpt>
   <trkpt lat="32.6269450" lon="35.1038770">
    <ele>122.9</ele>
    <time>2014-02-21T05:57:25Z</time>
   </trkpt>
   <trkpt lat="32.6269140" lon="35.1038660">
    <ele>122.9</ele>
    <time>2014-02-21T05:57:26Z</time>
   </trkpt>
   <trkpt lat="32.6268850" lon="35.1038540">
    <ele>122.9</ele>
    <time>2014-02-21T05:57:27Z</time>
   </trkpt>
   <trkpt lat="32.6268550" lon="35.1038410">
    <ele>122.9</ele>
    <time>2014-02-21T05:57:28Z</time>
   </trkpt>
   <trkpt lat="32.6268250" lon="35.1038290">
    <ele>123.0</ele>
    <time>2014-02-21T05:57:29Z</time>
   </trkpt>
   <trkpt lat="32.6267950" lon="35.1038170">
    <ele>123.0</ele>
    <time>2014-02-21T05:57:30Z</time>
   </trkpt>
   <trkpt lat="32.6267650" lon="35.1038060">
    <ele>123.0</ele>
    <time>2014-02-21T05:57:31Z</time>
   </trkpt>
   <trkpt lat="32.6267330" lon="35.1037960">
    <ele>123.1</ele>
    <time>2014-02-21T05:57:32Z</time>
   </trkpt>
   <trkpt lat="32.6267010" lon="35.1037890">
    <ele>123.2</ele>
    <time>2014-02-21T05:57:33Z</time>
   </trkpt>
   <trkpt lat="32.6266700" lon="35.1037840">
    <ele>123.3</ele>
    <time>2014-02-21T05:57:34Z</time>
   </trkpt>
   <trkpt lat="32.6266380" lon="35.1037800">
    <ele>123.4</ele>
    <time>2014-02-21T05:57:35Z</time>
   </trkpt>
   <trkpt lat="32.6266060" lon="35.1037770">
    <ele>123.5</ele>
    <time>2014-02-21T05:57:36Z</time>
   </trkpt>
   <trkpt lat="32.6265730" lon="35.1037750">
    <ele>123.7</ele>
    <time>2014-02-21T05:57:37Z</time>
   </trkpt>
   <trkpt lat="32.6265380" lon="35.1037730">
    <ele>123.8</ele>
    <time>2014-02-21T05:57:38Z</time>
   </trkpt>
   <trkpt lat="32.6265030" lon="35.1037700">
    <ele>124.0</ele>
    <time>2014-02-21T05:57:39Z</time>
   </trkpt>
   <trkpt lat="32.6264660" lon="35.1037680">
    <ele>124.1</ele>
    <time>2014-02-21T05:57:40Z</time>
   </trkpt>
   <trkpt lat="32.6264290" lon="35.1037670">
    <ele>124.3</ele>
    <time>2014-02-21T05:57:41Z</time>
   </trkpt>
   <trkpt lat="32.6263920" lon="35.1037660">
    <ele>124.5</ele>
    <time>2014-02-21T05:57:42Z</time>
   </trkpt>
   <trkpt lat="32.6263570" lon="35.1037650">
    <ele>124.6</ele>
    <time>2014-02-21T05:57:43Z</time>
   </trkpt>
   <trkpt lat="32.6263220" lon="35.1037630">
    <ele>124.8</ele>
    <time>2014-02-21T05:57:44Z</time>
   </trkpt>
   <trkpt lat="32.6262890" lon="35.1037630">
    <ele>124.9</ele>
    <time>2014-02-21T05:57:45Z</time>
   </trkpt>
   <trkpt lat="32.6262560" lon="35.1037650">
    <ele>125.1</ele>
    <time>2014-02-21T05:57:46Z</time>
   </trkpt>
   <trkpt lat="32.6262250" lon="35.1037660">
    <ele>125.2</ele>
    <time>2014-02-21T05:57:47Z</time>
   </trkpt>
   <trkpt lat="32.6261930" lon="35.1037650">
    <ele>125.2</ele>
    <time>2014-02-21T05:57:48Z</time>
   </trkpt>
   <trkpt lat="32.6261610" lon="35.1037650">
    <ele>125.2</ele>
    <time>2014-02-21T05:57:49Z</time>
   </trkpt>
   <trkpt lat="32.6261290" lon="35.1037670">
    <ele>125.3</ele>
    <time>2014-02-21T05:57:50Z</time>
   </trkpt>
   <trkpt lat="32.6260970" lon="35.1037720">
    <ele>125.4</ele>
    <time>2014-02-21T05:57:51Z</time>
   </trkpt>
   <trkpt lat="32.6260660" lon="35.1037760">
    <ele>125.4</ele>
    <time>2014-02-21T05:57:52Z</time>
   </trkpt>
   <trkpt lat="32.6260360" lon="35.1037800">
    <ele>125.5</ele>
    <time>2014-02-21T05:57:53Z</time>
   </trkpt>
   <trkpt lat="32.6260080" lon="35.1037840">
    <ele>125.6</ele>
    <time>2014-02-21T05:57:54Z</time>
   </trkpt>
   <trkpt lat="32.6259790" lon="35.1037880">
    <ele>125.6</ele>
    <time>2014-02-21T05:57:55Z</time>
   </trkpt>
   <trkpt lat="32.6259490" lon="35.1037900">
    <ele>125.7</ele>
    <time>2014-02-21T05:57:56Z</time>
   </trkpt>
   <trkpt lat="32.6259190" lon="35.1037910">
    <ele>125.7</ele>
    <time>2014-02-21T05:57:57Z</time>
   </trkpt>
   <trkpt lat="32.6258890" lon="35.1037910">
    <ele>125.7</ele>
    <time>2014-02-21T05:57:58Z</time>
   </trkpt>
   <trkpt lat="32.6258580" lon="35.1037870">
    <ele>125.7</ele>
    <time>2014-02-21T05:57:59Z</time>
   </trkpt>
   <trkpt lat="32.6258280" lon="35.1037780">
    <ele>125.7</ele>
    <time>2014-02-21T05:58:00Z</time>
   </trkpt>
   <trkpt lat="32.6257970" lon="35.1037660">
    <ele>125.7</ele>
    <time>2014-02-21T05:58:01Z</time>
   </trkpt>
   <trkpt lat="32.6257670" lon="35.1037550">
    <ele>125.6</ele>
    <time>2014-02-21T05:58:02Z</time>
   </trkpt>
   <trkpt lat="32.6257350" lon="35.1037490">
    <ele>125.6</ele>
    <time>2014-02-21T05:58:03Z</time>
   </trkpt>
   <trkpt lat="32.6257030" lon="35.1037490">
    <ele>125.7</ele>
    <time>2014-02-21T05:58:04Z</time>
   </trkpt>
   <trkpt lat="32.6256730" lon="35.1037520">
    <ele>125.7</ele>
    <time>2014-02-21T05:58:05Z</time>
   </trkpt>
   <trkpt lat="32.6256420" lon="35.1037600">
    <ele>125.8</ele>
    <time>2014-02-21T05:58:06Z</time>
   </trkpt>
   <trkpt lat="32.6256100" lon="35.1037690">
    <ele>125.9</ele>
    <time>2014-02-21T05:58:07Z</time>
   </trkpt>
   <trkpt lat="32.6255800" lon="35.1037780">
    <ele>126.0</ele>
    <time>2014-02-21T05:58:08Z</time>
   </trkpt>
   <trkpt lat="32.6255510" lon="35.1037870">
    <ele>126.1</ele>
    <time>2014-02-21T05:58:09Z</time>
   </trkpt>
   <trkpt lat="32.6255210" lon="35.1037950">
    <ele>126.2</ele>
    <time>2014-02-21T05:58:10Z</time>
   </trkpt>
   <trkpt lat="32.6254920" lon="35.1038020">
    <ele>126.2</ele>
    <time>2014-02-21T05:58:11Z</time>
   </trkpt>
   <trkpt lat="32.6254610" lon="35.1038080">
    <ele>126.3</ele>
    <time>2014-02-21T05:58:12Z</time>
   </trkpt>
   <trkpt lat="32.6254310" lon="35.1038140">
    <ele>126.4</ele>
    <time>2014-02-21T05:58:13Z</time>
   </trkpt>
   <trkpt lat="32.6254020" lon="35.1038190">
    <ele>126.5</ele>
    <time>2014-02-21T05:58:14Z</time>
   </trkpt>
   <trkpt lat="32.6253740" lon="35.1038250">
    <ele>126.7</ele>
    <time>2014-02-21T05:58:15Z</time>
   </trkpt>
   <trkpt lat="32.6253460" lon="35.1038300">
    <ele>127.0</ele>
    <time>2014-02-21T05:58:16Z</time>
   </trkpt>
   <trkpt lat="32.6253170" lon="35.1038360">
    <ele>127.2</ele>
    <time>2014-02-21T05:58:17Z</time>
   </trkpt>
   <trkpt lat="32.6252880" lon="35.1038420">
    <ele>127.5</ele>
    <time>2014-02-21T05:58:18Z</time>
   </trkpt>
   <trkpt lat="32.6252590" lon="35.1038460">
    <ele>127.7</ele>
    <time>2014-02-21T05:58:19Z</time>
   </trkpt>
   <trkpt lat="32.6252300" lon="35.1038500">
    <ele>128.0</ele>
    <time>2014-02-21T05:58:20Z</time>
   </trkpt>
   <trkpt lat="32.6252020" lon="35.1038510">
    <ele>128.2</ele>
    <time>2014-02-21T05:58:21Z</time>
   </trkpt>
   <trkpt lat="32.6251730" lon="35.1038500">
    <ele>128.4</ele>
    <time>2014-02-21T05:58:22Z</time>
   </trkpt>
   <trkpt lat="32.6251450" lon="35.1038480">
    <ele>128.6</ele>
    <time>2014-02-21T05:58:23Z</time>
   </trkpt>
   <trkpt lat="32.6251160" lon="35.1038430">
    <ele>128.7</ele>
    <time>2014-02-21T05:58:24Z</time>
   </trkpt>
   <trkpt lat="32.6250860" lon="35.1038360">
    <ele>128.9</ele>
    <time>2014-02-21T05:58:25Z</time>
   </trkpt>
   <trkpt lat="32.6250580" lon="35.1038250">
    <ele>129.0</ele>
    <time>2014-02-21T05:58:26Z</time>
   </trkpt>
   <trkpt lat="32.6250280" lon="35.1038120">
    <ele>129.0</ele>
    <time>2014-02-21T05:58:27Z</time>
   </trkpt>
   <trkpt lat="32.6249980" lon="35.1038000">
    <ele>129.1</ele>
    <time>2014-02-21T05:58:28Z</time>
   </trkpt>
   <trkpt lat="32.6249660" lon="35.1037900">
    <ele>129.2</ele>
    <time>2014-02-21T05:58:29Z</time>
   </trkpt>
   <trkpt lat="32.6249340" lon="35.1037850">
    <ele>129.3</ele>
    <time>2014-02-21T05:58:30Z</time>
   </trkpt>
   <trkpt lat="32.6249010" lon="35.1037840">
    <ele>129.5</ele>
    <time>2014-02-21T05:58:31Z</time>
   </trkpt>
   <trkpt lat="32.6248680" lon="35.1037840">
    <ele>129.7</ele>
    <time>2014-02-21T05:58:32Z</time>
   </trkpt>
   <trkpt lat="32.6248370" lon="35.1037830">
    <ele>129.9</ele>
    <time>2014-02-21T05:58:33Z</time>
   </trkpt>
   <trkpt lat="32.6248070" lon="35.1037740">
    <ele>130.0</ele>
    <time>2014-02-21T05:58:34Z</time>
   </trkpt>
   <trkpt lat="32.6247760" lon="35.1037600">
    <ele>130.0</ele>
    <time>2014-02-21T05:58:35Z</time>
   </trkpt>
   <trkpt lat="32.6247430" lon="35.1037430">
    <ele>130.1</ele>
    <time>2014-02-21T05:58:36Z</time>
   </trkpt>
   <trkpt lat="32.6247110" lon="35.1037240">
    <ele>130.3</ele>
    <time>2014-02-21T05:58:37Z</time>
   </trkpt>
   <trkpt lat="32.6246790" lon="35.1037040">
    <ele>130.5</ele>
    <time>2014-02-21T05:58:38Z</time>
   </trkpt>
   <trkpt lat="32.6246480" lon="35.1036830">
    <ele>130.7</ele>
    <time>2014-02-21T05:58:39Z</time>
   </trkpt>
   <trkpt lat="32.6246200" lon="35.1036650">
    <ele>130.9</ele>
    <time>2014-02-21T05:58:40Z</time>
   </trkpt>
   <trkpt lat="32.6245810" lon="35.1036480">
    <ele>131.1</ele>
    <time>2014-02-21T05:58:41Z</time>
   </trkpt>
   <trkpt lat="32.6245480" lon="35.1036320">
    <ele>131.5</ele>
    <time>2014-02-21T05:58:42Z</time>
   </trkpt>
   <trkpt lat="32.6245160" lon="35.1036190">
    <ele>131.8</ele>
    <time>2014-02-21T05:58:43Z</time>
   </trkpt>
   <trkpt lat="32.6244840" lon="35.1036070">
    <ele>132.2</ele>
    <time>2014-02-21T05:58:44Z</time>
   </trkpt>
   <trkpt lat="32.6244510" lon="35.1035960">
    <ele>132.5</ele>
    <time>2014-02-21T05:58:45Z</time>
   </trkpt>
   <trkpt lat="32.6244170" lon="35.1035870">
    <ele>132.8</ele>
    <time>2014-02-21T05:58:46Z</time>
   </trkpt>
   <trkpt lat="32.6243830" lon="35.1035800">
    <ele>133.1</ele>
    <time>2014-02-21T05:58:47Z</time>
   </trkpt>
   <trkpt lat="32.6243510" lon="35.1035720">
    <ele>133.4</ele>
    <time>2014-02-21T05:58:48Z</time>
   </trkpt>
   <trkpt lat="32.6243200" lon="35.1035620">
    <ele>133.7</ele>
    <time>2014-02-21T05:58:49Z</time>
   </trkpt>
   <trkpt lat="32.6242890" lon="35.1035530">
    <ele>133.9</ele>
    <time>2014-02-21T05:58:50Z</time>
   </trkpt>
   <trkpt lat="32.6242580" lon="35.1035430">
    <ele>134.2</ele>
    <time>2014-02-21T05:58:51Z</time>
   </trkpt>
   <trkpt lat="32.6242260" lon="35.1035380">
    <ele>134.5</ele>
    <time>2014-02-21T05:58:52Z</time>
   </trkpt>
   <trkpt lat="32.6241940" lon="35.1035330">
    <ele>134.7</ele>
    <time>2014-02-21T05:58:53Z</time>
   </trkpt>
   <trkpt lat="32.6241630" lon="35.1035210">
    <ele>134.9</ele>
    <time>2014-02-21T05:58:54Z</time>
   </trkpt>
   <trkpt lat="32.6241320" lon="35.1035080">
    <ele>135.1</ele>
    <time>2014-02-21T05:58:55Z</time>
   </trkpt>
   <trkpt lat="32.6241020" lon="35.1034800">
    <ele>135.2</ele>
    <time>2014-02-21T05:58:56Z</time>
   </trkpt>
   <trkpt lat="32.6240690" lon="35.1034650">
    <ele>135.4</ele>
    <time>2014-02-21T05:58:57Z</time>
   </trkpt>
   <trkpt lat="32.6240380" lon="35.1034530">
    <ele>135.6</ele>
    <time>2014-02-21T05:58:58Z</time>
   </trkpt>
   <trkpt lat="32.6240040" lon="35.1034430">
    <ele>135.8</ele>
    <time>2014-02-21T05:58:59Z</time>
   </trkpt>
   <trkpt lat="32.6239730" lon="35.1034310">
    <ele>135.9</ele>
    <time>2014-02-21T05:59:00Z</time>
   </trkpt>
   <trkpt lat="32.6239410" lon="35.1034200">
    <ele>136.1</ele>
    <time>2014-02-21T05:59:01Z</time>
   </trkpt>
   <trkpt lat="32.6239090" lon="35.1034090">
    <ele>136.2</ele>
    <time>2014-02-21T05:59:02Z</time>
   </trkpt>
   <trkpt lat="32.6238760" lon="35.1033950">
    <ele>136.3</ele>
    <time>2014-02-21T05:59:03Z</time>
   </trkpt>
   <trkpt lat="32.6238420" lon="35.1033820">
    <ele>136.4</ele>
    <time>2014-02-21T05:59:04Z</time>
   </trkpt>
   <trkpt lat="32.6238090" lon="35.1033670">
    <ele>136.5</ele>
    <time>2014-02-21T05:59:05Z</time>
   </trkpt>
   <trkpt lat="32.6237780" lon="35.1033520">
    <ele>136.5</ele>
    <time>2014-02-21T05:59:06Z</time>
   </trkpt>
   <trkpt lat="32.6237480" lon="35.1033350">
    <ele>136.5</ele>
    <time>2014-02-21T05:59:07Z</time>
   </trkpt>
   <trkpt lat="32.6237190" lon="35.1033170">
    <ele>136.4</ele>
    <time>2014-02-21T05:59:08Z</time>
   </trkpt>
   <trkpt lat="32.6236900" lon="35.1032980">
    <ele>136.3</ele>
    <time>2014-02-21T05:59:09Z</time>
   </trkpt>
   <trkpt lat="32.6236630" lon="35.1032790">
    <ele>136.2</ele>
    <time>2014-02-21T05:59:10Z</time>
   </trkpt>
   <trkpt lat="32.6236380" lon="35.1032570">
    <ele>136.1</ele>
    <time>2014-02-21T05:59:11Z</time>
   </trkpt>
   <trkpt lat="32.6236130" lon="35.1032340">
    <ele>135.9</ele>
    <time>2014-02-21T05:59:12Z</time>
   </trkpt>
   <trkpt lat="32.6235870" lon="35.1032120">
    <ele>135.7</ele>
    <time>2014-02-21T05:59:13Z</time>
   </trkpt>
   <trkpt lat="32.6235610" lon="35.1031890">
    <ele>135.5</ele>
    <time>2014-02-21T05:59:14Z</time>
   </trkpt>
   <trkpt lat="32.6235330" lon="35.1031660">
    <ele>135.4</ele>
    <time>2014-02-21T05:59:15Z</time>
   </trkpt>
   <trkpt lat="32.6235040" lon="35.1031410">
    <ele>135.2</ele>
    <time>2014-02-21T05:59:16Z</time>
   </trkpt>
   <trkpt lat="32.6234740" lon="35.1031150">
    <ele>135.0</ele>
    <time>2014-02-21T05:59:17Z</time>
   </trkpt>
   <trkpt lat="32.6234430" lon="35.1030890">
    <ele>134.8</ele>
    <time>2014-02-21T05:59:18Z</time>
   </trkpt>
   <trkpt lat="32.6234160" lon="35.1030660">
    <ele>134.6</ele>
    <time>2014-02-21T05:59:19Z</time>
   </trkpt>
   <trkpt lat="32.6233790" lon="35.1030350">
    <ele>134.3</ele>
    <time>2014-02-21T05:59:20Z</time>
   </trkpt>
   <trkpt lat="32.6233500" lon="35.1030060">
    <ele>134.0</ele>
    <time>2014-02-21T05:59:21Z</time>
   </trkpt>
   <trkpt lat="32.6233190" lon="35.1029760">
    <ele>133.7</ele>
    <time>2014-02-21T05:59:22Z</time>
   </trkpt>
   <trkpt lat="32.6232870" lon="35.1029490">
    <ele>133.5</ele>
    <time>2014-02-21T05:59:23Z</time>
   </trkpt>
   <trkpt lat="32.6232600" lon="35.1029250">
    <ele>133.3</ele>
    <time>2014-02-21T05:59:24Z</time>
   </trkpt>
   <trkpt lat="32.6232220" lon="35.1029030">
    <ele>133.4</ele>
    <time>2014-02-21T05:59:25Z</time>
   </trkpt>
   <trkpt lat="32.6231920" lon="35.1028800">
    <ele>133.6</ele>
    <time>2014-02-21T05:59:26Z</time>
   </trkpt>
   <trkpt lat="32.6231620" lon="35.1028570">
    <ele>133.8</ele>
    <time>2014-02-21T05:59:27Z</time>
   </trkpt>
   <trkpt lat="32.6231350" lon="35.1028330">
    <ele>134.0</ele>
    <time>2014-02-21T05:59:28Z</time>
   </trkpt>
   <trkpt lat="32.6231090" lon="35.1028090">
    <ele>134.1</ele>
    <time>2014-02-21T05:59:29Z</time>
   </trkpt>
   <trkpt lat="32.6230850" lon="35.1027820">
    <ele>134.3</ele>
    <time>2014-02-21T05:59:30Z</time>
   </trkpt>
   <trkpt lat="32.6230600" lon="35.1027550">
    <ele>134.5</ele>
    <time>2014-02-21T05:59:31Z</time>
   </trkpt>
   <trkpt lat="32.6230380" lon="35.1027220">
    <ele>134.7</ele>
    <time>2014-02-21T05:59:32Z</time>
   </trkpt>
   <trkpt lat="32.6230110" lon="35.1026970">
    <ele>134.9</ele>
    <time>2014-02-21T05:59:33Z</time>
   </trkpt>
   <trkpt lat="32.6229810" lon="35.1026820">
    <ele>135.0</ele>
    <time>2014-02-21T05:59:34Z</time>
   </trkpt>
   <trkpt lat="32.6229520" lon="35.1026750">
    <ele>135.1</ele>
    <time>2014-02-21T05:59:35Z</time>
   </trkpt>
   <trkpt lat="32.6229250" lon="35.1026770">
    <ele>135.1</ele>
    <time>2014-02-21T05:59:36Z</time>
   </trkpt>
   <trkpt lat="32.6228770" lon="35.1026930">
    <ele>135.2</ele>
    <time>2014-02-21T05:59:38Z</time>
   </trkpt>
   <trkpt lat="32.6228310" lon="35.1027150">
    <ele>135.3</ele>
    <time>2014-02-21T05:59:40Z</time>
   </trkpt>
   <trkpt lat="32.6227840" lon="35.1027350">
    <ele>135.3</ele>
    <time>2014-02-21T05:59:42Z</time>
   </trkpt>
   <trkpt lat="32.6227350" lon="35.1027530">
    <ele>135.4</ele>
    <time>2014-02-21T05:59:44Z</time>
   </trkpt>
   <trkpt lat="32.6226900" lon="35.1027600">
    <ele>135.5</ele>
    <time>2014-02-21T05:59:46Z</time>
   </trkpt>
   <trkpt lat="32.6226550" lon="35.1027630">
    <ele>135.6</ele>
    <time>2014-02-21T05:59:48Z</time>
   </trkpt>
   <trkpt lat="32.6226210" lon="35.1027700">
    <ele>135.7</ele>
    <time>2014-02-21T05:59:50Z</time>
   </trkpt>
   <trkpt lat="32.6225890" lon="35.1027880">
    <ele>135.7</ele>
    <time>2014-02-21T05:59:52Z</time>
   </trkpt>
   <trkpt lat="32.6225560" lon="35.1028100">
    <ele>135.8</ele>
    <time>2014-02-21T05:59:54Z</time>
   </trkpt>
   <trkpt lat="32.6225200" lon="35.1028180">
    <ele>135.8</ele>
    <time>2014-02-21T05:59:56Z</time>
   </trkpt>
   <trkpt lat="32.6224780" lon="35.1028190">
    <ele>136.0</ele>
    <time>2014-02-21T05:59:58Z</time>
   </trkpt>
   <trkpt lat="32.6224370" lon="35.1028290">
    <ele>136.1</ele>
    <time>2014-02-21T06:00:00Z</time>
   </trkpt>
   <trkpt lat="32.6223960" lon="35.1028520">
    <ele>136.1</ele>
    <time>2014-02-21T06:00:02Z</time>
   </trkpt>
   <trkpt lat="32.6223550" lon="35.1028710">
    <ele>136.2</ele>
    <time>2014-02-21T06:00:04Z</time>
   </trkpt>
   <trkpt lat="32.6223080" lon="35.1028770">
    <ele>136.3</ele>
    <time>2014-02-21T06:00:06Z</time>
   </trkpt>
   <trkpt lat="32.6222620" lon="35.1028830">
    <ele>136.5</ele>
    <time>2014-02-21T06:00:08Z</time>
   </trkpt>
   <trkpt lat="32.6222180" lon="35.1029010">
    <ele>136.6</ele>
    <time>2014-02-21T06:00:10Z</time>
   </trkpt>
   <trkpt lat="32.6221740" lon="35.1029250">
    <ele>136.8</ele>
    <time>2014-02-21T06:00:12Z</time>
   </trkpt>
   <trkpt lat="32.6221340" lon="35.1029560">
    <ele>137.3</ele>
    <time>2014-02-21T06:00:14Z</time>
   </trkpt>
   <trkpt lat="32.6221030" lon="35.1029960">
    <ele>138.0</ele>
    <time>2014-02-21T06:00:16Z</time>
   </trkpt>
   <trkpt lat="32.6220750" lon="35.1030400">
    <ele>138.7</ele>
    <time>2014-02-21T06:00:18Z</time>
   </trkpt>
   <trkpt lat="32.6220480" lon="35.1030770">
    <ele>139.3</ele>
    <time>2014-02-21T06:00:20Z</time>
   </trkpt>
   <trkpt lat="32.6220080" lon="35.1030900">
    <ele>139.6</ele>
    <time>2014-02-21T06:00:22Z</time>
   </trkpt>
   <trkpt lat="32.6219650" lon="35.1030940">
    <ele>139.8</ele>
    <time>2014-02-21T06:00:24Z</time>
   </trkpt>
   <trkpt lat="32.6219180" lon="35.1031010">
    <ele>140.1</ele>
    <time>2014-02-21T06:00:26Z</time>
   </trkpt>
   <trkpt lat="32.6218700" lon="35.1031050">
    <ele>140.3</ele>
    <time>2014-02-21T06:00:28Z</time>
   </trkpt>
   <trkpt lat="32.6218210" lon="35.1031080">
    <ele>140.5</ele>
    <time>2014-02-21T06:00:30Z</time>
   </trkpt>
   <trkpt lat="32.6217750" lon="35.1031140">
    <ele>140.7</ele>
    <time>2014-02-21T06:00:32Z</time>
   </trkpt>
   <trkpt lat="32.6217280" lon="35.1031210">
    <ele>141.0</ele>
    <time>2014-02-21T06:00:34Z</time>
   </trkpt>
   <trkpt lat="32.6216810" lon="35.1031300">
    <ele>141.3</ele>
    <time>2014-02-21T06:00:36Z</time>
   </trkpt>
   <trkpt lat="32.6216360" lon="35.1031420">
    <ele>141.5</ele>
    <time>2014-02-21T06:00:38Z</time>
   </trkpt>
   <trkpt lat="32.6215910" lon="35.1031570">
    <ele>141.9</ele>
    <time>2014-02-21T06:00:40Z</time>
   </trkpt>
   <trkpt lat="32.6215480" lon="35.1031750">
    <ele>142.2</ele>
    <time>2014-02-21T06:00:42Z</time>
   </trkpt>
   <trkpt lat="32.6215010" lon="35.1031950">
    <ele>142.5</ele>
    <time>2014-02-21T06:00:44Z</time>
   </trkpt>
   <trkpt lat="32.6214580" lon="35.1032150">
    <ele>142.9</ele>
    <time>2014-02-21T06:00:46Z</time>
   </trkpt>
   <trkpt lat="32.6214170" lon="35.1032410">
    <ele>143.2</ele>
    <time>2014-02-21T06:00:48Z</time>
   </trkpt>
   <trkpt lat="32.6213770" lon="35.1032630">
    <ele>143.6</ele>
    <time>2014-02-21T06:00:50Z</time>
   </trkpt>
   <trkpt lat="32.6213350" lon="35.1032830">
    <ele>143.8</ele>
    <time>2014-02-21T06:00:52Z</time>
   </trkpt>
   <trkpt lat="32.6212900" lon="35.1032870">
    <ele>144.0</ele>
    <time>2014-02-21T06:00:54Z</time>
   </trkpt>
   <trkpt lat="32.6212450" lon="35.1032760">
    <ele>144.0</ele>
    <time>2014-02-21T06:00:56Z</time>
   </trkpt>
   <trkpt lat="32.6212010" lon="35.1032610">
    <ele>143.9</ele>
    <time>2014-02-21T06:00:58Z</time>
   </trkpt>
   <trkpt lat="32.6211530" lon="35.1032440">
    <ele>143.8</ele>
    <time>2014-02-21T06:01:00Z</time>
   </trkpt>
   <trkpt lat="32.6211000" lon="35.1032410">
    <ele>143.8</ele>
    <time>2014-02-21T06:01:02Z</time>
   </trkpt>
   <trkpt lat="32.6210480" lon="35.1032470">
    <ele>143.9</ele>
    <time>2014-02-21T06:01:04Z</time>
   </trkpt>
   <trkpt lat="32.6210220" lon="35.1032530">
    <ele>143.9</ele>
    <time>2014-02-21T06:01:05Z</time>
   </trkpt>
   <trkpt lat="32.6209950" lon="35.1032600">
    <ele>144.0</ele>
    <time>2014-02-21T06:01:06Z</time>
   </trkpt>
   <trkpt lat="32.6209680" lon="35.1032660">
    <ele>144.1</ele>
    <time>2014-02-21T06:01:07Z</time>
   </trkpt>
   <trkpt lat="32.6209410" lon="35.1032730">
    <ele>144.2</ele>
    <time>2014-02-21T06:01:08Z</time>
   </trkpt>
   <trkpt lat="32.6208920" lon="35.1032970">
    <ele>144.4</ele>
    <time>2014-02-21T06:01:10Z</time>
   </trkpt>
   <trkpt lat="32.6208470" lon="35.1033230">
    <ele>144.6</ele>
    <time>2014-02-21T06:01:12Z</time>
   </trkpt>
   <trkpt lat="32.6208010" lon="35.1033450">
    <ele>144.9</ele>
    <time>2014-02-21T06:01:14Z</time>
   </trkpt>
   <trkpt lat="32.6207520" lon="35.1033690">
    <ele>145.1</ele>
    <time>2014-02-21T06:01:16Z</time>
   </trkpt>
   <trkpt lat="32.6207030" lon="35.1033880">
    <ele>145.3</ele>
    <time>2014-02-21T06:01:18Z</time>
   </trkpt>
   <trkpt lat="32.6206520" lon="35.1033950">
    <ele>145.4</ele>
    <time>2014-02-21T06:01:20Z</time>
   </trkpt>
   <trkpt lat="32.6206010" lon="35.1033950">
    <ele>145.5</ele>
    <time>2014-02-21T06:01:22Z</time>
   </trkpt>
   <trkpt lat="32.6205520" lon="35.1034050">
    <ele>145.6</ele>
    <time>2014-02-21T06:01:24Z</time>
   </trkpt>
   <trkpt lat="32.6205010" lon="35.1034230">
    <ele>145.8</ele>
    <time>2014-02-21T06:01:26Z</time>
   </trkpt>
   <trkpt lat="32.6204520" lon="35.1034420">
    <ele>146.0</ele>
    <time>2014-02-21T06:01:28Z</time>
   </trkpt>
   <trkpt lat="32.6204030" lon="35.1034560">
    <ele>146.2</ele>
    <time>2014-02-21T06:01:30Z</time>
   </trkpt>
   <trkpt lat="32.6203530" lon="35.1034710">
    <ele>146.4</ele>
    <time>2014-02-21T06:01:32Z</time>
   </trkpt>
   <trkpt lat="32.6203030" lon="35.1034870">
    <ele>146.6</ele>
    <time>2014-02-21T06:01:34Z</time>
   </trkpt>
   <trkpt lat="32.6202520" lon="35.1034960">
    <ele>146.7</ele>
    <time>2014-02-21T06:01:36Z</time>
   </trkpt>
   <trkpt lat="32.6202000" lon="35.1035080">
    <ele>146.8</ele>
    <time>2014-02-21T06:01:38Z</time>
   </trkpt>
   <trkpt lat="32.6201500" lon="35.1035240">
    <ele>147.0</ele>
    <time>2014-02-21T06:01:40Z</time>
   </trkpt>
   <trkpt lat="32.6201010" lon="35.1035420">
    <ele>147.2</ele>
    <time>2014-02-21T06:01:42Z</time>
   </trkpt>
   <trkpt lat="32.6200550" lon="35.1035600">
    <ele>147.4</ele>
    <time>2014-02-21T06:01:44Z</time>
   </trkpt>
   <trkpt lat="32.6200070" lon="35.1035770">
    <ele>147.5</ele>
    <time>2014-02-21T06:01:46Z</time>
   </trkpt>
   <trkpt lat="32.6199590" lon="35.1035920">
    <ele>147.7</ele>
    <time>2014-02-21T06:01:48Z</time>
   </trkpt>
   <trkpt lat="32.6199100" lon="35.1036060">
    <ele>147.8</ele>
    <time>2014-02-21T06:01:50Z</time>
   </trkpt>
   <trkpt lat="32.6198600" lon="35.1036210">
    <ele>148.0</ele>
    <time>2014-02-21T06:01:52Z</time>
   </trkpt>
   <trkpt lat="32.6198090" lon="35.1036420">
    <ele>148.2</ele>
    <time>2014-02-21T06:01:54Z</time>
   </trkpt>
   <trkpt lat="32.6197840" lon="35.1036530">
    <ele>148.2</ele>
    <time>2014-02-21T06:01:55Z</time>
   </trkpt>
   <trkpt lat="32.6197580" lon="35.1036650">
    <ele>148.3</ele>
    <time>2014-02-21T06:01:56Z</time>
   </trkpt>
   <trkpt lat="32.6197330" lon="35.1036780">
    <ele>148.5</ele>
    <time>2014-02-21T06:01:57Z</time>
   </trkpt>
   <trkpt lat="32.6197060" lon="35.1036890">
    <ele>148.5</ele>
    <time>2014-02-21T06:01:58Z</time>
   </trkpt>
   <trkpt lat="32.6196790" lon="35.1036980">
    <ele>148.6</ele>
    <time>2014-02-21T06:01:59Z</time>
   </trkpt>
   <trkpt lat="32.6196230" lon="35.1037160">
    <ele>148.8</ele>
    <time>2014-02-21T06:02:01Z</time>
   </trkpt>
   <trkpt lat="32.6195960" lon="35.1037270">
    <ele>148.8</ele>
    <time>2014-02-21T06:02:02Z</time>
   </trkpt>
   <trkpt lat="32.6195680" lon="35.1037360">
    <ele>148.9</ele>
    <time>2014-02-21T06:02:03Z</time>
   </trkpt>
   <trkpt lat="32.6195410" lon="35.1037450">
    <ele>149.0</ele>
    <time>2014-02-21T06:02:04Z</time>
   </trkpt>
   <trkpt lat="32.6195130" lon="35.1037510">
    <ele>149.1</ele>
    <time>2014-02-21T06:02:05Z</time>
   </trkpt>
   <trkpt lat="32.6194870" lon="35.1037590">
    <ele>149.2</ele>
    <time>2014-02-21T06:02:06Z</time>
   </trkpt>
   <trkpt lat="32.6194610" lon="35.1037690">
    <ele>149.4</ele>
    <time>2014-02-21T06:02:07Z</time>
   </trkpt>
   <trkpt lat="32.6194110" lon="35.1037880">
    <ele>149.7</ele>
    <time>2014-02-21T06:02:09Z</time>
   </trkpt>
   <trkpt lat="32.6193610" lon="35.1038050">
    <ele>150.0</ele>
    <time>2014-02-21T06:02:11Z</time>
   </trkpt>
   <trkpt lat="32.6193120" lon="35.1038200">
    <ele>150.3</ele>
    <time>2014-02-21T06:02:13Z</time>
   </trkpt>
   <trkpt lat="32.6192620" lon="35.1038370">
    <ele>150.6</ele>
    <time>2014-02-21T06:02:15Z</time>
   </trkpt>
   <trkpt lat="32.6192120" lon="35.1038530">
    <ele>150.9</ele>
    <time>2014-02-21T06:02:17Z</time>
   </trkpt>
   <trkpt lat="32.6191630" lon="35.1038690">
    <ele>151.2</ele>
    <time>2014-02-21T06:02:19Z</time>
   </trkpt>
   <trkpt lat="32.6191150" lon="35.1038830">
    <ele>151.5</ele>
    <time>2014-02-21T06:02:21Z</time>
   </trkpt>
   <trkpt lat="32.6190670" lon="35.1038950">
    <ele>151.7</ele>
    <time>2014-02-21T06:02:23Z</time>
   </trkpt>
   <trkpt lat="32.6190180" lon="35.1039050">
    <ele>152.0</ele>
    <time>2014-02-21T06:02:25Z</time>
   </trkpt>
   <trkpt lat="32.6189680" lon="35.1039110">
    <ele>152.1</ele>
    <time>2014-02-21T06:02:27Z</time>
   </trkpt>
   <trkpt lat="32.6189180" lon="35.1039110">
    <ele>152.2</ele>
    <time>2014-02-21T06:02:29Z</time>
   </trkpt>
   <trkpt lat="32.6188680" lon="35.1039120">
    <ele>152.3</ele>
    <time>2014-02-21T06:02:31Z</time>
   </trkpt>
   <trkpt lat="32.6188170" lon="35.1039140">
    <ele>152.4</ele>
    <time>2014-02-21T06:02:33Z</time>
   </trkpt>
   <trkpt lat="32.6187650" lon="35.1039210">
    <ele>152.6</ele>
    <time>2014-02-21T06:02:35Z</time>
   </trkpt>
   <trkpt lat="32.6187370" lon="35.1039260">
    <ele>152.8</ele>
    <time>2014-02-21T06:02:36Z</time>
   </trkpt>
   <trkpt lat="32.6187030" lon="35.1039310">
    <ele>153.1</ele>
    <time>2014-02-21T06:02:37Z</time>
   </trkpt>
   <trkpt lat="32.6186680" lon="35.1039350">
    <ele>153.3</ele>
    <time>2014-02-21T06:02:38Z</time>
   </trkpt>
   <trkpt lat="32.6186320" lon="35.1039410">
    <ele>153.6</ele>
    <time>2014-02-21T06:02:39Z</time>
   </trkpt>
   <trkpt lat="32.6185950" lon="35.1039530">
    <ele>153.9</ele>
    <time>2014-02-21T06:02:40Z</time>
   </trkpt>
   <trkpt lat="32.6185550" lon="35.1039730">
    <ele>154.4</ele>
    <time>2014-02-21T06:02:41Z</time>
   </trkpt>
   <trkpt lat="32.6185220" lon="35.1039960">
    <ele>154.9</ele>
    <time>2014-02-21T06:02:42Z</time>
   </trkpt>
   <trkpt lat="32.6184980" lon="35.1040230">
    <ele>155.4</ele>
    <time>2014-02-21T06:02:43Z</time>
   </trkpt>
   <trkpt lat="32.6184850" lon="35.1040570">
    <ele>155.9</ele>
    <time>2014-02-21T06:02:44Z</time>
   </trkpt>
   <trkpt lat="32.6184820" lon="35.1041170">
    <ele>156.8</ele>
    <time>2014-02-21T06:02:46Z</time>
   </trkpt>
   <trkpt lat="32.6185090" lon="35.1041430">
    <ele>157.0</ele>
    <time>2014-02-21T06:02:47Z</time>
   </trkpt>
   <trkpt lat="32.6185450" lon="35.1041820">
    <ele>157.5</ele>
    <time>2014-02-21T06:02:49Z</time>
   </trkpt>
   <trkpt lat="32.6185770" lon="35.1042170">
    <ele>157.9</ele>
    <time>2014-02-21T06:02:51Z</time>
   </trkpt>
   <trkpt lat="32.6186030" lon="35.1042560">
    <ele>158.3</ele>
    <time>2014-02-21T06:02:53Z</time>
   </trkpt>
   <trkpt lat="32.6186260" lon="35.1042970">
    <ele>158.9</ele>
    <time>2014-02-21T06:02:55Z</time>
   </trkpt>
   <trkpt lat="32.6186430" lon="35.1043400">
    <ele>159.5</ele>
    <time>2014-02-21T06:02:57Z</time>
   </trkpt>
   <trkpt lat="32.6186490" lon="35.1043870">
    <ele>160.2</ele>
    <time>2014-02-21T06:02:59Z</time>
   </trkpt>
   <trkpt lat="32.6186510" lon="35.1044340">
    <ele>160.9</ele>
    <time>2014-02-21T06:03:01Z</time>
   </trkpt>
   <trkpt lat="32.6186500" lon="35.1044820">
    <ele>161.6</ele>
    <time>2014-02-21T06:03:03Z</time>
   </trkpt>
   <trkpt lat="32.6186470" lon="35.1045280">
    <ele>162.3</ele>
    <time>2014-02-21T06:03:05Z</time>
   </trkpt>
   <trkpt lat="32.6186520" lon="35.1045740">
    <ele>163.0</ele>
    <time>2014-02-21T06:03:07Z</time>
   </trkpt>
   <trkpt lat="32.6186560" lon="35.1046200">
    <ele>163.4</ele>
    <time>2014-02-21T06:03:09Z</time>
   </trkpt>
   <trkpt lat="32.6186550" lon="35.1046680">
    <ele>163.8</ele>
    <time>2014-02-21T06:03:11Z</time>
   </trkpt>
   <trkpt lat="32.6186530" lon="35.1047150">
    <ele>164.2</ele>
    <time>2014-02-21T06:03:13Z</time>
   </trkpt>
   <trkpt lat="32.6186490" lon="35.1047630">
    <ele>164.6</ele>
    <time>2014-02-21T06:03:15Z</time>
   </trkpt>
   <trkpt lat="32.6186480" lon="35.1048120">
    <ele>165.0</ele>
    <time>2014-02-21T06:03:17Z</time>
   </trkpt>
   <trkpt lat="32.6186580" lon="35.1048600">
    <ele>165.4</ele>
    <time>2014-02-21T06:03:19Z</time>
   </trkpt>
   <trkpt lat="32.6186790" lon="35.1049050">
    <ele>165.8</ele>
    <time>2014-02-21T06:03:21Z</time>
   </trkpt>
   <trkpt lat="32.6186960" lon="35.1049520">
    <ele>166.2</ele>
    <time>2014-02-21T06:03:23Z</time>
   </trkpt>
   <trkpt lat="32.6187080" lon="35.1049990">
    <ele>166.5</ele>
    <time>2014-02-21T06:03:25Z</time>
   </trkpt>
   <trkpt lat="32.6187140" lon="35.1050480">
    <ele>166.9</ele>
    <time>2014-02-21T06:03:27Z</time>
   </trkpt>
   <trkpt lat="32.6187160" lon="35.1050970">
    <ele>167.4</ele>
    <time>2014-02-21T06:03:29Z</time>
   </trkpt>
   <trkpt lat="32.6187160" lon="35.1051470">
    <ele>167.8</ele>
    <time>2014-02-21T06:03:31Z</time>
   </trkpt>
   <trkpt lat="32.6187170" lon="35.1051950">
    <ele>168.2</ele>
    <time>2014-02-21T06:03:33Z</time>
   </trkpt>
   <trkpt lat="32.6187200" lon="35.1052440">
    <ele>168.6</ele>
    <time>2014-02-21T06:03:35Z</time>
   </trkpt>
   <trkpt lat="32.6187240" lon="35.1052920">
    <ele>169.0</ele>
    <time>2014-02-21T06:03:37Z</time>
   </trkpt>
   <trkpt lat="32.6187260" lon="35.1053400">
    <ele>169.4</ele>
    <time>2014-02-21T06:03:39Z</time>
   </trkpt>
   <trkpt lat="32.6187290" lon="35.1053870">
    <ele>169.8</ele>
    <time>2014-02-21T06:03:41Z</time>
   </trkpt>
   <trkpt lat="32.6187360" lon="35.1054330">
    <ele>170.1</ele>
    <time>2014-02-21T06:03:43Z</time>
   </trkpt>
   <trkpt lat="32.6187480" lon="35.1054780">
    <ele>170.4</ele>
    <time>2014-02-21T06:03:45Z</time>
   </trkpt>
   <trkpt lat="32.6187560" lon="35.1055220">
    <ele>170.7</ele>
    <time>2014-02-21T06:03:47Z</time>
   </trkpt>
   <trkpt lat="32.6187640" lon="35.1055690">
    <ele>171.0</ele>
    <time>2014-02-21T06:03:49Z</time>
   </trkpt>
   <trkpt lat="32.6187700" lon="35.1056170">
    <ele>171.4</ele>
    <time>2014-02-21T06:03:51Z</time>
   </trkpt>
   <trkpt lat="32.6187770" lon="35.1056640">
    <ele>171.7</ele>
    <time>2014-02-21T06:03:53Z</time>
   </trkpt>
   <trkpt lat="32.6187840" lon="35.1057120">
    <ele>172.0</ele>
    <time>2014-02-21T06:03:55Z</time>
   </trkpt>
   <trkpt lat="32.6187940" lon="35.1057600">
    <ele>172.3</ele>
    <time>2014-02-21T06:03:57Z</time>
   </trkpt>
   <trkpt lat="32.6188010" lon="35.1058070">
    <ele>172.6</ele>
    <time>2014-02-21T06:03:59Z</time>
   </trkpt>
   <trkpt lat="32.6188080" lon="35.1058550">
    <ele>172.9</ele>
    <time>2014-02-21T06:04:01Z</time>
   </trkpt>
   <trkpt lat="32.6188180" lon="35.1059020">
    <ele>173.2</ele>
    <time>2014-02-21T06:04:03Z</time>
   </trkpt>
   <trkpt lat="32.6188290" lon="35.1059510">
    <ele>173.5</ele>
    <time>2014-02-21T06:04:05Z</time>
   </trkpt>
   <trkpt lat="32.6188360" lon="35.1060020">
    <ele>173.8</ele>
    <time>2014-02-21T06:04:07Z</time>
   </trkpt>
   <trkpt lat="32.6188450" lon="35.1060510">
    <ele>174.1</ele>
    <time>2014-02-21T06:04:09Z</time>
   </trkpt>
   <trkpt lat="32.6188540" lon="35.1060990">
    <ele>174.4</ele>
    <time>2014-02-21T06:04:11Z</time>
   </trkpt>
   <trkpt lat="32.6188660" lon="35.1061460">
    <ele>174.7</ele>
    <time>2014-02-21T06:04:13Z</time>
   </trkpt>
   <trkpt lat="32.6188800" lon="35.1061920">
    <ele>175.0</ele>
    <time>2014-02-21T06:04:15Z</time>
   </trkpt>
   <trkpt lat="32.6188920" lon="35.1062380">
    <ele>175.2</ele>
    <time>2014-02-21T06:04:17Z</time>
   </trkpt>
   <trkpt lat="32.6189050" lon="35.1062830">
    <ele>175.5</ele>
    <time>2014-02-21T06:04:19Z</time>
   </trkpt>
   <trkpt lat="32.6189200" lon="35.1063280">
    <ele>175.8</ele>
    <time>2014-02-21T06:04:21Z</time>
   </trkpt>
   <trkpt lat="32.6189330" lon="35.1063730">
    <ele>176.1</ele>
    <time>2014-02-21T06:04:23Z</time>
   </trkpt>
   <trkpt lat="32.6189410" lon="35.1064180">
    <ele>176.4</ele>
    <time>2014-02-21T06:04:25Z</time>
   </trkpt>
   <trkpt lat="32.6189480" lon="35.1064640">
    <ele>176.8</ele>
    <time>2014-02-21T06:04:27Z</time>
   </trkpt>
   <trkpt lat="32.6189510" lon="35.1065140">
    <ele>177.2</ele>
    <time>2014-02-21T06:04:29Z</time>
   </trkpt>
   <trkpt lat="32.6189580" lon="35.1065640">
    <ele>177.5</ele>
    <time>2014-02-21T06:04:31Z</time>
   </trkpt>
   <trkpt lat="32.6189690" lon="35.1066110">
    <ele>177.9</ele>
    <time>2014-02-21T06:04:33Z</time>
   </trkpt>
   <trkpt lat="32.6189720" lon="35.1066550">
    <ele>178.2</ele>
    <time>2014-02-21T06:04:35Z</time>
   </trkpt>
   <trkpt lat="32.6189800" lon="35.1067000">
    <ele>178.5</ele>
    <time>2014-02-21T06:04:37Z</time>
   </trkpt>
   <trkpt lat="32.6189860" lon="35.1067450">
    <ele>178.9</ele>
    <time>2014-02-21T06:04:39Z</time>
   </trkpt>
   <trkpt lat="32.6189840" lon="35.1067900">
    <ele>179.2</ele>
    <time>2014-02-21T06:04:41Z</time>
   </trkpt>
   <trkpt lat="32.6189860" lon="35.1068330">
    <ele>179.6</ele>
    <time>2014-02-21T06:04:43Z</time>
   </trkpt>
   <trkpt lat="32.6189880" lon="35.1068760">
    <ele>179.9</ele>
    <time>2014-02-21T06:04:45Z</time>
   </trkpt>
   <trkpt lat="32.6189880" lon="35.1069230">
    <ele>180.3</ele>
    <time>2014-02-21T06:04:47Z</time>
   </trkpt>
   <trkpt lat="32.6189870" lon="35.1069680">
    <ele>180.6</ele>
    <time>2014-02-21T06:04:49Z</time>
   </trkpt>
   <trkpt lat="32.6189890" lon="35.1070150">
    <ele>181.0</ele>
    <time>2014-02-21T06:04:51Z</time>
   </trkpt>
   <trkpt lat="32.6189880" lon="35.1070670">
    <ele>181.4</ele>
    <time>2014-02-21T06:04:53Z</time>
   </trkpt>
   <trkpt lat="32.6189870" lon="35.1071170">
    <ele>181.9</ele>
    <time>2014-02-21T06:04:55Z</time>
   </trkpt>
   <trkpt lat="32.6189870" lon="35.1071680">
    <ele>182.4</ele>
    <time>2014-02-21T06:04:57Z</time>
   </trkpt>
   <trkpt lat="32.6189890" lon="35.1072170">
    <ele>182.9</ele>
    <time>2014-02-21T06:04:59Z</time>
   </trkpt>
   <trkpt lat="32.6189890" lon="35.1072710">
    <ele>183.5</ele>
    <time>2014-02-21T06:05:01Z</time>
   </trkpt>
   <trkpt lat="32.6189950" lon="35.1073230">
    <ele>184.0</ele>
    <time>2014-02-21T06:05:03Z</time>
   </trkpt>
   <trkpt lat="32.6190060" lon="35.1073740">
    <ele>184.4</ele>
    <time>2014-02-21T06:05:05Z</time>
   </trkpt>
   <trkpt lat="32.6190110" lon="35.1074230">
    <ele>184.9</ele>
    <time>2014-02-21T06:05:07Z</time>
   </trkpt>
   <trkpt lat="32.6190110" lon="35.1074690">
    <ele>185.3</ele>
    <time>2014-02-21T06:05:09Z</time>
   </trkpt>
   <trkpt lat="32.6190090" lon="35.1075170">
    <ele>185.8</ele>
    <time>2014-02-21T06:05:11Z</time>
   </trkpt>
   <trkpt lat="32.6190060" lon="35.1075620">
    <ele>186.3</ele>
    <time>2014-02-21T06:05:13Z</time>
   </trkpt>
   <trkpt lat="32.6190060" lon="35.1076050">
    <ele>186.8</ele>
    <time>2014-02-21T06:05:15Z</time>
   </trkpt>
   <trkpt lat="32.6190050" lon="35.1076550">
    <ele>187.3</ele>
    <time>2014-02-21T06:05:17Z</time>
   </trkpt>
   <trkpt lat="32.6190020" lon="35.1077040">
    <ele>187.8</ele>
    <time>2014-02-21T06:05:19Z</time>
   </trkpt>
   <trkpt lat="32.6189970" lon="35.1077530">
    <ele>188.4</ele>
    <time>2014-02-21T06:05:21Z</time>
   </trkpt>
   <trkpt lat="32.6189940" lon="35.1078030">
    <ele>188.9</ele>
    <time>2014-02-21T06:05:23Z</time>
   </trkpt>
   <trkpt lat="32.6189900" lon="35.1078510">
    <ele>189.4</ele>
    <time>2014-02-21T06:05:25Z</time>
   </trkpt>
   <trkpt lat="32.6189860" lon="35.1078980">
    <ele>190.0</ele>
    <time>2014-02-21T06:05:27Z</time>
   </trkpt>
   <trkpt lat="32.6189850" lon="35.1079440">
    <ele>190.3</ele>
    <time>2014-02-21T06:05:29Z</time>
   </trkpt>
   <trkpt lat="32.6189830" lon="35.1079920">
    <ele>190.6</ele>
    <time>2014-02-21T06:05:31Z</time>
   </trkpt>
   <trkpt lat="32.6189760" lon="35.1080390">
    <ele>190.9</ele>
    <time>2014-02-21T06:05:33Z</time>
   </trkpt>
   <trkpt lat="32.6189710" lon="35.1080880">
    <ele>191.2</ele>
    <time>2014-02-21T06:05:35Z</time>
   </trkpt>
   <trkpt lat="32.6189660" lon="35.1081360">
    <ele>191.5</ele>
    <time>2014-02-21T06:05:37Z</time>
   </trkpt>
   <trkpt lat="32.6189590" lon="35.1081830">
    <ele>191.9</ele>
    <time>2014-02-21T06:05:39Z</time>
   </trkpt>
   <trkpt lat="32.6189530" lon="35.1082330">
    <ele>192.2</ele>
    <time>2014-02-21T06:05:41Z</time>
   </trkpt>
   <trkpt lat="32.6189490" lon="35.1082840">
    <ele>192.4</ele>
    <time>2014-02-21T06:05:43Z</time>
   </trkpt>
   <trkpt lat="32.6189380" lon="35.1083350">
    <ele>192.8</ele>
    <time>2014-02-21T06:05:45Z</time>
   </trkpt>
   <trkpt lat="32.6189200" lon="35.1083780">
    <ele>193.1</ele>
    <time>2014-02-21T06:05:47Z</time>
   </trkpt>
   <trkpt lat="32.6188980" lon="35.1084190">
    <ele>193.4</ele>
    <time>2014-02-21T06:05:49Z</time>
   </trkpt>
   <trkpt lat="32.6188700" lon="35.1084550">
    <ele>193.7</ele>
    <time>2014-02-21T06:05:51Z</time>
   </trkpt>
   <trkpt lat="32.6188400" lon="35.1084900">
    <ele>194.0</ele>
    <time>2014-02-21T06:05:53Z</time>
   </trkpt>
   <trkpt lat="32.6188080" lon="35.1085230">
    <ele>194.2</ele>
    <time>2014-02-21T06:05:55Z</time>
   </trkpt>
   <trkpt lat="32.6187840" lon="35.1085630">
    <ele>194.4</ele>
    <time>2014-02-21T06:05:57Z</time>
   </trkpt>
   <trkpt lat="32.6187580" lon="35.1085970">
    <ele>194.6</ele>
    <time>2014-02-21T06:05:59Z</time>
   </trkpt>
   <trkpt lat="32.6187420" lon="35.1086350">
    <ele>194.7</ele>
    <time>2014-02-21T06:06:01Z</time>
   </trkpt>
   <trkpt lat="32.6187310" lon="35.1086760">
    <ele>194.8</ele>
    <time>2014-02-21T06:06:03Z</time>
   </trkpt>
   <trkpt lat="32.6187240" lon="35.1087220">
    <ele>195.0</ele>
    <time>2014-02-21T06:06:05Z</time>
   </trkpt>
   <trkpt lat="32.6187180" lon="35.1087620">
    <ele>195.0</ele>
    <time>2014-02-21T06:06:07Z</time>
   </trkpt>
   <trkpt lat="32.6187120" lon="35.1088000">
    <ele>194.9</ele>
    <time>2014-02-21T06:06:09Z</time>
   </trkpt>
   <trkpt lat="32.6187080" lon="35.1088420">
    <ele>194.8</ele>
    <time>2014-02-21T06:06:11Z</time>
   </trkpt>
   <trkpt lat="32.6187040" lon="35.1088880">
    <ele>194.7</ele>
    <time>2014-02-21T06:06:13Z</time>
   </trkpt>
   <trkpt lat="32.6186970" lon="35.1089350">
    <ele>194.6</ele>
    <time>2014-02-21T06:06:15Z</time>
   </trkpt>
   <trkpt lat="32.6186890" lon="35.1089800">
    <ele>194.4</ele>
    <time>2014-02-21T06:06:17Z</time>
   </trkpt>
   <trkpt lat="32.6186840" lon="35.1090200">
    <ele>194.3</ele>
    <time>2014-02-21T06:06:19Z</time>
   </trkpt>
   <trkpt lat="32.6186770" lon="35.1090580">
    <ele>194.2</ele>
    <time>2014-02-21T06:06:21Z</time>
   </trkpt>
   <trkpt lat="32.6186570" lon="35.1090960">
    <ele>194.1</ele>
    <time>2014-02-21T06:06:23Z</time>
   </trkpt>
   <trkpt lat="32.6186380" lon="35.1091330">
    <ele>194.0</ele>
    <time>2014-02-21T06:06:25Z</time>
   </trkpt>
   <trkpt lat="32.6186220" lon="35.1091730">
    <ele>193.8</ele>
    <time>2014-02-21T06:06:27Z</time>
   </trkpt>
   <trkpt lat="32.6186120" lon="35.1092230">
    <ele>193.7</ele>
    <time>2014-02-21T06:06:29Z</time>
   </trkpt>
   <trkpt lat="32.6186070" lon="35.1092770">
    <ele>193.5</ele>
    <time>2014-02-21T06:06:31Z</time>
   </trkpt>
   <trkpt lat="32.6186110" lon="35.1093230">
    <ele>193.3</ele>
    <time>2014-02-21T06:06:33Z</time>
   </trkpt>
   <trkpt lat="32.6186140" lon="35.1093610">
    <ele>193.2</ele>
    <time>2014-02-21T06:06:35Z</time>
   </trkpt>
   <trkpt lat="32.6186030" lon="35.1094020">
    <ele>193.1</ele>
    <time>2014-02-21T06:06:38Z</time>
   </trkpt>
   <trkpt lat="32.6185690" lon="35.1093950">
    <ele>193.0</ele>
    <time>2014-02-21T06:06:41Z</time>
   </trkpt>
   <trkpt lat="32.6185740" lon="35.1093590">
    <ele>193.1</ele>
    <time>2014-02-21T06:06:42Z</time>
   </trkpt>
   <trkpt lat="32.6185830" lon="35.1093210">
    <ele>193.3</ele>
    <time>2014-02-21T06:06:44Z</time>
   </trkpt>
   <trkpt lat="32.6185950" lon="35.1092840">
    <ele>193.4</ele>
    <time>2014-02-21T06:06:46Z</time>
   </trkpt>
   <trkpt lat="32.6186130" lon="35.1092500">
    <ele>193.6</ele>
    <time>2014-02-21T06:06:48Z</time>
   </trkpt>
   <trkpt lat="32.6186330" lon="35.1092140">
    <ele>193.7</ele>
    <time>2014-02-21T06:06:50Z</time>
   </trkpt>
   <trkpt lat="32.6186460" lon="35.1091780">
    <ele>193.8</ele>
    <time>2014-02-21T06:06:52Z</time>
   </trkpt>
   <trkpt lat="32.6186540" lon="35.1091430">
    <ele>194.0</ele>
    <time>2014-02-21T06:06:54Z</time>
   </trkpt>
   <trkpt lat="32.6186630" lon="35.1090960">
    <ele>194.1</ele>
    <time>2014-02-21T06:06:57Z</time>
   </trkpt>
   <trkpt lat="32.6186760" lon="35.1090680">
    <ele>194.2</ele>
    <time>2014-02-21T06:06:59Z</time>
   </trkpt>
   <trkpt lat="32.6186990" lon="35.1090430">
    <ele>194.3</ele>
    <time>2014-02-21T06:07:01Z</time>
   </trkpt>
   <trkpt lat="32.6187140" lon="35.1090110">
    <ele>194.4</ele>
    <time>2014-02-21T06:07:03Z</time>
   </trkpt>
   <trkpt lat="32.6187250" lon="35.1089730">
    <ele>194.5</ele>
    <time>2014-02-21T06:07:05Z</time>
   </trkpt>
   <trkpt lat="32.6187330" lon="35.1089340">
    <ele>194.6</ele>
    <time>2014-02-21T06:07:07Z</time>
   </trkpt>
   <trkpt lat="32.6187390" lon="35.1088950">
    <ele>194.7</ele>
    <time>2014-02-21T06:07:09Z</time>
   </trkpt>
   <trkpt lat="32.6187420" lon="35.1088590">
    <ele>194.7</ele>
    <time>2014-02-21T06:07:11Z</time>
   </trkpt>
   <trkpt lat="32.6187240" lon="35.1088320">
    <ele>194.8</ele>
    <time>2014-02-21T06:07:13Z</time>
   </trkpt>
   <trkpt lat="32.6186900" lon="35.1088560">
    <ele>194.8</ele>
    <time>2014-02-21T06:07:15Z</time>
   </trkpt>
   <trkpt lat="32.6186880" lon="35.1089160">
    <ele>194.6</ele>
    <time>2014-02-21T06:07:17Z</time>
   </trkpt>
   <trkpt lat="32.6186890" lon="35.1089770">
    <ele>194.4</ele>
    <time>2014-02-21T06:07:19Z</time>
   </trkpt>
   <trkpt lat="32.6186800" lon="35.1090320">
    <ele>194.3</ele>
    <time>2014-02-21T06:07:21Z</time>
   </trkpt>
   <trkpt lat="32.6186630" lon="35.1090840">
    <ele>194.1</ele>
    <time>2014-02-21T06:07:23Z</time>
   </trkpt>
   <trkpt lat="32.6186440" lon="35.1091310">
    <ele>194.0</ele>
    <time>2014-02-21T06:07:25Z</time>
   </trkpt>
   <trkpt lat="32.6186310" lon="35.1091770">
    <ele>193.8</ele>
    <time>2014-02-21T06:07:27Z</time>
   </trkpt>
   <trkpt lat="32.6186210" lon="35.1092360">
    <ele>193.6</ele>
    <time>2014-02-21T06:07:29Z</time>
   </trkpt>
   <trkpt lat="32.6186150" lon="35.1092790">
    <ele>193.5</ele>
    <time>2014-02-21T06:07:30Z</time>
   </trkpt>
   <trkpt lat="32.6186110" lon="35.1093130">
    <ele>193.4</ele>
    <time>2014-02-21T06:07:31Z</time>
   </trkpt>
   <trkpt lat="32.6186070" lon="35.1093630">
    <ele>193.2</ele>
    <time>2014-02-21T06:07:33Z</time>
   </trkpt>
   <trkpt lat="32.6186110" lon="35.1094090">
    <ele>193.1</ele>
    <time>2014-02-21T06:09:12Z</time>
   </trkpt>
   <trkpt lat="32.6186120" lon="35.1094710">
    <ele>192.9</ele>
    <time>2014-02-21T06:09:14Z</time>
   </trkpt>
   <trkpt lat="32.6186030" lon="35.1095020">
    <ele>192.7</ele>
    <time>2014-02-21T06:09:15Z</time>
   </trkpt>
   <trkpt lat="32.6185910" lon="35.1095340">
    <ele>192.6</ele>
    <time>2014-02-21T06:09:16Z</time>
   </trkpt>
   <trkpt lat="32.6185840" lon="35.1095730">
    <ele>192.4</ele>
    <time>2014-02-21T06:09:17Z</time>
   </trkpt>
   <trkpt lat="32.6185820" lon="35.1096180">
    <ele>192.3</ele>
    <time>2014-02-21T06:09:18Z</time>
   </trkpt>
   <trkpt lat="32.6185830" lon="35.1096630">
    <ele>192.1</ele>
    <time>2014-02-21T06:09:19Z</time>
   </trkpt>
   <trkpt lat="32.6185810" lon="35.1097080">
    <ele>192.0</ele>
    <time>2014-02-21T06:09:20Z</time>
   </trkpt>
   <trkpt lat="32.6185830" lon="35.1097590">
    <ele>191.8</ele>
    <time>2014-02-21T06:09:21Z</time>
   </trkpt>
   <trkpt lat="32.6186020" lon="35.1098460">
    <ele>191.6</ele>
    <time>2014-02-21T06:09:22Z</time>
   </trkpt>
   <trkpt lat="32.6186120" lon="35.1099160">
    <ele>191.4</ele>
    <time>2014-02-21T06:09:23Z</time>
   </trkpt>
   <trkpt lat="32.6186180" lon="35.1099900">
    <ele>191.2</ele>
    <time>2014-02-21T06:09:24Z</time>
   </trkpt>
   <trkpt lat="32.6186110" lon="35.1100710">
    <ele>190.9</ele>
    <time>2014-02-21T06:09:25Z</time>
   </trkpt>
   <trkpt lat="32.6186070" lon="35.1101540">
    <ele>190.6</ele>
    <time>2014-02-21T06:09:26Z</time>
   </trkpt>
   <trkpt lat="32.6186130" lon="35.1102260">
    <ele>190.5</ele>
    <time>2014-02-21T06:09:27Z</time>
   </trkpt>
   <trkpt lat="32.6186340" lon="35.1103050">
    <ele>190.4</ele>
    <time>2014-02-21T06:09:28Z</time>
   </trkpt>
   <trkpt lat="32.6186400" lon="35.1103590">
    <ele>190.3</ele>
    <time>2014-02-21T06:09:29Z</time>
   </trkpt>
   <trkpt lat="32.6186170" lon="35.1103860">
    <ele>190.0</ele>
    <time>2014-02-21T06:09:30Z</time>
   </trkpt>
   <trkpt lat="32.6185730" lon="35.1104100">
    <ele>189.5</ele>
    <time>2014-02-21T06:09:31Z</time>
   </trkpt>
   <trkpt lat="32.6185160" lon="35.1104200">
    <ele>189.0</ele>
    <time>2014-02-21T06:09:32Z</time>
   </trkpt>
   <trkpt lat="32.6184690" lon="35.1104560">
    <ele>188.5</ele>
    <time>2014-02-21T06:09:33Z</time>
   </trkpt>
   <trkpt lat="32.6184150" lon="35.1105000">
    <ele>187.9</ele>
    <time>2014-02-21T06:09:34Z</time>
   </trkpt>
   <trkpt lat="32.6183590" lon="35.1105520">
    <ele>187.3</ele>
    <time>2014-02-21T06:09:35Z</time>
   </trkpt>
   <trkpt lat="32.6183010" lon="35.1106070">
    <ele>186.6</ele>
    <time>2014-02-21T06:09:36Z</time>
   </trkpt>
   <trkpt lat="32.6182460" lon="35.1106580">
    <ele>186.0</ele>
    <time>2014-02-21T06:09:37Z</time>
   </trkpt>
   <trkpt lat="32.6181950" lon="35.1107190">
    <ele>185.4</ele>
    <time>2014-02-21T06:09:38Z</time>
   </trkpt>
   <trkpt lat="32.6181660" lon="35.1107960">
    <ele>184.9</ele>
    <time>2014-02-21T06:09:39Z</time>
   </trkpt>
   <trkpt lat="32.6181440" lon="35.1108710">
    <ele>184.4</ele>
    <time>2014-02-21T06:09:40Z</time>
   </trkpt>
   <trkpt lat="32.6181300" lon="35.1109600">
    <ele>184.0</ele>
    <time>2014-02-21T06:09:41Z</time>
   </trkpt>
   <trkpt lat="32.6181170" lon="35.1110370">
    <ele>183.6</ele>
    <time>2014-02-21T06:09:42Z</time>
   </trkpt>
   <trkpt lat="32.6181060" lon="35.1111070">
    <ele>183.3</ele>
    <time>2014-02-21T06:09:43Z</time>
   </trkpt>
   <trkpt lat="32.6180930" lon="35.1111680">
    <ele>183.0</ele>
    <time>2014-02-21T06:09:44Z</time>
   </trkpt>
   <trkpt lat="32.6180770" lon="35.1112240">
    <ele>182.6</ele>
    <time>2014-02-21T06:09:45Z</time>
   </trkpt>
   <trkpt lat="32.6180590" lon="35.1112740">
    <ele>182.4</ele>
    <time>2014-02-21T06:09:46Z</time>
   </trkpt>
   <trkpt lat="32.6180370" lon="35.1113160">
    <ele>182.3</ele>
    <time>2014-02-21T06:09:47Z</time>
   </trkpt>
   <trkpt lat="32.6179930" lon="35.1113380">
    <ele>182.0</ele>
    <time>2014-02-21T06:09:48Z</time>
   </trkpt>
   <trkpt lat="32.6179560" lon="35.1113430">
    <ele>181.7</ele>
    <time>2014-02-21T06:09:49Z</time>
   </trkpt>
   <trkpt lat="32.6179210" lon="35.1113400">
    <ele>181.4</ele>
    <time>2014-02-21T06:09:50Z</time>
   </trkpt>
   <trkpt lat="32.6178940" lon="35.1113480">
    <ele>182.1</ele>
    <time>2014-02-21T06:09:51Z</time>
   </trkpt>
   <trkpt lat="32.6178660" lon="35.1113640">
    <ele>183.0</ele>
    <time>2014-02-21T06:09:52Z</time>
   </trkpt>
   <trkpt lat="32.6178380" lon="35.1113900">
    <ele>184.0</ele>
    <time>2014-02-21T06:09:53Z</time>
   </trkpt>
   <trkpt lat="32.6178160" lon="35.1114180">
    <ele>184.8</ele>
    <time>2014-02-21T06:09:54Z</time>
   </trkpt>
   <trkpt lat="32.6177980" lon="35.1114520">
    <ele>185.6</ele>
    <time>2014-02-21T06:09:55Z</time>
   </trkpt>
   <trkpt lat="32.6177770" lon="35.1114860">
    <ele>186.5</ele>
    <time>2014-02-21T06:09:56Z</time>
   </trkpt>
   <trkpt lat="32.6177610" lon="35.1115220">
    <ele>187.2</ele>
    <time>2014-02-21T06:09:57Z</time>
   </trkpt>
   <trkpt lat="32.6177430" lon="35.1115550">
    <ele>188.0</ele>
    <time>2014-02-21T06:09:58Z</time>
   </trkpt>
   <trkpt lat="32.6177280" lon="35.1115900">
    <ele>188.7</ele>
    <time>2014-02-21T06:09:59Z</time>
   </trkpt>
   <trkpt lat="32.6177160" lon="35.1116240">
    <ele>189.3</ele>
    <time>2014-02-21T06:10:00Z</time>
   </trkpt>
   <trkpt lat="32.6177050" lon="35.1116600">
    <ele>190.0</ele>
    <time>2014-02-21T06:10:01Z</time>
   </trkpt>
   <trkpt lat="32.6176950" lon="35.1116950">
    <ele>190.5</ele>
    <time>2014-02-21T06:10:02Z</time>
   </trkpt>
   <trkpt lat="32.6176850" lon="35.1117290">
    <ele>191.1</ele>
    <time>2014-02-21T06:10:03Z</time>
   </trkpt>
   <trkpt lat="32.6176770" lon="35.1117610">
    <ele>191.6</ele>
    <time>2014-02-21T06:10:04Z</time>
   </trkpt>
   <trkpt lat="32.6176700" lon="35.1117940">
    <ele>192.1</ele>
    <time>2014-02-21T06:10:05Z</time>
   </trkpt>
   <trkpt lat="32.6176640" lon="35.1118270">
    <ele>192.5</ele>
    <time>2014-02-21T06:10:06Z</time>
   </trkpt>
   <trkpt lat="32.6176590" lon="35.1118620">
    <ele>193.0</ele>
    <time>2014-02-21T06:10:07Z</time>
   </trkpt>
   <trkpt lat="32.6176560" lon="35.1118970">
    <ele>193.3</ele>
    <time>2014-02-21T06:10:08Z</time>
   </trkpt>
   <trkpt lat="32.6176550" lon="35.1119290">
    <ele>193.6</ele>
    <time>2014-02-21T06:10:09Z</time>
   </trkpt>
   <trkpt lat="32.6176570" lon="35.1119840">
    <ele>193.9</ele>
    <time>2014-02-21T06:10:11Z</time>
   </trkpt>
   <trkpt lat="32.6176600" lon="35.1120330">
    <ele>194.1</ele>
    <time>2014-02-21T06:10:13Z</time>
   </trkpt>
   <trkpt lat="32.6176630" lon="35.1120790">
    <ele>194.3</ele>
    <time>2014-02-21T06:10:15Z</time>
   </trkpt>
   <trkpt lat="32.6176630" lon="35.1121300">
    <ele>194.5</ele>
    <time>2014-02-21T06:10:17Z</time>
   </trkpt>
   <trkpt lat="32.6176610" lon="35.1121830">
    <ele>194.8</ele>
    <time>2014-02-21T06:10:19Z</time>
   </trkpt>
   <trkpt lat="32.6176600" lon="35.1122370">
    <ele>195.1</ele>
    <time>2014-02-21T06:10:21Z</time>
   </trkpt>
   <trkpt lat="32.6176600" lon="35.1122940">
    <ele>195.3</ele>
    <time>2014-02-21T06:10:23Z</time>
   </trkpt>
   <trkpt lat="32.6176590" lon="35.1123510">
    <ele>195.6</ele>
    <time>2014-02-21T06:10:25Z</time>
   </trkpt>
   <trkpt lat="32.6176540" lon="35.1124080">
    <ele>196.0</ele>
    <time>2014-02-21T06:10:27Z</time>
   </trkpt>
   <trkpt lat="32.6176480" lon="35.1124690">
    <ele>196.5</ele>
    <time>2014-02-21T06:10:29Z</time>
   </trkpt>
   <trkpt lat="32.6176410" lon="35.1125310">
    <ele>197.0</ele>
    <time>2014-02-21T06:10:31Z</time>
   </trkpt>
   <trkpt lat="32.6176360" lon="35.1125630">
    <ele>197.4</ele>
    <time>2014-02-21T06:10:32Z</time>
   </trkpt>
   <trkpt lat="32.6176290" lon="35.1125970">
    <ele>197.8</ele>
    <time>2014-02-21T06:10:33Z</time>
   </trkpt>
   <trkpt lat="32.6176190" lon="35.1126390">
    <ele>198.3</ele>
    <time>2014-02-21T06:10:34Z</time>
   </trkpt>
   <trkpt lat="32.6176110" lon="35.1126760">
    <ele>198.8</ele>
    <time>2014-02-21T06:10:35Z</time>
   </trkpt>
   <trkpt lat="32.6176030" lon="35.1127150">
    <ele>199.3</ele>
    <time>2014-02-21T06:10:36Z</time>
   </trkpt>
   <trkpt lat="32.6175940" lon="35.1127540">
    <ele>199.8</ele>
    <time>2014-02-21T06:10:37Z</time>
   </trkpt>
   <trkpt lat="32.6175850" lon="35.1127920">
    <ele>200.3</ele>
    <time>2014-02-21T06:10:38Z</time>
   </trkpt>
   <trkpt lat="32.6175720" lon="35.1128320">
    <ele>200.9</ele>
    <time>2014-02-21T06:10:39Z</time>
   </trkpt>
   <trkpt lat="32.6175550" lon="35.1128730">
    <ele>201.7</ele>
    <time>2014-02-21T06:10:40Z</time>
   </trkpt>
   <trkpt lat="32.6175300" lon="35.1129210">
    <ele>202.8</ele>
    <time>2014-02-21T06:10:41Z</time>
   </trkpt>
   <trkpt lat="32.6175000" lon="35.1129780">
    <ele>203.4</ele>
    <time>2014-02-21T06:10:42Z</time>
   </trkpt>
   <trkpt lat="32.6174610" lon="35.1130570">
    <ele>204.1</ele>
    <time>2014-02-21T06:10:43Z</time>
   </trkpt>
   <trkpt lat="32.6174230" lon="35.1131210">
    <ele>204.8</ele>
    <time>2014-02-21T06:10:44Z</time>
   </trkpt>
   <trkpt lat="32.6173810" lon="35.1131770">
    <ele>205.6</ele>
    <time>2014-02-21T06:10:45Z</time>
   </trkpt>
   <trkpt lat="32.6173460" lon="35.1132450">
    <ele>206.0</ele>
    <time>2014-02-21T06:10:46Z</time>
   </trkpt>
   <trkpt lat="32.6173090" lon="35.1133040">
    <ele>206.6</ele>
    <time>2014-02-21T06:10:47Z</time>
   </trkpt>
   <trkpt lat="32.6172710" lon="35.1133710">
    <ele>206.9</ele>
    <time>2014-02-21T06:10:48Z</time>
   </trkpt>
   <trkpt lat="32.6172360" lon="35.1134460">
    <ele>207.0</ele>
    <time>2014-02-21T06:10:49Z</time>
   </trkpt>
   <trkpt lat="32.6172230" lon="35.1135210">
    <ele>206.4</ele>
    <time>2014-02-21T06:10:50Z</time>
   </trkpt>
   <trkpt lat="32.6172240" lon="35.1135950">
    <ele>205.4</ele>
    <time>2014-02-21T06:10:51Z</time>
   </trkpt>
   <trkpt lat="32.6172390" lon="35.1136590">
    <ele>204.1</ele>
    <time>2014-02-21T06:10:52Z</time>
   </trkpt>
   <trkpt lat="32.6172620" lon="35.1137100">
    <ele>202.8</ele>
    <time>2014-02-21T06:10:53Z</time>
   </trkpt>
   <trkpt lat="32.6172830" lon="35.1137510">
    <ele>201.7</ele>
    <time>2014-02-21T06:10:54Z</time>
   </trkpt>
   <trkpt lat="32.6172980" lon="35.1137880">
    <ele>201.1</ele>
    <time>2014-02-21T06:10:55Z</time>
   </trkpt>
   <trkpt lat="32.6173150" lon="35.1138250">
    <ele>200.5</ele>
    <time>2014-02-21T06:10:56Z</time>
   </trkpt>
   <trkpt lat="32.6173280" lon="35.1138640">
    <ele>199.9</ele>
    <time>2014-02-21T06:10:57Z</time>
   </trkpt>
   <trkpt lat="32.6173440" lon="35.1139000">
    <ele>199.3</ele>
    <time>2014-02-21T06:10:58Z</time>
   </trkpt>
   <trkpt lat="32.6173720" lon="35.1139700">
    <ele>198.3</ele>
    <time>2014-02-21T06:11:00Z</time>
   </trkpt>
   <trkpt lat="32.6173900" lon="35.1140060">
    <ele>197.6</ele>
    <time>2014-02-21T06:11:01Z</time>
   </trkpt>
   <trkpt lat="32.6173940" lon="35.1140420">
    <ele>197.3</ele>
    <time>2014-02-21T06:11:02Z</time>
   </trkpt>
   <trkpt lat="32.6174040" lon="35.1140890">
    <ele>196.9</ele>
    <time>2014-02-21T06:11:03Z</time>
   </trkpt>
   <trkpt lat="32.6174110" lon="35.1141270">
    <ele>196.5</ele>
    <time>2014-02-21T06:11:04Z</time>
   </trkpt>
   <trkpt lat="32.6174160" lon="35.1141660">
    <ele>196.2</ele>
    <time>2014-02-21T06:11:05Z</time>
   </trkpt>
   <trkpt lat="32.6174220" lon="35.1142060">
    <ele>195.9</ele>
    <time>2014-02-21T06:11:06Z</time>
   </trkpt>
   <trkpt lat="32.6174280" lon="35.1142470">
    <ele>195.6</ele>
    <time>2014-02-21T06:11:07Z</time>
   </trkpt>
   <trkpt lat="32.6174330" lon="35.1142880">
    <ele>195.2</ele>
    <time>2014-02-21T06:11:08Z</time>
   </trkpt>
   <trkpt lat="32.6174340" lon="35.1143280">
    <ele>195.0</ele>
    <time>2014-02-21T06:11:09Z</time>
   </trkpt>
   <trkpt lat="32.6174340" lon="35.1143680">
    <ele>194.9</ele>
    <time>2014-02-21T06:11:10Z</time>
   </trkpt>
   <trkpt lat="32.6174290" lon="35.1144100">
    <ele>194.8</ele>
    <time>2014-02-21T06:11:11Z</time>
   </trkpt>
   <trkpt lat="32.6174230" lon="35.1144500">
    <ele>194.7</ele>
    <time>2014-02-21T06:11:12Z</time>
   </trkpt>
   <trkpt lat="32.6174170" lon="35.1144900">
    <ele>194.6</ele>
    <time>2014-02-21T06:11:13Z</time>
   </trkpt>
   <trkpt lat="32.6174100" lon="35.1145300">
    <ele>194.6</ele>
    <time>2014-02-21T06:11:14Z</time>
   </trkpt>
   <trkpt lat="32.6174020" lon="35.1145660">
    <ele>194.6</ele>
    <time>2014-02-21T06:11:15Z</time>
   </trkpt>
   <trkpt lat="32.6173920" lon="35.1146010">
    <ele>194.7</ele>
    <time>2014-02-21T06:11:16Z</time>
   </trkpt>
   <trkpt lat="32.6173810" lon="35.1146350">
    <ele>194.9</ele>
    <time>2014-02-21T06:11:17Z</time>
   </trkpt>
   <trkpt lat="32.6173710" lon="35.1146700">
    <ele>195.2</ele>
    <time>2014-02-21T06:11:18Z</time>
   </trkpt>
   <trkpt lat="32.6173620" lon="35.1147060">
    <ele>195.4</ele>
    <time>2014-02-21T06:11:19Z</time>
   </trkpt>
   <trkpt lat="32.6173520" lon="35.1147420">
    <ele>195.6</ele>
    <time>2014-02-21T06:11:20Z</time>
   </trkpt>
   <trkpt lat="32.6173420" lon="35.1147780">
    <ele>195.8</ele>
    <time>2014-02-21T06:11:21Z</time>
   </trkpt>
   <trkpt lat="32.6173320" lon="35.1148140">
    <ele>196.0</ele>
    <time>2014-02-21T06:11:22Z</time>
   </trkpt>
   <trkpt lat="32.6173230" lon="35.1148500">
    <ele>196.2</ele>
    <time>2014-02-21T06:11:23Z</time>
   </trkpt>
   <trkpt lat="32.6173140" lon="35.1148850">
    <ele>196.5</ele>
    <time>2014-02-21T06:11:24Z</time>
   </trkpt>
   <trkpt lat="32.6173030" lon="35.1149200">
    <ele>196.7</ele>
    <time>2014-02-21T06:11:25Z</time>
   </trkpt>
   <trkpt lat="32.6172920" lon="35.1149540">
    <ele>197.0</ele>
    <time>2014-02-21T06:11:26Z</time>
   </trkpt>
   <trkpt lat="32.6172820" lon="35.1149880">
    <ele>197.2</ele>
    <time>2014-02-21T06:11:27Z</time>
   </trkpt>
   <trkpt lat="32.6172720" lon="35.1150210">
    <ele>197.4</ele>
    <time>2014-02-21T06:11:28Z</time>
   </trkpt>
   <trkpt lat="32.6172630" lon="35.1150560">
    <ele>197.7</ele>
    <time>2014-02-21T06:11:29Z</time>
   </trkpt>
   <trkpt lat="32.6172540" lon="35.1150910">
    <ele>197.9</ele>
    <time>2014-02-21T06:11:30Z</time>
   </trkpt>
   <trkpt lat="32.6172470" lon="35.1151270">
    <ele>198.1</ele>
    <time>2014-02-21T06:11:31Z</time>
   </trkpt>
   <trkpt lat="32.6172410" lon="35.1151640">
    <ele>198.2</ele>
    <time>2014-02-21T06:11:32Z</time>
   </trkpt>
   <trkpt lat="32.6172340" lon="35.1151990">
    <ele>198.4</ele>
    <time>2014-02-21T06:11:33Z</time>
   </trkpt>
   <trkpt lat="32.6172260" lon="35.1152340">
    <ele>198.6</ele>
    <time>2014-02-21T06:11:34Z</time>
   </trkpt>
   <trkpt lat="32.6172170" lon="35.1152670">
    <ele>198.8</ele>
    <time>2014-02-21T06:11:35Z</time>
   </trkpt>
   <trkpt lat="32.6172070" lon="35.1153000">
    <ele>199.1</ele>
    <time>2014-02-21T06:11:36Z</time>
   </trkpt>
   <trkpt lat="32.6171960" lon="35.1153340">
    <ele>199.4</ele>
    <time>2014-02-21T06:11:37Z</time>
   </trkpt>
   <trkpt lat="32.6171850" lon="35.1153690">
    <ele>199.6</ele>
    <time>2014-02-21T06:11:38Z</time>
   </trkpt>
   <trkpt lat="32.6171760" lon="35.1154040">
    <ele>199.9</ele>
    <time>2014-02-21T06:11:39Z</time>
   </trkpt>
   <trkpt lat="32.6171660" lon="35.1154380">
    <ele>200.0</ele>
    <time>2014-02-21T06:11:40Z</time>
   </trkpt>
   <trkpt lat="32.6171550" lon="35.1154720">
    <ele>200.1</ele>
    <time>2014-02-21T06:11:41Z</time>
   </trkpt>
   <trkpt lat="32.6171450" lon="35.1155060">
    <ele>200.2</ele>
    <time>2014-02-21T06:11:42Z</time>
   </trkpt>
   <trkpt lat="32.6171350" lon="35.1155410">
    <ele>200.3</ele>
    <time>2014-02-21T06:11:43Z</time>
   </trkpt>
   <trkpt lat="32.6171260" lon="35.1155750">
    <ele>200.4</ele>
    <time>2014-02-21T06:11:44Z</time>
   </trkpt>
   <trkpt lat="32.6171140" lon="35.1156080">
    <ele>200.6</ele>
    <time>2014-02-21T06:11:45Z</time>
   </trkpt>
   <trkpt lat="32.6171030" lon="35.1156400">
    <ele>200.7</ele>
    <time>2014-02-21T06:11:46Z</time>
   </trkpt>
   <trkpt lat="32.6170900" lon="35.1156710">
    <ele>200.9</ele>
    <time>2014-02-21T06:11:47Z</time>
   </trkpt>
   <trkpt lat="32.6170770" lon="35.1157000">
    <ele>200.9</ele>
    <time>2014-02-21T06:11:48Z</time>
   </trkpt>
   <trkpt lat="32.6170620" lon="35.1157280">
    <ele>200.4</ele>
    <time>2014-02-21T06:11:49Z</time>
   </trkpt>
   <trkpt lat="32.6170480" lon="35.1157580">
    <ele>200.0</ele>
    <time>2014-02-21T06:11:50Z</time>
   </trkpt>
   <trkpt lat="32.6170320" lon="35.1157870">
    <ele>199.6</ele>
    <time>2014-02-21T06:11:51Z</time>
   </trkpt>
   <trkpt lat="32.6170150" lon="35.1158150">
    <ele>199.1</ele>
    <time>2014-02-21T06:11:52Z</time>
   </trkpt>
   <trkpt lat="32.6169960" lon="35.1158400">
    <ele>198.6</ele>
    <time>2014-02-21T06:11:53Z</time>
   </trkpt>
   <trkpt lat="32.6169760" lon="35.1158650">
    <ele>198.1</ele>
    <time>2014-02-21T06:11:54Z</time>
   </trkpt>
   <trkpt lat="32.6169560" lon="35.1158890">
    <ele>197.6</ele>
    <time>2014-02-21T06:11:55Z</time>
   </trkpt>
   <trkpt lat="32.6169360" lon="35.1159130">
    <ele>197.1</ele>
    <time>2014-02-21T06:11:56Z</time>
   </trkpt>
   <trkpt lat="32.6169150" lon="35.1159350">
    <ele>196.5</ele>
    <time>2014-02-21T06:11:57Z</time>
   </trkpt>
   <trkpt lat="32.6168930" lon="35.1159520">
    <ele>196.0</ele>
    <time>2014-02-21T06:11:58Z</time>
   </trkpt>
   <trkpt lat="32.6168530" lon="35.1159610">
    <ele>195.1</ele>
    <time>2014-02-21T06:12:00Z</time>
   </trkpt>
   <trkpt lat="32.6168250" lon="35.1159320">
    <ele>194.6</ele>
    <time>2014-02-21T06:12:02Z</time>
   </trkpt>
   <trkpt lat="32.6168230" lon="35.1158850">
    <ele>194.8</ele>
    <time>2014-02-21T06:12:04Z</time>
   </trkpt>
   <trkpt lat="32.6168250" lon="35.1158390">
    <ele>195.0</ele>
    <time>2014-02-21T06:12:06Z</time>
   </trkpt>
   <trkpt lat="32.6168190" lon="35.1157930">
    <ele>195.1</ele>
    <time>2014-02-21T06:12:08Z</time>
   </trkpt>
   <trkpt lat="32.6168170" lon="35.1157480">
    <ele>195.3</ele>
    <time>2014-02-21T06:12:10Z</time>
   </trkpt>
   <trkpt lat="32.6168180" lon="35.1157040">
    <ele>195.5</ele>
    <time>2014-02-21T06:12:12Z</time>
   </trkpt>
   <trkpt lat="32.6168230" lon="35.1156580">
    <ele>195.9</ele>
    <time>2014-02-21T06:12:14Z</time>
   </trkpt>
   <trkpt lat="32.6168220" lon="35.1156130">
    <ele>196.1</ele>
    <time>2014-02-21T06:12:16Z</time>
   </trkpt>
   <trkpt lat="32.6168150" lon="35.1155670">
    <ele>196.1</ele>
    <time>2014-02-21T06:12:18Z</time>
   </trkpt>
   <trkpt lat="32.6168070" lon="35.1155220">
    <ele>196.2</ele>
    <time>2014-02-21T06:12:20Z</time>
   </trkpt>
   <trkpt lat="32.6168010" lon="35.1154770">
    <ele>196.3</ele>
    <time>2014-02-21T06:12:22Z</time>
   </trkpt>
   <trkpt lat="32.6167980" lon="35.1154320">
    <ele>196.4</ele>
    <time>2014-02-21T06:12:24Z</time>
   </trkpt>
   <trkpt lat="32.6167910" lon="35.1153880">
    <ele>196.5</ele>
    <time>2014-02-21T06:12:26Z</time>
   </trkpt>
   <trkpt lat="32.6167840" lon="35.1153450">
    <ele>196.5</ele>
    <time>2014-02-21T06:12:28Z</time>
   </trkpt>
   <trkpt lat="32.6167800" lon="35.1153000">
    <ele>196.6</ele>
    <time>2014-02-21T06:12:30Z</time>
   </trkpt>
   <trkpt lat="32.6167740" lon="35.1152540">
    <ele>196.7</ele>
    <time>2014-02-21T06:12:32Z</time>
   </trkpt>
   <trkpt lat="32.6167630" lon="35.1152070">
    <ele>196.8</ele>
    <time>2014-02-21T06:12:34Z</time>
   </trkpt>
   <trkpt lat="32.6167510" lon="35.1151600">
    <ele>196.8</ele>
    <time>2014-02-21T06:12:36Z</time>
   </trkpt>
   <trkpt lat="32.6167420" lon="35.1151090">
    <ele>196.9</ele>
    <time>2014-02-21T06:12:38Z</time>
   </trkpt>
   <trkpt lat="32.6167260" lon="35.1150430">
    <ele>197.0</ele>
    <time>2014-02-21T06:12:40Z</time>
   </trkpt>
   <trkpt lat="32.6167180" lon="35.1150030">
    <ele>197.1</ele>
    <time>2014-02-21T06:12:41Z</time>
   </trkpt>
   <trkpt lat="32.6167120" lon="35.1149640">
    <ele>197.2</ele>
    <time>2014-02-21T06:12:42Z</time>
   </trkpt>
   <trkpt lat="32.6167070" lon="35.1149230">
    <ele>197.4</ele>
    <time>2014-02-21T06:12:43Z</time>
   </trkpt>
   <trkpt lat="32.6167010" lon="35.1148800">
    <ele>197.6</ele>
    <time>2014-02-21T06:12:44Z</time>
   </trkpt>
   <trkpt lat="32.6166910" lon="35.1148340">
    <ele>197.7</ele>
    <time>2014-02-21T06:12:45Z</time>
   </trkpt>
   <trkpt lat="32.6166800" lon="35.1147900">
    <ele>197.9</ele>
    <time>2014-02-21T06:12:46Z</time>
   </trkpt>
   <trkpt lat="32.6166690" lon="35.1147410">
    <ele>198.1</ele>
    <time>2014-02-21T06:12:47Z</time>
   </trkpt>
   <trkpt lat="32.6166570" lon="35.1146890">
    <ele>198.3</ele>
    <time>2014-02-21T06:12:48Z</time>
   </trkpt>
   <trkpt lat="32.6166320" lon="35.1145880">
    <ele>198.8</ele>
    <time>2014-02-21T06:12:49Z</time>
   </trkpt>
   <trkpt lat="32.6166170" lon="35.1145250">
    <ele>199.6</ele>
    <time>2014-02-21T06:12:50Z</time>
   </trkpt>
   <trkpt lat="32.6166110" lon="35.1144610">
    <ele>200.4</ele>
    <time>2014-02-21T06:12:51Z</time>
   </trkpt>
   <trkpt lat="32.6165980" lon="35.1143920">
    <ele>201.4</ele>
    <time>2014-02-21T06:12:52Z</time>
   </trkpt>
   <trkpt lat="32.6165820" lon="35.1143330">
    <ele>202.2</ele>
    <time>2014-02-21T06:12:53Z</time>
   </trkpt>
   <trkpt lat="32.6165650" lon="35.1142740">
    <ele>203.0</ele>
    <time>2014-02-21T06:12:54Z</time>
   </trkpt>
   <trkpt lat="32.6165530" lon="35.1142070">
    <ele>204.0</ele>
    <time>2014-02-21T06:12:55Z</time>
   </trkpt>
   <trkpt lat="32.6165370" lon="35.1141400">
    <ele>205.1</ele>
    <time>2014-02-21T06:12:56Z</time>
   </trkpt>
   <trkpt lat="32.6165330" lon="35.1140870">
    <ele>205.9</ele>
    <time>2014-02-21T06:12:57Z</time>
   </trkpt>
   <trkpt lat="32.6165220" lon="35.1140190">
    <ele>206.9</ele>
    <time>2014-02-21T06:12:58Z</time>
   </trkpt>
   <trkpt lat="32.6165020" lon="35.1139740">
    <ele>207.7</ele>
    <time>2014-02-21T06:12:59Z</time>
   </trkpt>
   <trkpt lat="32.6164910" lon="35.1139220">
    <ele>208.6</ele>
    <time>2014-02-21T06:13:00Z</time>
   </trkpt>
   <trkpt lat="32.6164860" lon="35.1138810">
    <ele>209.2</ele>
    <time>2014-02-21T06:13:01Z</time>
   </trkpt>
   <trkpt lat="32.6164790" lon="35.1138460">
    <ele>209.8</ele>
    <time>2014-02-21T06:13:02Z</time>
   </trkpt>
   <trkpt lat="32.6164770" lon="35.1138140">
    <ele>210.3</ele>
    <time>2014-02-21T06:13:03Z</time>
   </trkpt>
   <trkpt lat="32.6164660" lon="35.1137600">
    <ele>211.3</ele>
    <time>2014-02-21T06:13:05Z</time>
   </trkpt>
   <trkpt lat="32.6164780" lon="35.1137150">
    <ele>211.7</ele>
    <time>2014-02-21T06:13:07Z</time>
   </trkpt>
   <trkpt lat="32.6164790" lon="35.1136700">
    <ele>212.2</ele>
    <time>2014-02-21T06:13:09Z</time>
   </trkpt>
   <trkpt lat="32.6164820" lon="35.1136280">
    <ele>212.6</ele>
    <time>2014-02-21T06:13:11Z</time>
   </trkpt>
   <trkpt lat="32.6164910" lon="35.1135910">
    <ele>212.9</ele>
    <time>2014-02-21T06:13:13Z</time>
   </trkpt>
   <trkpt lat="32.6165030" lon="35.1135580">
    <ele>213.2</ele>
    <time>2014-02-21T06:13:15Z</time>
   </trkpt>
   <trkpt lat="32.6165240" lon="35.1135340">
    <ele>213.4</ele>
    <time>2014-02-21T06:13:17Z</time>
   </trkpt>
   <trkpt lat="32.6165490" lon="35.1135170">
    <ele>213.4</ele>
    <time>2014-02-21T06:13:19Z</time>
   </trkpt>
   <trkpt lat="32.6165770" lon="35.1134960">
    <ele>213.5</ele>
    <time>2014-02-21T06:13:21Z</time>
   </trkpt>
   <trkpt lat="32.6166150" lon="35.1134700">
    <ele>213.6</ele>
    <time>2014-02-21T06:13:23Z</time>
   </trkpt>
   <trkpt lat="32.6166420" lon="35.1134520">
    <ele>213.7</ele>
    <time>2014-02-21T06:13:24Z</time>
   </trkpt>
   <trkpt lat="32.6166670" lon="35.1134350">
    <ele>213.8</ele>
    <time>2014-02-21T06:13:25Z</time>
   </trkpt>
   <trkpt lat="32.6166930" lon="35.1134170">
    <ele>213.9</ele>
    <time>2014-02-21T06:13:26Z</time>
   </trkpt>
   <trkpt lat="32.6167190" lon="35.1133980">
    <ele>214.0</ele>
    <time>2014-02-21T06:13:27Z</time>
   </trkpt>
   <trkpt lat="32.6167460" lon="35.1133760">
    <ele>214.2</ele>
    <time>2014-02-21T06:13:28Z</time>
   </trkpt>
   <trkpt lat="32.6167710" lon="35.1133510">
    <ele>214.4</ele>
    <time>2014-02-21T06:13:29Z</time>
   </trkpt>
   <trkpt lat="32.6167920" lon="35.1133270">
    <ele>214.6</ele>
    <time>2014-02-21T06:13:30Z</time>
   </trkpt>
   <trkpt lat="32.6168140" lon="35.1133040">
    <ele>214.9</ele>
    <time>2014-02-21T06:13:31Z</time>
   </trkpt>
   <trkpt lat="32.6168350" lon="35.1132810">
    <ele>215.1</ele>
    <time>2014-02-21T06:13:32Z</time>
   </trkpt>
   <trkpt lat="32.6168560" lon="35.1132570">
    <ele>215.4</ele>
    <time>2014-02-21T06:13:33Z</time>
   </trkpt>
   <trkpt lat="32.6168760" lon="35.1132310">
    <ele>215.7</ele>
    <time>2014-02-21T06:13:34Z</time>
   </trkpt>
   <trkpt lat="32.6168960" lon="35.1132050">
    <ele>216.0</ele>
    <time>2014-02-21T06:13:35Z</time>
   </trkpt>
   <trkpt lat="32.6169150" lon="35.1131790">
    <ele>216.3</ele>
    <time>2014-02-21T06:13:36Z</time>
   </trkpt>
   <trkpt lat="32.6169350" lon="35.1131520">
    <ele>216.6</ele>
    <time>2014-02-21T06:13:37Z</time>
   </trkpt>
   <trkpt lat="32.6169530" lon="35.1131260">
    <ele>217.0</ele>
    <time>2014-02-21T06:13:38Z</time>
   </trkpt>
   <trkpt lat="32.6169860" lon="35.1130790">
    <ele>217.6</ele>
    <time>2014-02-21T06:13:40Z</time>
   </trkpt>
   <trkpt lat="32.6170190" lon="35.1130280">
    <ele>218.3</ele>
    <time>2014-02-21T06:13:42Z</time>
   </trkpt>
   <trkpt lat="32.6170360" lon="35.1130020">
    <ele>218.7</ele>
    <time>2014-02-21T06:13:43Z</time>
   </trkpt>
   <trkpt lat="32.6170720" lon="35.1129590">
    <ele>219.3</ele>
    <time>2014-02-21T06:13:45Z</time>
   </trkpt>
   <trkpt lat="32.6171060" lon="35.1129150">
    <ele>219.1</ele>
    <time>2014-02-21T06:13:47Z</time>
   </trkpt>
   <trkpt lat="32.6171230" lon="35.1128890">
    <ele>218.4</ele>
    <time>2014-02-21T06:13:48Z</time>
   </trkpt>
   <trkpt lat="32.6171390" lon="35.1128620">
    <ele>217.7</ele>
    <time>2014-02-21T06:13:49Z</time>
   </trkpt>
   <trkpt lat="32.6171710" lon="35.1128120">
    <ele>216.4</ele>
    <time>2014-02-21T06:13:51Z</time>
   </trkpt>
   <trkpt lat="32.6172010" lon="35.1127700">
    <ele>215.1</ele>
    <time>2014-02-21T06:13:53Z</time>
   </trkpt>
   <trkpt lat="32.6172240" lon="35.1127300">
    <ele>214.1</ele>
    <time>2014-02-21T06:13:55Z</time>
   </trkpt>
   <trkpt lat="32.6172440" lon="35.1126870">
    <ele>213.2</ele>
    <time>2014-02-21T06:13:57Z</time>
   </trkpt>
   <trkpt lat="32.6172600" lon="35.1126420">
    <ele>212.4</ele>
    <time>2014-02-21T06:13:59Z</time>
   </trkpt>
   <trkpt lat="32.6172790" lon="35.1125890">
    <ele>211.5</ele>
    <time>2014-02-21T06:14:01Z</time>
   </trkpt>
   <trkpt lat="32.6172860" lon="35.1125550">
    <ele>211.1</ele>
    <time>2014-02-21T06:14:02Z</time>
   </trkpt>
   <trkpt lat="32.6172910" lon="35.1125190">
    <ele>210.8</ele>
    <time>2014-02-21T06:14:03Z</time>
   </trkpt>
   <trkpt lat="32.6172950" lon="35.1124790">
    <ele>210.6</ele>
    <time>2014-02-21T06:14:04Z</time>
   </trkpt>
   <trkpt lat="32.6172970" lon="35.1124390">
    <ele>210.4</ele>
    <time>2014-02-21T06:14:05Z</time>
   </trkpt>
   <trkpt lat="32.6172960" lon="35.1124000">
    <ele>210.3</ele>
    <time>2014-02-21T06:14:06Z</time>
   </trkpt>
   <trkpt lat="32.6172930" lon="35.1123610">
    <ele>210.3</ele>
    <time>2014-02-21T06:14:07Z</time>
   </trkpt>
   <trkpt lat="32.6172860" lon="35.1123220">
    <ele>210.4</ele>
    <time>2014-02-21T06:14:08Z</time>
   </trkpt>
   <trkpt lat="32.6172790" lon="35.1122840">
    <ele>210.6</ele>
    <time>2014-02-21T06:14:09Z</time>
   </trkpt>
   <trkpt lat="32.6172710" lon="35.1122480">
    <ele>210.8</ele>
    <time>2014-02-21T06:14:10Z</time>
   </trkpt>
   <trkpt lat="32.6172630" lon="35.1122120">
    <ele>211.0</ele>
    <time>2014-02-21T06:14:11Z</time>
   </trkpt>
   <trkpt lat="32.6172530" lon="35.1121780">
    <ele>211.4</ele>
    <time>2014-02-21T06:14:12Z</time>
   </trkpt>
   <trkpt lat="32.6172420" lon="35.1121460">
    <ele>211.7</ele>
    <time>2014-02-21T06:14:13Z</time>
   </trkpt>
   <trkpt lat="32.6172300" lon="35.1121150">
    <ele>212.1</ele>
    <time>2014-02-21T06:14:14Z</time>
   </trkpt>
   <trkpt lat="32.6172170" lon="35.1120850">
    <ele>212.6</ele>
    <time>2014-02-21T06:14:15Z</time>
   </trkpt>
   <trkpt lat="32.6172030" lon="35.1120560">
    <ele>212.8</ele>
    <time>2014-02-21T06:14:16Z</time>
   </trkpt>
   <trkpt lat="32.6171900" lon="35.1120280">
    <ele>212.9</ele>
    <time>2014-02-21T06:14:17Z</time>
   </trkpt>
   <trkpt lat="32.6171630" lon="35.1119750">
    <ele>213.3</ele>
    <time>2014-02-21T06:14:19Z</time>
   </trkpt>
   <trkpt lat="32.6171350" lon="35.1119300">
    <ele>213.8</ele>
    <time>2014-02-21T06:14:21Z</time>
   </trkpt>
   <trkpt lat="32.6171030" lon="35.1118840">
    <ele>214.4</ele>
    <time>2014-02-21T06:14:23Z</time>
   </trkpt>
   <trkpt lat="32.6170680" lon="35.1118380">
    <ele>214.6</ele>
    <time>2014-02-21T06:14:25Z</time>
   </trkpt>
   <trkpt lat="32.6170310" lon="35.1117930">
    <ele>214.3</ele>
    <time>2014-02-21T06:14:27Z</time>
   </trkpt>
   <trkpt lat="32.6169970" lon="35.1117440">
    <ele>214.0</ele>
    <time>2014-02-21T06:14:29Z</time>
   </trkpt>
   <trkpt lat="32.6169630" lon="35.1116960">
    <ele>213.7</ele>
    <time>2014-02-21T06:14:31Z</time>
   </trkpt>
   <trkpt lat="32.6169320" lon="35.1116470">
    <ele>213.5</ele>
    <time>2014-02-21T06:14:33Z</time>
   </trkpt>
   <trkpt lat="32.6169040" lon="35.1115980">
    <ele>213.3</ele>
    <time>2014-02-21T06:14:35Z</time>
   </trkpt>
   <trkpt lat="32.6168770" lon="35.1115470">
    <ele>213.2</ele>
    <time>2014-02-21T06:14:37Z</time>
   </trkpt>
   <trkpt lat="32.6168560" lon="35.1114940">
    <ele>213.0</ele>
    <time>2014-02-21T06:14:39Z</time>
   </trkpt>
   <trkpt lat="32.6168390" lon="35.1114390">
    <ele>212.7</ele>
    <time>2014-02-21T06:14:41Z</time>
   </trkpt>
   <trkpt lat="32.6168170" lon="35.1113840">
    <ele>212.6</ele>
    <time>2014-02-21T06:14:43Z</time>
   </trkpt>
   <trkpt lat="32.6167920" lon="35.1113240">
    <ele>212.5</ele>
    <time>2014-02-21T06:14:45Z</time>
   </trkpt>
   <trkpt lat="32.6167800" lon="35.1112920">
    <ele>212.5</ele>
    <time>2014-02-21T06:14:46Z</time>
   </trkpt>
   <trkpt lat="32.6167680" lon="35.1112610">
    <ele>212.5</ele>
    <time>2014-02-21T06:14:47Z</time>
   </trkpt>
   <trkpt lat="32.6167560" lon="35.1112310">
    <ele>212.4</ele>
    <time>2014-02-21T06:14:48Z</time>
   </trkpt>
   <trkpt lat="32.6167420" lon="35.1112010">
    <ele>212.3</ele>
    <time>2014-02-21T06:14:49Z</time>
   </trkpt>
   <trkpt lat="32.6167290" lon="35.1111700">
    <ele>212.1</ele>
    <time>2014-02-21T06:14:50Z</time>
   </trkpt>
   <trkpt lat="32.6167160" lon="35.1111390">
    <ele>211.9</ele>
    <time>2014-02-21T06:14:51Z</time>
   </trkpt>
   <trkpt lat="32.6167030" lon="35.1111060">
    <ele>211.7</ele>
    <time>2014-02-21T06:14:52Z</time>
   </trkpt>
   <trkpt lat="32.6166890" lon="35.1110730">
    <ele>211.5</ele>
    <time>2014-02-21T06:14:53Z</time>
   </trkpt>
   <trkpt lat="32.6166720" lon="35.1110410">
    <ele>211.4</ele>
    <time>2014-02-21T06:14:54Z</time>
   </trkpt>
   <trkpt lat="32.6166550" lon="35.1110080">
    <ele>211.2</ele>
    <time>2014-02-21T06:14:55Z</time>
   </trkpt>
   <trkpt lat="32.6166350" lon="35.1109750">
    <ele>211.2</ele>
    <time>2014-02-21T06:14:56Z</time>
   </trkpt>
   <trkpt lat="32.6166150" lon="35.1109430">
    <ele>211.1</ele>
    <time>2014-02-21T06:14:57Z</time>
   </trkpt>
   <trkpt lat="32.6165960" lon="35.1109120">
    <ele>211.0</ele>
    <time>2014-02-21T06:14:58Z</time>
   </trkpt>
   <trkpt lat="32.6165750" lon="35.1108820">
    <ele>211.0</ele>
    <time>2014-02-21T06:14:59Z</time>
   </trkpt>
   <trkpt lat="32.6165520" lon="35.1108540">
    <ele>211.0</ele>
    <time>2014-02-21T06:15:00Z</time>
   </trkpt>
   <trkpt lat="32.6165280" lon="35.1108300">
    <ele>211.1</ele>
    <time>2014-02-21T06:15:01Z</time>
   </trkpt>
   <trkpt lat="32.6165040" lon="35.1108070">
    <ele>211.2</ele>
    <time>2014-02-21T06:15:02Z</time>
   </trkpt>
   <trkpt lat="32.6164800" lon="35.1107850">
    <ele>211.4</ele>
    <time>2014-02-21T06:15:03Z</time>
   </trkpt>
   <trkpt lat="32.6164560" lon="35.1107640">
    <ele>211.5</ele>
    <time>2014-02-21T06:15:04Z</time>
   </trkpt>
   <trkpt lat="32.6164350" lon="35.1107420">
    <ele>211.6</ele>
    <time>2014-02-21T06:15:05Z</time>
   </trkpt>
   <trkpt lat="32.6164140" lon="35.1107200">
    <ele>211.6</ele>
    <time>2014-02-21T06:15:06Z</time>
   </trkpt>
   <trkpt lat="32.6163810" lon="35.1106770">
    <ele>211.6</ele>
    <time>2014-02-21T06:15:08Z</time>
   </trkpt>
   <trkpt lat="32.6163550" lon="35.1106220">
    <ele>211.3</ele>
    <time>2014-02-21T06:15:10Z</time>
   </trkpt>
   <trkpt lat="32.6163440" lon="35.1105920">
    <ele>211.0</ele>
    <time>2014-02-21T06:15:11Z</time>
   </trkpt>
   <trkpt lat="32.6163350" lon="35.1105620">
    <ele>210.7</ele>
    <time>2014-02-21T06:15:12Z</time>
   </trkpt>
   <trkpt lat="32.6163240" lon="35.1105320">
    <ele>210.4</ele>
    <time>2014-02-21T06:15:13Z</time>
   </trkpt>
   <trkpt lat="32.6163130" lon="35.1104990">
    <ele>210.1</ele>
    <time>2014-02-21T06:15:14Z</time>
   </trkpt>
   <trkpt lat="32.6163000" lon="35.1104660">
    <ele>209.9</ele>
    <time>2014-02-21T06:15:15Z</time>
   </trkpt>
   <trkpt lat="32.6162860" lon="35.1104340">
    <ele>209.6</ele>
    <time>2014-02-21T06:15:16Z</time>
   </trkpt>
   <trkpt lat="32.6162700" lon="35.1104030">
    <ele>209.4</ele>
    <time>2014-02-21T06:15:17Z</time>
   </trkpt>
   <trkpt lat="32.6162530" lon="35.1103720">
    <ele>209.2</ele>
    <time>2014-02-21T06:15:18Z</time>
   </trkpt>
   <trkpt lat="32.6162330" lon="35.1103410">
    <ele>208.8</ele>
    <time>2014-02-21T06:15:19Z</time>
   </trkpt>
   <trkpt lat="32.6162090" lon="35.1103080">
    <ele>208.4</ele>
    <time>2014-02-21T06:15:20Z</time>
   </trkpt>
   <trkpt lat="32.6161840" lon="35.1102770">
    <ele>208.0</ele>
    <time>2014-02-21T06:15:21Z</time>
   </trkpt>
   <trkpt lat="32.6161590" lon="35.1102490">
    <ele>207.6</ele>
    <time>2014-02-21T06:15:22Z</time>
   </trkpt>
   <trkpt lat="32.6161340" lon="35.1102240">
    <ele>207.3</ele>
    <time>2014-02-21T06:15:23Z</time>
   </trkpt>
   <trkpt lat="32.6161100" lon="35.1102020">
    <ele>207.1</ele>
    <time>2014-02-21T06:15:24Z</time>
   </trkpt>
   <trkpt lat="32.6160620" lon="35.1101730">
    <ele>206.9</ele>
    <time>2014-02-21T06:15:26Z</time>
   </trkpt>
   <trkpt lat="32.6160140" lon="35.1101490">
    <ele>206.8</ele>
    <time>2014-02-21T06:15:28Z</time>
   </trkpt>
   <trkpt lat="32.6159650" lon="35.1101310">
    <ele>206.8</ele>
    <time>2014-02-21T06:15:30Z</time>
   </trkpt>
   <trkpt lat="32.6159180" lon="35.1101140">
    <ele>206.8</ele>
    <time>2014-02-21T06:15:32Z</time>
   </trkpt>
   <trkpt lat="32.6158730" lon="35.1100960">
    <ele>206.8</ele>
    <time>2014-02-21T06:15:34Z</time>
   </trkpt>
   <trkpt lat="32.6158260" lon="35.1100830">
    <ele>206.9</ele>
    <time>2014-02-21T06:15:36Z</time>
   </trkpt>
   <trkpt lat="32.6157800" lon="35.1100740">
    <ele>207.1</ele>
    <time>2014-02-21T06:15:38Z</time>
   </trkpt>
   <trkpt lat="32.6157360" lon="35.1100650">
    <ele>207.2</ele>
    <time>2014-02-21T06:15:40Z</time>
   </trkpt>
   <trkpt lat="32.6156900" lon="35.1100590">
    <ele>207.4</ele>
    <time>2014-02-21T06:15:42Z</time>
   </trkpt>
   <trkpt lat="32.6156440" lon="35.1100500">
    <ele>207.6</ele>
    <time>2014-02-21T06:15:44Z</time>
   </trkpt>
   <trkpt lat="32.6156010" lon="35.1100410">
    <ele>207.8</ele>
    <time>2014-02-21T06:15:46Z</time>
   </trkpt>
   <trkpt lat="32.6155560" lon="35.1100260">
    <ele>207.9</ele>
    <time>2014-02-21T06:15:48Z</time>
   </trkpt>
   <trkpt lat="32.6155020" lon="35.1100120">
    <ele>208.1</ele>
    <time>2014-02-21T06:15:50Z</time>
   </trkpt>
   <trkpt lat="32.6154740" lon="35.1100080">
    <ele>208.2</ele>
    <time>2014-02-21T06:15:51Z</time>
   </trkpt>
   <trkpt lat="32.6154220" lon="35.1100130">
    <ele>208.6</ele>
    <time>2014-02-21T06:15:53Z</time>
   </trkpt>
   <trkpt lat="32.6153750" lon="35.1100230">
    <ele>209.4</ele>
    <time>2014-02-21T06:15:55Z</time>
   </trkpt>
   <trkpt lat="32.6153350" lon="35.1100320">
    <ele>210.0</ele>
    <time>2014-02-21T06:15:57Z</time>
   </trkpt>
   <trkpt lat="32.6152950" lon="35.1100360">
    <ele>210.7</ele>
    <time>2014-02-21T06:15:59Z</time>
   </trkpt>
   <trkpt lat="32.6152620" lon="35.1100350">
    <ele>211.1</ele>
    <time>2014-02-21T06:16:01Z</time>
   </trkpt>
   <trkpt lat="32.6152460" lon="35.1100080">
    <ele>211.1</ele>
    <time>2014-02-21T06:16:08Z</time>
   </trkpt>
   <trkpt lat="32.6152200" lon="35.1100120">
    <ele>211.6</ele>
    <time>2014-02-21T06:16:28Z</time>
   </trkpt>
   <trkpt lat="32.6151920" lon="35.1099860">
    <ele>211.8</ele>
    <time>2014-02-21T06:16:34Z</time>
   </trkpt>
   <trkpt lat="32.6151660" lon="35.1099530">
    <ele>211.9</ele>
    <time>2014-02-21T06:16:35Z</time>
   </trkpt>
   <trkpt lat="32.6151380" lon="35.1099130">
    <ele>212.0</ele>
    <time>2014-02-21T06:16:36Z</time>
   </trkpt>
   <trkpt lat="32.6151110" lon="35.1098610">
    <ele>212.0</ele>
    <time>2014-02-21T06:16:37Z</time>
   </trkpt>
   <trkpt lat="32.6150730" lon="35.1097730">
    <ele>212.0</ele>
    <time>2014-02-21T06:16:38Z</time>
   </trkpt>
   <trkpt lat="32.6150510" lon="35.1096980">
    <ele>211.8</ele>
    <time>2014-02-21T06:16:39Z</time>
   </trkpt>
   <trkpt lat="32.6150270" lon="35.1096080">
    <ele>211.7</ele>
    <time>2014-02-21T06:16:40Z</time>
   </trkpt>
   <trkpt lat="32.6150090" lon="35.1095160">
    <ele>211.5</ele>
    <time>2014-02-21T06:16:41Z</time>
   </trkpt>
   <trkpt lat="32.6149870" lon="35.1094260">
    <ele>211.6</ele>
    <time>2014-02-21T06:16:42Z</time>
   </trkpt>
   <trkpt lat="32.6149610" lon="35.1093320">
    <ele>211.7</ele>
    <time>2014-02-21T06:16:43Z</time>
   </trkpt>
   <trkpt lat="32.6149280" lon="35.1092380">
    <ele>211.8</ele>
    <time>2014-02-21T06:16:44Z</time>
   </trkpt>
   <trkpt lat="32.6149050" lon="35.1091450">
    <ele>211.8</ele>
    <time>2014-02-21T06:16:45Z</time>
   </trkpt>
   <trkpt lat="32.6148860" lon="35.1090510">
    <ele>211.7</ele>
    <time>2014-02-21T06:16:46Z</time>
   </trkpt>
   <trkpt lat="32.6148740" lon="35.1089560">
    <ele>211.4</ele>
    <time>2014-02-21T06:16:47Z</time>
   </trkpt>
   <trkpt lat="32.6148620" lon="35.1088580">
    <ele>211.2</ele>
    <time>2014-02-21T06:16:48Z</time>
   </trkpt>
   <trkpt lat="32.6148590" lon="35.1087610">
    <ele>210.8</ele>
    <time>2014-02-21T06:16:49Z</time>
   </trkpt>
   <trkpt lat="32.6148510" lon="35.1086740">
    <ele>210.5</ele>
    <time>2014-02-21T06:16:50Z</time>
   </trkpt>
   <trkpt lat="32.6148420" lon="35.1085860">
    <ele>210.2</ele>
    <time>2014-02-21T06:16:51Z</time>
   </trkpt>
   <trkpt lat="32.6148460" lon="35.1084960">
    <ele>209.7</ele>
    <time>2014-02-21T06:16:52Z</time>
   </trkpt>
   <trkpt lat="32.6148510" lon="35.1084100">
    <ele>209.2</ele>
    <time>2014-02-21T06:16:53Z</time>
   </trkpt>
   <trkpt lat="32.6148530" lon="35.1083200">
    <ele>208.7</ele>
    <time>2014-02-21T06:16:54Z</time>
   </trkpt>
   <trkpt lat="32.6148590" lon="35.1082340">
    <ele>208.2</ele>
    <time>2014-02-21T06:16:55Z</time>
   </trkpt>
   <trkpt lat="32.6148540" lon="35.1081490">
    <ele>207.9</ele>
    <time>2014-02-21T06:16:56Z</time>
   </trkpt>
   <trkpt lat="32.6148510" lon="35.1080650">
    <ele>207.5</ele>
    <time>2014-02-21T06:16:57Z</time>
   </trkpt>
   <trkpt lat="32.6148530" lon="35.1079800">
    <ele>207.0</ele>
    <time>2014-02-21T06:16:58Z</time>
   </trkpt>
   <trkpt lat="32.6148460" lon="35.1078990">
    <ele>206.6</ele>
    <time>2014-02-21T06:16:59Z</time>
   </trkpt>
   <trkpt lat="32.6148410" lon="35.1078150">
    <ele>205.7</ele>
    <time>2014-02-21T06:17:00Z</time>
   </trkpt>
   <trkpt lat="32.6148350" lon="35.1077380">
    <ele>204.9</ele>
    <time>2014-02-21T06:17:01Z</time>
   </trkpt>
   <trkpt lat="32.6148220" lon="35.1076630">
    <ele>204.1</ele>
    <time>2014-02-21T06:17:02Z</time>
   </trkpt>
   <trkpt lat="32.6147980" lon="35.1075910">
    <ele>203.5</ele>
    <time>2014-02-21T06:17:03Z</time>
   </trkpt>
   <trkpt lat="32.6147760" lon="35.1075210">
    <ele>202.9</ele>
    <time>2014-02-21T06:17:04Z</time>
   </trkpt>
   <trkpt lat="32.6147560" lon="35.1074510">
    <ele>202.2</ele>
    <time>2014-02-21T06:17:05Z</time>
   </trkpt>
   <trkpt lat="32.6147220" lon="35.1073880">
    <ele>201.7</ele>
    <time>2014-02-21T06:17:06Z</time>
   </trkpt>
   <trkpt lat="32.6146780" lon="35.1073360">
    <ele>201.4</ele>
    <time>2014-02-21T06:17:07Z</time>
   </trkpt>
   <trkpt lat="32.6146370" lon="35.1072830">
    <ele>201.0</ele>
    <time>2014-02-21T06:17:08Z</time>
   </trkpt>
   <trkpt lat="32.6145900" lon="35.1072320">
    <ele>200.7</ele>
    <time>2014-02-21T06:17:09Z</time>
   </trkpt>
   <trkpt lat="32.6145400" lon="35.1071890">
    <ele>200.3</ele>
    <time>2014-02-21T06:17:10Z</time>
   </trkpt>
   <trkpt lat="32.6144800" lon="35.1071610">
    <ele>200.0</ele>
    <time>2014-02-21T06:17:11Z</time>
   </trkpt>
   <trkpt lat="32.6144250" lon="35.1071330">
    <ele>199.6</ele>
    <time>2014-02-21T06:17:12Z</time>
   </trkpt>
   <trkpt lat="32.6143690" lon="35.1070990">
    <ele>199.2</ele>
    <time>2014-02-21T06:17:13Z</time>
   </trkpt>
   <trkpt lat="32.6143140" lon="35.1070720">
    <ele>198.8</ele>
    <time>2014-02-21T06:17:14Z</time>
   </trkpt>
   <trkpt lat="32.6142550" lon="35.1070390">
    <ele>198.4</ele>
    <time>2014-02-21T06:17:15Z</time>
   </trkpt>
   <trkpt lat="32.6141940" lon="35.1070000">
    <ele>197.9</ele>
    <time>2014-02-21T06:17:16Z</time>
   </trkpt>
   <trkpt lat="32.6141270" lon="35.1069710">
    <ele>197.6</ele>
    <time>2014-02-21T06:17:17Z</time>
   </trkpt>
   <trkpt lat="32.6140620" lon="35.1069460">
    <ele>197.3</ele>
    <time>2014-02-21T06:17:18Z</time>
   </trkpt>
   <trkpt lat="32.6139970" lon="35.1069230">
    <ele>197.1</ele>
    <time>2014-02-21T06:17:19Z</time>
   </trkpt>
   <trkpt lat="32.6139280" lon="35.1069070">
    <ele>197.0</ele>
    <time>2014-02-21T06:17:20Z</time>
   </trkpt>
   <trkpt lat="32.6138590" lon="35.1068830">
    <ele>196.7</ele>
    <time>2014-02-21T06:17:21Z</time>
   </trkpt>
   <trkpt lat="32.6137840" lon="35.1068660">
    <ele>196.6</ele>
    <time>2014-02-21T06:17:22Z</time>
   </trkpt>
   <trkpt lat="32.6137110" lon="35.1068570">
    <ele>196.5</ele>
    <time>2014-02-21T06:17:23Z</time>
   </trkpt>
   <trkpt lat="32.6136360" lon="35.1068490">
    <ele>196.4</ele>
    <time>2014-02-21T06:17:24Z</time>
   </trkpt>
   <trkpt lat="32.6135590" lon="35.1068350">
    <ele>196.3</ele>
    <time>2014-02-21T06:17:25Z</time>
   </trkpt>
   <trkpt lat="32.6134760" lon="35.1068260">
    <ele>196.2</ele>
    <time>2014-02-21T06:17:26Z</time>
   </trkpt>
   <trkpt lat="32.6133930" lon="35.1068270">
    <ele>196.2</ele>
    <time>2014-02-21T06:17:27Z</time>
   </trkpt>
   <trkpt lat="32.6133110" lon="35.1068250">
    <ele>196.2</ele>
    <time>2014-02-21T06:17:28Z</time>
   </trkpt>
   <trkpt lat="32.6132240" lon="35.1068190">
    <ele>196.1</ele>
    <time>2014-02-21T06:17:29Z</time>
   </trkpt>
   <trkpt lat="32.6131370" lon="35.1068150">
    <ele>196.1</ele>
    <time>2014-02-21T06:17:30Z</time>
   </trkpt>
   <trkpt lat="32.6130500" lon="35.1068160">
    <ele>196.1</ele>
    <time>2014-02-21T06:17:31Z</time>
   </trkpt>
   <trkpt lat="32.6129710" lon="35.1068270">
    <ele>196.2</ele>
    <time>2014-02-21T06:17:32Z</time>
   </trkpt>
   <trkpt lat="32.6128980" lon="35.1068430">
    <ele>196.3</ele>
    <time>2014-02-21T06:17:33Z</time>
   </trkpt>
   <trkpt lat="32.6128380" lon="35.1068690">
    <ele>196.5</ele>
    <time>2014-02-21T06:17:34Z</time>
   </trkpt>
   <trkpt lat="32.6127750" lon="35.1068960">
    <ele>196.7</ele>
    <time>2014-02-21T06:17:35Z</time>
   </trkpt>
   <trkpt lat="32.6127160" lon="35.1069170">
    <ele>196.9</ele>
    <time>2014-02-21T06:17:36Z</time>
   </trkpt>
   <trkpt lat="32.6126590" lon="35.1069290">
    <ele>197.0</ele>
    <time>2014-02-21T06:17:37Z</time>
   </trkpt>
   <trkpt lat="32.6125980" lon="35.1069420">
    <ele>197.1</ele>
    <time>2014-02-21T06:17:38Z</time>
   </trkpt>
   <trkpt lat="32.6125390" lon="35.1069610">
    <ele>197.3</ele>
    <time>2014-02-21T06:17:39Z</time>
   </trkpt>
   <trkpt lat="32.6124810" lon="35.1069820">
    <ele>197.4</ele>
    <time>2014-02-21T06:17:40Z</time>
   </trkpt>
   <trkpt lat="32.6124250" lon="35.1070010">
    <ele>197.5</ele>
    <time>2014-02-21T06:17:41Z</time>
   </trkpt>
   <trkpt lat="32.6123710" lon="35.1070200">
    <ele>197.6</ele>
    <time>2014-02-21T06:17:42Z</time>
   </trkpt>
   <trkpt lat="32.6123130" lon="35.1070490">
    <ele>197.8</ele>
    <time>2014-02-21T06:17:43Z</time>
   </trkpt>
   <trkpt lat="32.6122570" lon="35.1070800">
    <ele>198.0</ele>
    <time>2014-02-21T06:17:44Z</time>
   </trkpt>
   <trkpt lat="32.6121980" lon="35.1070870">
    <ele>198.1</ele>
    <time>2014-02-21T06:17:45Z</time>
   </trkpt>
   <trkpt lat="32.6121410" lon="35.1071090">
    <ele>198.3</ele>
    <time>2014-02-21T06:17:46Z</time>
   </trkpt>
   <trkpt lat="32.6120830" lon="35.1071310">
    <ele>198.6</ele>
    <time>2014-02-21T06:17:47Z</time>
   </trkpt>
   <trkpt lat="32.6120280" lon="35.1071520">
    <ele>199.0</ele>
    <time>2014-02-21T06:17:48Z</time>
   </trkpt>
   <trkpt lat="32.6119740" lon="35.1071690">
    <ele>199.2</ele>
    <time>2014-02-21T06:17:49Z</time>
   </trkpt>
   <trkpt lat="32.6119190" lon="35.1071860">
    <ele>199.5</ele>
    <time>2014-02-21T06:17:50Z</time>
   </trkpt>
   <trkpt lat="32.6118680" lon="35.1072010">
    <ele>199.8</ele>
    <time>2014-02-21T06:17:51Z</time>
   </trkpt>
   <trkpt lat="32.6118120" lon="35.1072040">
    <ele>199.9</ele>
    <time>2014-02-21T06:17:52Z</time>
   </trkpt>
   <trkpt lat="32.6117600" lon="35.1072150">
    <ele>200.1</ele>
    <time>2014-02-21T06:17:53Z</time>
   </trkpt>
   <trkpt lat="32.6117090" lon="35.1072350">
    <ele>200.4</ele>
    <time>2014-02-21T06:17:54Z</time>
   </trkpt>
   <trkpt lat="32.6116620" lon="35.1072600">
    <ele>200.7</ele>
    <time>2014-02-21T06:17:55Z</time>
   </trkpt>
   <trkpt lat="32.6116140" lon="35.1072860">
    <ele>201.1</ele>
    <time>2014-02-21T06:17:56Z</time>
   </trkpt>
   <trkpt lat="32.6115640" lon="35.1073110">
    <ele>201.5</ele>
    <time>2014-02-21T06:17:57Z</time>
   </trkpt>
   <trkpt lat="32.6115170" lon="35.1073330">
    <ele>201.8</ele>
    <time>2014-02-21T06:17:58Z</time>
   </trkpt>
   <trkpt lat="32.6114710" lon="35.1073520">
    <ele>202.0</ele>
    <time>2014-02-21T06:17:59Z</time>
   </trkpt>
   <trkpt lat="32.6114310" lon="35.1073710">
    <ele>202.3</ele>
    <time>2014-02-21T06:18:00Z</time>
   </trkpt>
   <trkpt lat="32.6113860" lon="35.1073930">
    <ele>202.6</ele>
    <time>2014-02-21T06:18:01Z</time>
   </trkpt>
   <trkpt lat="32.6113400" lon="35.1074130">
    <ele>202.9</ele>
    <time>2014-02-21T06:18:02Z</time>
   </trkpt>
   <trkpt lat="32.6112960" lon="35.1074090">
    <ele>202.9</ele>
    <time>2014-02-21T06:18:03Z</time>
   </trkpt>
   <trkpt lat="32.6112470" lon="35.1074090">
    <ele>202.9</ele>
    <time>2014-02-21T06:18:04Z</time>
   </trkpt>
   <trkpt lat="32.6111970" lon="35.1074130">
    <ele>203.4</ele>
    <time>2014-02-21T06:18:05Z</time>
   </trkpt>
   <trkpt lat="32.6111500" lon="35.1074170">
    <ele>203.8</ele>
    <time>2014-02-21T06:18:06Z</time>
   </trkpt>
   <trkpt lat="32.6110970" lon="35.1074140">
    <ele>204.1</ele>
    <time>2014-02-21T06:18:07Z</time>
   </trkpt>
   <trkpt lat="32.6110470" lon="35.1074150">
    <ele>204.5</ele>
    <time>2014-02-21T06:18:08Z</time>
   </trkpt>
   <trkpt lat="32.6110010" lon="35.1074160">
    <ele>204.9</ele>
    <time>2014-02-21T06:18:09Z</time>
   </trkpt>
   <trkpt lat="32.6109510" lon="35.1074120">
    <ele>205.2</ele>
    <time>2014-02-21T06:18:10Z</time>
   </trkpt>
   <trkpt lat="32.6109010" lon="35.1074120">
    <ele>205.6</ele>
    <time>2014-02-21T06:18:11Z</time>
   </trkpt>
   <trkpt lat="32.6108490" lon="35.1074200">
    <ele>206.1</ele>
    <time>2014-02-21T06:18:12Z</time>
   </trkpt>
   <trkpt lat="32.6108000" lon="35.1074270">
    <ele>206.6</ele>
    <time>2014-02-21T06:18:13Z</time>
   </trkpt>
   <trkpt lat="32.6107470" lon="35.1074430">
    <ele>207.1</ele>
    <time>2014-02-21T06:18:14Z</time>
   </trkpt>
   <trkpt lat="32.6107020" lon="35.1074560">
    <ele>207.6</ele>
    <time>2014-02-21T06:18:15Z</time>
   </trkpt>
   <trkpt lat="32.6106670" lon="35.1074670">
    <ele>207.9</ele>
    <time>2014-02-21T06:18:16Z</time>
   </trkpt>
   <trkpt lat="32.6106310" lon="35.1074790">
    <ele>208.3</ele>
    <time>2014-02-21T06:18:17Z</time>
   </trkpt>
   <trkpt lat="32.6105940" lon="35.1074940">
    <ele>208.7</ele>
    <time>2014-02-21T06:18:18Z</time>
   </trkpt>
   <trkpt lat="32.6105580" lon="35.1075000">
    <ele>209.0</ele>
    <time>2014-02-21T06:18:19Z</time>
   </trkpt>
   <trkpt lat="32.6105200" lon="35.1075020">
    <ele>209.3</ele>
    <time>2014-02-21T06:18:20Z</time>
   </trkpt>
   <trkpt lat="32.6104810" lon="35.1075030">
    <ele>209.6</ele>
    <time>2014-02-21T06:18:21Z</time>
   </trkpt>
   <trkpt lat="32.6104450" lon="35.1075080">
    <ele>209.9</ele>
    <time>2014-02-21T06:18:22Z</time>
   </trkpt>
   <trkpt lat="32.6104090" lon="35.1075120">
    <ele>210.1</ele>
    <time>2014-02-21T06:18:23Z</time>
   </trkpt>
   <trkpt lat="32.6103770" lon="35.1075070">
    <ele>210.4</ele>
    <time>2014-02-21T06:18:24Z</time>
   </trkpt>
   <trkpt lat="32.6103430" lon="35.1075060">
    <ele>210.6</ele>
    <time>2014-02-21T06:18:25Z</time>
   </trkpt>
   <trkpt lat="32.6103100" lon="35.1075020">
    <ele>210.8</ele>
    <time>2014-02-21T06:18:26Z</time>
   </trkpt>
   <trkpt lat="32.6102770" lon="35.1074970">
    <ele>211.1</ele>
    <time>2014-02-21T06:18:27Z</time>
   </trkpt>
   <trkpt lat="32.6102440" lon="35.1074940">
    <ele>211.3</ele>
    <time>2014-02-21T06:18:28Z</time>
   </trkpt>
   <trkpt lat="32.6102110" lon="35.1074900">
    <ele>211.5</ele>
    <time>2014-02-21T06:18:29Z</time>
   </trkpt>
   <trkpt lat="32.6101790" lon="35.1074880">
    <ele>211.8</ele>
    <time>2014-02-21T06:18:30Z</time>
   </trkpt>
   <trkpt lat="32.6101480" lon="35.1074860">
    <ele>212.0</ele>
    <time>2014-02-21T06:18:31Z</time>
   </trkpt>
   <trkpt lat="32.6101150" lon="35.1074830">
    <ele>212.2</ele>
    <time>2014-02-21T06:18:32Z</time>
   </trkpt>
   <trkpt lat="32.6100820" lon="35.1074800">
    <ele>212.5</ele>
    <time>2014-02-21T06:18:33Z</time>
   </trkpt>
   <trkpt lat="32.6100520" lon="35.1074730">
    <ele>212.6</ele>
    <time>2014-02-21T06:18:34Z</time>
   </trkpt>
   <trkpt lat="32.6100250" lon="35.1074630">
    <ele>212.8</ele>
    <time>2014-02-21T06:18:35Z</time>
   </trkpt>
   <trkpt lat="32.6099850" lon="35.1074380">
    <ele>212.9</ele>
    <time>2014-02-21T06:18:37Z</time>
   </trkpt>
   <trkpt lat="32.6099560" lon="35.1074210">
    <ele>213.0</ele>
    <time>2014-02-21T06:18:39Z</time>
   </trkpt>
   <trkpt lat="32.6099230" lon="35.1073980">
    <ele>213.0</ele>
    <time>2014-02-21T06:18:42Z</time>
   </trkpt>
   <trkpt lat="32.6098970" lon="35.1073600">
    <ele>212.9</ele>
    <time>2014-02-21T06:18:45Z</time>
   </trkpt>
   <trkpt lat="32.6098780" lon="35.1073290">
    <ele>212.8</ele>
    <time>2014-02-21T06:18:47Z</time>
   </trkpt>
   <trkpt lat="32.6098540" lon="35.1073030">
    <ele>212.8</ele>
    <time>2014-02-21T06:18:49Z</time>
   </trkpt>
   <trkpt lat="32.6098280" lon="35.1072760">
    <ele>212.8</ele>
    <time>2014-02-21T06:18:51Z</time>
   </trkpt>
   <trkpt lat="32.6098040" lon="35.1072480">
    <ele>212.7</ele>
    <time>2014-02-21T06:18:53Z</time>
   </trkpt>
   <trkpt lat="32.6097760" lon="35.1072200">
    <ele>212.7</ele>
    <time>2014-02-21T06:18:55Z</time>
   </trkpt>
   <trkpt lat="32.6097480" lon="35.1071970">
    <ele>212.7</ele>
    <time>2014-02-21T06:18:57Z</time>
   </trkpt>
   <trkpt lat="32.6097250" lon="35.1071670">
    <ele>212.7</ele>
    <time>2014-02-21T06:18:59Z</time>
   </trkpt>
   <trkpt lat="32.6097030" lon="35.1071320">
    <ele>212.5</ele>
    <time>2014-02-21T06:19:01Z</time>
   </trkpt>
   <trkpt lat="32.6096810" lon="35.1070960">
    <ele>212.4</ele>
    <time>2014-02-21T06:19:03Z</time>
   </trkpt>
   <trkpt lat="32.6096560" lon="35.1070520">
    <ele>212.5</ele>
    <time>2014-02-21T06:19:05Z</time>
   </trkpt>
   <trkpt lat="32.6096300" lon="35.1070120">
    <ele>212.6</ele>
    <time>2014-02-21T06:19:07Z</time>
   </trkpt>
   <trkpt lat="32.6096040" lon="35.1069740">
    <ele>212.7</ele>
    <time>2014-02-21T06:19:09Z</time>
   </trkpt>
   <trkpt lat="32.6095750" lon="35.1069340">
    <ele>212.8</ele>
    <time>2014-02-21T06:19:11Z</time>
   </trkpt>
   <trkpt lat="32.6095530" lon="35.1068930">
    <ele>212.6</ele>
    <time>2014-02-21T06:19:13Z</time>
   </trkpt>
   <trkpt lat="32.6095330" lon="35.1068540">
    <ele>212.4</ele>
    <time>2014-02-21T06:19:15Z</time>
   </trkpt>
   <trkpt lat="32.6095160" lon="35.1068130">
    <ele>212.3</ele>
    <time>2014-02-21T06:19:17Z</time>
   </trkpt>
   <trkpt lat="32.6095030" lon="35.1067730">
    <ele>212.2</ele>
    <time>2014-02-21T06:19:19Z</time>
   </trkpt>
   <trkpt lat="32.6094810" lon="35.1067530">
    <ele>212.0</ele>
    <time>2014-02-21T06:19:21Z</time>
   </trkpt>
   <trkpt lat="32.6094920" lon="35.1067120">
    <ele>212.0</ele>
    <time>2014-02-21T06:19:25Z</time>
   </trkpt>
   <trkpt lat="32.6094790" lon="35.1067410">
    <ele>212.0</ele>
    <time>2014-02-21T06:19:37Z</time>
   </trkpt>
   <trkpt lat="32.6094520" lon="35.1067360">
    <ele>211.8</ele>
    <time>2014-02-21T06:19:57Z</time>
   </trkpt>
   <trkpt lat="32.6094510" lon="35.1066830">
    <ele>211.8</ele>
    <time>2014-02-21T06:20:00Z</time>
   </trkpt>
   <trkpt lat="32.6094470" lon="35.1066500">
    <ele>211.8</ele>
    <time>2014-02-21T06:20:01Z</time>
   </trkpt>
   <trkpt lat="32.6094410" lon="35.1066110">
    <ele>211.7</ele>
    <time>2014-02-21T06:20:02Z</time>
   </trkpt>
   <trkpt lat="32.6094320" lon="35.1065700">
    <ele>211.6</ele>
    <time>2014-02-21T06:20:03Z</time>
   </trkpt>
   <trkpt lat="32.6094230" lon="35.1065270">
    <ele>211.6</ele>
    <time>2014-02-21T06:20:04Z</time>
   </trkpt>
   <trkpt lat="32.6094140" lon="35.1064840">
    <ele>211.5</ele>
    <time>2014-02-21T06:20:05Z</time>
   </trkpt>
   <trkpt lat="32.6094070" lon="35.1064380">
    <ele>211.4</ele>
    <time>2014-02-21T06:20:06Z</time>
   </trkpt>
   <trkpt lat="32.6094000" lon="35.1063880">
    <ele>211.4</ele>
    <time>2014-02-21T06:20:07Z</time>
   </trkpt>
   <trkpt lat="32.6093910" lon="35.1063400">
    <ele>211.3</ele>
    <time>2014-02-21T06:20:08Z</time>
   </trkpt>
   <trkpt lat="32.6093830" lon="35.1062920">
    <ele>211.3</ele>
    <time>2014-02-21T06:20:09Z</time>
   </trkpt>
   <trkpt lat="32.6093770" lon="35.1062450">
    <ele>211.3</ele>
    <time>2014-02-21T06:20:10Z</time>
   </trkpt>
   <trkpt lat="32.6093720" lon="35.1061990">
    <ele>211.5</ele>
    <time>2014-02-21T06:20:11Z</time>
   </trkpt>
   <trkpt lat="32.6093670" lon="35.1061520">
    <ele>211.6</ele>
    <time>2014-02-21T06:20:12Z</time>
   </trkpt>
   <trkpt lat="32.6093590" lon="35.1061050">
    <ele>211.8</ele>
    <time>2014-02-21T06:20:13Z</time>
   </trkpt>
   <trkpt lat="32.6093490" lon="35.1060580">
    <ele>212.0</ele>
    <time>2014-02-21T06:20:14Z</time>
   </trkpt>
   <trkpt lat="32.6093370" lon="35.1060120">
    <ele>212.2</ele>
    <time>2014-02-21T06:20:15Z</time>
   </trkpt>
   <trkpt lat="32.6093260" lon="35.1059660">
    <ele>212.4</ele>
    <time>2014-02-21T06:20:16Z</time>
   </trkpt>
   <trkpt lat="32.6093130" lon="35.1059220">
    <ele>212.6</ele>
    <time>2014-02-21T06:20:17Z</time>
   </trkpt>
   <trkpt lat="32.6093000" lon="35.1058780">
    <ele>212.8</ele>
    <time>2014-02-21T06:20:18Z</time>
   </trkpt>
   <trkpt lat="32.6092860" lon="35.1058360">
    <ele>213.0</ele>
    <time>2014-02-21T06:20:19Z</time>
   </trkpt>
   <trkpt lat="32.6092700" lon="35.1057960">
    <ele>213.2</ele>
    <time>2014-02-21T06:20:20Z</time>
   </trkpt>
   <trkpt lat="32.6092570" lon="35.1057620">
    <ele>213.4</ele>
    <time>2014-02-21T06:20:21Z</time>
   </trkpt>
   <trkpt lat="32.6092440" lon="35.1057290">
    <ele>213.6</ele>
    <time>2014-02-21T06:20:22Z</time>
   </trkpt>
   <trkpt lat="32.6092300" lon="35.1056960">
    <ele>213.7</ele>
    <time>2014-02-21T06:20:23Z</time>
   </trkpt>
   <trkpt lat="32.6092140" lon="35.1056630">
    <ele>214.0</ele>
    <time>2014-02-21T06:20:24Z</time>
   </trkpt>
   <trkpt lat="32.6091970" lon="35.1056290">
    <ele>214.2</ele>
    <time>2014-02-21T06:20:25Z</time>
   </trkpt>
   <trkpt lat="32.6091790" lon="35.1055930">
    <ele>214.4</ele>
    <time>2014-02-21T06:20:26Z</time>
   </trkpt>
   <trkpt lat="32.6091610" lon="35.1055570">
    <ele>214.7</ele>
    <time>2014-02-21T06:20:27Z</time>
   </trkpt>
   <trkpt lat="32.6091450" lon="35.1055190">
    <ele>214.9</ele>
    <time>2014-02-21T06:20:28Z</time>
   </trkpt>
   <trkpt lat="32.6091290" lon="35.1054810">
    <ele>215.2</ele>
    <time>2014-02-21T06:20:29Z</time>
   </trkpt>
   <trkpt lat="32.6091130" lon="35.1054420">
    <ele>215.5</ele>
    <time>2014-02-21T06:20:30Z</time>
   </trkpt>
   <trkpt lat="32.6090960" lon="35.1054060">
    <ele>215.9</ele>
    <time>2014-02-21T06:20:31Z</time>
   </trkpt>
   <trkpt lat="32.6090730" lon="35.1053770">
    <ele>216.2</ele>
    <time>2014-02-21T06:20:32Z</time>
   </trkpt>
   <trkpt lat="32.6090420" lon="35.1053630">
    <ele>216.5</ele>
    <time>2014-02-21T06:20:33Z</time>
   </trkpt>
   <trkpt lat="32.6090060" lon="35.1053680">
    <ele>216.6</ele>
    <time>2014-02-21T06:20:34Z</time>
   </trkpt>
   <trkpt lat="32.6089700" lon="35.1053870">
    <ele>216.5</ele>
    <time>2014-02-21T06:20:35Z</time>
   </trkpt>
   <trkpt lat="32.6089360" lon="35.1053950">
    <ele>216.6</ele>
    <time>2014-02-21T06:20:36Z</time>
   </trkpt>
   <trkpt lat="32.6088910" lon="35.1054450">
    <ele>216.3</ele>
    <time>2014-02-21T06:20:37Z</time>
   </trkpt>
   <trkpt lat="32.6088380" lon="35.1055130">
    <ele>215.8</ele>
    <time>2014-02-21T06:20:38Z</time>
   </trkpt>
   <trkpt lat="32.6087990" lon="35.1055480">
    <ele>215.6</ele>
    <time>2014-02-21T06:20:39Z</time>
   </trkpt>
   <trkpt lat="32.6087620" lon="35.1055870">
    <ele>215.3</ele>
    <time>2014-02-21T06:20:40Z</time>
   </trkpt>
   <trkpt lat="32.6087220" lon="35.1056340">
    <ele>214.9</ele>
    <time>2014-02-21T06:20:41Z</time>
   </trkpt>
   <trkpt lat="32.6086780" lon="35.1056860">
    <ele>214.3</ele>
    <time>2014-02-21T06:20:42Z</time>
   </trkpt>
   <trkpt lat="32.6086350" lon="35.1057420">
    <ele>213.7</ele>
    <time>2014-02-21T06:20:43Z</time>
   </trkpt>
   <trkpt lat="32.6085850" lon="35.1058020">
    <ele>213.0</ele>
    <time>2014-02-21T06:20:44Z</time>
   </trkpt>
   <trkpt lat="32.6085320" lon="35.1058660">
    <ele>212.3</ele>
    <time>2014-02-21T06:20:45Z</time>
   </trkpt>
   <trkpt lat="32.6084810" lon="35.1059360">
    <ele>211.4</ele>
    <time>2014-02-21T06:20:46Z</time>
   </trkpt>
   <trkpt lat="32.6084230" lon="35.1060090">
    <ele>210.5</ele>
    <time>2014-02-21T06:20:47Z</time>
   </trkpt>
   <trkpt lat="32.6083590" lon="35.1060840">
    <ele>209.5</ele>
    <time>2014-02-21T06:20:48Z</time>
   </trkpt>
   <trkpt lat="32.6082990" lon="35.1061540">
    <ele>208.5</ele>
    <time>2014-02-21T06:20:49Z</time>
   </trkpt>
   <trkpt lat="32.6082350" lon="35.1062290">
    <ele>207.4</ele>
    <time>2014-02-21T06:20:50Z</time>
   </trkpt>
   <trkpt lat="32.6081700" lon="35.1063030">
    <ele>206.7</ele>
    <time>2014-02-21T06:20:51Z</time>
   </trkpt>
   <trkpt lat="32.6081040" lon="35.1063770">
    <ele>206.1</ele>
    <time>2014-02-21T06:20:52Z</time>
   </trkpt>
   <trkpt lat="32.6080340" lon="35.1064510">
    <ele>205.5</ele>
    <time>2014-02-21T06:20:53Z</time>
   </trkpt>
   <trkpt lat="32.6079710" lon="35.1065220">
    <ele>204.9</ele>
    <time>2014-02-21T06:20:54Z</time>
   </trkpt>
   <trkpt lat="32.6079000" lon="35.1065870">
    <ele>204.4</ele>
    <time>2014-02-21T06:20:55Z</time>
   </trkpt>
   <trkpt lat="32.6078210" lon="35.1066400">
    <ele>204.4</ele>
    <time>2014-02-21T06:20:56Z</time>
   </trkpt>
   <trkpt lat="32.6077430" lon="35.1066800">
    <ele>204.5</ele>
    <time>2014-02-21T06:20:57Z</time>
   </trkpt>
   <trkpt lat="32.6076610" lon="35.1067130">
    <ele>204.5</ele>
    <time>2014-02-21T06:20:58Z</time>
   </trkpt>
   <trkpt lat="32.6075810" lon="35.1067380">
    <ele>204.6</ele>
    <time>2014-02-21T06:20:59Z</time>
   </trkpt>
   <trkpt lat="32.6075000" lon="35.1067610">
    <ele>204.7</ele>
    <time>2014-02-21T06:21:00Z</time>
   </trkpt>
   <trkpt lat="32.6074170" lon="35.1068030">
    <ele>204.7</ele>
    <time>2014-02-21T06:21:01Z</time>
   </trkpt>
   <trkpt lat="32.6073410" lon="35.1068550">
    <ele>204.7</ele>
    <time>2014-02-21T06:21:02Z</time>
   </trkpt>
   <trkpt lat="32.6072560" lon="35.1068940">
    <ele>204.7</ele>
    <time>2014-02-21T06:21:03Z</time>
   </trkpt>
   <trkpt lat="32.6071710" lon="35.1069280">
    <ele>204.7</ele>
    <time>2014-02-21T06:21:04Z</time>
   </trkpt>
   <trkpt lat="32.6070890" lon="35.1069650">
    <ele>204.7</ele>
    <time>2014-02-21T06:21:05Z</time>
   </trkpt>
   <trkpt lat="32.6070100" lon="35.1070150">
    <ele>205.0</ele>
    <time>2014-02-21T06:21:06Z</time>
   </trkpt>
   <trkpt lat="32.6069420" lon="35.1070760">
    <ele>205.1</ele>
    <time>2014-02-21T06:21:07Z</time>
   </trkpt>
   <trkpt lat="32.6068870" lon="35.1071440">
    <ele>204.7</ele>
    <time>2014-02-21T06:21:08Z</time>
   </trkpt>
   <trkpt lat="32.6068420" lon="35.1072190">
    <ele>204.1</ele>
    <time>2014-02-21T06:21:09Z</time>
   </trkpt>
   <trkpt lat="32.6067920" lon="35.1072960">
    <ele>203.4</ele>
    <time>2014-02-21T06:21:10Z</time>
   </trkpt>
   <trkpt lat="32.6067470" lon="35.1073730">
    <ele>202.7</ele>
    <time>2014-02-21T06:21:11Z</time>
   </trkpt>
   <trkpt lat="32.6066880" lon="35.1074470">
    <ele>202.1</ele>
    <time>2014-02-21T06:21:12Z</time>
   </trkpt>
   <trkpt lat="32.6066160" lon="35.1075140">
    <ele>201.6</ele>
    <time>2014-02-21T06:21:13Z</time>
   </trkpt>
   <trkpt lat="32.6065420" lon="35.1075570">
    <ele>201.3</ele>
    <time>2014-02-21T06:21:14Z</time>
   </trkpt>
   <trkpt lat="32.6064670" lon="35.1075890">
    <ele>201.2</ele>
    <time>2014-02-21T06:21:15Z</time>
   </trkpt>
   <trkpt lat="32.6063980" lon="35.1076230">
    <ele>201.0</ele>
    <time>2014-02-21T06:21:16Z</time>
   </trkpt>
   <trkpt lat="32.6063460" lon="35.1076640">
    <ele>200.6</ele>
    <time>2014-02-21T06:21:17Z</time>
   </trkpt>
   <trkpt lat="32.6063040" lon="35.1077080">
    <ele>200.1</ele>
    <time>2014-02-21T06:21:18Z</time>
   </trkpt>
   <trkpt lat="32.6062830" lon="35.1077680">
    <ele>199.2</ele>
    <time>2014-02-21T06:21:19Z</time>
   </trkpt>
   <trkpt lat="32.6063090" lon="35.1078100">
    <ele>198.5</ele>
    <time>2014-02-21T06:21:20Z</time>
   </trkpt>
   <trkpt lat="32.6063400" lon="35.1078440">
    <ele>197.9</ele>
    <time>2014-02-21T06:21:21Z</time>
   </trkpt>
   <trkpt lat="32.6063750" lon="35.1078680">
    <ele>197.4</ele>
    <time>2014-02-21T06:21:22Z</time>
   </trkpt>
   <trkpt lat="32.6064060" lon="35.1078970">
    <ele>196.9</ele>
    <time>2014-02-21T06:21:23Z</time>
   </trkpt>
   <trkpt lat="32.6064380" lon="35.1079250">
    <ele>196.6</ele>
    <time>2014-02-21T06:21:24Z</time>
   </trkpt>
   <trkpt lat="32.6064660" lon="35.1079540">
    <ele>196.9</ele>
    <time>2014-02-21T06:21:25Z</time>
   </trkpt>
   <trkpt lat="32.6064950" lon="35.1079840">
    <ele>197.1</ele>
    <time>2014-02-21T06:21:26Z</time>
   </trkpt>
   <trkpt lat="32.6065220" lon="35.1080120">
    <ele>197.2</ele>
    <time>2014-02-21T06:21:27Z</time>
   </trkpt>
   <trkpt lat="32.6065450" lon="35.1080520">
    <ele>197.5</ele>
    <time>2014-02-21T06:21:28Z</time>
   </trkpt>
   <trkpt lat="32.6065690" lon="35.1080930">
    <ele>197.7</ele>
    <time>2014-02-21T06:21:29Z</time>
   </trkpt>
   <trkpt lat="32.6065940" lon="35.1081340">
    <ele>197.8</ele>
    <time>2014-02-21T06:21:30Z</time>
   </trkpt>
   <trkpt lat="32.6066150" lon="35.1081820">
    <ele>198.0</ele>
    <time>2014-02-21T06:21:31Z</time>
   </trkpt>
   <trkpt lat="32.6066280" lon="35.1082330">
    <ele>198.3</ele>
    <time>2014-02-21T06:21:32Z</time>
   </trkpt>
   <trkpt lat="32.6066380" lon="35.1082890">
    <ele>198.5</ele>
    <time>2014-02-21T06:21:33Z</time>
   </trkpt>
   <trkpt lat="32.6066430" lon="35.1083490">
    <ele>198.9</ele>
    <time>2014-02-21T06:21:34Z</time>
   </trkpt>
   <trkpt lat="32.6066490" lon="35.1084100">
    <ele>199.2</ele>
    <time>2014-02-21T06:21:35Z</time>
   </trkpt>
   <trkpt lat="32.6066580" lon="35.1084790">
    <ele>199.5</ele>
    <time>2014-02-21T06:21:36Z</time>
   </trkpt>
   <trkpt lat="32.6066720" lon="35.1085460">
    <ele>199.7</ele>
    <time>2014-02-21T06:21:37Z</time>
   </trkpt>
   <trkpt lat="32.6066930" lon="35.1086160">
    <ele>199.7</ele>
    <time>2014-02-21T06:21:38Z</time>
   </trkpt>
   <trkpt lat="32.6067180" lon="35.1086900">
    <ele>199.6</ele>
    <time>2014-02-21T06:21:39Z</time>
   </trkpt>
   <trkpt lat="32.6067450" lon="35.1087530">
    <ele>199.3</ele>
    <time>2014-02-21T06:21:40Z</time>
   </trkpt>
   <trkpt lat="32.6067740" lon="35.1088200">
    <ele>199.4</ele>
    <time>2014-02-21T06:21:41Z</time>
   </trkpt>
   <trkpt lat="32.6068070" lon="35.1088850">
    <ele>199.3</ele>
    <time>2014-02-21T06:21:42Z</time>
   </trkpt>
   <trkpt lat="32.6068380" lon="35.1089470">
    <ele>199.1</ele>
    <time>2014-02-21T06:21:43Z</time>
   </trkpt>
   <trkpt lat="32.6068730" lon="35.1089980">
    <ele>198.6</ele>
    <time>2014-02-21T06:21:44Z</time>
   </trkpt>
   <trkpt lat="32.6068990" lon="35.1090530">
    <ele>198.3</ele>
    <time>2014-02-21T06:21:45Z</time>
   </trkpt>
   <trkpt lat="32.6069120" lon="35.1090940">
    <ele>198.2</ele>
    <time>2014-02-21T06:21:46Z</time>
   </trkpt>
   <trkpt lat="32.6069120" lon="35.1091350">
    <ele>198.5</ele>
    <time>2014-02-21T06:21:47Z</time>
   </trkpt>
   <trkpt lat="32.6069170" lon="35.1091700">
    <ele>198.6</ele>
    <time>2014-02-21T06:21:49Z</time>
   </trkpt>
   <trkpt lat="32.6069120" lon="35.1092040">
    <ele>199.0</ele>
    <time>2014-02-21T06:21:53Z</time>
   </trkpt>
   <trkpt lat="32.6069010" lon="35.1092350">
    <ele>199.6</ele>
    <time>2014-02-21T06:21:56Z</time>
   </trkpt>
   <trkpt lat="32.6068860" lon="35.1092660">
    <ele>200.3</ele>
    <time>2014-02-21T06:21:59Z</time>
   </trkpt>
   <trkpt lat="32.6068700" lon="35.1092930">
    <ele>201.1</ele>
    <time>2014-02-21T06:22:02Z</time>
   </trkpt>
   <trkpt lat="32.6068870" lon="35.1093230">
    <ele>200.7</ele>
    <time>2014-02-21T06:22:05Z</time>
   </trkpt>
   <trkpt lat="32.6069140" lon="35.1092980">
    <ele>199.6</ele>
    <time>2014-02-21T06:22:08Z</time>
   </trkpt>
   <trkpt lat="32.6069310" lon="35.1092610">
    <ele>198.8</ele>
    <time>2014-02-21T06:22:11Z</time>
   </trkpt>
   <trkpt lat="32.6069120" lon="35.1092270">
    <ele>199.2</ele>
    <time>2014-02-21T06:22:14Z</time>
   </trkpt>
   <trkpt lat="32.6068650" lon="35.1092410">
    <ele>200.8</ele>
    <time>2014-02-21T06:22:16Z</time>
   </trkpt>
   <trkpt lat="32.6068340" lon="35.1092550">
    <ele>201.9</ele>
    <time>2014-02-21T06:22:17Z</time>
   </trkpt>
   <trkpt lat="32.6067950" lon="35.1092860">
    <ele>203.5</ele>
    <time>2014-02-21T06:22:19Z</time>
   </trkpt>
   <trkpt lat="32.6067870" lon="35.1093200">
    <ele>204.1</ele>
    <time>2014-02-21T06:22:22Z</time>
   </trkpt>
   <trkpt lat="32.6068150" lon="35.1093260">
    <ele>203.2</ele>
    <time>2014-02-21T06:22:26Z</time>
   </trkpt>
   <trkpt lat="32.6068330" lon="35.1092990">
    <ele>202.4</ele>
    <time>2014-02-21T06:22:30Z</time>
   </trkpt>
   <trkpt lat="32.6068680" lon="35.1092970">
    <ele>201.2</ele>
    <time>2014-02-21T06:22:32Z</time>
   </trkpt>
   <trkpt lat="32.6068920" lon="35.1093280">
    <ele>200.6</ele>
    <time>2014-02-21T06:22:34Z</time>
   </trkpt>
   <trkpt lat="32.6068960" lon="35.1093860">
    <ele>200.9</ele>
    <time>2014-02-21T06:22:36Z</time>
   </trkpt>
   <trkpt lat="32.6068960" lon="35.1094260">
    <ele>201.2</ele>
    <time>2014-02-21T06:22:37Z</time>
   </trkpt>
   <trkpt lat="32.6068950" lon="35.1094730">
    <ele>201.6</ele>
    <time>2014-02-21T06:22:38Z</time>
   </trkpt>
   <trkpt lat="32.6068920" lon="35.1095200">
    <ele>202.1</ele>
    <time>2014-02-21T06:22:39Z</time>
   </trkpt>
   <trkpt lat="32.6068870" lon="35.1095710">
    <ele>202.7</ele>
    <time>2014-02-21T06:22:40Z</time>
   </trkpt>
   <trkpt lat="32.6068790" lon="35.1096220">
    <ele>202.9</ele>
    <time>2014-02-21T06:22:41Z</time>
   </trkpt>
   <trkpt lat="32.6068690" lon="35.1096810">
    <ele>202.9</ele>
    <time>2014-02-21T06:22:42Z</time>
   </trkpt>
   <trkpt lat="32.6068510" lon="35.1097510">
    <ele>203.3</ele>
    <time>2014-02-21T06:22:43Z</time>
   </trkpt>
   <trkpt lat="32.6068370" lon="35.1098010">
    <ele>203.5</ele>
    <time>2014-02-21T06:22:44Z</time>
   </trkpt>
   <trkpt lat="32.6068240" lon="35.1098580">
    <ele>203.7</ele>
    <time>2014-02-21T06:22:45Z</time>
   </trkpt>
   <trkpt lat="32.6068110" lon="35.1099200">
    <ele>203.9</ele>
    <time>2014-02-21T06:22:46Z</time>
   </trkpt>
   <trkpt lat="32.6067980" lon="35.1099750">
    <ele>204.1</ele>
    <time>2014-02-21T06:22:47Z</time>
   </trkpt>
   <trkpt lat="32.6067850" lon="35.1100310">
    <ele>204.3</ele>
    <time>2014-02-21T06:22:48Z</time>
   </trkpt>
   <trkpt lat="32.6067660" lon="35.1100830">
    <ele>204.8</ele>
    <time>2014-02-21T06:22:49Z</time>
   </trkpt>
   <trkpt lat="32.6067500" lon="35.1101420">
    <ele>205.1</ele>
    <time>2014-02-21T06:22:50Z</time>
   </trkpt>
   <trkpt lat="32.6067360" lon="35.1101990">
    <ele>205.4</ele>
    <time>2014-02-21T06:22:51Z</time>
   </trkpt>
   <trkpt lat="32.6067260" lon="35.1102570">
    <ele>205.5</ele>
    <time>2014-02-21T06:22:52Z</time>
   </trkpt>
   <trkpt lat="32.6067170" lon="35.1103180">
    <ele>205.5</ele>
    <time>2014-02-21T06:22:53Z</time>
   </trkpt>
   <trkpt lat="32.6067050" lon="35.1103780">
    <ele>205.6</ele>
    <time>2014-02-21T06:22:54Z</time>
   </trkpt>
   <trkpt lat="32.6066930" lon="35.1104380">
    <ele>205.6</ele>
    <time>2014-02-21T06:22:55Z</time>
   </trkpt>
   <trkpt lat="32.6066750" lon="35.1104860">
    <ele>205.5</ele>
    <time>2014-02-21T06:22:56Z</time>
   </trkpt>
   <trkpt lat="32.6066580" lon="35.1105390">
    <ele>205.2</ele>
    <time>2014-02-21T06:22:57Z</time>
   </trkpt>
   <trkpt lat="32.6066320" lon="35.1105900">
    <ele>205.2</ele>
    <time>2014-02-21T06:22:58Z</time>
   </trkpt>
   <trkpt lat="32.6066080" lon="35.1106430">
    <ele>205.1</ele>
    <time>2014-02-21T06:22:59Z</time>
   </trkpt>
   <trkpt lat="32.6065820" lon="35.1106950">
    <ele>204.9</ele>
    <time>2014-02-21T06:23:00Z</time>
   </trkpt>
   <trkpt lat="32.6065570" lon="35.1107500">
    <ele>204.6</ele>
    <time>2014-02-21T06:23:01Z</time>
   </trkpt>
   <trkpt lat="32.6065430" lon="35.1108190">
    <ele>203.5</ele>
    <time>2014-02-21T06:23:02Z</time>
   </trkpt>
   <trkpt lat="32.6065290" lon="35.1108880">
    <ele>202.5</ele>
    <time>2014-02-21T06:23:03Z</time>
   </trkpt>
   <trkpt lat="32.6065150" lon="35.1109620">
    <ele>201.2</ele>
    <time>2014-02-21T06:23:04Z</time>
   </trkpt>
   <trkpt lat="32.6064950" lon="35.1110170">
    <ele>200.4</ele>
    <time>2014-02-21T06:23:05Z</time>
   </trkpt>
   <trkpt lat="32.6064780" lon="35.1110770">
    <ele>199.4</ele>
    <time>2014-02-21T06:23:06Z</time>
   </trkpt>
   <trkpt lat="32.6064540" lon="35.1111510">
    <ele>198.2</ele>
    <time>2014-02-21T06:23:07Z</time>
   </trkpt>
   <trkpt lat="32.6064280" lon="35.1112170">
    <ele>197.0</ele>
    <time>2014-02-21T06:23:08Z</time>
   </trkpt>
   <trkpt lat="32.6063990" lon="35.1112680">
    <ele>196.5</ele>
    <time>2014-02-21T06:23:09Z</time>
   </trkpt>
   <trkpt lat="32.6063660" lon="35.1113070">
    <ele>196.4</ele>
    <time>2014-02-21T06:23:10Z</time>
   </trkpt>
   <trkpt lat="32.6063340" lon="35.1113330">
    <ele>196.5</ele>
    <time>2014-02-21T06:23:11Z</time>
   </trkpt>
   <trkpt lat="32.6062880" lon="35.1113530">
    <ele>196.7</ele>
    <time>2014-02-21T06:23:13Z</time>
   </trkpt>
   <trkpt lat="32.6062610" lon="35.1113530">
    <ele>197.0</ele>
    <time>2014-02-21T06:23:14Z</time>
   </trkpt>
   <trkpt lat="32.6062320" lon="35.1113500">
    <ele>197.7</ele>
    <time>2014-02-21T06:23:15Z</time>
   </trkpt>
   <trkpt lat="32.6062050" lon="35.1113550">
    <ele>198.3</ele>
    <time>2014-02-21T06:23:16Z</time>
   </trkpt>
   <trkpt lat="32.6061770" lon="35.1113560">
    <ele>199.0</ele>
    <time>2014-02-21T06:23:17Z</time>
   </trkpt>
   <trkpt lat="32.6061480" lon="35.1113630">
    <ele>199.6</ele>
    <time>2014-02-21T06:23:18Z</time>
   </trkpt>
   <trkpt lat="32.6061180" lon="35.1113760">
    <ele>200.1</ele>
    <time>2014-02-21T06:23:19Z</time>
   </trkpt>
   <trkpt lat="32.6060860" lon="35.1113920">
    <ele>200.6</ele>
    <time>2014-02-21T06:23:20Z</time>
   </trkpt>
   <trkpt lat="32.6060520" lon="35.1114060">
    <ele>201.2</ele>
    <time>2014-02-21T06:23:21Z</time>
   </trkpt>
   <trkpt lat="32.6060270" lon="35.1114380">
    <ele>201.3</ele>
    <time>2014-02-21T06:23:22Z</time>
   </trkpt>
   <trkpt lat="32.6059980" lon="35.1114690">
    <ele>201.4</ele>
    <time>2014-02-21T06:23:23Z</time>
   </trkpt>
   <trkpt lat="32.6059730" lon="35.1115040">
    <ele>201.3</ele>
    <time>2014-02-21T06:23:24Z</time>
   </trkpt>
   <trkpt lat="32.6059500" lon="35.1115390">
    <ele>201.2</ele>
    <time>2014-02-21T06:23:25Z</time>
   </trkpt>
   <trkpt lat="32.6059250" lon="35.1115740">
    <ele>201.1</ele>
    <time>2014-02-21T06:23:26Z</time>
   </trkpt>
   <trkpt lat="32.6059000" lon="35.1116110">
    <ele>201.0</ele>
    <time>2014-02-21T06:23:27Z</time>
   </trkpt>
   <trkpt lat="32.6058750" lon="35.1116490">
    <ele>200.9</ele>
    <time>2014-02-21T06:23:28Z</time>
   </trkpt>
   <trkpt lat="32.6058490" lon="35.1116860">
    <ele>200.7</ele>
    <time>2014-02-21T06:23:29Z</time>
   </trkpt>
   <trkpt lat="32.6058220" lon="35.1117240">
    <ele>200.6</ele>
    <time>2014-02-21T06:23:30Z</time>
   </trkpt>
   <trkpt lat="32.6057960" lon="35.1117630">
    <ele>200.4</ele>
    <time>2014-02-21T06:23:31Z</time>
   </trkpt>
   <trkpt lat="32.6057710" lon="35.1118040">
    <ele>200.1</ele>
    <time>2014-02-21T06:23:32Z</time>
   </trkpt>
   <trkpt lat="32.6057440" lon="35.1118440">
    <ele>199.9</ele>
    <time>2014-02-21T06:23:33Z</time>
   </trkpt>
   <trkpt lat="32.6057190" lon="35.1118860">
    <ele>199.6</ele>
    <time>2014-02-21T06:23:34Z</time>
   </trkpt>
   <trkpt lat="32.6056790" lon="35.1119550">
    <ele>199.1</ele>
    <time>2014-02-21T06:23:35Z</time>
   </trkpt>
   <trkpt lat="32.6056430" lon="35.1120080">
    <ele>198.7</ele>
    <time>2014-02-21T06:23:36Z</time>
   </trkpt>
   <trkpt lat="32.6056070" lon="35.1120460">
    <ele>198.7</ele>
    <time>2014-02-21T06:23:37Z</time>
   </trkpt>
   <trkpt lat="32.6055760" lon="35.1120930">
    <ele>198.5</ele>
    <time>2014-02-21T06:23:38Z</time>
   </trkpt>
   <trkpt lat="32.6055530" lon="35.1121410">
    <ele>198.6</ele>
    <time>2014-02-21T06:23:39Z</time>
   </trkpt>
   <trkpt lat="32.6055250" lon="35.1122020">
    <ele>198.7</ele>
    <time>2014-02-21T06:23:40Z</time>
   </trkpt>
   <trkpt lat="32.6054980" lon="35.1122530">
    <ele>198.8</ele>
    <time>2014-02-21T06:23:41Z</time>
   </trkpt>
   <trkpt lat="32.6054780" lon="35.1123060">
    <ele>198.7</ele>
    <time>2014-02-21T06:23:42Z</time>
   </trkpt>
   <trkpt lat="32.6054640" lon="35.1123460">
    <ele>198.6</ele>
    <time>2014-02-21T06:23:43Z</time>
   </trkpt>
   <trkpt lat="32.6054500" lon="35.1123910">
    <ele>198.5</ele>
    <time>2014-02-21T06:23:44Z</time>
   </trkpt>
   <trkpt lat="32.6054290" lon="35.1124350">
    <ele>198.4</ele>
    <time>2014-02-21T06:23:45Z</time>
   </trkpt>
   <trkpt lat="32.6054050" lon="35.1124890">
    <ele>198.5</ele>
    <time>2014-02-21T06:23:46Z</time>
   </trkpt>
   <trkpt lat="32.6053810" lon="35.1125380">
    <ele>198.9</ele>
    <time>2014-02-21T06:23:47Z</time>
   </trkpt>
   <trkpt lat="32.6053640" lon="35.1125880">
    <ele>199.0</ele>
    <time>2014-02-21T06:23:48Z</time>
   </trkpt>
   <trkpt lat="32.6053480" lon="35.1126350">
    <ele>199.1</ele>
    <time>2014-02-21T06:23:49Z</time>
   </trkpt>
   <trkpt lat="32.6053330" lon="35.1126790">
    <ele>199.2</ele>
    <time>2014-02-21T06:23:50Z</time>
   </trkpt>
   <trkpt lat="32.6053230" lon="35.1127270">
    <ele>199.1</ele>
    <time>2014-02-21T06:23:51Z</time>
   </trkpt>
   <trkpt lat="32.6053130" lon="35.1127740">
    <ele>198.9</ele>
    <time>2014-02-21T06:23:52Z</time>
   </trkpt>
   <trkpt lat="32.6053070" lon="35.1128200">
    <ele>198.7</ele>
    <time>2014-02-21T06:23:53Z</time>
   </trkpt>
   <trkpt lat="32.6053000" lon="35.1128730">
    <ele>198.4</ele>
    <time>2014-02-21T06:23:54Z</time>
   </trkpt>
   <trkpt lat="32.6052890" lon="35.1129340">
    <ele>198.2</ele>
    <time>2014-02-21T06:23:55Z</time>
   </trkpt>
   <trkpt lat="32.6052750" lon="35.1130040">
    <ele>198.2</ele>
    <time>2014-02-21T06:23:56Z</time>
   </trkpt>
   <trkpt lat="32.6052650" lon="35.1130700">
    <ele>198.1</ele>
    <time>2014-02-21T06:23:57Z</time>
   </trkpt>
   <trkpt lat="32.6052540" lon="35.1131340">
    <ele>198.0</ele>
    <time>2014-02-21T06:23:58Z</time>
   </trkpt>
   <trkpt lat="32.6052470" lon="35.1132030">
    <ele>197.8</ele>
    <time>2014-02-21T06:23:59Z</time>
   </trkpt>
   <trkpt lat="32.6052460" lon="35.1132640">
    <ele>197.4</ele>
    <time>2014-02-21T06:24:00Z</time>
   </trkpt>
   <trkpt lat="32.6052390" lon="35.1133230">
    <ele>197.2</ele>
    <time>2014-02-21T06:24:01Z</time>
   </trkpt>
   <trkpt lat="32.6052350" lon="35.1133750">
    <ele>197.0</ele>
    <time>2014-02-21T06:24:02Z</time>
   </trkpt>
   <trkpt lat="32.6052260" lon="35.1134320">
    <ele>196.9</ele>
    <time>2014-02-21T06:24:03Z</time>
   </trkpt>
   <trkpt lat="32.6052230" lon="35.1134940">
    <ele>196.6</ele>
    <time>2014-02-21T06:24:04Z</time>
   </trkpt>
   <trkpt lat="32.6052210" lon="35.1135600">
    <ele>196.2</ele>
    <time>2014-02-21T06:24:05Z</time>
   </trkpt>
   <trkpt lat="32.6052190" lon="35.1136150">
    <ele>195.9</ele>
    <time>2014-02-21T06:24:06Z</time>
   </trkpt>
   <trkpt lat="32.6052080" lon="35.1136940">
    <ele>195.6</ele>
    <time>2014-02-21T06:24:07Z</time>
   </trkpt>
   <trkpt lat="32.6052000" lon="35.1137670">
    <ele>195.4</ele>
    <time>2014-02-21T06:24:08Z</time>
   </trkpt>
   <trkpt lat="32.6051940" lon="35.1138340">
    <ele>195.0</ele>
    <time>2014-02-21T06:24:09Z</time>
   </trkpt>
   <trkpt lat="32.6051860" lon="35.1138980">
    <ele>194.7</ele>
    <time>2014-02-21T06:24:10Z</time>
   </trkpt>
   <trkpt lat="32.6051840" lon="35.1139570">
    <ele>194.3</ele>
    <time>2014-02-21T06:24:11Z</time>
   </trkpt>
   <trkpt lat="32.6051750" lon="35.1140060">
    <ele>194.1</ele>
    <time>2014-02-21T06:24:12Z</time>
   </trkpt>
   <trkpt lat="32.6051580" lon="35.1140730">
    <ele>194.0</ele>
    <time>2014-02-21T06:24:13Z</time>
   </trkpt>
   <trkpt lat="32.6051500" lon="35.1141330">
    <ele>193.7</ele>
    <time>2014-02-21T06:24:14Z</time>
   </trkpt>
   <trkpt lat="32.6051360" lon="35.1141920">
    <ele>193.5</ele>
    <time>2014-02-21T06:24:15Z</time>
   </trkpt>
   <trkpt lat="32.6051240" lon="35.1142500">
    <ele>193.3</ele>
    <time>2014-02-21T06:24:16Z</time>
   </trkpt>
   <trkpt lat="32.6051200" lon="35.1143060">
    <ele>192.9</ele>
    <time>2014-02-21T06:24:17Z</time>
   </trkpt>
   <trkpt lat="32.6051120" lon="35.1143710">
    <ele>192.5</ele>
    <time>2014-02-21T06:24:18Z</time>
   </trkpt>
   <trkpt lat="32.6051050" lon="35.1144310">
    <ele>192.1</ele>
    <time>2014-02-21T06:24:19Z</time>
   </trkpt>
   <trkpt lat="32.6050990" lon="35.1144990">
    <ele>191.6</ele>
    <time>2014-02-21T06:24:20Z</time>
   </trkpt>
   <trkpt lat="32.6050900" lon="35.1145750">
    <ele>191.1</ele>
    <time>2014-02-21T06:24:21Z</time>
   </trkpt>
   <trkpt lat="32.6050780" lon="35.1146390">
    <ele>190.4</ele>
    <time>2014-02-21T06:24:22Z</time>
   </trkpt>
   <trkpt lat="32.6050610" lon="35.1147010">
    <ele>189.7</ele>
    <time>2014-02-21T06:24:23Z</time>
   </trkpt>
   <trkpt lat="32.6050400" lon="35.1147550">
    <ele>189.2</ele>
    <time>2014-02-21T06:24:24Z</time>
   </trkpt>
   <trkpt lat="32.6050190" lon="35.1148120">
    <ele>188.6</ele>
    <time>2014-02-21T06:24:25Z</time>
   </trkpt>
   <trkpt lat="32.6049960" lon="35.1148560">
    <ele>188.3</ele>
    <time>2014-02-21T06:24:26Z</time>
   </trkpt>
   <trkpt lat="32.6049570" lon="35.1148960">
    <ele>188.4</ele>
    <time>2014-02-21T06:24:27Z</time>
   </trkpt>
   <trkpt lat="32.6049230" lon="35.1149340">
    <ele>188.4</ele>
    <time>2014-02-21T06:24:28Z</time>
   </trkpt>
   <trkpt lat="32.6048860" lon="35.1149590">
    <ele>188.6</ele>
    <time>2014-02-21T06:24:29Z</time>
   </trkpt>
   <trkpt lat="32.6048460" lon="35.1149890">
    <ele>188.8</ele>
    <time>2014-02-21T06:24:30Z</time>
   </trkpt>
   <trkpt lat="32.6048140" lon="35.1150280">
    <ele>188.7</ele>
    <time>2014-02-21T06:24:31Z</time>
   </trkpt>
   <trkpt lat="32.6047700" lon="35.1150510">
    <ele>189.1</ele>
    <time>2014-02-21T06:24:32Z</time>
   </trkpt>
   <trkpt lat="32.6047370" lon="35.1150780">
    <ele>189.1</ele>
    <time>2014-02-21T06:24:33Z</time>
   </trkpt>
   <trkpt lat="32.6047040" lon="35.1150960">
    <ele>189.4</ele>
    <time>2014-02-21T06:24:34Z</time>
   </trkpt>
   <trkpt lat="32.6046700" lon="35.1151210">
    <ele>189.5</ele>
    <time>2014-02-21T06:24:35Z</time>
   </trkpt>
   <trkpt lat="32.6046450" lon="35.1151390">
    <ele>189.6</ele>
    <time>2014-02-21T06:24:36Z</time>
   </trkpt>
   <trkpt lat="32.6046120" lon="35.1151600">
    <ele>189.7</ele>
    <time>2014-02-21T06:24:37Z</time>
   </trkpt>
   <trkpt lat="32.6045810" lon="35.1151830">
    <ele>189.8</ele>
    <time>2014-02-21T06:24:38Z</time>
   </trkpt>
   <trkpt lat="32.6045540" lon="35.1151980">
    <ele>189.4</ele>
    <time>2014-02-21T06:24:39Z</time>
   </trkpt>
   <trkpt lat="32.6045200" lon="35.1152100">
    <ele>189.1</ele>
    <time>2014-02-21T06:24:40Z</time>
   </trkpt>
   <trkpt lat="32.6044850" lon="35.1152260">
    <ele>188.7</ele>
    <time>2014-02-21T06:24:41Z</time>
   </trkpt>
   <trkpt lat="32.6044440" lon="35.1152330">
    <ele>188.5</ele>
    <time>2014-02-21T06:24:42Z</time>
   </trkpt>
   <trkpt lat="32.6044050" lon="35.1152420">
    <ele>188.3</ele>
    <time>2014-02-21T06:24:43Z</time>
   </trkpt>
   <trkpt lat="32.6043630" lon="35.1152460">
    <ele>188.2</ele>
    <time>2014-02-21T06:24:44Z</time>
   </trkpt>
   <trkpt lat="32.6043230" lon="35.1152460">
    <ele>188.1</ele>
    <time>2014-02-21T06:24:45Z</time>
   </trkpt>
   <trkpt lat="32.6042830" lon="35.1152440">
    <ele>188.1</ele>
    <time>2014-02-21T06:24:46Z</time>
   </trkpt>
   <trkpt lat="32.6042440" lon="35.1152380">
    <ele>188.2</ele>
    <time>2014-02-21T06:24:47Z</time>
   </trkpt>
   <trkpt lat="32.6042070" lon="35.1152330">
    <ele>188.2</ele>
    <time>2014-02-21T06:24:48Z</time>
   </trkpt>
   <trkpt lat="32.6041700" lon="35.1152270">
    <ele>188.3</ele>
    <time>2014-02-21T06:24:49Z</time>
   </trkpt>
   <trkpt lat="32.6041350" lon="35.1152230">
    <ele>188.3</ele>
    <time>2014-02-21T06:24:50Z</time>
   </trkpt>
   <trkpt lat="32.6041010" lon="35.1152200">
    <ele>188.3</ele>
    <time>2014-02-21T06:24:51Z</time>
   </trkpt>
   <trkpt lat="32.6040710" lon="35.1152190">
    <ele>188.3</ele>
    <time>2014-02-21T06:24:52Z</time>
   </trkpt>
   <trkpt lat="32.6040410" lon="35.1152180">
    <ele>188.2</ele>
    <time>2014-02-21T06:24:53Z</time>
   </trkpt>
   <trkpt lat="32.6040100" lon="35.1152190">
    <ele>188.2</ele>
    <time>2014-02-21T06:24:54Z</time>
   </trkpt>
   <trkpt lat="32.6039770" lon="35.1152190">
    <ele>188.1</ele>
    <time>2014-02-21T06:24:55Z</time>
   </trkpt>
   <trkpt lat="32.6039430" lon="35.1152180">
    <ele>188.1</ele>
    <time>2014-02-21T06:24:56Z</time>
   </trkpt>
   <trkpt lat="32.6039080" lon="35.1152160">
    <ele>188.1</ele>
    <time>2014-02-21T06:24:57Z</time>
   </trkpt>
   <trkpt lat="32.6038710" lon="35.1152180">
    <ele>188.0</ele>
    <time>2014-02-21T06:24:58Z</time>
   </trkpt>
   <trkpt lat="32.6038330" lon="35.1152220">
    <ele>187.9</ele>
    <time>2014-02-21T06:24:59Z</time>
   </trkpt>
   <trkpt lat="32.6037950" lon="35.1152240">
    <ele>187.8</ele>
    <time>2014-02-21T06:25:00Z</time>
   </trkpt>
   <trkpt lat="32.6037580" lon="35.1152250">
    <ele>187.7</ele>
    <time>2014-02-21T06:25:01Z</time>
   </trkpt>
   <trkpt lat="32.6037210" lon="35.1152240">
    <ele>187.6</ele>
    <time>2014-02-21T06:25:02Z</time>
   </trkpt>
   <trkpt lat="32.6036850" lon="35.1152220">
    <ele>187.6</ele>
    <time>2014-02-21T06:25:03Z</time>
   </trkpt>
   <trkpt lat="32.6036480" lon="35.1152180">
    <ele>187.5</ele>
    <time>2014-02-21T06:25:04Z</time>
   </trkpt>
   <trkpt lat="32.6036120" lon="35.1152130">
    <ele>187.5</ele>
    <time>2014-02-21T06:25:05Z</time>
   </trkpt>
   <trkpt lat="32.6035750" lon="35.1152090">
    <ele>187.5</ele>
    <time>2014-02-21T06:25:06Z</time>
   </trkpt>
   <trkpt lat="32.6035370" lon="35.1152060">
    <ele>187.4</ele>
    <time>2014-02-21T06:25:07Z</time>
   </trkpt>
   <trkpt lat="32.6035000" lon="35.1152030">
    <ele>187.3</ele>
    <time>2014-02-21T06:25:08Z</time>
   </trkpt>
   <trkpt lat="32.6034650" lon="35.1152010">
    <ele>187.3</ele>
    <time>2014-02-21T06:25:09Z</time>
   </trkpt>
   <trkpt lat="32.6034340" lon="35.1151950">
    <ele>187.2</ele>
    <time>2014-02-21T06:25:10Z</time>
   </trkpt>
   <trkpt lat="32.6033890" lon="35.1151900">
    <ele>187.2</ele>
    <time>2014-02-21T06:25:12Z</time>
   </trkpt>
   <trkpt lat="32.6033470" lon="35.1151910">
    <ele>187.0</ele>
    <time>2014-02-21T06:25:14Z</time>
   </trkpt>
   <trkpt lat="32.6033170" lon="35.1151830">
    <ele>187.0</ele>
    <time>2014-02-21T06:25:16Z</time>
   </trkpt>
   <trkpt lat="32.6032940" lon="35.1151660">
    <ele>187.2</ele>
    <time>2014-02-21T06:25:18Z</time>
   </trkpt>
   <trkpt lat="32.6032630" lon="35.1151840">
    <ele>186.8</ele>
    <time>2014-02-21T06:25:24Z</time>
   </trkpt>
   <trkpt lat="32.6032450" lon="35.1152220">
    <ele>186.3</ele>
    <time>2014-02-21T06:25:27Z</time>
   </trkpt>
   <trkpt lat="32.6032250" lon="35.1152720">
    <ele>185.7</ele>
    <time>2014-02-21T06:25:29Z</time>
   </trkpt>
   <trkpt lat="32.6032100" lon="35.1153030">
    <ele>185.3</ele>
    <time>2014-02-21T06:25:30Z</time>
   </trkpt>
   <trkpt lat="32.6031980" lon="35.1153350">
    <ele>184.9</ele>
    <time>2014-02-21T06:25:31Z</time>
   </trkpt>
   <trkpt lat="32.6031900" lon="35.1153700">
    <ele>184.5</ele>
    <time>2014-02-21T06:25:32Z</time>
   </trkpt>
   <trkpt lat="32.6031840" lon="35.1154010">
    <ele>184.2</ele>
    <time>2014-02-21T06:25:33Z</time>
   </trkpt>
   <trkpt lat="32.6031660" lon="35.1154620">
    <ele>184.0</ele>
    <time>2014-02-21T06:25:35Z</time>
   </trkpt>
   <trkpt lat="32.6031560" lon="35.1154920">
    <ele>183.9</ele>
    <time>2014-02-21T06:25:36Z</time>
   </trkpt>
   <trkpt lat="32.6031330" lon="35.1155460">
    <ele>183.9</ele>
    <time>2014-02-21T06:25:38Z</time>
   </trkpt>
   <trkpt lat="32.6031030" lon="35.1155880">
    <ele>183.8</ele>
    <time>2014-02-21T06:25:40Z</time>
   </trkpt>
   <trkpt lat="32.6030670" lon="35.1156120">
    <ele>183.7</ele>
    <time>2014-02-21T06:25:42Z</time>
   </trkpt>
   <trkpt lat="32.6030300" lon="35.1156310">
    <ele>183.6</ele>
    <time>2014-02-21T06:25:44Z</time>
   </trkpt>
   <trkpt lat="32.6029840" lon="35.1156320">
    <ele>183.6</ele>
    <time>2014-02-21T06:25:46Z</time>
   </trkpt>
   <trkpt lat="32.6029570" lon="35.1156280">
    <ele>183.5</ele>
    <time>2014-02-21T06:25:47Z</time>
   </trkpt>
   <trkpt lat="32.6029070" lon="35.1156200">
    <ele>183.7</ele>
    <time>2014-02-21T06:25:49Z</time>
   </trkpt>
   <trkpt lat="32.6028570" lon="35.1156230">
    <ele>184.5</ele>
    <time>2014-02-21T06:25:51Z</time>
   </trkpt>
   <trkpt lat="32.6028080" lon="35.1156290">
    <ele>185.3</ele>
    <time>2014-02-21T06:25:53Z</time>
   </trkpt>
   <trkpt lat="32.6027540" lon="35.1156390">
    <ele>186.1</ele>
    <time>2014-02-21T06:25:55Z</time>
   </trkpt>
   <trkpt lat="32.6027270" lon="35.1156510">
    <ele>186.5</ele>
    <time>2014-02-21T06:25:56Z</time>
   </trkpt>
   <trkpt lat="32.6026990" lon="35.1156610">
    <ele>186.9</ele>
    <time>2014-02-21T06:25:57Z</time>
   </trkpt>
   <trkpt lat="32.6026710" lon="35.1156720">
    <ele>187.3</ele>
    <time>2014-02-21T06:25:58Z</time>
   </trkpt>
   <trkpt lat="32.6026440" lon="35.1156860">
    <ele>187.6</ele>
    <time>2014-02-21T06:25:59Z</time>
   </trkpt>
   <trkpt lat="32.6026190" lon="35.1157030">
    <ele>187.9</ele>
    <time>2014-02-21T06:26:00Z</time>
   </trkpt>
   <trkpt lat="32.6025750" lon="35.1157310">
    <ele>188.4</ele>
    <time>2014-02-21T06:26:02Z</time>
   </trkpt>
   <trkpt lat="32.6025410" lon="35.1157490">
    <ele>188.8</ele>
    <time>2014-02-21T06:26:04Z</time>
   </trkpt>
   <trkpt lat="32.6025010" lon="35.1157640">
    <ele>189.3</ele>
    <time>2014-02-21T06:26:06Z</time>
   </trkpt>
   <trkpt lat="32.6024640" lon="35.1157740">
    <ele>189.7</ele>
    <time>2014-02-21T06:26:08Z</time>
   </trkpt>
   <trkpt lat="32.6024320" lon="35.1157850">
    <ele>190.1</ele>
    <time>2014-02-21T06:26:10Z</time>
   </trkpt>
   <trkpt lat="32.6023940" lon="35.1158020">
    <ele>190.5</ele>
    <time>2014-02-21T06:26:12Z</time>
   </trkpt>
   <trkpt lat="32.6023610" lon="35.1158120">
    <ele>190.9</ele>
    <time>2014-02-21T06:26:14Z</time>
   </trkpt>
   <trkpt lat="32.6023290" lon="35.1158170">
    <ele>191.3</ele>
    <time>2014-02-21T06:26:16Z</time>
   </trkpt>
   <trkpt lat="32.6022960" lon="35.1158270">
    <ele>191.6</ele>
    <time>2014-02-21T06:26:18Z</time>
   </trkpt>
   <trkpt lat="32.6022500" lon="35.1158450">
    <ele>192.1</ele>
    <time>2014-02-21T06:26:20Z</time>
   </trkpt>
   <trkpt lat="32.6022250" lon="35.1158580">
    <ele>192.3</ele>
    <time>2014-02-21T06:26:21Z</time>
   </trkpt>
   <trkpt lat="32.6021990" lon="35.1158730">
    <ele>192.4</ele>
    <time>2014-02-21T06:26:22Z</time>
   </trkpt>
   <trkpt lat="32.6021740" lon="35.1158860">
    <ele>192.6</ele>
    <time>2014-02-21T06:26:23Z</time>
   </trkpt>
   <trkpt lat="32.6021300" lon="35.1159120">
    <ele>192.9</ele>
    <time>2014-02-21T06:26:25Z</time>
   </trkpt>
   <trkpt lat="32.6021030" lon="35.1159270">
    <ele>193.0</ele>
    <time>2014-02-21T06:26:26Z</time>
   </trkpt>
   <trkpt lat="32.6020760" lon="35.1159400">
    <ele>193.3</ele>
    <time>2014-02-21T06:26:27Z</time>
   </trkpt>
   <trkpt lat="32.6020500" lon="35.1159530">
    <ele>193.9</ele>
    <time>2014-02-21T06:26:28Z</time>
   </trkpt>
   <trkpt lat="32.6020240" lon="35.1159680">
    <ele>194.5</ele>
    <time>2014-02-21T06:26:29Z</time>
   </trkpt>
   <trkpt lat="32.6019980" lon="35.1159840">
    <ele>195.1</ele>
    <time>2014-02-21T06:26:30Z</time>
   </trkpt>
   <trkpt lat="32.6019740" lon="35.1160050">
    <ele>195.5</ele>
    <time>2014-02-21T06:26:31Z</time>
   </trkpt>
   <trkpt lat="32.6019510" lon="35.1160260">
    <ele>195.9</ele>
    <time>2014-02-21T06:26:32Z</time>
   </trkpt>
   <trkpt lat="32.6019280" lon="35.1160500">
    <ele>196.3</ele>
    <time>2014-02-21T06:26:33Z</time>
   </trkpt>
   <trkpt lat="32.6019060" lon="35.1160760">
    <ele>196.6</ele>
    <time>2014-02-21T06:26:34Z</time>
   </trkpt>
   <trkpt lat="32.6018770" lon="35.1161130">
    <ele>196.9</ele>
    <time>2014-02-21T06:26:35Z</time>
   </trkpt>
   <trkpt lat="32.6018440" lon="35.1161510">
    <ele>197.3</ele>
    <time>2014-02-21T06:26:36Z</time>
   </trkpt>
   <trkpt lat="32.6018140" lon="35.1161830">
    <ele>197.7</ele>
    <time>2014-02-21T06:26:37Z</time>
   </trkpt>
   <trkpt lat="32.6017840" lon="35.1162120">
    <ele>198.2</ele>
    <time>2014-02-21T06:26:38Z</time>
   </trkpt>
   <trkpt lat="32.6017570" lon="35.1162410">
    <ele>198.5</ele>
    <time>2014-02-21T06:26:39Z</time>
   </trkpt>
   <trkpt lat="32.6017340" lon="35.1162610">
    <ele>199.0</ele>
    <time>2014-02-21T06:26:40Z</time>
   </trkpt>
   <trkpt lat="32.6017100" lon="35.1162800">
    <ele>199.5</ele>
    <time>2014-02-21T06:26:41Z</time>
   </trkpt>
   <trkpt lat="32.6016850" lon="35.1162980">
    <ele>200.1</ele>
    <time>2014-02-21T06:26:42Z</time>
   </trkpt>
   <trkpt lat="32.6016610" lon="35.1163180">
    <ele>200.6</ele>
    <time>2014-02-21T06:26:43Z</time>
   </trkpt>
   <trkpt lat="32.6016410" lon="35.1163410">
    <ele>201.0</ele>
    <time>2014-02-21T06:26:44Z</time>
   </trkpt>
   <trkpt lat="32.6016040" lon="35.1163790">
    <ele>201.6</ele>
    <time>2014-02-21T06:26:46Z</time>
   </trkpt>
   <trkpt lat="32.6015730" lon="35.1164080">
    <ele>202.1</ele>
    <time>2014-02-21T06:26:48Z</time>
   </trkpt>
   <trkpt lat="32.6015380" lon="35.1164320">
    <ele>202.8</ele>
    <time>2014-02-21T06:26:50Z</time>
   </trkpt>
   <trkpt lat="32.6015010" lon="35.1164480">
    <ele>203.5</ele>
    <time>2014-02-21T06:26:52Z</time>
   </trkpt>
   <trkpt lat="32.6014680" lon="35.1164650">
    <ele>204.1</ele>
    <time>2014-02-21T06:26:54Z</time>
   </trkpt>
   <trkpt lat="32.6014500" lon="35.1164900">
    <ele>204.2</ele>
    <time>2014-02-21T06:26:57Z</time>
   </trkpt>
   <trkpt lat="32.6014390" lon="35.1165200">
    <ele>204.1</ele>
    <time>2014-02-21T06:27:00Z</time>
   </trkpt>
   <trkpt lat="32.6014150" lon="35.1165410">
    <ele>204.4</ele>
    <time>2014-02-21T06:27:02Z</time>
   </trkpt>
   <trkpt lat="32.6013880" lon="35.1165510">
    <ele>204.9</ele>
    <time>2014-02-21T06:27:03Z</time>
   </trkpt>
   <trkpt lat="32.6013600" lon="35.1165590">
    <ele>205.4</ele>
    <time>2014-02-21T06:27:04Z</time>
   </trkpt>
   <trkpt lat="32.6013330" lon="35.1165730">
    <ele>205.8</ele>
    <time>2014-02-21T06:27:05Z</time>
   </trkpt>
   <trkpt lat="32.6013090" lon="35.1165970">
    <ele>205.9</ele>
    <time>2014-02-21T06:27:06Z</time>
   </trkpt>
   <trkpt lat="32.6012890" lon="35.1166270">
    <ele>205.9</ele>
    <time>2014-02-21T06:27:07Z</time>
   </trkpt>
   <trkpt lat="32.6012720" lon="35.1166600">
    <ele>205.7</ele>
    <time>2014-02-21T06:27:08Z</time>
   </trkpt>
   <trkpt lat="32.6012570" lon="35.1166940">
    <ele>205.4</ele>
    <time>2014-02-21T06:27:09Z</time>
   </trkpt>
   <trkpt lat="32.6012430" lon="35.1167270">
    <ele>205.2</ele>
    <time>2014-02-21T06:27:10Z</time>
   </trkpt>
   <trkpt lat="32.6012270" lon="35.1167600">
    <ele>205.0</ele>
    <time>2014-02-21T06:27:11Z</time>
   </trkpt>
   <trkpt lat="32.6012070" lon="35.1167890">
    <ele>205.0</ele>
    <time>2014-02-21T06:27:12Z</time>
   </trkpt>
   <trkpt lat="32.6011870" lon="35.1168190">
    <ele>205.0</ele>
    <time>2014-02-21T06:27:13Z</time>
   </trkpt>
   <trkpt lat="32.6011640" lon="35.1168510">
    <ele>205.0</ele>
    <time>2014-02-21T06:27:14Z</time>
   </trkpt>
   <trkpt lat="32.6011410" lon="35.1168860">
    <ele>205.0</ele>
    <time>2014-02-21T06:27:15Z</time>
   </trkpt>
   <trkpt lat="32.6011180" lon="35.1169200">
    <ele>204.9</ele>
    <time>2014-02-21T06:27:16Z</time>
   </trkpt>
   <trkpt lat="32.6010950" lon="35.1169530">
    <ele>204.9</ele>
    <time>2014-02-21T06:27:17Z</time>
   </trkpt>
   <trkpt lat="32.6010700" lon="35.1169830">
    <ele>204.9</ele>
    <time>2014-02-21T06:27:18Z</time>
   </trkpt>
   <trkpt lat="32.6010470" lon="35.1170140">
    <ele>204.9</ele>
    <time>2014-02-21T06:27:19Z</time>
   </trkpt>
   <trkpt lat="32.6010230" lon="35.1170440">
    <ele>204.9</ele>
    <time>2014-02-21T06:27:20Z</time>
   </trkpt>
   <trkpt lat="32.6010010" lon="35.1170760">
    <ele>204.8</ele>
    <time>2014-02-21T06:27:21Z</time>
   </trkpt>
   <trkpt lat="32.6009790" lon="35.1171090">
    <ele>204.8</ele>
    <time>2014-02-21T06:27:22Z</time>
   </trkpt>
   <trkpt lat="32.6009560" lon="35.1171420">
    <ele>204.7</ele>
    <time>2014-02-21T06:27:23Z</time>
   </trkpt>
   <trkpt lat="32.6009340" lon="35.1171790">
    <ele>204.5</ele>
    <time>2014-02-21T06:27:24Z</time>
   </trkpt>
   <trkpt lat="32.6009130" lon="35.1172190">
    <ele>204.3</ele>
    <time>2014-02-21T06:27:25Z</time>
   </trkpt>
   <trkpt lat="32.6008930" lon="35.1172610">
    <ele>203.9</ele>
    <time>2014-02-21T06:27:26Z</time>
   </trkpt>
   <trkpt lat="32.6008720" lon="35.1173030">
    <ele>203.5</ele>
    <time>2014-02-21T06:27:27Z</time>
   </trkpt>
   <trkpt lat="32.6008490" lon="35.1173420">
    <ele>203.2</ele>
    <time>2014-02-21T06:27:28Z</time>
   </trkpt>
   <trkpt lat="32.6008240" lon="35.1173790">
    <ele>203.0</ele>
    <time>2014-02-21T06:27:29Z</time>
   </trkpt>
   <trkpt lat="32.6007990" lon="35.1174150">
    <ele>202.7</ele>
    <time>2014-02-21T06:27:30Z</time>
   </trkpt>
   <trkpt lat="32.6007760" lon="35.1174530">
    <ele>202.3</ele>
    <time>2014-02-21T06:27:31Z</time>
   </trkpt>
   <trkpt lat="32.6007540" lon="35.1174900">
    <ele>201.9</ele>
    <time>2014-02-21T06:27:32Z</time>
   </trkpt>
   <trkpt lat="32.6007320" lon="35.1175270">
    <ele>201.5</ele>
    <time>2014-02-21T06:27:33Z</time>
   </trkpt>
   <trkpt lat="32.6007110" lon="35.1175640">
    <ele>201.0</ele>
    <time>2014-02-21T06:27:34Z</time>
   </trkpt>
   <trkpt lat="32.6006910" lon="35.1175990">
    <ele>200.6</ele>
    <time>2014-02-21T06:27:35Z</time>
   </trkpt>
   <trkpt lat="32.6006700" lon="35.1176350">
    <ele>200.1</ele>
    <time>2014-02-21T06:27:36Z</time>
   </trkpt>
   <trkpt lat="32.6006500" lon="35.1176690">
    <ele>199.6</ele>
    <time>2014-02-21T06:27:37Z</time>
   </trkpt>
   <trkpt lat="32.6006290" lon="35.1177040">
    <ele>199.1</ele>
    <time>2014-02-21T06:27:38Z</time>
   </trkpt>
   <trkpt lat="32.6006090" lon="35.1177390">
    <ele>198.5</ele>
    <time>2014-02-21T06:27:39Z</time>
   </trkpt>
   <trkpt lat="32.6005920" lon="35.1177740">
    <ele>197.9</ele>
    <time>2014-02-21T06:27:40Z</time>
   </trkpt>
   <trkpt lat="32.6005780" lon="35.1178100">
    <ele>197.2</ele>
    <time>2014-02-21T06:27:41Z</time>
   </trkpt>
   <trkpt lat="32.6005660" lon="35.1178420">
    <ele>196.5</ele>
    <time>2014-02-21T06:27:42Z</time>
   </trkpt>
   <trkpt lat="32.6005550" lon="35.1178730">
    <ele>195.9</ele>
    <time>2014-02-21T06:27:43Z</time>
   </trkpt>
   <trkpt lat="32.6005450" lon="35.1179050">
    <ele>195.2</ele>
    <time>2014-02-21T06:27:44Z</time>
   </trkpt>
   <trkpt lat="32.6005360" lon="35.1179370">
    <ele>194.8</ele>
    <time>2014-02-21T06:27:45Z</time>
   </trkpt>
   <trkpt lat="32.6005260" lon="35.1179690">
    <ele>194.6</ele>
    <time>2014-02-21T06:27:46Z</time>
   </trkpt>
   <trkpt lat="32.6005170" lon="35.1180040">
    <ele>194.4</ele>
    <time>2014-02-21T06:27:47Z</time>
   </trkpt>
   <trkpt lat="32.6005080" lon="35.1180400">
    <ele>194.1</ele>
    <time>2014-02-21T06:27:48Z</time>
   </trkpt>
   <trkpt lat="32.6005010" lon="35.1180810">
    <ele>193.8</ele>
    <time>2014-02-21T06:27:49Z</time>
   </trkpt>
   <trkpt lat="32.6004960" lon="35.1181210">
    <ele>193.5</ele>
    <time>2014-02-21T06:27:50Z</time>
   </trkpt>
   <trkpt lat="32.6004920" lon="35.1181670">
    <ele>193.0</ele>
    <time>2014-02-21T06:27:51Z</time>
   </trkpt>
   <trkpt lat="32.6004880" lon="35.1182110">
    <ele>192.6</ele>
    <time>2014-02-21T06:27:52Z</time>
   </trkpt>
   <trkpt lat="32.6004860" lon="35.1182540">
    <ele>192.2</ele>
    <time>2014-02-21T06:27:53Z</time>
   </trkpt>
   <trkpt lat="32.6004850" lon="35.1182980">
    <ele>191.8</ele>
    <time>2014-02-21T06:27:54Z</time>
   </trkpt>
   <trkpt lat="32.6004860" lon="35.1183410">
    <ele>191.4</ele>
    <time>2014-02-21T06:27:55Z</time>
   </trkpt>
   <trkpt lat="32.6004850" lon="35.1183830">
    <ele>191.0</ele>
    <time>2014-02-21T06:27:56Z</time>
   </trkpt>
   <trkpt lat="32.6004840" lon="35.1184260">
    <ele>190.6</ele>
    <time>2014-02-21T06:27:57Z</time>
   </trkpt>
   <trkpt lat="32.6004810" lon="35.1184680">
    <ele>190.2</ele>
    <time>2014-02-21T06:27:58Z</time>
   </trkpt>
   <trkpt lat="32.6004800" lon="35.1185130">
    <ele>189.8</ele>
    <time>2014-02-21T06:27:59Z</time>
   </trkpt>
   <trkpt lat="32.6004790" lon="35.1185570">
    <ele>189.4</ele>
    <time>2014-02-21T06:28:00Z</time>
   </trkpt>
   <trkpt lat="32.6004830" lon="35.1186020">
    <ele>189.0</ele>
    <time>2014-02-21T06:28:01Z</time>
   </trkpt>
   <trkpt lat="32.6004880" lon="35.1186480">
    <ele>188.6</ele>
    <time>2014-02-21T06:28:02Z</time>
   </trkpt>
   <trkpt lat="32.6004950" lon="35.1186980">
    <ele>188.1</ele>
    <time>2014-02-21T06:28:03Z</time>
   </trkpt>
   <trkpt lat="32.6005000" lon="35.1187490">
    <ele>187.7</ele>
    <time>2014-02-21T06:28:04Z</time>
   </trkpt>
   <trkpt lat="32.6005060" lon="35.1187990">
    <ele>187.9</ele>
    <time>2014-02-21T06:28:05Z</time>
   </trkpt>
   <trkpt lat="32.6005120" lon="35.1188490">
    <ele>188.0</ele>
    <time>2014-02-21T06:28:06Z</time>
   </trkpt>
   <trkpt lat="32.6005200" lon="35.1188970">
    <ele>188.2</ele>
    <time>2014-02-21T06:28:07Z</time>
   </trkpt>
   <trkpt lat="32.6005290" lon="35.1189430">
    <ele>188.4</ele>
    <time>2014-02-21T06:28:08Z</time>
   </trkpt>
   <trkpt lat="32.6005400" lon="35.1189880">
    <ele>188.6</ele>
    <time>2014-02-21T06:28:09Z</time>
   </trkpt>
   <trkpt lat="32.6005520" lon="35.1190310">
    <ele>188.8</ele>
    <time>2014-02-21T06:28:10Z</time>
   </trkpt>
   <trkpt lat="32.6005660" lon="35.1190730">
    <ele>189.0</ele>
    <time>2014-02-21T06:28:11Z</time>
   </trkpt>
   <trkpt lat="32.6005820" lon="35.1191150">
    <ele>189.3</ele>
    <time>2014-02-21T06:28:12Z</time>
   </trkpt>
   <trkpt lat="32.6005980" lon="35.1191550">
    <ele>189.5</ele>
    <time>2014-02-21T06:28:13Z</time>
   </trkpt>
   <trkpt lat="32.6006140" lon="35.1191950">
    <ele>189.7</ele>
    <time>2014-02-21T06:28:14Z</time>
   </trkpt>
   <trkpt lat="32.6006320" lon="35.1192340">
    <ele>190.0</ele>
    <time>2014-02-21T06:28:15Z</time>
   </trkpt>
   <trkpt lat="32.6006520" lon="35.1192710">
    <ele>190.2</ele>
    <time>2014-02-21T06:28:16Z</time>
   </trkpt>
   <trkpt lat="32.6006740" lon="35.1193040">
    <ele>190.5</ele>
    <time>2014-02-21T06:28:17Z</time>
   </trkpt>
   <trkpt lat="32.6006980" lon="35.1193360">
    <ele>190.8</ele>
    <time>2014-02-21T06:28:18Z</time>
   </trkpt>
   <trkpt lat="32.6007230" lon="35.1193650">
    <ele>191.0</ele>
    <time>2014-02-21T06:28:19Z</time>
   </trkpt>
   <trkpt lat="32.6007470" lon="35.1193920">
    <ele>191.3</ele>
    <time>2014-02-21T06:28:20Z</time>
   </trkpt>
   <trkpt lat="32.6007900" lon="35.1194300">
    <ele>191.8</ele>
    <time>2014-02-21T06:28:22Z</time>
   </trkpt>
   <trkpt lat="32.6008300" lon="35.1194640">
    <ele>192.2</ele>
    <time>2014-02-21T06:28:24Z</time>
   </trkpt>
   <trkpt lat="32.6008680" lon="35.1194940">
    <ele>192.6</ele>
    <time>2014-02-21T06:28:26Z</time>
   </trkpt>
   <trkpt lat="32.6008990" lon="35.1195220">
    <ele>192.9</ele>
    <time>2014-02-21T06:28:28Z</time>
   </trkpt>
   <trkpt lat="32.6009330" lon="35.1195510">
    <ele>193.3</ele>
    <time>2014-02-21T06:28:30Z</time>
   </trkpt>
   <trkpt lat="32.6009700" lon="35.1195770">
    <ele>193.6</ele>
    <time>2014-02-21T06:28:32Z</time>
   </trkpt>
   <trkpt lat="32.6010030" lon="35.1196090">
    <ele>194.1</ele>
    <time>2014-02-21T06:28:34Z</time>
   </trkpt>
   <trkpt lat="32.6010190" lon="35.1196610">
    <ele>194.6</ele>
    <time>2014-02-21T06:28:36Z</time>
   </trkpt>
   <trkpt lat="32.6010270" lon="35.1196920">
    <ele>194.8</ele>
    <time>2014-02-21T06:28:37Z</time>
   </trkpt>
   <trkpt lat="32.6010310" lon="35.1197310">
    <ele>195.1</ele>
    <time>2014-02-21T06:28:38Z</time>
   </trkpt>
   <trkpt lat="32.6010300" lon="35.1197680">
    <ele>195.3</ele>
    <time>2014-02-21T06:28:39Z</time>
   </trkpt>
   <trkpt lat="32.6010240" lon="35.1198040">
    <ele>195.5</ele>
    <time>2014-02-21T06:28:40Z</time>
   </trkpt>
   <trkpt lat="32.6010180" lon="35.1198390">
    <ele>195.7</ele>
    <time>2014-02-21T06:28:41Z</time>
   </trkpt>
   <trkpt lat="32.6010160" lon="35.1198730">
    <ele>195.9</ele>
    <time>2014-02-21T06:28:42Z</time>
   </trkpt>
   <trkpt lat="32.6010180" lon="35.1199050">
    <ele>196.1</ele>
    <time>2014-02-21T06:28:43Z</time>
   </trkpt>
   <trkpt lat="32.6010240" lon="35.1199360">
    <ele>196.3</ele>
    <time>2014-02-21T06:28:44Z</time>
   </trkpt>
   <trkpt lat="32.6010320" lon="35.1199680">
    <ele>196.5</ele>
    <time>2014-02-21T06:28:45Z</time>
   </trkpt>
   <trkpt lat="32.6010440" lon="35.1200280">
    <ele>196.9</ele>
    <time>2014-02-21T06:28:47Z</time>
   </trkpt>
   <trkpt lat="32.6010530" lon="35.1200880">
    <ele>197.3</ele>
    <time>2014-02-21T06:28:49Z</time>
   </trkpt>
   <trkpt lat="32.6010620" lon="35.1201510">
    <ele>197.6</ele>
    <time>2014-02-21T06:28:51Z</time>
   </trkpt>
   <trkpt lat="32.6010710" lon="35.1202120">
    <ele>197.9</ele>
    <time>2014-02-21T06:28:53Z</time>
   </trkpt>
   <trkpt lat="32.6010700" lon="35.1202620">
    <ele>198.2</ele>
    <time>2014-02-21T06:28:55Z</time>
   </trkpt>
   <trkpt lat="32.6010610" lon="35.1203140">
    <ele>198.6</ele>
    <time>2014-02-21T06:28:57Z</time>
   </trkpt>
   <trkpt lat="32.6010530" lon="35.1203650">
    <ele>198.9</ele>
    <time>2014-02-21T06:28:59Z</time>
   </trkpt>
   <trkpt lat="32.6010400" lon="35.1204090">
    <ele>199.2</ele>
    <time>2014-02-21T06:29:01Z</time>
   </trkpt>
   <trkpt lat="32.6010290" lon="35.1204490">
    <ele>199.9</ele>
    <time>2014-02-21T06:29:04Z</time>
   </trkpt>
   <trkpt lat="32.6010360" lon="35.1204810">
    <ele>200.5</ele>
    <time>2014-02-21T06:29:07Z</time>
   </trkpt>
   <trkpt lat="32.6010660" lon="35.1204810">
    <ele>200.3</ele>
    <time>2014-02-21T06:29:13Z</time>
   </trkpt>
   <trkpt lat="32.6010940" lon="35.1204830">
    <ele>200.1</ele>
    <time>2014-02-21T06:29:34Z</time>
   </trkpt>
   <trkpt lat="32.6011230" lon="35.1204690">
    <ele>199.7</ele>
    <time>2014-02-21T06:29:52Z</time>
   </trkpt>
   <trkpt lat="32.6011460" lon="35.1205030">
    <ele>200.1</ele>
    <time>2014-02-21T06:30:17Z</time>
   </trkpt>
   <trkpt lat="32.6011750" lon="35.1205270">
    <ele>200.3</ele>
    <time>2014-02-21T06:30:20Z</time>
   </trkpt>
   <trkpt lat="32.6012080" lon="35.1205670">
    <ele>200.7</ele>
    <time>2014-02-21T06:30:22Z</time>
   </trkpt>
   <trkpt lat="32.6012320" lon="35.1206190">
    <ele>201.3</ele>
    <time>2014-02-21T06:30:24Z</time>
   </trkpt>
   <trkpt lat="32.6012460" lon="35.1206720">
    <ele>202.0</ele>
    <time>2014-02-21T06:30:26Z</time>
   </trkpt>
   <trkpt lat="32.6012620" lon="35.1207170">
    <ele>202.7</ele>
    <time>2014-02-21T06:30:28Z</time>
   </trkpt>
   <trkpt lat="32.6012800" lon="35.1207620">
    <ele>203.4</ele>
    <time>2014-02-21T06:30:30Z</time>
   </trkpt>
   <trkpt lat="32.6012970" lon="35.1208080">
    <ele>204.0</ele>
    <time>2014-02-21T06:30:32Z</time>
   </trkpt>
   <trkpt lat="32.6013150" lon="35.1208560">
    <ele>204.7</ele>
    <time>2014-02-21T06:30:34Z</time>
   </trkpt>
   <trkpt lat="32.6013310" lon="35.1209080">
    <ele>205.3</ele>
    <time>2014-02-21T06:30:36Z</time>
   </trkpt>
   <trkpt lat="32.6013480" lon="35.1209610">
    <ele>206.0</ele>
    <time>2014-02-21T06:30:38Z</time>
   </trkpt>
   <trkpt lat="32.6013620" lon="35.1210130">
    <ele>206.6</ele>
    <time>2014-02-21T06:30:40Z</time>
   </trkpt>
   <trkpt lat="32.6013790" lon="35.1210620">
    <ele>207.2</ele>
    <time>2014-02-21T06:30:42Z</time>
   </trkpt>
   <trkpt lat="32.6013980" lon="35.1211190">
    <ele>207.7</ele>
    <time>2014-02-21T06:30:44Z</time>
   </trkpt>
   <trkpt lat="32.6014150" lon="35.1211700">
    <ele>208.2</ele>
    <time>2014-02-21T06:30:46Z</time>
   </trkpt>
   <trkpt lat="32.6014330" lon="35.1212200">
    <ele>208.7</ele>
    <time>2014-02-21T06:30:48Z</time>
   </trkpt>
   <trkpt lat="32.6014510" lon="35.1212690">
    <ele>209.1</ele>
    <time>2014-02-21T06:30:50Z</time>
   </trkpt>
   <trkpt lat="32.6014700" lon="35.1213170">
    <ele>209.4</ele>
    <time>2014-02-21T06:30:52Z</time>
   </trkpt>
   <trkpt lat="32.6014850" lon="35.1213700">
    <ele>209.9</ele>
    <time>2014-02-21T06:30:54Z</time>
   </trkpt>
   <trkpt lat="32.6014980" lon="35.1214180">
    <ele>210.4</ele>
    <time>2014-02-21T06:30:56Z</time>
   </trkpt>
   <trkpt lat="32.6015080" lon="35.1214680">
    <ele>210.8</ele>
    <time>2014-02-21T06:30:58Z</time>
   </trkpt>
   <trkpt lat="32.6015180" lon="35.1215140">
    <ele>211.3</ele>
    <time>2014-02-21T06:31:00Z</time>
   </trkpt>
   <trkpt lat="32.6015330" lon="35.1215620">
    <ele>211.7</ele>
    <time>2014-02-21T06:31:02Z</time>
   </trkpt>
   <trkpt lat="32.6015510" lon="35.1216170">
    <ele>212.1</ele>
    <time>2014-02-21T06:31:04Z</time>
   </trkpt>
   <trkpt lat="32.6015690" lon="35.1216720">
    <ele>212.5</ele>
    <time>2014-02-21T06:31:06Z</time>
   </trkpt>
   <trkpt lat="32.6015860" lon="35.1217190">
    <ele>212.9</ele>
    <time>2014-02-21T06:31:08Z</time>
   </trkpt>
   <trkpt lat="32.6015940" lon="35.1217700">
    <ele>213.4</ele>
    <time>2014-02-21T06:31:10Z</time>
   </trkpt>
   <trkpt lat="32.6015910" lon="35.1218220">
    <ele>214.0</ele>
    <time>2014-02-21T06:31:12Z</time>
   </trkpt>
   <trkpt lat="32.6015760" lon="35.1218690">
    <ele>214.8</ele>
    <time>2014-02-21T06:31:14Z</time>
   </trkpt>
   <trkpt lat="32.6015460" lon="35.1218940">
    <ele>215.5</ele>
    <time>2014-02-21T06:31:16Z</time>
   </trkpt>
   <trkpt lat="32.6015070" lon="35.1218950">
    <ele>216.0</ele>
    <time>2014-02-21T06:31:18Z</time>
   </trkpt>
   <trkpt lat="32.6014700" lon="35.1219010">
    <ele>216.6</ele>
    <time>2014-02-21T06:31:20Z</time>
   </trkpt>
   <trkpt lat="32.6014360" lon="35.1219260">
    <ele>217.4</ele>
    <time>2014-02-21T06:31:22Z</time>
   </trkpt>
   <trkpt lat="32.6013990" lon="35.1219520">
    <ele>218.2</ele>
    <time>2014-02-21T06:31:24Z</time>
   </trkpt>
   <trkpt lat="32.6013660" lon="35.1219840">
    <ele>219.1</ele>
    <time>2014-02-21T06:31:26Z</time>
   </trkpt>
   <trkpt lat="32.6013290" lon="35.1220190">
    <ele>220.0</ele>
    <time>2014-02-21T06:31:28Z</time>
   </trkpt>
   <trkpt lat="32.6012870" lon="35.1220470">
    <ele>221.0</ele>
    <time>2014-02-21T06:31:30Z</time>
   </trkpt>
   <trkpt lat="32.6012410" lon="35.1220810">
    <ele>222.2</ele>
    <time>2014-02-21T06:31:32Z</time>
   </trkpt>
   <trkpt lat="32.6012200" lon="35.1221030">
    <ele>222.7</ele>
    <time>2014-02-21T06:31:33Z</time>
   </trkpt>
   <trkpt lat="32.6011790" lon="35.1221420">
    <ele>223.6</ele>
    <time>2014-02-21T06:31:35Z</time>
   </trkpt>
   <trkpt lat="32.6011420" lon="35.1221740">
    <ele>224.5</ele>
    <time>2014-02-21T06:31:37Z</time>
   </trkpt>
   <trkpt lat="32.6011230" lon="35.1222120">
    <ele>224.9</ele>
    <time>2014-02-21T06:31:39Z</time>
   </trkpt>
   <trkpt lat="32.6011090" lon="35.1222630">
    <ele>225.0</ele>
    <time>2014-02-21T06:31:41Z</time>
   </trkpt>
   <trkpt lat="32.6011030" lon="35.1222940">
    <ele>225.1</ele>
    <time>2014-02-21T06:31:42Z</time>
   </trkpt>
   <trkpt lat="32.6010960" lon="35.1223300">
    <ele>225.2</ele>
    <time>2014-02-21T06:31:43Z</time>
   </trkpt>
   <trkpt lat="32.6010900" lon="35.1223650">
    <ele>225.2</ele>
    <time>2014-02-21T06:31:44Z</time>
   </trkpt>
   <trkpt lat="32.6010850" lon="35.1224000">
    <ele>225.2</ele>
    <time>2014-02-21T06:31:45Z</time>
   </trkpt>
   <trkpt lat="32.6010800" lon="35.1224360">
    <ele>225.2</ele>
    <time>2014-02-21T06:31:46Z</time>
   </trkpt>
   <trkpt lat="32.6010720" lon="35.1224720">
    <ele>225.3</ele>
    <time>2014-02-21T06:31:47Z</time>
   </trkpt>
   <trkpt lat="32.6010620" lon="35.1225050">
    <ele>225.5</ele>
    <time>2014-02-21T06:31:48Z</time>
   </trkpt>
   <trkpt lat="32.6010510" lon="35.1225380">
    <ele>225.7</ele>
    <time>2014-02-21T06:31:49Z</time>
   </trkpt>
   <trkpt lat="32.6010400" lon="35.1225690">
    <ele>225.9</ele>
    <time>2014-02-21T06:31:50Z</time>
   </trkpt>
   <trkpt lat="32.6010300" lon="35.1226030">
    <ele>226.1</ele>
    <time>2014-02-21T06:31:51Z</time>
   </trkpt>
   <trkpt lat="32.6010210" lon="35.1226380">
    <ele>226.3</ele>
    <time>2014-02-21T06:31:52Z</time>
   </trkpt>
   <trkpt lat="32.6010110" lon="35.1226740">
    <ele>226.5</ele>
    <time>2014-02-21T06:31:53Z</time>
   </trkpt>
   <trkpt lat="32.6009970" lon="35.1227130">
    <ele>226.8</ele>
    <time>2014-02-21T06:31:54Z</time>
   </trkpt>
   <trkpt lat="32.6009840" lon="35.1227500">
    <ele>227.1</ele>
    <time>2014-02-21T06:31:55Z</time>
   </trkpt>
   <trkpt lat="32.6009730" lon="35.1227840">
    <ele>227.3</ele>
    <time>2014-02-21T06:31:56Z</time>
   </trkpt>
   <trkpt lat="32.6009630" lon="35.1228180">
    <ele>227.6</ele>
    <time>2014-02-21T06:31:57Z</time>
   </trkpt>
   <trkpt lat="32.6009500" lon="35.1228480">
    <ele>227.9</ele>
    <time>2014-02-21T06:31:58Z</time>
   </trkpt>
   <trkpt lat="32.6009350" lon="35.1228750">
    <ele>228.3</ele>
    <time>2014-02-21T06:31:59Z</time>
   </trkpt>
   <trkpt lat="32.6009040" lon="35.1229280">
    <ele>229.0</ele>
    <time>2014-02-21T06:32:01Z</time>
   </trkpt>
   <trkpt lat="32.6008890" lon="35.1229550">
    <ele>228.9</ele>
    <time>2014-02-21T06:32:02Z</time>
   </trkpt>
   <trkpt lat="32.6008720" lon="35.1229820">
    <ele>228.9</ele>
    <time>2014-02-21T06:32:03Z</time>
   </trkpt>
   <trkpt lat="32.6008540" lon="35.1230070">
    <ele>229.0</ele>
    <time>2014-02-21T06:32:04Z</time>
   </trkpt>
   <trkpt lat="32.6008370" lon="35.1230320">
    <ele>229.0</ele>
    <time>2014-02-21T06:32:05Z</time>
   </trkpt>
   <trkpt lat="32.6008190" lon="35.1230600">
    <ele>229.0</ele>
    <time>2014-02-21T06:32:06Z</time>
   </trkpt>
   <trkpt lat="32.6008010" lon="35.1230890">
    <ele>229.0</ele>
    <time>2014-02-21T06:32:07Z</time>
   </trkpt>
   <trkpt lat="32.6007840" lon="35.1231180">
    <ele>228.9</ele>
    <time>2014-02-21T06:32:08Z</time>
   </trkpt>
   <trkpt lat="32.6007640" lon="35.1231470">
    <ele>228.9</ele>
    <time>2014-02-21T06:32:09Z</time>
   </trkpt>
   <trkpt lat="32.6007450" lon="35.1231770">
    <ele>228.8</ele>
    <time>2014-02-21T06:32:10Z</time>
   </trkpt>
   <trkpt lat="32.6007240" lon="35.1232050">
    <ele>228.8</ele>
    <time>2014-02-21T06:32:11Z</time>
   </trkpt>
   <trkpt lat="32.6007030" lon="35.1232370">
    <ele>228.7</ele>
    <time>2014-02-21T06:32:12Z</time>
   </trkpt>
   <trkpt lat="32.6006820" lon="35.1232680">
    <ele>228.6</ele>
    <time>2014-02-21T06:32:13Z</time>
   </trkpt>
   <trkpt lat="32.6006610" lon="35.1232960">
    <ele>228.6</ele>
    <time>2014-02-21T06:32:14Z</time>
   </trkpt>
   <trkpt lat="32.6006380" lon="35.1233220">
    <ele>228.6</ele>
    <time>2014-02-21T06:32:15Z</time>
   </trkpt>
   <trkpt lat="32.6006120" lon="35.1233470">
    <ele>228.8</ele>
    <time>2014-02-21T06:32:16Z</time>
   </trkpt>
   <trkpt lat="32.6005850" lon="35.1233710">
    <ele>229.0</ele>
    <time>2014-02-21T06:32:17Z</time>
   </trkpt>
   <trkpt lat="32.6005530" lon="35.1233960">
    <ele>229.3</ele>
    <time>2014-02-21T06:32:18Z</time>
   </trkpt>
   <trkpt lat="32.6005240" lon="35.1234180">
    <ele>229.5</ele>
    <time>2014-02-21T06:32:19Z</time>
   </trkpt>
   <trkpt lat="32.6004940" lon="35.1234390">
    <ele>229.8</ele>
    <time>2014-02-21T06:32:20Z</time>
   </trkpt>
   <trkpt lat="32.6004630" lon="35.1234580">
    <ele>230.1</ele>
    <time>2014-02-21T06:32:21Z</time>
   </trkpt>
   <trkpt lat="32.6004290" lon="35.1234760">
    <ele>230.6</ele>
    <time>2014-02-21T06:32:22Z</time>
   </trkpt>
   <trkpt lat="32.6003920" lon="35.1234920">
    <ele>230.5</ele>
    <time>2014-02-21T06:32:23Z</time>
   </trkpt>
   <trkpt lat="32.6003470" lon="35.1235100">
    <ele>230.0</ele>
    <time>2014-02-21T06:32:24Z</time>
   </trkpt>
   <trkpt lat="32.6003030" lon="35.1235260">
    <ele>229.5</ele>
    <time>2014-02-21T06:32:25Z</time>
   </trkpt>
   <trkpt lat="32.6002580" lon="35.1235400">
    <ele>229.1</ele>
    <time>2014-02-21T06:32:26Z</time>
   </trkpt>
   <trkpt lat="32.6002140" lon="35.1235570">
    <ele>228.5</ele>
    <time>2014-02-21T06:32:27Z</time>
   </trkpt>
   <trkpt lat="32.6001710" lon="35.1235740">
    <ele>228.0</ele>
    <time>2014-02-21T06:32:28Z</time>
   </trkpt>
   <trkpt lat="32.6001270" lon="35.1235900">
    <ele>227.5</ele>
    <time>2014-02-21T06:32:29Z</time>
   </trkpt>
   <trkpt lat="32.6000750" lon="35.1236090">
    <ele>226.8</ele>
    <time>2014-02-21T06:32:30Z</time>
   </trkpt>
   <trkpt lat="32.6000290" lon="35.1236200">
    <ele>226.4</ele>
    <time>2014-02-21T06:32:31Z</time>
   </trkpt>
   <trkpt lat="32.5999820" lon="35.1236240">
    <ele>226.2</ele>
    <time>2014-02-21T06:32:32Z</time>
   </trkpt>
   <trkpt lat="32.5999470" lon="35.1236260">
    <ele>226.0</ele>
    <time>2014-02-21T06:32:33Z</time>
   </trkpt>
   <trkpt lat="32.5999070" lon="35.1236210">
    <ele>226.1</ele>
    <time>2014-02-21T06:32:34Z</time>
   </trkpt>
   <trkpt lat="32.5998710" lon="35.1236160">
    <ele>226.1</ele>
    <time>2014-02-21T06:32:35Z</time>
   </trkpt>
   <trkpt lat="32.5998430" lon="35.1236140">
    <ele>226.1</ele>
    <time>2014-02-21T06:32:36Z</time>
   </trkpt>
   <trkpt lat="32.5997890" lon="35.1236080">
    <ele>226.2</ele>
    <time>2014-02-21T06:32:38Z</time>
   </trkpt>
   <trkpt lat="32.5997580" lon="35.1236070">
    <ele>226.2</ele>
    <time>2014-02-21T06:32:39Z</time>
   </trkpt>
   <trkpt lat="32.5997260" lon="35.1236040">
    <ele>226.2</ele>
    <time>2014-02-21T06:32:40Z</time>
   </trkpt>
   <trkpt lat="32.5996900" lon="35.1235990">
    <ele>226.3</ele>
    <time>2014-02-21T06:32:41Z</time>
   </trkpt>
   <trkpt lat="32.5996480" lon="35.1235990">
    <ele>226.2</ele>
    <time>2014-02-21T06:32:42Z</time>
   </trkpt>
   <trkpt lat="32.5996060" lon="35.1235980">
    <ele>226.2</ele>
    <time>2014-02-21T06:32:43Z</time>
   </trkpt>
   <trkpt lat="32.5995670" lon="35.1235980">
    <ele>226.3</ele>
    <time>2014-02-21T06:32:44Z</time>
   </trkpt>
   <trkpt lat="32.5995300" lon="35.1235970">
    <ele>226.8</ele>
    <time>2014-02-21T06:32:45Z</time>
   </trkpt>
   <trkpt lat="32.5994960" lon="35.1235930">
    <ele>227.3</ele>
    <time>2014-02-21T06:32:46Z</time>
   </trkpt>
   <trkpt lat="32.5994620" lon="35.1235870">
    <ele>227.9</ele>
    <time>2014-02-21T06:32:47Z</time>
   </trkpt>
   <trkpt lat="32.5994280" lon="35.1235810">
    <ele>228.5</ele>
    <time>2014-02-21T06:32:48Z</time>
   </trkpt>
   <trkpt lat="32.5993950" lon="35.1235750">
    <ele>229.1</ele>
    <time>2014-02-21T06:32:49Z</time>
   </trkpt>
   <trkpt lat="32.5993620" lon="35.1235700">
    <ele>229.6</ele>
    <time>2014-02-21T06:32:50Z</time>
   </trkpt>
   <trkpt lat="32.5993280" lon="35.1235650">
    <ele>230.2</ele>
    <time>2014-02-21T06:32:51Z</time>
   </trkpt>
   <trkpt lat="32.5992930" lon="35.1235610">
    <ele>230.7</ele>
    <time>2014-02-21T06:32:52Z</time>
   </trkpt>
   <trkpt lat="32.5992570" lon="35.1235550">
    <ele>231.3</ele>
    <time>2014-02-21T06:32:53Z</time>
   </trkpt>
   <trkpt lat="32.5992210" lon="35.1235480">
    <ele>231.9</ele>
    <time>2014-02-21T06:32:54Z</time>
   </trkpt>
   <trkpt lat="32.5991850" lon="35.1235400">
    <ele>232.5</ele>
    <time>2014-02-21T06:32:55Z</time>
   </trkpt>
   <trkpt lat="32.5991490" lon="35.1235320">
    <ele>233.1</ele>
    <time>2014-02-21T06:32:56Z</time>
   </trkpt>
   <trkpt lat="32.5991130" lon="35.1235250">
    <ele>233.6</ele>
    <time>2014-02-21T06:32:57Z</time>
   </trkpt>
   <trkpt lat="32.5990780" lon="35.1235170">
    <ele>234.2</ele>
    <time>2014-02-21T06:32:58Z</time>
   </trkpt>
   <trkpt lat="32.5990430" lon="35.1235080">
    <ele>234.7</ele>
    <time>2014-02-21T06:32:59Z</time>
   </trkpt>
   <trkpt lat="32.5990090" lon="35.1234990">
    <ele>235.3</ele>
    <time>2014-02-21T06:33:00Z</time>
   </trkpt>
   <trkpt lat="32.5989750" lon="35.1234910">
    <ele>235.8</ele>
    <time>2014-02-21T06:33:01Z</time>
   </trkpt>
   <trkpt lat="32.5989410" lon="35.1234840">
    <ele>236.3</ele>
    <time>2014-02-21T06:33:02Z</time>
   </trkpt>
   <trkpt lat="32.5989070" lon="35.1234810">
    <ele>236.7</ele>
    <time>2014-02-21T06:33:03Z</time>
   </trkpt>
   <trkpt lat="32.5988720" lon="35.1234810">
    <ele>237.0</ele>
    <time>2014-02-21T06:33:04Z</time>
   </trkpt>
   <trkpt lat="32.5988390" lon="35.1234840">
    <ele>237.3</ele>
    <time>2014-02-21T06:33:05Z</time>
   </trkpt>
   <trkpt lat="32.5988060" lon="35.1234910">
    <ele>237.5</ele>
    <time>2014-02-21T06:33:06Z</time>
   </trkpt>
   <trkpt lat="32.5987600" lon="35.1235210">
    <ele>237.5</ele>
    <time>2014-02-21T06:33:08Z</time>
   </trkpt>
   <trkpt lat="32.5987410" lon="35.1235460">
    <ele>237.4</ele>
    <time>2014-02-21T06:33:09Z</time>
   </trkpt>
   <trkpt lat="32.5987230" lon="35.1235770">
    <ele>237.3</ele>
    <time>2014-02-21T06:33:10Z</time>
   </trkpt>
   <trkpt lat="32.5987080" lon="35.1236060">
    <ele>237.2</ele>
    <time>2014-02-21T06:33:11Z</time>
   </trkpt>
   <trkpt lat="32.5986930" lon="35.1236350">
    <ele>237.1</ele>
    <time>2014-02-21T06:33:12Z</time>
   </trkpt>
   <trkpt lat="32.5986800" lon="35.1236660">
    <ele>236.9</ele>
    <time>2014-02-21T06:33:13Z</time>
   </trkpt>
   <trkpt lat="32.5986690" lon="35.1236990">
    <ele>236.6</ele>
    <time>2014-02-21T06:33:14Z</time>
   </trkpt>
   <trkpt lat="32.5986610" lon="35.1237330">
    <ele>236.3</ele>
    <time>2014-02-21T06:33:15Z</time>
   </trkpt>
   <trkpt lat="32.5986540" lon="35.1237700">
    <ele>236.0</ele>
    <time>2014-02-21T06:33:16Z</time>
   </trkpt>
   <trkpt lat="32.5986520" lon="35.1238090">
    <ele>235.6</ele>
    <time>2014-02-21T06:33:17Z</time>
   </trkpt>
   <trkpt lat="32.5986510" lon="35.1238490">
    <ele>235.1</ele>
    <time>2014-02-21T06:33:18Z</time>
   </trkpt>
   <trkpt lat="32.5986510" lon="35.1238930">
    <ele>234.6</ele>
    <time>2014-02-21T06:33:19Z</time>
   </trkpt>
   <trkpt lat="32.5986470" lon="35.1239320">
    <ele>234.3</ele>
    <time>2014-02-21T06:33:20Z</time>
   </trkpt>
   <trkpt lat="32.5986420" lon="35.1239660">
    <ele>234.0</ele>
    <time>2014-02-21T06:33:21Z</time>
   </trkpt>
   <trkpt lat="32.5986370" lon="35.1240030">
    <ele>233.7</ele>
    <time>2014-02-21T06:33:22Z</time>
   </trkpt>
   <trkpt lat="32.5986340" lon="35.1240420">
    <ele>233.3</ele>
    <time>2014-02-21T06:33:23Z</time>
   </trkpt>
   <trkpt lat="32.5986330" lon="35.1240850">
    <ele>232.8</ele>
    <time>2014-02-21T06:33:24Z</time>
   </trkpt>
   <trkpt lat="32.5986330" lon="35.1241310">
    <ele>232.3</ele>
    <time>2014-02-21T06:33:25Z</time>
   </trkpt>
   <trkpt lat="32.5986320" lon="35.1241900">
    <ele>231.6</ele>
    <time>2014-02-21T06:33:26Z</time>
   </trkpt>
   <trkpt lat="32.5986290" lon="35.1242470">
    <ele>231.0</ele>
    <time>2014-02-21T06:33:27Z</time>
   </trkpt>
   <trkpt lat="32.5986220" lon="35.1243070">
    <ele>230.5</ele>
    <time>2014-02-21T06:33:28Z</time>
   </trkpt>
   <trkpt lat="32.5986000" lon="35.1243890">
    <ele>230.0</ele>
    <time>2014-02-21T06:33:29Z</time>
   </trkpt>
   <trkpt lat="32.5985820" lon="35.1244630">
    <ele>229.4</ele>
    <time>2014-02-21T06:33:30Z</time>
   </trkpt>
   <trkpt lat="32.5985520" lon="35.1245210">
    <ele>229.3</ele>
    <time>2014-02-21T06:33:31Z</time>
   </trkpt>
   <trkpt lat="32.5985210" lon="35.1245600">
    <ele>229.4</ele>
    <time>2014-02-21T06:33:32Z</time>
   </trkpt>
   <trkpt lat="32.5984890" lon="35.1246030">
    <ele>229.2</ele>
    <time>2014-02-21T06:33:33Z</time>
   </trkpt>
   <trkpt lat="32.5984620" lon="35.1246360">
    <ele>228.8</ele>
    <time>2014-02-21T06:33:34Z</time>
   </trkpt>
   <trkpt lat="32.5984310" lon="35.1246770">
    <ele>228.2</ele>
    <time>2014-02-21T06:33:35Z</time>
   </trkpt>
   <trkpt lat="32.5984020" lon="35.1247090">
    <ele>227.8</ele>
    <time>2014-02-21T06:33:36Z</time>
   </trkpt>
   <trkpt lat="32.5983730" lon="35.1247310">
    <ele>227.7</ele>
    <time>2014-02-21T06:33:37Z</time>
   </trkpt>
   <trkpt lat="32.5983440" lon="35.1247630">
    <ele>227.4</ele>
    <time>2014-02-21T06:33:38Z</time>
   </trkpt>
   <trkpt lat="32.5983090" lon="35.1247840">
    <ele>227.4</ele>
    <time>2014-02-21T06:33:39Z</time>
   </trkpt>
   <trkpt lat="32.5982710" lon="35.1248160">
    <ele>227.1</ele>
    <time>2014-02-21T06:33:40Z</time>
   </trkpt>
   <trkpt lat="32.5982320" lon="35.1248390">
    <ele>227.1</ele>
    <time>2014-02-21T06:33:41Z</time>
   </trkpt>
   <trkpt lat="32.5981990" lon="35.1248740">
    <ele>226.7</ele>
    <time>2014-02-21T06:33:42Z</time>
   </trkpt>
   <trkpt lat="32.5981600" lon="35.1248970">
    <ele>226.6</ele>
    <time>2014-02-21T06:33:43Z</time>
   </trkpt>
   <trkpt lat="32.5981200" lon="35.1249140">
    <ele>226.8</ele>
    <time>2014-02-21T06:33:44Z</time>
   </trkpt>
   <trkpt lat="32.5980800" lon="35.1249360">
    <ele>226.8</ele>
    <time>2014-02-21T06:33:45Z</time>
   </trkpt>
   <trkpt lat="32.5980400" lon="35.1249590">
    <ele>226.8</ele>
    <time>2014-02-21T06:33:46Z</time>
   </trkpt>
   <trkpt lat="32.5979900" lon="35.1250010">
    <ele>226.3</ele>
    <time>2014-02-21T06:33:47Z</time>
   </trkpt>
   <trkpt lat="32.5979430" lon="35.1250160">
    <ele>226.6</ele>
    <time>2014-02-21T06:33:48Z</time>
   </trkpt>
   <trkpt lat="32.5978950" lon="35.1250300">
    <ele>226.5</ele>
    <time>2014-02-21T06:33:49Z</time>
   </trkpt>
   <trkpt lat="32.5978570" lon="35.1250460">
    <ele>226.0</ele>
    <time>2014-02-21T06:33:50Z</time>
   </trkpt>
   <trkpt lat="32.5978140" lon="35.1250560">
    <ele>225.6</ele>
    <time>2014-02-21T06:33:51Z</time>
   </trkpt>
   <trkpt lat="32.5977690" lon="35.1250580">
    <ele>225.4</ele>
    <time>2014-02-21T06:33:52Z</time>
   </trkpt>
   <trkpt lat="32.5977230" lon="35.1250650">
    <ele>225.1</ele>
    <time>2014-02-21T06:33:53Z</time>
   </trkpt>
   <trkpt lat="32.5976830" lon="35.1250740">
    <ele>224.7</ele>
    <time>2014-02-21T06:33:54Z</time>
   </trkpt>
   <trkpt lat="32.5976450" lon="35.1250860">
    <ele>224.3</ele>
    <time>2014-02-21T06:33:55Z</time>
   </trkpt>
   <trkpt lat="32.5976040" lon="35.1251000">
    <ele>223.7</ele>
    <time>2014-02-21T06:33:56Z</time>
   </trkpt>
   <trkpt lat="32.5975660" lon="35.1251120">
    <ele>223.3</ele>
    <time>2014-02-21T06:33:57Z</time>
   </trkpt>
   <trkpt lat="32.5975290" lon="35.1251220">
    <ele>222.9</ele>
    <time>2014-02-21T06:33:58Z</time>
   </trkpt>
   <trkpt lat="32.5974940" lon="35.1251270">
    <ele>222.7</ele>
    <time>2014-02-21T06:33:59Z</time>
   </trkpt>
   <trkpt lat="32.5974540" lon="35.1251280">
    <ele>222.5</ele>
    <time>2014-02-21T06:34:00Z</time>
   </trkpt>
   <trkpt lat="32.5974150" lon="35.1251290">
    <ele>222.4</ele>
    <time>2014-02-21T06:34:01Z</time>
   </trkpt>
   <trkpt lat="32.5973760" lon="35.1251310">
    <ele>222.3</ele>
    <time>2014-02-21T06:34:02Z</time>
   </trkpt>
   <trkpt lat="32.5973360" lon="35.1251320">
    <ele>222.1</ele>
    <time>2014-02-21T06:34:03Z</time>
   </trkpt>
   <trkpt lat="32.5972980" lon="35.1251340">
    <ele>222.0</ele>
    <time>2014-02-21T06:34:04Z</time>
   </trkpt>
   <trkpt lat="32.5972590" lon="35.1251350">
    <ele>221.9</ele>
    <time>2014-02-21T06:34:05Z</time>
   </trkpt>
   <trkpt lat="32.5972220" lon="35.1251340">
    <ele>221.8</ele>
    <time>2014-02-21T06:34:06Z</time>
   </trkpt>
   <trkpt lat="32.5971880" lon="35.1251300">
    <ele>221.9</ele>
    <time>2014-02-21T06:34:07Z</time>
   </trkpt>
   <trkpt lat="32.5971550" lon="35.1251250">
    <ele>221.9</ele>
    <time>2014-02-21T06:34:08Z</time>
   </trkpt>
   <trkpt lat="32.5971210" lon="35.1251190">
    <ele>222.0</ele>
    <time>2014-02-21T06:34:09Z</time>
   </trkpt>
   <trkpt lat="32.5970860" lon="35.1251130">
    <ele>222.1</ele>
    <time>2014-02-21T06:34:10Z</time>
   </trkpt>
   <trkpt lat="32.5970500" lon="35.1251080">
    <ele>221.8</ele>
    <time>2014-02-21T06:34:11Z</time>
   </trkpt>
   <trkpt lat="32.5970130" lon="35.1251020">
    <ele>221.5</ele>
    <time>2014-02-21T06:34:12Z</time>
   </trkpt>
   <trkpt lat="32.5969760" lon="35.1250930">
    <ele>221.3</ele>
    <time>2014-02-21T06:34:13Z</time>
   </trkpt>
   <trkpt lat="32.5969400" lon="35.1250790">
    <ele>221.3</ele>
    <time>2014-02-21T06:34:14Z</time>
   </trkpt>
   <trkpt lat="32.5969040" lon="35.1250620">
    <ele>221.3</ele>
    <time>2014-02-21T06:34:15Z</time>
   </trkpt>
   <trkpt lat="32.5968690" lon="35.1250450">
    <ele>221.3</ele>
    <time>2014-02-21T06:34:16Z</time>
   </trkpt>
   <trkpt lat="32.5968320" lon="35.1250270">
    <ele>221.4</ele>
    <time>2014-02-21T06:34:17Z</time>
   </trkpt>
   <trkpt lat="32.5967940" lon="35.1250080">
    <ele>221.4</ele>
    <time>2014-02-21T06:34:18Z</time>
   </trkpt>
   <trkpt lat="32.5967580" lon="35.1249910">
    <ele>221.5</ele>
    <time>2014-02-21T06:34:19Z</time>
   </trkpt>
   <trkpt lat="32.5967220" lon="35.1249730">
    <ele>221.5</ele>
    <time>2014-02-21T06:34:20Z</time>
   </trkpt>
   <trkpt lat="32.5966870" lon="35.1249550">
    <ele>221.6</ele>
    <time>2014-02-21T06:34:21Z</time>
   </trkpt>
   <trkpt lat="32.5966510" lon="35.1249380">
    <ele>221.6</ele>
    <time>2014-02-21T06:34:22Z</time>
   </trkpt>
   <trkpt lat="32.5966100" lon="35.1249230">
    <ele>221.5</ele>
    <time>2014-02-21T06:34:23Z</time>
   </trkpt>
   <trkpt lat="32.5965280" lon="35.1249090">
    <ele>220.8</ele>
    <time>2014-02-21T06:34:24Z</time>
   </trkpt>
   <trkpt lat="32.5964710" lon="35.1248820">
    <ele>220.7</ele>
    <time>2014-02-21T06:34:25Z</time>
   </trkpt>
   <trkpt lat="32.5964160" lon="35.1248520">
    <ele>220.8</ele>
    <time>2014-02-21T06:34:26Z</time>
   </trkpt>
   <trkpt lat="32.5963600" lon="35.1248220">
    <ele>220.9</ele>
    <time>2014-02-21T06:34:27Z</time>
   </trkpt>
   <trkpt lat="32.5963050" lon="35.1247920">
    <ele>221.0</ele>
    <time>2014-02-21T06:34:28Z</time>
   </trkpt>
   <trkpt lat="32.5962650" lon="35.1247480">
    <ele>221.7</ele>
    <time>2014-02-21T06:34:29Z</time>
   </trkpt>
   <trkpt lat="32.5962220" lon="35.1247100">
    <ele>222.5</ele>
    <time>2014-02-21T06:34:30Z</time>
   </trkpt>
   <trkpt lat="32.5961760" lon="35.1246740">
    <ele>223.4</ele>
    <time>2014-02-21T06:34:31Z</time>
   </trkpt>
   <trkpt lat="32.5961430" lon="35.1246360">
    <ele>224.5</ele>
    <time>2014-02-21T06:34:32Z</time>
   </trkpt>
   <trkpt lat="32.5961050" lon="35.1245910">
    <ele>225.8</ele>
    <time>2014-02-21T06:34:33Z</time>
   </trkpt>
   <trkpt lat="32.5960650" lon="35.1245460">
    <ele>227.2</ele>
    <time>2014-02-21T06:34:34Z</time>
   </trkpt>
   <trkpt lat="32.5960260" lon="35.1245070">
    <ele>228.6</ele>
    <time>2014-02-21T06:34:35Z</time>
   </trkpt>
   <trkpt lat="32.5959920" lon="35.1244720">
    <ele>229.8</ele>
    <time>2014-02-21T06:34:36Z</time>
   </trkpt>
   <trkpt lat="32.5959600" lon="35.1244360">
    <ele>231.0</ele>
    <time>2014-02-21T06:34:37Z</time>
   </trkpt>
   <trkpt lat="32.5959350" lon="35.1244020">
    <ele>232.2</ele>
    <time>2014-02-21T06:34:38Z</time>
   </trkpt>
   <trkpt lat="32.5959110" lon="35.1243670">
    <ele>233.4</ele>
    <time>2014-02-21T06:34:39Z</time>
   </trkpt>
   <trkpt lat="32.5958750" lon="35.1243380">
    <ele>234.5</ele>
    <time>2014-02-21T06:34:40Z</time>
   </trkpt>
   <trkpt lat="32.5958440" lon="35.1243160">
    <ele>235.3</ele>
    <time>2014-02-21T06:34:41Z</time>
   </trkpt>
   <trkpt lat="32.5958090" lon="35.1242950">
    <ele>236.1</ele>
    <time>2014-02-21T06:34:42Z</time>
   </trkpt>
   <trkpt lat="32.5957670" lon="35.1242800">
    <ele>236.7</ele>
    <time>2014-02-21T06:34:43Z</time>
   </trkpt>
   <trkpt lat="32.5957410" lon="35.1242680">
    <ele>237.1</ele>
    <time>2014-02-21T06:34:44Z</time>
   </trkpt>
   <trkpt lat="32.5957170" lon="35.1242480">
    <ele>237.9</ele>
    <time>2014-02-21T06:34:45Z</time>
   </trkpt>
   <trkpt lat="32.5956780" lon="35.1242270">
    <ele>238.7</ele>
    <time>2014-02-21T06:34:47Z</time>
   </trkpt>
   <trkpt lat="32.5956320" lon="35.1242140">
    <ele>239.3</ele>
    <time>2014-02-21T06:34:49Z</time>
   </trkpt>
   <trkpt lat="32.5955900" lon="35.1241990">
    <ele>239.9</ele>
    <time>2014-02-21T06:34:51Z</time>
   </trkpt>
   <trkpt lat="32.5955360" lon="35.1241950">
    <ele>240.2</ele>
    <time>2014-02-21T06:34:53Z</time>
   </trkpt>
   <trkpt lat="32.5955000" lon="35.1241970">
    <ele>240.2</ele>
    <time>2014-02-21T06:34:54Z</time>
   </trkpt>
   <trkpt lat="32.5954720" lon="35.1242000">
    <ele>240.1</ele>
    <time>2014-02-21T06:34:55Z</time>
   </trkpt>
   <trkpt lat="32.5954420" lon="35.1242030">
    <ele>240.1</ele>
    <time>2014-02-21T06:34:56Z</time>
   </trkpt>
   <trkpt lat="32.5954100" lon="35.1242080">
    <ele>239.9</ele>
    <time>2014-02-21T06:34:57Z</time>
   </trkpt>
   <trkpt lat="32.5953820" lon="35.1242120">
    <ele>239.6</ele>
    <time>2014-02-21T06:34:58Z</time>
   </trkpt>
   <trkpt lat="32.5953530" lon="35.1242200">
    <ele>239.1</ele>
    <time>2014-02-21T06:34:59Z</time>
   </trkpt>
   <trkpt lat="32.5953240" lon="35.1242330">
    <ele>238.5</ele>
    <time>2014-02-21T06:35:00Z</time>
   </trkpt>
   <trkpt lat="32.5952940" lon="35.1242510">
    <ele>237.6</ele>
    <time>2014-02-21T06:35:01Z</time>
   </trkpt>
   <trkpt lat="32.5952550" lon="35.1242710">
    <ele>236.6</ele>
    <time>2014-02-21T06:35:02Z</time>
   </trkpt>
   <trkpt lat="32.5952150" lon="35.1242890">
    <ele>235.7</ele>
    <time>2014-02-21T06:35:03Z</time>
   </trkpt>
   <trkpt lat="32.5951710" lon="35.1243050">
    <ele>234.9</ele>
    <time>2014-02-21T06:35:04Z</time>
   </trkpt>
   <trkpt lat="32.5951280" lon="35.1243170">
    <ele>234.2</ele>
    <time>2014-02-21T06:35:05Z</time>
   </trkpt>
   <trkpt lat="32.5950840" lon="35.1243290">
    <ele>233.5</ele>
    <time>2014-02-21T06:35:06Z</time>
   </trkpt>
   <trkpt lat="32.5950390" lon="35.1243390">
    <ele>232.8</ele>
    <time>2014-02-21T06:35:07Z</time>
   </trkpt>
   <trkpt lat="32.5949940" lon="35.1243460">
    <ele>232.3</ele>
    <time>2014-02-21T06:35:08Z</time>
   </trkpt>
   <trkpt lat="32.5949500" lon="35.1243500">
    <ele>231.9</ele>
    <time>2014-02-21T06:35:09Z</time>
   </trkpt>
   <trkpt lat="32.5949070" lon="35.1243520">
    <ele>231.5</ele>
    <time>2014-02-21T06:35:10Z</time>
   </trkpt>
   <trkpt lat="32.5948660" lon="35.1243530">
    <ele>231.3</ele>
    <time>2014-02-21T06:35:11Z</time>
   </trkpt>
   <trkpt lat="32.5948340" lon="35.1243540">
    <ele>231.0</ele>
    <time>2014-02-21T06:35:12Z</time>
   </trkpt>
   <trkpt lat="32.5948050" lon="35.1243570">
    <ele>230.7</ele>
    <time>2014-02-21T06:35:13Z</time>
   </trkpt>
   <trkpt lat="32.5947770" lon="35.1243610">
    <ele>230.4</ele>
    <time>2014-02-21T06:35:14Z</time>
   </trkpt>
   <trkpt lat="32.5947250" lon="35.1243660">
    <ele>229.9</ele>
    <time>2014-02-21T06:35:16Z</time>
   </trkpt>
   <trkpt lat="32.5946980" lon="35.1243640">
    <ele>229.8</ele>
    <time>2014-02-21T06:35:17Z</time>
   </trkpt>
   <trkpt lat="32.5946460" lon="35.1243600">
    <ele>229.7</ele>
    <time>2014-02-21T06:35:19Z</time>
   </trkpt>
   <trkpt lat="32.5945940" lon="35.1243620">
    <ele>229.3</ele>
    <time>2014-02-21T06:35:21Z</time>
   </trkpt>
   <trkpt lat="32.5945660" lon="35.1243600">
    <ele>229.0</ele>
    <time>2014-02-21T06:35:22Z</time>
   </trkpt>
   <trkpt lat="32.5945370" lon="35.1243570">
    <ele>228.6</ele>
    <time>2014-02-21T06:35:23Z</time>
   </trkpt>
   <trkpt lat="32.5945070" lon="35.1243560">
    <ele>228.1</ele>
    <time>2014-02-21T06:35:24Z</time>
   </trkpt>
   <trkpt lat="32.5944760" lon="35.1243550">
    <ele>227.5</ele>
    <time>2014-02-21T06:35:25Z</time>
   </trkpt>
   <trkpt lat="32.5944440" lon="35.1243550">
    <ele>227.0</ele>
    <time>2014-02-21T06:35:26Z</time>
   </trkpt>
   <trkpt lat="32.5944120" lon="35.1243540">
    <ele>226.4</ele>
    <time>2014-02-21T06:35:27Z</time>
   </trkpt>
   <trkpt lat="32.5943810" lon="35.1243520">
    <ele>225.9</ele>
    <time>2014-02-21T06:35:28Z</time>
   </trkpt>
   <trkpt lat="32.5943480" lon="35.1243480">
    <ele>225.4</ele>
    <time>2014-02-21T06:35:29Z</time>
   </trkpt>
   <trkpt lat="32.5943140" lon="35.1243440">
    <ele>225.0</ele>
    <time>2014-02-21T06:35:30Z</time>
   </trkpt>
   <trkpt lat="32.5942790" lon="35.1243360">
    <ele>224.6</ele>
    <time>2014-02-21T06:35:31Z</time>
   </trkpt>
   <trkpt lat="32.5942450" lon="35.1243250">
    <ele>224.3</ele>
    <time>2014-02-21T06:35:32Z</time>
   </trkpt>
   <trkpt lat="32.5942100" lon="35.1243130">
    <ele>224.1</ele>
    <time>2014-02-21T06:35:33Z</time>
   </trkpt>
   <trkpt lat="32.5941720" lon="35.1243020">
    <ele>223.7</ele>
    <time>2014-02-21T06:35:34Z</time>
   </trkpt>
   <trkpt lat="32.5941260" lon="35.1242890">
    <ele>223.3</ele>
    <time>2014-02-21T06:35:35Z</time>
   </trkpt>
   <trkpt lat="32.5940820" lon="35.1242770">
    <ele>222.8</ele>
    <time>2014-02-21T06:35:36Z</time>
   </trkpt>
   <trkpt lat="32.5940440" lon="35.1242630">
    <ele>222.5</ele>
    <time>2014-02-21T06:35:37Z</time>
   </trkpt>
   <trkpt lat="32.5940080" lon="35.1242480">
    <ele>222.3</ele>
    <time>2014-02-21T06:35:38Z</time>
   </trkpt>
   <trkpt lat="32.5939720" lon="35.1242290">
    <ele>222.1</ele>
    <time>2014-02-21T06:35:39Z</time>
   </trkpt>
   <trkpt lat="32.5939370" lon="35.1242110">
    <ele>222.0</ele>
    <time>2014-02-21T06:35:40Z</time>
   </trkpt>
   <trkpt lat="32.5939040" lon="35.1241910">
    <ele>221.9</ele>
    <time>2014-02-21T06:35:41Z</time>
   </trkpt>
   <trkpt lat="32.5938730" lon="35.1241720">
    <ele>221.9</ele>
    <time>2014-02-21T06:35:42Z</time>
   </trkpt>
   <trkpt lat="32.5938420" lon="35.1241530">
    <ele>221.8</ele>
    <time>2014-02-21T06:35:43Z</time>
   </trkpt>
   <trkpt lat="32.5938100" lon="35.1241340">
    <ele>221.6</ele>
    <time>2014-02-21T06:35:44Z</time>
   </trkpt>
   <trkpt lat="32.5937770" lon="35.1241130">
    <ele>221.5</ele>
    <time>2014-02-21T06:35:45Z</time>
   </trkpt>
   <trkpt lat="32.5937440" lon="35.1240930">
    <ele>221.5</ele>
    <time>2014-02-21T06:35:46Z</time>
   </trkpt>
   <trkpt lat="32.5937130" lon="35.1240700">
    <ele>221.6</ele>
    <time>2014-02-21T06:35:47Z</time>
   </trkpt>
   <trkpt lat="32.5936850" lon="35.1240460">
    <ele>221.9</ele>
    <time>2014-02-21T06:35:48Z</time>
   </trkpt>
   <trkpt lat="32.5936580" lon="35.1240220">
    <ele>222.0</ele>
    <time>2014-02-21T06:35:49Z</time>
   </trkpt>
   <trkpt lat="32.5936290" lon="35.1239990">
    <ele>222.1</ele>
    <time>2014-02-21T06:35:50Z</time>
   </trkpt>
   <trkpt lat="32.5935980" lon="35.1239760">
    <ele>222.1</ele>
    <time>2014-02-21T06:35:51Z</time>
   </trkpt>
   <trkpt lat="32.5935660" lon="35.1239540">
    <ele>222.0</ele>
    <time>2014-02-21T06:35:52Z</time>
   </trkpt>
   <trkpt lat="32.5935350" lon="35.1239290">
    <ele>222.0</ele>
    <time>2014-02-21T06:35:53Z</time>
   </trkpt>
   <trkpt lat="32.5935050" lon="35.1239030">
    <ele>221.9</ele>
    <time>2014-02-21T06:35:54Z</time>
   </trkpt>
   <trkpt lat="32.5934750" lon="35.1238770">
    <ele>221.8</ele>
    <time>2014-02-21T06:35:55Z</time>
   </trkpt>
   <trkpt lat="32.5934470" lon="35.1238490">
    <ele>221.7</ele>
    <time>2014-02-21T06:35:56Z</time>
   </trkpt>
   <trkpt lat="32.5934180" lon="35.1238230">
    <ele>221.5</ele>
    <time>2014-02-21T06:35:57Z</time>
   </trkpt>
   <trkpt lat="32.5933870" lon="35.1237990">
    <ele>221.1</ele>
    <time>2014-02-21T06:35:58Z</time>
   </trkpt>
   <trkpt lat="32.5933570" lon="35.1237750">
    <ele>220.7</ele>
    <time>2014-02-21T06:35:59Z</time>
   </trkpt>
   <trkpt lat="32.5933280" lon="35.1237510">
    <ele>220.4</ele>
    <time>2014-02-21T06:36:00Z</time>
   </trkpt>
   <trkpt lat="32.5933010" lon="35.1237250">
    <ele>220.0</ele>
    <time>2014-02-21T06:36:01Z</time>
   </trkpt>
   <trkpt lat="32.5932750" lon="35.1237000">
    <ele>219.6</ele>
    <time>2014-02-21T06:36:02Z</time>
   </trkpt>
   <trkpt lat="32.5932530" lon="35.1236710">
    <ele>219.4</ele>
    <time>2014-02-21T06:36:03Z</time>
   </trkpt>
   <trkpt lat="32.5932350" lon="35.1236390">
    <ele>219.4</ele>
    <time>2014-02-21T06:36:04Z</time>
   </trkpt>
   <trkpt lat="32.5932200" lon="35.1236050">
    <ele>219.4</ele>
    <time>2014-02-21T06:36:05Z</time>
   </trkpt>
   <trkpt lat="32.5932070" lon="35.1235710">
    <ele>219.5</ele>
    <time>2014-02-21T06:36:06Z</time>
   </trkpt>
   <trkpt lat="32.5931910" lon="35.1235400">
    <ele>219.5</ele>
    <time>2014-02-21T06:36:07Z</time>
   </trkpt>
   <trkpt lat="32.5931750" lon="35.1235100">
    <ele>219.5</ele>
    <time>2014-02-21T06:36:08Z</time>
   </trkpt>
   <trkpt lat="32.5931570" lon="35.1234810">
    <ele>219.4</ele>
    <time>2014-02-21T06:36:09Z</time>
   </trkpt>
   <trkpt lat="32.5931370" lon="35.1234540">
    <ele>219.3</ele>
    <time>2014-02-21T06:36:10Z</time>
   </trkpt>
   <trkpt lat="32.5931170" lon="35.1234250">
    <ele>219.2</ele>
    <time>2014-02-21T06:36:11Z</time>
   </trkpt>
   <trkpt lat="32.5930950" lon="35.1233980">
    <ele>219.0</ele>
    <time>2014-02-21T06:36:12Z</time>
   </trkpt>
   <trkpt lat="32.5930730" lon="35.1233670">
    <ele>218.8</ele>
    <time>2014-02-21T06:36:13Z</time>
   </trkpt>
   <trkpt lat="32.5930520" lon="35.1233360">
    <ele>218.7</ele>
    <time>2014-02-21T06:36:14Z</time>
   </trkpt>
   <trkpt lat="32.5930280" lon="35.1233020">
    <ele>218.6</ele>
    <time>2014-02-21T06:36:15Z</time>
   </trkpt>
   <trkpt lat="32.5930030" lon="35.1232690">
    <ele>218.4</ele>
    <time>2014-02-21T06:36:16Z</time>
   </trkpt>
   <trkpt lat="32.5929780" lon="35.1232370">
    <ele>218.2</ele>
    <time>2014-02-21T06:36:17Z</time>
   </trkpt>
   <trkpt lat="32.5929530" lon="35.1232070">
    <ele>218.0</ele>
    <time>2014-02-21T06:36:18Z</time>
   </trkpt>
   <trkpt lat="32.5929280" lon="35.1231780">
    <ele>217.8</ele>
    <time>2014-02-21T06:36:19Z</time>
   </trkpt>
   <trkpt lat="32.5929040" lon="35.1231500">
    <ele>217.9</ele>
    <time>2014-02-21T06:36:20Z</time>
   </trkpt>
   <trkpt lat="32.5928810" lon="35.1231190">
    <ele>218.3</ele>
    <time>2014-02-21T06:36:21Z</time>
   </trkpt>
   <trkpt lat="32.5928590" lon="35.1230890">
    <ele>218.6</ele>
    <time>2014-02-21T06:36:22Z</time>
   </trkpt>
   <trkpt lat="32.5928380" lon="35.1230570">
    <ele>218.9</ele>
    <time>2014-02-21T06:36:23Z</time>
   </trkpt>
   <trkpt lat="32.5928150" lon="35.1230260">
    <ele>219.2</ele>
    <time>2014-02-21T06:36:24Z</time>
   </trkpt>
   <trkpt lat="32.5927920" lon="35.1229910">
    <ele>219.4</ele>
    <time>2014-02-21T06:36:25Z</time>
   </trkpt>
   <trkpt lat="32.5927710" lon="35.1229560">
    <ele>219.7</ele>
    <time>2014-02-21T06:36:26Z</time>
   </trkpt>
   <trkpt lat="32.5927500" lon="35.1229220">
    <ele>219.9</ele>
    <time>2014-02-21T06:36:27Z</time>
   </trkpt>
   <trkpt lat="32.5927310" lon="35.1228880">
    <ele>220.0</ele>
    <time>2014-02-21T06:36:28Z</time>
   </trkpt>
   <trkpt lat="32.5927130" lon="35.1228550">
    <ele>220.1</ele>
    <time>2014-02-21T06:36:29Z</time>
   </trkpt>
   <trkpt lat="32.5926950" lon="35.1228230">
    <ele>220.2</ele>
    <time>2014-02-21T06:36:30Z</time>
   </trkpt>
   <trkpt lat="32.5926790" lon="35.1227900">
    <ele>220.3</ele>
    <time>2014-02-21T06:36:31Z</time>
   </trkpt>
   <trkpt lat="32.5926650" lon="35.1227560">
    <ele>220.4</ele>
    <time>2014-02-21T06:36:32Z</time>
   </trkpt>
   <trkpt lat="32.5926510" lon="35.1227210">
    <ele>220.5</ele>
    <time>2014-02-21T06:36:33Z</time>
   </trkpt>
   <trkpt lat="32.5926340" lon="35.1226860">
    <ele>220.6</ele>
    <time>2014-02-21T06:36:34Z</time>
   </trkpt>
   <trkpt lat="32.5926150" lon="35.1226510">
    <ele>220.7</ele>
    <time>2014-02-21T06:36:35Z</time>
   </trkpt>
   <trkpt lat="32.5925970" lon="35.1226150">
    <ele>220.8</ele>
    <time>2014-02-21T06:36:36Z</time>
   </trkpt>
   <trkpt lat="32.5925800" lon="35.1225770">
    <ele>220.9</ele>
    <time>2014-02-21T06:36:37Z</time>
   </trkpt>
   <trkpt lat="32.5925660" lon="35.1225390">
    <ele>221.1</ele>
    <time>2014-02-21T06:36:38Z</time>
   </trkpt>
   <trkpt lat="32.5925510" lon="35.1225030">
    <ele>221.2</ele>
    <time>2014-02-21T06:36:39Z</time>
   </trkpt>
   <trkpt lat="32.5925360" lon="35.1224670">
    <ele>221.4</ele>
    <time>2014-02-21T06:36:40Z</time>
   </trkpt>
   <trkpt lat="32.5925220" lon="35.1224330">
    <ele>221.5</ele>
    <time>2014-02-21T06:36:41Z</time>
   </trkpt>
   <trkpt lat="32.5925080" lon="35.1224010">
    <ele>221.6</ele>
    <time>2014-02-21T06:36:42Z</time>
   </trkpt>
   <trkpt lat="32.5924860" lon="35.1223500">
    <ele>221.8</ele>
    <time>2014-02-21T06:36:44Z</time>
   </trkpt>
   <trkpt lat="32.5924720" lon="35.1222890">
    <ele>222.1</ele>
    <time>2014-02-21T06:36:46Z</time>
   </trkpt>
   <trkpt lat="32.5924700" lon="35.1222570">
    <ele>222.3</ele>
    <time>2014-02-21T06:36:47Z</time>
   </trkpt>
   <trkpt lat="32.5924680" lon="35.1222230">
    <ele>222.5</ele>
    <time>2014-02-21T06:36:48Z</time>
   </trkpt>
   <trkpt lat="32.5924650" lon="35.1221890">
    <ele>222.7</ele>
    <time>2014-02-21T06:36:49Z</time>
   </trkpt>
   <trkpt lat="32.5924640" lon="35.1221550">
    <ele>222.9</ele>
    <time>2014-02-21T06:36:50Z</time>
   </trkpt>
   <trkpt lat="32.5924620" lon="35.1221220">
    <ele>223.1</ele>
    <time>2014-02-21T06:36:51Z</time>
   </trkpt>
   <trkpt lat="32.5924660" lon="35.1220750">
    <ele>223.4</ele>
    <time>2014-02-21T06:36:53Z</time>
   </trkpt>
   <trkpt lat="32.5924780" lon="35.1220410">
    <ele>223.4</ele>
    <time>2014-02-21T06:36:55Z</time>
   </trkpt>
   <trkpt lat="32.5924890" lon="35.1219930">
    <ele>223.4</ele>
    <time>2014-02-21T06:36:57Z</time>
   </trkpt>
   <trkpt lat="32.5924980" lon="35.1219590">
    <ele>223.3</ele>
    <time>2014-02-21T06:36:58Z</time>
   </trkpt>
   <trkpt lat="32.5925040" lon="35.1219250">
    <ele>223.3</ele>
    <time>2014-02-21T06:36:59Z</time>
   </trkpt>
   <trkpt lat="32.5925130" lon="35.1218740">
    <ele>223.3</ele>
    <time>2014-02-21T06:37:01Z</time>
   </trkpt>
   <trkpt lat="32.5925240" lon="35.1218230">
    <ele>223.2</ele>
    <time>2014-02-21T06:37:03Z</time>
   </trkpt>
   <trkpt lat="32.5925390" lon="35.1217660">
    <ele>223.1</ele>
    <time>2014-02-21T06:37:05Z</time>
   </trkpt>
   <trkpt lat="32.5925560" lon="35.1217020">
    <ele>223.0</ele>
    <time>2014-02-21T06:37:07Z</time>
   </trkpt>
   <trkpt lat="32.5925710" lon="35.1216540">
    <ele>222.9</ele>
    <time>2014-02-21T06:37:09Z</time>
   </trkpt>
   <trkpt lat="32.5925900" lon="35.1216100">
    <ele>222.8</ele>
    <time>2014-02-21T06:37:11Z</time>
   </trkpt>
   <trkpt lat="32.5926080" lon="35.1215570">
    <ele>222.6</ele>
    <time>2014-02-21T06:37:13Z</time>
   </trkpt>
   <trkpt lat="32.5926250" lon="35.1215010">
    <ele>222.4</ele>
    <time>2014-02-21T06:37:15Z</time>
   </trkpt>
   <trkpt lat="32.5926510" lon="35.1214420">
    <ele>222.2</ele>
    <time>2014-02-21T06:37:17Z</time>
   </trkpt>
   <trkpt lat="32.5926660" lon="35.1214120">
    <ele>222.0</ele>
    <time>2014-02-21T06:37:18Z</time>
   </trkpt>
   <trkpt lat="32.5926810" lon="35.1213800">
    <ele>221.8</ele>
    <time>2014-02-21T06:37:19Z</time>
   </trkpt>
   <trkpt lat="32.5926920" lon="35.1213460">
    <ele>221.7</ele>
    <time>2014-02-21T06:37:20Z</time>
   </trkpt>
   <trkpt lat="32.5927020" lon="35.1213130">
    <ele>221.5</ele>
    <time>2014-02-21T06:37:21Z</time>
   </trkpt>
   <trkpt lat="32.5927110" lon="35.1212800">
    <ele>221.3</ele>
    <time>2014-02-21T06:37:22Z</time>
   </trkpt>
   <trkpt lat="32.5927180" lon="35.1212450">
    <ele>221.2</ele>
    <time>2014-02-21T06:37:23Z</time>
   </trkpt>
   <trkpt lat="32.5927240" lon="35.1212140">
    <ele>221.4</ele>
    <time>2014-02-21T06:37:24Z</time>
   </trkpt>
   <trkpt lat="32.5927350" lon="35.1211570">
    <ele>221.8</ele>
    <time>2014-02-21T06:37:26Z</time>
   </trkpt>
   <trkpt lat="32.5927420" lon="35.1210990">
    <ele>222.2</ele>
    <time>2014-02-21T06:37:28Z</time>
   </trkpt>
   <trkpt lat="32.5927390" lon="35.1210440">
    <ele>222.7</ele>
    <time>2014-02-21T06:37:30Z</time>
   </trkpt>
   <trkpt lat="32.5927290" lon="35.1209930">
    <ele>223.2</ele>
    <time>2014-02-21T06:37:32Z</time>
   </trkpt>
   <trkpt lat="32.5927220" lon="35.1209580">
    <ele>223.5</ele>
    <time>2014-02-21T06:37:33Z</time>
   </trkpt>
   <trkpt lat="32.5927110" lon="35.1209230">
    <ele>223.9</ele>
    <time>2014-02-21T06:37:34Z</time>
   </trkpt>
   <trkpt lat="32.5926910" lon="35.1208950">
    <ele>224.3</ele>
    <time>2014-02-21T06:37:35Z</time>
   </trkpt>
   <trkpt lat="32.5926570" lon="35.1208860">
    <ele>224.6</ele>
    <time>2014-02-21T06:37:36Z</time>
   </trkpt>
   <trkpt lat="32.5926170" lon="35.1208980">
    <ele>224.8</ele>
    <time>2014-02-21T06:37:37Z</time>
   </trkpt>
   <trkpt lat="32.5925110" lon="35.1209590">
    <ele>225.0</ele>
    <time>2014-02-21T06:37:38Z</time>
   </trkpt>
   <trkpt lat="32.5924370" lon="35.1209770">
    <ele>225.4</ele>
    <time>2014-02-21T06:37:39Z</time>
   </trkpt>
   <trkpt lat="32.5923560" lon="35.1209720">
    <ele>226.0</ele>
    <time>2014-02-21T06:37:40Z</time>
   </trkpt>
   <trkpt lat="32.5922770" lon="35.1209890">
    <ele>226.4</ele>
    <time>2014-02-21T06:37:41Z</time>
   </trkpt>
   <trkpt lat="32.5922060" lon="35.1210270">
    <ele>226.6</ele>
    <time>2014-02-21T06:37:42Z</time>
   </trkpt>
   <trkpt lat="32.5921700" lon="35.1211180">
    <ele>225.9</ele>
    <time>2014-02-21T06:37:43Z</time>
   </trkpt>
   <trkpt lat="32.5921480" lon="35.1212050">
    <ele>225.1</ele>
    <time>2014-02-21T06:37:44Z</time>
   </trkpt>
   <trkpt lat="32.5921360" lon="35.1212910">
    <ele>224.6</ele>
    <time>2014-02-21T06:37:45Z</time>
   </trkpt>
   <trkpt lat="32.5921120" lon="35.1213800">
    <ele>224.4</ele>
    <time>2014-02-21T06:37:46Z</time>
   </trkpt>
   <trkpt lat="32.5920870" lon="35.1214730">
    <ele>224.2</ele>
    <time>2014-02-21T06:37:47Z</time>
   </trkpt>
   <trkpt lat="32.5920660" lon="35.1215640">
    <ele>224.2</ele>
    <time>2014-02-21T06:37:48Z</time>
   </trkpt>
   <trkpt lat="32.5920370" lon="35.1216670">
    <ele>224.3</ele>
    <time>2014-02-21T06:37:49Z</time>
   </trkpt>
   <trkpt lat="32.5920110" lon="35.1217670">
    <ele>224.3</ele>
    <time>2014-02-21T06:37:50Z</time>
   </trkpt>
   <trkpt lat="32.5919930" lon="35.1218810">
    <ele>224.1</ele>
    <time>2014-02-21T06:37:51Z</time>
   </trkpt>
   <trkpt lat="32.5919600" lon="35.1219740">
    <ele>224.2</ele>
    <time>2014-02-21T06:37:52Z</time>
   </trkpt>
   <trkpt lat="32.5919380" lon="35.1220960">
    <ele>224.0</ele>
    <time>2014-02-21T06:37:53Z</time>
   </trkpt>
   <trkpt lat="32.5919020" lon="35.1222160">
    <ele>223.3</ele>
    <time>2014-02-21T06:37:54Z</time>
   </trkpt>
   <trkpt lat="32.5918560" lon="35.1223240">
    <ele>222.8</ele>
    <time>2014-02-21T06:37:55Z</time>
   </trkpt>
   <trkpt lat="32.5917940" lon="35.1223920">
    <ele>222.8</ele>
    <time>2014-02-21T06:37:56Z</time>
   </trkpt>
   <trkpt lat="32.5917320" lon="35.1224740">
    <ele>222.5</ele>
    <time>2014-02-21T06:37:57Z</time>
   </trkpt>
   <trkpt lat="32.5916370" lon="35.1225390">
    <ele>222.5</ele>
    <time>2014-02-21T06:37:58Z</time>
   </trkpt>
   <trkpt lat="32.5915450" lon="35.1225700">
    <ele>222.9</ele>
    <time>2014-02-21T06:37:59Z</time>
   </trkpt>
   <trkpt lat="32.5914510" lon="35.1225590">
    <ele>223.8</ele>
    <time>2014-02-21T06:38:00Z</time>
   </trkpt>
   <trkpt lat="32.5913850" lon="35.1225490">
    <ele>224.5</ele>
    <time>2014-02-21T06:38:01Z</time>
   </trkpt>
   <trkpt lat="32.5913110" lon="35.1225420">
    <ele>225.2</ele>
    <time>2014-02-21T06:38:02Z</time>
   </trkpt>
   <trkpt lat="32.5912400" lon="35.1225550">
    <ele>225.5</ele>
    <time>2014-02-21T06:38:03Z</time>
   </trkpt>
   <trkpt lat="32.5911750" lon="35.1225620">
    <ele>225.5</ele>
    <time>2014-02-21T06:38:04Z</time>
   </trkpt>
   <trkpt lat="32.5911090" lon="35.1225760">
    <ele>225.4</ele>
    <time>2014-02-21T06:38:05Z</time>
   </trkpt>
   <trkpt lat="32.5910580" lon="35.1225730">
    <ele>225.6</ele>
    <time>2014-02-21T06:38:06Z</time>
   </trkpt>
   <trkpt lat="32.5910160" lon="35.1226080">
    <ele>225.0</ele>
    <time>2014-02-21T06:38:07Z</time>
   </trkpt>
   <trkpt lat="32.5909830" lon="35.1225970">
    <ele>225.3</ele>
    <time>2014-02-21T06:38:10Z</time>
   </trkpt>
   <trkpt lat="32.5909610" lon="35.1225580">
    <ele>226.0</ele>
    <time>2014-02-21T06:38:15Z</time>
   </trkpt>
   <trkpt lat="32.5909210" lon="35.1225460">
    <ele>226.3</ele>
    <time>2014-02-21T06:38:18Z</time>
   </trkpt>
   <trkpt lat="32.5908740" lon="35.1225390">
    <ele>226.5</ele>
    <time>2014-02-21T06:38:20Z</time>
   </trkpt>
   <trkpt lat="32.5908280" lon="35.1225290">
    <ele>226.8</ele>
    <time>2014-02-21T06:38:22Z</time>
   </trkpt>
   <trkpt lat="32.5908020" lon="35.1225200">
    <ele>227.0</ele>
    <time>2014-02-21T06:38:23Z</time>
   </trkpt>
   <trkpt lat="32.5907750" lon="35.1225080">
    <ele>227.2</ele>
    <time>2014-02-21T06:38:24Z</time>
   </trkpt>
   <trkpt lat="32.5907480" lon="35.1224970">
    <ele>227.5</ele>
    <time>2014-02-21T06:38:25Z</time>
   </trkpt>
   <trkpt lat="32.5907230" lon="35.1224870">
    <ele>227.7</ele>
    <time>2014-02-21T06:38:26Z</time>
   </trkpt>
   <trkpt lat="32.5906760" lon="35.1224660">
    <ele>228.1</ele>
    <time>2014-02-21T06:38:28Z</time>
   </trkpt>
   <trkpt lat="32.5906330" lon="35.1224390">
    <ele>228.7</ele>
    <time>2014-02-21T06:38:30Z</time>
   </trkpt>
   <trkpt lat="32.5905900" lon="35.1224170">
    <ele>229.1</ele>
    <time>2014-02-21T06:38:32Z</time>
   </trkpt>
   <trkpt lat="32.5905460" lon="35.1223960">
    <ele>229.5</ele>
    <time>2014-02-21T06:38:34Z</time>
   </trkpt>
   <trkpt lat="32.5904960" lon="35.1223830">
    <ele>229.8</ele>
    <time>2014-02-21T06:38:36Z</time>
   </trkpt>
   <trkpt lat="32.5904700" lon="35.1223750">
    <ele>230.0</ele>
    <time>2014-02-21T06:38:37Z</time>
   </trkpt>
   <trkpt lat="32.5904430" lon="35.1223660">
    <ele>230.2</ele>
    <time>2014-02-21T06:38:38Z</time>
   </trkpt>
   <trkpt lat="32.5904150" lon="35.1223540">
    <ele>230.4</ele>
    <time>2014-02-21T06:38:39Z</time>
   </trkpt>
   <trkpt lat="32.5903860" lon="35.1223420">
    <ele>230.4</ele>
    <time>2014-02-21T06:38:40Z</time>
   </trkpt>
   <trkpt lat="32.5903490" lon="35.1223240">
    <ele>230.3</ele>
    <time>2014-02-21T06:38:41Z</time>
   </trkpt>
   <trkpt lat="32.5903150" lon="35.1223060">
    <ele>230.2</ele>
    <time>2014-02-21T06:38:42Z</time>
   </trkpt>
   <trkpt lat="32.5902810" lon="35.1222880">
    <ele>230.1</ele>
    <time>2014-02-21T06:38:43Z</time>
   </trkpt>
   <trkpt lat="32.5902460" lon="35.1222700">
    <ele>229.9</ele>
    <time>2014-02-21T06:38:44Z</time>
   </trkpt>
   <trkpt lat="32.5902130" lon="35.1222520">
    <ele>229.7</ele>
    <time>2014-02-21T06:38:45Z</time>
   </trkpt>
   <trkpt lat="32.5901830" lon="35.1222350">
    <ele>229.5</ele>
    <time>2014-02-21T06:38:46Z</time>
   </trkpt>
   <trkpt lat="32.5901560" lon="35.1222200">
    <ele>229.4</ele>
    <time>2014-02-21T06:38:47Z</time>
   </trkpt>
   <trkpt lat="32.5901070" lon="35.1221990">
    <ele>228.9</ele>
    <time>2014-02-21T06:38:49Z</time>
   </trkpt>
   <trkpt lat="32.5900610" lon="35.1221760">
    <ele>228.4</ele>
    <time>2014-02-21T06:38:51Z</time>
   </trkpt>
   <trkpt lat="32.5900180" lon="35.1221420">
    <ele>228.0</ele>
    <time>2014-02-21T06:38:53Z</time>
   </trkpt>
   <trkpt lat="32.5899930" lon="35.1221250">
    <ele>227.7</ele>
    <time>2014-02-21T06:38:54Z</time>
   </trkpt>
   <trkpt lat="32.5899660" lon="35.1221110">
    <ele>227.3</ele>
    <time>2014-02-21T06:38:55Z</time>
   </trkpt>
   <trkpt lat="32.5899380" lon="35.1220960">
    <ele>226.9</ele>
    <time>2014-02-21T06:38:56Z</time>
   </trkpt>
   <trkpt lat="32.5899100" lon="35.1220780">
    <ele>226.5</ele>
    <time>2014-02-21T06:38:57Z</time>
   </trkpt>
   <trkpt lat="32.5898800" lon="35.1220600">
    <ele>226.1</ele>
    <time>2014-02-21T06:38:58Z</time>
   </trkpt>
   <trkpt lat="32.5898500" lon="35.1220400">
    <ele>225.6</ele>
    <time>2014-02-21T06:38:59Z</time>
   </trkpt>
   <trkpt lat="32.5898230" lon="35.1220200">
    <ele>225.3</ele>
    <time>2014-02-21T06:39:00Z</time>
   </trkpt>
   <trkpt lat="32.5897950" lon="35.1219990">
    <ele>224.9</ele>
    <time>2014-02-21T06:39:01Z</time>
   </trkpt>
   <trkpt lat="32.5897690" lon="35.1219770">
    <ele>224.5</ele>
    <time>2014-02-21T06:39:02Z</time>
   </trkpt>
   <trkpt lat="32.5897410" lon="35.1219560">
    <ele>224.1</ele>
    <time>2014-02-21T06:39:03Z</time>
   </trkpt>
   <trkpt lat="32.5897120" lon="35.1219410">
    <ele>223.7</ele>
    <time>2014-02-21T06:39:04Z</time>
   </trkpt>
   <trkpt lat="32.5896830" lon="35.1219290">
    <ele>223.2</ele>
    <time>2014-02-21T06:39:05Z</time>
   </trkpt>
   <trkpt lat="32.5896340" lon="35.1219050">
    <ele>222.5</ele>
    <time>2014-02-21T06:39:07Z</time>
   </trkpt>
   <trkpt lat="32.5895830" lon="35.1218840">
    <ele>221.7</ele>
    <time>2014-02-21T06:39:09Z</time>
   </trkpt>
   <trkpt lat="32.5895590" lon="35.1218680">
    <ele>221.8</ele>
    <time>2014-02-21T06:39:10Z</time>
   </trkpt>
   <trkpt lat="32.5895320" lon="35.1218520">
    <ele>221.9</ele>
    <time>2014-02-21T06:39:11Z</time>
   </trkpt>
   <trkpt lat="32.5895020" lon="35.1218360">
    <ele>221.9</ele>
    <time>2014-02-21T06:39:12Z</time>
   </trkpt>
   <trkpt lat="32.5894690" lon="35.1218260">
    <ele>222.0</ele>
    <time>2014-02-21T06:39:13Z</time>
   </trkpt>
   <trkpt lat="32.5894330" lon="35.1218150">
    <ele>222.0</ele>
    <time>2014-02-21T06:39:14Z</time>
   </trkpt>
   <trkpt lat="32.5893990" lon="35.1218050">
    <ele>222.1</ele>
    <time>2014-02-21T06:39:15Z</time>
   </trkpt>
   <trkpt lat="32.5893640" lon="35.1217930">
    <ele>222.1</ele>
    <time>2014-02-21T06:39:16Z</time>
   </trkpt>
   <trkpt lat="32.5893300" lon="35.1217790">
    <ele>222.2</ele>
    <time>2014-02-21T06:39:17Z</time>
   </trkpt>
   <trkpt lat="32.5892970" lon="35.1217630">
    <ele>222.2</ele>
    <time>2014-02-21T06:39:18Z</time>
   </trkpt>
   <trkpt lat="32.5892660" lon="35.1217440">
    <ele>222.3</ele>
    <time>2014-02-21T06:39:19Z</time>
   </trkpt>
   <trkpt lat="32.5892340" lon="35.1217250">
    <ele>222.3</ele>
    <time>2014-02-21T06:39:20Z</time>
   </trkpt>
   <trkpt lat="32.5892010" lon="35.1217090">
    <ele>222.4</ele>
    <time>2014-02-21T06:39:21Z</time>
   </trkpt>
   <trkpt lat="32.5891670" lon="35.1216940">
    <ele>222.4</ele>
    <time>2014-02-21T06:39:22Z</time>
   </trkpt>
   <trkpt lat="32.5891340" lon="35.1216800">
    <ele>222.5</ele>
    <time>2014-02-21T06:39:23Z</time>
   </trkpt>
   <trkpt lat="32.5891020" lon="35.1216660">
    <ele>222.5</ele>
    <time>2014-02-21T06:39:24Z</time>
   </trkpt>
   <trkpt lat="32.5890700" lon="35.1216520">
    <ele>222.5</ele>
    <time>2014-02-21T06:39:25Z</time>
   </trkpt>
   <trkpt lat="32.5890400" lon="35.1216360">
    <ele>222.6</ele>
    <time>2014-02-21T06:39:26Z</time>
   </trkpt>
   <trkpt lat="32.5890140" lon="35.1216170">
    <ele>222.6</ele>
    <time>2014-02-21T06:39:27Z</time>
   </trkpt>
   <trkpt lat="32.5889900" lon="35.1215950">
    <ele>222.6</ele>
    <time>2014-02-21T06:39:28Z</time>
   </trkpt>
   <trkpt lat="32.5889620" lon="35.1215780">
    <ele>222.7</ele>
    <time>2014-02-21T06:39:29Z</time>
   </trkpt>
   <trkpt lat="32.5889320" lon="35.1215640">
    <ele>222.7</ele>
    <time>2014-02-21T06:39:30Z</time>
   </trkpt>
   <trkpt lat="32.5889010" lon="35.1215520">
    <ele>222.7</ele>
    <time>2014-02-21T06:39:31Z</time>
   </trkpt>
   <trkpt lat="32.5888740" lon="35.1215400">
    <ele>222.7</ele>
    <time>2014-02-21T06:39:32Z</time>
   </trkpt>
   <trkpt lat="32.5888450" lon="35.1215280">
    <ele>222.7</ele>
    <time>2014-02-21T06:39:33Z</time>
   </trkpt>
   <trkpt lat="32.5888140" lon="35.1215190">
    <ele>222.7</ele>
    <time>2014-02-21T06:39:34Z</time>
   </trkpt>
   <trkpt lat="32.5887840" lon="35.1215110">
    <ele>222.7</ele>
    <time>2014-02-21T06:39:35Z</time>
   </trkpt>
   <trkpt lat="32.5887540" lon="35.1215050">
    <ele>222.7</ele>
    <time>2014-02-21T06:39:36Z</time>
   </trkpt>
   <trkpt lat="32.5887270" lon="35.1215000">
    <ele>223.0</ele>
    <time>2014-02-21T06:39:37Z</time>
   </trkpt>
   <trkpt lat="32.5886850" lon="35.1214950">
    <ele>223.4</ele>
    <time>2014-02-21T06:39:39Z</time>
   </trkpt>
   <trkpt lat="32.5886430" lon="35.1214740">
    <ele>223.9</ele>
    <time>2014-02-21T06:39:42Z</time>
   </trkpt>
   <trkpt lat="32.5886150" lon="35.1214730">
    <ele>224.3</ele>
    <time>2014-02-21T06:39:43Z</time>
   </trkpt>
   <trkpt lat="32.5885810" lon="35.1214750">
    <ele>224.6</ele>
    <time>2014-02-21T06:39:44Z</time>
   </trkpt>
   <trkpt lat="32.5885510" lon="35.1214770">
    <ele>225.0</ele>
    <time>2014-02-21T06:39:45Z</time>
   </trkpt>
   <trkpt lat="32.5885220" lon="35.1214780">
    <ele>225.3</ele>
    <time>2014-02-21T06:39:46Z</time>
   </trkpt>
   <trkpt lat="32.5884700" lon="35.1214670">
    <ele>225.9</ele>
    <time>2014-02-21T06:39:48Z</time>
   </trkpt>
   <trkpt lat="32.5884420" lon="35.1214590">
    <ele>226.3</ele>
    <time>2014-02-21T06:39:49Z</time>
   </trkpt>
   <trkpt lat="32.5884150" lon="35.1214540">
    <ele>226.6</ele>
    <time>2014-02-21T06:39:50Z</time>
   </trkpt>
   <trkpt lat="32.5883660" lon="35.1214530">
    <ele>227.2</ele>
    <time>2014-02-21T06:39:52Z</time>
   </trkpt>
   <trkpt lat="32.5883200" lon="35.1214790">
    <ele>227.6</ele>
    <time>2014-02-21T06:39:54Z</time>
   </trkpt>
   <trkpt lat="32.5882800" lon="35.1215140">
    <ele>227.8</ele>
    <time>2014-02-21T06:39:56Z</time>
   </trkpt>
   <trkpt lat="32.5882410" lon="35.1215450">
    <ele>228.1</ele>
    <time>2014-02-21T06:39:58Z</time>
   </trkpt>
   <trkpt lat="32.5882010" lon="35.1215640">
    <ele>228.4</ele>
    <time>2014-02-21T06:40:00Z</time>
   </trkpt>
   <trkpt lat="32.5881700" lon="35.1215700">
    <ele>228.7</ele>
    <time>2014-02-21T06:40:02Z</time>
   </trkpt>
   <trkpt lat="32.5881340" lon="35.1215890">
    <ele>228.9</ele>
    <time>2014-02-21T06:40:05Z</time>
   </trkpt>
   <trkpt lat="32.5881060" lon="35.1216090">
    <ele>229.1</ele>
    <time>2014-02-21T06:40:07Z</time>
   </trkpt>
   <trkpt lat="32.5880610" lon="35.1216430">
    <ele>229.3</ele>
    <time>2014-02-21T06:40:09Z</time>
   </trkpt>
   <trkpt lat="32.5880380" lon="35.1216590">
    <ele>229.4</ele>
    <time>2014-02-21T06:40:10Z</time>
   </trkpt>
   <trkpt lat="32.5880120" lon="35.1216730">
    <ele>229.5</ele>
    <time>2014-02-21T06:40:11Z</time>
   </trkpt>
   <trkpt lat="32.5879820" lon="35.1216880">
    <ele>229.7</ele>
    <time>2014-02-21T06:40:12Z</time>
   </trkpt>
   <trkpt lat="32.5879520" lon="35.1216970">
    <ele>229.9</ele>
    <time>2014-02-21T06:40:13Z</time>
   </trkpt>
   <trkpt lat="32.5879220" lon="35.1217030">
    <ele>230.1</ele>
    <time>2014-02-21T06:40:14Z</time>
   </trkpt>
   <trkpt lat="32.5878940" lon="35.1217050">
    <ele>230.4</ele>
    <time>2014-02-21T06:40:15Z</time>
   </trkpt>
   <trkpt lat="32.5878660" lon="35.1217080">
    <ele>230.6</ele>
    <time>2014-02-21T06:40:16Z</time>
   </trkpt>
   <trkpt lat="32.5878140" lon="35.1217080">
    <ele>231.0</ele>
    <time>2014-02-21T06:40:18Z</time>
   </trkpt>
   <trkpt lat="32.5877650" lon="35.1217010">
    <ele>231.5</ele>
    <time>2014-02-21T06:40:20Z</time>
   </trkpt>
   <trkpt lat="32.5877210" lon="35.1216930">
    <ele>231.9</ele>
    <time>2014-02-21T06:40:22Z</time>
   </trkpt>
   <trkpt lat="32.5876830" lon="35.1216810">
    <ele>232.3</ele>
    <time>2014-02-21T06:40:24Z</time>
   </trkpt>
   <trkpt lat="32.5876460" lon="35.1216640">
    <ele>232.8</ele>
    <time>2014-02-21T06:40:26Z</time>
   </trkpt>
   <trkpt lat="32.5876090" lon="35.1216610">
    <ele>233.1</ele>
    <time>2014-02-21T06:40:28Z</time>
   </trkpt>
   <trkpt lat="32.5875710" lon="35.1216630">
    <ele>233.4</ele>
    <time>2014-02-21T06:40:30Z</time>
   </trkpt>
   <trkpt lat="32.5875330" lon="35.1216670">
    <ele>233.7</ele>
    <time>2014-02-21T06:40:32Z</time>
   </trkpt>
   <trkpt lat="32.5874960" lon="35.1216710">
    <ele>234.0</ele>
    <time>2014-02-21T06:40:34Z</time>
   </trkpt>
   <trkpt lat="32.5874580" lon="35.1216780">
    <ele>234.2</ele>
    <time>2014-02-21T06:40:36Z</time>
   </trkpt>
   <trkpt lat="32.5874200" lon="35.1216780">
    <ele>234.5</ele>
    <time>2014-02-21T06:40:38Z</time>
   </trkpt>
   <trkpt lat="32.5873780" lon="35.1216760">
    <ele>234.9</ele>
    <time>2014-02-21T06:40:40Z</time>
   </trkpt>
   <trkpt lat="32.5873350" lon="35.1216740">
    <ele>235.3</ele>
    <time>2014-02-21T06:40:42Z</time>
   </trkpt>
   <trkpt lat="32.5872950" lon="35.1216690">
    <ele>235.7</ele>
    <time>2014-02-21T06:40:44Z</time>
   </trkpt>
   <trkpt lat="32.5872550" lon="35.1216650">
    <ele>236.1</ele>
    <time>2014-02-21T06:40:46Z</time>
   </trkpt>
   <trkpt lat="32.5872120" lon="35.1216650">
    <ele>236.4</ele>
    <time>2014-02-21T06:40:48Z</time>
   </trkpt>
   <trkpt lat="32.5871630" lon="35.1216660">
    <ele>236.8</ele>
    <time>2014-02-21T06:40:50Z</time>
   </trkpt>
   <trkpt lat="32.5871240" lon="35.1216690">
    <ele>237.1</ele>
    <time>2014-02-21T06:40:52Z</time>
   </trkpt>
   <trkpt lat="32.5870830" lon="35.1216680">
    <ele>237.5</ele>
    <time>2014-02-21T06:40:54Z</time>
   </trkpt>
   <trkpt lat="32.5870410" lon="35.1216700">
    <ele>237.9</ele>
    <time>2014-02-21T06:40:56Z</time>
   </trkpt>
   <trkpt lat="32.5869980" lon="35.1216810">
    <ele>238.2</ele>
    <time>2014-02-21T06:40:58Z</time>
   </trkpt>
   <trkpt lat="32.5869570" lon="35.1216970">
    <ele>238.4</ele>
    <time>2014-02-21T06:41:00Z</time>
   </trkpt>
   <trkpt lat="32.5869130" lon="35.1217080">
    <ele>238.6</ele>
    <time>2014-02-21T06:41:02Z</time>
   </trkpt>
   <trkpt lat="32.5868700" lon="35.1217100">
    <ele>239.0</ele>
    <time>2014-02-21T06:41:04Z</time>
   </trkpt>
   <trkpt lat="32.5868290" lon="35.1217100">
    <ele>239.4</ele>
    <time>2014-02-21T06:41:06Z</time>
   </trkpt>
   <trkpt lat="32.5867860" lon="35.1217150">
    <ele>239.8</ele>
    <time>2014-02-21T06:41:08Z</time>
   </trkpt>
   <trkpt lat="32.5867420" lon="35.1217220">
    <ele>240.1</ele>
    <time>2014-02-21T06:41:10Z</time>
   </trkpt>
   <trkpt lat="32.5866980" lon="35.1217250">
    <ele>240.5</ele>
    <time>2014-02-21T06:41:12Z</time>
   </trkpt>
   <trkpt lat="32.5866530" lon="35.1217240">
    <ele>241.0</ele>
    <time>2014-02-21T06:41:14Z</time>
   </trkpt>
   <trkpt lat="32.5866030" lon="35.1217250">
    <ele>241.4</ele>
    <time>2014-02-21T06:41:16Z</time>
   </trkpt>
   <trkpt lat="32.5865540" lon="35.1217250">
    <ele>241.9</ele>
    <time>2014-02-21T06:41:18Z</time>
   </trkpt>
   <trkpt lat="32.5865050" lon="35.1217250">
    <ele>242.4</ele>
    <time>2014-02-21T06:41:20Z</time>
   </trkpt>
   <trkpt lat="32.5864550" lon="35.1217270">
    <ele>242.8</ele>
    <time>2014-02-21T06:41:22Z</time>
   </trkpt>
   <trkpt lat="32.5864030" lon="35.1217290">
    <ele>243.3</ele>
    <time>2014-02-21T06:41:24Z</time>
   </trkpt>
   <trkpt lat="32.5863520" lon="35.1217380">
    <ele>243.6</ele>
    <time>2014-02-21T06:41:26Z</time>
   </trkpt>
   <trkpt lat="32.5863050" lon="35.1217500">
    <ele>243.9</ele>
    <time>2014-02-21T06:41:28Z</time>
   </trkpt>
   <trkpt lat="32.5862580" lon="35.1217580">
    <ele>244.2</ele>
    <time>2014-02-21T06:41:30Z</time>
   </trkpt>
   <trkpt lat="32.5862110" lon="35.1217670">
    <ele>244.1</ele>
    <time>2014-02-21T06:41:32Z</time>
   </trkpt>
   <trkpt lat="32.5861640" lon="35.1217790">
    <ele>243.9</ele>
    <time>2014-02-21T06:41:34Z</time>
   </trkpt>
   <trkpt lat="32.5861190" lon="35.1217880">
    <ele>243.8</ele>
    <time>2014-02-21T06:41:36Z</time>
   </trkpt>
   <trkpt lat="32.5860750" lon="35.1217920">
    <ele>243.7</ele>
    <time>2014-02-21T06:41:38Z</time>
   </trkpt>
   <trkpt lat="32.5860330" lon="35.1217920">
    <ele>243.8</ele>
    <time>2014-02-21T06:41:40Z</time>
   </trkpt>
   <trkpt lat="32.5859890" lon="35.1217940">
    <ele>243.7</ele>
    <time>2014-02-21T06:41:42Z</time>
   </trkpt>
   <trkpt lat="32.5859400" lon="35.1217950">
    <ele>243.8</ele>
    <time>2014-02-21T06:41:44Z</time>
   </trkpt>
   <trkpt lat="32.5858920" lon="35.1217950">
    <ele>243.8</ele>
    <time>2014-02-21T06:41:46Z</time>
   </trkpt>
   <trkpt lat="32.5858420" lon="35.1217950">
    <ele>243.8</ele>
    <time>2014-02-21T06:41:48Z</time>
   </trkpt>
   <trkpt lat="32.5857920" lon="35.1217940">
    <ele>243.9</ele>
    <time>2014-02-21T06:41:50Z</time>
   </trkpt>
   <trkpt lat="32.5857430" lon="35.1217900">
    <ele>244.0</ele>
    <time>2014-02-21T06:41:52Z</time>
   </trkpt>
   <trkpt lat="32.5856920" lon="35.1217860">
    <ele>244.1</ele>
    <time>2014-02-21T06:41:54Z</time>
   </trkpt>
   <trkpt lat="32.5856390" lon="35.1217840">
    <ele>244.2</ele>
    <time>2014-02-21T06:41:56Z</time>
   </trkpt>
   <trkpt lat="32.5855860" lon="35.1217840">
    <ele>244.2</ele>
    <time>2014-02-21T06:41:58Z</time>
   </trkpt>
   <trkpt lat="32.5855370" lon="35.1217740">
    <ele>244.4</ele>
    <time>2014-02-21T06:42:00Z</time>
   </trkpt>
   <trkpt lat="32.5854890" lon="35.1217570">
    <ele>244.7</ele>
    <time>2014-02-21T06:42:02Z</time>
   </trkpt>
   <trkpt lat="32.5854380" lon="35.1217490">
    <ele>244.8</ele>
    <time>2014-02-21T06:42:04Z</time>
   </trkpt>
   <trkpt lat="32.5853900" lon="35.1217380">
    <ele>244.9</ele>
    <time>2014-02-21T06:42:06Z</time>
   </trkpt>
   <trkpt lat="32.5853460" lon="35.1217230">
    <ele>245.0</ele>
    <time>2014-02-21T06:42:08Z</time>
   </trkpt>
   <trkpt lat="32.5853000" lon="35.1217100">
    <ele>245.1</ele>
    <time>2014-02-21T06:42:10Z</time>
   </trkpt>
   <trkpt lat="32.5852530" lon="35.1216920">
    <ele>245.2</ele>
    <time>2014-02-21T06:42:12Z</time>
   </trkpt>
   <trkpt lat="32.5852080" lon="35.1216710">
    <ele>245.3</ele>
    <time>2014-02-21T06:42:14Z</time>
   </trkpt>
   <trkpt lat="32.5851620" lon="35.1216500">
    <ele>245.4</ele>
    <time>2014-02-21T06:42:16Z</time>
   </trkpt>
   <trkpt lat="32.5851170" lon="35.1216300">
    <ele>245.5</ele>
    <time>2014-02-21T06:42:18Z</time>
   </trkpt>
   <trkpt lat="32.5850730" lon="35.1216080">
    <ele>245.6</ele>
    <time>2014-02-21T06:42:20Z</time>
   </trkpt>
   <trkpt lat="32.5850280" lon="35.1215860">
    <ele>245.7</ele>
    <time>2014-02-21T06:42:22Z</time>
   </trkpt>
   <trkpt lat="32.5849770" lon="35.1215860">
    <ele>245.5</ele>
    <time>2014-02-21T06:42:24Z</time>
   </trkpt>
   <trkpt lat="32.5849510" lon="35.1216000">
    <ele>245.3</ele>
    <time>2014-02-21T06:42:25Z</time>
   </trkpt>
   <trkpt lat="32.5849250" lon="35.1216170">
    <ele>245.0</ele>
    <time>2014-02-21T06:42:26Z</time>
   </trkpt>
   <trkpt lat="32.5849000" lon="35.1216350">
    <ele>244.7</ele>
    <time>2014-02-21T06:42:27Z</time>
   </trkpt>
   <trkpt lat="32.5848760" lon="35.1216540">
    <ele>244.5</ele>
    <time>2014-02-21T06:42:28Z</time>
   </trkpt>
   <trkpt lat="32.5848560" lon="35.1216770">
    <ele>244.2</ele>
    <time>2014-02-21T06:42:29Z</time>
   </trkpt>
   <trkpt lat="32.5848370" lon="35.1217040">
    <ele>243.9</ele>
    <time>2014-02-21T06:42:30Z</time>
   </trkpt>
   <trkpt lat="32.5848170" lon="35.1217320">
    <ele>243.7</ele>
    <time>2014-02-21T06:42:31Z</time>
   </trkpt>
   <trkpt lat="32.5847950" lon="35.1217640">
    <ele>243.3</ele>
    <time>2014-02-21T06:42:32Z</time>
   </trkpt>
   <trkpt lat="32.5847720" lon="35.1217890">
    <ele>243.1</ele>
    <time>2014-02-21T06:42:33Z</time>
   </trkpt>
   <trkpt lat="32.5847480" lon="35.1218110">
    <ele>242.9</ele>
    <time>2014-02-21T06:42:34Z</time>
   </trkpt>
   <trkpt lat="32.5847230" lon="35.1218320">
    <ele>242.7</ele>
    <time>2014-02-21T06:42:35Z</time>
   </trkpt>
   <trkpt lat="32.5847000" lon="35.1218530">
    <ele>242.5</ele>
    <time>2014-02-21T06:42:36Z</time>
   </trkpt>
   <trkpt lat="32.5846760" lon="35.1218720">
    <ele>242.4</ele>
    <time>2014-02-21T06:42:37Z</time>
   </trkpt>
   <trkpt lat="32.5846510" lon="35.1218880">
    <ele>242.2</ele>
    <time>2014-02-21T06:42:38Z</time>
   </trkpt>
   <trkpt lat="32.5846260" lon="35.1219020">
    <ele>242.1</ele>
    <time>2014-02-21T06:42:39Z</time>
   </trkpt>
   <trkpt lat="32.5846000" lon="35.1219160">
    <ele>242.0</ele>
    <time>2014-02-21T06:42:40Z</time>
   </trkpt>
   <trkpt lat="32.5845750" lon="35.1219300">
    <ele>242.0</ele>
    <time>2014-02-21T06:42:41Z</time>
   </trkpt>
   <trkpt lat="32.5845490" lon="35.1219430">
    <ele>242.3</ele>
    <time>2014-02-21T06:42:42Z</time>
   </trkpt>
   <trkpt lat="32.5845240" lon="35.1219540">
    <ele>242.6</ele>
    <time>2014-02-21T06:42:43Z</time>
   </trkpt>
   <trkpt lat="32.5844840" lon="35.1219800">
    <ele>243.1</ele>
    <time>2014-02-21T06:42:45Z</time>
   </trkpt>
   <trkpt lat="32.5844520" lon="35.1220100">
    <ele>243.4</ele>
    <time>2014-02-21T06:42:47Z</time>
   </trkpt>
   <trkpt lat="32.5844260" lon="35.1220430">
    <ele>243.6</ele>
    <time>2014-02-21T06:42:49Z</time>
   </trkpt>
   <trkpt lat="32.5844050" lon="35.1220790">
    <ele>243.8</ele>
    <time>2014-02-21T06:42:51Z</time>
   </trkpt>
   <trkpt lat="32.5843900" lon="35.1221180">
    <ele>244.2</ele>
    <time>2014-02-21T06:42:53Z</time>
   </trkpt>
   <trkpt lat="32.5843860" lon="35.1221610">
    <ele>244.4</ele>
    <time>2014-02-21T06:42:55Z</time>
   </trkpt>
   <trkpt lat="32.5843840" lon="35.1222060">
    <ele>244.7</ele>
    <time>2014-02-21T06:42:57Z</time>
   </trkpt>
   <trkpt lat="32.5843780" lon="35.1222450">
    <ele>245.0</ele>
    <time>2014-02-21T06:42:59Z</time>
   </trkpt>
   <trkpt lat="32.5843640" lon="35.1222760">
    <ele>245.4</ele>
    <time>2014-02-21T06:43:17Z</time>
   </trkpt>
   <trkpt lat="32.5843830" lon="35.1223080">
    <ele>245.2</ele>
    <time>2014-02-21T06:43:21Z</time>
   </trkpt>
   <trkpt lat="32.5844140" lon="35.1223210">
    <ele>244.7</ele>
    <time>2014-02-21T06:43:24Z</time>
   </trkpt>
   <trkpt lat="32.5844110" lon="35.1222820">
    <ele>244.6</ele>
    <time>2014-02-21T06:43:51Z</time>
   </trkpt>
   <trkpt lat="32.5844300" lon="35.1223140">
    <ele>244.4</ele>
    <time>2014-02-21T06:44:09Z</time>
   </trkpt>
   <trkpt lat="32.5844610" lon="35.1223300">
    <ele>244.0</ele>
    <time>2014-02-21T06:44:12Z</time>
   </trkpt>
   <trkpt lat="32.5844400" lon="35.1223510">
    <ele>244.4</ele>
    <time>2014-02-21T06:44:20Z</time>
   </trkpt>
   <trkpt lat="32.5844120" lon="35.1223440">
    <ele>244.9</ele>
    <time>2014-02-21T06:44:45Z</time>
   </trkpt>
   <trkpt lat="32.5843720" lon="35.1223490">
    <ele>245.6</ele>
    <time>2014-02-21T06:44:48Z</time>
   </trkpt>
   <trkpt lat="32.5843420" lon="35.1223690">
    <ele>246.2</ele>
    <time>2014-02-21T06:44:50Z</time>
   </trkpt>
   <trkpt lat="32.5843210" lon="35.1224010">
    <ele>246.7</ele>
    <time>2014-02-21T06:44:52Z</time>
   </trkpt>
   <trkpt lat="32.5843000" lon="35.1224380">
    <ele>247.3</ele>
    <time>2014-02-21T06:44:54Z</time>
   </trkpt>
   <trkpt lat="32.5842840" lon="35.1224790">
    <ele>247.8</ele>
    <time>2014-02-21T06:44:56Z</time>
   </trkpt>
   <trkpt lat="32.5842700" lon="35.1225230">
    <ele>248.3</ele>
    <time>2014-02-21T06:44:58Z</time>
   </trkpt>
   <trkpt lat="32.5842540" lon="35.1225660">
    <ele>248.8</ele>
    <time>2014-02-21T06:45:00Z</time>
   </trkpt>
   <trkpt lat="32.5842390" lon="35.1226140">
    <ele>249.3</ele>
    <time>2014-02-21T06:45:02Z</time>
   </trkpt>
   <trkpt lat="32.5842230" lon="35.1226610">
    <ele>249.9</ele>
    <time>2014-02-21T06:45:04Z</time>
   </trkpt>
   <trkpt lat="32.5842040" lon="35.1227050">
    <ele>250.5</ele>
    <time>2014-02-21T06:45:06Z</time>
   </trkpt>
   <trkpt lat="32.5841850" lon="35.1227480">
    <ele>251.1</ele>
    <time>2014-02-21T06:45:08Z</time>
   </trkpt>
   <trkpt lat="32.5841670" lon="35.1227920">
    <ele>251.7</ele>
    <time>2014-02-21T06:45:10Z</time>
   </trkpt>
   <trkpt lat="32.5841490" lon="35.1228360">
    <ele>252.4</ele>
    <time>2014-02-21T06:45:12Z</time>
   </trkpt>
   <trkpt lat="32.5841320" lon="35.1228800">
    <ele>253.0</ele>
    <time>2014-02-21T06:45:14Z</time>
   </trkpt>
   <trkpt lat="32.5841170" lon="35.1229250">
    <ele>253.6</ele>
    <time>2014-02-21T06:45:16Z</time>
   </trkpt>
   <trkpt lat="32.5841000" lon="35.1229680">
    <ele>254.1</ele>
    <time>2014-02-21T06:45:18Z</time>
   </trkpt>
   <trkpt lat="32.5840830" lon="35.1230110">
    <ele>254.7</ele>
    <time>2014-02-21T06:45:20Z</time>
   </trkpt>
   <trkpt lat="32.5840650" lon="35.1230510">
    <ele>255.2</ele>
    <time>2014-02-21T06:45:22Z</time>
   </trkpt>
   <trkpt lat="32.5840460" lon="35.1230880">
    <ele>255.8</ele>
    <time>2014-02-21T06:45:24Z</time>
   </trkpt>
   <trkpt lat="32.5840260" lon="35.1231240">
    <ele>256.3</ele>
    <time>2014-02-21T06:45:26Z</time>
   </trkpt>
   <trkpt lat="32.5840030" lon="35.1231600">
    <ele>256.8</ele>
    <time>2014-02-21T06:45:28Z</time>
   </trkpt>
   <trkpt lat="32.5839800" lon="35.1231950">
    <ele>257.3</ele>
    <time>2014-02-21T06:45:30Z</time>
   </trkpt>
   <trkpt lat="32.5839570" lon="35.1232320">
    <ele>257.8</ele>
    <time>2014-02-21T06:45:32Z</time>
   </trkpt>
   <trkpt lat="32.5839320" lon="35.1232670">
    <ele>258.3</ele>
    <time>2014-02-21T06:45:34Z</time>
   </trkpt>
   <trkpt lat="32.5839030" lon="35.1232950">
    <ele>258.8</ele>
    <time>2014-02-21T06:45:36Z</time>
   </trkpt>
   <trkpt lat="32.5838750" lon="35.1233270">
    <ele>259.3</ele>
    <time>2014-02-21T06:45:38Z</time>
   </trkpt>
   <trkpt lat="32.5838480" lon="35.1233610">
    <ele>259.7</ele>
    <time>2014-02-21T06:45:40Z</time>
   </trkpt>
   <trkpt lat="32.5838220" lon="35.1234010">
    <ele>260.1</ele>
    <time>2014-02-21T06:45:42Z</time>
   </trkpt>
   <trkpt lat="32.5837960" lon="35.1234400">
    <ele>260.4</ele>
    <time>2014-02-21T06:45:44Z</time>
   </trkpt>
   <trkpt lat="32.5837710" lon="35.1234750">
    <ele>260.8</ele>
    <time>2014-02-21T06:45:46Z</time>
   </trkpt>
   <trkpt lat="32.5837490" lon="35.1235140">
    <ele>261.0</ele>
    <time>2014-02-21T06:45:48Z</time>
   </trkpt>
   <trkpt lat="32.5837230" lon="35.1235490">
    <ele>261.5</ele>
    <time>2014-02-21T06:45:50Z</time>
   </trkpt>
   <trkpt lat="32.5836990" lon="35.1235860">
    <ele>261.9</ele>
    <time>2014-02-21T06:45:52Z</time>
   </trkpt>
   <trkpt lat="32.5836810" lon="35.1236270">
    <ele>262.2</ele>
    <time>2014-02-21T06:45:54Z</time>
   </trkpt>
   <trkpt lat="32.5836650" lon="35.1236700">
    <ele>262.5</ele>
    <time>2014-02-21T06:45:56Z</time>
   </trkpt>
   <trkpt lat="32.5836540" lon="35.1237110">
    <ele>262.7</ele>
    <time>2014-02-21T06:45:58Z</time>
   </trkpt>
   <trkpt lat="32.5836430" lon="35.1237510">
    <ele>262.9</ele>
    <time>2014-02-21T06:46:00Z</time>
   </trkpt>
   <trkpt lat="32.5836220" lon="35.1237850">
    <ele>263.2</ele>
    <time>2014-02-21T06:46:02Z</time>
   </trkpt>
   <trkpt lat="32.5836020" lon="35.1238190">
    <ele>263.5</ele>
    <time>2014-02-21T06:46:04Z</time>
   </trkpt>
   <trkpt lat="32.5835870" lon="35.1238570">
    <ele>263.7</ele>
    <time>2014-02-21T06:46:06Z</time>
   </trkpt>
   <trkpt lat="32.5835670" lon="35.1238920">
    <ele>264.0</ele>
    <time>2014-02-21T06:46:08Z</time>
   </trkpt>
   <trkpt lat="32.5835450" lon="35.1239290">
    <ele>264.3</ele>
    <time>2014-02-21T06:46:10Z</time>
   </trkpt>
   <trkpt lat="32.5835220" lon="35.1239690">
    <ele>264.6</ele>
    <time>2014-02-21T06:46:12Z</time>
   </trkpt>
   <trkpt lat="32.5835000" lon="35.1240120">
    <ele>264.9</ele>
    <time>2014-02-21T06:46:14Z</time>
   </trkpt>
   <trkpt lat="32.5834790" lon="35.1240550">
    <ele>265.2</ele>
    <time>2014-02-21T06:46:16Z</time>
   </trkpt>
   <trkpt lat="32.5834530" lon="35.1240910">
    <ele>265.5</ele>
    <time>2014-02-21T06:46:18Z</time>
   </trkpt>
   <trkpt lat="32.5834280" lon="35.1241280">
    <ele>265.8</ele>
    <time>2014-02-21T06:46:20Z</time>
   </trkpt>
   <trkpt lat="32.5834070" lon="35.1241700">
    <ele>266.0</ele>
    <time>2014-02-21T06:46:22Z</time>
   </trkpt>
   <trkpt lat="32.5833860" lon="35.1242120">
    <ele>266.3</ele>
    <time>2014-02-21T06:46:24Z</time>
   </trkpt>
   <trkpt lat="32.5833630" lon="35.1242530">
    <ele>266.5</ele>
    <time>2014-02-21T06:46:26Z</time>
   </trkpt>
   <trkpt lat="32.5833430" lon="35.1242960">
    <ele>266.7</ele>
    <time>2014-02-21T06:46:28Z</time>
   </trkpt>
   <trkpt lat="32.5833240" lon="35.1243370">
    <ele>266.9</ele>
    <time>2014-02-21T06:46:30Z</time>
   </trkpt>
   <trkpt lat="32.5833040" lon="35.1243770">
    <ele>267.1</ele>
    <time>2014-02-21T06:46:32Z</time>
   </trkpt>
   <trkpt lat="32.5832840" lon="35.1244170">
    <ele>267.2</ele>
    <time>2014-02-21T06:46:34Z</time>
   </trkpt>
   <trkpt lat="32.5832630" lon="35.1244550">
    <ele>267.4</ele>
    <time>2014-02-21T06:46:36Z</time>
   </trkpt>
   <trkpt lat="32.5832420" lon="35.1244920">
    <ele>267.6</ele>
    <time>2014-02-21T06:46:38Z</time>
   </trkpt>
   <trkpt lat="32.5832220" lon="35.1245300">
    <ele>267.8</ele>
    <time>2014-02-21T06:46:40Z</time>
   </trkpt>
   <trkpt lat="32.5832020" lon="35.1245670">
    <ele>267.9</ele>
    <time>2014-02-21T06:46:42Z</time>
   </trkpt>
   <trkpt lat="32.5831830" lon="35.1246060">
    <ele>268.2</ele>
    <time>2014-02-21T06:46:44Z</time>
   </trkpt>
   <trkpt lat="32.5831640" lon="35.1246440">
    <ele>268.6</ele>
    <time>2014-02-21T06:46:46Z</time>
   </trkpt>
   <trkpt lat="32.5831430" lon="35.1246820">
    <ele>268.9</ele>
    <time>2014-02-21T06:46:48Z</time>
   </trkpt>
   <trkpt lat="32.5831210" lon="35.1247210">
    <ele>269.3</ele>
    <time>2014-02-21T06:46:50Z</time>
   </trkpt>
   <trkpt lat="32.5830990" lon="35.1247610">
    <ele>269.6</ele>
    <time>2014-02-21T06:46:52Z</time>
   </trkpt>
   <trkpt lat="32.5830750" lon="35.1248030">
    <ele>269.8</ele>
    <time>2014-02-21T06:46:54Z</time>
   </trkpt>
   <trkpt lat="32.5830470" lon="35.1248400">
    <ele>270.1</ele>
    <time>2014-02-21T06:46:56Z</time>
   </trkpt>
   <trkpt lat="32.5830200" lon="35.1248720">
    <ele>270.4</ele>
    <time>2014-02-21T06:46:58Z</time>
   </trkpt>
   <trkpt lat="32.5829950" lon="35.1249070">
    <ele>270.6</ele>
    <time>2014-02-21T06:47:00Z</time>
   </trkpt>
   <trkpt lat="32.5829680" lon="35.1249380">
    <ele>270.8</ele>
    <time>2014-02-21T06:47:02Z</time>
   </trkpt>
   <trkpt lat="32.5829460" lon="35.1249750">
    <ele>270.9</ele>
    <time>2014-02-21T06:47:04Z</time>
   </trkpt>
   <trkpt lat="32.5829270" lon="35.1250160">
    <ele>270.9</ele>
    <time>2014-02-21T06:47:06Z</time>
   </trkpt>
   <trkpt lat="32.5829040" lon="35.1250530">
    <ele>271.1</ele>
    <time>2014-02-21T06:47:08Z</time>
   </trkpt>
   <trkpt lat="32.5828830" lon="35.1250930">
    <ele>271.4</ele>
    <time>2014-02-21T06:47:10Z</time>
   </trkpt>
   <trkpt lat="32.5828620" lon="35.1251350">
    <ele>271.6</ele>
    <time>2014-02-21T06:47:12Z</time>
   </trkpt>
   <trkpt lat="32.5828400" lon="35.1251760">
    <ele>271.9</ele>
    <time>2014-02-21T06:47:14Z</time>
   </trkpt>
   <trkpt lat="32.5828190" lon="35.1252170">
    <ele>272.2</ele>
    <time>2014-02-21T06:47:16Z</time>
   </trkpt>
   <trkpt lat="32.5827950" lon="35.1252610">
    <ele>272.5</ele>
    <time>2014-02-21T06:47:18Z</time>
   </trkpt>
   <trkpt lat="32.5827740" lon="35.1253020">
    <ele>272.8</ele>
    <time>2014-02-21T06:47:20Z</time>
   </trkpt>
   <trkpt lat="32.5827540" lon="35.1253440">
    <ele>273.1</ele>
    <time>2014-02-21T06:47:22Z</time>
   </trkpt>
   <trkpt lat="32.5827320" lon="35.1253840">
    <ele>273.4</ele>
    <time>2014-02-21T06:47:24Z</time>
   </trkpt>
   <trkpt lat="32.5827110" lon="35.1254260">
    <ele>273.8</ele>
    <time>2014-02-21T06:47:26Z</time>
   </trkpt>
   <trkpt lat="32.5826920" lon="35.1254710">
    <ele>274.5</ele>
    <time>2014-02-21T06:47:28Z</time>
   </trkpt>
   <trkpt lat="32.5826720" lon="35.1255110">
    <ele>275.1</ele>
    <time>2014-02-21T06:47:30Z</time>
   </trkpt>
   <trkpt lat="32.5826450" lon="35.1255420">
    <ele>275.8</ele>
    <time>2014-02-21T06:47:32Z</time>
   </trkpt>
   <trkpt lat="32.5826280" lon="35.1255840">
    <ele>276.5</ele>
    <time>2014-02-21T06:47:34Z</time>
   </trkpt>
   <trkpt lat="32.5826100" lon="35.1256270">
    <ele>277.1</ele>
    <time>2014-02-21T06:47:36Z</time>
   </trkpt>
   <trkpt lat="32.5825910" lon="35.1256680">
    <ele>277.7</ele>
    <time>2014-02-21T06:47:38Z</time>
   </trkpt>
   <trkpt lat="32.5825760" lon="35.1257150">
    <ele>278.3</ele>
    <time>2014-02-21T06:47:40Z</time>
   </trkpt>
   <trkpt lat="32.5825590" lon="35.1257580">
    <ele>278.8</ele>
    <time>2014-02-21T06:47:42Z</time>
   </trkpt>
   <trkpt lat="32.5825360" lon="35.1257940">
    <ele>279.4</ele>
    <time>2014-02-21T06:47:44Z</time>
   </trkpt>
   <trkpt lat="32.5825120" lon="35.1258280">
    <ele>280.0</ele>
    <time>2014-02-21T06:47:46Z</time>
   </trkpt>
   <trkpt lat="32.5824920" lon="35.1258580">
    <ele>280.5</ele>
    <time>2014-02-21T06:47:48Z</time>
   </trkpt>
   <trkpt lat="32.5824700" lon="35.1258860">
    <ele>281.0</ele>
    <time>2014-02-21T06:47:50Z</time>
   </trkpt>
   <trkpt lat="32.5824500" lon="35.1259200">
    <ele>281.5</ele>
    <time>2014-02-21T06:47:52Z</time>
   </trkpt>
   <trkpt lat="32.5824310" lon="35.1259560">
    <ele>282.0</ele>
    <time>2014-02-21T06:47:54Z</time>
   </trkpt>
   <trkpt lat="32.5824110" lon="35.1259860">
    <ele>282.5</ele>
    <time>2014-02-21T06:47:56Z</time>
   </trkpt>
   <trkpt lat="32.5823880" lon="35.1260150">
    <ele>283.0</ele>
    <time>2014-02-21T06:47:58Z</time>
   </trkpt>
   <trkpt lat="32.5823690" lon="35.1260530">
    <ele>283.5</ele>
    <time>2014-02-21T06:48:00Z</time>
   </trkpt>
   <trkpt lat="32.5823540" lon="35.1260900">
    <ele>283.9</ele>
    <time>2014-02-21T06:48:02Z</time>
   </trkpt>
   <trkpt lat="32.5823410" lon="35.1261320">
    <ele>284.3</ele>
    <time>2014-02-21T06:48:04Z</time>
   </trkpt>
   <trkpt lat="32.5823250" lon="35.1261730">
    <ele>284.7</ele>
    <time>2014-02-21T06:48:06Z</time>
   </trkpt>
   <trkpt lat="32.5823030" lon="35.1262020">
    <ele>285.1</ele>
    <time>2014-02-21T06:48:08Z</time>
   </trkpt>
   <trkpt lat="32.5822850" lon="35.1262330">
    <ele>285.5</ele>
    <time>2014-02-21T06:48:10Z</time>
   </trkpt>
   <trkpt lat="32.5822650" lon="35.1262630">
    <ele>285.8</ele>
    <time>2014-02-21T06:48:12Z</time>
   </trkpt>
   <trkpt lat="32.5822420" lon="35.1262940">
    <ele>286.2</ele>
    <time>2014-02-21T06:48:14Z</time>
   </trkpt>
   <trkpt lat="32.5822230" lon="35.1263350">
    <ele>286.5</ele>
    <time>2014-02-21T06:48:16Z</time>
   </trkpt>
   <trkpt lat="32.5822050" lon="35.1263790">
    <ele>286.7</ele>
    <time>2014-02-21T06:48:18Z</time>
   </trkpt>
   <trkpt lat="32.5821810" lon="35.1264180">
    <ele>287.0</ele>
    <time>2014-02-21T06:48:20Z</time>
   </trkpt>
   <trkpt lat="32.5821570" lon="35.1264580">
    <ele>287.3</ele>
    <time>2014-02-21T06:48:22Z</time>
   </trkpt>
   <trkpt lat="32.5821340" lon="35.1264980">
    <ele>287.5</ele>
    <time>2014-02-21T06:48:24Z</time>
   </trkpt>
   <trkpt lat="32.5821100" lon="35.1265370">
    <ele>287.8</ele>
    <time>2014-02-21T06:48:26Z</time>
   </trkpt>
   <trkpt lat="32.5820850" lon="35.1265730">
    <ele>288.0</ele>
    <time>2014-02-21T06:48:28Z</time>
   </trkpt>
   <trkpt lat="32.5820570" lon="35.1266030">
    <ele>288.3</ele>
    <time>2014-02-21T06:48:30Z</time>
   </trkpt>
   <trkpt lat="32.5820280" lon="35.1266290">
    <ele>288.7</ele>
    <time>2014-02-21T06:48:32Z</time>
   </trkpt>
   <trkpt lat="32.5820060" lon="35.1266690">
    <ele>289.0</ele>
    <time>2014-02-21T06:48:34Z</time>
   </trkpt>
   <trkpt lat="32.5819860" lon="35.1267050">
    <ele>289.2</ele>
    <time>2014-02-21T06:48:36Z</time>
   </trkpt>
   <trkpt lat="32.5819710" lon="35.1267440">
    <ele>289.4</ele>
    <time>2014-02-21T06:48:38Z</time>
   </trkpt>
   <trkpt lat="32.5819550" lon="35.1267840">
    <ele>289.6</ele>
    <time>2014-02-21T06:48:40Z</time>
   </trkpt>
   <trkpt lat="32.5819300" lon="35.1268100">
    <ele>289.8</ele>
    <time>2014-02-21T06:48:42Z</time>
   </trkpt>
   <trkpt lat="32.5819000" lon="35.1268290">
    <ele>290.2</ele>
    <time>2014-02-21T06:48:44Z</time>
   </trkpt>
   <trkpt lat="32.5818720" lon="35.1268530">
    <ele>290.5</ele>
    <time>2014-02-21T06:48:46Z</time>
   </trkpt>
   <trkpt lat="32.5818420" lon="35.1268810">
    <ele>290.8</ele>
    <time>2014-02-21T06:48:48Z</time>
   </trkpt>
   <trkpt lat="32.5818140" lon="35.1269080">
    <ele>291.1</ele>
    <time>2014-02-21T06:48:50Z</time>
   </trkpt>
   <trkpt lat="32.5817850" lon="35.1269340">
    <ele>291.4</ele>
    <time>2014-02-21T06:48:52Z</time>
   </trkpt>
   <trkpt lat="32.5817600" lon="35.1269700">
    <ele>291.7</ele>
    <time>2014-02-21T06:48:54Z</time>
   </trkpt>
   <trkpt lat="32.5817320" lon="35.1270060">
    <ele>291.9</ele>
    <time>2014-02-21T06:48:56Z</time>
   </trkpt>
   <trkpt lat="32.5816970" lon="35.1270400">
    <ele>292.2</ele>
    <time>2014-02-21T06:48:58Z</time>
   </trkpt>
   <trkpt lat="32.5816640" lon="35.1270770">
    <ele>292.5</ele>
    <time>2014-02-21T06:49:00Z</time>
   </trkpt>
   <trkpt lat="32.5816350" lon="35.1271150">
    <ele>292.9</ele>
    <time>2014-02-21T06:49:02Z</time>
   </trkpt>
   <trkpt lat="32.5816060" lon="35.1271470">
    <ele>293.3</ele>
    <time>2014-02-21T06:49:04Z</time>
   </trkpt>
   <trkpt lat="32.5815750" lon="35.1271720">
    <ele>293.6</ele>
    <time>2014-02-21T06:49:06Z</time>
   </trkpt>
   <trkpt lat="32.5815440" lon="35.1271960">
    <ele>294.0</ele>
    <time>2014-02-21T06:49:08Z</time>
   </trkpt>
   <trkpt lat="32.5815100" lon="35.1272160">
    <ele>294.3</ele>
    <time>2014-02-21T06:49:10Z</time>
   </trkpt>
   <trkpt lat="32.5814770" lon="35.1272310">
    <ele>294.7</ele>
    <time>2014-02-21T06:49:12Z</time>
   </trkpt>
   <trkpt lat="32.5814440" lon="35.1272490">
    <ele>295.0</ele>
    <time>2014-02-21T06:49:14Z</time>
   </trkpt>
   <trkpt lat="32.5814130" lon="35.1272730">
    <ele>295.3</ele>
    <time>2014-02-21T06:49:16Z</time>
   </trkpt>
   <trkpt lat="32.5813810" lon="35.1272920">
    <ele>295.6</ele>
    <time>2014-02-21T06:49:18Z</time>
   </trkpt>
   <trkpt lat="32.5813490" lon="35.1273140">
    <ele>295.9</ele>
    <time>2014-02-21T06:49:20Z</time>
   </trkpt>
   <trkpt lat="32.5813190" lon="35.1273390">
    <ele>296.1</ele>
    <time>2014-02-21T06:49:22Z</time>
   </trkpt>
   <trkpt lat="32.5812900" lon="35.1273630">
    <ele>296.3</ele>
    <time>2014-02-21T06:49:24Z</time>
   </trkpt>
   <trkpt lat="32.5812620" lon="35.1273910">
    <ele>296.5</ele>
    <time>2014-02-21T06:49:26Z</time>
   </trkpt>
   <trkpt lat="32.5812330" lon="35.1274150">
    <ele>296.7</ele>
    <time>2014-02-21T06:49:28Z</time>
   </trkpt>
   <trkpt lat="32.5812020" lon="35.1274350">
    <ele>296.7</ele>
    <time>2014-02-21T06:49:30Z</time>
   </trkpt>
   <trkpt lat="32.5811750" lon="35.1274640">
    <ele>296.8</ele>
    <time>2014-02-21T06:49:32Z</time>
   </trkpt>
   <trkpt lat="32.5811490" lon="35.1274970">
    <ele>296.8</ele>
    <time>2014-02-21T06:49:34Z</time>
   </trkpt>
   <trkpt lat="32.5811210" lon="35.1275270">
    <ele>296.9</ele>
    <time>2014-02-21T06:49:36Z</time>
   </trkpt>
   <trkpt lat="32.5810920" lon="35.1275520">
    <ele>296.9</ele>
    <time>2014-02-21T06:49:38Z</time>
   </trkpt>
   <trkpt lat="32.5810630" lon="35.1275770">
    <ele>297.0</ele>
    <time>2014-02-21T06:49:40Z</time>
   </trkpt>
   <trkpt lat="32.5810370" lon="35.1276140">
    <ele>297.0</ele>
    <time>2014-02-21T06:49:42Z</time>
   </trkpt>
   <trkpt lat="32.5810150" lon="35.1276550">
    <ele>297.1</ele>
    <time>2014-02-21T06:49:44Z</time>
   </trkpt>
   <trkpt lat="32.5809930" lon="35.1276970">
    <ele>297.1</ele>
    <time>2014-02-21T06:49:46Z</time>
   </trkpt>
   <trkpt lat="32.5809700" lon="35.1277370">
    <ele>297.2</ele>
    <time>2014-02-21T06:49:48Z</time>
   </trkpt>
   <trkpt lat="32.5809490" lon="35.1277760">
    <ele>297.2</ele>
    <time>2014-02-21T06:49:50Z</time>
   </trkpt>
   <trkpt lat="32.5809280" lon="35.1278150">
    <ele>297.2</ele>
    <time>2014-02-21T06:49:52Z</time>
   </trkpt>
   <trkpt lat="32.5809030" lon="35.1278430">
    <ele>297.3</ele>
    <time>2014-02-21T06:49:54Z</time>
   </trkpt>
   <trkpt lat="32.5808740" lon="35.1278580">
    <ele>297.4</ele>
    <time>2014-02-21T06:49:56Z</time>
   </trkpt>
   <trkpt lat="32.5808480" lon="35.1278810">
    <ele>297.5</ele>
    <time>2014-02-21T06:49:58Z</time>
   </trkpt>
   <trkpt lat="32.5808200" lon="35.1279030">
    <ele>297.6</ele>
    <time>2014-02-21T06:50:00Z</time>
   </trkpt>
   <trkpt lat="32.5807910" lon="35.1279230">
    <ele>297.7</ele>
    <time>2014-02-21T06:50:02Z</time>
   </trkpt>
   <trkpt lat="32.5807670" lon="35.1279500">
    <ele>297.9</ele>
    <time>2014-02-21T06:50:04Z</time>
   </trkpt>
   <trkpt lat="32.5807440" lon="35.1279800">
    <ele>298.2</ele>
    <time>2014-02-21T06:50:06Z</time>
   </trkpt>
   <trkpt lat="32.5807220" lon="35.1280140">
    <ele>298.4</ele>
    <time>2014-02-21T06:50:08Z</time>
   </trkpt>
   <trkpt lat="32.5806990" lon="35.1280450">
    <ele>298.7</ele>
    <time>2014-02-21T06:50:10Z</time>
   </trkpt>
   <trkpt lat="32.5806800" lon="35.1280820">
    <ele>298.9</ele>
    <time>2014-02-21T06:50:12Z</time>
   </trkpt>
   <trkpt lat="32.5806590" lon="35.1281210">
    <ele>299.1</ele>
    <time>2014-02-21T06:50:14Z</time>
   </trkpt>
   <trkpt lat="32.5806340" lon="35.1281540">
    <ele>299.4</ele>
    <time>2014-02-21T06:50:16Z</time>
   </trkpt>
   <trkpt lat="32.5806100" lon="35.1281860">
    <ele>299.6</ele>
    <time>2014-02-21T06:50:18Z</time>
   </trkpt>
   <trkpt lat="32.5805860" lon="35.1282140">
    <ele>299.8</ele>
    <time>2014-02-21T06:50:20Z</time>
   </trkpt>
   <trkpt lat="32.5805640" lon="35.1282480">
    <ele>299.9</ele>
    <time>2014-02-21T06:50:22Z</time>
   </trkpt>
   <trkpt lat="32.5805480" lon="35.1282920">
    <ele>300.2</ele>
    <time>2014-02-21T06:50:24Z</time>
   </trkpt>
   <trkpt lat="32.5805360" lon="35.1283370">
    <ele>300.4</ele>
    <time>2014-02-21T06:50:26Z</time>
   </trkpt>
   <trkpt lat="32.5805220" lon="35.1283720">
    <ele>300.5</ele>
    <time>2014-02-21T06:50:28Z</time>
   </trkpt>
   <trkpt lat="32.5805000" lon="35.1284000">
    <ele>300.7</ele>
    <time>2014-02-21T06:50:30Z</time>
   </trkpt>
   <trkpt lat="32.5804750" lon="35.1284230">
    <ele>300.8</ele>
    <time>2014-02-21T06:50:32Z</time>
   </trkpt>
   <trkpt lat="32.5804510" lon="35.1284450">
    <ele>300.9</ele>
    <time>2014-02-21T06:50:34Z</time>
   </trkpt>
   <trkpt lat="32.5804500" lon="35.1284800">
    <ele>301.0</ele>
    <time>2014-02-21T06:50:37Z</time>
   </trkpt>
   <trkpt lat="32.5804690" lon="35.1285100">
    <ele>301.1</ele>
    <time>2014-02-21T06:50:39Z</time>
   </trkpt>
   <trkpt lat="32.5804930" lon="35.1285360">
    <ele>301.2</ele>
    <time>2014-02-21T06:50:41Z</time>
   </trkpt>
   <trkpt lat="32.5805170" lon="35.1285630">
    <ele>301.3</ele>
    <time>2014-02-21T06:50:43Z</time>
   </trkpt>
   <trkpt lat="32.5805300" lon="35.1285980">
    <ele>301.5</ele>
    <time>2014-02-21T06:50:45Z</time>
   </trkpt>
   <trkpt lat="32.5805450" lon="35.1286270">
    <ele>301.6</ele>
    <time>2014-02-21T06:50:47Z</time>
   </trkpt>
   <trkpt lat="32.5805640" lon="35.1286500">
    <ele>301.7</ele>
    <time>2014-02-21T06:50:49Z</time>
   </trkpt>
   <trkpt lat="32.5805790" lon="35.1286780">
    <ele>301.9</ele>
    <time>2014-02-21T06:50:51Z</time>
   </trkpt>
   <trkpt lat="32.5805910" lon="35.1287070">
    <ele>302.0</ele>
    <time>2014-02-21T06:50:53Z</time>
   </trkpt>
   <trkpt lat="32.5806110" lon="35.1287460">
    <ele>302.2</ele>
    <time>2014-02-21T06:50:56Z</time>
   </trkpt>
   <trkpt lat="32.5806350" lon="35.1287810">
    <ele>302.4</ele>
    <time>2014-02-21T06:50:59Z</time>
   </trkpt>
   <trkpt lat="32.5806630" lon="35.1287940">
    <ele>302.5</ele>
    <time>2014-02-21T06:51:01Z</time>
   </trkpt>
   <trkpt lat="32.5806930" lon="35.1287860">
    <ele>302.5</ele>
    <time>2014-02-21T06:51:03Z</time>
   </trkpt>
   <trkpt lat="32.5807050" lon="35.1287550">
    <ele>302.4</ele>
    <time>2014-02-21T06:51:05Z</time>
   </trkpt>
   <trkpt lat="32.5807130" lon="35.1287230">
    <ele>302.2</ele>
    <time>2014-02-21T06:51:07Z</time>
   </trkpt>
   <trkpt lat="32.5807230" lon="35.1286780">
    <ele>302.0</ele>
    <time>2014-02-21T06:51:10Z</time>
   </trkpt>
   <trkpt lat="32.5807050" lon="35.1286490">
    <ele>301.8</ele>
    <time>2014-02-21T06:51:27Z</time>
   </trkpt>
   <trkpt lat="32.5806970" lon="35.1286130">
    <ele>301.6</ele>
    <time>2014-02-21T06:51:29Z</time>
   </trkpt>
   <trkpt lat="32.5806820" lon="35.1285730">
    <ele>301.4</ele>
    <time>2014-02-21T06:51:34Z</time>
   </trkpt>
   <trkpt lat="32.5806530" lon="35.1285560">
    <ele>301.3</ele>
    <time>2014-02-21T06:51:36Z</time>
   </trkpt>
   <trkpt lat="32.5806220" lon="35.1285430">
    <ele>301.3</ele>
    <time>2014-02-21T06:51:38Z</time>
   </trkpt>
   <trkpt lat="32.5805910" lon="35.1285350">
    <ele>301.2</ele>
    <time>2014-02-21T06:51:40Z</time>
   </trkpt>
   <trkpt lat="32.5805620" lon="35.1285240">
    <ele>301.2</ele>
    <time>2014-02-21T06:51:42Z</time>
   </trkpt>
   <trkpt lat="32.5805340" lon="35.1285220">
    <ele>301.2</ele>
    <time>2014-02-21T06:51:44Z</time>
   </trkpt>
   <trkpt lat="32.5805200" lon="35.1285620">
    <ele>301.3</ele>
    <time>2014-02-21T06:51:47Z</time>
   </trkpt>
   <trkpt lat="32.5805450" lon="35.1285870">
    <ele>301.4</ele>
    <time>2014-02-21T06:51:50Z</time>
   </trkpt>
   <trkpt lat="32.5805750" lon="35.1285930">
    <ele>301.5</ele>
    <time>2014-02-21T06:51:53Z</time>
   </trkpt>
   <trkpt lat="32.5805970" lon="35.1286130">
    <ele>301.6</ele>
    <time>2014-02-21T06:51:56Z</time>
   </trkpt>
   <trkpt lat="32.5806210" lon="35.1285930">
    <ele>301.5</ele>
    <time>2014-02-21T06:53:18Z</time>
   </trkpt>
   <trkpt lat="32.5806340" lon="35.1285570">
    <ele>301.3</ele>
    <time>2014-02-21T06:56:13Z</time>
   </trkpt>
   <trkpt lat="32.5806140" lon="35.1285320">
    <ele>301.2</ele>
    <time>2014-02-21T06:56:15Z</time>
   </trkpt>
   <trkpt lat="32.5805880" lon="35.1285190">
    <ele>301.1</ele>
    <time>2014-02-21T06:56:17Z</time>
   </trkpt>
   <trkpt lat="32.5805620" lon="35.1285390">
    <ele>301.2</ele>
    <time>2014-02-21T06:56:19Z</time>
   </trkpt>
   <trkpt lat="32.5805660" lon="35.1285710">
    <ele>301.4</ele>
    <time>2014-02-21T06:56:21Z</time>
   </trkpt>
   <trkpt lat="32.5805800" lon="35.1285990">
    <ele>301.5</ele>
    <time>2014-02-21T06:56:23Z</time>
   </trkpt>
   <trkpt lat="32.5805980" lon="35.1286370">
    <ele>301.7</ele>
    <time>2014-02-21T06:56:26Z</time>
   </trkpt>
   <trkpt lat="32.5806130" lon="35.1286780">
    <ele>301.9</ele>
    <time>2014-02-21T06:56:29Z</time>
   </trkpt>
   <trkpt lat="32.5806310" lon="35.1287190">
    <ele>302.1</ele>
    <time>2014-02-21T06:56:32Z</time>
   </trkpt>
   <trkpt lat="32.5806420" lon="35.1287520">
    <ele>302.3</ele>
    <time>2014-02-21T06:56:34Z</time>
   </trkpt>
   <trkpt lat="32.5806520" lon="35.1287860">
    <ele>302.4</ele>
    <time>2014-02-21T06:56:36Z</time>
   </trkpt>
   <trkpt lat="32.5806690" lon="35.1288190">
    <ele>302.6</ele>
    <time>2014-02-21T06:56:38Z</time>
   </trkpt>
   <trkpt lat="32.5806880" lon="35.1288620">
    <ele>302.7</ele>
    <time>2014-02-21T06:56:40Z</time>
   </trkpt>
   <trkpt lat="32.5806980" lon="35.1289130">
    <ele>302.9</ele>
    <time>2014-02-21T06:56:42Z</time>
   </trkpt>
   <trkpt lat="32.5807130" lon="35.1289790">
    <ele>303.2</ele>
    <time>2014-02-21T06:56:44Z</time>
   </trkpt>
   <trkpt lat="32.5807220" lon="35.1290130">
    <ele>303.3</ele>
    <time>2014-02-21T06:56:45Z</time>
   </trkpt>
   <trkpt lat="32.5807410" lon="35.1290650">
    <ele>303.5</ele>
    <time>2014-02-21T06:56:47Z</time>
   </trkpt>
   <trkpt lat="32.5807690" lon="35.1291020">
    <ele>303.7</ele>
    <time>2014-02-21T06:56:50Z</time>
   </trkpt>
   <trkpt lat="32.5808020" lon="35.1291440">
    <ele>303.9</ele>
    <time>2014-02-21T06:56:52Z</time>
   </trkpt>
   <trkpt lat="32.5808240" lon="35.1291720">
    <ele>304.0</ele>
    <time>2014-02-21T06:56:53Z</time>
   </trkpt>
   <trkpt lat="32.5808410" lon="35.1292000">
    <ele>304.1</ele>
    <time>2014-02-21T06:56:54Z</time>
   </trkpt>
   <trkpt lat="32.5808680" lon="35.1292520">
    <ele>304.3</ele>
    <time>2014-02-21T06:56:56Z</time>
   </trkpt>
   <trkpt lat="32.5808840" lon="35.1292880">
    <ele>304.5</ele>
    <time>2014-02-21T06:56:58Z</time>
   </trkpt>
   <trkpt lat="32.5808900" lon="35.1293330">
    <ele>304.7</ele>
    <time>2014-02-21T06:57:00Z</time>
   </trkpt>
   <trkpt lat="32.5808790" lon="35.1293870">
    <ele>304.8</ele>
    <time>2014-02-21T06:57:02Z</time>
   </trkpt>
   <trkpt lat="32.5808800" lon="35.1294360">
    <ele>305.0</ele>
    <time>2014-02-21T06:57:04Z</time>
   </trkpt>
   <trkpt lat="32.5808960" lon="35.1294680">
    <ele>305.2</ele>
    <time>2014-02-21T06:57:06Z</time>
   </trkpt>
   <trkpt lat="32.5809090" lon="35.1294980">
    <ele>305.3</ele>
    <time>2014-02-21T06:57:08Z</time>
   </trkpt>
   <trkpt lat="32.5809260" lon="35.1295420">
    <ele>305.5</ele>
    <time>2014-02-21T06:57:10Z</time>
   </trkpt>
   <trkpt lat="32.5809450" lon="35.1295970">
    <ele>305.6</ele>
    <time>2014-02-21T06:57:12Z</time>
   </trkpt>
   <trkpt lat="32.5809620" lon="35.1296570">
    <ele>305.2</ele>
    <time>2014-02-21T06:57:14Z</time>
   </trkpt>
   <trkpt lat="32.5809750" lon="35.1296860">
    <ele>305.1</ele>
    <time>2014-02-21T06:57:15Z</time>
   </trkpt>
   <trkpt lat="32.5809910" lon="35.1297140">
    <ele>304.9</ele>
    <time>2014-02-21T06:57:16Z</time>
   </trkpt>
   <trkpt lat="32.5810070" lon="35.1297430">
    <ele>304.7</ele>
    <time>2014-02-21T06:57:17Z</time>
   </trkpt>
   <trkpt lat="32.5810230" lon="35.1297800">
    <ele>304.4</ele>
    <time>2014-02-21T06:57:18Z</time>
   </trkpt>
   <trkpt lat="32.5810400" lon="35.1298150">
    <ele>304.2</ele>
    <time>2014-02-21T06:57:19Z</time>
   </trkpt>
   <trkpt lat="32.5810570" lon="35.1298490">
    <ele>303.9</ele>
    <time>2014-02-21T06:57:20Z</time>
   </trkpt>
   <trkpt lat="32.5810760" lon="35.1298820">
    <ele>303.6</ele>
    <time>2014-02-21T06:57:21Z</time>
   </trkpt>
   <trkpt lat="32.5810940" lon="35.1299150">
    <ele>303.3</ele>
    <time>2014-02-21T06:57:22Z</time>
   </trkpt>
   <trkpt lat="32.5811140" lon="35.1299450">
    <ele>303.0</ele>
    <time>2014-02-21T06:57:23Z</time>
   </trkpt>
   <trkpt lat="32.5811380" lon="35.1299720">
    <ele>302.7</ele>
    <time>2014-02-21T06:57:24Z</time>
   </trkpt>
   <trkpt lat="32.5811620" lon="35.1299980">
    <ele>302.4</ele>
    <time>2014-02-21T06:57:25Z</time>
   </trkpt>
   <trkpt lat="32.5811830" lon="35.1300280">
    <ele>302.0</ele>
    <time>2014-02-21T06:57:26Z</time>
   </trkpt>
   <trkpt lat="32.5812030" lon="35.1300610">
    <ele>301.6</ele>
    <time>2014-02-21T06:57:27Z</time>
   </trkpt>
   <trkpt lat="32.5812180" lon="35.1300960">
    <ele>301.3</ele>
    <time>2014-02-21T06:57:28Z</time>
   </trkpt>
   <trkpt lat="32.5812340" lon="35.1301330">
    <ele>300.8</ele>
    <time>2014-02-21T06:57:29Z</time>
   </trkpt>
   <trkpt lat="32.5812560" lon="35.1301690">
    <ele>300.4</ele>
    <time>2014-02-21T06:57:30Z</time>
   </trkpt>
   <trkpt lat="32.5812860" lon="35.1302010">
    <ele>300.3</ele>
    <time>2014-02-21T06:57:31Z</time>
   </trkpt>
   <trkpt lat="32.5813240" lon="35.1302350">
    <ele>300.1</ele>
    <time>2014-02-21T06:57:32Z</time>
   </trkpt>
   <trkpt lat="32.5813620" lon="35.1302740">
    <ele>299.9</ele>
    <time>2014-02-21T06:57:33Z</time>
   </trkpt>
   <trkpt lat="32.5814120" lon="35.1303360">
    <ele>299.6</ele>
    <time>2014-02-21T06:57:34Z</time>
   </trkpt>
   <trkpt lat="32.5814540" lon="35.1303700">
    <ele>299.4</ele>
    <time>2014-02-21T06:57:35Z</time>
   </trkpt>
   <trkpt lat="32.5814890" lon="35.1304080">
    <ele>299.2</ele>
    <time>2014-02-21T06:57:36Z</time>
   </trkpt>
   <trkpt lat="32.5815160" lon="35.1304500">
    <ele>299.0</ele>
    <time>2014-02-21T06:57:37Z</time>
   </trkpt>
   <trkpt lat="32.5815360" lon="35.1305070">
    <ele>298.6</ele>
    <time>2014-02-21T06:57:38Z</time>
   </trkpt>
   <trkpt lat="32.5815460" lon="35.1305530">
    <ele>298.2</ele>
    <time>2014-02-21T06:57:39Z</time>
   </trkpt>
   <trkpt lat="32.5815430" lon="35.1305900">
    <ele>297.9</ele>
    <time>2014-02-21T06:57:40Z</time>
   </trkpt>
   <trkpt lat="32.5815530" lon="35.1306220">
    <ele>297.6</ele>
    <time>2014-02-21T06:57:41Z</time>
   </trkpt>
   <trkpt lat="32.5815610" lon="35.1306690">
    <ele>297.2</ele>
    <time>2014-02-21T06:57:43Z</time>
   </trkpt>
   <trkpt lat="32.5815840" lon="35.1306860">
    <ele>297.0</ele>
    <time>2014-02-21T06:57:44Z</time>
   </trkpt>
   <trkpt lat="32.5816170" lon="35.1307120">
    <ele>296.7</ele>
    <time>2014-02-21T06:57:46Z</time>
   </trkpt>
   <trkpt lat="32.5816600" lon="35.1306990">
    <ele>296.8</ele>
    <time>2014-02-21T06:57:48Z</time>
   </trkpt>
   <trkpt lat="32.5816840" lon="35.1306650">
    <ele>297.2</ele>
    <time>2014-02-21T06:57:50Z</time>
   </trkpt>
   <trkpt lat="32.5816730" lon="35.1306340">
    <ele>297.5</ele>
    <time>2014-02-21T06:57:53Z</time>
   </trkpt>
   <trkpt lat="32.5816410" lon="35.1306510">
    <ele>297.3</ele>
    <time>2014-02-21T06:57:57Z</time>
   </trkpt>
   <trkpt lat="32.5816190" lon="35.1306790">
    <ele>297.1</ele>
    <time>2014-02-21T06:58:00Z</time>
   </trkpt>
   <trkpt lat="32.5815910" lon="35.1306670">
    <ele>297.2</ele>
    <time>2014-02-21T06:58:03Z</time>
   </trkpt>
   <trkpt lat="32.5816120" lon="35.1306870">
    <ele>297.0</ele>
    <time>2014-02-21T06:59:24Z</time>
   </trkpt>
   <trkpt lat="32.5816100" lon="35.1307260">
    <ele>296.6</ele>
    <time>2014-02-21T06:59:43Z</time>
   </trkpt>
   <trkpt lat="32.5815710" lon="35.1307480">
    <ele>296.4</ele>
    <time>2014-02-21T06:59:45Z</time>
   </trkpt>
   <trkpt lat="32.5815310" lon="35.1307560">
    <ele>296.5</ele>
    <time>2014-02-21T06:59:47Z</time>
   </trkpt>
   <trkpt lat="32.5814950" lon="35.1307680">
    <ele>296.5</ele>
    <time>2014-02-21T06:59:49Z</time>
   </trkpt>
   <trkpt lat="32.5814630" lon="35.1307870">
    <ele>296.4</ele>
    <time>2014-02-21T06:59:51Z</time>
   </trkpt>
   <trkpt lat="32.5814340" lon="35.1308170">
    <ele>296.3</ele>
    <time>2014-02-21T06:59:53Z</time>
   </trkpt>
   <trkpt lat="32.5814000" lon="35.1308620">
    <ele>296.2</ele>
    <time>2014-02-21T06:59:55Z</time>
   </trkpt>
   <trkpt lat="32.5813830" lon="35.1308870">
    <ele>296.2</ele>
    <time>2014-02-21T06:59:56Z</time>
   </trkpt>
   <trkpt lat="32.5813750" lon="35.1309230">
    <ele>296.0</ele>
    <time>2014-02-21T06:59:57Z</time>
   </trkpt>
   <trkpt lat="32.5813670" lon="35.1309540">
    <ele>295.9</ele>
    <time>2014-02-21T06:59:58Z</time>
   </trkpt>
   <trkpt lat="32.5813600" lon="35.1309860">
    <ele>295.8</ele>
    <time>2014-02-21T06:59:59Z</time>
   </trkpt>
   <trkpt lat="32.5813550" lon="35.1310180">
    <ele>295.7</ele>
    <time>2014-02-21T07:00:00Z</time>
   </trkpt>
   <trkpt lat="32.5813520" lon="35.1310510">
    <ele>295.6</ele>
    <time>2014-02-21T07:00:01Z</time>
   </trkpt>
   <trkpt lat="32.5813500" lon="35.1310830">
    <ele>295.4</ele>
    <time>2014-02-21T07:00:02Z</time>
   </trkpt>
   <trkpt lat="32.5813490" lon="35.1311450">
    <ele>295.2</ele>
    <time>2014-02-21T07:00:04Z</time>
   </trkpt>
   <trkpt lat="32.5813470" lon="35.1312040">
    <ele>294.9</ele>
    <time>2014-02-21T07:00:06Z</time>
   </trkpt>
   <trkpt lat="32.5813420" lon="35.1312610">
    <ele>294.8</ele>
    <time>2014-02-21T07:00:08Z</time>
   </trkpt>
   <trkpt lat="32.5813360" lon="35.1313180">
    <ele>295.2</ele>
    <time>2014-02-21T07:00:10Z</time>
   </trkpt>
   <trkpt lat="32.5813260" lon="35.1313780">
    <ele>295.7</ele>
    <time>2014-02-21T07:00:12Z</time>
   </trkpt>
   <trkpt lat="32.5813100" lon="35.1314390">
    <ele>296.2</ele>
    <time>2014-02-21T07:00:14Z</time>
   </trkpt>
   <trkpt lat="32.5813030" lon="35.1314720">
    <ele>296.5</ele>
    <time>2014-02-21T07:00:15Z</time>
   </trkpt>
   <trkpt lat="32.5812920" lon="35.1315120">
    <ele>296.9</ele>
    <time>2014-02-21T07:00:16Z</time>
   </trkpt>
   <trkpt lat="32.5812800" lon="35.1315510">
    <ele>297.3</ele>
    <time>2014-02-21T07:00:17Z</time>
   </trkpt>
   <trkpt lat="32.5812670" lon="35.1315890">
    <ele>297.8</ele>
    <time>2014-02-21T07:00:18Z</time>
   </trkpt>
   <trkpt lat="32.5812540" lon="35.1316240">
    <ele>298.2</ele>
    <time>2014-02-21T07:00:19Z</time>
   </trkpt>
   <trkpt lat="32.5812410" lon="35.1316570">
    <ele>298.6</ele>
    <time>2014-02-21T07:00:20Z</time>
   </trkpt>
   <trkpt lat="32.5812300" lon="35.1316860">
    <ele>299.0</ele>
    <time>2014-02-21T07:00:21Z</time>
   </trkpt>
   <trkpt lat="32.5812190" lon="35.1317150">
    <ele>299.4</ele>
    <time>2014-02-21T07:00:22Z</time>
   </trkpt>
   <trkpt lat="32.5811960" lon="35.1317680">
    <ele>300.1</ele>
    <time>2014-02-21T07:00:24Z</time>
   </trkpt>
   <trkpt lat="32.5811720" lon="35.1318130">
    <ele>300.9</ele>
    <time>2014-02-21T07:00:26Z</time>
   </trkpt>
   <trkpt lat="32.5811490" lon="35.1318560">
    <ele>301.6</ele>
    <time>2014-02-21T07:00:28Z</time>
   </trkpt>
   <trkpt lat="32.5811260" lon="35.1318970">
    <ele>302.3</ele>
    <time>2014-02-21T07:00:30Z</time>
   </trkpt>
   <trkpt lat="32.5811050" lon="35.1319420">
    <ele>303.0</ele>
    <time>2014-02-21T07:00:32Z</time>
   </trkpt>
   <trkpt lat="32.5810830" lon="35.1319850">
    <ele>303.7</ele>
    <time>2014-02-21T07:00:34Z</time>
   </trkpt>
   <trkpt lat="32.5810630" lon="35.1320320">
    <ele>304.5</ele>
    <time>2014-02-21T07:00:36Z</time>
   </trkpt>
   <trkpt lat="32.5810420" lon="35.1320770">
    <ele>305.2</ele>
    <time>2014-02-21T07:00:38Z</time>
   </trkpt>
   <trkpt lat="32.5810180" lon="35.1321180">
    <ele>305.7</ele>
    <time>2014-02-21T07:00:40Z</time>
   </trkpt>
   <trkpt lat="32.5809940" lon="35.1321610">
    <ele>306.1</ele>
    <time>2014-02-21T07:00:42Z</time>
   </trkpt>
   <trkpt lat="32.5809720" lon="35.1322060">
    <ele>306.4</ele>
    <time>2014-02-21T07:00:44Z</time>
   </trkpt>
   <trkpt lat="32.5809480" lon="35.1322510">
    <ele>306.8</ele>
    <time>2014-02-21T07:00:46Z</time>
   </trkpt>
   <trkpt lat="32.5809210" lon="35.1322930">
    <ele>307.3</ele>
    <time>2014-02-21T07:00:48Z</time>
   </trkpt>
   <trkpt lat="32.5808950" lon="35.1323340">
    <ele>307.8</ele>
    <time>2014-02-21T07:00:50Z</time>
   </trkpt>
   <trkpt lat="32.5808710" lon="35.1323750">
    <ele>308.2</ele>
    <time>2014-02-21T07:00:52Z</time>
   </trkpt>
   <trkpt lat="32.5808460" lon="35.1324160">
    <ele>308.6</ele>
    <time>2014-02-21T07:00:54Z</time>
   </trkpt>
   <trkpt lat="32.5808150" lon="35.1324510">
    <ele>309.2</ele>
    <time>2014-02-21T07:00:56Z</time>
   </trkpt>
   <trkpt lat="32.5807860" lon="35.1324900">
    <ele>309.8</ele>
    <time>2014-02-21T07:00:58Z</time>
   </trkpt>
   <trkpt lat="32.5807600" lon="35.1325300">
    <ele>310.2</ele>
    <time>2014-02-21T07:01:00Z</time>
   </trkpt>
   <trkpt lat="32.5807390" lon="35.1325690">
    <ele>310.6</ele>
    <time>2014-02-21T07:01:02Z</time>
   </trkpt>
   <trkpt lat="32.5807200" lon="35.1326070">
    <ele>311.0</ele>
    <time>2014-02-21T07:01:04Z</time>
   </trkpt>
   <trkpt lat="32.5806960" lon="35.1326430">
    <ele>311.4</ele>
    <time>2014-02-21T07:01:06Z</time>
   </trkpt>
   <trkpt lat="32.5806710" lon="35.1326820">
    <ele>311.9</ele>
    <time>2014-02-21T07:01:08Z</time>
   </trkpt>
   <trkpt lat="32.5806500" lon="35.1327300">
    <ele>312.2</ele>
    <time>2014-02-21T07:01:10Z</time>
   </trkpt>
   <trkpt lat="32.5806290" lon="35.1327750">
    <ele>312.6</ele>
    <time>2014-02-21T07:01:12Z</time>
   </trkpt>
   <trkpt lat="32.5806070" lon="35.1328190">
    <ele>313.0</ele>
    <time>2014-02-21T07:01:14Z</time>
   </trkpt>
   <trkpt lat="32.5805820" lon="35.1328580">
    <ele>313.5</ele>
    <time>2014-02-21T07:01:16Z</time>
   </trkpt>
   <trkpt lat="32.5805560" lon="35.1328990">
    <ele>314.0</ele>
    <time>2014-02-21T07:01:18Z</time>
   </trkpt>
   <trkpt lat="32.5805280" lon="35.1329360">
    <ele>314.5</ele>
    <time>2014-02-21T07:01:20Z</time>
   </trkpt>
   <trkpt lat="32.5805000" lon="35.1329650">
    <ele>315.1</ele>
    <time>2014-02-21T07:01:22Z</time>
   </trkpt>
   <trkpt lat="32.5804760" lon="35.1330000">
    <ele>315.5</ele>
    <time>2014-02-21T07:01:24Z</time>
   </trkpt>
   <trkpt lat="32.5804510" lon="35.1330380">
    <ele>315.9</ele>
    <time>2014-02-21T07:01:26Z</time>
   </trkpt>
   <trkpt lat="32.5804250" lon="35.1330740">
    <ele>316.3</ele>
    <time>2014-02-21T07:01:28Z</time>
   </trkpt>
   <trkpt lat="32.5803990" lon="35.1331120">
    <ele>316.4</ele>
    <time>2014-02-21T07:01:30Z</time>
   </trkpt>
   <trkpt lat="32.5803690" lon="35.1331470">
    <ele>316.5</ele>
    <time>2014-02-21T07:01:32Z</time>
   </trkpt>
   <trkpt lat="32.5803410" lon="35.1331830">
    <ele>316.5</ele>
    <time>2014-02-21T07:01:34Z</time>
   </trkpt>
   <trkpt lat="32.5803110" lon="35.1332170">
    <ele>316.6</ele>
    <time>2014-02-21T07:01:36Z</time>
   </trkpt>
   <trkpt lat="32.5802820" lon="35.1332520">
    <ele>316.6</ele>
    <time>2014-02-21T07:01:38Z</time>
   </trkpt>
   <trkpt lat="32.5802510" lon="35.1332830">
    <ele>316.6</ele>
    <time>2014-02-21T07:01:40Z</time>
   </trkpt>
   <trkpt lat="32.5802210" lon="35.1333150">
    <ele>316.6</ele>
    <time>2014-02-21T07:01:42Z</time>
   </trkpt>
   <trkpt lat="32.5802000" lon="35.1333540">
    <ele>316.6</ele>
    <time>2014-02-21T07:01:44Z</time>
   </trkpt>
   <trkpt lat="32.5801790" lon="35.1333930">
    <ele>316.5</ele>
    <time>2014-02-21T07:01:46Z</time>
   </trkpt>
   <trkpt lat="32.5801480" lon="35.1334210">
    <ele>316.5</ele>
    <time>2014-02-21T07:01:48Z</time>
   </trkpt>
   <trkpt lat="32.5801100" lon="35.1334420">
    <ele>316.5</ele>
    <time>2014-02-21T07:01:50Z</time>
   </trkpt>
   <trkpt lat="32.5800790" lon="35.1334710">
    <ele>316.5</ele>
    <time>2014-02-21T07:01:52Z</time>
   </trkpt>
   <trkpt lat="32.5800480" lon="35.1334980">
    <ele>316.5</ele>
    <time>2014-02-21T07:01:54Z</time>
   </trkpt>
   <trkpt lat="32.5800150" lon="35.1335200">
    <ele>316.5</ele>
    <time>2014-02-21T07:01:56Z</time>
   </trkpt>
   <trkpt lat="32.5799840" lon="35.1335440">
    <ele>316.4</ele>
    <time>2014-02-21T07:01:58Z</time>
   </trkpt>
   <trkpt lat="32.5799550" lon="35.1335660">
    <ele>316.4</ele>
    <time>2014-02-21T07:02:00Z</time>
   </trkpt>
   <trkpt lat="32.5799230" lon="35.1335860">
    <ele>316.4</ele>
    <time>2014-02-21T07:02:02Z</time>
   </trkpt>
   <trkpt lat="32.5798870" lon="35.1335870">
    <ele>316.5</ele>
    <time>2014-02-21T07:02:04Z</time>
   </trkpt>
   <trkpt lat="32.5798550" lon="35.1335950">
    <ele>316.5</ele>
    <time>2014-02-21T07:02:06Z</time>
   </trkpt>
   <trkpt lat="32.5798230" lon="35.1336070">
    <ele>316.6</ele>
    <time>2014-02-21T07:02:08Z</time>
   </trkpt>
   <trkpt lat="32.5797920" lon="35.1336190">
    <ele>316.6</ele>
    <time>2014-02-21T07:02:10Z</time>
   </trkpt>
   <trkpt lat="32.5797570" lon="35.1336280">
    <ele>316.6</ele>
    <time>2014-02-21T07:02:12Z</time>
   </trkpt>
   <trkpt lat="32.5797260" lon="35.1336380">
    <ele>316.6</ele>
    <time>2014-02-21T07:02:14Z</time>
   </trkpt>
   <trkpt lat="32.5796920" lon="35.1336510">
    <ele>316.6</ele>
    <time>2014-02-21T07:02:16Z</time>
   </trkpt>
   <trkpt lat="32.5796590" lon="35.1336650">
    <ele>316.6</ele>
    <time>2014-02-21T07:02:18Z</time>
   </trkpt>
   <trkpt lat="32.5796230" lon="35.1336770">
    <ele>316.6</ele>
    <time>2014-02-21T07:02:20Z</time>
   </trkpt>
   <trkpt lat="32.5795690" lon="35.1336920">
    <ele>316.4</ele>
    <time>2014-02-21T07:02:22Z</time>
   </trkpt>
   <trkpt lat="32.5795420" lon="35.1337050">
    <ele>315.9</ele>
    <time>2014-02-21T07:02:23Z</time>
   </trkpt>
   <trkpt lat="32.5795140" lon="35.1337230">
    <ele>315.3</ele>
    <time>2014-02-21T07:02:24Z</time>
   </trkpt>
   <trkpt lat="32.5794850" lon="35.1337430">
    <ele>314.8</ele>
    <time>2014-02-21T07:02:25Z</time>
   </trkpt>
   <trkpt lat="32.5794510" lon="35.1337650">
    <ele>314.1</ele>
    <time>2014-02-21T07:02:26Z</time>
   </trkpt>
   <trkpt lat="32.5794190" lon="35.1337850">
    <ele>313.6</ele>
    <time>2014-02-21T07:02:27Z</time>
   </trkpt>
   <trkpt lat="32.5793840" lon="35.1338070">
    <ele>313.0</ele>
    <time>2014-02-21T07:02:28Z</time>
   </trkpt>
   <trkpt lat="32.5793470" lon="35.1338300">
    <ele>312.3</ele>
    <time>2014-02-21T07:02:29Z</time>
   </trkpt>
   <trkpt lat="32.5792980" lon="35.1338600">
    <ele>311.5</ele>
    <time>2014-02-21T07:02:30Z</time>
   </trkpt>
   <trkpt lat="32.5792410" lon="35.1338960">
    <ele>310.6</ele>
    <time>2014-02-21T07:02:31Z</time>
   </trkpt>
   <trkpt lat="32.5791920" lon="35.1339250">
    <ele>309.9</ele>
    <time>2014-02-21T07:02:32Z</time>
   </trkpt>
   <trkpt lat="32.5791390" lon="35.1339620">
    <ele>309.0</ele>
    <time>2014-02-21T07:02:33Z</time>
   </trkpt>
   <trkpt lat="32.5790840" lon="35.1340050">
    <ele>308.2</ele>
    <time>2014-02-21T07:02:34Z</time>
   </trkpt>
   <trkpt lat="32.5790350" lon="35.1340610">
    <ele>307.4</ele>
    <time>2014-02-21T07:02:35Z</time>
   </trkpt>
   <trkpt lat="32.5789990" lon="35.1341400">
    <ele>306.7</ele>
    <time>2014-02-21T07:02:36Z</time>
   </trkpt>
   <trkpt lat="32.5789710" lon="35.1342250">
    <ele>306.0</ele>
    <time>2014-02-21T07:02:37Z</time>
   </trkpt>
   <trkpt lat="32.5789490" lon="35.1343080">
    <ele>305.5</ele>
    <time>2014-02-21T07:02:38Z</time>
   </trkpt>
   <trkpt lat="32.5789330" lon="35.1343970">
    <ele>305.0</ele>
    <time>2014-02-21T07:02:39Z</time>
   </trkpt>
   <trkpt lat="32.5789430" lon="35.1344810">
    <ele>304.8</ele>
    <time>2014-02-21T07:02:40Z</time>
   </trkpt>
   <trkpt lat="32.5789700" lon="35.1345510">
    <ele>304.7</ele>
    <time>2014-02-21T07:02:41Z</time>
   </trkpt>
   <trkpt lat="32.5790120" lon="35.1345950">
    <ele>304.9</ele>
    <time>2014-02-21T07:02:42Z</time>
   </trkpt>
   <trkpt lat="32.5790570" lon="35.1346230">
    <ele>305.3</ele>
    <time>2014-02-21T07:02:43Z</time>
   </trkpt>
   <trkpt lat="32.5790970" lon="35.1346480">
    <ele>305.7</ele>
    <time>2014-02-21T07:02:44Z</time>
   </trkpt>
   <trkpt lat="32.5791280" lon="35.1346650">
    <ele>306.0</ele>
    <time>2014-02-21T07:02:45Z</time>
   </trkpt>
   <trkpt lat="32.5791590" lon="35.1346830">
    <ele>306.2</ele>
    <time>2014-02-21T07:02:46Z</time>
   </trkpt>
   <trkpt lat="32.5792040" lon="35.1347030">
    <ele>306.6</ele>
    <time>2014-02-21T07:02:48Z</time>
   </trkpt>
   <trkpt lat="32.5792420" lon="35.1347240">
    <ele>306.9</ele>
    <time>2014-02-21T07:02:50Z</time>
   </trkpt>
   <trkpt lat="32.5792840" lon="35.1347430">
    <ele>307.2</ele>
    <time>2014-02-21T07:02:52Z</time>
   </trkpt>
   <trkpt lat="32.5793210" lon="35.1347680">
    <ele>307.5</ele>
    <time>2014-02-21T07:02:54Z</time>
   </trkpt>
   <trkpt lat="32.5793620" lon="35.1347890">
    <ele>307.8</ele>
    <time>2014-02-21T07:02:56Z</time>
   </trkpt>
   <trkpt lat="32.5794010" lon="35.1348110">
    <ele>308.1</ele>
    <time>2014-02-21T07:02:58Z</time>
   </trkpt>
   <trkpt lat="32.5794400" lon="35.1348330">
    <ele>308.4</ele>
    <time>2014-02-21T07:03:00Z</time>
   </trkpt>
   <trkpt lat="32.5794790" lon="35.1348550">
    <ele>308.7</ele>
    <time>2014-02-21T07:03:02Z</time>
   </trkpt>
   <trkpt lat="32.5795190" lon="35.1348770">
    <ele>309.0</ele>
    <time>2014-02-21T07:03:04Z</time>
   </trkpt>
   <trkpt lat="32.5795600" lon="35.1349030">
    <ele>309.2</ele>
    <time>2014-02-21T07:03:06Z</time>
   </trkpt>
   <trkpt lat="32.5795990" lon="35.1349290">
    <ele>309.4</ele>
    <time>2014-02-21T07:03:08Z</time>
   </trkpt>
   <trkpt lat="32.5796350" lon="35.1349580">
    <ele>309.5</ele>
    <time>2014-02-21T07:03:10Z</time>
   </trkpt>
   <trkpt lat="32.5796750" lon="35.1349820">
    <ele>309.5</ele>
    <time>2014-02-21T07:03:12Z</time>
   </trkpt>
   <trkpt lat="32.5797260" lon="35.1350080">
    <ele>309.5</ele>
    <time>2014-02-21T07:03:14Z</time>
   </trkpt>
   <trkpt lat="32.5797620" lon="35.1350230">
    <ele>309.5</ele>
    <time>2014-02-21T07:03:15Z</time>
   </trkpt>
   <trkpt lat="32.5797980" lon="35.1350380">
    <ele>309.5</ele>
    <time>2014-02-21T07:03:16Z</time>
   </trkpt>
   <trkpt lat="32.5798330" lon="35.1350510">
    <ele>309.5</ele>
    <time>2014-02-21T07:03:17Z</time>
   </trkpt>
   <trkpt lat="32.5798670" lon="35.1350640">
    <ele>309.5</ele>
    <time>2014-02-21T07:03:18Z</time>
   </trkpt>
   <trkpt lat="32.5799000" lon="35.1350770">
    <ele>309.5</ele>
    <time>2014-02-21T07:03:19Z</time>
   </trkpt>
   <trkpt lat="32.5799340" lon="35.1350920">
    <ele>309.5</ele>
    <time>2014-02-21T07:03:20Z</time>
   </trkpt>
   <trkpt lat="32.5799700" lon="35.1351090">
    <ele>309.5</ele>
    <time>2014-02-21T07:03:21Z</time>
   </trkpt>
   <trkpt lat="32.5800080" lon="35.1351280">
    <ele>309.5</ele>
    <time>2014-02-21T07:03:22Z</time>
   </trkpt>
   <trkpt lat="32.5800660" lon="35.1351530">
    <ele>309.5</ele>
    <time>2014-02-21T07:03:23Z</time>
   </trkpt>
   <trkpt lat="32.5801140" lon="35.1351670">
    <ele>309.4</ele>
    <time>2014-02-21T07:03:24Z</time>
   </trkpt>
   <trkpt lat="32.5801620" lon="35.1351890">
    <ele>309.4</ele>
    <time>2014-02-21T07:03:25Z</time>
   </trkpt>
   <trkpt lat="32.5802160" lon="35.1352040">
    <ele>309.4</ele>
    <time>2014-02-21T07:03:26Z</time>
   </trkpt>
   <trkpt lat="32.5802680" lon="35.1352160">
    <ele>309.3</ele>
    <time>2014-02-21T07:03:27Z</time>
   </trkpt>
   <trkpt lat="32.5803210" lon="35.1352280">
    <ele>309.3</ele>
    <time>2014-02-21T07:03:28Z</time>
   </trkpt>
   <trkpt lat="32.5803800" lon="35.1352440">
    <ele>309.2</ele>
    <time>2014-02-21T07:03:29Z</time>
   </trkpt>
   <trkpt lat="32.5804300" lon="35.1352650">
    <ele>309.0</ele>
    <time>2014-02-21T07:03:30Z</time>
   </trkpt>
   <trkpt lat="32.5804860" lon="35.1352770">
    <ele>308.4</ele>
    <time>2014-02-21T07:03:31Z</time>
   </trkpt>
   <trkpt lat="32.5805410" lon="35.1352830">
    <ele>307.8</ele>
    <time>2014-02-21T07:03:32Z</time>
   </trkpt>
   <trkpt lat="32.5806000" lon="35.1352950">
    <ele>307.1</ele>
    <time>2014-02-21T07:03:33Z</time>
   </trkpt>
   <trkpt lat="32.5806560" lon="35.1353080">
    <ele>306.5</ele>
    <time>2014-02-21T07:03:34Z</time>
   </trkpt>
   <trkpt lat="32.5807150" lon="35.1353070">
    <ele>305.9</ele>
    <time>2014-02-21T07:03:35Z</time>
   </trkpt>
   <trkpt lat="32.5807760" lon="35.1352970">
    <ele>305.2</ele>
    <time>2014-02-21T07:03:36Z</time>
   </trkpt>
   <trkpt lat="32.5808370" lon="35.1352860">
    <ele>304.5</ele>
    <time>2014-02-21T07:03:37Z</time>
   </trkpt>
   <trkpt lat="32.5809040" lon="35.1352740">
    <ele>303.8</ele>
    <time>2014-02-21T07:03:38Z</time>
   </trkpt>
   <trkpt lat="32.5809700" lon="35.1352610">
    <ele>303.1</ele>
    <time>2014-02-21T07:03:39Z</time>
   </trkpt>
   <trkpt lat="32.5810380" lon="35.1352600">
    <ele>302.3</ele>
    <time>2014-02-21T07:03:40Z</time>
   </trkpt>
   <trkpt lat="32.5811060" lon="35.1352570">
    <ele>301.6</ele>
    <time>2014-02-21T07:03:41Z</time>
   </trkpt>
   <trkpt lat="32.5811720" lon="35.1352550">
    <ele>300.9</ele>
    <time>2014-02-21T07:03:42Z</time>
   </trkpt>
   <trkpt lat="32.5812350" lon="35.1352470">
    <ele>300.2</ele>
    <time>2014-02-21T07:03:43Z</time>
   </trkpt>
   <trkpt lat="32.5812900" lon="35.1352450">
    <ele>300.0</ele>
    <time>2014-02-21T07:03:44Z</time>
   </trkpt>
   <trkpt lat="32.5813450" lon="35.1352400">
    <ele>300.0</ele>
    <time>2014-02-21T07:03:45Z</time>
   </trkpt>
   <trkpt lat="32.5814010" lon="35.1352380">
    <ele>300.0</ele>
    <time>2014-02-21T07:03:46Z</time>
   </trkpt>
   <trkpt lat="32.5814510" lon="35.1352320">
    <ele>300.0</ele>
    <time>2014-02-21T07:03:47Z</time>
   </trkpt>
   <trkpt lat="32.5815050" lon="35.1352280">
    <ele>300.0</ele>
    <time>2014-02-21T07:03:48Z</time>
   </trkpt>
   <trkpt lat="32.5815530" lon="35.1352140">
    <ele>299.9</ele>
    <time>2014-02-21T07:03:49Z</time>
   </trkpt>
   <trkpt lat="32.5816060" lon="35.1351950">
    <ele>299.9</ele>
    <time>2014-02-21T07:03:50Z</time>
   </trkpt>
   <trkpt lat="32.5816450" lon="35.1351790">
    <ele>299.8</ele>
    <time>2014-02-21T07:03:51Z</time>
   </trkpt>
   <trkpt lat="32.5817060" lon="35.1351590">
    <ele>299.7</ele>
    <time>2014-02-21T07:03:53Z</time>
   </trkpt>
   <trkpt lat="32.5817390" lon="35.1351560">
    <ele>299.7</ele>
    <time>2014-02-21T07:03:54Z</time>
   </trkpt>
   <trkpt lat="32.5817730" lon="35.1351480">
    <ele>299.6</ele>
    <time>2014-02-21T07:03:55Z</time>
   </trkpt>
   <trkpt lat="32.5818010" lon="35.1351540">
    <ele>299.6</ele>
    <time>2014-02-21T07:03:56Z</time>
   </trkpt>
   <trkpt lat="32.5818310" lon="35.1351520">
    <ele>299.6</ele>
    <time>2014-02-21T07:03:57Z</time>
   </trkpt>
   <trkpt lat="32.5818640" lon="35.1351430">
    <ele>299.5</ele>
    <time>2014-02-21T07:03:58Z</time>
   </trkpt>
   <trkpt lat="32.5819090" lon="35.1351200">
    <ele>299.4</ele>
    <time>2014-02-21T07:04:00Z</time>
   </trkpt>
   <trkpt lat="32.5819320" lon="35.1351030">
    <ele>299.3</ele>
    <time>2014-02-21T07:04:01Z</time>
   </trkpt>
   <trkpt lat="32.5819750" lon="35.1350720">
    <ele>299.1</ele>
    <time>2014-02-21T07:04:03Z</time>
   </trkpt>
   <trkpt lat="32.5820130" lon="35.1350360">
    <ele>298.8</ele>
    <time>2014-02-21T07:04:05Z</time>
   </trkpt>
   <trkpt lat="32.5820470" lon="35.1349990">
    <ele>298.6</ele>
    <time>2014-02-21T07:04:07Z</time>
   </trkpt>
   <trkpt lat="32.5820790" lon="35.1349650">
    <ele>298.3</ele>
    <time>2014-02-21T07:04:09Z</time>
   </trkpt>
   <trkpt lat="32.5821110" lon="35.1349400">
    <ele>298.3</ele>
    <time>2014-02-21T07:04:11Z</time>
   </trkpt>
   <trkpt lat="32.5821430" lon="35.1349210">
    <ele>298.4</ele>
    <time>2014-02-21T07:04:13Z</time>
   </trkpt>
   <trkpt lat="32.5821670" lon="35.1349000">
    <ele>298.5</ele>
    <time>2014-02-21T07:04:15Z</time>
   </trkpt>
   <trkpt lat="32.5821420" lon="35.1349140">
    <ele>298.4</ele>
    <time>2014-02-21T07:04:24Z</time>
   </trkpt>
   <trkpt lat="32.5821660" lon="35.1349000">
    <ele>298.5</ele>
    <time>2014-02-21T07:05:26Z</time>
   </trkpt>
   <trkpt lat="32.5822000" lon="35.1348730">
    <ele>298.6</ele>
    <time>2014-02-21T07:07:31Z</time>
   </trkpt>
   <trkpt lat="32.5822350" lon="35.1348580">
    <ele>298.7</ele>
    <time>2014-02-21T07:07:33Z</time>
   </trkpt>
   <trkpt lat="32.5822710" lon="35.1348410">
    <ele>298.9</ele>
    <time>2014-02-21T07:07:35Z</time>
   </trkpt>
   <trkpt lat="32.5823080" lon="35.1348230">
    <ele>299.2</ele>
    <time>2014-02-21T07:07:37Z</time>
   </trkpt>
   <trkpt lat="32.5823460" lon="35.1348070">
    <ele>299.4</ele>
    <time>2014-02-21T07:07:39Z</time>
   </trkpt>
   <trkpt lat="32.5823850" lon="35.1347890">
    <ele>299.7</ele>
    <time>2014-02-21T07:07:41Z</time>
   </trkpt>
   <trkpt lat="32.5824250" lon="35.1347730">
    <ele>300.0</ele>
    <time>2014-02-21T07:07:43Z</time>
   </trkpt>
   <trkpt lat="32.5824650" lon="35.1347600">
    <ele>300.3</ele>
    <time>2014-02-21T07:07:45Z</time>
   </trkpt>
   <trkpt lat="32.5825130" lon="35.1347410">
    <ele>300.7</ele>
    <time>2014-02-21T07:07:47Z</time>
   </trkpt>
   <trkpt lat="32.5825600" lon="35.1347210">
    <ele>301.1</ele>
    <time>2014-02-21T07:07:49Z</time>
   </trkpt>
   <trkpt lat="32.5826040" lon="35.1347030">
    <ele>301.5</ele>
    <time>2014-02-21T07:07:51Z</time>
   </trkpt>
   <trkpt lat="32.5826460" lon="35.1346850">
    <ele>301.9</ele>
    <time>2014-02-21T07:07:53Z</time>
   </trkpt>
   <trkpt lat="32.5826890" lon="35.1346680">
    <ele>302.4</ele>
    <time>2014-02-21T07:07:55Z</time>
   </trkpt>
   <trkpt lat="32.5827330" lon="35.1346520">
    <ele>302.9</ele>
    <time>2014-02-21T07:07:57Z</time>
   </trkpt>
   <trkpt lat="32.5827770" lon="35.1346330">
    <ele>303.3</ele>
    <time>2014-02-21T07:07:59Z</time>
   </trkpt>
   <trkpt lat="32.5828210" lon="35.1346150">
    <ele>303.9</ele>
    <time>2014-02-21T07:08:01Z</time>
   </trkpt>
   <trkpt lat="32.5828710" lon="35.1345900">
    <ele>304.5</ele>
    <time>2014-02-21T07:08:03Z</time>
   </trkpt>
   <trkpt lat="32.5829170" lon="35.1345610">
    <ele>305.0</ele>
    <time>2014-02-21T07:08:05Z</time>
   </trkpt>
   <trkpt lat="32.5829630" lon="35.1345280">
    <ele>305.2</ele>
    <time>2014-02-21T07:08:07Z</time>
   </trkpt>
   <trkpt lat="32.5829850" lon="35.1345100">
    <ele>305.3</ele>
    <time>2014-02-21T07:08:08Z</time>
   </trkpt>
   <trkpt lat="32.5830070" lon="35.1344890">
    <ele>305.4</ele>
    <time>2014-02-21T07:08:09Z</time>
   </trkpt>
   <trkpt lat="32.5830310" lon="35.1344710">
    <ele>305.6</ele>
    <time>2014-02-21T07:08:10Z</time>
   </trkpt>
   <trkpt lat="32.5830550" lon="35.1344530">
    <ele>305.7</ele>
    <time>2014-02-21T07:08:11Z</time>
   </trkpt>
   <trkpt lat="32.5830810" lon="35.1344380">
    <ele>305.8</ele>
    <time>2014-02-21T07:08:12Z</time>
   </trkpt>
   <trkpt lat="32.5831050" lon="35.1344210">
    <ele>305.9</ele>
    <time>2014-02-21T07:08:13Z</time>
   </trkpt>
   <trkpt lat="32.5831290" lon="35.1344010">
    <ele>306.1</ele>
    <time>2014-02-21T07:08:14Z</time>
   </trkpt>
   <trkpt lat="32.5831520" lon="35.1343790">
    <ele>306.2</ele>
    <time>2014-02-21T07:08:15Z</time>
   </trkpt>
   <trkpt lat="32.5831750" lon="35.1343560">
    <ele>306.3</ele>
    <time>2014-02-21T07:08:16Z</time>
   </trkpt>
   <trkpt lat="32.5831990" lon="35.1343340">
    <ele>306.4</ele>
    <time>2014-02-21T07:08:17Z</time>
   </trkpt>
   <trkpt lat="32.5832240" lon="35.1343140">
    <ele>306.5</ele>
    <time>2014-02-21T07:08:18Z</time>
   </trkpt>
   <trkpt lat="32.5832500" lon="35.1342950">
    <ele>306.7</ele>
    <time>2014-02-21T07:08:19Z</time>
   </trkpt>
   <trkpt lat="32.5832770" lon="35.1342770">
    <ele>306.8</ele>
    <time>2014-02-21T07:08:20Z</time>
   </trkpt>
   <trkpt lat="32.5833040" lon="35.1342590">
    <ele>306.9</ele>
    <time>2014-02-21T07:08:21Z</time>
   </trkpt>
   <trkpt lat="32.5833310" lon="35.1342400">
    <ele>307.1</ele>
    <time>2014-02-21T07:08:22Z</time>
   </trkpt>
   <trkpt lat="32.5833580" lon="35.1342210">
    <ele>307.2</ele>
    <time>2014-02-21T07:08:23Z</time>
   </trkpt>
   <trkpt lat="32.5833830" lon="35.1342000">
    <ele>307.3</ele>
    <time>2014-02-21T07:08:24Z</time>
   </trkpt>
   <trkpt lat="32.5834070" lon="35.1341780">
    <ele>307.5</ele>
    <time>2014-02-21T07:08:25Z</time>
   </trkpt>
   <trkpt lat="32.5834300" lon="35.1341550">
    <ele>307.6</ele>
    <time>2014-02-21T07:08:26Z</time>
   </trkpt>
   <trkpt lat="32.5834530" lon="35.1341380">
    <ele>307.7</ele>
    <time>2014-02-21T07:08:27Z</time>
   </trkpt>
   <trkpt lat="32.5834790" lon="35.1341280">
    <ele>307.8</ele>
    <time>2014-02-21T07:08:28Z</time>
   </trkpt>
   <trkpt lat="32.5835070" lon="35.1341250">
    <ele>308.0</ele>
    <time>2014-02-21T07:08:29Z</time>
   </trkpt>
   <trkpt lat="32.5835370" lon="35.1341200">
    <ele>308.2</ele>
    <time>2014-02-21T07:08:30Z</time>
   </trkpt>
   <trkpt lat="32.5835660" lon="35.1341130">
    <ele>308.3</ele>
    <time>2014-02-21T07:08:31Z</time>
   </trkpt>
   <trkpt lat="32.5835940" lon="35.1341030">
    <ele>308.5</ele>
    <time>2014-02-21T07:08:32Z</time>
   </trkpt>
   <trkpt lat="32.5836200" lon="35.1340850">
    <ele>308.6</ele>
    <time>2014-02-21T07:08:33Z</time>
   </trkpt>
   <trkpt lat="32.5836440" lon="35.1340620">
    <ele>308.7</ele>
    <time>2014-02-21T07:08:34Z</time>
   </trkpt>
   <trkpt lat="32.5836670" lon="35.1340370">
    <ele>308.8</ele>
    <time>2014-02-21T07:08:35Z</time>
   </trkpt>
   <trkpt lat="32.5836890" lon="35.1340140">
    <ele>309.0</ele>
    <time>2014-02-21T07:08:36Z</time>
   </trkpt>
   <trkpt lat="32.5837100" lon="35.1339910">
    <ele>309.0</ele>
    <time>2014-02-21T07:08:37Z</time>
   </trkpt>
   <trkpt lat="32.5837300" lon="35.1339680">
    <ele>309.1</ele>
    <time>2014-02-21T07:08:38Z</time>
   </trkpt>
   <trkpt lat="32.5837450" lon="35.1339550">
    <ele>309.2</ele>
    <time>2014-02-21T07:08:59Z</time>
   </trkpt>
   <trkpt lat="32.5837380" lon="35.1339620">
    <ele>309.2</ele>
    <time>2014-02-21T07:09:42Z</time>
   </trkpt>
   <trkpt lat="32.5837310" lon="35.1339700">
    <ele>309.1</ele>
    <time>2014-02-21T07:15:25Z</time>
   </trkpt>
   <trkpt lat="32.5837240" lon="35.1339770">
    <ele>309.1</ele>
    <time>2014-02-21T07:15:37Z</time>
   </trkpt>
   <trkpt lat="32.5837170" lon="35.1339840">
    <ele>309.1</ele>
    <time>2014-02-21T07:15:46Z</time>
   </trkpt>
   <trkpt lat="32.5837090" lon="35.1339910">
    <ele>309.0</ele>
    <time>2014-02-21T07:15:49Z</time>
   </trkpt>
   <trkpt lat="32.5837020" lon="35.1339990">
    <ele>309.0</ele>
    <time>2014-02-21T07:16:03Z</time>
   </trkpt>
   <trkpt lat="32.5836950" lon="35.1340060">
    <ele>309.0</ele>
    <time>2014-02-21T07:16:06Z</time>
   </trkpt>
   <trkpt lat="32.5836880" lon="35.1340130">
    <ele>308.9</ele>
    <time>2014-02-21T07:16:15Z</time>
   </trkpt>
   <trkpt lat="32.5836810" lon="35.1340200">
    <ele>308.9</ele>
    <time>2014-02-21T07:16:20Z</time>
   </trkpt>
   <trkpt lat="32.5836740" lon="35.1340280">
    <ele>308.9</ele>
    <time>2014-02-21T07:16:43Z</time>
   </trkpt>
   <trkpt lat="32.5836670" lon="35.1340350">
    <ele>308.8</ele>
    <time>2014-02-21T07:17:22Z</time>
   </trkpt>
   <trkpt lat="32.5836530" lon="35.1340490">
    <ele>308.8</ele>
    <time>2014-02-21T07:17:23Z</time>
   </trkpt>
   <trkpt lat="32.5836940" lon="35.1340120">
    <ele>309.0</ele>
    <time>2014-02-21T07:17:24Z</time>
   </trkpt>
   <trkpt lat="32.5837320" lon="35.1339800">
    <ele>309.2</ele>
    <time>2014-02-21T07:17:25Z</time>
   </trkpt>
   <trkpt lat="32.5838020" lon="35.1338930">
    <ele>308.9</ele>
    <time>2014-02-21T07:17:26Z</time>
   </trkpt>
   <trkpt lat="32.5838640" lon="35.1338450">
    <ele>308.6</ele>
    <time>2014-02-21T07:17:27Z</time>
   </trkpt>
   <trkpt lat="32.5839320" lon="35.1337900">
    <ele>308.2</ele>
    <time>2014-02-21T07:17:28Z</time>
   </trkpt>
   <trkpt lat="32.5840010" lon="35.1337530">
    <ele>307.8</ele>
    <time>2014-02-21T07:17:29Z</time>
   </trkpt>
   <trkpt lat="32.5840670" lon="35.1337070">
    <ele>307.1</ele>
    <time>2014-02-21T07:17:30Z</time>
   </trkpt>
   <trkpt lat="32.5841360" lon="35.1336630">
    <ele>306.3</ele>
    <time>2014-02-21T07:17:31Z</time>
   </trkpt>
   <trkpt lat="32.5842060" lon="35.1336180">
    <ele>305.6</ele>
    <time>2014-02-21T07:17:32Z</time>
   </trkpt>
   <trkpt lat="32.5842850" lon="35.1335710">
    <ele>304.8</ele>
    <time>2014-02-21T07:17:33Z</time>
   </trkpt>
   <trkpt lat="32.5843670" lon="35.1335330">
    <ele>304.1</ele>
    <time>2014-02-21T07:17:34Z</time>
   </trkpt>
   <trkpt lat="32.5844460" lon="35.1334840">
    <ele>303.3</ele>
    <time>2014-02-21T07:17:35Z</time>
   </trkpt>
   <trkpt lat="32.5845250" lon="35.1334330">
    <ele>302.6</ele>
    <time>2014-02-21T07:17:36Z</time>
   </trkpt>
   <trkpt lat="32.5846000" lon="35.1333840">
    <ele>301.8</ele>
    <time>2014-02-21T07:17:37Z</time>
   </trkpt>
   <trkpt lat="32.5846810" lon="35.1333290">
    <ele>300.9</ele>
    <time>2014-02-21T07:17:38Z</time>
   </trkpt>
   <trkpt lat="32.5847660" lon="35.1332820">
    <ele>300.0</ele>
    <time>2014-02-21T07:17:39Z</time>
   </trkpt>
   <trkpt lat="32.5848490" lon="35.1332290">
    <ele>299.0</ele>
    <time>2014-02-21T07:17:40Z</time>
   </trkpt>
   <trkpt lat="32.5849350" lon="35.1331860">
    <ele>298.2</ele>
    <time>2014-02-21T07:17:41Z</time>
   </trkpt>
   <trkpt lat="32.5850180" lon="35.1331270">
    <ele>297.2</ele>
    <time>2014-02-21T07:17:42Z</time>
   </trkpt>
   <trkpt lat="32.5850970" lon="35.1330710">
    <ele>296.2</ele>
    <time>2014-02-21T07:17:43Z</time>
   </trkpt>
   <trkpt lat="32.5851680" lon="35.1329990">
    <ele>295.2</ele>
    <time>2014-02-21T07:17:44Z</time>
   </trkpt>
   <trkpt lat="32.5852400" lon="35.1329190">
    <ele>294.1</ele>
    <time>2014-02-21T07:17:45Z</time>
   </trkpt>
   <trkpt lat="32.5853230" lon="35.1328580">
    <ele>293.3</ele>
    <time>2014-02-21T07:17:46Z</time>
   </trkpt>
   <trkpt lat="32.5854080" lon="35.1328070">
    <ele>292.6</ele>
    <time>2014-02-21T07:17:47Z</time>
   </trkpt>
   <trkpt lat="32.5854910" lon="35.1327480">
    <ele>292.1</ele>
    <time>2014-02-21T07:17:48Z</time>
   </trkpt>
   <trkpt lat="32.5855740" lon="35.1326920">
    <ele>291.7</ele>
    <time>2014-02-21T07:17:49Z</time>
   </trkpt>
   <trkpt lat="32.5856520" lon="35.1326320">
    <ele>291.3</ele>
    <time>2014-02-21T07:17:50Z</time>
   </trkpt>
   <trkpt lat="32.5857340" lon="35.1325900">
    <ele>291.0</ele>
    <time>2014-02-21T07:17:51Z</time>
   </trkpt>
   <trkpt lat="32.5858070" lon="35.1325310">
    <ele>290.8</ele>
    <time>2014-02-21T07:17:52Z</time>
   </trkpt>
   <trkpt lat="32.5858800" lon="35.1324680">
    <ele>290.7</ele>
    <time>2014-02-21T07:17:53Z</time>
   </trkpt>
   <trkpt lat="32.5859480" lon="35.1324070">
    <ele>290.6</ele>
    <time>2014-02-21T07:17:54Z</time>
   </trkpt>
   <trkpt lat="32.5860100" lon="35.1323580">
    <ele>290.5</ele>
    <time>2014-02-21T07:17:55Z</time>
   </trkpt>
   <trkpt lat="32.5860610" lon="35.1323200">
    <ele>290.5</ele>
    <time>2014-02-21T07:17:56Z</time>
   </trkpt>
   <trkpt lat="32.5861150" lon="35.1322820">
    <ele>290.6</ele>
    <time>2014-02-21T07:17:57Z</time>
   </trkpt>
   <trkpt lat="32.5861750" lon="35.1322680">
    <ele>290.6</ele>
    <time>2014-02-21T07:17:58Z</time>
   </trkpt>
   <trkpt lat="32.5862280" lon="35.1322400">
    <ele>290.6</ele>
    <time>2014-02-21T07:17:59Z</time>
   </trkpt>
   <trkpt lat="32.5862800" lon="35.1322250">
    <ele>290.6</ele>
    <time>2014-02-21T07:18:00Z</time>
   </trkpt>
   <trkpt lat="32.5863350" lon="35.1322250">
    <ele>290.5</ele>
    <time>2014-02-21T07:18:01Z</time>
   </trkpt>
   <trkpt lat="32.5863880" lon="35.1322410">
    <ele>290.3</ele>
    <time>2014-02-21T07:18:02Z</time>
   </trkpt>
   <trkpt lat="32.5864350" lon="35.1322600">
    <ele>290.2</ele>
    <time>2014-02-21T07:18:03Z</time>
   </trkpt>
   <trkpt lat="32.5864670" lon="35.1322700">
    <ele>290.1</ele>
    <time>2014-02-21T07:18:04Z</time>
   </trkpt>
   <trkpt lat="32.5865080" lon="35.1322770">
    <ele>289.9</ele>
    <time>2014-02-21T07:18:06Z</time>
   </trkpt>
   <trkpt lat="32.5865480" lon="35.1322490">
    <ele>290.0</ele>
    <time>2014-02-21T07:19:04Z</time>
   </trkpt>
   <trkpt lat="32.5865740" lon="35.1322510">
    <ele>289.9</ele>
    <time>2014-02-21T07:19:17Z</time>
   </trkpt>
   <trkpt lat="32.5865990" lon="35.1322520">
    <ele>289.8</ele>
    <time>2014-02-21T07:19:18Z</time>
   </trkpt>
   <trkpt lat="32.5866530" lon="35.1322570">
    <ele>289.7</ele>
    <time>2014-02-21T07:19:19Z</time>
   </trkpt>
   <trkpt lat="32.5867320" lon="35.1322710">
    <ele>289.5</ele>
    <time>2014-02-21T07:19:20Z</time>
   </trkpt>
   <trkpt lat="32.5868030" lon="35.1322840">
    <ele>289.2</ele>
    <time>2014-02-21T07:19:21Z</time>
   </trkpt>
   <trkpt lat="32.5868800" lon="35.1323020">
    <ele>288.9</ele>
    <time>2014-02-21T07:19:22Z</time>
   </trkpt>
   <trkpt lat="32.5869490" lon="35.1323210">
    <ele>288.6</ele>
    <time>2014-02-21T07:19:23Z</time>
   </trkpt>
   <trkpt lat="32.5870290" lon="35.1323440">
    <ele>288.3</ele>
    <time>2014-02-21T07:19:24Z</time>
   </trkpt>
   <trkpt lat="32.5871160" lon="35.1323590">
    <ele>287.8</ele>
    <time>2014-02-21T07:19:25Z</time>
   </trkpt>
   <trkpt lat="32.5872020" lon="35.1323820">
    <ele>286.9</ele>
    <time>2014-02-21T07:19:26Z</time>
   </trkpt>
   <trkpt lat="32.5872860" lon="35.1324120">
    <ele>286.0</ele>
    <time>2014-02-21T07:19:27Z</time>
   </trkpt>
   <trkpt lat="32.5873660" lon="35.1324330">
    <ele>285.3</ele>
    <time>2014-02-21T07:19:28Z</time>
   </trkpt>
   <trkpt lat="32.5874400" lon="35.1324600">
    <ele>284.5</ele>
    <time>2014-02-21T07:19:29Z</time>
   </trkpt>
   <trkpt lat="32.5875060" lon="35.1324800">
    <ele>283.8</ele>
    <time>2014-02-21T07:19:30Z</time>
   </trkpt>
   <trkpt lat="32.5875490" lon="35.1325060">
    <ele>283.3</ele>
    <time>2014-02-21T07:19:31Z</time>
   </trkpt>
   <trkpt lat="32.5875800" lon="35.1325410">
    <ele>282.9</ele>
    <time>2014-02-21T07:19:32Z</time>
   </trkpt>
   <trkpt lat="32.5875990" lon="35.1325960">
    <ele>282.4</ele>
    <time>2014-02-21T07:19:33Z</time>
   </trkpt>
   <trkpt lat="32.5876130" lon="35.1326480">
    <ele>281.9</ele>
    <time>2014-02-21T07:19:34Z</time>
   </trkpt>
   <trkpt lat="32.5876260" lon="35.1326910">
    <ele>281.5</ele>
    <time>2014-02-21T07:19:35Z</time>
   </trkpt>
   <trkpt lat="32.5876460" lon="35.1327200">
    <ele>281.2</ele>
    <time>2014-02-21T07:19:36Z</time>
   </trkpt>
   <trkpt lat="32.5876810" lon="35.1327650">
    <ele>280.7</ele>
    <time>2014-02-21T07:19:38Z</time>
   </trkpt>
   <trkpt lat="32.5877080" lon="35.1327880">
    <ele>280.3</ele>
    <time>2014-02-21T07:19:39Z</time>
   </trkpt>
   <trkpt lat="32.5877360" lon="35.1328020">
    <ele>280.0</ele>
    <time>2014-02-21T07:19:40Z</time>
   </trkpt>
   <trkpt lat="32.5877820" lon="35.1327930">
    <ele>279.7</ele>
    <time>2014-02-21T07:19:42Z</time>
   </trkpt>
   <trkpt lat="32.5878360" lon="35.1328230">
    <ele>279.2</ele>
    <time>2014-02-21T07:19:44Z</time>
   </trkpt>
   <trkpt lat="32.5878630" lon="35.1328520">
    <ele>278.8</ele>
    <time>2014-02-21T07:19:45Z</time>
   </trkpt>
   <trkpt lat="32.5878960" lon="35.1328920">
    <ele>278.3</ele>
    <time>2014-02-21T07:19:46Z</time>
   </trkpt>
   <trkpt lat="32.5879300" lon="35.1329270">
    <ele>278.0</ele>
    <time>2014-02-21T07:19:47Z</time>
   </trkpt>
   <trkpt lat="32.5879640" lon="35.1329600">
    <ele>277.9</ele>
    <time>2014-02-21T07:19:48Z</time>
   </trkpt>
   <trkpt lat="32.5879900" lon="35.1329980">
    <ele>277.8</ele>
    <time>2014-02-21T07:19:49Z</time>
   </trkpt>
   <trkpt lat="32.5880060" lon="35.1330420">
    <ele>277.7</ele>
    <time>2014-02-21T07:19:50Z</time>
   </trkpt>
   <trkpt lat="32.5880090" lon="35.1330920">
    <ele>277.6</ele>
    <time>2014-02-21T07:19:51Z</time>
   </trkpt>
   <trkpt lat="32.5880030" lon="35.1331430">
    <ele>277.5</ele>
    <time>2014-02-21T07:19:52Z</time>
   </trkpt>
   <trkpt lat="32.5879950" lon="35.1331940">
    <ele>277.4</ele>
    <time>2014-02-21T07:19:53Z</time>
   </trkpt>
   <trkpt lat="32.5879940" lon="35.1332440">
    <ele>277.3</ele>
    <time>2014-02-21T07:19:54Z</time>
   </trkpt>
   <trkpt lat="32.5879980" lon="35.1332920">
    <ele>277.1</ele>
    <time>2014-02-21T07:19:55Z</time>
   </trkpt>
   <trkpt lat="32.5880050" lon="35.1333400">
    <ele>277.0</ele>
    <time>2014-02-21T07:19:56Z</time>
   </trkpt>
   <trkpt lat="32.5880130" lon="35.1333870">
    <ele>276.9</ele>
    <time>2014-02-21T07:19:57Z</time>
   </trkpt>
   <trkpt lat="32.5880250" lon="35.1334330">
    <ele>276.8</ele>
    <time>2014-02-21T07:19:58Z</time>
   </trkpt>
   <trkpt lat="32.5880390" lon="35.1334760">
    <ele>276.8</ele>
    <time>2014-02-21T07:19:59Z</time>
   </trkpt>
   <trkpt lat="32.5880500" lon="35.1335180">
    <ele>276.7</ele>
    <time>2014-02-21T07:20:00Z</time>
   </trkpt>
   <trkpt lat="32.5880620" lon="35.1335570">
    <ele>276.6</ele>
    <time>2014-02-21T07:20:01Z</time>
   </trkpt>
   <trkpt lat="32.5880730" lon="35.1335940">
    <ele>276.5</ele>
    <time>2014-02-21T07:20:02Z</time>
   </trkpt>
   <trkpt lat="32.5880850" lon="35.1336300">
    <ele>276.5</ele>
    <time>2014-02-21T07:20:03Z</time>
   </trkpt>
   <trkpt lat="32.5880970" lon="35.1336620">
    <ele>276.4</ele>
    <time>2014-02-21T07:20:04Z</time>
   </trkpt>
   <trkpt lat="32.5881120" lon="35.1336910">
    <ele>276.4</ele>
    <time>2014-02-21T07:20:05Z</time>
   </trkpt>
   <trkpt lat="32.5881320" lon="35.1337170">
    <ele>276.3</ele>
    <time>2014-02-21T07:20:06Z</time>
   </trkpt>
   <trkpt lat="32.5881520" lon="35.1337410">
    <ele>276.3</ele>
    <time>2014-02-21T07:20:07Z</time>
   </trkpt>
   <trkpt lat="32.5881820" lon="35.1337890">
    <ele>276.1</ele>
    <time>2014-02-21T07:20:09Z</time>
   </trkpt>
   <trkpt lat="32.5882050" lon="35.1338460">
    <ele>275.7</ele>
    <time>2014-02-21T07:20:11Z</time>
   </trkpt>
   <trkpt lat="32.5882140" lon="35.1338770">
    <ele>275.6</ele>
    <time>2014-02-21T07:20:12Z</time>
   </trkpt>
   <trkpt lat="32.5882240" lon="35.1339090">
    <ele>275.4</ele>
    <time>2014-02-21T07:20:13Z</time>
   </trkpt>
   <trkpt lat="32.5882390" lon="35.1339400">
    <ele>275.2</ele>
    <time>2014-02-21T07:20:14Z</time>
   </trkpt>
   <trkpt lat="32.5882570" lon="35.1339680">
    <ele>275.1</ele>
    <time>2014-02-21T07:20:15Z</time>
   </trkpt>
   <trkpt lat="32.5882740" lon="35.1339950">
    <ele>274.9</ele>
    <time>2014-02-21T07:20:16Z</time>
   </trkpt>
   <trkpt lat="32.5882870" lon="35.1340260">
    <ele>274.8</ele>
    <time>2014-02-21T07:20:17Z</time>
   </trkpt>
   <trkpt lat="32.5882950" lon="35.1340600">
    <ele>274.6</ele>
    <time>2014-02-21T07:20:18Z</time>
   </trkpt>
   <trkpt lat="32.5883050" lon="35.1340970">
    <ele>274.4</ele>
    <time>2014-02-21T07:20:19Z</time>
   </trkpt>
   <trkpt lat="32.5883280" lon="35.1341480">
    <ele>274.1</ele>
    <time>2014-02-21T07:20:20Z</time>
   </trkpt>
   <trkpt lat="32.5883560" lon="35.1341940">
    <ele>273.9</ele>
    <time>2014-02-21T07:20:21Z</time>
   </trkpt>
   <trkpt lat="32.5883830" lon="35.1342370">
    <ele>273.7</ele>
    <time>2014-02-21T07:20:22Z</time>
   </trkpt>
   <trkpt lat="32.5884100" lon="35.1342800">
    <ele>273.5</ele>
    <time>2014-02-21T07:20:23Z</time>
   </trkpt>
   <trkpt lat="32.5884360" lon="35.1343240">
    <ele>273.3</ele>
    <time>2014-02-21T07:20:24Z</time>
   </trkpt>
   <trkpt lat="32.5884710" lon="35.1343770">
    <ele>273.2</ele>
    <time>2014-02-21T07:20:25Z</time>
   </trkpt>
   <trkpt lat="32.5884940" lon="35.1344200">
    <ele>273.0</ele>
    <time>2014-02-21T07:20:26Z</time>
   </trkpt>
   <trkpt lat="32.5885250" lon="35.1344660">
    <ele>272.8</ele>
    <time>2014-02-21T07:20:27Z</time>
   </trkpt>
   <trkpt lat="32.5885560" lon="35.1345100">
    <ele>272.7</ele>
    <time>2014-02-21T07:20:28Z</time>
   </trkpt>
   <trkpt lat="32.5885940" lon="35.1345480">
    <ele>272.6</ele>
    <time>2014-02-21T07:20:29Z</time>
   </trkpt>
   <trkpt lat="32.5886260" lon="35.1345870">
    <ele>272.5</ele>
    <time>2014-02-21T07:20:30Z</time>
   </trkpt>
   <trkpt lat="32.5886560" lon="35.1346310">
    <ele>272.1</ele>
    <time>2014-02-21T07:20:31Z</time>
   </trkpt>
   <trkpt lat="32.5886840" lon="35.1346900">
    <ele>271.5</ele>
    <time>2014-02-21T07:20:32Z</time>
   </trkpt>
   <trkpt lat="32.5887070" lon="35.1347520">
    <ele>270.9</ele>
    <time>2014-02-21T07:20:33Z</time>
   </trkpt>
   <trkpt lat="32.5887360" lon="35.1348100">
    <ele>270.3</ele>
    <time>2014-02-21T07:20:34Z</time>
   </trkpt>
   <trkpt lat="32.5887670" lon="35.1348690">
    <ele>269.7</ele>
    <time>2014-02-21T07:20:35Z</time>
   </trkpt>
   <trkpt lat="32.5887980" lon="35.1349260">
    <ele>269.2</ele>
    <time>2014-02-21T07:20:36Z</time>
   </trkpt>
   <trkpt lat="32.5888220" lon="35.1350140">
    <ele>268.4</ele>
    <time>2014-02-21T07:20:37Z</time>
   </trkpt>
   <trkpt lat="32.5888400" lon="35.1350810">
    <ele>267.7</ele>
    <time>2014-02-21T07:20:38Z</time>
   </trkpt>
   <trkpt lat="32.5888600" lon="35.1351510">
    <ele>267.1</ele>
    <time>2014-02-21T07:20:39Z</time>
   </trkpt>
   <trkpt lat="32.5888940" lon="35.1352030">
    <ele>266.8</ele>
    <time>2014-02-21T07:20:40Z</time>
   </trkpt>
   <trkpt lat="32.5889230" lon="35.1352480">
    <ele>266.5</ele>
    <time>2014-02-21T07:20:41Z</time>
   </trkpt>
   <trkpt lat="32.5889630" lon="35.1352970">
    <ele>266.3</ele>
    <time>2014-02-21T07:20:42Z</time>
   </trkpt>
   <trkpt lat="32.5889760" lon="35.1353620">
    <ele>265.8</ele>
    <time>2014-02-21T07:20:43Z</time>
   </trkpt>
   <trkpt lat="32.5889740" lon="35.1354190">
    <ele>265.1</ele>
    <time>2014-02-21T07:20:44Z</time>
   </trkpt>
   <trkpt lat="32.5890040" lon="35.1354790">
    <ele>264.9</ele>
    <time>2014-02-21T07:20:45Z</time>
   </trkpt>
   <trkpt lat="32.5890340" lon="35.1355210">
    <ele>264.9</ele>
    <time>2014-02-21T07:20:46Z</time>
   </trkpt>
   <trkpt lat="32.5890570" lon="35.1355690">
    <ele>264.7</ele>
    <time>2014-02-21T07:20:47Z</time>
   </trkpt>
   <trkpt lat="32.5890700" lon="35.1356280">
    <ele>264.3</ele>
    <time>2014-02-21T07:20:48Z</time>
   </trkpt>
   <trkpt lat="32.5890920" lon="35.1356970">
    <ele>264.0</ele>
    <time>2014-02-21T07:20:49Z</time>
   </trkpt>
   <trkpt lat="32.5891050" lon="35.1357620">
    <ele>263.6</ele>
    <time>2014-02-21T07:20:50Z</time>
   </trkpt>
   <trkpt lat="32.5891310" lon="35.1358300">
    <ele>263.4</ele>
    <time>2014-02-21T07:20:51Z</time>
   </trkpt>
   <trkpt lat="32.5891660" lon="35.1358960">
    <ele>263.3</ele>
    <time>2014-02-21T07:20:52Z</time>
   </trkpt>
   <trkpt lat="32.5891950" lon="35.1359630">
    <ele>263.1</ele>
    <time>2014-02-21T07:20:53Z</time>
   </trkpt>
   <trkpt lat="32.5892090" lon="35.1360290">
    <ele>262.7</ele>
    <time>2014-02-21T07:20:54Z</time>
   </trkpt>
   <trkpt lat="32.5892000" lon="35.1361200">
    <ele>261.9</ele>
    <time>2014-02-21T07:20:55Z</time>
   </trkpt>
   <trkpt lat="32.5892060" lon="35.1361980">
    <ele>261.4</ele>
    <time>2014-02-21T07:20:56Z</time>
   </trkpt>
   <trkpt lat="32.5892300" lon="35.1362850">
    <ele>260.9</ele>
    <time>2014-02-21T07:20:57Z</time>
   </trkpt>
   <trkpt lat="32.5892840" lon="35.1363410">
    <ele>261.0</ele>
    <time>2014-02-21T07:20:58Z</time>
   </trkpt>
   <trkpt lat="32.5893350" lon="35.1363990">
    <ele>261.0</ele>
    <time>2014-02-21T07:20:59Z</time>
   </trkpt>
   <trkpt lat="32.5893790" lon="35.1364620">
    <ele>260.8</ele>
    <time>2014-02-21T07:21:00Z</time>
   </trkpt>
   <trkpt lat="32.5894220" lon="35.1365200">
    <ele>260.6</ele>
    <time>2014-02-21T07:21:01Z</time>
   </trkpt>
   <trkpt lat="32.5894760" lon="35.1365600">
    <ele>260.7</ele>
    <time>2014-02-21T07:21:02Z</time>
   </trkpt>
   <trkpt lat="32.5895260" lon="35.1366110">
    <ele>260.6</ele>
    <time>2014-02-21T07:21:03Z</time>
   </trkpt>
   <trkpt lat="32.5895510" lon="35.1366760">
    <ele>260.0</ele>
    <time>2014-02-21T07:21:04Z</time>
   </trkpt>
   <trkpt lat="32.5895820" lon="35.1367440">
    <ele>259.5</ele>
    <time>2014-02-21T07:21:05Z</time>
   </trkpt>
   <trkpt lat="32.5896230" lon="35.1368030">
    <ele>258.8</ele>
    <time>2014-02-21T07:21:06Z</time>
   </trkpt>
   <trkpt lat="32.5896730" lon="35.1368620">
    <ele>258.2</ele>
    <time>2014-02-21T07:21:07Z</time>
   </trkpt>
   <trkpt lat="32.5897250" lon="35.1369160">
    <ele>257.7</ele>
    <time>2014-02-21T07:21:08Z</time>
   </trkpt>
   <trkpt lat="32.5897860" lon="35.1369580">
    <ele>257.4</ele>
    <time>2014-02-21T07:21:09Z</time>
   </trkpt>
   <trkpt lat="32.5898500" lon="35.1369940">
    <ele>257.3</ele>
    <time>2014-02-21T07:21:10Z</time>
   </trkpt>
   <trkpt lat="32.5899120" lon="35.1370310">
    <ele>257.1</ele>
    <time>2014-02-21T07:21:11Z</time>
   </trkpt>
   <trkpt lat="32.5899570" lon="35.1370910">
    <ele>256.7</ele>
    <time>2014-02-21T07:21:12Z</time>
   </trkpt>
   <trkpt lat="32.5899990" lon="35.1371320">
    <ele>256.6</ele>
    <time>2014-02-21T07:21:13Z</time>
   </trkpt>
   <trkpt lat="32.5900430" lon="35.1371460">
    <ele>256.7</ele>
    <time>2014-02-21T07:21:14Z</time>
   </trkpt>
   <trkpt lat="32.5900970" lon="35.1371370">
    <ele>257.0</ele>
    <time>2014-02-21T07:21:15Z</time>
   </trkpt>
   <trkpt lat="32.5901550" lon="35.1371450">
    <ele>257.3</ele>
    <time>2014-02-21T07:21:16Z</time>
   </trkpt>
   <trkpt lat="32.5902170" lon="35.1371630">
    <ele>257.5</ele>
    <time>2014-02-21T07:21:17Z</time>
   </trkpt>
   <trkpt lat="32.5902800" lon="35.1371730">
    <ele>257.8</ele>
    <time>2014-02-21T07:21:18Z</time>
   </trkpt>
   <trkpt lat="32.5903460" lon="35.1371920">
    <ele>258.1</ele>
    <time>2014-02-21T07:21:19Z</time>
   </trkpt>
   <trkpt lat="32.5904050" lon="35.1371990">
    <ele>258.4</ele>
    <time>2014-02-21T07:21:20Z</time>
   </trkpt>
   <trkpt lat="32.5904690" lon="35.1372030">
    <ele>258.1</ele>
    <time>2014-02-21T07:21:21Z</time>
   </trkpt>
   <trkpt lat="32.5905380" lon="35.1372000">
    <ele>257.7</ele>
    <time>2014-02-21T07:21:22Z</time>
   </trkpt>
   <trkpt lat="32.5906100" lon="35.1372040">
    <ele>257.2</ele>
    <time>2014-02-21T07:21:23Z</time>
   </trkpt>
   <trkpt lat="32.5906790" lon="35.1372040">
    <ele>256.8</ele>
    <time>2014-02-21T07:21:24Z</time>
   </trkpt>
   <trkpt lat="32.5907460" lon="35.1372320">
    <ele>256.2</ele>
    <time>2014-02-21T07:21:25Z</time>
   </trkpt>
   <trkpt lat="32.5908150" lon="35.1372500">
    <ele>255.7</ele>
    <time>2014-02-21T07:21:26Z</time>
   </trkpt>
   <trkpt lat="32.5908330" lon="35.1373260">
    <ele>255.2</ele>
    <time>2014-02-21T07:21:27Z</time>
   </trkpt>
   <trkpt lat="32.5908450" lon="35.1373960">
    <ele>254.7</ele>
    <time>2014-02-21T07:21:28Z</time>
   </trkpt>
   <trkpt lat="32.5908620" lon="35.1374720">
    <ele>254.2</ele>
    <time>2014-02-21T07:21:29Z</time>
   </trkpt>
   <trkpt lat="32.5908890" lon="35.1375540">
    <ele>253.6</ele>
    <time>2014-02-21T07:21:30Z</time>
   </trkpt>
   <trkpt lat="32.5909170" lon="35.1376330">
    <ele>253.0</ele>
    <time>2014-02-21T07:21:31Z</time>
   </trkpt>
   <trkpt lat="32.5909630" lon="35.1377090">
    <ele>252.2</ele>
    <time>2014-02-21T07:21:32Z</time>
   </trkpt>
   <trkpt lat="32.5910350" lon="35.1377330">
    <ele>251.6</ele>
    <time>2014-02-21T07:21:33Z</time>
   </trkpt>
   <trkpt lat="32.5910980" lon="35.1377630">
    <ele>251.0</ele>
    <time>2014-02-21T07:21:34Z</time>
   </trkpt>
   <trkpt lat="32.5911560" lon="35.1377930">
    <ele>250.4</ele>
    <time>2014-02-21T07:21:35Z</time>
   </trkpt>
   <trkpt lat="32.5912030" lon="35.1378360">
    <ele>249.8</ele>
    <time>2014-02-21T07:21:36Z</time>
   </trkpt>
   <trkpt lat="32.5912350" lon="35.1379020">
    <ele>249.2</ele>
    <time>2014-02-21T07:21:37Z</time>
   </trkpt>
   <trkpt lat="32.5912110" lon="35.1379510">
    <ele>248.8</ele>
    <time>2014-02-21T07:21:38Z</time>
   </trkpt>
   <trkpt lat="32.5911960" lon="35.1379930">
    <ele>248.4</ele>
    <time>2014-02-21T07:21:40Z</time>
   </trkpt>
   <trkpt lat="32.5911710" lon="35.1380460">
    <ele>247.8</ele>
    <time>2014-02-21T07:21:47Z</time>
   </trkpt>
   <trkpt lat="32.5911680" lon="35.1380780">
    <ele>247.4</ele>
    <time>2014-02-21T07:23:02Z</time>
   </trkpt>
   <trkpt lat="32.5911620" lon="35.1381290">
    <ele>246.8</ele>
    <time>2014-02-21T07:23:03Z</time>
   </trkpt>
   <trkpt lat="32.5911670" lon="35.1382150">
    <ele>245.6</ele>
    <time>2014-02-21T07:23:04Z</time>
   </trkpt>
   <trkpt lat="32.5911640" lon="35.1382860">
    <ele>244.6</ele>
    <time>2014-02-21T07:23:05Z</time>
   </trkpt>
   <trkpt lat="32.5911670" lon="35.1383530">
    <ele>243.7</ele>
    <time>2014-02-21T07:23:06Z</time>
   </trkpt>
   <trkpt lat="32.5911860" lon="35.1384200">
    <ele>242.7</ele>
    <time>2014-02-21T07:23:07Z</time>
   </trkpt>
   <trkpt lat="32.5912100" lon="35.1384940">
    <ele>241.6</ele>
    <time>2014-02-21T07:23:08Z</time>
   </trkpt>
   <trkpt lat="32.5912240" lon="35.1385700">
    <ele>240.5</ele>
    <time>2014-02-21T07:23:09Z</time>
   </trkpt>
   <trkpt lat="32.5912320" lon="35.1386470">
    <ele>239.4</ele>
    <time>2014-02-21T07:23:10Z</time>
   </trkpt>
   <trkpt lat="32.5912260" lon="35.1387180">
    <ele>238.5</ele>
    <time>2014-02-21T07:23:11Z</time>
   </trkpt>
   <trkpt lat="32.5912030" lon="35.1387820">
    <ele>237.9</ele>
    <time>2014-02-21T07:23:12Z</time>
   </trkpt>
   <trkpt lat="32.5912050" lon="35.1388500">
    <ele>237.3</ele>
    <time>2014-02-21T07:23:13Z</time>
   </trkpt>
   <trkpt lat="32.5912060" lon="35.1389150">
    <ele>236.7</ele>
    <time>2014-02-21T07:23:14Z</time>
   </trkpt>
   <trkpt lat="32.5912120" lon="35.1389810">
    <ele>236.1</ele>
    <time>2014-02-21T07:23:15Z</time>
   </trkpt>
   <trkpt lat="32.5912260" lon="35.1390430">
    <ele>235.6</ele>
    <time>2014-02-21T07:23:16Z</time>
   </trkpt>
   <trkpt lat="32.5912370" lon="35.1391030">
    <ele>235.0</ele>
    <time>2014-02-21T07:23:17Z</time>
   </trkpt>
   <trkpt lat="32.5912260" lon="35.1391590">
    <ele>234.6</ele>
    <time>2014-02-21T07:23:18Z</time>
   </trkpt>
   <trkpt lat="32.5912120" lon="35.1392180">
    <ele>234.1</ele>
    <time>2014-02-21T07:23:19Z</time>
   </trkpt>
   <trkpt lat="32.5911970" lon="35.1392770">
    <ele>233.5</ele>
    <time>2014-02-21T07:23:20Z</time>
   </trkpt>
   <trkpt lat="32.5911900" lon="35.1393420">
    <ele>232.9</ele>
    <time>2014-02-21T07:23:21Z</time>
   </trkpt>
   <trkpt lat="32.5911960" lon="35.1394080">
    <ele>232.4</ele>
    <time>2014-02-21T07:23:22Z</time>
   </trkpt>
   <trkpt lat="32.5912000" lon="35.1394740">
    <ele>231.8</ele>
    <time>2014-02-21T07:23:23Z</time>
   </trkpt>
   <trkpt lat="32.5912100" lon="35.1395370">
    <ele>231.3</ele>
    <time>2014-02-21T07:23:24Z</time>
   </trkpt>
   <trkpt lat="32.5912180" lon="35.1395970">
    <ele>230.8</ele>
    <time>2014-02-21T07:23:25Z</time>
   </trkpt>
   <trkpt lat="32.5912240" lon="35.1396570">
    <ele>230.4</ele>
    <time>2014-02-21T07:23:26Z</time>
   </trkpt>
   <trkpt lat="32.5912360" lon="35.1397200">
    <ele>230.0</ele>
    <time>2014-02-21T07:23:27Z</time>
   </trkpt>
   <trkpt lat="32.5912520" lon="35.1397840">
    <ele>229.6</ele>
    <time>2014-02-21T07:23:28Z</time>
   </trkpt>
   <trkpt lat="32.5912600" lon="35.1398590">
    <ele>229.1</ele>
    <time>2014-02-21T07:23:29Z</time>
   </trkpt>
   <trkpt lat="32.5912420" lon="35.1399330">
    <ele>228.4</ele>
    <time>2014-02-21T07:23:30Z</time>
   </trkpt>
   <trkpt lat="32.5912470" lon="35.1400140">
    <ele>227.9</ele>
    <time>2014-02-21T07:23:31Z</time>
   </trkpt>
   <trkpt lat="32.5912520" lon="35.1400930">
    <ele>227.3</ele>
    <time>2014-02-21T07:23:32Z</time>
   </trkpt>
   <trkpt lat="32.5912620" lon="35.1401740">
    <ele>226.8</ele>
    <time>2014-02-21T07:23:33Z</time>
   </trkpt>
   <trkpt lat="32.5912720" lon="35.1402520">
    <ele>226.3</ele>
    <time>2014-02-21T07:23:34Z</time>
   </trkpt>
   <trkpt lat="32.5912700" lon="35.1403340">
    <ele>225.7</ele>
    <time>2014-02-21T07:23:35Z</time>
   </trkpt>
   <trkpt lat="32.5912770" lon="35.1404190">
    <ele>225.2</ele>
    <time>2014-02-21T07:23:36Z</time>
   </trkpt>
   <trkpt lat="32.5912890" lon="35.1405000">
    <ele>224.8</ele>
    <time>2014-02-21T07:23:37Z</time>
   </trkpt>
   <trkpt lat="32.5912950" lon="35.1405810">
    <ele>224.4</ele>
    <time>2014-02-21T07:23:38Z</time>
   </trkpt>
   <trkpt lat="32.5913030" lon="35.1406600">
    <ele>224.1</ele>
    <time>2014-02-21T07:23:39Z</time>
   </trkpt>
   <trkpt lat="32.5912970" lon="35.1407440">
    <ele>223.6</ele>
    <time>2014-02-21T07:23:40Z</time>
   </trkpt>
   <trkpt lat="32.5912920" lon="35.1408220">
    <ele>223.2</ele>
    <time>2014-02-21T07:23:41Z</time>
   </trkpt>
   <trkpt lat="32.5912870" lon="35.1408970">
    <ele>222.8</ele>
    <time>2014-02-21T07:23:42Z</time>
   </trkpt>
   <trkpt lat="32.5912850" lon="35.1409720">
    <ele>222.4</ele>
    <time>2014-02-21T07:23:43Z</time>
   </trkpt>
   <trkpt lat="32.5912900" lon="35.1410340">
    <ele>222.1</ele>
    <time>2014-02-21T07:23:44Z</time>
   </trkpt>
   <trkpt lat="32.5913130" lon="35.1411000">
    <ele>221.9</ele>
    <time>2014-02-21T07:23:45Z</time>
   </trkpt>
   <trkpt lat="32.5913440" lon="35.1411510">
    <ele>221.6</ele>
    <time>2014-02-21T07:23:46Z</time>
   </trkpt>
   <trkpt lat="32.5913780" lon="35.1412070">
    <ele>221.4</ele>
    <time>2014-02-21T07:23:47Z</time>
   </trkpt>
   <trkpt lat="32.5914000" lon="35.1412720">
    <ele>221.0</ele>
    <time>2014-02-21T07:23:48Z</time>
   </trkpt>
   <trkpt lat="32.5914220" lon="35.1413280">
    <ele>220.5</ele>
    <time>2014-02-21T07:23:49Z</time>
   </trkpt>
   <trkpt lat="32.5914600" lon="35.1413710">
    <ele>220.1</ele>
    <time>2014-02-21T07:23:50Z</time>
   </trkpt>
   <trkpt lat="32.5915050" lon="35.1414020">
    <ele>219.8</ele>
    <time>2014-02-21T07:23:51Z</time>
   </trkpt>
   <trkpt lat="32.5915570" lon="35.1414150">
    <ele>219.8</ele>
    <time>2014-02-21T07:23:52Z</time>
   </trkpt>
   <trkpt lat="32.5916070" lon="35.1414210">
    <ele>219.8</ele>
    <time>2014-02-21T07:23:53Z</time>
   </trkpt>
   <trkpt lat="32.5916500" lon="35.1414620">
    <ele>219.4</ele>
    <time>2014-02-21T07:23:54Z</time>
   </trkpt>
   <trkpt lat="32.5916880" lon="35.1414990">
    <ele>219.1</ele>
    <time>2014-02-21T07:23:55Z</time>
   </trkpt>
   <trkpt lat="32.5917310" lon="35.1415330">
    <ele>218.9</ele>
    <time>2014-02-21T07:23:56Z</time>
   </trkpt>
   <trkpt lat="32.5917630" lon="35.1415820">
    <ele>218.4</ele>
    <time>2014-02-21T07:23:57Z</time>
   </trkpt>
   <trkpt lat="32.5917910" lon="35.1416320">
    <ele>218.0</ele>
    <time>2014-02-21T07:23:58Z</time>
   </trkpt>
   <trkpt lat="32.5918330" lon="35.1416890">
    <ele>217.5</ele>
    <time>2014-02-21T07:23:59Z</time>
   </trkpt>
   <trkpt lat="32.5918860" lon="35.1417400">
    <ele>217.1</ele>
    <time>2014-02-21T07:24:00Z</time>
   </trkpt>
   <trkpt lat="32.5919200" lon="35.1417990">
    <ele>216.5</ele>
    <time>2014-02-21T07:24:01Z</time>
   </trkpt>
   <trkpt lat="32.5919400" lon="35.1418680">
    <ele>215.9</ele>
    <time>2014-02-21T07:24:02Z</time>
   </trkpt>
   <trkpt lat="32.5919360" lon="35.1419430">
    <ele>215.2</ele>
    <time>2014-02-21T07:24:03Z</time>
   </trkpt>
   <trkpt lat="32.5919060" lon="35.1420040">
    <ele>214.5</ele>
    <time>2014-02-21T07:24:04Z</time>
   </trkpt>
   <trkpt lat="32.5918910" lon="35.1420730">
    <ele>213.9</ele>
    <time>2014-02-21T07:24:05Z</time>
   </trkpt>
   <trkpt lat="32.5918990" lon="35.1421420">
    <ele>212.9</ele>
    <time>2014-02-21T07:24:06Z</time>
   </trkpt>
   <trkpt lat="32.5919210" lon="35.1422070">
    <ele>211.9</ele>
    <time>2014-02-21T07:24:07Z</time>
   </trkpt>
   <trkpt lat="32.5919400" lon="35.1422700">
    <ele>210.9</ele>
    <time>2014-02-21T07:24:08Z</time>
   </trkpt>
   <trkpt lat="32.5919550" lon="35.1423420">
    <ele>209.9</ele>
    <time>2014-02-21T07:24:09Z</time>
   </trkpt>
   <trkpt lat="32.5919760" lon="35.1424060">
    <ele>209.0</ele>
    <time>2014-02-21T07:24:10Z</time>
   </trkpt>
   <trkpt lat="32.5920220" lon="35.1424520">
    <ele>208.5</ele>
    <time>2014-02-21T07:24:11Z</time>
   </trkpt>
   <trkpt lat="32.5920600" lon="35.1425120">
    <ele>207.7</ele>
    <time>2014-02-21T07:24:12Z</time>
   </trkpt>
   <trkpt lat="32.5920940" lon="35.1425720">
    <ele>206.9</ele>
    <time>2014-02-21T07:24:13Z</time>
   </trkpt>
   <trkpt lat="32.5921100" lon="35.1426310">
    <ele>206.0</ele>
    <time>2014-02-21T07:24:14Z</time>
   </trkpt>
   <trkpt lat="32.5921010" lon="35.1426920">
    <ele>205.2</ele>
    <time>2014-02-21T07:24:15Z</time>
   </trkpt>
   <trkpt lat="32.5920790" lon="35.1427550">
    <ele>204.3</ele>
    <time>2014-02-21T07:24:16Z</time>
   </trkpt>
   <trkpt lat="32.5920940" lon="35.1428120">
    <ele>203.5</ele>
    <time>2014-02-21T07:24:17Z</time>
   </trkpt>
   <trkpt lat="32.5921320" lon="35.1428470">
    <ele>202.9</ele>
    <time>2014-02-21T07:24:18Z</time>
   </trkpt>
   <trkpt lat="32.5921830" lon="35.1428510">
    <ele>202.8</ele>
    <time>2014-02-21T07:24:19Z</time>
   </trkpt>
   <trkpt lat="32.5922340" lon="35.1428430">
    <ele>202.8</ele>
    <time>2014-02-21T07:24:20Z</time>
   </trkpt>
   <trkpt lat="32.5922930" lon="35.1428410">
    <ele>202.7</ele>
    <time>2014-02-21T07:24:21Z</time>
   </trkpt>
   <trkpt lat="32.5923470" lon="35.1428230">
    <ele>202.7</ele>
    <time>2014-02-21T07:24:22Z</time>
   </trkpt>
   <trkpt lat="32.5923860" lon="35.1428020">
    <ele>202.9</ele>
    <time>2014-02-21T07:24:23Z</time>
   </trkpt>
   <trkpt lat="32.5924410" lon="35.1428090">
    <ele>202.7</ele>
    <time>2014-02-21T07:24:24Z</time>
   </trkpt>
   <trkpt lat="32.5924940" lon="35.1428110">
    <ele>202.5</ele>
    <time>2014-02-21T07:24:25Z</time>
   </trkpt>
   <trkpt lat="32.5925310" lon="35.1427720">
    <ele>202.8</ele>
    <time>2014-02-21T07:24:26Z</time>
   </trkpt>
   <trkpt lat="32.5925680" lon="35.1427260">
    <ele>203.1</ele>
    <time>2014-02-21T07:24:27Z</time>
   </trkpt>
   <trkpt lat="32.5926090" lon="35.1427030">
    <ele>203.2</ele>
    <time>2014-02-21T07:24:28Z</time>
   </trkpt>
   <trkpt lat="32.5926480" lon="35.1427040">
    <ele>203.0</ele>
    <time>2014-02-21T07:24:29Z</time>
   </trkpt>
   <trkpt lat="32.5926740" lon="35.1427470">
    <ele>202.6</ele>
    <time>2014-02-21T07:24:30Z</time>
   </trkpt>
   <trkpt lat="32.5926710" lon="35.1428010">
    <ele>202.2</ele>
    <time>2014-02-21T07:24:31Z</time>
   </trkpt>
   <trkpt lat="32.5926610" lon="35.1428560">
    <ele>201.8</ele>
    <time>2014-02-21T07:24:32Z</time>
   </trkpt>
   <trkpt lat="32.5926810" lon="35.1429100">
    <ele>201.3</ele>
    <time>2014-02-21T07:24:33Z</time>
   </trkpt>
   <trkpt lat="32.5927010" lon="35.1429630">
    <ele>200.8</ele>
    <time>2014-02-21T07:24:34Z</time>
   </trkpt>
   <trkpt lat="32.5927160" lon="35.1430170">
    <ele>200.2</ele>
    <time>2014-02-21T07:24:35Z</time>
   </trkpt>
   <trkpt lat="32.5927470" lon="35.1430550">
    <ele>199.8</ele>
    <time>2014-02-21T07:24:36Z</time>
   </trkpt>
   <trkpt lat="32.5927770" lon="35.1430870">
    <ele>199.5</ele>
    <time>2014-02-21T07:24:37Z</time>
   </trkpt>
   <trkpt lat="32.5927910" lon="35.1431190">
    <ele>199.2</ele>
    <time>2014-02-21T07:24:38Z</time>
   </trkpt>
   <trkpt lat="32.5928130" lon="35.1431450">
    <ele>198.9</ele>
    <time>2014-02-21T07:24:39Z</time>
   </trkpt>
   <trkpt lat="32.5928400" lon="35.1431780">
    <ele>198.7</ele>
    <time>2014-02-21T07:24:40Z</time>
   </trkpt>
   <trkpt lat="32.5928740" lon="35.1432000">
    <ele>198.5</ele>
    <time>2014-02-21T07:24:41Z</time>
   </trkpt>
   <trkpt lat="32.5929180" lon="35.1432120">
    <ele>198.5</ele>
    <time>2014-02-21T07:24:42Z</time>
   </trkpt>
   <trkpt lat="32.5929620" lon="35.1432340">
    <ele>197.9</ele>
    <time>2014-02-21T07:24:43Z</time>
   </trkpt>
   <trkpt lat="32.5930020" lon="35.1432670">
    <ele>197.4</ele>
    <time>2014-02-21T07:24:44Z</time>
   </trkpt>
   <trkpt lat="32.5930440" lon="35.1432990">
    <ele>196.8</ele>
    <time>2014-02-21T07:24:45Z</time>
   </trkpt>
   <trkpt lat="32.5930880" lon="35.1433280">
    <ele>196.2</ele>
    <time>2014-02-21T07:24:46Z</time>
   </trkpt>
   <trkpt lat="32.5931310" lon="35.1433420">
    <ele>195.8</ele>
    <time>2014-02-21T07:24:47Z</time>
   </trkpt>
   <trkpt lat="32.5931650" lon="35.1433570">
    <ele>195.4</ele>
    <time>2014-02-21T07:24:48Z</time>
   </trkpt>
   <trkpt lat="32.5931960" lon="35.1433860">
    <ele>195.0</ele>
    <time>2014-02-21T07:24:49Z</time>
   </trkpt>
   <trkpt lat="32.5932240" lon="35.1434250">
    <ele>194.5</ele>
    <time>2014-02-21T07:24:50Z</time>
   </trkpt>
   <trkpt lat="32.5932490" lon="35.1434700">
    <ele>194.1</ele>
    <time>2014-02-21T07:24:51Z</time>
   </trkpt>
   <trkpt lat="32.5932930" lon="35.1434970">
    <ele>193.6</ele>
    <time>2014-02-21T07:24:52Z</time>
   </trkpt>
   <trkpt lat="32.5933370" lon="35.1435110">
    <ele>193.3</ele>
    <time>2014-02-21T07:24:53Z</time>
   </trkpt>
   <trkpt lat="32.5933810" lon="35.1435300">
    <ele>192.9</ele>
    <time>2014-02-21T07:24:54Z</time>
   </trkpt>
   <trkpt lat="32.5934190" lon="35.1435280">
    <ele>192.7</ele>
    <time>2014-02-21T07:24:55Z</time>
   </trkpt>
   <trkpt lat="32.5934500" lon="35.1435550">
    <ele>192.3</ele>
    <time>2014-02-21T07:24:56Z</time>
   </trkpt>
   <trkpt lat="32.5934780" lon="35.1435920">
    <ele>192.0</ele>
    <time>2014-02-21T07:24:57Z</time>
   </trkpt>
   <trkpt lat="32.5935050" lon="35.1436270">
    <ele>191.7</ele>
    <time>2014-02-21T07:24:58Z</time>
   </trkpt>
   <trkpt lat="32.5935330" lon="35.1436700">
    <ele>191.4</ele>
    <time>2014-02-21T07:24:59Z</time>
   </trkpt>
   <trkpt lat="32.5935730" lon="35.1436970">
    <ele>191.0</ele>
    <time>2014-02-21T07:25:00Z</time>
   </trkpt>
   <trkpt lat="32.5936220" lon="35.1437070">
    <ele>190.8</ele>
    <time>2014-02-21T07:25:01Z</time>
   </trkpt>
   <trkpt lat="32.5936710" lon="35.1437240">
    <ele>190.5</ele>
    <time>2014-02-21T07:25:02Z</time>
   </trkpt>
   <trkpt lat="32.5937130" lon="35.1437500">
    <ele>190.2</ele>
    <time>2014-02-21T07:25:03Z</time>
   </trkpt>
   <trkpt lat="32.5937340" lon="35.1438070">
    <ele>189.5</ele>
    <time>2014-02-21T07:25:04Z</time>
   </trkpt>
   <trkpt lat="32.5937550" lon="35.1438630">
    <ele>188.9</ele>
    <time>2014-02-21T07:25:05Z</time>
   </trkpt>
   <trkpt lat="32.5937790" lon="35.1439190">
    <ele>188.1</ele>
    <time>2014-02-21T07:25:06Z</time>
   </trkpt>
   <trkpt lat="32.5938250" lon="35.1439580">
    <ele>187.4</ele>
    <time>2014-02-21T07:25:07Z</time>
   </trkpt>
   <trkpt lat="32.5938600" lon="35.1440090">
    <ele>186.7</ele>
    <time>2014-02-21T07:25:08Z</time>
   </trkpt>
   <trkpt lat="32.5938890" lon="35.1440620">
    <ele>186.0</ele>
    <time>2014-02-21T07:25:09Z</time>
   </trkpt>
   <trkpt lat="32.5939200" lon="35.1441150">
    <ele>185.2</ele>
    <time>2014-02-21T07:25:10Z</time>
   </trkpt>
   <trkpt lat="32.5939580" lon="35.1441620">
    <ele>184.5</ele>
    <time>2014-02-21T07:25:11Z</time>
   </trkpt>
   <trkpt lat="32.5939970" lon="35.1441970">
    <ele>184.0</ele>
    <time>2014-02-21T07:25:12Z</time>
   </trkpt>
   <trkpt lat="32.5940440" lon="35.1442170">
    <ele>183.4</ele>
    <time>2014-02-21T07:25:13Z</time>
   </trkpt>
   <trkpt lat="32.5940890" lon="35.1442430">
    <ele>182.9</ele>
    <time>2014-02-21T07:25:14Z</time>
   </trkpt>
   <trkpt lat="32.5941100" lon="35.1442960">
    <ele>182.3</ele>
    <time>2014-02-21T07:25:15Z</time>
   </trkpt>
   <trkpt lat="32.5941390" lon="35.1443300">
    <ele>181.8</ele>
    <time>2014-02-21T07:25:16Z</time>
   </trkpt>
   <trkpt lat="32.5941610" lon="35.1443690">
    <ele>181.3</ele>
    <time>2014-02-21T07:25:17Z</time>
   </trkpt>
   <trkpt lat="32.5941720" lon="35.1444070">
    <ele>180.9</ele>
    <time>2014-02-21T07:25:18Z</time>
   </trkpt>
   <trkpt lat="32.5941990" lon="35.1444450">
    <ele>180.5</ele>
    <time>2014-02-21T07:25:19Z</time>
   </trkpt>
   <trkpt lat="32.5942280" lon="35.1444740">
    <ele>180.0</ele>
    <time>2014-02-21T07:25:20Z</time>
   </trkpt>
   <trkpt lat="32.5942590" lon="35.1444950">
    <ele>179.7</ele>
    <time>2014-02-21T07:25:21Z</time>
   </trkpt>
   <trkpt lat="32.5942880" lon="35.1445200">
    <ele>179.3</ele>
    <time>2014-02-21T07:25:22Z</time>
   </trkpt>
   <trkpt lat="32.5943260" lon="35.1445410">
    <ele>178.9</ele>
    <time>2014-02-21T07:25:23Z</time>
   </trkpt>
   <trkpt lat="32.5943630" lon="35.1445650">
    <ele>178.5</ele>
    <time>2014-02-21T07:25:24Z</time>
   </trkpt>
   <trkpt lat="32.5943830" lon="35.1445930">
    <ele>178.1</ele>
    <time>2014-02-21T07:25:25Z</time>
   </trkpt>
   <trkpt lat="32.5944010" lon="35.1446200">
    <ele>177.7</ele>
    <time>2014-02-21T07:25:26Z</time>
   </trkpt>
   <trkpt lat="32.5944200" lon="35.1446490">
    <ele>177.4</ele>
    <time>2014-02-21T07:25:27Z</time>
   </trkpt>
   <trkpt lat="32.5944430" lon="35.1446780">
    <ele>177.0</ele>
    <time>2014-02-21T07:25:28Z</time>
   </trkpt>
   <trkpt lat="32.5944720" lon="35.1447050">
    <ele>176.5</ele>
    <time>2014-02-21T07:25:29Z</time>
   </trkpt>
   <trkpt lat="32.5945140" lon="35.1447270">
    <ele>176.1</ele>
    <time>2014-02-21T07:25:30Z</time>
   </trkpt>
   <trkpt lat="32.5945560" lon="35.1447440">
    <ele>175.8</ele>
    <time>2014-02-21T07:25:31Z</time>
   </trkpt>
   <trkpt lat="32.5945940" lon="35.1447660">
    <ele>175.4</ele>
    <time>2014-02-21T07:25:32Z</time>
   </trkpt>
   <trkpt lat="32.5946320" lon="35.1447880">
    <ele>175.1</ele>
    <time>2014-02-21T07:25:33Z</time>
   </trkpt>
   <trkpt lat="32.5946510" lon="35.1448350">
    <ele>174.6</ele>
    <time>2014-02-21T07:25:34Z</time>
   </trkpt>
   <trkpt lat="32.5946740" lon="35.1448660">
    <ele>174.3</ele>
    <time>2014-02-21T07:25:35Z</time>
   </trkpt>
   <trkpt lat="32.5947510" lon="35.1448860">
    <ele>173.8</ele>
    <time>2014-02-21T07:30:48Z</time>
   </trkpt>
   <trkpt lat="32.5947740" lon="35.1449000">
    <ele>173.6</ele>
    <time>2014-02-21T07:30:49Z</time>
   </trkpt>
   <trkpt lat="32.5948230" lon="35.1449290">
    <ele>173.1</ele>
    <time>2014-02-21T07:30:50Z</time>
   </trkpt>
   <trkpt lat="32.5949220" lon="35.1449600">
    <ele>172.4</ele>
    <time>2014-02-21T07:30:51Z</time>
   </trkpt>
   <trkpt lat="32.5949940" lon="35.1449470">
    <ele>172.3</ele>
    <time>2014-02-21T07:30:52Z</time>
   </trkpt>
   <trkpt lat="32.5950560" lon="35.1449200">
    <ele>172.2</ele>
    <time>2014-02-21T07:30:53Z</time>
   </trkpt>
   <trkpt lat="32.5951170" lon="35.1448970">
    <ele>172.2</ele>
    <time>2014-02-21T07:30:54Z</time>
   </trkpt>
   <trkpt lat="32.5951790" lon="35.1448760">
    <ele>172.1</ele>
    <time>2014-02-21T07:30:55Z</time>
   </trkpt>
   <trkpt lat="32.5952350" lon="35.1448560">
    <ele>172.1</ele>
    <time>2014-02-21T07:30:56Z</time>
   </trkpt>
   <trkpt lat="32.5952750" lon="35.1448830">
    <ele>171.7</ele>
    <time>2014-02-21T07:30:57Z</time>
   </trkpt>
   <trkpt lat="32.5953270" lon="35.1449100">
    <ele>171.2</ele>
    <time>2014-02-21T07:30:58Z</time>
   </trkpt>
   <trkpt lat="32.5953600" lon="35.1449320">
    <ele>170.9</ele>
    <time>2014-02-21T07:30:59Z</time>
   </trkpt>
   <trkpt lat="32.5953990" lon="35.1449330">
    <ele>170.7</ele>
    <time>2014-02-21T07:31:00Z</time>
   </trkpt>
   <trkpt lat="32.5954390" lon="35.1449420">
    <ele>170.4</ele>
    <time>2014-02-21T07:31:01Z</time>
   </trkpt>
   <trkpt lat="32.5954760" lon="35.1449540">
    <ele>170.2</ele>
    <time>2014-02-21T07:31:02Z</time>
   </trkpt>
   <trkpt lat="32.5955140" lon="35.1449510">
    <ele>170.0</ele>
    <time>2014-02-21T07:31:03Z</time>
   </trkpt>
   <trkpt lat="32.5955630" lon="35.1449560">
    <ele>169.7</ele>
    <time>2014-02-21T07:31:04Z</time>
   </trkpt>
   <trkpt lat="32.5956190" lon="35.1449540">
    <ele>169.5</ele>
    <time>2014-02-21T07:31:05Z</time>
   </trkpt>
   <trkpt lat="32.5956750" lon="35.1449490">
    <ele>169.2</ele>
    <time>2014-02-21T07:31:06Z</time>
   </trkpt>
   <trkpt lat="32.5957310" lon="35.1449310">
    <ele>169.2</ele>
    <time>2014-02-21T07:31:07Z</time>
   </trkpt>
   <trkpt lat="32.5957900" lon="35.1449140">
    <ele>169.0</ele>
    <time>2014-02-21T07:31:08Z</time>
   </trkpt>
   <trkpt lat="32.5958450" lon="35.1448990">
    <ele>168.9</ele>
    <time>2014-02-21T07:31:09Z</time>
   </trkpt>
   <trkpt lat="32.5959060" lon="35.1448780">
    <ele>168.8</ele>
    <time>2014-02-21T07:31:10Z</time>
   </trkpt>
   <trkpt lat="32.5959410" lon="35.1448560">
    <ele>168.9</ele>
    <time>2014-02-21T07:31:11Z</time>
   </trkpt>
   <trkpt lat="32.5959710" lon="35.1448340">
    <ele>168.9</ele>
    <time>2014-02-21T07:31:12Z</time>
   </trkpt>
   <trkpt lat="32.5960020" lon="35.1448070">
    <ele>169.0</ele>
    <time>2014-02-21T07:31:16Z</time>
   </trkpt>
   <trkpt lat="32.5960280" lon="35.1447840">
    <ele>169.1</ele>
    <time>2014-02-21T07:31:18Z</time>
   </trkpt>
   <trkpt lat="32.5960450" lon="35.1447590">
    <ele>169.3</ele>
    <time>2014-02-21T07:31:20Z</time>
   </trkpt>
   <trkpt lat="32.5960660" lon="35.1447370">
    <ele>169.4</ele>
    <time>2014-02-21T07:31:22Z</time>
   </trkpt>
   <trkpt lat="32.5960980" lon="35.1447170">
    <ele>169.4</ele>
    <time>2014-02-21T07:31:25Z</time>
   </trkpt>
   <trkpt lat="32.5960740" lon="35.1447310">
    <ele>169.4</ele>
    <time>2014-02-21T07:35:09Z</time>
   </trkpt>
   <trkpt lat="32.5960480" lon="35.1447190">
    <ele>169.7</ele>
    <time>2014-02-21T07:40:19Z</time>
   </trkpt>
   <trkpt lat="32.5960710" lon="35.1446880">
    <ele>169.9</ele>
    <time>2014-02-21T07:41:46Z</time>
   </trkpt>
   <trkpt lat="32.5961160" lon="35.1446690">
    <ele>169.8</ele>
    <time>2014-02-21T07:41:48Z</time>
   </trkpt>
   <trkpt lat="32.5961610" lon="35.1446410">
    <ele>169.9</ele>
    <time>2014-02-21T07:41:50Z</time>
   </trkpt>
   <trkpt lat="32.5962080" lon="35.1446120">
    <ele>169.9</ele>
    <time>2014-02-21T07:41:52Z</time>
   </trkpt>
   <trkpt lat="32.5962310" lon="35.1445950">
    <ele>170.0</ele>
    <time>2014-02-21T07:41:53Z</time>
   </trkpt>
   <trkpt lat="32.5962530" lon="35.1445760">
    <ele>170.1</ele>
    <time>2014-02-21T07:41:54Z</time>
   </trkpt>
   <trkpt lat="32.5962770" lon="35.1445570">
    <ele>170.2</ele>
    <time>2014-02-21T07:41:55Z</time>
   </trkpt>
   <trkpt lat="32.5963050" lon="35.1445340">
    <ele>170.3</ele>
    <time>2014-02-21T07:41:56Z</time>
   </trkpt>
   <trkpt lat="32.5963330" lon="35.1445090">
    <ele>170.5</ele>
    <time>2014-02-21T07:41:57Z</time>
   </trkpt>
   <trkpt lat="32.5963600" lon="35.1444840">
    <ele>170.6</ele>
    <time>2014-02-21T07:41:58Z</time>
   </trkpt>
   <trkpt lat="32.5963860" lon="35.1444600">
    <ele>170.7</ele>
    <time>2014-02-21T07:41:59Z</time>
   </trkpt>
   <trkpt lat="32.5964130" lon="35.1444310">
    <ele>170.9</ele>
    <time>2014-02-21T07:42:00Z</time>
   </trkpt>
   <trkpt lat="32.5964400" lon="35.1444060">
    <ele>170.9</ele>
    <time>2014-02-21T07:42:01Z</time>
   </trkpt>
   <trkpt lat="32.5964680" lon="35.1443810">
    <ele>171.0</ele>
    <time>2014-02-21T07:42:02Z</time>
   </trkpt>
   <trkpt lat="32.5964960" lon="35.1443570">
    <ele>171.0</ele>
    <time>2014-02-21T07:42:03Z</time>
   </trkpt>
   <trkpt lat="32.5965240" lon="35.1443320">
    <ele>171.0</ele>
    <time>2014-02-21T07:42:04Z</time>
   </trkpt>
   <trkpt lat="32.5965500" lon="35.1443060">
    <ele>171.0</ele>
    <time>2014-02-21T07:42:05Z</time>
   </trkpt>
   <trkpt lat="32.5965770" lon="35.1442780">
    <ele>171.1</ele>
    <time>2014-02-21T07:42:06Z</time>
   </trkpt>
   <trkpt lat="32.5966040" lon="35.1442500">
    <ele>171.1</ele>
    <time>2014-02-21T07:42:07Z</time>
   </trkpt>
   <trkpt lat="32.5966310" lon="35.1442220">
    <ele>171.1</ele>
    <time>2014-02-21T07:42:08Z</time>
   </trkpt>
   <trkpt lat="32.5966570" lon="35.1441940">
    <ele>171.0</ele>
    <time>2014-02-21T07:42:09Z</time>
   </trkpt>
   <trkpt lat="32.5966830" lon="35.1441660">
    <ele>171.0</ele>
    <time>2014-02-21T07:42:10Z</time>
   </trkpt>
   <trkpt lat="32.5967090" lon="35.1441380">
    <ele>171.0</ele>
    <time>2014-02-21T07:42:11Z</time>
   </trkpt>
   <trkpt lat="32.5967350" lon="35.1441100">
    <ele>170.9</ele>
    <time>2014-02-21T07:42:12Z</time>
   </trkpt>
   <trkpt lat="32.5967610" lon="35.1440800">
    <ele>170.8</ele>
    <time>2014-02-21T07:42:13Z</time>
   </trkpt>
   <trkpt lat="32.5967870" lon="35.1440510">
    <ele>170.7</ele>
    <time>2014-02-21T07:42:14Z</time>
   </trkpt>
   <trkpt lat="32.5968140" lon="35.1440230">
    <ele>170.6</ele>
    <time>2014-02-21T07:42:15Z</time>
   </trkpt>
   <trkpt lat="32.5968420" lon="35.1439950">
    <ele>170.4</ele>
    <time>2014-02-21T07:42:16Z</time>
   </trkpt>
   <trkpt lat="32.5968710" lon="35.1439670">
    <ele>170.2</ele>
    <time>2014-02-21T07:42:17Z</time>
   </trkpt>
   <trkpt lat="32.5968980" lon="35.1439380">
    <ele>170.0</ele>
    <time>2014-02-21T07:42:18Z</time>
   </trkpt>
   <trkpt lat="32.5969220" lon="35.1439070">
    <ele>169.8</ele>
    <time>2014-02-21T07:42:19Z</time>
   </trkpt>
   <trkpt lat="32.5969410" lon="35.1438760">
    <ele>169.8</ele>
    <time>2014-02-21T07:42:20Z</time>
   </trkpt>
   <trkpt lat="32.5969520" lon="35.1438430">
    <ele>169.9</ele>
    <time>2014-02-21T07:42:24Z</time>
   </trkpt>
   <trkpt lat="32.5969520" lon="35.1438090">
    <ele>170.2</ele>
    <time>2014-02-21T07:42:30Z</time>
   </trkpt>
   <trkpt lat="32.5969260" lon="35.1438000">
    <ele>170.7</ele>
    <time>2014-02-21T07:42:33Z</time>
   </trkpt>
   <trkpt lat="32.5969320" lon="35.1438440">
    <ele>170.2</ele>
    <time>2014-02-21T07:42:36Z</time>
   </trkpt>
   <trkpt lat="32.5969640" lon="35.1438470">
    <ele>169.6</ele>
    <time>2014-02-21T07:42:38Z</time>
   </trkpt>
   <trkpt lat="32.5970150" lon="35.1438540">
    <ele>168.6</ele>
    <time>2014-02-21T07:42:40Z</time>
   </trkpt>
   <trkpt lat="32.5970530" lon="35.1438670">
    <ele>167.7</ele>
    <time>2014-02-21T07:42:41Z</time>
   </trkpt>
   <trkpt lat="32.5970920" lon="35.1438820">
    <ele>167.0</ele>
    <time>2014-02-21T07:42:42Z</time>
   </trkpt>
   <trkpt lat="32.5971370" lon="35.1438940">
    <ele>166.8</ele>
    <time>2014-02-21T07:42:43Z</time>
   </trkpt>
   <trkpt lat="32.5971830" lon="35.1439020">
    <ele>166.7</ele>
    <time>2014-02-21T07:42:44Z</time>
   </trkpt>
   <trkpt lat="32.5972290" lon="35.1439080">
    <ele>166.5</ele>
    <time>2014-02-21T07:42:45Z</time>
   </trkpt>
   <trkpt lat="32.5972830" lon="35.1439020">
    <ele>166.4</ele>
    <time>2014-02-21T07:42:46Z</time>
   </trkpt>
   <trkpt lat="32.5973320" lon="35.1439010">
    <ele>166.3</ele>
    <time>2014-02-21T07:42:47Z</time>
   </trkpt>
   <trkpt lat="32.5973780" lon="35.1439000">
    <ele>166.2</ele>
    <time>2014-02-21T07:42:48Z</time>
   </trkpt>
   <trkpt lat="32.5974220" lon="35.1439030">
    <ele>166.1</ele>
    <time>2014-02-21T07:42:49Z</time>
   </trkpt>
   <trkpt lat="32.5974590" lon="35.1439060">
    <ele>166.0</ele>
    <time>2014-02-21T07:42:50Z</time>
   </trkpt>
   <trkpt lat="32.5974930" lon="35.1439160">
    <ele>165.8</ele>
    <time>2014-02-21T07:42:51Z</time>
   </trkpt>
   <trkpt lat="32.5975310" lon="35.1439260">
    <ele>165.6</ele>
    <time>2014-02-21T07:42:52Z</time>
   </trkpt>
   <trkpt lat="32.5975670" lon="35.1439370">
    <ele>165.4</ele>
    <time>2014-02-21T07:42:53Z</time>
   </trkpt>
   <trkpt lat="32.5976060" lon="35.1439530">
    <ele>165.1</ele>
    <time>2014-02-21T07:42:54Z</time>
   </trkpt>
   <trkpt lat="32.5976460" lon="35.1439710">
    <ele>164.8</ele>
    <time>2014-02-21T07:42:55Z</time>
   </trkpt>
   <trkpt lat="32.5976880" lon="35.1439940">
    <ele>164.5</ele>
    <time>2014-02-21T07:42:56Z</time>
   </trkpt>
   <trkpt lat="32.5977280" lon="35.1440220">
    <ele>164.0</ele>
    <time>2014-02-21T07:42:57Z</time>
   </trkpt>
   <trkpt lat="32.5977710" lon="35.1440540">
    <ele>163.5</ele>
    <time>2014-02-21T07:42:58Z</time>
   </trkpt>
   <trkpt lat="32.5978160" lon="35.1440890">
    <ele>162.9</ele>
    <time>2014-02-21T07:42:59Z</time>
   </trkpt>
   <trkpt lat="32.5978680" lon="35.1441210">
    <ele>162.3</ele>
    <time>2014-02-21T07:43:00Z</time>
   </trkpt>
   <trkpt lat="32.5979220" lon="35.1441530">
    <ele>161.7</ele>
    <time>2014-02-21T07:43:01Z</time>
   </trkpt>
   <trkpt lat="32.5979810" lon="35.1441800">
    <ele>161.5</ele>
    <time>2014-02-21T07:43:02Z</time>
   </trkpt>
   <trkpt lat="32.5980500" lon="35.1441880">
    <ele>161.7</ele>
    <time>2014-02-21T07:43:03Z</time>
   </trkpt>
   <trkpt lat="32.5981150" lon="35.1441880">
    <ele>161.9</ele>
    <time>2014-02-21T07:43:04Z</time>
   </trkpt>
   <trkpt lat="32.5981800" lon="35.1441840">
    <ele>162.2</ele>
    <time>2014-02-21T07:43:05Z</time>
   </trkpt>
   <trkpt lat="32.5982300" lon="35.1441720">
    <ele>162.5</ele>
    <time>2014-02-21T07:43:06Z</time>
   </trkpt>
   <trkpt lat="32.5982720" lon="35.1441670">
    <ele>162.8</ele>
    <time>2014-02-21T07:43:07Z</time>
   </trkpt>
   <trkpt lat="32.5983100" lon="35.1441610">
    <ele>163.0</ele>
    <time>2014-02-21T07:43:08Z</time>
   </trkpt>
   <trkpt lat="32.5983520" lon="35.1441490">
    <ele>163.4</ele>
    <time>2014-02-21T07:43:09Z</time>
   </trkpt>
   <trkpt lat="32.5983940" lon="35.1441400">
    <ele>163.7</ele>
    <time>2014-02-21T07:43:10Z</time>
   </trkpt>
   <trkpt lat="32.5984310" lon="35.1441240">
    <ele>164.1</ele>
    <time>2014-02-21T07:43:11Z</time>
   </trkpt>
   <trkpt lat="32.5984670" lon="35.1441100">
    <ele>164.5</ele>
    <time>2014-02-21T07:43:12Z</time>
   </trkpt>
   <trkpt lat="32.5985010" lon="35.1440980">
    <ele>164.9</ele>
    <time>2014-02-21T07:43:13Z</time>
   </trkpt>
   <trkpt lat="32.5985360" lon="35.1440850">
    <ele>165.2</ele>
    <time>2014-02-21T07:43:14Z</time>
   </trkpt>
   <trkpt lat="32.5985710" lon="35.1440790">
    <ele>165.5</ele>
    <time>2014-02-21T07:43:15Z</time>
   </trkpt>
   <trkpt lat="32.5986080" lon="35.1440750">
    <ele>165.7</ele>
    <time>2014-02-21T07:43:16Z</time>
   </trkpt>
   <trkpt lat="32.5986420" lon="35.1440690">
    <ele>166.0</ele>
    <time>2014-02-21T07:43:17Z</time>
   </trkpt>
   <trkpt lat="32.5986750" lon="35.1440610">
    <ele>166.3</ele>
    <time>2014-02-21T07:43:18Z</time>
   </trkpt>
   <trkpt lat="32.5987070" lon="35.1440530">
    <ele>166.6</ele>
    <time>2014-02-21T07:43:19Z</time>
   </trkpt>
   <trkpt lat="32.5987390" lon="35.1440450">
    <ele>166.9</ele>
    <time>2014-02-21T07:43:20Z</time>
   </trkpt>
   <trkpt lat="32.5987700" lon="35.1440370">
    <ele>167.2</ele>
    <time>2014-02-21T07:43:21Z</time>
   </trkpt>
   <trkpt lat="32.5988010" lon="35.1440310">
    <ele>167.4</ele>
    <time>2014-02-21T07:43:22Z</time>
   </trkpt>
   <trkpt lat="32.5988320" lon="35.1440240">
    <ele>167.7</ele>
    <time>2014-02-21T07:43:23Z</time>
   </trkpt>
   <trkpt lat="32.5988600" lon="35.1440170">
    <ele>167.9</ele>
    <time>2014-02-21T07:43:24Z</time>
   </trkpt>
   <trkpt lat="32.5989090" lon="35.1440040">
    <ele>168.3</ele>
    <time>2014-02-21T07:43:26Z</time>
   </trkpt>
   <trkpt lat="32.5989580" lon="35.1439860">
    <ele>168.9</ele>
    <time>2014-02-21T07:43:28Z</time>
   </trkpt>
   <trkpt lat="32.5990080" lon="35.1439660">
    <ele>169.5</ele>
    <time>2014-02-21T07:43:30Z</time>
   </trkpt>
   <trkpt lat="32.5990340" lon="35.1439570">
    <ele>169.8</ele>
    <time>2014-02-21T07:43:31Z</time>
   </trkpt>
   <trkpt lat="32.5990590" lon="35.1439460">
    <ele>170.1</ele>
    <time>2014-02-21T07:43:32Z</time>
   </trkpt>
   <trkpt lat="32.5991110" lon="35.1439290">
    <ele>170.7</ele>
    <time>2014-02-21T07:43:34Z</time>
   </trkpt>
   <trkpt lat="32.5991380" lon="35.1439200">
    <ele>171.0</ele>
    <time>2014-02-21T07:43:35Z</time>
   </trkpt>
   <trkpt lat="32.5991640" lon="35.1439100">
    <ele>171.3</ele>
    <time>2014-02-21T07:43:36Z</time>
   </trkpt>
   <trkpt lat="32.5991900" lon="35.1439000">
    <ele>171.7</ele>
    <time>2014-02-21T07:43:37Z</time>
   </trkpt>
   <trkpt lat="32.5992170" lon="35.1438910">
    <ele>172.0</ele>
    <time>2014-02-21T07:43:38Z</time>
   </trkpt>
   <trkpt lat="32.5992430" lon="35.1438790">
    <ele>172.4</ele>
    <time>2014-02-21T07:43:39Z</time>
   </trkpt>
   <trkpt lat="32.5992690" lon="35.1438660">
    <ele>172.8</ele>
    <time>2014-02-21T07:43:40Z</time>
   </trkpt>
   <trkpt lat="32.5992950" lon="35.1438520">
    <ele>173.2</ele>
    <time>2014-02-21T07:43:41Z</time>
   </trkpt>
   <trkpt lat="32.5993200" lon="35.1438380">
    <ele>173.7</ele>
    <time>2014-02-21T07:43:42Z</time>
   </trkpt>
   <trkpt lat="32.5993450" lon="35.1438220">
    <ele>174.1</ele>
    <time>2014-02-21T07:43:43Z</time>
   </trkpt>
   <trkpt lat="32.5993690" lon="35.1438050">
    <ele>174.7</ele>
    <time>2014-02-21T07:43:44Z</time>
   </trkpt>
   <trkpt lat="32.5993940" lon="35.1437890">
    <ele>175.2</ele>
    <time>2014-02-21T07:43:45Z</time>
   </trkpt>
   <trkpt lat="32.5994190" lon="35.1437730">
    <ele>175.7</ele>
    <time>2014-02-21T07:43:46Z</time>
   </trkpt>
   <trkpt lat="32.5994450" lon="35.1437560">
    <ele>176.2</ele>
    <time>2014-02-21T07:43:47Z</time>
   </trkpt>
   <trkpt lat="32.5994700" lon="35.1437400">
    <ele>176.7</ele>
    <time>2014-02-21T07:43:48Z</time>
   </trkpt>
   <trkpt lat="32.5994950" lon="35.1437230">
    <ele>177.3</ele>
    <time>2014-02-21T07:43:49Z</time>
   </trkpt>
   <trkpt lat="32.5995190" lon="35.1437080">
    <ele>177.8</ele>
    <time>2014-02-21T07:43:50Z</time>
   </trkpt>
   <trkpt lat="32.5995670" lon="35.1436790">
    <ele>178.9</ele>
    <time>2014-02-21T07:43:52Z</time>
   </trkpt>
   <trkpt lat="32.5996130" lon="35.1436520">
    <ele>179.6</ele>
    <time>2014-02-21T07:43:54Z</time>
   </trkpt>
   <trkpt lat="32.5996590" lon="35.1436270">
    <ele>180.0</ele>
    <time>2014-02-21T07:43:56Z</time>
   </trkpt>
   <trkpt lat="32.5997050" lon="35.1436060">
    <ele>180.4</ele>
    <time>2014-02-21T07:43:58Z</time>
   </trkpt>
   <trkpt lat="32.5997480" lon="35.1435890">
    <ele>180.6</ele>
    <time>2014-02-21T07:44:00Z</time>
   </trkpt>
   <trkpt lat="32.5997840" lon="35.1435720">
    <ele>180.9</ele>
    <time>2014-02-21T07:44:02Z</time>
   </trkpt>
   <trkpt lat="32.5998220" lon="35.1435580">
    <ele>181.0</ele>
    <time>2014-02-21T07:44:04Z</time>
   </trkpt>
   <trkpt lat="32.5998610" lon="35.1435430">
    <ele>181.2</ele>
    <time>2014-02-21T07:44:06Z</time>
   </trkpt>
   <trkpt lat="32.5998980" lon="35.1435260">
    <ele>181.4</ele>
    <time>2014-02-21T07:44:08Z</time>
   </trkpt>
   <trkpt lat="32.5999330" lon="35.1435090">
    <ele>181.7</ele>
    <time>2014-02-21T07:44:10Z</time>
   </trkpt>
   <trkpt lat="32.5999680" lon="35.1434920">
    <ele>181.9</ele>
    <time>2014-02-21T07:44:12Z</time>
   </trkpt>
   <trkpt lat="32.6000030" lon="35.1434720">
    <ele>182.2</ele>
    <time>2014-02-21T07:44:14Z</time>
   </trkpt>
   <trkpt lat="32.6000380" lon="35.1434550">
    <ele>182.3</ele>
    <time>2014-02-21T07:44:16Z</time>
   </trkpt>
   <trkpt lat="32.6000710" lon="35.1434310">
    <ele>182.7</ele>
    <time>2014-02-21T07:44:18Z</time>
   </trkpt>
   <trkpt lat="32.6001010" lon="35.1434040">
    <ele>183.1</ele>
    <time>2014-02-21T07:44:20Z</time>
   </trkpt>
   <trkpt lat="32.6001340" lon="35.1433790">
    <ele>183.5</ele>
    <time>2014-02-21T07:44:22Z</time>
   </trkpt>
   <trkpt lat="32.6001660" lon="35.1433540">
    <ele>183.8</ele>
    <time>2014-02-21T07:44:24Z</time>
   </trkpt>
   <trkpt lat="32.6001960" lon="35.1433290">
    <ele>184.2</ele>
    <time>2014-02-21T07:44:26Z</time>
   </trkpt>
   <trkpt lat="32.6002220" lon="35.1433020">
    <ele>184.6</ele>
    <time>2014-02-21T07:44:28Z</time>
   </trkpt>
   <trkpt lat="32.6002460" lon="35.1432690">
    <ele>185.1</ele>
    <time>2014-02-21T07:44:30Z</time>
   </trkpt>
   <trkpt lat="32.6002640" lon="35.1432350">
    <ele>185.7</ele>
    <time>2014-02-21T07:44:32Z</time>
   </trkpt>
   <trkpt lat="32.6002790" lon="35.1431980">
    <ele>186.4</ele>
    <time>2014-02-21T07:44:34Z</time>
   </trkpt>
   <trkpt lat="32.6002930" lon="35.1431640">
    <ele>187.0</ele>
    <time>2014-02-21T07:44:36Z</time>
   </trkpt>
   <trkpt lat="32.6003070" lon="35.1431310">
    <ele>187.6</ele>
    <time>2014-02-21T07:44:38Z</time>
   </trkpt>
   <trkpt lat="32.6003160" lon="35.1430990">
    <ele>188.2</ele>
    <time>2014-02-21T07:44:40Z</time>
   </trkpt>
   <trkpt lat="32.6003250" lon="35.1430670">
    <ele>188.8</ele>
    <time>2014-02-21T07:44:42Z</time>
   </trkpt>
   <trkpt lat="32.6003350" lon="35.1430350">
    <ele>189.4</ele>
    <time>2014-02-21T07:44:44Z</time>
   </trkpt>
   <trkpt lat="32.6003430" lon="35.1429930">
    <ele>190.2</ele>
    <time>2014-02-21T07:44:47Z</time>
   </trkpt>
   <trkpt lat="32.6003480" lon="35.1429490">
    <ele>191.1</ele>
    <time>2014-02-21T07:44:50Z</time>
   </trkpt>
   <trkpt lat="32.6003490" lon="35.1429170">
    <ele>191.7</ele>
    <time>2014-02-21T07:44:52Z</time>
   </trkpt>
   <trkpt lat="32.6003520" lon="35.1428840">
    <ele>191.7</ele>
    <time>2014-02-21T07:44:54Z</time>
   </trkpt>
   <trkpt lat="32.6003530" lon="35.1428510">
    <ele>191.7</ele>
    <time>2014-02-21T07:44:56Z</time>
   </trkpt>
   <trkpt lat="32.6003490" lon="35.1428170">
    <ele>191.8</ele>
    <time>2014-02-21T07:44:58Z</time>
   </trkpt>
   <trkpt lat="32.6003450" lon="35.1427840">
    <ele>191.9</ele>
    <time>2014-02-21T07:45:00Z</time>
   </trkpt>
   <trkpt lat="32.6003440" lon="35.1427480">
    <ele>191.9</ele>
    <time>2014-02-21T07:45:02Z</time>
   </trkpt>
   <trkpt lat="32.6003420" lon="35.1427120">
    <ele>192.0</ele>
    <time>2014-02-21T07:45:04Z</time>
   </trkpt>
   <trkpt lat="32.6003410" lon="35.1426760">
    <ele>192.0</ele>
    <time>2014-02-21T07:45:06Z</time>
   </trkpt>
   <trkpt lat="32.6003390" lon="35.1426420">
    <ele>192.1</ele>
    <time>2014-02-21T07:45:08Z</time>
   </trkpt>
   <trkpt lat="32.6003360" lon="35.1426060">
    <ele>192.2</ele>
    <time>2014-02-21T07:45:10Z</time>
   </trkpt>
   <trkpt lat="32.6003320" lon="35.1425720">
    <ele>192.3</ele>
    <time>2014-02-21T07:45:12Z</time>
   </trkpt>
   <trkpt lat="32.6003280" lon="35.1425360">
    <ele>192.3</ele>
    <time>2014-02-21T07:45:14Z</time>
   </trkpt>
   <trkpt lat="32.6003260" lon="35.1424990">
    <ele>192.4</ele>
    <time>2014-02-21T07:45:16Z</time>
   </trkpt>
   <trkpt lat="32.6003250" lon="35.1424590">
    <ele>192.5</ele>
    <time>2014-02-21T07:45:18Z</time>
   </trkpt>
   <trkpt lat="32.6003220" lon="35.1424190">
    <ele>192.6</ele>
    <time>2014-02-21T07:45:20Z</time>
   </trkpt>
   <trkpt lat="32.6003160" lon="35.1423800">
    <ele>192.7</ele>
    <time>2014-02-21T07:45:22Z</time>
   </trkpt>
   <trkpt lat="32.6003090" lon="35.1423440">
    <ele>192.9</ele>
    <time>2014-02-21T07:45:24Z</time>
   </trkpt>
   <trkpt lat="32.6003060" lon="35.1423060">
    <ele>193.0</ele>
    <time>2014-02-21T07:45:26Z</time>
   </trkpt>
   <trkpt lat="32.6003100" lon="35.1422650">
    <ele>193.0</ele>
    <time>2014-02-21T07:45:28Z</time>
   </trkpt>
   <trkpt lat="32.6003120" lon="35.1422230">
    <ele>193.0</ele>
    <time>2014-02-21T07:45:30Z</time>
   </trkpt>
   <trkpt lat="32.6003140" lon="35.1421820">
    <ele>193.0</ele>
    <time>2014-02-21T07:45:32Z</time>
   </trkpt>
   <trkpt lat="32.6003140" lon="35.1421380">
    <ele>193.0</ele>
    <time>2014-02-21T07:45:34Z</time>
   </trkpt>
   <trkpt lat="32.6003160" lon="35.1420850">
    <ele>193.1</ele>
    <time>2014-02-21T07:45:36Z</time>
   </trkpt>
   <trkpt lat="32.6003180" lon="35.1420330">
    <ele>192.7</ele>
    <time>2014-02-21T07:45:38Z</time>
   </trkpt>
   <trkpt lat="32.6003180" lon="35.1419770">
    <ele>192.4</ele>
    <time>2014-02-21T07:45:40Z</time>
   </trkpt>
   <trkpt lat="32.6003170" lon="35.1419140">
    <ele>192.1</ele>
    <time>2014-02-21T07:45:42Z</time>
   </trkpt>
   <trkpt lat="32.6003190" lon="35.1418720">
    <ele>191.8</ele>
    <time>2014-02-21T07:45:43Z</time>
   </trkpt>
   <trkpt lat="32.6003230" lon="35.1418310">
    <ele>191.5</ele>
    <time>2014-02-21T07:45:44Z</time>
   </trkpt>
   <trkpt lat="32.6003280" lon="35.1417900">
    <ele>191.2</ele>
    <time>2014-02-21T07:45:45Z</time>
   </trkpt>
   <trkpt lat="32.6003350" lon="35.1417480">
    <ele>190.9</ele>
    <time>2014-02-21T07:45:46Z</time>
   </trkpt>
   <trkpt lat="32.6003430" lon="35.1417050">
    <ele>190.5</ele>
    <time>2014-02-21T07:45:47Z</time>
   </trkpt>
   <trkpt lat="32.6003530" lon="35.1416630">
    <ele>190.1</ele>
    <time>2014-02-21T07:45:48Z</time>
   </trkpt>
   <trkpt lat="32.6003630" lon="35.1416220">
    <ele>189.7</ele>
    <time>2014-02-21T07:45:49Z</time>
   </trkpt>
   <trkpt lat="32.6003710" lon="35.1415790">
    <ele>189.3</ele>
    <time>2014-02-21T07:45:50Z</time>
   </trkpt>
   <trkpt lat="32.6003740" lon="35.1415360">
    <ele>189.1</ele>
    <time>2014-02-21T07:45:51Z</time>
   </trkpt>
   <trkpt lat="32.6003690" lon="35.1414950">
    <ele>188.9</ele>
    <time>2014-02-21T07:45:52Z</time>
   </trkpt>
   <trkpt lat="32.6003570" lon="35.1414580">
    <ele>188.9</ele>
    <time>2014-02-21T07:45:53Z</time>
   </trkpt>
   <trkpt lat="32.6003370" lon="35.1414270">
    <ele>189.1</ele>
    <time>2014-02-21T07:45:54Z</time>
   </trkpt>
   <trkpt lat="32.6003010" lon="35.1413980">
    <ele>189.5</ele>
    <time>2014-02-21T07:45:56Z</time>
   </trkpt>
   <trkpt lat="32.6002630" lon="35.1413700">
    <ele>189.9</ele>
    <time>2014-02-21T07:45:58Z</time>
   </trkpt>
   <trkpt lat="32.6002250" lon="35.1413410">
    <ele>190.3</ele>
    <time>2014-02-21T07:46:00Z</time>
   </trkpt>
   <trkpt lat="32.6001870" lon="35.1413180">
    <ele>190.7</ele>
    <time>2014-02-21T07:46:02Z</time>
   </trkpt>
   <trkpt lat="32.6001480" lon="35.1412930">
    <ele>191.2</ele>
    <time>2014-02-21T07:46:04Z</time>
   </trkpt>
   <trkpt lat="32.6001090" lon="35.1412690">
    <ele>191.6</ele>
    <time>2014-02-21T07:46:06Z</time>
   </trkpt>
   <trkpt lat="32.6000690" lon="35.1412490">
    <ele>192.0</ele>
    <time>2014-02-21T07:46:08Z</time>
   </trkpt>
   <trkpt lat="32.6000320" lon="35.1412260">
    <ele>192.7</ele>
    <time>2014-02-21T07:46:10Z</time>
   </trkpt>
   <trkpt lat="32.5999940" lon="35.1412060">
    <ele>193.4</ele>
    <time>2014-02-21T07:46:12Z</time>
   </trkpt>
   <trkpt lat="32.5999560" lon="35.1411890">
    <ele>194.1</ele>
    <time>2014-02-21T07:46:14Z</time>
   </trkpt>
   <trkpt lat="32.5999170" lon="35.1411720">
    <ele>194.9</ele>
    <time>2014-02-21T07:46:16Z</time>
   </trkpt>
   <trkpt lat="32.5998790" lon="35.1411550">
    <ele>195.6</ele>
    <time>2014-02-21T07:46:18Z</time>
   </trkpt>
   <trkpt lat="32.5998460" lon="35.1411260">
    <ele>196.4</ele>
    <time>2014-02-21T07:46:20Z</time>
   </trkpt>
   <trkpt lat="32.5998130" lon="35.1411020">
    <ele>197.2</ele>
    <time>2014-02-21T07:46:22Z</time>
   </trkpt>
   <trkpt lat="32.5997800" lon="35.1410820">
    <ele>198.0</ele>
    <time>2014-02-21T07:46:24Z</time>
   </trkpt>
   <trkpt lat="32.5997450" lon="35.1410660">
    <ele>198.7</ele>
    <time>2014-02-21T07:46:26Z</time>
   </trkpt>
   <trkpt lat="32.5997080" lon="35.1410510">
    <ele>199.5</ele>
    <time>2014-02-21T07:46:28Z</time>
   </trkpt>
   <trkpt lat="32.5996730" lon="35.1410350">
    <ele>200.3</ele>
    <time>2014-02-21T07:46:30Z</time>
   </trkpt>
   <trkpt lat="32.5996400" lon="35.1410200">
    <ele>201.1</ele>
    <time>2014-02-21T07:46:32Z</time>
   </trkpt>
   <trkpt lat="32.5996060" lon="35.1410030">
    <ele>201.9</ele>
    <time>2014-02-21T07:46:34Z</time>
   </trkpt>
   <trkpt lat="32.5995730" lon="35.1409850">
    <ele>202.6</ele>
    <time>2014-02-21T07:46:36Z</time>
   </trkpt>
   <trkpt lat="32.5995440" lon="35.1409660">
    <ele>203.2</ele>
    <time>2014-02-21T07:46:38Z</time>
   </trkpt>
   <trkpt lat="32.5995140" lon="35.1409490">
    <ele>203.7</ele>
    <time>2014-02-21T07:46:40Z</time>
   </trkpt>
   <trkpt lat="32.5994830" lon="35.1409310">
    <ele>204.3</ele>
    <time>2014-02-21T07:46:42Z</time>
   </trkpt>
   <trkpt lat="32.5994510" lon="35.1409120">
    <ele>204.9</ele>
    <time>2014-02-21T07:46:44Z</time>
   </trkpt>
   <trkpt lat="32.5994190" lon="35.1408940">
    <ele>205.5</ele>
    <time>2014-02-21T07:46:46Z</time>
   </trkpt>
   <trkpt lat="32.5993880" lon="35.1408800">
    <ele>206.0</ele>
    <time>2014-02-21T07:46:48Z</time>
   </trkpt>
   <trkpt lat="32.5993550" lon="35.1408670">
    <ele>206.5</ele>
    <time>2014-02-21T07:46:50Z</time>
   </trkpt>
   <trkpt lat="32.5993200" lon="35.1408560">
    <ele>207.0</ele>
    <time>2014-02-21T07:46:52Z</time>
   </trkpt>
   <trkpt lat="32.5992880" lon="35.1408450">
    <ele>207.5</ele>
    <time>2014-02-21T07:46:54Z</time>
   </trkpt>
   <trkpt lat="32.5992500" lon="35.1408380">
    <ele>208.0</ele>
    <time>2014-02-21T07:46:56Z</time>
   </trkpt>
   <trkpt lat="32.5992170" lon="35.1408310">
    <ele>208.5</ele>
    <time>2014-02-21T07:46:58Z</time>
   </trkpt>
   <trkpt lat="32.5991820" lon="35.1408240">
    <ele>209.0</ele>
    <time>2014-02-21T07:47:00Z</time>
   </trkpt>
   <trkpt lat="32.5991520" lon="35.1408320">
    <ele>209.2</ele>
    <time>2014-02-21T07:47:02Z</time>
   </trkpt>
   <trkpt lat="32.5991210" lon="35.1408370">
    <ele>209.4</ele>
    <time>2014-02-21T07:47:04Z</time>
   </trkpt>
   <trkpt lat="32.5990900" lon="35.1408420">
    <ele>209.7</ele>
    <time>2014-02-21T07:47:06Z</time>
   </trkpt>
   <trkpt lat="32.5990580" lon="35.1408450">
    <ele>210.0</ele>
    <time>2014-02-21T07:47:08Z</time>
   </trkpt>
   <trkpt lat="32.5990240" lon="35.1408510">
    <ele>210.3</ele>
    <time>2014-02-21T07:47:10Z</time>
   </trkpt>
   <trkpt lat="32.5989910" lon="35.1408530">
    <ele>210.6</ele>
    <time>2014-02-21T07:47:12Z</time>
   </trkpt>
   <trkpt lat="32.5989580" lon="35.1408530">
    <ele>211.0</ele>
    <time>2014-02-21T07:47:14Z</time>
   </trkpt>
   <trkpt lat="32.5989250" lon="35.1408610">
    <ele>211.2</ele>
    <time>2014-02-21T07:47:16Z</time>
   </trkpt>
   <trkpt lat="32.5988930" lon="35.1408710">
    <ele>211.5</ele>
    <time>2014-02-21T07:47:18Z</time>
   </trkpt>
   <trkpt lat="32.5988610" lon="35.1408730">
    <ele>211.8</ele>
    <time>2014-02-21T07:47:20Z</time>
   </trkpt>
   <trkpt lat="32.5988290" lon="35.1408710">
    <ele>212.1</ele>
    <time>2014-02-21T07:47:22Z</time>
   </trkpt>
   <trkpt lat="32.5987960" lon="35.1408740">
    <ele>212.5</ele>
    <time>2014-02-21T07:47:24Z</time>
   </trkpt>
   <trkpt lat="32.5987640" lon="35.1408770">
    <ele>212.8</ele>
    <time>2014-02-21T07:47:26Z</time>
   </trkpt>
   <trkpt lat="32.5987320" lon="35.1408770">
    <ele>212.9</ele>
    <time>2014-02-21T07:47:28Z</time>
   </trkpt>
   <trkpt lat="32.5986990" lon="35.1408720">
    <ele>212.9</ele>
    <time>2014-02-21T07:47:30Z</time>
   </trkpt>
   <trkpt lat="32.5986650" lon="35.1408730">
    <ele>212.8</ele>
    <time>2014-02-21T07:47:32Z</time>
   </trkpt>
   <trkpt lat="32.5986330" lon="35.1408670">
    <ele>212.8</ele>
    <time>2014-02-21T07:47:34Z</time>
   </trkpt>
   <trkpt lat="32.5986030" lon="35.1408540">
    <ele>213.0</ele>
    <time>2014-02-21T07:47:36Z</time>
   </trkpt>
   <trkpt lat="32.5985770" lon="35.1408370">
    <ele>213.1</ele>
    <time>2014-02-21T07:47:38Z</time>
   </trkpt>
   <trkpt lat="32.5985490" lon="35.1408270">
    <ele>213.2</ele>
    <time>2014-02-21T07:47:40Z</time>
   </trkpt>
   <trkpt lat="32.5985200" lon="35.1408240">
    <ele>213.2</ele>
    <time>2014-02-21T07:47:42Z</time>
   </trkpt>
   <trkpt lat="32.5984900" lon="35.1408170">
    <ele>213.3</ele>
    <time>2014-02-21T07:47:44Z</time>
   </trkpt>
   <trkpt lat="32.5984630" lon="35.1408000">
    <ele>213.4</ele>
    <time>2014-02-21T07:47:46Z</time>
   </trkpt>
   <trkpt lat="32.5984370" lon="35.1407820">
    <ele>213.6</ele>
    <time>2014-02-21T07:47:48Z</time>
   </trkpt>
   <trkpt lat="32.5984100" lon="35.1407630">
    <ele>213.9</ele>
    <time>2014-02-21T07:47:50Z</time>
   </trkpt>
   <trkpt lat="32.5983830" lon="35.1407400">
    <ele>214.1</ele>
    <time>2014-02-21T07:47:52Z</time>
   </trkpt>
   <trkpt lat="32.5983550" lon="35.1407190">
    <ele>214.4</ele>
    <time>2014-02-21T07:47:54Z</time>
   </trkpt>
   <trkpt lat="32.5983240" lon="35.1406980">
    <ele>214.6</ele>
    <time>2014-02-21T07:47:56Z</time>
   </trkpt>
   <trkpt lat="32.5982940" lon="35.1406800">
    <ele>214.8</ele>
    <time>2014-02-21T07:47:58Z</time>
   </trkpt>
   <trkpt lat="32.5982650" lon="35.1406590">
    <ele>215.0</ele>
    <time>2014-02-21T07:48:00Z</time>
   </trkpt>
   <trkpt lat="32.5982390" lon="35.1406330">
    <ele>215.4</ele>
    <time>2014-02-21T07:48:02Z</time>
   </trkpt>
   <trkpt lat="32.5982140" lon="35.1406040">
    <ele>215.7</ele>
    <time>2014-02-21T07:48:04Z</time>
   </trkpt>
   <trkpt lat="32.5981820" lon="35.1405780">
    <ele>216.1</ele>
    <time>2014-02-21T07:48:06Z</time>
   </trkpt>
   <trkpt lat="32.5981490" lon="35.1405540">
    <ele>216.3</ele>
    <time>2014-02-21T07:48:08Z</time>
   </trkpt>
   <trkpt lat="32.5981190" lon="35.1405280">
    <ele>216.7</ele>
    <time>2014-02-21T07:48:10Z</time>
   </trkpt>
   <trkpt lat="32.5980880" lon="35.1405040">
    <ele>217.0</ele>
    <time>2014-02-21T07:48:12Z</time>
   </trkpt>
   <trkpt lat="32.5980560" lon="35.1404830">
    <ele>217.2</ele>
    <time>2014-02-21T07:48:14Z</time>
   </trkpt>
   <trkpt lat="32.5980250" lon="35.1404630">
    <ele>217.5</ele>
    <time>2014-02-21T07:48:16Z</time>
   </trkpt>
   <trkpt lat="32.5979910" lon="35.1404490">
    <ele>217.6</ele>
    <time>2014-02-21T07:48:18Z</time>
   </trkpt>
   <trkpt lat="32.5979550" lon="35.1404380">
    <ele>217.7</ele>
    <time>2014-02-21T07:48:20Z</time>
   </trkpt>
   <trkpt lat="32.5979210" lon="35.1404300">
    <ele>217.8</ele>
    <time>2014-02-21T07:48:22Z</time>
   </trkpt>
   <trkpt lat="32.5978840" lon="35.1404260">
    <ele>217.9</ele>
    <time>2014-02-21T07:48:24Z</time>
   </trkpt>
   <trkpt lat="32.5978450" lon="35.1404230">
    <ele>218.0</ele>
    <time>2014-02-21T07:48:26Z</time>
   </trkpt>
   <trkpt lat="32.5978050" lon="35.1404170">
    <ele>218.1</ele>
    <time>2014-02-21T07:48:28Z</time>
   </trkpt>
   <trkpt lat="32.5977640" lon="35.1404050">
    <ele>218.3</ele>
    <time>2014-02-21T07:48:30Z</time>
   </trkpt>
   <trkpt lat="32.5977230" lon="35.1403870">
    <ele>218.6</ele>
    <time>2014-02-21T07:48:32Z</time>
   </trkpt>
   <trkpt lat="32.5976840" lon="35.1403630">
    <ele>218.9</ele>
    <time>2014-02-21T07:48:34Z</time>
   </trkpt>
   <trkpt lat="32.5976470" lon="35.1403340">
    <ele>219.2</ele>
    <time>2014-02-21T07:48:36Z</time>
   </trkpt>
   <trkpt lat="32.5976110" lon="35.1403040">
    <ele>219.6</ele>
    <time>2014-02-21T07:48:38Z</time>
   </trkpt>
   <trkpt lat="32.5975760" lon="35.1402750">
    <ele>219.9</ele>
    <time>2014-02-21T07:48:40Z</time>
   </trkpt>
   <trkpt lat="32.5975400" lon="35.1402530">
    <ele>220.1</ele>
    <time>2014-02-21T07:48:42Z</time>
   </trkpt>
   <trkpt lat="32.5975050" lon="35.1402280">
    <ele>220.4</ele>
    <time>2014-02-21T07:48:44Z</time>
   </trkpt>
   <trkpt lat="32.5974710" lon="35.1402070">
    <ele>220.6</ele>
    <time>2014-02-21T07:48:46Z</time>
   </trkpt>
   <trkpt lat="32.5974340" lon="35.1401960">
    <ele>220.8</ele>
    <time>2014-02-21T07:48:48Z</time>
   </trkpt>
   <trkpt lat="32.5973980" lon="35.1401870">
    <ele>220.9</ele>
    <time>2014-02-21T07:48:50Z</time>
   </trkpt>
   <trkpt lat="32.5973600" lon="35.1401780">
    <ele>221.0</ele>
    <time>2014-02-21T07:48:52Z</time>
   </trkpt>
   <trkpt lat="32.5973210" lon="35.1401670">
    <ele>221.1</ele>
    <time>2014-02-21T07:48:54Z</time>
   </trkpt>
   <trkpt lat="32.5972780" lon="35.1401570">
    <ele>221.2</ele>
    <time>2014-02-21T07:48:56Z</time>
   </trkpt>
   <trkpt lat="32.5972280" lon="35.1401460">
    <ele>221.3</ele>
    <time>2014-02-21T07:48:58Z</time>
   </trkpt>
   <trkpt lat="32.5971770" lon="35.1401320">
    <ele>221.4</ele>
    <time>2014-02-21T07:49:00Z</time>
   </trkpt>
   <trkpt lat="32.5971290" lon="35.1401190">
    <ele>221.5</ele>
    <time>2014-02-21T07:49:02Z</time>
   </trkpt>
   <trkpt lat="32.5970810" lon="35.1401060">
    <ele>221.6</ele>
    <time>2014-02-21T07:49:04Z</time>
   </trkpt>
   <trkpt lat="32.5970340" lon="35.1400910">
    <ele>221.6</ele>
    <time>2014-02-21T07:49:06Z</time>
   </trkpt>
   <trkpt lat="32.5969860" lon="35.1400770">
    <ele>221.7</ele>
    <time>2014-02-21T07:49:08Z</time>
   </trkpt>
   <trkpt lat="32.5969400" lon="35.1400650">
    <ele>221.7</ele>
    <time>2014-02-21T07:49:10Z</time>
   </trkpt>
   <trkpt lat="32.5968920" lon="35.1400520">
    <ele>221.7</ele>
    <time>2014-02-21T07:49:12Z</time>
   </trkpt>
   <trkpt lat="32.5968410" lon="35.1400420">
    <ele>221.6</ele>
    <time>2014-02-21T07:49:14Z</time>
   </trkpt>
   <trkpt lat="32.5967920" lon="35.1400330">
    <ele>221.6</ele>
    <time>2014-02-21T07:49:16Z</time>
   </trkpt>
   <trkpt lat="32.5967420" lon="35.1400230">
    <ele>221.5</ele>
    <time>2014-02-21T07:49:18Z</time>
   </trkpt>
   <trkpt lat="32.5966930" lon="35.1400110">
    <ele>221.5</ele>
    <time>2014-02-21T07:49:20Z</time>
   </trkpt>
   <trkpt lat="32.5966440" lon="35.1400000">
    <ele>221.4</ele>
    <time>2014-02-21T07:49:22Z</time>
   </trkpt>
   <trkpt lat="32.5965950" lon="35.1399900">
    <ele>221.4</ele>
    <time>2014-02-21T07:49:24Z</time>
   </trkpt>
   <trkpt lat="32.5965460" lon="35.1399790">
    <ele>221.3</ele>
    <time>2014-02-21T07:49:26Z</time>
   </trkpt>
   <trkpt lat="32.5964960" lon="35.1399690">
    <ele>221.2</ele>
    <time>2014-02-21T07:49:28Z</time>
   </trkpt>
   <trkpt lat="32.5964470" lon="35.1399590">
    <ele>221.2</ele>
    <time>2014-02-21T07:49:30Z</time>
   </trkpt>
   <trkpt lat="32.5963960" lon="35.1399460">
    <ele>221.1</ele>
    <time>2014-02-21T07:49:32Z</time>
   </trkpt>
   <trkpt lat="32.5963460" lon="35.1399360">
    <ele>221.0</ele>
    <time>2014-02-21T07:49:34Z</time>
   </trkpt>
   <trkpt lat="32.5962940" lon="35.1399250">
    <ele>220.9</ele>
    <time>2014-02-21T07:49:36Z</time>
   </trkpt>
   <trkpt lat="32.5962430" lon="35.1399090">
    <ele>220.8</ele>
    <time>2014-02-21T07:49:38Z</time>
   </trkpt>
   <trkpt lat="32.5961910" lon="35.1398930">
    <ele>220.8</ele>
    <time>2014-02-21T07:49:40Z</time>
   </trkpt>
   <trkpt lat="32.5961390" lon="35.1398770">
    <ele>220.8</ele>
    <time>2014-02-21T07:49:42Z</time>
   </trkpt>
   <trkpt lat="32.5961120" lon="35.1398680">
    <ele>220.8</ele>
    <time>2014-02-21T07:49:43Z</time>
   </trkpt>
   <trkpt lat="32.5960800" lon="35.1398600">
    <ele>220.8</ele>
    <time>2014-02-21T07:49:44Z</time>
   </trkpt>
   <trkpt lat="32.5960480" lon="35.1398540">
    <ele>220.8</ele>
    <time>2014-02-21T07:49:45Z</time>
   </trkpt>
   <trkpt lat="32.5960180" lon="35.1398480">
    <ele>220.7</ele>
    <time>2014-02-21T07:49:46Z</time>
   </trkpt>
   <trkpt lat="32.5959900" lon="35.1398410">
    <ele>220.7</ele>
    <time>2014-02-21T07:49:47Z</time>
   </trkpt>
   <trkpt lat="32.5959610" lon="35.1398360">
    <ele>220.7</ele>
    <time>2014-02-21T07:49:48Z</time>
   </trkpt>
   <trkpt lat="32.5959330" lon="35.1398320">
    <ele>220.6</ele>
    <time>2014-02-21T07:49:49Z</time>
   </trkpt>
   <trkpt lat="32.5958810" lon="35.1398260">
    <ele>220.6</ele>
    <time>2014-02-21T07:49:51Z</time>
   </trkpt>
   <trkpt lat="32.5958330" lon="35.1398210">
    <ele>220.5</ele>
    <time>2014-02-21T07:49:53Z</time>
   </trkpt>
   <trkpt lat="32.5957890" lon="35.1398150">
    <ele>220.4</ele>
    <time>2014-02-21T07:49:55Z</time>
   </trkpt>
   <trkpt lat="32.5957490" lon="35.1398060">
    <ele>220.4</ele>
    <time>2014-02-21T07:49:57Z</time>
   </trkpt>
   <trkpt lat="32.5957070" lon="35.1397960">
    <ele>220.3</ele>
    <time>2014-02-21T07:49:59Z</time>
   </trkpt>
   <trkpt lat="32.5956640" lon="35.1397820">
    <ele>220.2</ele>
    <time>2014-02-21T07:50:01Z</time>
   </trkpt>
   <trkpt lat="32.5956180" lon="35.1397650">
    <ele>220.1</ele>
    <time>2014-02-21T07:50:03Z</time>
   </trkpt>
   <trkpt lat="32.5955720" lon="35.1397480">
    <ele>219.9</ele>
    <time>2014-02-21T07:50:05Z</time>
   </trkpt>
   <trkpt lat="32.5955220" lon="35.1397320">
    <ele>219.8</ele>
    <time>2014-02-21T07:50:07Z</time>
   </trkpt>
   <trkpt lat="32.5954950" lon="35.1397240">
    <ele>219.7</ele>
    <time>2014-02-21T07:50:08Z</time>
   </trkpt>
   <trkpt lat="32.5954690" lon="35.1397120">
    <ele>219.6</ele>
    <time>2014-02-21T07:50:09Z</time>
   </trkpt>
   <trkpt lat="32.5954260" lon="35.1396840">
    <ele>219.4</ele>
    <time>2014-02-21T07:50:11Z</time>
   </trkpt>
   <trkpt lat="32.5953940" lon="35.1396550">
    <ele>219.5</ele>
    <time>2014-02-21T07:50:14Z</time>
   </trkpt>
   <trkpt lat="32.5953760" lon="35.1396290">
    <ele>219.5</ele>
    <time>2014-02-21T07:50:16Z</time>
   </trkpt>
   <trkpt lat="32.5953430" lon="35.1396000">
    <ele>219.8</ele>
    <time>2014-02-21T07:50:19Z</time>
   </trkpt>
   <trkpt lat="32.5953230" lon="35.1395750">
    <ele>219.9</ele>
    <time>2014-02-21T07:50:21Z</time>
   </trkpt>
   <trkpt lat="32.5952930" lon="35.1395500">
    <ele>220.3</ele>
    <time>2014-02-21T07:50:23Z</time>
   </trkpt>
   <trkpt lat="32.5952600" lon="35.1395270">
    <ele>220.7</ele>
    <time>2014-02-21T07:50:25Z</time>
   </trkpt>
   <trkpt lat="32.5952310" lon="35.1395090">
    <ele>221.0</ele>
    <time>2014-02-21T07:50:27Z</time>
   </trkpt>
   <trkpt lat="32.5952050" lon="35.1394880">
    <ele>221.4</ele>
    <time>2014-02-21T07:50:29Z</time>
   </trkpt>
   <trkpt lat="32.5951770" lon="35.1394650">
    <ele>221.7</ele>
    <time>2014-02-21T07:50:31Z</time>
   </trkpt>
   <trkpt lat="32.5951430" lon="35.1394530">
    <ele>222.1</ele>
    <time>2014-02-21T07:50:33Z</time>
   </trkpt>
   <trkpt lat="32.5950980" lon="35.1394450">
    <ele>222.6</ele>
    <time>2014-02-21T07:50:35Z</time>
   </trkpt>
   <trkpt lat="32.5950460" lon="35.1394360">
    <ele>223.1</ele>
    <time>2014-02-21T07:50:37Z</time>
   </trkpt>
   <trkpt lat="32.5949970" lon="35.1394250">
    <ele>223.6</ele>
    <time>2014-02-21T07:50:39Z</time>
   </trkpt>
   <trkpt lat="32.5949490" lon="35.1394110">
    <ele>224.1</ele>
    <time>2014-02-21T07:50:41Z</time>
   </trkpt>
   <trkpt lat="32.5949060" lon="35.1393920">
    <ele>224.6</ele>
    <time>2014-02-21T07:50:43Z</time>
   </trkpt>
   <trkpt lat="32.5948620" lon="35.1393710">
    <ele>225.1</ele>
    <time>2014-02-21T07:50:45Z</time>
   </trkpt>
   <trkpt lat="32.5948230" lon="35.1393410">
    <ele>225.6</ele>
    <time>2014-02-21T07:50:47Z</time>
   </trkpt>
   <trkpt lat="32.5947800" lon="35.1393110">
    <ele>226.1</ele>
    <time>2014-02-21T07:50:49Z</time>
   </trkpt>
   <trkpt lat="32.5947340" lon="35.1392830">
    <ele>226.6</ele>
    <time>2014-02-21T07:50:51Z</time>
   </trkpt>
   <trkpt lat="32.5946950" lon="35.1392520">
    <ele>227.1</ele>
    <time>2014-02-21T07:50:53Z</time>
   </trkpt>
   <trkpt lat="32.5946560" lon="35.1392200">
    <ele>227.6</ele>
    <time>2014-02-21T07:50:55Z</time>
   </trkpt>
   <trkpt lat="32.5946140" lon="35.1391910">
    <ele>228.1</ele>
    <time>2014-02-21T07:50:57Z</time>
   </trkpt>
   <trkpt lat="32.5945720" lon="35.1391660">
    <ele>228.5</ele>
    <time>2014-02-21T07:50:59Z</time>
   </trkpt>
   <trkpt lat="32.5945300" lon="35.1391440">
    <ele>228.5</ele>
    <time>2014-02-21T07:51:01Z</time>
   </trkpt>
   <trkpt lat="32.5944940" lon="35.1391170">
    <ele>228.6</ele>
    <time>2014-02-21T07:51:03Z</time>
   </trkpt>
   <trkpt lat="32.5944600" lon="35.1390870">
    <ele>228.7</ele>
    <time>2014-02-21T07:51:05Z</time>
   </trkpt>
   <trkpt lat="32.5944210" lon="35.1390570">
    <ele>228.8</ele>
    <time>2014-02-21T07:51:07Z</time>
   </trkpt>
   <trkpt lat="32.5943780" lon="35.1390320">
    <ele>228.9</ele>
    <time>2014-02-21T07:51:09Z</time>
   </trkpt>
   <trkpt lat="32.5943380" lon="35.1390100">
    <ele>229.0</ele>
    <time>2014-02-21T07:51:11Z</time>
   </trkpt>
   <trkpt lat="32.5943010" lon="35.1389830">
    <ele>229.1</ele>
    <time>2014-02-21T07:51:13Z</time>
   </trkpt>
   <trkpt lat="32.5942610" lon="35.1389570">
    <ele>229.3</ele>
    <time>2014-02-21T07:51:15Z</time>
   </trkpt>
   <trkpt lat="32.5942190" lon="35.1389310">
    <ele>229.4</ele>
    <time>2014-02-21T07:51:17Z</time>
   </trkpt>
   <trkpt lat="32.5941770" lon="35.1389060">
    <ele>229.6</ele>
    <time>2014-02-21T07:51:19Z</time>
   </trkpt>
   <trkpt lat="32.5941340" lon="35.1388820">
    <ele>229.7</ele>
    <time>2014-02-21T07:51:21Z</time>
   </trkpt>
   <trkpt lat="32.5940930" lon="35.1388530">
    <ele>229.9</ele>
    <time>2014-02-21T07:51:23Z</time>
   </trkpt>
   <trkpt lat="32.5940560" lon="35.1388240">
    <ele>230.1</ele>
    <time>2014-02-21T07:51:25Z</time>
   </trkpt>
   <trkpt lat="32.5940220" lon="35.1387940">
    <ele>230.4</ele>
    <time>2014-02-21T07:51:27Z</time>
   </trkpt>
   <trkpt lat="32.5939920" lon="35.1387650">
    <ele>230.6</ele>
    <time>2014-02-21T07:51:29Z</time>
   </trkpt>
   <trkpt lat="32.5939620" lon="35.1387370">
    <ele>230.9</ele>
    <time>2014-02-21T07:51:31Z</time>
   </trkpt>
   <trkpt lat="32.5939320" lon="35.1387100">
    <ele>231.1</ele>
    <time>2014-02-21T07:51:33Z</time>
   </trkpt>
   <trkpt lat="32.5939000" lon="35.1386850">
    <ele>231.4</ele>
    <time>2014-02-21T07:51:35Z</time>
   </trkpt>
   <trkpt lat="32.5938650" lon="35.1386550">
    <ele>231.7</ele>
    <time>2014-02-21T07:51:37Z</time>
   </trkpt>
   <trkpt lat="32.5938270" lon="35.1386230">
    <ele>232.1</ele>
    <time>2014-02-21T07:51:39Z</time>
   </trkpt>
   <trkpt lat="32.5937940" lon="35.1385850">
    <ele>232.5</ele>
    <time>2014-02-21T07:51:41Z</time>
   </trkpt>
   <trkpt lat="32.5937650" lon="35.1385440">
    <ele>232.9</ele>
    <time>2014-02-21T07:51:43Z</time>
   </trkpt>
   <trkpt lat="32.5937420" lon="35.1385040">
    <ele>233.4</ele>
    <time>2014-02-21T07:51:45Z</time>
   </trkpt>
   <trkpt lat="32.5937220" lon="35.1384650">
    <ele>233.7</ele>
    <time>2014-02-21T07:51:47Z</time>
   </trkpt>
   <trkpt lat="32.5937070" lon="35.1384360">
    <ele>234.0</ele>
    <time>2014-02-21T07:51:49Z</time>
   </trkpt>
   <trkpt lat="32.5936930" lon="35.1384010">
    <ele>234.3</ele>
    <time>2014-02-21T07:51:51Z</time>
   </trkpt>
   <trkpt lat="32.5936770" lon="35.1383660">
    <ele>234.6</ele>
    <time>2014-02-21T07:51:53Z</time>
   </trkpt>
   <trkpt lat="32.5936610" lon="35.1383300">
    <ele>235.0</ele>
    <time>2014-02-21T07:51:55Z</time>
   </trkpt>
   <trkpt lat="32.5936460" lon="35.1382920">
    <ele>235.3</ele>
    <time>2014-02-21T07:51:57Z</time>
   </trkpt>
   <trkpt lat="32.5936300" lon="35.1382530">
    <ele>235.7</ele>
    <time>2014-02-21T07:51:59Z</time>
   </trkpt>
   <trkpt lat="32.5936170" lon="35.1382150">
    <ele>236.0</ele>
    <time>2014-02-21T07:52:01Z</time>
   </trkpt>
   <trkpt lat="32.5936070" lon="35.1381750">
    <ele>236.4</ele>
    <time>2014-02-21T07:52:03Z</time>
   </trkpt>
   <trkpt lat="32.5935930" lon="35.1381360">
    <ele>236.8</ele>
    <time>2014-02-21T07:52:05Z</time>
   </trkpt>
   <trkpt lat="32.5935800" lon="35.1380960">
    <ele>237.1</ele>
    <time>2014-02-21T07:52:07Z</time>
   </trkpt>
   <trkpt lat="32.5935640" lon="35.1380580">
    <ele>237.5</ele>
    <time>2014-02-21T07:52:09Z</time>
   </trkpt>
   <trkpt lat="32.5935500" lon="35.1380210">
    <ele>237.8</ele>
    <time>2014-02-21T07:52:11Z</time>
   </trkpt>
   <trkpt lat="32.5935370" lon="35.1379820">
    <ele>238.1</ele>
    <time>2014-02-21T07:52:13Z</time>
   </trkpt>
   <trkpt lat="32.5935230" lon="35.1379430">
    <ele>238.5</ele>
    <time>2014-02-21T07:52:15Z</time>
   </trkpt>
   <trkpt lat="32.5935090" lon="35.1379040">
    <ele>238.8</ele>
    <time>2014-02-21T07:52:17Z</time>
   </trkpt>
   <trkpt lat="32.5934940" lon="35.1378640">
    <ele>239.1</ele>
    <time>2014-02-21T07:52:19Z</time>
   </trkpt>
   <trkpt lat="32.5934800" lon="35.1378200">
    <ele>239.4</ele>
    <time>2014-02-21T07:52:21Z</time>
   </trkpt>
   <trkpt lat="32.5934630" lon="35.1377770">
    <ele>239.7</ele>
    <time>2014-02-21T07:52:23Z</time>
   </trkpt>
   <trkpt lat="32.5934450" lon="35.1377390">
    <ele>239.9</ele>
    <time>2014-02-21T07:52:25Z</time>
   </trkpt>
   <trkpt lat="32.5934260" lon="35.1377020">
    <ele>240.2</ele>
    <time>2014-02-21T07:52:27Z</time>
   </trkpt>
   <trkpt lat="32.5934100" lon="35.1376670">
    <ele>240.5</ele>
    <time>2014-02-21T07:52:29Z</time>
   </trkpt>
   <trkpt lat="32.5933900" lon="35.1376350">
    <ele>240.7</ele>
    <time>2014-02-21T07:52:31Z</time>
   </trkpt>
   <trkpt lat="32.5933650" lon="35.1376060">
    <ele>240.9</ele>
    <time>2014-02-21T07:52:33Z</time>
   </trkpt>
   <trkpt lat="32.5933360" lon="35.1375800">
    <ele>241.1</ele>
    <time>2014-02-21T07:52:35Z</time>
   </trkpt>
   <trkpt lat="32.5933020" lon="35.1375600">
    <ele>241.3</ele>
    <time>2014-02-21T07:52:37Z</time>
   </trkpt>
   <trkpt lat="32.5932730" lon="35.1375420">
    <ele>241.4</ele>
    <time>2014-02-21T07:52:39Z</time>
   </trkpt>
   <trkpt lat="32.5932490" lon="35.1375260">
    <ele>241.6</ele>
    <time>2014-02-21T07:52:41Z</time>
   </trkpt>
   <trkpt lat="32.5932230" lon="35.1375110">
    <ele>241.7</ele>
    <time>2014-02-21T07:52:43Z</time>
   </trkpt>
   <trkpt lat="32.5931990" lon="35.1374900">
    <ele>241.9</ele>
    <time>2014-02-21T07:52:45Z</time>
   </trkpt>
   <trkpt lat="32.5931770" lon="35.1374620">
    <ele>242.2</ele>
    <time>2014-02-21T07:52:47Z</time>
   </trkpt>
   <trkpt lat="32.5931620" lon="35.1374300">
    <ele>242.5</ele>
    <time>2014-02-21T07:52:49Z</time>
   </trkpt>
   <trkpt lat="32.5931620" lon="35.1373940">
    <ele>242.8</ele>
    <time>2014-02-21T07:52:51Z</time>
   </trkpt>
   <trkpt lat="32.5931720" lon="35.1373610">
    <ele>243.0</ele>
    <time>2014-02-21T07:52:53Z</time>
   </trkpt>
   <trkpt lat="32.5931880" lon="35.1373180">
    <ele>243.4</ele>
    <time>2014-02-21T07:52:56Z</time>
   </trkpt>
   <trkpt lat="32.5931970" lon="35.1372740">
    <ele>243.7</ele>
    <time>2014-02-21T07:52:59Z</time>
   </trkpt>
   <trkpt lat="32.5932040" lon="35.1372370">
    <ele>244.0</ele>
    <time>2014-02-21T07:53:01Z</time>
   </trkpt>
   <trkpt lat="32.5932100" lon="35.1371990">
    <ele>244.3</ele>
    <time>2014-02-21T07:53:03Z</time>
   </trkpt>
   <trkpt lat="32.5932170" lon="35.1371600">
    <ele>244.6</ele>
    <time>2014-02-21T07:53:05Z</time>
   </trkpt>
   <trkpt lat="32.5932230" lon="35.1371250">
    <ele>244.9</ele>
    <time>2014-02-21T07:53:07Z</time>
   </trkpt>
   <trkpt lat="32.5932250" lon="35.1370850">
    <ele>245.2</ele>
    <time>2014-02-21T07:53:09Z</time>
   </trkpt>
   <trkpt lat="32.5932230" lon="35.1370500">
    <ele>245.5</ele>
    <time>2014-02-21T07:53:11Z</time>
   </trkpt>
   <trkpt lat="32.5932100" lon="35.1370060">
    <ele>245.9</ele>
    <time>2014-02-21T07:53:14Z</time>
   </trkpt>
   <trkpt lat="32.5931960" lon="35.1369660">
    <ele>246.2</ele>
    <time>2014-02-21T07:53:17Z</time>
   </trkpt>
   <trkpt lat="32.5931780" lon="35.1369230">
    <ele>246.6</ele>
    <time>2014-02-21T07:53:20Z</time>
   </trkpt>
   <trkpt lat="32.5931600" lon="35.1368960">
    <ele>246.9</ele>
    <time>2014-02-21T07:53:22Z</time>
   </trkpt>
   <trkpt lat="32.5931410" lon="35.1368720">
    <ele>247.1</ele>
    <time>2014-02-21T07:53:24Z</time>
   </trkpt>
   <trkpt lat="32.5931190" lon="35.1368550">
    <ele>247.4</ele>
    <time>2014-02-21T07:53:26Z</time>
   </trkpt>
   <trkpt lat="32.5930880" lon="35.1368240">
    <ele>247.8</ele>
    <time>2014-02-21T07:53:29Z</time>
   </trkpt>
   <trkpt lat="32.5930670" lon="35.1368010">
    <ele>248.0</ele>
    <time>2014-02-21T07:53:31Z</time>
   </trkpt>
   <trkpt lat="32.5930440" lon="35.1367780">
    <ele>248.3</ele>
    <time>2014-02-21T07:53:33Z</time>
   </trkpt>
   <trkpt lat="32.5930210" lon="35.1367540">
    <ele>248.7</ele>
    <time>2014-02-21T07:53:35Z</time>
   </trkpt>
   <trkpt lat="32.5929970" lon="35.1367270">
    <ele>249.0</ele>
    <time>2014-02-21T07:53:37Z</time>
   </trkpt>
   <trkpt lat="32.5929740" lon="35.1366980">
    <ele>249.4</ele>
    <time>2014-02-21T07:53:39Z</time>
   </trkpt>
   <trkpt lat="32.5929530" lon="35.1366670">
    <ele>249.8</ele>
    <time>2014-02-21T07:53:41Z</time>
   </trkpt>
   <trkpt lat="32.5929340" lon="35.1366320">
    <ele>250.2</ele>
    <time>2014-02-21T07:53:43Z</time>
   </trkpt>
   <trkpt lat="32.5929160" lon="35.1365970">
    <ele>250.7</ele>
    <time>2014-02-21T07:53:45Z</time>
   </trkpt>
   <trkpt lat="32.5929050" lon="35.1365610">
    <ele>251.1</ele>
    <time>2014-02-21T07:53:47Z</time>
   </trkpt>
   <trkpt lat="32.5928910" lon="35.1365290">
    <ele>251.4</ele>
    <time>2014-02-21T07:53:49Z</time>
   </trkpt>
   <trkpt lat="32.5928740" lon="35.1365000">
    <ele>251.8</ele>
    <time>2014-02-21T07:53:51Z</time>
   </trkpt>
   <trkpt lat="32.5928690" lon="35.1364670">
    <ele>252.1</ele>
    <time>2014-02-21T07:53:53Z</time>
   </trkpt>
   <trkpt lat="32.5928700" lon="35.1364320">
    <ele>252.5</ele>
    <time>2014-02-21T07:53:55Z</time>
   </trkpt>
   <trkpt lat="32.5928690" lon="35.1363990">
    <ele>252.8</ele>
    <time>2014-02-21T07:53:57Z</time>
   </trkpt>
   <trkpt lat="32.5928740" lon="35.1363620">
    <ele>253.2</ele>
    <time>2014-02-21T07:54:02Z</time>
   </trkpt>
   <trkpt lat="32.5928790" lon="35.1363140">
    <ele>253.6</ele>
    <time>2014-02-21T07:54:04Z</time>
   </trkpt>
   <trkpt lat="32.5928850" lon="35.1362590">
    <ele>254.1</ele>
    <time>2014-02-21T07:54:06Z</time>
   </trkpt>
   <trkpt lat="32.5928880" lon="35.1362130">
    <ele>254.7</ele>
    <time>2014-02-21T07:54:08Z</time>
   </trkpt>
   <trkpt lat="32.5928850" lon="35.1361710">
    <ele>255.4</ele>
    <time>2014-02-21T07:54:10Z</time>
   </trkpt>
   <trkpt lat="32.5928840" lon="35.1361280">
    <ele>256.1</ele>
    <time>2014-02-21T07:54:12Z</time>
   </trkpt>
   <trkpt lat="32.5928890" lon="35.1360860">
    <ele>256.7</ele>
    <time>2014-02-21T07:54:14Z</time>
   </trkpt>
   <trkpt lat="32.5928920" lon="35.1360470">
    <ele>257.3</ele>
    <time>2014-02-21T07:54:16Z</time>
   </trkpt>
   <trkpt lat="32.5928920" lon="35.1360100">
    <ele>257.9</ele>
    <time>2014-02-21T07:54:18Z</time>
   </trkpt>
   <trkpt lat="32.5928950" lon="35.1359740">
    <ele>258.4</ele>
    <time>2014-02-21T07:54:20Z</time>
   </trkpt>
   <trkpt lat="32.5928980" lon="35.1359350">
    <ele>259.0</ele>
    <time>2014-02-21T07:54:22Z</time>
   </trkpt>
   <trkpt lat="32.5929030" lon="35.1359000">
    <ele>259.5</ele>
    <time>2014-02-21T07:54:24Z</time>
   </trkpt>
   <trkpt lat="32.5929090" lon="35.1358650">
    <ele>260.0</ele>
    <time>2014-02-21T07:54:26Z</time>
   </trkpt>
   <trkpt lat="32.5929140" lon="35.1358270">
    <ele>260.6</ele>
    <time>2014-02-21T07:54:28Z</time>
   </trkpt>
   <trkpt lat="32.5929220" lon="35.1357840">
    <ele>261.2</ele>
    <time>2014-02-21T07:54:30Z</time>
   </trkpt>
   <trkpt lat="32.5929310" lon="35.1357420">
    <ele>261.7</ele>
    <time>2014-02-21T07:54:32Z</time>
   </trkpt>
   <trkpt lat="32.5929350" lon="35.1356980">
    <ele>262.4</ele>
    <time>2014-02-21T07:54:34Z</time>
   </trkpt>
   <trkpt lat="32.5929390" lon="35.1356540">
    <ele>263.0</ele>
    <time>2014-02-21T07:54:36Z</time>
   </trkpt>
   <trkpt lat="32.5929420" lon="35.1356090">
    <ele>263.6</ele>
    <time>2014-02-21T07:54:38Z</time>
   </trkpt>
   <trkpt lat="32.5929410" lon="35.1355650">
    <ele>264.3</ele>
    <time>2014-02-21T07:54:40Z</time>
   </trkpt>
   <trkpt lat="32.5929340" lon="35.1355210">
    <ele>265.1</ele>
    <time>2014-02-21T07:54:42Z</time>
   </trkpt>
   <trkpt lat="32.5929250" lon="35.1354770">
    <ele>265.9</ele>
    <time>2014-02-21T07:54:44Z</time>
   </trkpt>
   <trkpt lat="32.5929140" lon="35.1354340">
    <ele>266.7</ele>
    <time>2014-02-21T07:54:46Z</time>
   </trkpt>
   <trkpt lat="32.5929010" lon="35.1353950">
    <ele>267.3</ele>
    <time>2014-02-21T07:54:48Z</time>
   </trkpt>
   <trkpt lat="32.5928880" lon="35.1353590">
    <ele>267.6</ele>
    <time>2014-02-21T07:54:50Z</time>
   </trkpt>
   <trkpt lat="32.5928820" lon="35.1353250">
    <ele>267.9</ele>
    <time>2014-02-21T07:54:53Z</time>
   </trkpt>
   <trkpt lat="32.5928790" lon="35.1352910">
    <ele>268.2</ele>
    <time>2014-02-21T07:54:55Z</time>
   </trkpt>
   <trkpt lat="32.5928810" lon="35.1352440">
    <ele>268.6</ele>
    <time>2014-02-21T07:54:57Z</time>
   </trkpt>
   <trkpt lat="32.5928870" lon="35.1352010">
    <ele>269.0</ele>
    <time>2014-02-21T07:54:59Z</time>
   </trkpt>
   <trkpt lat="32.5928970" lon="35.1351580">
    <ele>269.3</ele>
    <time>2014-02-21T07:55:01Z</time>
   </trkpt>
   <trkpt lat="32.5929120" lon="35.1351130">
    <ele>269.6</ele>
    <time>2014-02-21T07:55:03Z</time>
   </trkpt>
   <trkpt lat="32.5929270" lon="35.1350690">
    <ele>269.8</ele>
    <time>2014-02-21T07:55:05Z</time>
   </trkpt>
   <trkpt lat="32.5929410" lon="35.1350270">
    <ele>269.9</ele>
    <time>2014-02-21T07:55:07Z</time>
   </trkpt>
   <trkpt lat="32.5929560" lon="35.1349880">
    <ele>270.0</ele>
    <time>2014-02-21T07:55:09Z</time>
   </trkpt>
   <trkpt lat="32.5929710" lon="35.1349520">
    <ele>270.1</ele>
    <time>2014-02-21T07:55:11Z</time>
   </trkpt>
   <trkpt lat="32.5929840" lon="35.1349160">
    <ele>270.2</ele>
    <time>2014-02-21T07:55:13Z</time>
   </trkpt>
   <trkpt lat="32.5929960" lon="35.1348800">
    <ele>270.3</ele>
    <time>2014-02-21T07:55:15Z</time>
   </trkpt>
   <trkpt lat="32.5930090" lon="35.1348450">
    <ele>270.4</ele>
    <time>2014-02-21T07:55:17Z</time>
   </trkpt>
   <trkpt lat="32.5930150" lon="35.1348090">
    <ele>270.7</ele>
    <time>2014-02-21T07:55:19Z</time>
   </trkpt>
   <trkpt lat="32.5930210" lon="35.1347710">
    <ele>270.9</ele>
    <time>2014-02-21T07:55:21Z</time>
   </trkpt>
   <trkpt lat="32.5930220" lon="35.1347380">
    <ele>271.2</ele>
    <time>2014-02-21T07:55:23Z</time>
   </trkpt>
   <trkpt lat="32.5930240" lon="35.1346980">
    <ele>271.5</ele>
    <time>2014-02-21T07:55:26Z</time>
   </trkpt>
   <trkpt lat="32.5930290" lon="35.1346500">
    <ele>271.8</ele>
    <time>2014-02-21T07:55:29Z</time>
   </trkpt>
   <trkpt lat="32.5930280" lon="35.1346150">
    <ele>272.1</ele>
    <time>2014-02-21T07:55:31Z</time>
   </trkpt>
   <trkpt lat="32.5930300" lon="35.1345750">
    <ele>272.4</ele>
    <time>2014-02-21T07:55:33Z</time>
   </trkpt>
   <trkpt lat="32.5930300" lon="35.1345380">
    <ele>272.6</ele>
    <time>2014-02-21T07:55:35Z</time>
   </trkpt>
   <trkpt lat="32.5930320" lon="35.1344980">
    <ele>272.8</ele>
    <time>2014-02-21T07:55:37Z</time>
   </trkpt>
   <trkpt lat="32.5930340" lon="35.1344560">
    <ele>273.1</ele>
    <time>2014-02-21T07:55:43Z</time>
   </trkpt>
   <trkpt lat="32.5930340" lon="35.1344210">
    <ele>273.3</ele>
    <time>2014-02-21T07:55:45Z</time>
   </trkpt>
   <trkpt lat="32.5930330" lon="35.1343750">
    <ele>273.5</ele>
    <time>2014-02-21T07:55:47Z</time>
   </trkpt>
   <trkpt lat="32.5930320" lon="35.1343320">
    <ele>273.8</ele>
    <time>2014-02-21T07:55:49Z</time>
   </trkpt>
   <trkpt lat="32.5930340" lon="35.1342860">
    <ele>274.0</ele>
    <time>2014-02-21T07:55:51Z</time>
   </trkpt>
   <trkpt lat="32.5930350" lon="35.1342390">
    <ele>274.3</ele>
    <time>2014-02-21T07:55:53Z</time>
   </trkpt>
   <trkpt lat="32.5930390" lon="35.1341910">
    <ele>274.5</ele>
    <time>2014-02-21T07:55:55Z</time>
   </trkpt>
   <trkpt lat="32.5930420" lon="35.1341420">
    <ele>274.8</ele>
    <time>2014-02-21T07:55:57Z</time>
   </trkpt>
   <trkpt lat="32.5930420" lon="35.1340940">
    <ele>275.1</ele>
    <time>2014-02-21T07:55:59Z</time>
   </trkpt>
   <trkpt lat="32.5930410" lon="35.1340500">
    <ele>275.3</ele>
    <time>2014-02-21T07:56:01Z</time>
   </trkpt>
   <trkpt lat="32.5930420" lon="35.1340070">
    <ele>275.6</ele>
    <time>2014-02-21T07:56:03Z</time>
   </trkpt>
   <trkpt lat="32.5930390" lon="35.1339670">
    <ele>275.8</ele>
    <time>2014-02-21T07:56:05Z</time>
   </trkpt>
   <trkpt lat="32.5930330" lon="35.1339270">
    <ele>276.1</ele>
    <time>2014-02-21T07:56:07Z</time>
   </trkpt>
   <trkpt lat="32.5930270" lon="35.1338840">
    <ele>276.4</ele>
    <time>2014-02-21T07:56:09Z</time>
   </trkpt>
   <trkpt lat="32.5930250" lon="35.1338410">
    <ele>276.7</ele>
    <time>2014-02-21T07:56:11Z</time>
   </trkpt>
   <trkpt lat="32.5930210" lon="35.1337980">
    <ele>277.0</ele>
    <time>2014-02-21T07:56:13Z</time>
   </trkpt>
   <trkpt lat="32.5930150" lon="35.1337570">
    <ele>277.3</ele>
    <time>2014-02-21T07:56:15Z</time>
   </trkpt>
   <trkpt lat="32.5930020" lon="35.1337170">
    <ele>277.5</ele>
    <time>2014-02-21T07:56:17Z</time>
   </trkpt>
   <trkpt lat="32.5929970" lon="35.1336740">
    <ele>277.7</ele>
    <time>2014-02-21T07:56:19Z</time>
   </trkpt>
   <trkpt lat="32.5929930" lon="35.1336340">
    <ele>277.9</ele>
    <time>2014-02-21T07:56:21Z</time>
   </trkpt>
   <trkpt lat="32.5929970" lon="35.1335980">
    <ele>278.0</ele>
    <time>2014-02-21T07:56:23Z</time>
   </trkpt>
   <trkpt lat="32.5930040" lon="35.1335610">
    <ele>278.1</ele>
    <time>2014-02-21T07:56:25Z</time>
   </trkpt>
   <trkpt lat="32.5930170" lon="35.1335260">
    <ele>278.2</ele>
    <time>2014-02-21T07:56:27Z</time>
   </trkpt>
   <trkpt lat="32.5930320" lon="35.1334900">
    <ele>278.2</ele>
    <time>2014-02-21T07:56:29Z</time>
   </trkpt>
   <trkpt lat="32.5930500" lon="35.1334550">
    <ele>278.3</ele>
    <time>2014-02-21T07:56:31Z</time>
   </trkpt>
   <trkpt lat="32.5930700" lon="35.1334190">
    <ele>278.3</ele>
    <time>2014-02-21T07:56:33Z</time>
   </trkpt>
   <trkpt lat="32.5930840" lon="35.1333890">
    <ele>278.4</ele>
    <time>2014-02-21T07:56:34Z</time>
   </trkpt>
   <trkpt lat="32.5930970" lon="35.1333580">
    <ele>278.4</ele>
    <time>2014-02-21T07:56:35Z</time>
   </trkpt>
   <trkpt lat="32.5931100" lon="35.1333270">
    <ele>278.5</ele>
    <time>2014-02-21T07:56:36Z</time>
   </trkpt>
   <trkpt lat="32.5931200" lon="35.1332960">
    <ele>278.6</ele>
    <time>2014-02-21T07:56:37Z</time>
   </trkpt>
   <trkpt lat="32.5931370" lon="35.1332380">
    <ele>278.7</ele>
    <time>2014-02-21T07:56:39Z</time>
   </trkpt>
   <trkpt lat="32.5931480" lon="35.1331920">
    <ele>278.9</ele>
    <time>2014-02-21T07:56:41Z</time>
   </trkpt>
   <trkpt lat="32.5931520" lon="35.1331590">
    <ele>279.0</ele>
    <time>2014-02-21T07:56:43Z</time>
   </trkpt>
   <trkpt lat="32.5931530" lon="35.1331180">
    <ele>279.2</ele>
    <time>2014-02-21T07:56:45Z</time>
   </trkpt>
   <trkpt lat="32.5931460" lon="35.1330760">
    <ele>279.4</ele>
    <time>2014-02-21T07:56:47Z</time>
   </trkpt>
   <trkpt lat="32.5931390" lon="35.1330320">
    <ele>279.7</ele>
    <time>2014-02-21T07:56:49Z</time>
   </trkpt>
   <trkpt lat="32.5931360" lon="35.1329790">
    <ele>279.9</ele>
    <time>2014-02-21T07:56:51Z</time>
   </trkpt>
   <trkpt lat="32.5931300" lon="35.1329310">
    <ele>280.2</ele>
    <time>2014-02-21T07:56:53Z</time>
   </trkpt>
   <trkpt lat="32.5931250" lon="35.1328850">
    <ele>280.2</ele>
    <time>2014-02-21T07:56:55Z</time>
   </trkpt>
   <trkpt lat="32.5931210" lon="35.1328430">
    <ele>280.0</ele>
    <time>2014-02-21T07:56:57Z</time>
   </trkpt>
   <trkpt lat="32.5931160" lon="35.1328030">
    <ele>279.9</ele>
    <time>2014-02-21T07:56:59Z</time>
   </trkpt>
   <trkpt lat="32.5931150" lon="35.1327630">
    <ele>279.8</ele>
    <time>2014-02-21T07:57:01Z</time>
   </trkpt>
   <trkpt lat="32.5931160" lon="35.1327230">
    <ele>279.7</ele>
    <time>2014-02-21T07:57:03Z</time>
   </trkpt>
   <trkpt lat="32.5931190" lon="35.1326830">
    <ele>279.6</ele>
    <time>2014-02-21T07:57:05Z</time>
   </trkpt>
   <trkpt lat="32.5931260" lon="35.1326380">
    <ele>279.4</ele>
    <time>2014-02-21T07:57:07Z</time>
   </trkpt>
   <trkpt lat="32.5931310" lon="35.1325950">
    <ele>279.3</ele>
    <time>2014-02-21T07:57:09Z</time>
   </trkpt>
   <trkpt lat="32.5931340" lon="35.1325550">
    <ele>279.2</ele>
    <time>2014-02-21T07:57:11Z</time>
   </trkpt>
   <trkpt lat="32.5931330" lon="35.1325170">
    <ele>279.0</ele>
    <time>2014-02-21T07:57:13Z</time>
   </trkpt>
   <trkpt lat="32.5931330" lon="35.1324790">
    <ele>278.9</ele>
    <time>2014-02-21T07:57:15Z</time>
   </trkpt>
   <trkpt lat="32.5931290" lon="35.1324400">
    <ele>278.8</ele>
    <time>2014-02-21T07:57:18Z</time>
   </trkpt>
   <trkpt lat="32.5931260" lon="35.1324020">
    <ele>278.7</ele>
    <time>2014-02-21T07:57:21Z</time>
   </trkpt>
   <trkpt lat="32.5931170" lon="35.1323610">
    <ele>278.6</ele>
    <time>2014-02-21T07:57:24Z</time>
   </trkpt>
   <trkpt lat="32.5930920" lon="35.1323350">
    <ele>278.5</ele>
    <time>2014-02-21T07:57:27Z</time>
   </trkpt>
   <trkpt lat="32.5930620" lon="35.1323070">
    <ele>278.3</ele>
    <time>2014-02-21T07:57:30Z</time>
   </trkpt>
   <trkpt lat="32.5930360" lon="35.1322950">
    <ele>278.2</ele>
    <time>2014-02-21T07:57:32Z</time>
   </trkpt>
   <trkpt lat="32.5930000" lon="35.1322890">
    <ele>278.1</ele>
    <time>2014-02-21T07:57:35Z</time>
   </trkpt>
   <trkpt lat="32.5930050" lon="35.1323200">
    <ele>278.3</ele>
    <time>2014-02-21T07:57:47Z</time>
   </trkpt>
   <trkpt lat="32.5930140" lon="35.1323570">
    <ele>278.4</ele>
    <time>2014-02-21T07:59:53Z</time>
   </trkpt>
   <trkpt lat="32.5930430" lon="35.1323730">
    <ele>278.5</ele>
    <time>2014-02-21T07:59:56Z</time>
   </trkpt>
   <trkpt lat="32.5930750" lon="35.1323580">
    <ele>278.5</ele>
    <time>2014-02-21T08:00:13Z</time>
   </trkpt>
   <trkpt lat="32.5930990" lon="35.1323340">
    <ele>278.5</ele>
    <time>2014-02-21T08:00:16Z</time>
   </trkpt>
   <trkpt lat="32.5930780" lon="35.1323090">
    <ele>278.3</ele>
    <time>2014-02-21T08:00:20Z</time>
   </trkpt>
   <trkpt lat="32.5930660" lon="35.1323390">
    <ele>278.4</ele>
    <time>2014-02-21T08:00:25Z</time>
   </trkpt>
   <trkpt lat="32.5930820" lon="35.1323730">
    <ele>278.6</ele>
    <time>2014-02-21T08:00:29Z</time>
   </trkpt>
   <trkpt lat="32.5930970" lon="35.1324020">
    <ele>278.7</ele>
    <time>2014-02-21T08:00:32Z</time>
   </trkpt>
   <trkpt lat="32.5931110" lon="35.1324320">
    <ele>278.8</ele>
    <time>2014-02-21T08:00:35Z</time>
   </trkpt>
   <trkpt lat="32.5931120" lon="35.1323980">
    <ele>278.7</ele>
    <time>2014-02-21T08:01:28Z</time>
   </trkpt>
   <trkpt lat="32.5931060" lon="35.1323570">
    <ele>278.5</ele>
    <time>2014-02-21T08:01:31Z</time>
   </trkpt>
   <trkpt lat="32.5930780" lon="35.1323610">
    <ele>278.5</ele>
    <time>2014-02-21T08:01:35Z</time>
   </trkpt>
   <trkpt lat="32.5930850" lon="35.1323970">
    <ele>278.7</ele>
    <time>2014-02-21T08:01:37Z</time>
   </trkpt>
   <trkpt lat="32.5931060" lon="35.1324370">
    <ele>278.8</ele>
    <time>2014-02-21T08:01:39Z</time>
   </trkpt>
   <trkpt lat="32.5931420" lon="35.1324640">
    <ele>278.9</ele>
    <time>2014-02-21T08:01:41Z</time>
   </trkpt>
   <trkpt lat="32.5931880" lon="35.1324700">
    <ele>278.9</ele>
    <time>2014-02-21T08:01:43Z</time>
   </trkpt>
   <trkpt lat="32.5932430" lon="35.1324590">
    <ele>278.9</ele>
    <time>2014-02-21T08:01:45Z</time>
   </trkpt>
   <trkpt lat="32.5932730" lon="35.1324580">
    <ele>278.9</ele>
    <time>2014-02-21T08:01:46Z</time>
   </trkpt>
   <trkpt lat="32.5933020" lon="35.1324660">
    <ele>278.9</ele>
    <time>2014-02-21T08:01:47Z</time>
   </trkpt>
   <trkpt lat="32.5933310" lon="35.1324720">
    <ele>279.0</ele>
    <time>2014-02-21T08:01:48Z</time>
   </trkpt>
   <trkpt lat="32.5933600" lon="35.1324720">
    <ele>279.0</ele>
    <time>2014-02-21T08:01:49Z</time>
   </trkpt>
   <trkpt lat="32.5933870" lon="35.1324640">
    <ele>279.0</ele>
    <time>2014-02-21T08:01:50Z</time>
   </trkpt>
   <trkpt lat="32.5934390" lon="35.1324520">
    <ele>279.0</ele>
    <time>2014-02-21T08:01:52Z</time>
   </trkpt>
   <trkpt lat="32.5934910" lon="35.1324470">
    <ele>279.0</ele>
    <time>2014-02-21T08:01:54Z</time>
   </trkpt>
   <trkpt lat="32.5935390" lon="35.1324300">
    <ele>279.0</ele>
    <time>2014-02-21T08:01:56Z</time>
   </trkpt>
   <trkpt lat="32.5935880" lon="35.1324060">
    <ele>279.1</ele>
    <time>2014-02-21T08:01:58Z</time>
   </trkpt>
   <trkpt lat="32.5936170" lon="35.1323930">
    <ele>279.1</ele>
    <time>2014-02-21T08:01:59Z</time>
   </trkpt>
   <trkpt lat="32.5936440" lon="35.1323810">
    <ele>279.2</ele>
    <time>2014-02-21T08:02:00Z</time>
   </trkpt>
   <trkpt lat="32.5936700" lon="35.1323690">
    <ele>279.2</ele>
    <time>2014-02-21T08:02:01Z</time>
   </trkpt>
   <trkpt lat="32.5937120" lon="35.1323330">
    <ele>279.3</ele>
    <time>2014-02-21T08:02:03Z</time>
   </trkpt>
   <trkpt lat="32.5937330" lon="35.1323120">
    <ele>279.4</ele>
    <time>2014-02-21T08:02:04Z</time>
   </trkpt>
   <trkpt lat="32.5937560" lon="35.1322940">
    <ele>279.5</ele>
    <time>2014-02-21T08:02:05Z</time>
   </trkpt>
   <trkpt lat="32.5937820" lon="35.1322780">
    <ele>279.4</ele>
    <time>2014-02-21T08:02:06Z</time>
   </trkpt>
   <trkpt lat="32.5938090" lon="35.1322640">
    <ele>279.3</ele>
    <time>2014-02-21T08:02:07Z</time>
   </trkpt>
   <trkpt lat="32.5938370" lon="35.1322530">
    <ele>279.3</ele>
    <time>2014-02-21T08:02:08Z</time>
   </trkpt>
   <trkpt lat="32.5938700" lon="35.1322400">
    <ele>279.2</ele>
    <time>2014-02-21T08:02:09Z</time>
   </trkpt>
   <trkpt lat="32.5939030" lon="35.1322270">
    <ele>279.0</ele>
    <time>2014-02-21T08:02:10Z</time>
   </trkpt>
   <trkpt lat="32.5939370" lon="35.1322100">
    <ele>278.9</ele>
    <time>2014-02-21T08:02:11Z</time>
   </trkpt>
   <trkpt lat="32.5939740" lon="35.1321930">
    <ele>278.8</ele>
    <time>2014-02-21T08:02:12Z</time>
   </trkpt>
   <trkpt lat="32.5940190" lon="35.1321730">
    <ele>278.6</ele>
    <time>2014-02-21T08:02:13Z</time>
   </trkpt>
   <trkpt lat="32.5940750" lon="35.1321540">
    <ele>278.4</ele>
    <time>2014-02-21T08:02:14Z</time>
   </trkpt>
   <trkpt lat="32.5941180" lon="35.1321460">
    <ele>278.2</ele>
    <time>2014-02-21T08:02:15Z</time>
   </trkpt>
   <trkpt lat="32.5941620" lon="35.1321370">
    <ele>278.0</ele>
    <time>2014-02-21T08:02:16Z</time>
   </trkpt>
   <trkpt lat="32.5942120" lon="35.1321250">
    <ele>277.8</ele>
    <time>2014-02-21T08:02:17Z</time>
   </trkpt>
   <trkpt lat="32.5942570" lon="35.1321050">
    <ele>277.6</ele>
    <time>2014-02-21T08:02:18Z</time>
   </trkpt>
   <trkpt lat="32.5943110" lon="35.1320920">
    <ele>277.3</ele>
    <time>2014-02-21T08:02:19Z</time>
   </trkpt>
   <trkpt lat="32.5943690" lon="35.1320850">
    <ele>277.0</ele>
    <time>2014-02-21T08:02:20Z</time>
   </trkpt>
   <trkpt lat="32.5944270" lon="35.1320700">
    <ele>276.7</ele>
    <time>2014-02-21T08:02:21Z</time>
   </trkpt>
   <trkpt lat="32.5944830" lon="35.1320400">
    <ele>276.2</ele>
    <time>2014-02-21T08:02:22Z</time>
   </trkpt>
   <trkpt lat="32.5945450" lon="35.1320190">
    <ele>275.8</ele>
    <time>2014-02-21T08:02:23Z</time>
   </trkpt>
   <trkpt lat="32.5946000" lon="35.1319870">
    <ele>275.4</ele>
    <time>2014-02-21T08:02:24Z</time>
   </trkpt>
   <trkpt lat="32.5946530" lon="35.1319650">
    <ele>275.4</ele>
    <time>2014-02-21T08:02:25Z</time>
   </trkpt>
   <trkpt lat="32.5947190" lon="35.1319440">
    <ele>275.3</ele>
    <time>2014-02-21T08:02:26Z</time>
   </trkpt>
   <trkpt lat="32.5947730" lon="35.1319160">
    <ele>275.2</ele>
    <time>2014-02-21T08:02:27Z</time>
   </trkpt>
   <trkpt lat="32.5948310" lon="35.1318970">
    <ele>275.1</ele>
    <time>2014-02-21T08:02:28Z</time>
   </trkpt>
   <trkpt lat="32.5948920" lon="35.1318850">
    <ele>275.1</ele>
    <time>2014-02-21T08:02:29Z</time>
   </trkpt>
   <trkpt lat="32.5949510" lon="35.1318610">
    <ele>275.0</ele>
    <time>2014-02-21T08:02:30Z</time>
   </trkpt>
   <trkpt lat="32.5950120" lon="35.1318300">
    <ele>274.8</ele>
    <time>2014-02-21T08:02:31Z</time>
   </trkpt>
   <trkpt lat="32.5950630" lon="35.1317990">
    <ele>274.7</ele>
    <time>2014-02-21T08:02:32Z</time>
   </trkpt>
   <trkpt lat="32.5951220" lon="35.1317560">
    <ele>274.4</ele>
    <time>2014-02-21T08:02:33Z</time>
   </trkpt>
   <trkpt lat="32.5951750" lon="35.1317170">
    <ele>274.2</ele>
    <time>2014-02-21T08:02:34Z</time>
   </trkpt>
   <trkpt lat="32.5952400" lon="35.1316710">
    <ele>273.9</ele>
    <time>2014-02-21T08:02:35Z</time>
   </trkpt>
   <trkpt lat="32.5953180" lon="35.1316450">
    <ele>273.8</ele>
    <time>2014-02-21T08:02:36Z</time>
   </trkpt>
   <trkpt lat="32.5953920" lon="35.1316210">
    <ele>273.7</ele>
    <time>2014-02-21T08:02:37Z</time>
   </trkpt>
   <trkpt lat="32.5954590" lon="35.1315910">
    <ele>273.1</ele>
    <time>2014-02-21T08:02:38Z</time>
   </trkpt>
   <trkpt lat="32.5955320" lon="35.1315530">
    <ele>272.3</ele>
    <time>2014-02-21T08:02:39Z</time>
   </trkpt>
   <trkpt lat="32.5956000" lon="35.1315110">
    <ele>271.4</ele>
    <time>2014-02-21T08:02:40Z</time>
   </trkpt>
   <trkpt lat="32.5956750" lon="35.1314870">
    <ele>270.7</ele>
    <time>2014-02-21T08:02:41Z</time>
   </trkpt>
   <trkpt lat="32.5957680" lon="35.1314750">
    <ele>269.9</ele>
    <time>2014-02-21T08:02:42Z</time>
   </trkpt>
   <trkpt lat="32.5958370" lon="35.1314440">
    <ele>269.1</ele>
    <time>2014-02-21T08:02:43Z</time>
   </trkpt>
   <trkpt lat="32.5959080" lon="35.1313940">
    <ele>268.3</ele>
    <time>2014-02-21T08:02:44Z</time>
   </trkpt>
   <trkpt lat="32.5959880" lon="35.1313500">
    <ele>267.4</ele>
    <time>2014-02-21T08:02:45Z</time>
   </trkpt>
   <trkpt lat="32.5960610" lon="35.1313070">
    <ele>266.7</ele>
    <time>2014-02-21T08:02:46Z</time>
   </trkpt>
   <trkpt lat="32.5961370" lon="35.1312600">
    <ele>265.9</ele>
    <time>2014-02-21T08:02:47Z</time>
   </trkpt>
   <trkpt lat="32.5962210" lon="35.1312290">
    <ele>264.9</ele>
    <time>2014-02-21T08:02:48Z</time>
   </trkpt>
   <trkpt lat="32.5963090" lon="35.1312090">
    <ele>264.2</ele>
    <time>2014-02-21T08:02:49Z</time>
   </trkpt>
   <trkpt lat="32.5963890" lon="35.1311810">
    <ele>263.5</ele>
    <time>2014-02-21T08:02:50Z</time>
   </trkpt>
   <trkpt lat="32.5964700" lon="35.1311350">
    <ele>262.6</ele>
    <time>2014-02-21T08:02:51Z</time>
   </trkpt>
   <trkpt lat="32.5965400" lon="35.1310800">
    <ele>261.8</ele>
    <time>2014-02-21T08:02:52Z</time>
   </trkpt>
   <trkpt lat="32.5965960" lon="35.1310090">
    <ele>260.9</ele>
    <time>2014-02-21T08:02:53Z</time>
   </trkpt>
   <trkpt lat="32.5966550" lon="35.1309420">
    <ele>260.1</ele>
    <time>2014-02-21T08:02:54Z</time>
   </trkpt>
   <trkpt lat="32.5967160" lon="35.1308740">
    <ele>259.3</ele>
    <time>2014-02-21T08:02:55Z</time>
   </trkpt>
   <trkpt lat="32.5967850" lon="35.1308170">
    <ele>258.7</ele>
    <time>2014-02-21T08:02:56Z</time>
   </trkpt>
   <trkpt lat="32.5968590" lon="35.1307690">
    <ele>258.3</ele>
    <time>2014-02-21T08:02:57Z</time>
   </trkpt>
   <trkpt lat="32.5969360" lon="35.1307260">
    <ele>257.9</ele>
    <time>2014-02-21T08:02:58Z</time>
   </trkpt>
   <trkpt lat="32.5970090" lon="35.1306860">
    <ele>257.6</ele>
    <time>2014-02-21T08:02:59Z</time>
   </trkpt>
   <trkpt lat="32.5970830" lon="35.1306550">
    <ele>257.4</ele>
    <time>2014-02-21T08:03:00Z</time>
   </trkpt>
   <trkpt lat="32.5971560" lon="35.1306530">
    <ele>257.1</ele>
    <time>2014-02-21T08:03:01Z</time>
   </trkpt>
   <trkpt lat="32.5972260" lon="35.1306620">
    <ele>256.8</ele>
    <time>2014-02-21T08:03:02Z</time>
   </trkpt>
   <trkpt lat="32.5972940" lon="35.1306490">
    <ele>256.5</ele>
    <time>2014-02-21T08:03:03Z</time>
   </trkpt>
   <trkpt lat="32.5973590" lon="35.1306210">
    <ele>256.2</ele>
    <time>2014-02-21T08:03:04Z</time>
   </trkpt>
   <trkpt lat="32.5974290" lon="35.1305900">
    <ele>255.8</ele>
    <time>2014-02-21T08:03:05Z</time>
   </trkpt>
   <trkpt lat="32.5974940" lon="35.1305610">
    <ele>255.6</ele>
    <time>2014-02-21T08:03:06Z</time>
   </trkpt>
   <trkpt lat="32.5975410" lon="35.1305500">
    <ele>255.5</ele>
    <time>2014-02-21T08:03:07Z</time>
   </trkpt>
   <trkpt lat="32.5975850" lon="35.1305510">
    <ele>255.3</ele>
    <time>2014-02-21T08:03:08Z</time>
   </trkpt>
   <trkpt lat="32.5976180" lon="35.1305630">
    <ele>255.2</ele>
    <time>2014-02-21T08:03:09Z</time>
   </trkpt>
   <trkpt lat="32.5976590" lon="35.1305770">
    <ele>255.1</ele>
    <time>2014-02-21T08:03:11Z</time>
   </trkpt>
   <trkpt lat="32.5976850" lon="35.1305910">
    <ele>255.0</ele>
    <time>2014-02-21T08:03:14Z</time>
   </trkpt>
   <trkpt lat="32.5977140" lon="35.1305840">
    <ele>254.9</ele>
    <time>2014-02-21T08:03:17Z</time>
   </trkpt>
   <trkpt lat="32.5977180" lon="35.1305370">
    <ele>255.0</ele>
    <time>2014-02-21T08:03:21Z</time>
   </trkpt>
   <trkpt lat="32.5977210" lon="35.1304830">
    <ele>255.1</ele>
    <time>2014-02-21T08:03:23Z</time>
   </trkpt>
   <trkpt lat="32.5977240" lon="35.1304430">
    <ele>255.2</ele>
    <time>2014-02-21T08:03:25Z</time>
   </trkpt>
   <trkpt lat="32.5977330" lon="35.1304100">
    <ele>255.2</ele>
    <time>2014-02-21T08:03:29Z</time>
   </trkpt>
   <trkpt lat="32.5977560" lon="35.1303860">
    <ele>254.9</ele>
    <time>2014-02-21T08:03:34Z</time>
   </trkpt>
   <trkpt lat="32.5977860" lon="35.1303900">
    <ele>254.9</ele>
    <time>2014-02-21T08:03:40Z</time>
   </trkpt>
   <trkpt lat="32.5978170" lon="35.1303850">
    <ele>254.9</ele>
    <time>2014-02-21T08:03:42Z</time>
   </trkpt>
   <trkpt lat="32.5978450" lon="35.1303840">
    <ele>254.8</ele>
    <time>2014-02-21T08:03:43Z</time>
   </trkpt>
   <trkpt lat="32.5978770" lon="35.1303820">
    <ele>254.8</ele>
    <time>2014-02-21T08:03:44Z</time>
   </trkpt>
   <trkpt lat="32.5979140" lon="35.1303780">
    <ele>254.7</ele>
    <time>2014-02-21T08:03:45Z</time>
   </trkpt>
   <trkpt lat="32.5979540" lon="35.1303720">
    <ele>254.8</ele>
    <time>2014-02-21T08:03:46Z</time>
   </trkpt>
   <trkpt lat="32.5979990" lon="35.1303610">
    <ele>254.9</ele>
    <time>2014-02-21T08:03:47Z</time>
   </trkpt>
   <trkpt lat="32.5980450" lon="35.1303480">
    <ele>255.0</ele>
    <time>2014-02-21T08:03:48Z</time>
   </trkpt>
   <trkpt lat="32.5981020" lon="35.1303190">
    <ele>255.1</ele>
    <time>2014-02-21T08:03:49Z</time>
   </trkpt>
   <trkpt lat="32.5981520" lon="35.1303020">
    <ele>255.2</ele>
    <time>2014-02-21T08:03:50Z</time>
   </trkpt>
   <trkpt lat="32.5982060" lon="35.1302880">
    <ele>255.4</ele>
    <time>2014-02-21T08:03:51Z</time>
   </trkpt>
   <trkpt lat="32.5982540" lon="35.1302820">
    <ele>255.6</ele>
    <time>2014-02-21T08:03:52Z</time>
   </trkpt>
   <trkpt lat="32.5983110" lon="35.1302790">
    <ele>255.9</ele>
    <time>2014-02-21T08:03:53Z</time>
   </trkpt>
   <trkpt lat="32.5983740" lon="35.1302690">
    <ele>256.2</ele>
    <time>2014-02-21T08:03:54Z</time>
   </trkpt>
   <trkpt lat="32.5984270" lon="35.1302510">
    <ele>256.5</ele>
    <time>2014-02-21T08:03:55Z</time>
   </trkpt>
   <trkpt lat="32.5984700" lon="35.1302520">
    <ele>256.7</ele>
    <time>2014-02-21T08:03:56Z</time>
   </trkpt>
   <trkpt lat="32.5985160" lon="35.1302640">
    <ele>256.9</ele>
    <time>2014-02-21T08:03:57Z</time>
   </trkpt>
   <trkpt lat="32.5985660" lon="35.1302580">
    <ele>257.2</ele>
    <time>2014-02-21T08:03:58Z</time>
   </trkpt>
   <trkpt lat="32.5986300" lon="35.1302610">
    <ele>257.5</ele>
    <time>2014-02-21T08:03:59Z</time>
   </trkpt>
   <trkpt lat="32.5986990" lon="35.1302600">
    <ele>257.9</ele>
    <time>2014-02-21T08:04:00Z</time>
   </trkpt>
   <trkpt lat="32.5987670" lon="35.1302580">
    <ele>258.1</ele>
    <time>2014-02-21T08:04:01Z</time>
   </trkpt>
   <trkpt lat="32.5988360" lon="35.1302580">
    <ele>257.9</ele>
    <time>2014-02-21T08:04:02Z</time>
   </trkpt>
   <trkpt lat="32.5989040" lon="35.1302480">
    <ele>257.8</ele>
    <time>2014-02-21T08:04:03Z</time>
   </trkpt>
   <trkpt lat="32.5989640" lon="35.1302560">
    <ele>257.6</ele>
    <time>2014-02-21T08:04:04Z</time>
   </trkpt>
   <trkpt lat="32.5990340" lon="35.1302760">
    <ele>257.3</ele>
    <time>2014-02-21T08:04:05Z</time>
   </trkpt>
   <trkpt lat="32.5991060" lon="35.1302840">
    <ele>257.1</ele>
    <time>2014-02-21T08:04:06Z</time>
   </trkpt>
   <trkpt lat="32.5991670" lon="35.1302890">
    <ele>256.9</ele>
    <time>2014-02-21T08:04:07Z</time>
   </trkpt>
   <trkpt lat="32.5992080" lon="35.1302990">
    <ele>256.7</ele>
    <time>2014-02-21T08:04:08Z</time>
   </trkpt>
   <trkpt lat="32.5992660" lon="35.1302980">
    <ele>256.6</ele>
    <time>2014-02-21T08:04:09Z</time>
   </trkpt>
   <trkpt lat="32.5993280" lon="35.1303090">
    <ele>256.4</ele>
    <time>2014-02-21T08:04:10Z</time>
   </trkpt>
   <trkpt lat="32.5993810" lon="35.1303320">
    <ele>256.1</ele>
    <time>2014-02-21T08:04:11Z</time>
   </trkpt>
   <trkpt lat="32.5994450" lon="35.1303560">
    <ele>255.8</ele>
    <time>2014-02-21T08:04:12Z</time>
   </trkpt>
   <trkpt lat="32.5995140" lon="35.1303660">
    <ele>255.5</ele>
    <time>2014-02-21T08:04:13Z</time>
   </trkpt>
   <trkpt lat="32.5995780" lon="35.1303780">
    <ele>255.3</ele>
    <time>2014-02-21T08:04:14Z</time>
   </trkpt>
   <trkpt lat="32.5996450" lon="35.1303990">
    <ele>254.2</ele>
    <time>2014-02-21T08:04:15Z</time>
   </trkpt>
   <trkpt lat="32.5997080" lon="35.1304200">
    <ele>253.0</ele>
    <time>2014-02-21T08:04:16Z</time>
   </trkpt>
   <trkpt lat="32.5997900" lon="35.1304270">
    <ele>251.5</ele>
    <time>2014-02-21T08:04:17Z</time>
   </trkpt>
   <trkpt lat="32.5998740" lon="35.1304230">
    <ele>250.3</ele>
    <time>2014-02-21T08:04:18Z</time>
   </trkpt>
   <trkpt lat="32.5999670" lon="35.1304140">
    <ele>249.0</ele>
    <time>2014-02-21T08:04:19Z</time>
   </trkpt>
   <trkpt lat="32.6000540" lon="35.1303990">
    <ele>247.7</ele>
    <time>2014-02-21T08:04:20Z</time>
   </trkpt>
   <trkpt lat="32.6001280" lon="35.1303980">
    <ele>246.6</ele>
    <time>2014-02-21T08:04:21Z</time>
   </trkpt>
   <trkpt lat="32.6001980" lon="35.1304050">
    <ele>245.4</ele>
    <time>2014-02-21T08:04:22Z</time>
   </trkpt>
   <trkpt lat="32.6002750" lon="35.1303890">
    <ele>244.3</ele>
    <time>2014-02-21T08:04:23Z</time>
   </trkpt>
   <trkpt lat="32.6003460" lon="35.1303760">
    <ele>243.2</ele>
    <time>2014-02-21T08:04:24Z</time>
   </trkpt>
   <trkpt lat="32.6004330" lon="35.1303640">
    <ele>241.9</ele>
    <time>2014-02-21T08:04:25Z</time>
   </trkpt>
   <trkpt lat="32.6005140" lon="35.1303700">
    <ele>241.1</ele>
    <time>2014-02-21T08:04:26Z</time>
   </trkpt>
   <trkpt lat="32.6005920" lon="35.1303870">
    <ele>240.3</ele>
    <time>2014-02-21T08:04:27Z</time>
   </trkpt>
   <trkpt lat="32.6006820" lon="35.1304050">
    <ele>239.4</ele>
    <time>2014-02-21T08:04:28Z</time>
   </trkpt>
   <trkpt lat="32.6007640" lon="35.1304140">
    <ele>238.7</ele>
    <time>2014-02-21T08:04:29Z</time>
   </trkpt>
   <trkpt lat="32.6008600" lon="35.1304230">
    <ele>237.6</ele>
    <time>2014-02-21T08:04:30Z</time>
   </trkpt>
   <trkpt lat="32.6009510" lon="35.1304400">
    <ele>236.4</ele>
    <time>2014-02-21T08:04:31Z</time>
   </trkpt>
   <trkpt lat="32.6010370" lon="35.1304460">
    <ele>235.5</ele>
    <time>2014-02-21T08:04:32Z</time>
   </trkpt>
   <trkpt lat="32.6011240" lon="35.1304650">
    <ele>234.4</ele>
    <time>2014-02-21T08:04:33Z</time>
   </trkpt>
   <trkpt lat="32.6012240" lon="35.1304650">
    <ele>233.5</ele>
    <time>2014-02-21T08:04:34Z</time>
   </trkpt>
   <trkpt lat="32.6013060" lon="35.1304540">
    <ele>232.7</ele>
    <time>2014-02-21T08:04:35Z</time>
   </trkpt>
   <trkpt lat="32.6013890" lon="35.1304340">
    <ele>232.0</ele>
    <time>2014-02-21T08:04:36Z</time>
   </trkpt>
   <trkpt lat="32.6014560" lon="35.1304240">
    <ele>231.2</ele>
    <time>2014-02-21T08:04:37Z</time>
   </trkpt>
   <trkpt lat="32.6015270" lon="35.1304270">
    <ele>230.3</ele>
    <time>2014-02-21T08:04:38Z</time>
   </trkpt>
   <trkpt lat="32.6015800" lon="35.1304500">
    <ele>229.5</ele>
    <time>2014-02-21T08:04:39Z</time>
   </trkpt>
   <trkpt lat="32.6016220" lon="35.1304650">
    <ele>228.9</ele>
    <time>2014-02-21T08:04:40Z</time>
   </trkpt>
   <trkpt lat="32.6016500" lon="35.1304740">
    <ele>228.6</ele>
    <time>2014-02-21T08:04:41Z</time>
   </trkpt>
   <trkpt lat="32.6016220" lon="35.1304630">
    <ele>228.9</ele>
    <time>2014-02-21T08:04:53Z</time>
   </trkpt>
   <trkpt lat="32.6016330" lon="35.1304280">
    <ele>228.9</ele>
    <time>2014-02-21T08:09:37Z</time>
   </trkpt>
   <trkpt lat="32.6016510" lon="35.1303950">
    <ele>228.5</ele>
    <time>2014-02-21T08:09:41Z</time>
   </trkpt>
   <trkpt lat="32.6016860" lon="35.1304390">
    <ele>228.2</ele>
    <time>2014-02-21T08:10:02Z</time>
   </trkpt>
   <trkpt lat="32.6017240" lon="35.1304780">
    <ele>227.7</ele>
    <time>2014-02-21T08:10:04Z</time>
   </trkpt>
   <trkpt lat="32.6017560" lon="35.1305070">
    <ele>227.4</ele>
    <time>2014-02-21T08:10:06Z</time>
   </trkpt>
   <trkpt lat="32.6017770" lon="35.1305390">
    <ele>227.2</ele>
    <time>2014-02-21T08:10:08Z</time>
   </trkpt>
   <trkpt lat="32.6017920" lon="35.1305740">
    <ele>227.1</ele>
    <time>2014-02-21T08:10:10Z</time>
   </trkpt>
   <trkpt lat="32.6018190" lon="35.1305990">
    <ele>226.9</ele>
    <time>2014-02-21T08:10:12Z</time>
   </trkpt>
   <trkpt lat="32.6018480" lon="35.1306270">
    <ele>226.8</ele>
    <time>2014-02-21T08:10:14Z</time>
   </trkpt>
   <trkpt lat="32.6018640" lon="35.1306610">
    <ele>226.8</ele>
    <time>2014-02-21T08:10:16Z</time>
   </trkpt>
   <trkpt lat="32.6018620" lon="35.1307030">
    <ele>227.0</ele>
    <time>2014-02-21T08:10:18Z</time>
   </trkpt>
   <trkpt lat="32.6018670" lon="35.1307410">
    <ele>227.1</ele>
    <time>2014-02-21T08:10:20Z</time>
   </trkpt>
   <trkpt lat="32.6018760" lon="35.1307860">
    <ele>227.3</ele>
    <time>2014-02-21T08:10:23Z</time>
   </trkpt>
   <trkpt lat="32.6018780" lon="35.1308220">
    <ele>227.5</ele>
    <time>2014-02-21T08:10:25Z</time>
   </trkpt>
   <trkpt lat="32.6018920" lon="35.1308580">
    <ele>227.6</ele>
    <time>2014-02-21T08:10:27Z</time>
   </trkpt>
   <trkpt lat="32.6019250" lon="35.1308900">
    <ele>227.8</ele>
    <time>2014-02-21T08:10:29Z</time>
   </trkpt>
   <trkpt lat="32.6019550" lon="35.1309290">
    <ele>228.1</ele>
    <time>2014-02-21T08:10:31Z</time>
   </trkpt>
   <trkpt lat="32.6019900" lon="35.1309580">
    <ele>228.5</ele>
    <time>2014-02-21T08:10:33Z</time>
   </trkpt>
   <trkpt lat="32.6020190" lon="35.1309870">
    <ele>228.8</ele>
    <time>2014-02-21T08:10:35Z</time>
   </trkpt>
   <trkpt lat="32.6020500" lon="35.1310130">
    <ele>229.3</ele>
    <time>2014-02-21T08:10:37Z</time>
   </trkpt>
   <trkpt lat="32.6020870" lon="35.1310270">
    <ele>229.6</ele>
    <time>2014-02-21T08:10:39Z</time>
   </trkpt>
   <trkpt lat="32.6021200" lon="35.1310530">
    <ele>229.9</ele>
    <time>2014-02-21T08:10:41Z</time>
   </trkpt>
   <trkpt lat="32.6021520" lon="35.1310880">
    <ele>230.4</ele>
    <time>2014-02-21T08:10:43Z</time>
   </trkpt>
   <trkpt lat="32.6021850" lon="35.1311170">
    <ele>230.8</ele>
    <time>2014-02-21T08:10:45Z</time>
   </trkpt>
   <trkpt lat="32.6022160" lon="35.1311460">
    <ele>231.2</ele>
    <time>2014-02-21T08:10:47Z</time>
   </trkpt>
   <trkpt lat="32.6022470" lon="35.1311800">
    <ele>231.7</ele>
    <time>2014-02-21T08:10:49Z</time>
   </trkpt>
   <trkpt lat="32.6023010" lon="35.1312050">
    <ele>232.2</ele>
    <time>2014-02-21T08:10:51Z</time>
   </trkpt>
   <trkpt lat="32.6023530" lon="35.1312180">
    <ele>232.5</ele>
    <time>2014-02-21T08:10:53Z</time>
   </trkpt>
   <trkpt lat="32.6023780" lon="35.1312310">
    <ele>232.8</ele>
    <time>2014-02-21T08:10:54Z</time>
   </trkpt>
   <trkpt lat="32.6024170" lon="35.1312630">
    <ele>233.2</ele>
    <time>2014-02-21T08:10:56Z</time>
   </trkpt>
   <trkpt lat="32.6024270" lon="35.1313030">
    <ele>233.0</ele>
    <time>2014-02-21T08:10:59Z</time>
   </trkpt>
   <trkpt lat="32.6024200" lon="35.1313380">
    <ele>232.9</ele>
    <time>2014-02-21T08:11:01Z</time>
   </trkpt>
   <trkpt lat="32.6024230" lon="35.1313740">
    <ele>232.8</ele>
    <time>2014-02-21T08:11:03Z</time>
   </trkpt>
   <trkpt lat="32.6024360" lon="35.1314160">
    <ele>232.7</ele>
    <time>2014-02-21T08:11:05Z</time>
   </trkpt>
   <trkpt lat="32.6024510" lon="35.1314580">
    <ele>232.6</ele>
    <time>2014-02-21T08:11:07Z</time>
   </trkpt>
   <trkpt lat="32.6024700" lon="35.1314940">
    <ele>232.7</ele>
    <time>2014-02-21T08:11:09Z</time>
   </trkpt>
   <trkpt lat="32.6024810" lon="35.1315240">
    <ele>232.7</ele>
    <time>2014-02-21T08:11:11Z</time>
   </trkpt>
   <trkpt lat="32.6025050" lon="35.1315400">
    <ele>232.8</ele>
    <time>2014-02-21T08:11:18Z</time>
   </trkpt>
   <trkpt lat="32.6024990" lon="35.1315710">
    <ele>232.7</ele>
    <time>2014-02-21T08:11:35Z</time>
   </trkpt>
   <trkpt lat="32.6025330" lon="35.1315960">
    <ele>233.0</ele>
    <time>2014-02-21T08:11:41Z</time>
   </trkpt>
   <trkpt lat="32.6025750" lon="35.1316320">
    <ele>233.3</ele>
    <time>2014-02-21T08:11:43Z</time>
   </trkpt>
   <trkpt lat="32.6025970" lon="35.1316540">
    <ele>233.6</ele>
    <time>2014-02-21T08:11:44Z</time>
   </trkpt>
   <trkpt lat="32.6026200" lon="35.1316780">
    <ele>233.8</ele>
    <time>2014-02-21T08:11:45Z</time>
   </trkpt>
   <trkpt lat="32.6026440" lon="35.1316980">
    <ele>234.1</ele>
    <time>2014-02-21T08:11:46Z</time>
   </trkpt>
   <trkpt lat="32.6026670" lon="35.1317140">
    <ele>234.3</ele>
    <time>2014-02-21T08:11:47Z</time>
   </trkpt>
   <trkpt lat="32.6027170" lon="35.1317370">
    <ele>234.9</ele>
    <time>2014-02-21T08:11:49Z</time>
   </trkpt>
   <trkpt lat="32.6027490" lon="35.1317450">
    <ele>235.3</ele>
    <time>2014-02-21T08:11:50Z</time>
   </trkpt>
   <trkpt lat="32.6027880" lon="35.1317510">
    <ele>235.8</ele>
    <time>2014-02-21T08:11:51Z</time>
   </trkpt>
   <trkpt lat="32.6028520" lon="35.1317670">
    <ele>236.7</ele>
    <time>2014-02-21T08:11:52Z</time>
   </trkpt>
   <trkpt lat="32.6030080" lon="35.1318010">
    <ele>237.1</ele>
    <time>2014-02-21T08:11:53Z</time>
   </trkpt>
   <trkpt lat="32.6030670" lon="35.1318370">
    <ele>236.8</ele>
    <time>2014-02-21T08:11:54Z</time>
   </trkpt>
   <trkpt lat="32.6031140" lon="35.1318840">
    <ele>236.7</ele>
    <time>2014-02-21T08:11:55Z</time>
   </trkpt>
   <trkpt lat="32.6032000" lon="35.1319330">
    <ele>236.4</ele>
    <time>2014-02-21T08:11:56Z</time>
   </trkpt>
   <trkpt lat="32.6032610" lon="35.1319530">
    <ele>236.0</ele>
    <time>2014-02-21T08:11:57Z</time>
   </trkpt>
   <trkpt lat="32.6033080" lon="35.1319960">
    <ele>235.9</ele>
    <time>2014-02-21T08:11:58Z</time>
   </trkpt>
   <trkpt lat="32.6033520" lon="35.1320100">
    <ele>235.6</ele>
    <time>2014-02-21T08:11:59Z</time>
   </trkpt>
   <trkpt lat="32.6033740" lon="35.1320360">
    <ele>235.5</ele>
    <time>2014-02-21T08:12:01Z</time>
   </trkpt>
   <trkpt lat="32.6033510" lon="35.1320770">
    <ele>235.9</ele>
    <time>2014-02-21T08:12:04Z</time>
   </trkpt>
   <trkpt lat="32.6033310" lon="35.1321180">
    <ele>235.6</ele>
    <time>2014-02-21T08:12:06Z</time>
   </trkpt>
   <trkpt lat="32.6033110" lon="35.1321610">
    <ele>235.3</ele>
    <time>2014-02-21T08:12:08Z</time>
   </trkpt>
   <trkpt lat="32.6032910" lon="35.1322070">
    <ele>234.9</ele>
    <time>2014-02-21T08:12:10Z</time>
   </trkpt>
   <trkpt lat="32.6032700" lon="35.1322460">
    <ele>234.6</ele>
    <time>2014-02-21T08:12:12Z</time>
   </trkpt>
   <trkpt lat="32.6032620" lon="35.1322860">
    <ele>234.2</ele>
    <time>2014-02-21T08:12:14Z</time>
   </trkpt>
   <trkpt lat="32.6032850" lon="35.1323270">
    <ele>233.6</ele>
    <time>2014-02-21T08:12:16Z</time>
   </trkpt>
   <trkpt lat="32.6033170" lon="35.1323810">
    <ele>232.9</ele>
    <time>2014-02-21T08:12:18Z</time>
   </trkpt>
   <trkpt lat="32.6033380" lon="35.1324160">
    <ele>232.4</ele>
    <time>2014-02-21T08:12:19Z</time>
   </trkpt>
   <trkpt lat="32.6033580" lon="35.1324580">
    <ele>231.8</ele>
    <time>2014-02-21T08:12:20Z</time>
   </trkpt>
   <trkpt lat="32.6033760" lon="35.1325150">
    <ele>231.1</ele>
    <time>2014-02-21T08:12:21Z</time>
   </trkpt>
   <trkpt lat="32.6033900" lon="35.1325700">
    <ele>230.5</ele>
    <time>2014-02-21T08:12:22Z</time>
   </trkpt>
   <trkpt lat="32.6034050" lon="35.1326300">
    <ele>229.8</ele>
    <time>2014-02-21T08:12:23Z</time>
   </trkpt>
   <trkpt lat="32.6034300" lon="35.1327110">
    <ele>228.9</ele>
    <time>2014-02-21T08:12:24Z</time>
   </trkpt>
   <trkpt lat="32.6034580" lon="35.1327640">
    <ele>228.2</ele>
    <time>2014-02-21T08:12:25Z</time>
   </trkpt>
   <trkpt lat="32.6034790" lon="35.1328090">
    <ele>227.7</ele>
    <time>2014-02-21T08:12:26Z</time>
   </trkpt>
   <trkpt lat="32.6035330" lon="35.1328930">
    <ele>226.7</ele>
    <time>2014-02-21T08:12:27Z</time>
   </trkpt>
   <trkpt lat="32.6035760" lon="35.1329430">
    <ele>226.1</ele>
    <time>2014-02-21T08:12:28Z</time>
   </trkpt>
   <trkpt lat="32.6036310" lon="35.1329970">
    <ele>225.4</ele>
    <time>2014-02-21T08:12:29Z</time>
   </trkpt>
   <trkpt lat="32.6036690" lon="35.1330330">
    <ele>224.9</ele>
    <time>2014-02-21T08:12:30Z</time>
   </trkpt>
   <trkpt lat="32.6037200" lon="35.1330760">
    <ele>224.3</ele>
    <time>2014-02-21T08:12:31Z</time>
   </trkpt>
   <trkpt lat="32.6037640" lon="35.1331240">
    <ele>223.5</ele>
    <time>2014-02-21T08:12:32Z</time>
   </trkpt>
   <trkpt lat="32.6038030" lon="35.1331710">
    <ele>222.2</ele>
    <time>2014-02-21T08:12:33Z</time>
   </trkpt>
   <trkpt lat="32.6038440" lon="35.1332130">
    <ele>220.9</ele>
    <time>2014-02-21T08:12:34Z</time>
   </trkpt>
   <trkpt lat="32.6038120" lon="35.1332880">
    <ele>220.8</ele>
    <time>2014-02-21T08:12:35Z</time>
   </trkpt>
   <trkpt lat="32.6038170" lon="35.1333210">
    <ele>220.4</ele>
    <time>2014-02-21T08:12:36Z</time>
   </trkpt>
   <trkpt lat="32.6038250" lon="35.1334040">
    <ele>219.4</ele>
    <time>2014-02-21T08:12:37Z</time>
   </trkpt>
   <trkpt lat="32.6038280" lon="35.1334680">
    <ele>218.7</ele>
    <time>2014-02-21T08:12:38Z</time>
   </trkpt>
   <trkpt lat="32.6038410" lon="35.1334970">
    <ele>218.2</ele>
    <time>2014-02-21T08:12:39Z</time>
   </trkpt>
   <trkpt lat="32.6038600" lon="35.1335500">
    <ele>217.4</ele>
    <time>2014-02-21T08:12:40Z</time>
   </trkpt>
   <trkpt lat="32.6039050" lon="35.1335680">
    <ele>216.4</ele>
    <time>2014-02-21T08:12:41Z</time>
   </trkpt>
   <trkpt lat="32.6039190" lon="35.1336130">
    <ele>215.8</ele>
    <time>2014-02-21T08:12:44Z</time>
   </trkpt>
   <trkpt lat="32.6039230" lon="35.1336570">
    <ele>215.4</ele>
    <time>2014-02-21T08:12:46Z</time>
   </trkpt>
   <trkpt lat="32.6039350" lon="35.1337040">
    <ele>214.7</ele>
    <time>2014-02-21T08:12:48Z</time>
   </trkpt>
   <trkpt lat="32.6039660" lon="35.1337280">
    <ele>214.1</ele>
    <time>2014-02-21T08:12:50Z</time>
   </trkpt>
   <trkpt lat="32.6039950" lon="35.1337400">
    <ele>213.6</ele>
    <time>2014-02-21T08:12:52Z</time>
   </trkpt>
   <trkpt lat="32.6040250" lon="35.1337640">
    <ele>212.8</ele>
    <time>2014-02-21T08:12:55Z</time>
   </trkpt>
   <trkpt lat="32.6040550" lon="35.1337710">
    <ele>212.3</ele>
    <time>2014-02-21T08:12:58Z</time>
   </trkpt>
   <trkpt lat="32.6040910" lon="35.1337840">
    <ele>211.6</ele>
    <time>2014-02-21T08:13:01Z</time>
   </trkpt>
   <trkpt lat="32.6041220" lon="35.1337950">
    <ele>211.0</ele>
    <time>2014-02-21T08:13:03Z</time>
   </trkpt>
   <trkpt lat="32.6041520" lon="35.1338030">
    <ele>210.5</ele>
    <time>2014-02-21T08:13:05Z</time>
   </trkpt>
   <trkpt lat="32.6041830" lon="35.1338140">
    <ele>209.9</ele>
    <time>2014-02-21T08:13:07Z</time>
   </trkpt>
   <trkpt lat="32.6042130" lon="35.1338200">
    <ele>209.4</ele>
    <time>2014-02-21T08:13:08Z</time>
   </trkpt>
   <trkpt lat="32.6042420" lon="35.1338190">
    <ele>209.0</ele>
    <time>2014-02-21T08:13:09Z</time>
   </trkpt>
   <trkpt lat="32.6042930" lon="35.1338090">
    <ele>208.4</ele>
    <time>2014-02-21T08:13:11Z</time>
   </trkpt>
   <trkpt lat="32.6043380" lon="35.1338090">
    <ele>207.7</ele>
    <time>2014-02-21T08:13:13Z</time>
   </trkpt>
   <trkpt lat="32.6043680" lon="35.1338170">
    <ele>207.2</ele>
    <time>2014-02-21T08:13:15Z</time>
   </trkpt>
   <trkpt lat="32.6044040" lon="35.1338260">
    <ele>206.5</ele>
    <time>2014-02-21T08:13:18Z</time>
   </trkpt>
   <trkpt lat="32.6044400" lon="35.1338320">
    <ele>205.9</ele>
    <time>2014-02-21T08:13:21Z</time>
   </trkpt>
   <trkpt lat="32.6044640" lon="35.1338160">
    <ele>205.8</ele>
    <time>2014-02-21T08:13:24Z</time>
   </trkpt>
   <trkpt lat="32.6044890" lon="35.1337980">
    <ele>205.7</ele>
    <time>2014-02-21T08:13:40Z</time>
   </trkpt>
   <trkpt lat="32.6045140" lon="35.1337840">
    <ele>205.5</ele>
    <time>2014-02-21T08:15:23Z</time>
   </trkpt>
   <trkpt lat="32.6045410" lon="35.1337770">
    <ele>205.2</ele>
    <time>2014-02-21T08:15:24Z</time>
   </trkpt>
   <trkpt lat="32.6045830" lon="35.1337730">
    <ele>204.7</ele>
    <time>2014-02-21T08:15:25Z</time>
   </trkpt>
   <trkpt lat="32.6046240" lon="35.1337700">
    <ele>204.0</ele>
    <time>2014-02-21T08:15:26Z</time>
   </trkpt>
   <trkpt lat="32.6046660" lon="35.1337680">
    <ele>203.4</ele>
    <time>2014-02-21T08:15:27Z</time>
   </trkpt>
   <trkpt lat="32.6047090" lon="35.1337640">
    <ele>202.7</ele>
    <time>2014-02-21T08:15:28Z</time>
   </trkpt>
   <trkpt lat="32.6047600" lon="35.1337600">
    <ele>201.9</ele>
    <time>2014-02-21T08:15:29Z</time>
   </trkpt>
   <trkpt lat="32.6048230" lon="35.1337550">
    <ele>200.9</ele>
    <time>2014-02-21T08:15:30Z</time>
   </trkpt>
   <trkpt lat="32.6049290" lon="35.1337520">
    <ele>199.2</ele>
    <time>2014-02-21T08:15:31Z</time>
   </trkpt>
   <trkpt lat="32.6049880" lon="35.1337520">
    <ele>198.2</ele>
    <time>2014-02-21T08:15:32Z</time>
   </trkpt>
   <trkpt lat="32.6050600" lon="35.1337480">
    <ele>197.0</ele>
    <time>2014-02-21T08:15:33Z</time>
   </trkpt>
   <trkpt lat="32.6051250" lon="35.1337380">
    <ele>195.8</ele>
    <time>2014-02-21T08:15:34Z</time>
   </trkpt>
   <trkpt lat="32.6052240" lon="35.1337230">
    <ele>194.0</ele>
    <time>2014-02-21T08:15:35Z</time>
   </trkpt>
   <trkpt lat="32.6052750" lon="35.1336930">
    <ele>192.9</ele>
    <time>2014-02-21T08:15:36Z</time>
   </trkpt>
   <trkpt lat="32.6053380" lon="35.1336650">
    <ele>191.5</ele>
    <time>2014-02-21T08:15:37Z</time>
   </trkpt>
   <trkpt lat="32.6054100" lon="35.1336380">
    <ele>189.9</ele>
    <time>2014-02-21T08:15:38Z</time>
   </trkpt>
   <trkpt lat="32.6054810" lon="35.1336280">
    <ele>189.2</ele>
    <time>2014-02-21T08:15:39Z</time>
   </trkpt>
   <trkpt lat="32.6055490" lon="35.1336110">
    <ele>188.4</ele>
    <time>2014-02-21T08:15:40Z</time>
   </trkpt>
   <trkpt lat="32.6056290" lon="35.1335960">
    <ele>187.6</ele>
    <time>2014-02-21T08:15:41Z</time>
   </trkpt>
   <trkpt lat="32.6057040" lon="35.1335920">
    <ele>186.9</ele>
    <time>2014-02-21T08:15:42Z</time>
   </trkpt>
   <trkpt lat="32.6057870" lon="35.1335870">
    <ele>186.1</ele>
    <time>2014-02-21T08:15:43Z</time>
   </trkpt>
   <trkpt lat="32.6058390" lon="35.1336150">
    <ele>186.2</ele>
    <time>2014-02-21T08:15:44Z</time>
   </trkpt>
   <trkpt lat="32.6059020" lon="35.1336330">
    <ele>186.0</ele>
    <time>2014-02-21T08:15:45Z</time>
   </trkpt>
   <trkpt lat="32.6059780" lon="35.1336190">
    <ele>185.2</ele>
    <time>2014-02-21T08:15:46Z</time>
   </trkpt>
   <trkpt lat="32.6060410" lon="35.1335680">
    <ele>183.7</ele>
    <time>2014-02-21T08:15:47Z</time>
   </trkpt>
   <trkpt lat="32.6061040" lon="35.1335300">
    <ele>182.3</ele>
    <time>2014-02-21T08:15:48Z</time>
   </trkpt>
   <trkpt lat="32.6061630" lon="35.1335110">
    <ele>181.4</ele>
    <time>2014-02-21T08:15:49Z</time>
   </trkpt>
   <trkpt lat="32.6062180" lon="35.1335250">
    <ele>181.2</ele>
    <time>2014-02-21T08:15:50Z</time>
   </trkpt>
   <trkpt lat="32.6062750" lon="35.1335340">
    <ele>180.6</ele>
    <time>2014-02-21T08:15:51Z</time>
   </trkpt>
   <trkpt lat="32.6063200" lon="35.1335510">
    <ele>180.3</ele>
    <time>2014-02-21T08:15:52Z</time>
   </trkpt>
   <trkpt lat="32.6063650" lon="35.1335720">
    <ele>180.0</ele>
    <time>2014-02-21T08:15:53Z</time>
   </trkpt>
   <trkpt lat="32.6063890" lon="35.1335980">
    <ele>180.2</ele>
    <time>2014-02-21T08:15:54Z</time>
   </trkpt>
   <trkpt lat="32.6064100" lon="35.1336260">
    <ele>180.5</ele>
    <time>2014-02-21T08:15:55Z</time>
   </trkpt>
   <trkpt lat="32.6064150" lon="35.1336970">
    <ele>182.2</ele>
    <time>2014-02-21T08:15:57Z</time>
   </trkpt>
   <trkpt lat="32.6064380" lon="35.1337350">
    <ele>182.7</ele>
    <time>2014-02-21T08:15:58Z</time>
   </trkpt>
   <trkpt lat="32.6064740" lon="35.1337870">
    <ele>182.6</ele>
    <time>2014-02-21T08:15:59Z</time>
   </trkpt>
   <trkpt lat="32.6065140" lon="35.1338270">
    <ele>182.0</ele>
    <time>2014-02-21T08:16:00Z</time>
   </trkpt>
   <trkpt lat="32.6065400" lon="35.1338600">
    <ele>181.7</ele>
    <time>2014-02-21T08:16:01Z</time>
   </trkpt>
   <trkpt lat="32.6065730" lon="35.1339040">
    <ele>181.3</ele>
    <time>2014-02-21T08:16:03Z</time>
   </trkpt>
   <trkpt lat="32.6065770" lon="35.1339460">
    <ele>181.4</ele>
    <time>2014-02-21T08:16:04Z</time>
   </trkpt>
   <trkpt lat="32.6065830" lon="35.1339940">
    <ele>181.4</ele>
    <time>2014-02-21T08:16:05Z</time>
   </trkpt>
   <trkpt lat="32.6065890" lon="35.1340370">
    <ele>181.4</ele>
    <time>2014-02-21T08:16:06Z</time>
   </trkpt>
   <trkpt lat="32.6065890" lon="35.1340760">
    <ele>181.5</ele>
    <time>2014-02-21T08:16:07Z</time>
   </trkpt>
   <trkpt lat="32.6065830" lon="35.1341110">
    <ele>181.7</ele>
    <time>2014-02-21T08:16:08Z</time>
   </trkpt>
   <trkpt lat="32.6065660" lon="35.1341460">
    <ele>182.0</ele>
    <time>2014-02-21T08:16:09Z</time>
   </trkpt>
   <trkpt lat="32.6065500" lon="35.1341840">
    <ele>182.3</ele>
    <time>2014-02-21T08:16:10Z</time>
   </trkpt>
   <trkpt lat="32.6065430" lon="35.1342300">
    <ele>182.4</ele>
    <time>2014-02-21T08:16:11Z</time>
   </trkpt>
   <trkpt lat="32.6065460" lon="35.1342760">
    <ele>182.5</ele>
    <time>2014-02-21T08:16:12Z</time>
   </trkpt>
   <trkpt lat="32.6065570" lon="35.1343220">
    <ele>182.5</ele>
    <time>2014-02-21T08:16:13Z</time>
   </trkpt>
   <trkpt lat="32.6065710" lon="35.1343680">
    <ele>182.4</ele>
    <time>2014-02-21T08:16:14Z</time>
   </trkpt>
   <trkpt lat="32.6065900" lon="35.1344170">
    <ele>182.3</ele>
    <time>2014-02-21T08:16:15Z</time>
   </trkpt>
   <trkpt lat="32.6066190" lon="35.1344700">
    <ele>182.2</ele>
    <time>2014-02-21T08:16:16Z</time>
   </trkpt>
   <trkpt lat="32.6066490" lon="35.1345160">
    <ele>182.0</ele>
    <time>2014-02-21T08:16:17Z</time>
   </trkpt>
   <trkpt lat="32.6066760" lon="35.1345610">
    <ele>181.8</ele>
    <time>2014-02-21T08:16:18Z</time>
   </trkpt>
   <trkpt lat="32.6066900" lon="35.1346100">
    <ele>181.5</ele>
    <time>2014-02-21T08:16:19Z</time>
   </trkpt>
   <trkpt lat="32.6066760" lon="35.1346600">
    <ele>181.1</ele>
    <time>2014-02-21T08:16:20Z</time>
   </trkpt>
   <trkpt lat="32.6066480" lon="35.1346990">
    <ele>180.9</ele>
    <time>2014-02-21T08:16:21Z</time>
   </trkpt>
   <trkpt lat="32.6066180" lon="35.1347310">
    <ele>180.8</ele>
    <time>2014-02-21T08:16:22Z</time>
   </trkpt>
   <trkpt lat="32.6066020" lon="35.1347690">
    <ele>180.5</ele>
    <time>2014-02-21T08:16:23Z</time>
   </trkpt>
   <trkpt lat="32.6066000" lon="35.1348120">
    <ele>180.1</ele>
    <time>2014-02-21T08:16:24Z</time>
   </trkpt>
   <trkpt lat="32.6066040" lon="35.1348460">
    <ele>179.7</ele>
    <time>2014-02-21T08:16:25Z</time>
   </trkpt>
   <trkpt lat="32.6065860" lon="35.1348860">
    <ele>179.4</ele>
    <time>2014-02-21T08:16:26Z</time>
   </trkpt>
   <trkpt lat="32.6065430" lon="35.1349070">
    <ele>179.5</ele>
    <time>2014-02-21T08:16:27Z</time>
   </trkpt>
   <trkpt lat="32.6065200" lon="35.1349480">
    <ele>179.2</ele>
    <time>2014-02-21T08:16:28Z</time>
   </trkpt>
   <trkpt lat="32.6065000" lon="35.1349920">
    <ele>178.8</ele>
    <time>2014-02-21T08:16:29Z</time>
   </trkpt>
   <trkpt lat="32.6064810" lon="35.1350650">
    <ele>178.1</ele>
    <time>2014-02-21T08:16:30Z</time>
   </trkpt>
   <trkpt lat="32.6064790" lon="35.1351610">
    <ele>176.9</ele>
    <time>2014-02-21T08:16:31Z</time>
   </trkpt>
   <trkpt lat="32.6064840" lon="35.1352250">
    <ele>176.1</ele>
    <time>2014-02-21T08:16:32Z</time>
   </trkpt>
   <trkpt lat="32.6064270" lon="35.1352850">
    <ele>175.8</ele>
    <time>2014-02-21T08:16:33Z</time>
   </trkpt>
   <trkpt lat="32.6064000" lon="35.1353260">
    <ele>175.4</ele>
    <time>2014-02-21T08:16:34Z</time>
   </trkpt>
   <trkpt lat="32.6063820" lon="35.1353660">
    <ele>175.0</ele>
    <time>2014-02-21T08:16:35Z</time>
   </trkpt>
   <trkpt lat="32.6063710" lon="35.1354190">
    <ele>174.4</ele>
    <time>2014-02-21T08:16:36Z</time>
   </trkpt>
   <trkpt lat="32.6063920" lon="35.1354770">
    <ele>173.8</ele>
    <time>2014-02-21T08:16:37Z</time>
   </trkpt>
   <trkpt lat="32.6064120" lon="35.1355400">
    <ele>173.1</ele>
    <time>2014-02-21T08:16:38Z</time>
   </trkpt>
   <trkpt lat="32.6064440" lon="35.1356000">
    <ele>172.4</ele>
    <time>2014-02-21T08:16:39Z</time>
   </trkpt>
   <trkpt lat="32.6064660" lon="35.1355800">
    <ele>172.5</ele>
    <time>2014-02-21T08:16:40Z</time>
   </trkpt>
   <trkpt lat="32.6064940" lon="35.1355920">
    <ele>172.2</ele>
    <time>2014-02-21T08:16:42Z</time>
   </trkpt>
   <trkpt lat="32.6064800" lon="35.1356250">
    <ele>172.0</ele>
    <time>2014-02-21T08:16:48Z</time>
   </trkpt>
   <trkpt lat="32.6065050" lon="35.1356120">
    <ele>172.0</ele>
    <time>2014-02-21T08:16:56Z</time>
   </trkpt>
   <trkpt lat="32.6064790" lon="35.1356240">
    <ele>172.0</ele>
    <time>2014-02-21T08:20:32Z</time>
   </trkpt>
   <trkpt lat="32.6065190" lon="35.1356580">
    <ele>171.5</ele>
    <time>2014-02-21T08:20:48Z</time>
   </trkpt>
   <trkpt lat="32.6065450" lon="35.1356730">
    <ele>171.2</ele>
    <time>2014-02-21T08:20:49Z</time>
   </trkpt>
   <trkpt lat="32.6065770" lon="35.1356900">
    <ele>170.9</ele>
    <time>2014-02-21T08:20:51Z</time>
   </trkpt>
   <trkpt lat="32.6066150" lon="35.1357140">
    <ele>170.4</ele>
    <time>2014-02-21T08:20:54Z</time>
   </trkpt>
   <trkpt lat="32.6066450" lon="35.1357320">
    <ele>170.1</ele>
    <time>2014-02-21T08:20:56Z</time>
   </trkpt>
   <trkpt lat="32.6066840" lon="35.1357360">
    <ele>169.8</ele>
    <time>2014-02-21T08:20:58Z</time>
   </trkpt>
   <trkpt lat="32.6067200" lon="35.1357210">
    <ele>169.8</ele>
    <time>2014-02-21T08:21:00Z</time>
   </trkpt>
   <trkpt lat="32.6067470" lon="35.1357010">
    <ele>169.8</ele>
    <time>2014-02-21T08:21:02Z</time>
   </trkpt>
   <trkpt lat="32.6067640" lon="35.1356730">
    <ele>170.0</ele>
    <time>2014-02-21T08:21:04Z</time>
   </trkpt>
   <trkpt lat="32.6067860" lon="35.1356480">
    <ele>170.1</ele>
    <time>2014-02-21T08:21:06Z</time>
   </trkpt>
   <trkpt lat="32.6068220" lon="35.1356240">
    <ele>170.2</ele>
    <time>2014-02-21T08:21:08Z</time>
   </trkpt>
   <trkpt lat="32.6068460" lon="35.1356020">
    <ele>170.3</ele>
    <time>2014-02-21T08:21:09Z</time>
   </trkpt>
   <trkpt lat="32.6068830" lon="35.1355570">
    <ele>170.5</ele>
    <time>2014-02-21T08:21:11Z</time>
   </trkpt>
   <trkpt lat="32.6069030" lon="35.1355350">
    <ele>170.6</ele>
    <time>2014-02-21T08:21:12Z</time>
   </trkpt>
   <trkpt lat="32.6069400" lon="35.1354970">
    <ele>170.9</ele>
    <time>2014-02-21T08:21:14Z</time>
   </trkpt>
   <trkpt lat="32.6069740" lon="35.1354540">
    <ele>171.1</ele>
    <time>2014-02-21T08:21:16Z</time>
   </trkpt>
   <trkpt lat="32.6070100" lon="35.1354140">
    <ele>171.4</ele>
    <time>2014-02-21T08:21:18Z</time>
   </trkpt>
   <trkpt lat="32.6070430" lon="35.1353710">
    <ele>171.6</ele>
    <time>2014-02-21T08:21:20Z</time>
   </trkpt>
   <trkpt lat="32.6070820" lon="35.1353310">
    <ele>171.7</ele>
    <time>2014-02-21T08:21:22Z</time>
   </trkpt>
   <trkpt lat="32.6071050" lon="35.1353110">
    <ele>171.6</ele>
    <time>2014-02-21T08:21:23Z</time>
   </trkpt>
   <trkpt lat="32.6071280" lon="35.1352920">
    <ele>171.5</ele>
    <time>2014-02-21T08:21:24Z</time>
   </trkpt>
   <trkpt lat="32.6071540" lon="35.1352730">
    <ele>171.3</ele>
    <time>2014-02-21T08:21:25Z</time>
   </trkpt>
   <trkpt lat="32.6071800" lon="35.1352520">
    <ele>171.1</ele>
    <time>2014-02-21T08:21:26Z</time>
   </trkpt>
   <trkpt lat="32.6072060" lon="35.1352290">
    <ele>170.9</ele>
    <time>2014-02-21T08:21:27Z</time>
   </trkpt>
   <trkpt lat="32.6072440" lon="35.1351890">
    <ele>170.7</ele>
    <time>2014-02-21T08:21:29Z</time>
   </trkpt>
   <trkpt lat="32.6072640" lon="35.1351670">
    <ele>170.5</ele>
    <time>2014-02-21T08:21:30Z</time>
   </trkpt>
   <trkpt lat="32.6073050" lon="35.1351250">
    <ele>170.1</ele>
    <time>2014-02-21T08:21:32Z</time>
   </trkpt>
   <trkpt lat="32.6073300" lon="35.1351080">
    <ele>169.8</ele>
    <time>2014-02-21T08:21:33Z</time>
   </trkpt>
   <trkpt lat="32.6073520" lon="35.1350860">
    <ele>169.6</ele>
    <time>2014-02-21T08:21:34Z</time>
   </trkpt>
   <trkpt lat="32.6073710" lon="35.1350610">
    <ele>169.4</ele>
    <time>2014-02-21T08:21:35Z</time>
   </trkpt>
   <trkpt lat="32.6073970" lon="35.1350230">
    <ele>169.1</ele>
    <time>2014-02-21T08:21:37Z</time>
   </trkpt>
   <trkpt lat="32.6073700" lon="35.1350070">
    <ele>169.7</ele>
    <time>2014-02-21T08:21:42Z</time>
   </trkpt>
   <trkpt lat="32.6074020" lon="35.1350050">
    <ele>169.1</ele>
    <time>2014-02-21T08:21:57Z</time>
   </trkpt>
   <trkpt lat="32.6074300" lon="35.1350110">
    <ele>168.6</ele>
    <time>2014-02-21T08:22:00Z</time>
   </trkpt>
   <trkpt lat="32.6074620" lon="35.1350160">
    <ele>168.1</ele>
    <time>2014-02-21T08:22:04Z</time>
   </trkpt>
   <trkpt lat="32.6074910" lon="35.1350060">
    <ele>167.6</ele>
    <time>2014-02-21T08:22:07Z</time>
   </trkpt>
   <trkpt lat="32.6075220" lon="35.1350110">
    <ele>167.1</ele>
    <time>2014-02-21T08:22:10Z</time>
   </trkpt>
   <trkpt lat="32.6075490" lon="35.1350110">
    <ele>166.7</ele>
    <time>2014-02-21T08:22:14Z</time>
   </trkpt>
   <trkpt lat="32.6074330" lon="35.1349280">
    <ele>168.9</ele>
    <time>2014-02-21T08:22:59Z</time>
   </trkpt>
   <trkpt lat="32.6074060" lon="35.1349010">
    <ele>169.5</ele>
    <time>2014-02-21T08:23:02Z</time>
   </trkpt>
   <trkpt lat="32.6073890" lon="35.1348700">
    <ele>169.9</ele>
    <time>2014-02-21T08:23:05Z</time>
   </trkpt>
   <trkpt lat="32.6073600" lon="35.1348610">
    <ele>170.5</ele>
    <time>2014-02-21T08:23:18Z</time>
   </trkpt>
   <trkpt lat="32.6073350" lon="35.1348450">
    <ele>171.0</ele>
    <time>2014-02-21T08:23:34Z</time>
   </trkpt>
   <trkpt lat="32.6073160" lon="35.1348200">
    <ele>171.5</ele>
    <time>2014-02-21T08:23:39Z</time>
   </trkpt>
   <trkpt lat="32.6072890" lon="35.1348080">
    <ele>172.1</ele>
    <time>2014-02-21T08:23:44Z</time>
   </trkpt>
   <trkpt lat="32.6072400" lon="35.1347880">
    <ele>173.2</ele>
    <time>2014-02-21T08:23:46Z</time>
   </trkpt>
   <trkpt lat="32.6071890" lon="35.1347700">
    <ele>174.3</ele>
    <time>2014-02-21T08:23:48Z</time>
   </trkpt>
   <trkpt lat="32.6071630" lon="35.1347620">
    <ele>174.9</ele>
    <time>2014-02-21T08:23:49Z</time>
   </trkpt>
   <trkpt lat="32.6071370" lon="35.1347510">
    <ele>175.5</ele>
    <time>2014-02-21T08:23:50Z</time>
   </trkpt>
   <trkpt lat="32.6071120" lon="35.1347360">
    <ele>176.1</ele>
    <time>2014-02-21T08:23:51Z</time>
   </trkpt>
   <trkpt lat="32.6070880" lon="35.1347170">
    <ele>176.8</ele>
    <time>2014-02-21T08:23:52Z</time>
   </trkpt>
   <trkpt lat="32.6070650" lon="35.1347000">
    <ele>177.2</ele>
    <time>2014-02-21T08:23:53Z</time>
   </trkpt>
   <trkpt lat="32.6070310" lon="35.1346670">
    <ele>177.8</ele>
    <time>2014-02-21T08:23:55Z</time>
   </trkpt>
   <trkpt lat="32.6070290" lon="35.1346320">
    <ele>178.1</ele>
    <time>2014-02-21T08:23:58Z</time>
   </trkpt>
   <trkpt lat="32.6070560" lon="35.1346100">
    <ele>178.0</ele>
    <time>2014-02-21T08:24:02Z</time>
   </trkpt>
   <trkpt lat="32.6070530" lon="35.1345710">
    <ele>178.2</ele>
    <time>2014-02-21T08:24:07Z</time>
   </trkpt>
   <trkpt lat="32.6070600" lon="35.1345310">
    <ele>177.9</ele>
    <time>2014-02-21T08:24:11Z</time>
   </trkpt>
   <trkpt lat="32.6070690" lon="35.1344990">
    <ele>177.6</ele>
    <time>2014-02-21T08:24:14Z</time>
   </trkpt>
   <trkpt lat="32.6070610" lon="35.1344570">
    <ele>177.5</ele>
    <time>2014-02-21T08:24:18Z</time>
   </trkpt>
   <trkpt lat="32.6070530" lon="35.1344130">
    <ele>177.3</ele>
    <time>2014-02-21T08:24:21Z</time>
   </trkpt>
   <trkpt lat="32.6070390" lon="35.1343710">
    <ele>177.2</ele>
    <time>2014-02-21T08:24:24Z</time>
   </trkpt>
   <trkpt lat="32.6070270" lon="35.1343300">
    <ele>177.1</ele>
    <time>2014-02-21T08:24:26Z</time>
   </trkpt>
   <trkpt lat="32.6070090" lon="35.1342900">
    <ele>177.1</ele>
    <time>2014-02-21T08:24:28Z</time>
   </trkpt>
   <trkpt lat="32.6069880" lon="35.1342520">
    <ele>177.2</ele>
    <time>2014-02-21T08:24:30Z</time>
   </trkpt>
   <trkpt lat="32.6069680" lon="35.1342130">
    <ele>177.2</ele>
    <time>2014-02-21T08:24:32Z</time>
   </trkpt>
   <trkpt lat="32.6069560" lon="35.1341700">
    <ele>177.1</ele>
    <time>2014-02-21T08:24:34Z</time>
   </trkpt>
   <trkpt lat="32.6069470" lon="35.1341310">
    <ele>177.0</ele>
    <time>2014-02-21T08:24:36Z</time>
   </trkpt>
   <trkpt lat="32.6069350" lon="35.1340870">
    <ele>177.0</ele>
    <time>2014-02-21T08:24:39Z</time>
   </trkpt>
   <trkpt lat="32.6069180" lon="35.1340420">
    <ele>177.0</ele>
    <time>2014-02-21T08:24:42Z</time>
   </trkpt>
   <trkpt lat="32.6068960" lon="35.1340100">
    <ele>177.1</ele>
    <time>2014-02-21T08:24:44Z</time>
   </trkpt>
   <trkpt lat="32.6068820" lon="35.1339690">
    <ele>177.1</ele>
    <time>2014-02-21T08:24:46Z</time>
   </trkpt>
   <trkpt lat="32.6068650" lon="35.1339210">
    <ele>177.2</ele>
    <time>2014-02-21T08:24:48Z</time>
   </trkpt>
   <trkpt lat="32.6068450" lon="35.1338700">
    <ele>177.2</ele>
    <time>2014-02-21T08:24:50Z</time>
   </trkpt>
   <trkpt lat="32.6068240" lon="35.1338260">
    <ele>177.4</ele>
    <time>2014-02-21T08:24:52Z</time>
   </trkpt>
   <trkpt lat="32.6068020" lon="35.1337890">
    <ele>177.5</ele>
    <time>2014-02-21T08:24:54Z</time>
   </trkpt>
   <trkpt lat="32.6067670" lon="35.1337590">
    <ele>178.0</ele>
    <time>2014-02-21T08:24:56Z</time>
   </trkpt>
   <trkpt lat="32.6067230" lon="35.1337380">
    <ele>178.3</ele>
    <time>2014-02-21T08:24:58Z</time>
   </trkpt>
   <trkpt lat="32.6066850" lon="35.1337180">
    <ele>178.4</ele>
    <time>2014-02-21T08:25:00Z</time>
   </trkpt>
   <trkpt lat="32.6066530" lon="35.1336940">
    <ele>178.3</ele>
    <time>2014-02-21T08:25:02Z</time>
   </trkpt>
   <trkpt lat="32.6066220" lon="35.1336590">
    <ele>177.9</ele>
    <time>2014-02-21T08:25:04Z</time>
   </trkpt>
   <trkpt lat="32.6065930" lon="35.1336240">
    <ele>177.5</ele>
    <time>2014-02-21T08:25:06Z</time>
   </trkpt>
   <trkpt lat="32.6065600" lon="35.1336000">
    <ele>177.4</ele>
    <time>2014-02-21T08:25:08Z</time>
   </trkpt>
   <trkpt lat="32.6065230" lon="35.1335770">
    <ele>177.5</ele>
    <time>2014-02-21T08:25:10Z</time>
   </trkpt>
   <trkpt lat="32.6064880" lon="35.1335490">
    <ele>177.4</ele>
    <time>2014-02-21T08:25:12Z</time>
   </trkpt>
   <trkpt lat="32.6064540" lon="35.1335200">
    <ele>177.2</ele>
    <time>2014-02-21T08:25:14Z</time>
   </trkpt>
   <trkpt lat="32.6064190" lon="35.1335000">
    <ele>177.4</ele>
    <time>2014-02-21T08:25:16Z</time>
   </trkpt>
   <trkpt lat="32.6063800" lon="35.1334890">
    <ele>177.8</ele>
    <time>2014-02-21T08:25:18Z</time>
   </trkpt>
   <trkpt lat="32.6063410" lon="35.1334780">
    <ele>178.2</ele>
    <time>2014-02-21T08:25:20Z</time>
   </trkpt>
   <trkpt lat="32.6063030" lon="35.1334740">
    <ele>178.8</ele>
    <time>2014-02-21T08:25:22Z</time>
   </trkpt>
   <trkpt lat="32.6062690" lon="35.1334730">
    <ele>179.4</ele>
    <time>2014-02-21T08:25:24Z</time>
   </trkpt>
   <trkpt lat="32.6062320" lon="35.1334620">
    <ele>179.6</ele>
    <time>2014-02-21T08:25:26Z</time>
   </trkpt>
   <trkpt lat="32.6061980" lon="35.1334420">
    <ele>179.5</ele>
    <time>2014-02-21T08:25:28Z</time>
   </trkpt>
   <trkpt lat="32.6061650" lon="35.1334220">
    <ele>179.4</ele>
    <time>2014-02-21T08:25:30Z</time>
   </trkpt>
   <trkpt lat="32.6061400" lon="35.1333950">
    <ele>179.1</ele>
    <time>2014-02-21T08:25:32Z</time>
   </trkpt>
   <trkpt lat="32.6061210" lon="35.1333650">
    <ele>178.7</ele>
    <time>2014-02-21T08:25:34Z</time>
   </trkpt>
   <trkpt lat="32.6061040" lon="35.1333380">
    <ele>178.3</ele>
    <time>2014-02-21T08:25:37Z</time>
   </trkpt>
   <trkpt lat="32.6060760" lon="35.1333180">
    <ele>178.3</ele>
    <time>2014-02-21T08:25:41Z</time>
   </trkpt>
   <trkpt lat="32.6060500" lon="35.1333000">
    <ele>178.2</ele>
    <time>2014-02-21T08:25:44Z</time>
   </trkpt>
   <trkpt lat="32.6060220" lon="35.1332760">
    <ele>178.1</ele>
    <time>2014-02-21T08:25:48Z</time>
   </trkpt>
   <trkpt lat="32.6059910" lon="35.1332590">
    <ele>178.2</ele>
    <time>2014-02-21T08:25:52Z</time>
   </trkpt>
   <trkpt lat="32.6059600" lon="35.1332410">
    <ele>178.3</ele>
    <time>2014-02-21T08:25:56Z</time>
   </trkpt>
   <trkpt lat="32.6059260" lon="35.1332280">
    <ele>178.5</ele>
    <time>2014-02-21T08:26:00Z</time>
   </trkpt>
   <trkpt lat="32.6058860" lon="35.1332060">
    <ele>178.6</ele>
    <time>2014-02-21T08:26:02Z</time>
   </trkpt>
   <trkpt lat="32.6058570" lon="35.1331880">
    <ele>178.7</ele>
    <time>2014-02-21T08:26:03Z</time>
   </trkpt>
   <trkpt lat="32.6058220" lon="35.1331670">
    <ele>178.9</ele>
    <time>2014-02-21T08:26:04Z</time>
   </trkpt>
   <trkpt lat="32.6057830" lon="35.1331420">
    <ele>179.0</ele>
    <time>2014-02-21T08:26:05Z</time>
   </trkpt>
   <trkpt lat="32.6057390" lon="35.1331150">
    <ele>179.3</ele>
    <time>2014-02-21T08:26:06Z</time>
   </trkpt>
   <trkpt lat="32.6056820" lon="35.1330780">
    <ele>179.6</ele>
    <time>2014-02-21T08:26:07Z</time>
   </trkpt>
   <trkpt lat="32.6056380" lon="35.1330440">
    <ele>179.8</ele>
    <time>2014-02-21T08:26:08Z</time>
   </trkpt>
   <trkpt lat="32.6055760" lon="35.1330150">
    <ele>180.4</ele>
    <time>2014-02-21T08:26:09Z</time>
   </trkpt>
   <trkpt lat="32.6055210" lon="35.1329940">
    <ele>181.1</ele>
    <time>2014-02-21T08:26:10Z</time>
   </trkpt>
   <trkpt lat="32.6054700" lon="35.1329740">
    <ele>181.7</ele>
    <time>2014-02-21T08:26:11Z</time>
   </trkpt>
   <trkpt lat="32.6054160" lon="35.1329490">
    <ele>182.4</ele>
    <time>2014-02-21T08:26:12Z</time>
   </trkpt>
   <trkpt lat="32.6053670" lon="35.1329140">
    <ele>183.5</ele>
    <time>2014-02-21T08:26:13Z</time>
   </trkpt>
   <trkpt lat="32.6053210" lon="35.1328800">
    <ele>185.2</ele>
    <time>2014-02-21T08:26:14Z</time>
   </trkpt>
   <trkpt lat="32.6052560" lon="35.1328530">
    <ele>187.4</ele>
    <time>2014-02-21T08:26:15Z</time>
   </trkpt>
   <trkpt lat="32.6051980" lon="35.1328230">
    <ele>189.4</ele>
    <time>2014-02-21T08:26:16Z</time>
   </trkpt>
   <trkpt lat="32.6051470" lon="35.1327980">
    <ele>191.1</ele>
    <time>2014-02-21T08:26:17Z</time>
   </trkpt>
   <trkpt lat="32.6050940" lon="35.1327630">
    <ele>193.0</ele>
    <time>2014-02-21T08:26:18Z</time>
   </trkpt>
   <trkpt lat="32.6050320" lon="35.1327340">
    <ele>195.2</ele>
    <time>2014-02-21T08:26:19Z</time>
   </trkpt>
   <trkpt lat="32.6049830" lon="35.1327060">
    <ele>196.9</ele>
    <time>2014-02-21T08:26:20Z</time>
   </trkpt>
   <trkpt lat="32.6049280" lon="35.1327020">
    <ele>198.6</ele>
    <time>2014-02-21T08:26:21Z</time>
   </trkpt>
   <trkpt lat="32.6048830" lon="35.1326830">
    <ele>200.2</ele>
    <time>2014-02-21T08:26:22Z</time>
   </trkpt>
   <trkpt lat="32.6048590" lon="35.1326580">
    <ele>201.1</ele>
    <time>2014-02-21T08:26:23Z</time>
   </trkpt>
   <trkpt lat="32.6048410" lon="35.1326260">
    <ele>202.0</ele>
    <time>2014-02-21T08:26:24Z</time>
   </trkpt>
   <trkpt lat="32.6048190" lon="35.1325990">
    <ele>202.9</ele>
    <time>2014-02-21T08:26:26Z</time>
   </trkpt>
   <trkpt lat="32.6047910" lon="35.1325700">
    <ele>204.0</ele>
    <time>2014-02-21T08:26:31Z</time>
   </trkpt>
   <trkpt lat="32.6048210" lon="35.1325550">
    <ele>203.2</ele>
    <time>2014-02-21T08:26:50Z</time>
   </trkpt>
   <trkpt lat="32.6048450" lon="35.1325270">
    <ele>202.7</ele>
    <time>2014-02-21T08:26:52Z</time>
   </trkpt>
   <trkpt lat="32.6048620" lon="35.1324950">
    <ele>202.5</ele>
    <time>2014-02-21T08:26:53Z</time>
   </trkpt>
   <trkpt lat="32.6048960" lon="35.1324490">
    <ele>201.9</ele>
    <time>2014-02-21T08:26:54Z</time>
   </trkpt>
   <trkpt lat="32.6049420" lon="35.1324120">
    <ele>200.8</ele>
    <time>2014-02-21T08:26:55Z</time>
   </trkpt>
   <trkpt lat="32.6049670" lon="35.1323890">
    <ele>200.3</ele>
    <time>2014-02-21T08:26:56Z</time>
   </trkpt>
   <trkpt lat="32.6049990" lon="35.1323960">
    <ele>199.2</ele>
    <time>2014-02-21T08:26:57Z</time>
   </trkpt>
   <trkpt lat="32.6050350" lon="35.1323940">
    <ele>198.1</ele>
    <time>2014-02-21T08:26:58Z</time>
   </trkpt>
   <trkpt lat="32.6050700" lon="35.1324150">
    <ele>196.9</ele>
    <time>2014-02-21T08:26:59Z</time>
   </trkpt>
   <trkpt lat="32.6051200" lon="35.1324230">
    <ele>195.3</ele>
    <time>2014-02-21T08:27:00Z</time>
   </trkpt>
   <trkpt lat="32.6051690" lon="35.1324320">
    <ele>193.7</ele>
    <time>2014-02-21T08:27:01Z</time>
   </trkpt>
   <trkpt lat="32.6052270" lon="35.1324250">
    <ele>192.0</ele>
    <time>2014-02-21T08:27:02Z</time>
   </trkpt>
   <trkpt lat="32.6052950" lon="35.1323980">
    <ele>190.1</ele>
    <time>2014-02-21T08:27:03Z</time>
   </trkpt>
   <trkpt lat="32.6053630" lon="35.1323720">
    <ele>188.2</ele>
    <time>2014-02-21T08:27:04Z</time>
   </trkpt>
   <trkpt lat="32.6054310" lon="35.1323400">
    <ele>186.4</ele>
    <time>2014-02-21T08:27:05Z</time>
   </trkpt>
   <trkpt lat="32.6054880" lon="35.1323020">
    <ele>185.0</ele>
    <time>2014-02-21T08:27:06Z</time>
   </trkpt>
   <trkpt lat="32.6055520" lon="35.1322500">
    <ele>183.3</ele>
    <time>2014-02-21T08:27:07Z</time>
   </trkpt>
   <trkpt lat="32.6056180" lon="35.1322120">
    <ele>181.4</ele>
    <time>2014-02-21T08:27:08Z</time>
   </trkpt>
   <trkpt lat="32.6056880" lon="35.1322120">
    <ele>179.2</ele>
    <time>2014-02-21T08:27:09Z</time>
   </trkpt>
   <trkpt lat="32.6057610" lon="35.1321740">
    <ele>176.9</ele>
    <time>2014-02-21T08:27:10Z</time>
   </trkpt>
   <trkpt lat="32.6058420" lon="35.1321430">
    <ele>174.2</ele>
    <time>2014-02-21T08:27:11Z</time>
   </trkpt>
   <trkpt lat="32.6059340" lon="35.1320870">
    <ele>171.0</ele>
    <time>2014-02-21T08:27:12Z</time>
   </trkpt>
   <trkpt lat="32.6060050" lon="35.1320450">
    <ele>168.7</ele>
    <time>2014-02-21T08:27:13Z</time>
   </trkpt>
   <trkpt lat="32.6060800" lon="35.1320260">
    <ele>166.2</ele>
    <time>2014-02-21T08:27:14Z</time>
   </trkpt>
   <trkpt lat="32.6061420" lon="35.1319940">
    <ele>164.2</ele>
    <time>2014-02-21T08:27:15Z</time>
   </trkpt>
   <trkpt lat="32.6062050" lon="35.1319430">
    <ele>162.3</ele>
    <time>2014-02-21T08:27:16Z</time>
   </trkpt>
   <trkpt lat="32.6062470" lon="35.1319750">
    <ele>160.6</ele>
    <time>2014-02-21T08:27:17Z</time>
   </trkpt>
   <trkpt lat="32.6063090" lon="35.1319530">
    <ele>159.2</ele>
    <time>2014-02-21T08:27:18Z</time>
   </trkpt>
   <trkpt lat="32.6063640" lon="35.1319130">
    <ele>158.1</ele>
    <time>2014-02-21T08:27:19Z</time>
   </trkpt>
   <trkpt lat="32.6064210" lon="35.1318980">
    <ele>156.8</ele>
    <time>2014-02-21T08:27:20Z</time>
   </trkpt>
   <trkpt lat="32.6064520" lon="35.1318880">
    <ele>156.1</ele>
    <time>2014-02-21T08:27:21Z</time>
   </trkpt>
   <trkpt lat="32.6064840" lon="35.1318650">
    <ele>155.4</ele>
    <time>2014-02-21T08:27:22Z</time>
   </trkpt>
   <trkpt lat="32.6064840" lon="35.1318280">
    <ele>155.6</ele>
    <time>2014-02-21T08:27:23Z</time>
   </trkpt>
   <trkpt lat="32.6064710" lon="35.1317800">
    <ele>156.2</ele>
    <time>2014-02-21T08:27:25Z</time>
   </trkpt>
   <trkpt lat="32.6064420" lon="35.1317880">
    <ele>156.8</ele>
    <time>2014-02-21T08:27:29Z</time>
   </trkpt>
   <trkpt lat="32.6064240" lon="35.1318150">
    <ele>157.1</ele>
    <time>2014-02-21T08:27:33Z</time>
   </trkpt>
   <trkpt lat="32.6064460" lon="35.1318430">
    <ele>156.4</ele>
    <time>2014-02-21T08:27:45Z</time>
   </trkpt>
   <trkpt lat="32.6064640" lon="35.1318670">
    <ele>155.9</ele>
    <time>2014-02-21T08:28:05Z</time>
   </trkpt>
   <trkpt lat="32.6064700" lon="35.1319050">
    <ele>155.6</ele>
    <time>2014-02-21T08:28:33Z</time>
   </trkpt>
   <trkpt lat="32.6065020" lon="35.1319610">
    <ele>154.5</ele>
    <time>2014-02-21T08:28:35Z</time>
   </trkpt>
   <trkpt lat="32.6065250" lon="35.1319870">
    <ele>153.9</ele>
    <time>2014-02-21T08:28:36Z</time>
   </trkpt>
   <trkpt lat="32.6065550" lon="35.1320110">
    <ele>153.0</ele>
    <time>2014-02-21T08:28:37Z</time>
   </trkpt>
   <trkpt lat="32.6065870" lon="35.1320330">
    <ele>152.2</ele>
    <time>2014-02-21T08:28:38Z</time>
   </trkpt>
   <trkpt lat="32.6066180" lon="35.1320550">
    <ele>151.3</ele>
    <time>2014-02-21T08:28:39Z</time>
   </trkpt>
   <trkpt lat="32.6066470" lon="35.1320800">
    <ele>150.5</ele>
    <time>2014-02-21T08:28:40Z</time>
   </trkpt>
   <trkpt lat="32.6066770" lon="35.1321110">
    <ele>150.0</ele>
    <time>2014-02-21T08:28:41Z</time>
   </trkpt>
   <trkpt lat="32.6067140" lon="35.1321490">
    <ele>149.5</ele>
    <time>2014-02-21T08:28:42Z</time>
   </trkpt>
   <trkpt lat="32.6068100" lon="35.1322580">
    <ele>148.3</ele>
    <time>2014-02-21T08:28:43Z</time>
   </trkpt>
   <trkpt lat="32.6068630" lon="35.1323160">
    <ele>147.7</ele>
    <time>2014-02-21T08:28:44Z</time>
   </trkpt>
   <trkpt lat="32.6069200" lon="35.1323760">
    <ele>146.9</ele>
    <time>2014-02-21T08:28:45Z</time>
   </trkpt>
   <trkpt lat="32.6069810" lon="35.1324450">
    <ele>146.3</ele>
    <time>2014-02-21T08:28:46Z</time>
   </trkpt>
   <trkpt lat="32.6070530" lon="35.1324980">
    <ele>145.2</ele>
    <time>2014-02-21T08:28:47Z</time>
   </trkpt>
   <trkpt lat="32.6071130" lon="35.1325660">
    <ele>145.2</ele>
    <time>2014-02-21T08:28:48Z</time>
   </trkpt>
   <trkpt lat="32.6071750" lon="35.1326330">
    <ele>145.7</ele>
    <time>2014-02-21T08:28:49Z</time>
   </trkpt>
   <trkpt lat="32.6072390" lon="35.1326990">
    <ele>145.9</ele>
    <time>2014-02-21T08:28:50Z</time>
   </trkpt>
   <trkpt lat="32.6073040" lon="35.1327670">
    <ele>145.8</ele>
    <time>2014-02-21T08:28:51Z</time>
   </trkpt>
   <trkpt lat="32.6073720" lon="35.1328360">
    <ele>145.4</ele>
    <time>2014-02-21T08:28:52Z</time>
   </trkpt>
   <trkpt lat="32.6074460" lon="35.1329040">
    <ele>144.7</ele>
    <time>2014-02-21T08:28:53Z</time>
   </trkpt>
   <trkpt lat="32.6075250" lon="35.1329600">
    <ele>144.5</ele>
    <time>2014-02-21T08:28:54Z</time>
   </trkpt>
   <trkpt lat="32.6076040" lon="35.1330120">
    <ele>144.2</ele>
    <time>2014-02-21T08:28:55Z</time>
   </trkpt>
   <trkpt lat="32.6076710" lon="35.1330680">
    <ele>144.0</ele>
    <time>2014-02-21T08:28:56Z</time>
   </trkpt>
   <trkpt lat="32.6077370" lon="35.1331310">
    <ele>143.7</ele>
    <time>2014-02-21T08:28:57Z</time>
   </trkpt>
   <trkpt lat="32.6077840" lon="35.1331930">
    <ele>143.5</ele>
    <time>2014-02-21T08:28:58Z</time>
   </trkpt>
   <trkpt lat="32.6078420" lon="35.1332460">
    <ele>142.9</ele>
    <time>2014-02-21T08:28:59Z</time>
   </trkpt>
   <trkpt lat="32.6078920" lon="35.1333040">
    <ele>142.3</ele>
    <time>2014-02-21T08:29:00Z</time>
   </trkpt>
   <trkpt lat="32.6079420" lon="35.1333620">
    <ele>142.3</ele>
    <time>2014-02-21T08:29:01Z</time>
   </trkpt>
   <trkpt lat="32.6079750" lon="35.1334490">
    <ele>142.8</ele>
    <time>2014-02-21T08:29:02Z</time>
   </trkpt>
   <trkpt lat="32.6080270" lon="35.1335010">
    <ele>143.0</ele>
    <time>2014-02-21T08:29:03Z</time>
   </trkpt>
   <trkpt lat="32.6080860" lon="35.1335660">
    <ele>143.0</ele>
    <time>2014-02-21T08:29:04Z</time>
   </trkpt>
   <trkpt lat="32.6081350" lon="35.1336360">
    <ele>142.7</ele>
    <time>2014-02-21T08:29:05Z</time>
   </trkpt>
   <trkpt lat="32.6081600" lon="35.1337130">
    <ele>142.4</ele>
    <time>2014-02-21T08:29:06Z</time>
   </trkpt>
   <trkpt lat="32.6081880" lon="35.1337760">
    <ele>142.3</ele>
    <time>2014-02-21T08:29:07Z</time>
   </trkpt>
   <trkpt lat="32.6082220" lon="35.1338300">
    <ele>142.4</ele>
    <time>2014-02-21T08:29:08Z</time>
   </trkpt>
   <trkpt lat="32.6082560" lon="35.1339010">
    <ele>142.5</ele>
    <time>2014-02-21T08:29:09Z</time>
   </trkpt>
   <trkpt lat="32.6082740" lon="35.1339830">
    <ele>142.9</ele>
    <time>2014-02-21T08:29:10Z</time>
   </trkpt>
   <trkpt lat="32.6083190" lon="35.1340370">
    <ele>142.5</ele>
    <time>2014-02-21T08:29:11Z</time>
   </trkpt>
   <trkpt lat="32.6083560" lon="35.1341020">
    <ele>142.2</ele>
    <time>2014-02-21T08:29:12Z</time>
   </trkpt>
   <trkpt lat="32.6083990" lon="35.1341650">
    <ele>141.6</ele>
    <time>2014-02-21T08:29:13Z</time>
   </trkpt>
   <trkpt lat="32.6084300" lon="35.1342400">
    <ele>141.2</ele>
    <time>2014-02-21T08:29:14Z</time>
   </trkpt>
   <trkpt lat="32.6084520" lon="35.1343250">
    <ele>140.9</ele>
    <time>2014-02-21T08:29:15Z</time>
   </trkpt>
   <trkpt lat="32.6084940" lon="35.1344000">
    <ele>140.0</ele>
    <time>2014-02-21T08:29:16Z</time>
   </trkpt>
   <trkpt lat="32.6085220" lon="35.1344680">
    <ele>139.3</ele>
    <time>2014-02-21T08:29:17Z</time>
   </trkpt>
   <trkpt lat="32.6085450" lon="35.1345390">
    <ele>138.6</ele>
    <time>2014-02-21T08:29:18Z</time>
   </trkpt>
   <trkpt lat="32.6085340" lon="35.1346230">
    <ele>139.1</ele>
    <time>2014-02-21T08:29:19Z</time>
   </trkpt>
   <trkpt lat="32.6085360" lon="35.1347040">
    <ele>139.3</ele>
    <time>2014-02-21T08:29:20Z</time>
   </trkpt>
   <trkpt lat="32.6085320" lon="35.1347750">
    <ele>139.6</ele>
    <time>2014-02-21T08:29:21Z</time>
   </trkpt>
   <trkpt lat="32.6085000" lon="35.1348490">
    <ele>140.8</ele>
    <time>2014-02-21T08:29:22Z</time>
   </trkpt>
   <trkpt lat="32.6084650" lon="35.1349130">
    <ele>142.2</ele>
    <time>2014-02-21T08:29:23Z</time>
   </trkpt>
   <trkpt lat="32.6084550" lon="35.1349740">
    <ele>142.7</ele>
    <time>2014-02-21T08:29:24Z</time>
   </trkpt>
   <trkpt lat="32.6084380" lon="35.1350460">
    <ele>143.4</ele>
    <time>2014-02-21T08:29:25Z</time>
   </trkpt>
   <trkpt lat="32.6084110" lon="35.1351120">
    <ele>144.5</ele>
    <time>2014-02-21T08:29:26Z</time>
   </trkpt>
   <trkpt lat="32.6084100" lon="35.1351830">
    <ele>144.7</ele>
    <time>2014-02-21T08:29:27Z</time>
   </trkpt>
   <trkpt lat="32.6084010" lon="35.1352560">
    <ele>145.3</ele>
    <time>2014-02-21T08:29:28Z</time>
   </trkpt>
   <trkpt lat="32.6084020" lon="35.1353290">
    <ele>145.4</ele>
    <time>2014-02-21T08:29:29Z</time>
   </trkpt>
   <trkpt lat="32.6084180" lon="35.1354060">
    <ele>145.1</ele>
    <time>2014-02-21T08:29:30Z</time>
   </trkpt>
   <trkpt lat="32.6084170" lon="35.1354710">
    <ele>145.1</ele>
    <time>2014-02-21T08:29:31Z</time>
   </trkpt>
   <trkpt lat="32.6084160" lon="35.1355280">
    <ele>145.0</ele>
    <time>2014-02-21T08:29:32Z</time>
   </trkpt>
   <trkpt lat="32.6084150" lon="35.1355970">
    <ele>144.8</ele>
    <time>2014-02-21T08:29:33Z</time>
   </trkpt>
   <trkpt lat="32.6084240" lon="35.1356640">
    <ele>144.4</ele>
    <time>2014-02-21T08:29:34Z</time>
   </trkpt>
   <trkpt lat="32.6084420" lon="35.1357170">
    <ele>143.6</ele>
    <time>2014-02-21T08:29:35Z</time>
   </trkpt>
   <trkpt lat="32.6084790" lon="35.1357930">
    <ele>142.2</ele>
    <time>2014-02-21T08:29:36Z</time>
   </trkpt>
   <trkpt lat="32.6085320" lon="35.1358560">
    <ele>140.3</ele>
    <time>2014-02-21T08:29:37Z</time>
   </trkpt>
   <trkpt lat="32.6085680" lon="35.1358940">
    <ele>139.0</ele>
    <time>2014-02-21T08:29:38Z</time>
   </trkpt>
   <trkpt lat="32.6085970" lon="35.1359530">
    <ele>137.9</ele>
    <time>2014-02-21T08:29:39Z</time>
   </trkpt>
   <trkpt lat="32.6086190" lon="35.1359930">
    <ele>137.0</ele>
    <time>2014-02-21T08:29:42Z</time>
   </trkpt>
   <trkpt lat="32.6086480" lon="35.1359980">
    <ele>136.0</ele>
    <time>2014-02-21T08:29:56Z</time>
   </trkpt>
   <trkpt lat="32.6086810" lon="35.1360250">
    <ele>134.9</ele>
    <time>2014-02-21T08:30:06Z</time>
   </trkpt>
   <trkpt lat="32.6087060" lon="35.1360500">
    <ele>134.0</ele>
    <time>2014-02-21T08:30:07Z</time>
   </trkpt>
   <trkpt lat="32.6087740" lon="35.1360970">
    <ele>132.2</ele>
    <time>2014-02-21T08:30:09Z</time>
   </trkpt>
   <trkpt lat="32.6088110" lon="35.1361190">
    <ele>131.8</ele>
    <time>2014-02-21T08:30:10Z</time>
   </trkpt>
   <trkpt lat="32.6088490" lon="35.1361400">
    <ele>131.4</ele>
    <time>2014-02-21T08:30:11Z</time>
   </trkpt>
   <trkpt lat="32.6088890" lon="35.1361570">
    <ele>131.0</ele>
    <time>2014-02-21T08:30:12Z</time>
   </trkpt>
   <trkpt lat="32.6089320" lon="35.1361700">
    <ele>130.6</ele>
    <time>2014-02-21T08:30:13Z</time>
   </trkpt>
   <trkpt lat="32.6089770" lon="35.1361860">
    <ele>130.1</ele>
    <time>2014-02-21T08:30:14Z</time>
   </trkpt>
   <trkpt lat="32.6090680" lon="35.1362140">
    <ele>129.2</ele>
    <time>2014-02-21T08:30:15Z</time>
   </trkpt>
   <trkpt lat="32.6091330" lon="35.1362030">
    <ele>128.6</ele>
    <time>2014-02-21T08:30:16Z</time>
   </trkpt>
   <trkpt lat="32.6091920" lon="35.1362170">
    <ele>128.0</ele>
    <time>2014-02-21T08:30:17Z</time>
   </trkpt>
   <trkpt lat="32.6092560" lon="35.1362430">
    <ele>127.2</ele>
    <time>2014-02-21T08:30:18Z</time>
   </trkpt>
   <trkpt lat="32.6093100" lon="35.1362730">
    <ele>126.9</ele>
    <time>2014-02-21T08:30:19Z</time>
   </trkpt>
   <trkpt lat="32.6093650" lon="35.1363110">
    <ele>126.9</ele>
    <time>2014-02-21T08:30:20Z</time>
   </trkpt>
   <trkpt lat="32.6094250" lon="35.1363170">
    <ele>126.4</ele>
    <time>2014-02-21T08:30:21Z</time>
   </trkpt>
   <trkpt lat="32.6094690" lon="35.1363310">
    <ele>126.2</ele>
    <time>2014-02-21T08:30:22Z</time>
   </trkpt>
   <trkpt lat="32.6095320" lon="35.1363420">
    <ele>125.7</ele>
    <time>2014-02-21T08:30:23Z</time>
   </trkpt>
   <trkpt lat="32.6095940" lon="35.1363360">
    <ele>125.1</ele>
    <time>2014-02-21T08:30:24Z</time>
   </trkpt>
   <trkpt lat="32.6096450" lon="35.1363160">
    <ele>124.9</ele>
    <time>2014-02-21T08:30:25Z</time>
   </trkpt>
   <trkpt lat="32.6097060" lon="35.1363170">
    <ele>124.9</ele>
    <time>2014-02-21T08:30:26Z</time>
   </trkpt>
   <trkpt lat="32.6097510" lon="35.1363160">
    <ele>124.9</ele>
    <time>2014-02-21T08:30:27Z</time>
   </trkpt>
   <trkpt lat="32.6098180" lon="35.1363160">
    <ele>124.9</ele>
    <time>2014-02-21T08:30:28Z</time>
   </trkpt>
   <trkpt lat="32.6098740" lon="35.1363060">
    <ele>124.8</ele>
    <time>2014-02-21T08:30:29Z</time>
   </trkpt>
   <trkpt lat="32.6099260" lon="35.1363340">
    <ele>125.0</ele>
    <time>2014-02-21T08:30:30Z</time>
   </trkpt>
   <trkpt lat="32.6099870" lon="35.1363290">
    <ele>125.0</ele>
    <time>2014-02-21T08:30:31Z</time>
   </trkpt>
   <trkpt lat="32.6100480" lon="35.1363500">
    <ele>125.1</ele>
    <time>2014-02-21T08:30:32Z</time>
   </trkpt>
   <trkpt lat="32.6101240" lon="35.1363640">
    <ele>125.1</ele>
    <time>2014-02-21T08:30:33Z</time>
   </trkpt>
   <trkpt lat="32.6101860" lon="35.1363710">
    <ele>125.1</ele>
    <time>2014-02-21T08:30:34Z</time>
   </trkpt>
   <trkpt lat="32.6102520" lon="35.1363810">
    <ele>125.0</ele>
    <time>2014-02-21T08:30:35Z</time>
   </trkpt>
   <trkpt lat="32.6103190" lon="35.1363920">
    <ele>125.0</ele>
    <time>2014-02-21T08:30:36Z</time>
   </trkpt>
   <trkpt lat="32.6103640" lon="35.1363970">
    <ele>124.9</ele>
    <time>2014-02-21T08:30:37Z</time>
   </trkpt>
   <trkpt lat="32.6104170" lon="35.1364130">
    <ele>124.8</ele>
    <time>2014-02-21T08:30:38Z</time>
   </trkpt>
   <trkpt lat="32.6104640" lon="35.1364350">
    <ele>124.7</ele>
    <time>2014-02-21T08:30:39Z</time>
   </trkpt>
   <trkpt lat="32.6105050" lon="35.1364520">
    <ele>124.6</ele>
    <time>2014-02-21T08:30:40Z</time>
   </trkpt>
   <trkpt lat="32.6105550" lon="35.1364550">
    <ele>124.6</ele>
    <time>2014-02-21T08:30:41Z</time>
   </trkpt>
   <trkpt lat="32.6106130" lon="35.1364670">
    <ele>124.4</ele>
    <time>2014-02-21T08:30:42Z</time>
   </trkpt>
   <trkpt lat="32.6106570" lon="35.1366190">
    <ele>123.5</ele>
    <time>2014-02-21T08:30:43Z</time>
   </trkpt>
   <trkpt lat="32.6106980" lon="35.1366700">
    <ele>123.0</ele>
    <time>2014-02-21T08:30:44Z</time>
   </trkpt>
   <trkpt lat="32.6107410" lon="35.1367210">
    <ele>122.4</ele>
    <time>2014-02-21T08:30:45Z</time>
   </trkpt>
   <trkpt lat="32.6107560" lon="35.1367990">
    <ele>121.7</ele>
    <time>2014-02-21T08:30:46Z</time>
   </trkpt>
   <trkpt lat="32.6108050" lon="35.1368270">
    <ele>121.0</ele>
    <time>2014-02-21T08:30:47Z</time>
   </trkpt>
   <trkpt lat="32.6108210" lon="35.1368870">
    <ele>120.4</ele>
    <time>2014-02-21T08:30:48Z</time>
   </trkpt>
   <trkpt lat="32.6108630" lon="35.1369340">
    <ele>119.5</ele>
    <time>2014-02-21T08:30:49Z</time>
   </trkpt>
   <trkpt lat="32.6108850" lon="35.1369970">
    <ele>118.7</ele>
    <time>2014-02-21T08:30:50Z</time>
   </trkpt>
   <trkpt lat="32.6109090" lon="35.1370580">
    <ele>117.8</ele>
    <time>2014-02-21T08:30:51Z</time>
   </trkpt>
   <trkpt lat="32.6109640" lon="35.1371270">
    <ele>117.4</ele>
    <time>2014-02-21T08:30:52Z</time>
   </trkpt>
   <trkpt lat="32.6109920" lon="35.1371820">
    <ele>117.7</ele>
    <time>2014-02-21T08:30:53Z</time>
   </trkpt>
   <trkpt lat="32.6110470" lon="35.1372160">
    <ele>117.3</ele>
    <time>2014-02-21T08:30:54Z</time>
   </trkpt>
   <trkpt lat="32.6110820" lon="35.1372630">
    <ele>117.3</ele>
    <time>2014-02-21T08:30:55Z</time>
   </trkpt>
   <trkpt lat="32.6111220" lon="35.1373060">
    <ele>117.2</ele>
    <time>2014-02-21T08:30:56Z</time>
   </trkpt>
   <trkpt lat="32.6111770" lon="35.1373400">
    <ele>116.7</ele>
    <time>2014-02-21T08:30:57Z</time>
   </trkpt>
   <trkpt lat="32.6112180" lon="35.1373860">
    <ele>116.5</ele>
    <time>2014-02-21T08:30:58Z</time>
   </trkpt>
   <trkpt lat="32.6112450" lon="35.1374480">
    <ele>116.6</ele>
    <time>2014-02-21T08:30:59Z</time>
   </trkpt>
   <trkpt lat="32.6112820" lon="35.1374760">
    <ele>116.6</ele>
    <time>2014-02-21T08:31:00Z</time>
   </trkpt>
   <trkpt lat="32.6113120" lon="35.1375170">
    <ele>116.8</ele>
    <time>2014-02-21T08:31:01Z</time>
   </trkpt>
   <trkpt lat="32.6113660" lon="35.1375630">
    <ele>116.9</ele>
    <time>2014-02-21T08:31:02Z</time>
   </trkpt>
   <trkpt lat="32.6113890" lon="35.1376400">
    <ele>117.3</ele>
    <time>2014-02-21T08:31:03Z</time>
   </trkpt>
   <trkpt lat="32.6114020" lon="35.1377060">
    <ele>117.7</ele>
    <time>2014-02-21T08:31:04Z</time>
   </trkpt>
   <trkpt lat="32.6114150" lon="35.1377540">
    <ele>117.9</ele>
    <time>2014-02-21T08:31:05Z</time>
   </trkpt>
   <trkpt lat="32.6114240" lon="35.1377970">
    <ele>118.1</ele>
    <time>2014-02-21T08:31:06Z</time>
   </trkpt>
   <trkpt lat="32.6114400" lon="35.1378680">
    <ele>118.4</ele>
    <time>2014-02-21T08:31:08Z</time>
   </trkpt>
   <trkpt lat="32.6114590" lon="35.1378960">
    <ele>118.4</ele>
    <time>2014-02-21T08:31:09Z</time>
   </trkpt>
   <trkpt lat="32.6114710" lon="35.1379260">
    <ele>118.4</ele>
    <time>2014-02-21T08:31:10Z</time>
   </trkpt>
   <trkpt lat="32.6114940" lon="35.1379590">
    <ele>118.2</ele>
    <time>2014-02-21T08:31:11Z</time>
   </trkpt>
   <trkpt lat="32.6115350" lon="35.1380160">
    <ele>117.9</ele>
    <time>2014-02-21T08:31:13Z</time>
   </trkpt>
   <trkpt lat="32.6115640" lon="35.1380090">
    <ele>117.5</ele>
    <time>2014-02-21T08:31:14Z</time>
   </trkpt>
   <trkpt lat="32.6115980" lon="35.1380300">
    <ele>117.1</ele>
    <time>2014-02-21T08:31:16Z</time>
   </trkpt>
   <trkpt lat="32.6116360" lon="35.1380300">
    <ele>116.6</ele>
    <time>2014-02-21T08:31:18Z</time>
   </trkpt>
   <trkpt lat="32.6116720" lon="35.1380130">
    <ele>116.0</ele>
    <time>2014-02-21T08:31:20Z</time>
   </trkpt>
   <trkpt lat="32.6117060" lon="35.1379880">
    <ele>115.6</ele>
    <time>2014-02-21T08:31:22Z</time>
   </trkpt>
   <trkpt lat="32.6117350" lon="35.1379550">
    <ele>115.2</ele>
    <time>2014-02-21T08:31:24Z</time>
   </trkpt>
   <trkpt lat="32.6117640" lon="35.1379270">
    <ele>114.8</ele>
    <time>2014-02-21T08:31:26Z</time>
   </trkpt>
   <trkpt lat="32.6117950" lon="35.1379040">
    <ele>114.5</ele>
    <time>2014-02-21T08:31:28Z</time>
   </trkpt>
   <trkpt lat="32.6118230" lon="35.1378810">
    <ele>114.1</ele>
    <time>2014-02-21T08:31:30Z</time>
   </trkpt>
   <trkpt lat="32.6118500" lon="35.1378470">
    <ele>113.9</ele>
    <time>2014-02-21T08:31:32Z</time>
   </trkpt>
   <trkpt lat="32.6118690" lon="35.1377760">
    <ele>113.7</ele>
    <time>2014-02-21T08:31:34Z</time>
   </trkpt>
   <trkpt lat="32.6118610" lon="35.1377330">
    <ele>113.8</ele>
    <time>2014-02-21T08:31:35Z</time>
   </trkpt>
   <trkpt lat="32.6118450" lon="35.1376930">
    <ele>114.0</ele>
    <time>2014-02-21T08:31:36Z</time>
   </trkpt>
   <trkpt lat="32.6118270" lon="35.1376540">
    <ele>114.2</ele>
    <time>2014-02-21T08:31:37Z</time>
   </trkpt>
   <trkpt lat="32.6118090" lon="35.1376150">
    <ele>114.3</ele>
    <time>2014-02-21T08:31:38Z</time>
   </trkpt>
   <trkpt lat="32.6117910" lon="35.1375770">
    <ele>114.4</ele>
    <time>2014-02-21T08:31:39Z</time>
   </trkpt>
   <trkpt lat="32.6117720" lon="35.1375400">
    <ele>114.5</ele>
    <time>2014-02-21T08:31:40Z</time>
   </trkpt>
   <trkpt lat="32.6117530" lon="35.1375020">
    <ele>114.6</ele>
    <time>2014-02-21T08:31:41Z</time>
   </trkpt>
   <trkpt lat="32.6117350" lon="35.1374630">
    <ele>114.6</ele>
    <time>2014-02-21T08:31:42Z</time>
   </trkpt>
   <trkpt lat="32.6117170" lon="35.1374230">
    <ele>114.6</ele>
    <time>2014-02-21T08:31:43Z</time>
   </trkpt>
   <trkpt lat="32.6117000" lon="35.1373840">
    <ele>114.6</ele>
    <time>2014-02-21T08:31:44Z</time>
   </trkpt>
   <trkpt lat="32.6116820" lon="35.1373440">
    <ele>114.6</ele>
    <time>2014-02-21T08:31:45Z</time>
   </trkpt>
   <trkpt lat="32.6116630" lon="35.1373050">
    <ele>114.5</ele>
    <time>2014-02-21T08:31:46Z</time>
   </trkpt>
   <trkpt lat="32.6116450" lon="35.1372660">
    <ele>114.5</ele>
    <time>2014-02-21T08:31:47Z</time>
   </trkpt>
   <trkpt lat="32.6116270" lon="35.1372270">
    <ele>114.3</ele>
    <time>2014-02-21T08:31:48Z</time>
   </trkpt>
   <trkpt lat="32.6116090" lon="35.1371870">
    <ele>114.2</ele>
    <time>2014-02-21T08:31:49Z</time>
   </trkpt>
   <trkpt lat="32.6115900" lon="35.1371460">
    <ele>114.0</ele>
    <time>2014-02-21T08:31:50Z</time>
   </trkpt>
   <trkpt lat="32.6115720" lon="35.1371060">
    <ele>113.9</ele>
    <time>2014-02-21T08:31:51Z</time>
   </trkpt>
   <trkpt lat="32.6115530" lon="35.1370650">
    <ele>114.0</ele>
    <time>2014-02-21T08:31:52Z</time>
   </trkpt>
   <trkpt lat="32.6115360" lon="35.1370250">
    <ele>114.6</ele>
    <time>2014-02-21T08:31:53Z</time>
   </trkpt>
   <trkpt lat="32.6115180" lon="35.1369850">
    <ele>115.3</ele>
    <time>2014-02-21T08:31:54Z</time>
   </trkpt>
   <trkpt lat="32.6114970" lon="35.1369470">
    <ele>115.8</ele>
    <time>2014-02-21T08:31:55Z</time>
   </trkpt>
   <trkpt lat="32.6114750" lon="35.1369110">
    <ele>116.4</ele>
    <time>2014-02-21T08:31:56Z</time>
   </trkpt>
   <trkpt lat="32.6114510" lon="35.1368770">
    <ele>116.9</ele>
    <time>2014-02-21T08:31:57Z</time>
   </trkpt>
   <trkpt lat="32.6114280" lon="35.1368420">
    <ele>117.4</ele>
    <time>2014-02-21T08:31:58Z</time>
   </trkpt>
   <trkpt lat="32.6114050" lon="35.1368080">
    <ele>117.9</ele>
    <time>2014-02-21T08:31:59Z</time>
   </trkpt>
   <trkpt lat="32.6113850" lon="35.1367700">
    <ele>118.5</ele>
    <time>2014-02-21T08:32:00Z</time>
   </trkpt>
   <trkpt lat="32.6113710" lon="35.1367300">
    <ele>119.2</ele>
    <time>2014-02-21T08:32:01Z</time>
   </trkpt>
   <trkpt lat="32.6113640" lon="35.1366870">
    <ele>119.9</ele>
    <time>2014-02-21T08:32:02Z</time>
   </trkpt>
   <trkpt lat="32.6113700" lon="35.1366430">
    <ele>120.6</ele>
    <time>2014-02-21T08:32:03Z</time>
   </trkpt>
   <trkpt lat="32.6113840" lon="35.1366080">
    <ele>121.2</ele>
    <time>2014-02-21T08:32:04Z</time>
   </trkpt>
   <trkpt lat="32.6114060" lon="35.1365760">
    <ele>121.8</ele>
    <time>2014-02-21T08:32:05Z</time>
   </trkpt>
   <trkpt lat="32.6114320" lon="35.1365500">
    <ele>122.3</ele>
    <time>2014-02-21T08:32:06Z</time>
   </trkpt>
   <trkpt lat="32.6114630" lon="35.1365310">
    <ele>122.6</ele>
    <time>2014-02-21T08:32:07Z</time>
   </trkpt>
   <trkpt lat="32.6114940" lon="35.1365180">
    <ele>122.9</ele>
    <time>2014-02-21T08:32:08Z</time>
   </trkpt>
   <trkpt lat="32.6115290" lon="35.1365130">
    <ele>123.0</ele>
    <time>2014-02-21T08:32:09Z</time>
   </trkpt>
   <trkpt lat="32.6115630" lon="35.1365120">
    <ele>123.1</ele>
    <time>2014-02-21T08:32:10Z</time>
   </trkpt>
   <trkpt lat="32.6115970" lon="35.1365150">
    <ele>123.1</ele>
    <time>2014-02-21T08:32:11Z</time>
   </trkpt>
   <trkpt lat="32.6116290" lon="35.1365180">
    <ele>123.1</ele>
    <time>2014-02-21T08:32:12Z</time>
   </trkpt>
   <trkpt lat="32.6116590" lon="35.1365260">
    <ele>123.0</ele>
    <time>2014-02-21T08:32:13Z</time>
   </trkpt>
   <trkpt lat="32.6117060" lon="35.1365540">
    <ele>122.6</ele>
    <time>2014-02-21T08:32:15Z</time>
   </trkpt>
   <trkpt lat="32.6117450" lon="35.1365790">
    <ele>122.3</ele>
    <time>2014-02-21T08:32:17Z</time>
   </trkpt>
   <trkpt lat="32.6117720" lon="35.1365940">
    <ele>122.1</ele>
    <time>2014-02-21T08:32:19Z</time>
   </trkpt>
   <trkpt lat="32.6117940" lon="35.1366330">
    <ele>121.5</ele>
    <time>2014-02-21T08:32:21Z</time>
   </trkpt>
   <trkpt lat="32.6118130" lon="35.1366760">
    <ele>120.9</ele>
    <time>2014-02-21T08:32:23Z</time>
   </trkpt>
   <trkpt lat="32.6118370" lon="35.1367160">
    <ele>120.3</ele>
    <time>2014-02-21T08:32:25Z</time>
   </trkpt>
   <trkpt lat="32.6118570" lon="35.1367590">
    <ele>119.6</ele>
    <time>2014-02-21T08:32:27Z</time>
   </trkpt>
   <trkpt lat="32.6118750" lon="35.1368020">
    <ele>119.0</ele>
    <time>2014-02-21T08:32:29Z</time>
   </trkpt>
   <trkpt lat="32.6118900" lon="35.1368480">
    <ele>118.3</ele>
    <time>2014-02-21T08:32:31Z</time>
   </trkpt>
   <trkpt lat="32.6119070" lon="35.1368970">
    <ele>117.5</ele>
    <time>2014-02-21T08:32:33Z</time>
   </trkpt>
   <trkpt lat="32.6119360" lon="35.1369350">
    <ele>117.0</ele>
    <time>2014-02-21T08:32:35Z</time>
   </trkpt>
   <trkpt lat="32.6119650" lon="35.1369770">
    <ele>116.4</ele>
    <time>2014-02-21T08:32:37Z</time>
   </trkpt>
   <trkpt lat="32.6119890" lon="35.1370240">
    <ele>115.7</ele>
    <time>2014-02-21T08:32:39Z</time>
   </trkpt>
   <trkpt lat="32.6120150" lon="35.1370650">
    <ele>115.1</ele>
    <time>2014-02-21T08:32:41Z</time>
   </trkpt>
   <trkpt lat="32.6120440" lon="35.1371040">
    <ele>114.8</ele>
    <time>2014-02-21T08:32:43Z</time>
   </trkpt>
   <trkpt lat="32.6120710" lon="35.1371410">
    <ele>114.7</ele>
    <time>2014-02-21T08:32:45Z</time>
   </trkpt>
   <trkpt lat="32.6120920" lon="35.1371820">
    <ele>114.7</ele>
    <time>2014-02-21T08:32:47Z</time>
   </trkpt>
   <trkpt lat="32.6121140" lon="35.1372220">
    <ele>114.8</ele>
    <time>2014-02-21T08:32:49Z</time>
   </trkpt>
   <trkpt lat="32.6121370" lon="35.1372600">
    <ele>115.0</ele>
    <time>2014-02-21T08:32:51Z</time>
   </trkpt>
   <trkpt lat="32.6121710" lon="35.1372860">
    <ele>115.4</ele>
    <time>2014-02-21T08:32:53Z</time>
   </trkpt>
   <trkpt lat="32.6122120" lon="35.1373000">
    <ele>115.9</ele>
    <time>2014-02-21T08:32:55Z</time>
   </trkpt>
   <trkpt lat="32.6122540" lon="35.1373070">
    <ele>116.5</ele>
    <time>2014-02-21T08:32:57Z</time>
   </trkpt>
   <trkpt lat="32.6122970" lon="35.1373090">
    <ele>117.2</ele>
    <time>2014-02-21T08:32:59Z</time>
   </trkpt>
   <trkpt lat="32.6123380" lon="35.1373100">
    <ele>117.8</ele>
    <time>2014-02-21T08:33:01Z</time>
   </trkpt>
   <trkpt lat="32.6123770" lon="35.1373170">
    <ele>118.4</ele>
    <time>2014-02-21T08:33:03Z</time>
   </trkpt>
   <trkpt lat="32.6124120" lon="35.1373380">
    <ele>118.8</ele>
    <time>2014-02-21T08:33:05Z</time>
   </trkpt>
   <trkpt lat="32.6124410" lon="35.1373690">
    <ele>119.1</ele>
    <time>2014-02-21T08:33:07Z</time>
   </trkpt>
   <trkpt lat="32.6124650" lon="35.1374070">
    <ele>119.2</ele>
    <time>2014-02-21T08:33:09Z</time>
   </trkpt>
   <trkpt lat="32.6124790" lon="35.1374550">
    <ele>119.2</ele>
    <time>2014-02-21T08:33:11Z</time>
   </trkpt>
   <trkpt lat="32.6124900" lon="35.1375020">
    <ele>119.1</ele>
    <time>2014-02-21T08:33:13Z</time>
   </trkpt>
   <trkpt lat="32.6125070" lon="35.1375320">
    <ele>119.2</ele>
    <time>2014-02-21T08:33:15Z</time>
   </trkpt>
   <trkpt lat="32.6125190" lon="35.1375620">
    <ele>119.2</ele>
    <time>2014-02-21T08:33:17Z</time>
   </trkpt>
   <trkpt lat="32.6125370" lon="35.1375910">
    <ele>119.3</ele>
    <time>2014-02-21T08:33:19Z</time>
   </trkpt>
   <trkpt lat="32.6125560" lon="35.1376200">
    <ele>119.4</ele>
    <time>2014-02-21T08:33:21Z</time>
   </trkpt>
   <trkpt lat="32.6125740" lon="35.1376450">
    <ele>119.6</ele>
    <time>2014-02-21T08:33:23Z</time>
   </trkpt>
   <trkpt lat="32.6125920" lon="35.1376710">
    <ele>119.7</ele>
    <time>2014-02-21T08:33:25Z</time>
   </trkpt>
   <trkpt lat="32.6126120" lon="35.1376950">
    <ele>119.8</ele>
    <time>2014-02-21T08:33:27Z</time>
   </trkpt>
   <trkpt lat="32.6126360" lon="35.1377150">
    <ele>120.1</ele>
    <time>2014-02-21T08:33:29Z</time>
   </trkpt>
   <trkpt lat="32.6126590" lon="35.1377350">
    <ele>120.3</ele>
    <time>2014-02-21T08:33:31Z</time>
   </trkpt>
   <trkpt lat="32.6126800" lon="35.1377570">
    <ele>120.5</ele>
    <time>2014-02-21T08:33:33Z</time>
   </trkpt>
   <trkpt lat="32.6127010" lon="35.1377800">
    <ele>120.7</ele>
    <time>2014-02-21T08:33:35Z</time>
   </trkpt>
   <trkpt lat="32.6127160" lon="35.1378070">
    <ele>120.7</ele>
    <time>2014-02-21T08:33:37Z</time>
   </trkpt>
   <trkpt lat="32.6127300" lon="35.1378350">
    <ele>120.8</ele>
    <time>2014-02-21T08:33:39Z</time>
   </trkpt>
   <trkpt lat="32.6127460" lon="35.1378670">
    <ele>120.8</ele>
    <time>2014-02-21T08:33:41Z</time>
   </trkpt>
   <trkpt lat="32.6127640" lon="35.1379090">
    <ele>120.8</ele>
    <time>2014-02-21T08:33:43Z</time>
   </trkpt>
   <trkpt lat="32.6127780" lon="35.1379520">
    <ele>120.7</ele>
    <time>2014-02-21T08:33:45Z</time>
   </trkpt>
   <trkpt lat="32.6127930" lon="35.1379890">
    <ele>120.6</ele>
    <time>2014-02-21T08:33:47Z</time>
   </trkpt>
   <trkpt lat="32.6128030" lon="35.1380230">
    <ele>120.4</ele>
    <time>2014-02-21T08:33:49Z</time>
   </trkpt>
   <trkpt lat="32.6128120" lon="35.1380580">
    <ele>120.2</ele>
    <time>2014-02-21T08:33:51Z</time>
   </trkpt>
   <trkpt lat="32.6128250" lon="35.1380940">
    <ele>120.1</ele>
    <time>2014-02-21T08:33:53Z</time>
   </trkpt>
   <trkpt lat="32.6128390" lon="35.1381340">
    <ele>119.9</ele>
    <time>2014-02-21T08:33:55Z</time>
   </trkpt>
   <trkpt lat="32.6128540" lon="35.1381840">
    <ele>119.6</ele>
    <time>2014-02-21T08:33:57Z</time>
   </trkpt>
   <trkpt lat="32.6128660" lon="35.1382430">
    <ele>119.2</ele>
    <time>2014-02-21T08:33:59Z</time>
   </trkpt>
   <trkpt lat="32.6128880" lon="35.1383040">
    <ele>118.9</ele>
    <time>2014-02-21T08:34:01Z</time>
   </trkpt>
   <trkpt lat="32.6129060" lon="35.1383400">
    <ele>118.8</ele>
    <time>2014-02-21T08:34:02Z</time>
   </trkpt>
   <trkpt lat="32.6129290" lon="35.1383740">
    <ele>118.7</ele>
    <time>2014-02-21T08:34:03Z</time>
   </trkpt>
   <trkpt lat="32.6129570" lon="35.1384040">
    <ele>118.6</ele>
    <time>2014-02-21T08:34:04Z</time>
   </trkpt>
   <trkpt lat="32.6129880" lon="35.1384300">
    <ele>118.6</ele>
    <time>2014-02-21T08:34:05Z</time>
   </trkpt>
   <trkpt lat="32.6130220" lon="35.1384500">
    <ele>118.7</ele>
    <time>2014-02-21T08:34:06Z</time>
   </trkpt>
   <trkpt lat="32.6130590" lon="35.1384630">
    <ele>118.9</ele>
    <time>2014-02-21T08:34:07Z</time>
   </trkpt>
   <trkpt lat="32.6130950" lon="35.1384690">
    <ele>119.1</ele>
    <time>2014-02-21T08:34:08Z</time>
   </trkpt>
   <trkpt lat="32.6131230" lon="35.1384700">
    <ele>119.3</ele>
    <time>2014-02-21T08:34:09Z</time>
   </trkpt>
   <trkpt lat="32.6131520" lon="35.1384700">
    <ele>119.6</ele>
    <time>2014-02-21T08:34:10Z</time>
   </trkpt>
   <trkpt lat="32.6132020" lon="35.1384670">
    <ele>120.0</ele>
    <time>2014-02-21T08:34:12Z</time>
   </trkpt>
   <trkpt lat="32.6132430" lon="35.1384590">
    <ele>120.4</ele>
    <time>2014-02-21T08:34:14Z</time>
   </trkpt>
   <trkpt lat="32.6132780" lon="35.1384530">
    <ele>120.7</ele>
    <time>2014-02-21T08:34:16Z</time>
   </trkpt>
   <trkpt lat="32.6133060" lon="35.1384530">
    <ele>120.9</ele>
    <time>2014-02-21T08:34:18Z</time>
   </trkpt>
   <trkpt lat="32.6133350" lon="35.1384520">
    <ele>121.2</ele>
    <time>2014-02-21T08:34:20Z</time>
   </trkpt>
   <trkpt lat="32.6133630" lon="35.1384520">
    <ele>121.4</ele>
    <time>2014-02-21T08:34:22Z</time>
   </trkpt>
   <trkpt lat="32.6133940" lon="35.1384510">
    <ele>121.6</ele>
    <time>2014-02-21T08:34:24Z</time>
   </trkpt>
   <trkpt lat="32.6134240" lon="35.1384470">
    <ele>121.9</ele>
    <time>2014-02-21T08:34:26Z</time>
   </trkpt>
   <trkpt lat="32.6134550" lon="35.1384420">
    <ele>122.2</ele>
    <time>2014-02-21T08:34:28Z</time>
   </trkpt>
   <trkpt lat="32.6134920" lon="35.1384380">
    <ele>122.5</ele>
    <time>2014-02-21T08:34:30Z</time>
   </trkpt>
   <trkpt lat="32.6135440" lon="35.1384290">
    <ele>122.9</ele>
    <time>2014-02-21T08:34:32Z</time>
   </trkpt>
   <trkpt lat="32.6135970" lon="35.1384160">
    <ele>123.4</ele>
    <time>2014-02-21T08:34:34Z</time>
   </trkpt>
   <trkpt lat="32.6136250" lon="35.1384090">
    <ele>123.7</ele>
    <time>2014-02-21T08:34:35Z</time>
   </trkpt>
   <trkpt lat="32.6136750" lon="35.1383940">
    <ele>124.1</ele>
    <time>2014-02-21T08:34:37Z</time>
   </trkpt>
   <trkpt lat="32.6137180" lon="35.1383730">
    <ele>124.6</ele>
    <time>2014-02-21T08:34:39Z</time>
   </trkpt>
   <trkpt lat="32.6137590" lon="35.1383530">
    <ele>124.9</ele>
    <time>2014-02-21T08:34:41Z</time>
   </trkpt>
   <trkpt lat="32.6138060" lon="35.1383400">
    <ele>124.8</ele>
    <time>2014-02-21T08:34:43Z</time>
   </trkpt>
   <trkpt lat="32.6138550" lon="35.1383340">
    <ele>124.6</ele>
    <time>2014-02-21T08:34:45Z</time>
   </trkpt>
   <trkpt lat="32.6139050" lon="35.1383210">
    <ele>124.5</ele>
    <time>2014-02-21T08:34:47Z</time>
   </trkpt>
   <trkpt lat="32.6139550" lon="35.1383220">
    <ele>124.3</ele>
    <time>2014-02-21T08:34:49Z</time>
   </trkpt>
   <trkpt lat="32.6140030" lon="35.1383320">
    <ele>124.1</ele>
    <time>2014-02-21T08:34:51Z</time>
   </trkpt>
   <trkpt lat="32.6140540" lon="35.1383380">
    <ele>123.9</ele>
    <time>2014-02-21T08:34:53Z</time>
   </trkpt>
   <trkpt lat="32.6141130" lon="35.1383380">
    <ele>123.7</ele>
    <time>2014-02-21T08:34:55Z</time>
   </trkpt>
   <trkpt lat="32.6141440" lon="35.1383370">
    <ele>123.6</ele>
    <time>2014-02-21T08:34:56Z</time>
   </trkpt>
   <trkpt lat="32.6141760" lon="35.1383340">
    <ele>123.5</ele>
    <time>2014-02-21T08:34:57Z</time>
   </trkpt>
   <trkpt lat="32.6142070" lon="35.1383300">
    <ele>123.4</ele>
    <time>2014-02-21T08:34:58Z</time>
   </trkpt>
   <trkpt lat="32.6142390" lon="35.1383250">
    <ele>123.3</ele>
    <time>2014-02-21T08:34:59Z</time>
   </trkpt>
   <trkpt lat="32.6142690" lon="35.1383190">
    <ele>123.2</ele>
    <time>2014-02-21T08:35:00Z</time>
   </trkpt>
   <trkpt lat="32.6142990" lon="35.1383150">
    <ele>123.1</ele>
    <time>2014-02-21T08:35:01Z</time>
   </trkpt>
   <trkpt lat="32.6143280" lon="35.1383110">
    <ele>123.0</ele>
    <time>2014-02-21T08:35:02Z</time>
   </trkpt>
   <trkpt lat="32.6143580" lon="35.1383060">
    <ele>122.9</ele>
    <time>2014-02-21T08:35:03Z</time>
   </trkpt>
   <trkpt lat="32.6143890" lon="35.1382990">
    <ele>122.8</ele>
    <time>2014-02-21T08:35:04Z</time>
   </trkpt>
   <trkpt lat="32.6144200" lon="35.1382880">
    <ele>122.7</ele>
    <time>2014-02-21T08:35:05Z</time>
   </trkpt>
   <trkpt lat="32.6144490" lon="35.1382730">
    <ele>122.7</ele>
    <time>2014-02-21T08:35:06Z</time>
   </trkpt>
   <trkpt lat="32.6144750" lon="35.1382550">
    <ele>122.6</ele>
    <time>2014-02-21T08:35:07Z</time>
   </trkpt>
   <trkpt lat="32.6144950" lon="35.1382310">
    <ele>122.6</ele>
    <time>2014-02-21T08:35:08Z</time>
   </trkpt>
   <trkpt lat="32.6145070" lon="35.1381830">
    <ele>122.7</ele>
    <time>2014-02-21T08:35:10Z</time>
   </trkpt>
   <trkpt lat="32.6144940" lon="35.1381430">
    <ele>122.8</ele>
    <time>2014-02-21T08:35:12Z</time>
   </trkpt>
   <trkpt lat="32.6144760" lon="35.1380970">
    <ele>123.0</ele>
    <time>2014-02-21T08:35:14Z</time>
   </trkpt>
   <trkpt lat="32.6144590" lon="35.1380450">
    <ele>123.2</ele>
    <time>2014-02-21T08:35:16Z</time>
   </trkpt>
   <trkpt lat="32.6144370" lon="35.1379920">
    <ele>123.5</ele>
    <time>2014-02-21T08:35:18Z</time>
   </trkpt>
   <trkpt lat="32.6144140" lon="35.1379390">
    <ele>123.7</ele>
    <time>2014-02-21T08:35:20Z</time>
   </trkpt>
   <trkpt lat="32.6143940" lon="35.1378880">
    <ele>124.0</ele>
    <time>2014-02-21T08:35:22Z</time>
   </trkpt>
   <trkpt lat="32.6143760" lon="35.1378370">
    <ele>124.2</ele>
    <time>2014-02-21T08:35:24Z</time>
   </trkpt>
   <trkpt lat="32.6143660" lon="35.1377830">
    <ele>124.4</ele>
    <time>2014-02-21T08:35:26Z</time>
   </trkpt>
   <trkpt lat="32.6143570" lon="35.1377290">
    <ele>124.6</ele>
    <time>2014-02-21T08:35:28Z</time>
   </trkpt>
   <trkpt lat="32.6143530" lon="35.1376720">
    <ele>124.7</ele>
    <time>2014-02-21T08:35:30Z</time>
   </trkpt>
   <trkpt lat="32.6143460" lon="35.1376150">
    <ele>124.9</ele>
    <time>2014-02-21T08:35:32Z</time>
   </trkpt>
   <trkpt lat="32.6143250" lon="35.1375600">
    <ele>125.2</ele>
    <time>2014-02-21T08:35:34Z</time>
   </trkpt>
   <trkpt lat="32.6142910" lon="35.1375110">
    <ele>125.6</ele>
    <time>2014-02-21T08:35:36Z</time>
   </trkpt>
   <trkpt lat="32.6142530" lon="35.1374670">
    <ele>126.0</ele>
    <time>2014-02-21T08:35:38Z</time>
   </trkpt>
   <trkpt lat="32.6142210" lon="35.1374180">
    <ele>126.4</ele>
    <time>2014-02-21T08:35:40Z</time>
   </trkpt>
   <trkpt lat="32.6141920" lon="35.1373680">
    <ele>126.8</ele>
    <time>2014-02-21T08:35:42Z</time>
   </trkpt>
   <trkpt lat="32.6141670" lon="35.1373160">
    <ele>127.2</ele>
    <time>2014-02-21T08:35:44Z</time>
   </trkpt>
   <trkpt lat="32.6141430" lon="35.1372630">
    <ele>127.6</ele>
    <time>2014-02-21T08:35:46Z</time>
   </trkpt>
   <trkpt lat="32.6141230" lon="35.1372120">
    <ele>127.9</ele>
    <time>2014-02-21T08:35:48Z</time>
   </trkpt>
   <trkpt lat="32.6141040" lon="35.1371620">
    <ele>128.3</ele>
    <time>2014-02-21T08:35:50Z</time>
   </trkpt>
   <trkpt lat="32.6140780" lon="35.1371180">
    <ele>128.7</ele>
    <time>2014-02-21T08:35:52Z</time>
   </trkpt>
   <trkpt lat="32.6140550" lon="35.1370730">
    <ele>129.1</ele>
    <time>2014-02-21T08:35:54Z</time>
   </trkpt>
   <trkpt lat="32.6140330" lon="35.1370260">
    <ele>129.3</ele>
    <time>2014-02-21T08:35:56Z</time>
   </trkpt>
   <trkpt lat="32.6140160" lon="35.1369760">
    <ele>129.5</ele>
    <time>2014-02-21T08:35:58Z</time>
   </trkpt>
   <trkpt lat="32.6139990" lon="35.1369280">
    <ele>129.6</ele>
    <time>2014-02-21T08:36:00Z</time>
   </trkpt>
   <trkpt lat="32.6139860" lon="35.1368800">
    <ele>129.8</ele>
    <time>2014-02-21T08:36:02Z</time>
   </trkpt>
   <trkpt lat="32.6139740" lon="35.1368340">
    <ele>130.0</ele>
    <time>2014-02-21T08:36:04Z</time>
   </trkpt>
   <trkpt lat="32.6139600" lon="35.1367900">
    <ele>130.2</ele>
    <time>2014-02-21T08:36:06Z</time>
   </trkpt>
   <trkpt lat="32.6139430" lon="35.1367470">
    <ele>130.4</ele>
    <time>2014-02-21T08:36:08Z</time>
   </trkpt>
   <trkpt lat="32.6139260" lon="35.1367040">
    <ele>130.6</ele>
    <time>2014-02-21T08:36:10Z</time>
   </trkpt>
   <trkpt lat="32.6139100" lon="35.1366600">
    <ele>130.9</ele>
    <time>2014-02-21T08:36:12Z</time>
   </trkpt>
   <trkpt lat="32.6139010" lon="35.1366090">
    <ele>131.1</ele>
    <time>2014-02-21T08:36:14Z</time>
   </trkpt>
   <trkpt lat="32.6138870" lon="35.1365590">
    <ele>131.3</ele>
    <time>2014-02-21T08:36:16Z</time>
   </trkpt>
   <trkpt lat="32.6138680" lon="35.1365170">
    <ele>131.6</ele>
    <time>2014-02-21T08:36:18Z</time>
   </trkpt>
   <trkpt lat="32.6138520" lon="35.1364750">
    <ele>131.9</ele>
    <time>2014-02-21T08:36:20Z</time>
   </trkpt>
   <trkpt lat="32.6138350" lon="35.1364350">
    <ele>132.3</ele>
    <time>2014-02-21T08:36:22Z</time>
   </trkpt>
   <trkpt lat="32.6138210" lon="35.1363960">
    <ele>132.5</ele>
    <time>2014-02-21T08:36:24Z</time>
   </trkpt>
   <trkpt lat="32.6138130" lon="35.1363550">
    <ele>132.7</ele>
    <time>2014-02-21T08:36:26Z</time>
   </trkpt>
   <trkpt lat="32.6138060" lon="35.1363150">
    <ele>132.9</ele>
    <time>2014-02-21T08:36:28Z</time>
   </trkpt>
   <trkpt lat="32.6137970" lon="35.1362780">
    <ele>133.2</ele>
    <time>2014-02-21T08:36:30Z</time>
   </trkpt>
   <trkpt lat="32.6137840" lon="35.1362410">
    <ele>133.5</ele>
    <time>2014-02-21T08:36:32Z</time>
   </trkpt>
   <trkpt lat="32.6137700" lon="35.1362040">
    <ele>133.8</ele>
    <time>2014-02-21T08:36:34Z</time>
   </trkpt>
   <trkpt lat="32.6137510" lon="35.1361700">
    <ele>134.3</ele>
    <time>2014-02-21T08:36:36Z</time>
   </trkpt>
   <trkpt lat="32.6137330" lon="35.1361380">
    <ele>134.5</ele>
    <time>2014-02-21T08:36:38Z</time>
   </trkpt>
   <trkpt lat="32.6137120" lon="35.1360950">
    <ele>134.7</ele>
    <time>2014-02-21T08:36:41Z</time>
   </trkpt>
   <trkpt lat="32.6136940" lon="35.1360580">
    <ele>135.0</ele>
    <time>2014-02-21T08:36:43Z</time>
   </trkpt>
   <trkpt lat="32.6136710" lon="35.1360230">
    <ele>135.2</ele>
    <time>2014-02-21T08:36:45Z</time>
   </trkpt>
   <trkpt lat="32.6136530" lon="35.1359860">
    <ele>135.4</ele>
    <time>2014-02-21T08:36:47Z</time>
   </trkpt>
   <trkpt lat="32.6136410" lon="35.1359430">
    <ele>135.7</ele>
    <time>2014-02-21T08:36:49Z</time>
   </trkpt>
   <trkpt lat="32.6136260" lon="35.1359040">
    <ele>135.9</ele>
    <time>2014-02-21T08:36:51Z</time>
   </trkpt>
   <trkpt lat="32.6136090" lon="35.1358680">
    <ele>136.2</ele>
    <time>2014-02-21T08:36:53Z</time>
   </trkpt>
   <trkpt lat="32.6135910" lon="35.1358320">
    <ele>136.5</ele>
    <time>2014-02-21T08:36:55Z</time>
   </trkpt>
   <trkpt lat="32.6135750" lon="35.1357940">
    <ele>136.7</ele>
    <time>2014-02-21T08:36:57Z</time>
   </trkpt>
   <trkpt lat="32.6135580" lon="35.1357560">
    <ele>137.0</ele>
    <time>2014-02-21T08:36:59Z</time>
   </trkpt>
   <trkpt lat="32.6135420" lon="35.1357180">
    <ele>137.3</ele>
    <time>2014-02-21T08:37:01Z</time>
   </trkpt>
   <trkpt lat="32.6135260" lon="35.1356820">
    <ele>137.6</ele>
    <time>2014-02-21T08:37:03Z</time>
   </trkpt>
   <trkpt lat="32.6135100" lon="35.1356440">
    <ele>137.9</ele>
    <time>2014-02-21T08:37:05Z</time>
   </trkpt>
   <trkpt lat="32.6134940" lon="35.1356060">
    <ele>138.2</ele>
    <time>2014-02-21T08:37:07Z</time>
   </trkpt>
   <trkpt lat="32.6134770" lon="35.1355670">
    <ele>138.5</ele>
    <time>2014-02-21T08:37:09Z</time>
   </trkpt>
   <trkpt lat="32.6134580" lon="35.1355270">
    <ele>138.9</ele>
    <time>2014-02-21T08:37:11Z</time>
   </trkpt>
   <trkpt lat="32.6134380" lon="35.1354880">
    <ele>139.2</ele>
    <time>2014-02-21T08:37:13Z</time>
   </trkpt>
   <trkpt lat="32.6134180" lon="35.1354480">
    <ele>139.6</ele>
    <time>2014-02-21T08:37:15Z</time>
   </trkpt>
   <trkpt lat="32.6133990" lon="35.1354100">
    <ele>139.9</ele>
    <time>2014-02-21T08:37:17Z</time>
   </trkpt>
   <trkpt lat="32.6133810" lon="35.1353710">
    <ele>139.9</ele>
    <time>2014-02-21T08:37:19Z</time>
   </trkpt>
   <trkpt lat="32.6133680" lon="35.1353290">
    <ele>139.8</ele>
    <time>2014-02-21T08:37:21Z</time>
   </trkpt>
   <trkpt lat="32.6133550" lon="35.1352870">
    <ele>139.8</ele>
    <time>2014-02-21T08:37:23Z</time>
   </trkpt>
   <trkpt lat="32.6133350" lon="35.1352460">
    <ele>139.8</ele>
    <time>2014-02-21T08:37:25Z</time>
   </trkpt>
   <trkpt lat="32.6133160" lon="35.1352070">
    <ele>139.8</ele>
    <time>2014-02-21T08:37:27Z</time>
   </trkpt>
   <trkpt lat="32.6132980" lon="35.1351660">
    <ele>139.8</ele>
    <time>2014-02-21T08:37:29Z</time>
   </trkpt>
   <trkpt lat="32.6132840" lon="35.1351240">
    <ele>139.7</ele>
    <time>2014-02-21T08:37:31Z</time>
   </trkpt>
   <trkpt lat="32.6132690" lon="35.1350810">
    <ele>139.7</ele>
    <time>2014-02-21T08:37:33Z</time>
   </trkpt>
   <trkpt lat="32.6132550" lon="35.1350360">
    <ele>139.6</ele>
    <time>2014-02-21T08:37:35Z</time>
   </trkpt>
   <trkpt lat="32.6132390" lon="35.1349920">
    <ele>139.6</ele>
    <time>2014-02-21T08:37:37Z</time>
   </trkpt>
   <trkpt lat="32.6132310" lon="35.1349410">
    <ele>139.4</ele>
    <time>2014-02-21T08:37:39Z</time>
   </trkpt>
   <trkpt lat="32.6132150" lon="35.1348820">
    <ele>139.3</ele>
    <time>2014-02-21T08:37:41Z</time>
   </trkpt>
   <trkpt lat="32.6131940" lon="35.1348310">
    <ele>139.3</ele>
    <time>2014-02-21T08:37:43Z</time>
   </trkpt>
   <trkpt lat="32.6131730" lon="35.1347820">
    <ele>139.3</ele>
    <time>2014-02-21T08:37:45Z</time>
   </trkpt>
   <trkpt lat="32.6131490" lon="35.1347360">
    <ele>139.4</ele>
    <time>2014-02-21T08:37:47Z</time>
   </trkpt>
   <trkpt lat="32.6131250" lon="35.1346900">
    <ele>139.4</ele>
    <time>2014-02-21T08:37:49Z</time>
   </trkpt>
   <trkpt lat="32.6131010" lon="35.1346410">
    <ele>139.5</ele>
    <time>2014-02-21T08:37:51Z</time>
   </trkpt>
   <trkpt lat="32.6130760" lon="35.1345930">
    <ele>139.5</ele>
    <time>2014-02-21T08:37:53Z</time>
   </trkpt>
   <trkpt lat="32.6130490" lon="35.1345500">
    <ele>139.8</ele>
    <time>2014-02-21T08:37:55Z</time>
   </trkpt>
   <trkpt lat="32.6130180" lon="35.1345100">
    <ele>140.2</ele>
    <time>2014-02-21T08:37:57Z</time>
   </trkpt>
   <trkpt lat="32.6129840" lon="35.1344720">
    <ele>140.5</ele>
    <time>2014-02-21T08:37:59Z</time>
   </trkpt>
   <trkpt lat="32.6129450" lon="35.1344360">
    <ele>140.8</ele>
    <time>2014-02-21T08:38:01Z</time>
   </trkpt>
   <trkpt lat="32.6129040" lon="35.1344020">
    <ele>141.2</ele>
    <time>2014-02-21T08:38:03Z</time>
   </trkpt>
   <trkpt lat="32.6128570" lon="35.1343700">
    <ele>141.7</ele>
    <time>2014-02-21T08:38:05Z</time>
   </trkpt>
   <trkpt lat="32.6128080" lon="35.1343440">
    <ele>142.3</ele>
    <time>2014-02-21T08:38:07Z</time>
   </trkpt>
   <trkpt lat="32.6127830" lon="35.1343310">
    <ele>142.6</ele>
    <time>2014-02-21T08:38:08Z</time>
   </trkpt>
   <trkpt lat="32.6127570" lon="35.1343180">
    <ele>142.9</ele>
    <time>2014-02-21T08:38:09Z</time>
   </trkpt>
   <trkpt lat="32.6127320" lon="35.1343050">
    <ele>143.1</ele>
    <time>2014-02-21T08:38:10Z</time>
   </trkpt>
   <trkpt lat="32.6126880" lon="35.1342730">
    <ele>143.6</ele>
    <time>2014-02-21T08:38:12Z</time>
   </trkpt>
   <trkpt lat="32.6126450" lon="35.1342410">
    <ele>144.1</ele>
    <time>2014-02-21T08:38:14Z</time>
   </trkpt>
   <trkpt lat="32.6126040" lon="35.1342110">
    <ele>144.5</ele>
    <time>2014-02-21T08:38:16Z</time>
   </trkpt>
   <trkpt lat="32.6125650" lon="35.1341790">
    <ele>144.8</ele>
    <time>2014-02-21T08:38:18Z</time>
   </trkpt>
   <trkpt lat="32.6125260" lon="35.1341480">
    <ele>145.2</ele>
    <time>2014-02-21T08:38:20Z</time>
   </trkpt>
   <trkpt lat="32.6124890" lon="35.1341160">
    <ele>145.5</ele>
    <time>2014-02-21T08:38:22Z</time>
   </trkpt>
   <trkpt lat="32.6124560" lon="35.1340800">
    <ele>145.7</ele>
    <time>2014-02-21T08:38:24Z</time>
   </trkpt>
   <trkpt lat="32.6124280" lon="35.1340420">
    <ele>145.9</ele>
    <time>2014-02-21T08:38:26Z</time>
   </trkpt>
   <trkpt lat="32.6123950" lon="35.1340030">
    <ele>146.1</ele>
    <time>2014-02-21T08:38:28Z</time>
   </trkpt>
   <trkpt lat="32.6123580" lon="35.1339700">
    <ele>146.4</ele>
    <time>2014-02-21T08:38:30Z</time>
   </trkpt>
   <trkpt lat="32.6123200" lon="35.1339380">
    <ele>146.7</ele>
    <time>2014-02-21T08:38:32Z</time>
   </trkpt>
   <trkpt lat="32.6122850" lon="35.1339040">
    <ele>146.9</ele>
    <time>2014-02-21T08:38:34Z</time>
   </trkpt>
   <trkpt lat="32.6122500" lon="35.1338710">
    <ele>147.1</ele>
    <time>2014-02-21T08:38:36Z</time>
   </trkpt>
   <trkpt lat="32.6122180" lon="35.1338330">
    <ele>147.2</ele>
    <time>2014-02-21T08:38:38Z</time>
   </trkpt>
   <trkpt lat="32.6121820" lon="35.1337980">
    <ele>147.4</ele>
    <time>2014-02-21T08:38:40Z</time>
   </trkpt>
   <trkpt lat="32.6121400" lon="35.1337730">
    <ele>147.6</ele>
    <time>2014-02-21T08:38:42Z</time>
   </trkpt>
   <trkpt lat="32.6120980" lon="35.1337510">
    <ele>147.9</ele>
    <time>2014-02-21T08:38:44Z</time>
   </trkpt>
   <trkpt lat="32.6120580" lon="35.1337240">
    <ele>148.6</ele>
    <time>2014-02-21T08:38:46Z</time>
   </trkpt>
   <trkpt lat="32.6120200" lon="35.1336960">
    <ele>149.3</ele>
    <time>2014-02-21T08:38:48Z</time>
   </trkpt>
   <trkpt lat="32.6119810" lon="35.1336720">
    <ele>150.1</ele>
    <time>2014-02-21T08:38:50Z</time>
   </trkpt>
   <trkpt lat="32.6119460" lon="35.1336440">
    <ele>150.8</ele>
    <time>2014-02-21T08:38:52Z</time>
   </trkpt>
   <trkpt lat="32.6119120" lon="35.1336140">
    <ele>151.4</ele>
    <time>2014-02-21T08:38:54Z</time>
   </trkpt>
   <trkpt lat="32.6118770" lon="35.1335840">
    <ele>152.0</ele>
    <time>2014-02-21T08:38:56Z</time>
   </trkpt>
   <trkpt lat="32.6118420" lon="35.1335550">
    <ele>152.6</ele>
    <time>2014-02-21T08:38:58Z</time>
   </trkpt>
   <trkpt lat="32.6118110" lon="35.1335230">
    <ele>153.1</ele>
    <time>2014-02-21T08:39:00Z</time>
   </trkpt>
   <trkpt lat="32.6117770" lon="35.1334930">
    <ele>153.7</ele>
    <time>2014-02-21T08:39:02Z</time>
   </trkpt>
   <trkpt lat="32.6117390" lon="35.1334660">
    <ele>154.2</ele>
    <time>2014-02-21T08:39:04Z</time>
   </trkpt>
   <trkpt lat="32.6117030" lon="35.1334360">
    <ele>154.7</ele>
    <time>2014-02-21T08:39:06Z</time>
   </trkpt>
   <trkpt lat="32.6116740" lon="35.1334020">
    <ele>155.1</ele>
    <time>2014-02-21T08:39:08Z</time>
   </trkpt>
   <trkpt lat="32.6116470" lon="35.1333640">
    <ele>155.5</ele>
    <time>2014-02-21T08:39:10Z</time>
   </trkpt>
   <trkpt lat="32.6116180" lon="35.1333310">
    <ele>155.8</ele>
    <time>2014-02-21T08:39:12Z</time>
   </trkpt>
   <trkpt lat="32.6115870" lon="35.1333030">
    <ele>156.1</ele>
    <time>2014-02-21T08:39:14Z</time>
   </trkpt>
   <trkpt lat="32.6115540" lon="35.1332830">
    <ele>156.5</ele>
    <time>2014-02-21T08:39:16Z</time>
   </trkpt>
   <trkpt lat="32.6115250" lon="35.1332570">
    <ele>156.8</ele>
    <time>2014-02-21T08:39:18Z</time>
   </trkpt>
   <trkpt lat="32.6114950" lon="35.1332270">
    <ele>157.0</ele>
    <time>2014-02-21T08:39:20Z</time>
   </trkpt>
   <trkpt lat="32.6114650" lon="35.1331990">
    <ele>157.3</ele>
    <time>2014-02-21T08:39:22Z</time>
   </trkpt>
   <trkpt lat="32.6114360" lon="35.1331710">
    <ele>157.5</ele>
    <time>2014-02-21T08:39:24Z</time>
   </trkpt>
   <trkpt lat="32.6114060" lon="35.1331440">
    <ele>157.7</ele>
    <time>2014-02-21T08:39:26Z</time>
   </trkpt>
   <trkpt lat="32.6113750" lon="35.1331180">
    <ele>157.9</ele>
    <time>2014-02-21T08:39:28Z</time>
   </trkpt>
   <trkpt lat="32.6113430" lon="35.1330900">
    <ele>158.1</ele>
    <time>2014-02-21T08:39:30Z</time>
   </trkpt>
   <trkpt lat="32.6113090" lon="35.1330590">
    <ele>158.2</ele>
    <time>2014-02-21T08:39:32Z</time>
   </trkpt>
   <trkpt lat="32.6112790" lon="35.1330230">
    <ele>158.3</ele>
    <time>2014-02-21T08:39:34Z</time>
   </trkpt>
   <trkpt lat="32.6112500" lon="35.1329890">
    <ele>158.3</ele>
    <time>2014-02-21T08:39:36Z</time>
   </trkpt>
   <trkpt lat="32.6112220" lon="35.1329520">
    <ele>158.7</ele>
    <time>2014-02-21T08:39:38Z</time>
   </trkpt>
   <trkpt lat="32.6111930" lon="35.1329150">
    <ele>159.2</ele>
    <time>2014-02-21T08:39:40Z</time>
   </trkpt>
   <trkpt lat="32.6111570" lon="35.1328820">
    <ele>159.8</ele>
    <time>2014-02-21T08:39:42Z</time>
   </trkpt>
   <trkpt lat="32.6111200" lon="35.1328330">
    <ele>160.4</ele>
    <time>2014-02-21T08:39:44Z</time>
   </trkpt>
   <trkpt lat="32.6111010" lon="35.1328040">
    <ele>160.7</ele>
    <time>2014-02-21T08:39:45Z</time>
   </trkpt>
   <trkpt lat="32.6110830" lon="35.1327740">
    <ele>161.0</ele>
    <time>2014-02-21T08:39:46Z</time>
   </trkpt>
   <trkpt lat="32.6110630" lon="35.1327440">
    <ele>161.4</ele>
    <time>2014-02-21T08:39:47Z</time>
   </trkpt>
   <trkpt lat="32.6110420" lon="35.1327160">
    <ele>161.7</ele>
    <time>2014-02-21T08:39:48Z</time>
   </trkpt>
   <trkpt lat="32.6110210" lon="35.1326880">
    <ele>162.0</ele>
    <time>2014-02-21T08:39:49Z</time>
   </trkpt>
   <trkpt lat="32.6110020" lon="35.1326590">
    <ele>162.3</ele>
    <time>2014-02-21T08:39:50Z</time>
   </trkpt>
   <trkpt lat="32.6109860" lon="35.1326270">
    <ele>162.6</ele>
    <time>2014-02-21T08:39:51Z</time>
   </trkpt>
   <trkpt lat="32.6109700" lon="35.1325960">
    <ele>162.8</ele>
    <time>2014-02-21T08:39:52Z</time>
   </trkpt>
   <trkpt lat="32.6109540" lon="35.1325680">
    <ele>163.1</ele>
    <time>2014-02-21T08:39:53Z</time>
   </trkpt>
   <trkpt lat="32.6109390" lon="35.1325420">
    <ele>163.3</ele>
    <time>2014-02-21T08:39:54Z</time>
   </trkpt>
   <trkpt lat="32.6109110" lon="35.1324970">
    <ele>163.7</ele>
    <time>2014-02-21T08:39:56Z</time>
   </trkpt>
   <trkpt lat="32.6108810" lon="35.1324510">
    <ele>164.2</ele>
    <time>2014-02-21T08:39:58Z</time>
   </trkpt>
   <trkpt lat="32.6108490" lon="35.1324030">
    <ele>164.7</ele>
    <time>2014-02-21T08:40:00Z</time>
   </trkpt>
   <trkpt lat="32.6108180" lon="35.1323540">
    <ele>165.1</ele>
    <time>2014-02-21T08:40:02Z</time>
   </trkpt>
   <trkpt lat="32.6107850" lon="35.1323070">
    <ele>165.6</ele>
    <time>2014-02-21T08:40:04Z</time>
   </trkpt>
   <trkpt lat="32.6107520" lon="35.1322580">
    <ele>166.1</ele>
    <time>2014-02-21T08:40:06Z</time>
   </trkpt>
   <trkpt lat="32.6107210" lon="35.1322070">
    <ele>166.5</ele>
    <time>2014-02-21T08:40:08Z</time>
   </trkpt>
   <trkpt lat="32.6106910" lon="35.1321580">
    <ele>167.0</ele>
    <time>2014-02-21T08:40:10Z</time>
   </trkpt>
   <trkpt lat="32.6106590" lon="35.1321110">
    <ele>167.4</ele>
    <time>2014-02-21T08:40:12Z</time>
   </trkpt>
   <trkpt lat="32.6106300" lon="35.1320760">
    <ele>167.9</ele>
    <time>2014-02-21T08:40:14Z</time>
   </trkpt>
   <trkpt lat="32.6105990" lon="35.1320520">
    <ele>168.3</ele>
    <time>2014-02-21T08:40:16Z</time>
   </trkpt>
   <trkpt lat="32.6105670" lon="35.1320340">
    <ele>168.8</ele>
    <time>2014-02-21T08:40:18Z</time>
   </trkpt>
   <trkpt lat="32.6105370" lon="35.1320130">
    <ele>169.2</ele>
    <time>2014-02-21T08:40:20Z</time>
   </trkpt>
   <trkpt lat="32.6105050" lon="35.1319930">
    <ele>169.6</ele>
    <time>2014-02-21T08:40:22Z</time>
   </trkpt>
   <trkpt lat="32.6104760" lon="35.1319660">
    <ele>170.0</ele>
    <time>2014-02-21T08:40:24Z</time>
   </trkpt>
   <trkpt lat="32.6104480" lon="35.1319330">
    <ele>170.2</ele>
    <time>2014-02-21T08:40:26Z</time>
   </trkpt>
   <trkpt lat="32.6104190" lon="35.1319020">
    <ele>170.4</ele>
    <time>2014-02-21T08:40:28Z</time>
   </trkpt>
   <trkpt lat="32.6103900" lon="35.1318690">
    <ele>170.5</ele>
    <time>2014-02-21T08:40:30Z</time>
   </trkpt>
   <trkpt lat="32.6103640" lon="35.1318320">
    <ele>170.5</ele>
    <time>2014-02-21T08:40:32Z</time>
   </trkpt>
   <trkpt lat="32.6103340" lon="35.1318010">
    <ele>170.6</ele>
    <time>2014-02-21T08:40:34Z</time>
   </trkpt>
   <trkpt lat="32.6103060" lon="35.1317660">
    <ele>170.6</ele>
    <time>2014-02-21T08:40:36Z</time>
   </trkpt>
   <trkpt lat="32.6102850" lon="35.1317270">
    <ele>170.5</ele>
    <time>2014-02-21T08:40:38Z</time>
   </trkpt>
   <trkpt lat="32.6102630" lon="35.1316870">
    <ele>170.5</ele>
    <time>2014-02-21T08:40:40Z</time>
   </trkpt>
   <trkpt lat="32.6102390" lon="35.1316470">
    <ele>170.5</ele>
    <time>2014-02-21T08:40:42Z</time>
   </trkpt>
   <trkpt lat="32.6102150" lon="35.1316060">
    <ele>170.5</ele>
    <time>2014-02-21T08:40:44Z</time>
   </trkpt>
   <trkpt lat="32.6101910" lon="35.1315640">
    <ele>170.5</ele>
    <time>2014-02-21T08:40:46Z</time>
   </trkpt>
   <trkpt lat="32.6101710" lon="35.1315190">
    <ele>170.4</ele>
    <time>2014-02-21T08:40:48Z</time>
   </trkpt>
   <trkpt lat="32.6101440" lon="35.1314790">
    <ele>170.5</ele>
    <time>2014-02-21T08:40:50Z</time>
   </trkpt>
   <trkpt lat="32.6101180" lon="35.1314370">
    <ele>170.5</ele>
    <time>2014-02-21T08:40:52Z</time>
   </trkpt>
   <trkpt lat="32.6100870" lon="35.1314010">
    <ele>170.7</ele>
    <time>2014-02-21T08:40:54Z</time>
   </trkpt>
   <trkpt lat="32.6100630" lon="35.1313620">
    <ele>170.8</ele>
    <time>2014-02-21T08:40:56Z</time>
   </trkpt>
   <trkpt lat="32.6100410" lon="35.1313250">
    <ele>170.9</ele>
    <time>2014-02-21T08:40:58Z</time>
   </trkpt>
   <trkpt lat="32.6100160" lon="35.1312900">
    <ele>171.0</ele>
    <time>2014-02-21T08:41:00Z</time>
   </trkpt>
   <trkpt lat="32.6099960" lon="35.1312500">
    <ele>171.1</ele>
    <time>2014-02-21T08:41:02Z</time>
   </trkpt>
   <trkpt lat="32.6099720" lon="35.1312100">
    <ele>171.6</ele>
    <time>2014-02-21T08:41:04Z</time>
   </trkpt>
   <trkpt lat="32.6099460" lon="35.1311720">
    <ele>172.1</ele>
    <time>2014-02-21T08:41:06Z</time>
   </trkpt>
   <trkpt lat="32.6099240" lon="35.1311320">
    <ele>172.6</ele>
    <time>2014-02-21T08:41:08Z</time>
   </trkpt>
   <trkpt lat="32.6099010" lon="35.1310910">
    <ele>173.0</ele>
    <time>2014-02-21T08:41:10Z</time>
   </trkpt>
   <trkpt lat="32.6098740" lon="35.1310510">
    <ele>173.5</ele>
    <time>2014-02-21T08:41:12Z</time>
   </trkpt>
   <trkpt lat="32.6098460" lon="35.1310130">
    <ele>173.9</ele>
    <time>2014-02-21T08:41:14Z</time>
   </trkpt>
   <trkpt lat="32.6098200" lon="35.1309740">
    <ele>174.3</ele>
    <time>2014-02-21T08:41:16Z</time>
   </trkpt>
   <trkpt lat="32.6097990" lon="35.1309350">
    <ele>174.6</ele>
    <time>2014-02-21T08:41:18Z</time>
   </trkpt>
   <trkpt lat="32.6097760" lon="35.1308930">
    <ele>174.9</ele>
    <time>2014-02-21T08:41:20Z</time>
   </trkpt>
   <trkpt lat="32.6097470" lon="35.1308540">
    <ele>175.2</ele>
    <time>2014-02-21T08:41:22Z</time>
   </trkpt>
   <trkpt lat="32.6097190" lon="35.1308180">
    <ele>175.5</ele>
    <time>2014-02-21T08:41:24Z</time>
   </trkpt>
   <trkpt lat="32.6096930" lon="35.1307810">
    <ele>175.7</ele>
    <time>2014-02-21T08:41:26Z</time>
   </trkpt>
   <trkpt lat="32.6096650" lon="35.1307430">
    <ele>175.9</ele>
    <time>2014-02-21T08:41:28Z</time>
   </trkpt>
   <trkpt lat="32.6096450" lon="35.1307010">
    <ele>176.0</ele>
    <time>2014-02-21T08:41:30Z</time>
   </trkpt>
   <trkpt lat="32.6096210" lon="35.1306620">
    <ele>176.1</ele>
    <time>2014-02-21T08:41:32Z</time>
   </trkpt>
   <trkpt lat="32.6095950" lon="35.1306260">
    <ele>176.2</ele>
    <time>2014-02-21T08:41:34Z</time>
   </trkpt>
   <trkpt lat="32.6095710" lon="35.1305920">
    <ele>176.2</ele>
    <time>2014-02-21T08:41:36Z</time>
   </trkpt>
   <trkpt lat="32.6095560" lon="35.1305540">
    <ele>176.2</ele>
    <time>2014-02-21T08:41:39Z</time>
   </trkpt>
   <trkpt lat="32.6095360" lon="35.1305140">
    <ele>176.1</ele>
    <time>2014-02-21T08:41:42Z</time>
   </trkpt>
   <trkpt lat="32.6095180" lon="35.1304860">
    <ele>176.1</ele>
    <time>2014-02-21T08:41:44Z</time>
   </trkpt>
   <trkpt lat="32.6094910" lon="35.1304620">
    <ele>176.1</ele>
    <time>2014-02-21T08:41:46Z</time>
   </trkpt>
   <trkpt lat="32.6094620" lon="35.1304330">
    <ele>176.0</ele>
    <time>2014-02-21T08:41:48Z</time>
   </trkpt>
   <trkpt lat="32.6094320" lon="35.1304050">
    <ele>176.1</ele>
    <time>2014-02-21T08:41:50Z</time>
   </trkpt>
   <trkpt lat="32.6094040" lon="35.1303740">
    <ele>176.4</ele>
    <time>2014-02-21T08:41:52Z</time>
   </trkpt>
   <trkpt lat="32.6093760" lon="35.1303410">
    <ele>176.6</ele>
    <time>2014-02-21T08:41:54Z</time>
   </trkpt>
   <trkpt lat="32.6093510" lon="35.1303060">
    <ele>176.8</ele>
    <time>2014-02-21T08:41:56Z</time>
   </trkpt>
   <trkpt lat="32.6093280" lon="35.1302700">
    <ele>177.0</ele>
    <time>2014-02-21T08:41:58Z</time>
   </trkpt>
   <trkpt lat="32.6093090" lon="35.1302320">
    <ele>177.2</ele>
    <time>2014-02-21T08:42:00Z</time>
   </trkpt>
   <trkpt lat="32.6092890" lon="35.1301920">
    <ele>177.4</ele>
    <time>2014-02-21T08:42:02Z</time>
   </trkpt>
   <trkpt lat="32.6092700" lon="35.1301540">
    <ele>177.5</ele>
    <time>2014-02-21T08:42:04Z</time>
   </trkpt>
   <trkpt lat="32.6092500" lon="35.1301190">
    <ele>177.6</ele>
    <time>2014-02-21T08:42:06Z</time>
   </trkpt>
   <trkpt lat="32.6092320" lon="35.1300840">
    <ele>177.6</ele>
    <time>2014-02-21T08:42:08Z</time>
   </trkpt>
   <trkpt lat="32.6092190" lon="35.1300480">
    <ele>177.7</ele>
    <time>2014-02-21T08:42:10Z</time>
   </trkpt>
   <trkpt lat="32.6092060" lon="35.1300120">
    <ele>177.8</ele>
    <time>2014-02-21T08:42:13Z</time>
   </trkpt>
   <trkpt lat="32.6091930" lon="35.1299760">
    <ele>177.8</ele>
    <time>2014-02-21T08:42:17Z</time>
   </trkpt>
   <trkpt lat="32.6091830" lon="35.1299440">
    <ele>177.9</ele>
    <time>2014-02-21T08:42:20Z</time>
   </trkpt>
   <trkpt lat="32.6091710" lon="35.1299080">
    <ele>177.9</ele>
    <time>2014-02-21T08:42:23Z</time>
   </trkpt>
   <trkpt lat="32.6091570" lon="35.1298700">
    <ele>177.9</ele>
    <time>2014-02-21T08:42:26Z</time>
   </trkpt>
   <trkpt lat="32.6091460" lon="35.1298310">
    <ele>177.9</ele>
    <time>2014-02-21T08:42:29Z</time>
   </trkpt>
   <trkpt lat="32.6091390" lon="35.1297890">
    <ele>177.9</ele>
    <time>2014-02-21T08:42:32Z</time>
   </trkpt>
   <trkpt lat="32.6091260" lon="35.1297440">
    <ele>177.9</ele>
    <time>2014-02-21T08:42:35Z</time>
   </trkpt>
   <trkpt lat="32.6091120" lon="35.1297130">
    <ele>177.8</ele>
    <time>2014-02-21T08:42:37Z</time>
   </trkpt>
   <trkpt lat="32.6090920" lon="35.1296770">
    <ele>177.5</ele>
    <time>2014-02-21T08:42:39Z</time>
   </trkpt>
   <trkpt lat="32.6090700" lon="35.1296420">
    <ele>177.3</ele>
    <time>2014-02-21T08:42:41Z</time>
   </trkpt>
   <trkpt lat="32.6090510" lon="35.1296160">
    <ele>177.0</ele>
    <time>2014-02-21T08:42:43Z</time>
   </trkpt>
   <trkpt lat="32.6090300" lon="35.1295940">
    <ele>176.7</ele>
    <time>2014-02-21T08:42:46Z</time>
   </trkpt>
   <trkpt lat="32.6090060" lon="35.1296120">
    <ele>176.3</ele>
    <time>2014-02-21T08:42:49Z</time>
   </trkpt>
   <trkpt lat="32.6090230" lon="35.1296480">
    <ele>176.5</ele>
    <time>2014-02-21T08:42:52Z</time>
   </trkpt>
   <trkpt lat="32.6090370" lon="35.1296770">
    <ele>176.7</ele>
    <time>2014-02-21T08:42:54Z</time>
   </trkpt>
   <trkpt lat="32.6090540" lon="35.1297190">
    <ele>176.9</ele>
    <time>2014-02-21T08:42:57Z</time>
   </trkpt>
   <trkpt lat="32.6090610" lon="35.1297530">
    <ele>177.0</ele>
    <time>2014-02-21T08:42:59Z</time>
   </trkpt>
   <trkpt lat="32.6090700" lon="35.1297910">
    <ele>177.0</ele>
    <time>2014-02-21T08:43:01Z</time>
   </trkpt>
   <trkpt lat="32.6090820" lon="35.1298300">
    <ele>177.1</ele>
    <time>2014-02-21T08:43:03Z</time>
   </trkpt>
   <trkpt lat="32.6090910" lon="35.1298640">
    <ele>177.1</ele>
    <time>2014-02-21T08:43:05Z</time>
   </trkpt>
   <trkpt lat="32.6091020" lon="35.1299030">
    <ele>177.2</ele>
    <time>2014-02-21T08:43:08Z</time>
   </trkpt>
   <trkpt lat="32.6091090" lon="35.1299380">
    <ele>177.2</ele>
    <time>2014-02-21T08:43:11Z</time>
   </trkpt>
   <trkpt lat="32.6091250" lon="35.1299790">
    <ele>177.2</ele>
    <time>2014-02-21T08:43:14Z</time>
   </trkpt>
   <trkpt lat="32.6091370" lon="35.1300310">
    <ele>177.2</ele>
    <time>2014-02-21T08:43:16Z</time>
   </trkpt>
   <trkpt lat="32.6091520" lon="35.1300750">
    <ele>177.1</ele>
    <time>2014-02-21T08:43:18Z</time>
   </trkpt>
   <trkpt lat="32.6091620" lon="35.1301070">
    <ele>177.1</ele>
    <time>2014-02-21T08:43:20Z</time>
   </trkpt>
   <trkpt lat="32.6091760" lon="35.1301490">
    <ele>177.0</ele>
    <time>2014-02-21T08:43:23Z</time>
   </trkpt>
   <trkpt lat="32.6091940" lon="35.1301930">
    <ele>176.9</ele>
    <time>2014-02-21T08:43:26Z</time>
   </trkpt>
   <trkpt lat="32.6092070" lon="35.1302270">
    <ele>176.8</ele>
    <time>2014-02-21T08:43:28Z</time>
   </trkpt>
   <trkpt lat="32.6092200" lon="35.1302630">
    <ele>176.7</ele>
    <time>2014-02-21T08:43:30Z</time>
   </trkpt>
   <trkpt lat="32.6092340" lon="35.1302950">
    <ele>176.6</ele>
    <time>2014-02-21T08:43:32Z</time>
   </trkpt>
   <trkpt lat="32.6092510" lon="35.1303220">
    <ele>176.5</ele>
    <time>2014-02-21T08:43:34Z</time>
   </trkpt>
   <trkpt lat="32.6092760" lon="35.1303560">
    <ele>176.4</ele>
    <time>2014-02-21T08:43:37Z</time>
   </trkpt>
   <trkpt lat="32.6092950" lon="35.1303810">
    <ele>176.2</ele>
    <time>2014-02-21T08:43:41Z</time>
   </trkpt>
   <trkpt lat="32.6093150" lon="35.1303500">
    <ele>176.4</ele>
    <time>2014-02-21T08:43:45Z</time>
   </trkpt>
   <trkpt lat="32.6092960" lon="35.1303230">
    <ele>176.6</ele>
    <time>2014-02-21T08:43:47Z</time>
   </trkpt>
   <trkpt lat="32.6092720" lon="35.1302890">
    <ele>176.7</ele>
    <time>2014-02-21T08:43:49Z</time>
   </trkpt>
   <trkpt lat="32.6092550" lon="35.1302500">
    <ele>176.9</ele>
    <time>2014-02-21T08:43:51Z</time>
   </trkpt>
   <trkpt lat="32.6092370" lon="35.1302100">
    <ele>177.0</ele>
    <time>2014-02-21T08:43:53Z</time>
   </trkpt>
   <trkpt lat="32.6092190" lon="35.1301740">
    <ele>177.1</ele>
    <time>2014-02-21T08:43:55Z</time>
   </trkpt>
   <trkpt lat="32.6092050" lon="35.1301400">
    <ele>177.2</ele>
    <time>2014-02-21T08:43:57Z</time>
   </trkpt>
   <trkpt lat="32.6091910" lon="35.1301050">
    <ele>177.3</ele>
    <time>2014-02-21T08:43:59Z</time>
   </trkpt>
   <trkpt lat="32.6091770" lon="35.1300690">
    <ele>177.3</ele>
    <time>2014-02-21T08:44:01Z</time>
   </trkpt>
   <trkpt lat="32.6091700" lon="35.1300320">
    <ele>177.4</ele>
    <time>2014-02-21T08:44:03Z</time>
   </trkpt>
   <trkpt lat="32.6091660" lon="35.1299960">
    <ele>177.5</ele>
    <time>2014-02-21T08:44:05Z</time>
   </trkpt>
   <trkpt lat="32.6091600" lon="35.1299630">
    <ele>177.6</ele>
    <time>2014-02-21T08:44:07Z</time>
   </trkpt>
   <trkpt lat="32.6091470" lon="35.1299240">
    <ele>177.6</ele>
    <time>2014-02-21T08:44:10Z</time>
   </trkpt>
   <trkpt lat="32.6091300" lon="35.1298870">
    <ele>177.5</ele>
    <time>2014-02-21T08:44:13Z</time>
   </trkpt>
   <trkpt lat="32.6091240" lon="35.1298550">
    <ele>177.5</ele>
    <time>2014-02-21T08:44:15Z</time>
   </trkpt>
   <trkpt lat="32.6091140" lon="35.1298170">
    <ele>177.5</ele>
    <time>2014-02-21T08:44:17Z</time>
   </trkpt>
   <trkpt lat="32.6090960" lon="35.1297700">
    <ele>177.4</ele>
    <time>2014-02-21T08:44:19Z</time>
   </trkpt>
   <trkpt lat="32.6090790" lon="35.1297240">
    <ele>177.3</ele>
    <time>2014-02-21T08:44:21Z</time>
   </trkpt>
   <trkpt lat="32.6090620" lon="35.1296800">
    <ele>177.1</ele>
    <time>2014-02-21T08:44:23Z</time>
   </trkpt>
   <trkpt lat="32.6090420" lon="35.1296360">
    <ele>176.8</ele>
    <time>2014-02-21T08:44:25Z</time>
   </trkpt>
   <trkpt lat="32.6090160" lon="35.1295950">
    <ele>176.5</ele>
    <time>2014-02-21T08:44:27Z</time>
   </trkpt>
   <trkpt lat="32.6089810" lon="35.1295620">
    <ele>175.9</ele>
    <time>2014-02-21T08:44:29Z</time>
   </trkpt>
   <trkpt lat="32.6089420" lon="35.1295300">
    <ele>175.2</ele>
    <time>2014-02-21T08:44:31Z</time>
   </trkpt>
   <trkpt lat="32.6089250" lon="35.1294870">
    <ele>175.0</ele>
    <time>2014-02-21T08:44:33Z</time>
   </trkpt>
   <trkpt lat="32.6089330" lon="35.1294560">
    <ele>175.1</ele>
    <time>2014-02-21T08:44:35Z</time>
   </trkpt>
   <trkpt lat="32.6089430" lon="35.1294260">
    <ele>175.3</ele>
    <time>2014-02-21T08:44:38Z</time>
   </trkpt>
   <trkpt lat="32.6089640" lon="35.1293910">
    <ele>175.7</ele>
    <time>2014-02-21T08:44:41Z</time>
   </trkpt>
   <trkpt lat="32.6089840" lon="35.1293610">
    <ele>176.1</ele>
    <time>2014-02-21T08:44:43Z</time>
   </trkpt>
   <trkpt lat="32.6090030" lon="35.1293310">
    <ele>176.6</ele>
    <time>2014-02-21T08:44:45Z</time>
   </trkpt>
   <trkpt lat="32.6090240" lon="35.1293010">
    <ele>177.0</ele>
    <time>2014-02-21T08:44:47Z</time>
   </trkpt>
   <trkpt lat="32.6090450" lon="35.1292740">
    <ele>177.5</ele>
    <time>2014-02-21T08:44:49Z</time>
   </trkpt>
   <trkpt lat="32.6090650" lon="35.1292460">
    <ele>178.0</ele>
    <time>2014-02-21T08:44:51Z</time>
   </trkpt>
   <trkpt lat="32.6090910" lon="35.1292270">
    <ele>178.6</ele>
    <time>2014-02-21T08:44:53Z</time>
   </trkpt>
   <trkpt lat="32.6091140" lon="35.1292040">
    <ele>179.2</ele>
    <time>2014-02-21T08:44:55Z</time>
   </trkpt>
   <trkpt lat="32.6091400" lon="35.1291910">
    <ele>179.8</ele>
    <time>2014-02-21T08:44:57Z</time>
   </trkpt>
   <trkpt lat="32.6091670" lon="35.1291930">
    <ele>180.4</ele>
    <time>2014-02-21T08:44:59Z</time>
   </trkpt>
   <trkpt lat="32.6091950" lon="35.1291930">
    <ele>181.0</ele>
    <time>2014-02-21T08:45:01Z</time>
   </trkpt>
   <trkpt lat="32.6091810" lon="35.1291550">
    <ele>180.9</ele>
    <time>2014-02-21T08:45:29Z</time>
   </trkpt>
   <trkpt lat="32.6091590" lon="35.1291230">
    <ele>180.5</ele>
    <time>2014-02-21T08:45:32Z</time>
   </trkpt>
   <trkpt lat="32.6091320" lon="35.1291440">
    <ele>179.8</ele>
    <time>2014-02-21T08:45:43Z</time>
   </trkpt>
   <trkpt lat="32.6091590" lon="35.1291210">
    <ele>180.5</ele>
    <time>2014-02-21T08:45:51Z</time>
   </trkpt>
   <trkpt lat="32.6091480" lon="35.1290910">
    <ele>180.3</ele>
    <time>2014-02-21T08:45:57Z</time>
   </trkpt>
   <trkpt lat="32.6091850" lon="35.1291020">
    <ele>181.2</ele>
    <time>2014-02-21T08:49:32Z</time>
   </trkpt>
   <trkpt lat="32.6092210" lon="35.1291170">
    <ele>182.0</ele>
    <time>2014-02-21T08:49:34Z</time>
   </trkpt>
   <trkpt lat="32.6092550" lon="35.1291320">
    <ele>182.7</ele>
    <time>2014-02-21T08:49:36Z</time>
   </trkpt>
   <trkpt lat="32.6092860" lon="35.1291460">
    <ele>183.3</ele>
    <time>2014-02-21T08:49:38Z</time>
   </trkpt>
   <trkpt lat="32.6093180" lon="35.1291570">
    <ele>184.0</ele>
    <time>2014-02-21T08:49:40Z</time>
   </trkpt>
   <trkpt lat="32.6093490" lon="35.1291700">
    <ele>184.6</ele>
    <time>2014-02-21T08:49:42Z</time>
   </trkpt>
   <trkpt lat="32.6093760" lon="35.1291890">
    <ele>185.1</ele>
    <time>2014-02-21T08:49:44Z</time>
   </trkpt>
   <trkpt lat="32.6093990" lon="35.1292080">
    <ele>185.5</ele>
    <time>2014-02-21T08:49:46Z</time>
   </trkpt>
   <trkpt lat="32.6094300" lon="35.1292150">
    <ele>186.1</ele>
    <time>2014-02-21T08:49:48Z</time>
   </trkpt>
   <trkpt lat="32.6094630" lon="35.1292220">
    <ele>186.8</ele>
    <time>2014-02-21T08:49:50Z</time>
   </trkpt>
   <trkpt lat="32.6095060" lon="35.1292290">
    <ele>187.7</ele>
    <time>2014-02-21T08:49:52Z</time>
   </trkpt>
   <trkpt lat="32.6095460" lon="35.1292270">
    <ele>188.6</ele>
    <time>2014-02-21T08:49:54Z</time>
   </trkpt>
   <trkpt lat="32.6095860" lon="35.1292290">
    <ele>189.4</ele>
    <time>2014-02-21T08:49:56Z</time>
   </trkpt>
   <trkpt lat="32.6096260" lon="35.1292230">
    <ele>189.9</ele>
    <time>2014-02-21T08:49:58Z</time>
   </trkpt>
   <trkpt lat="32.6096640" lon="35.1292190">
    <ele>190.4</ele>
    <time>2014-02-21T08:50:00Z</time>
   </trkpt>
   <trkpt lat="32.6096970" lon="35.1292260">
    <ele>190.7</ele>
    <time>2014-02-21T08:50:02Z</time>
   </trkpt>
   <trkpt lat="32.6097290" lon="35.1292350">
    <ele>190.9</ele>
    <time>2014-02-21T08:50:05Z</time>
   </trkpt>
   <trkpt lat="32.6097570" lon="35.1292530">
    <ele>191.0</ele>
    <time>2014-02-21T08:50:09Z</time>
   </trkpt>
   <trkpt lat="32.6097650" lon="35.1292090">
    <ele>191.7</ele>
    <time>2014-02-21T08:50:12Z</time>
   </trkpt>
   <trkpt lat="32.6097620" lon="35.1291680">
    <ele>192.1</ele>
    <time>2014-02-21T08:50:14Z</time>
   </trkpt>
   <trkpt lat="32.6097590" lon="35.1291200">
    <ele>192.7</ele>
    <time>2014-02-21T08:50:16Z</time>
   </trkpt>
   <trkpt lat="32.6097650" lon="35.1290780">
    <ele>193.3</ele>
    <time>2014-02-21T08:50:18Z</time>
   </trkpt>
   <trkpt lat="32.6097600" lon="35.1290380">
    <ele>193.7</ele>
    <time>2014-02-21T08:50:20Z</time>
   </trkpt>
   <trkpt lat="32.6097530" lon="35.1289990">
    <ele>194.1</ele>
    <time>2014-02-21T08:50:22Z</time>
   </trkpt>
   <trkpt lat="32.6097540" lon="35.1289480">
    <ele>194.7</ele>
    <time>2014-02-21T08:50:24Z</time>
   </trkpt>
   <trkpt lat="32.6097430" lon="35.1289030">
    <ele>195.1</ele>
    <time>2014-02-21T08:50:26Z</time>
   </trkpt>
   <trkpt lat="32.6097260" lon="35.1288650">
    <ele>195.2</ele>
    <time>2014-02-21T08:50:28Z</time>
   </trkpt>
   <trkpt lat="32.6097090" lon="35.1288260">
    <ele>195.4</ele>
    <time>2014-02-21T08:50:30Z</time>
   </trkpt>
   <trkpt lat="32.6096950" lon="35.1287900">
    <ele>195.6</ele>
    <time>2014-02-21T08:50:32Z</time>
   </trkpt>
   <trkpt lat="32.6096830" lon="35.1287610">
    <ele>195.7</ele>
    <time>2014-02-21T08:50:34Z</time>
   </trkpt>
   <trkpt lat="32.6096690" lon="35.1287180">
    <ele>195.7</ele>
    <time>2014-02-21T08:50:37Z</time>
   </trkpt>
   <trkpt lat="32.6096460" lon="35.1287000">
    <ele>195.4</ele>
    <time>2014-02-21T08:50:39Z</time>
   </trkpt>
   <trkpt lat="32.6096230" lon="35.1286770">
    <ele>195.2</ele>
    <time>2014-02-21T08:50:41Z</time>
   </trkpt>
   <trkpt lat="32.6095990" lon="35.1286490">
    <ele>194.9</ele>
    <time>2014-02-21T08:50:43Z</time>
   </trkpt>
   <trkpt lat="32.6095750" lon="35.1286200">
    <ele>194.5</ele>
    <time>2014-02-21T08:50:45Z</time>
   </trkpt>
   <trkpt lat="32.6095500" lon="35.1285860">
    <ele>194.0</ele>
    <time>2014-02-21T08:50:47Z</time>
   </trkpt>
   <trkpt lat="32.6095300" lon="35.1285520">
    <ele>193.5</ele>
    <time>2014-02-21T08:50:49Z</time>
   </trkpt>
   <trkpt lat="32.6095190" lon="35.1285110">
    <ele>193.4</ele>
    <time>2014-02-21T08:50:51Z</time>
   </trkpt>
   <trkpt lat="32.6095120" lon="35.1284690">
    <ele>193.4</ele>
    <time>2014-02-21T08:50:53Z</time>
   </trkpt>
   <trkpt lat="32.6095110" lon="35.1284260">
    <ele>193.6</ele>
    <time>2014-02-21T08:50:55Z</time>
   </trkpt>
   <trkpt lat="32.6095010" lon="35.1283760">
    <ele>193.6</ele>
    <time>2014-02-21T08:50:57Z</time>
   </trkpt>
   <trkpt lat="32.6094880" lon="35.1283470">
    <ele>193.3</ele>
    <time>2014-02-21T08:50:58Z</time>
   </trkpt>
   <trkpt lat="32.6094640" lon="35.1282970">
    <ele>192.7</ele>
    <time>2014-02-21T08:51:00Z</time>
   </trkpt>
   <trkpt lat="32.6094540" lon="35.1282500">
    <ele>192.6</ele>
    <time>2014-02-21T08:51:02Z</time>
   </trkpt>
   <trkpt lat="32.6094370" lon="35.1282080">
    <ele>192.2</ele>
    <time>2014-02-21T08:51:04Z</time>
   </trkpt>
   <trkpt lat="32.6094230" lon="35.1281650">
    <ele>191.9</ele>
    <time>2014-02-21T08:51:06Z</time>
   </trkpt>
   <trkpt lat="32.6094080" lon="35.1281200">
    <ele>191.6</ele>
    <time>2014-02-21T08:51:08Z</time>
   </trkpt>
   <trkpt lat="32.6094010" lon="35.1280700">
    <ele>191.6</ele>
    <time>2014-02-21T08:51:10Z</time>
   </trkpt>
   <trkpt lat="32.6093950" lon="35.1280170">
    <ele>191.6</ele>
    <time>2014-02-21T08:51:12Z</time>
   </trkpt>
   <trkpt lat="32.6093850" lon="35.1279660">
    <ele>191.4</ele>
    <time>2014-02-21T08:51:14Z</time>
   </trkpt>
   <trkpt lat="32.6093760" lon="35.1279180">
    <ele>191.3</ele>
    <time>2014-02-21T08:51:16Z</time>
   </trkpt>
   <trkpt lat="32.6093780" lon="35.1278710">
    <ele>191.5</ele>
    <time>2014-02-21T08:51:18Z</time>
   </trkpt>
   <trkpt lat="32.6093760" lon="35.1278250">
    <ele>191.6</ele>
    <time>2014-02-21T08:51:20Z</time>
   </trkpt>
   <trkpt lat="32.6093710" lon="35.1277770">
    <ele>191.6</ele>
    <time>2014-02-21T08:51:22Z</time>
   </trkpt>
   <trkpt lat="32.6093580" lon="35.1277250">
    <ele>191.4</ele>
    <time>2014-02-21T08:51:24Z</time>
   </trkpt>
   <trkpt lat="32.6093470" lon="35.1276720">
    <ele>191.2</ele>
    <time>2014-02-21T08:51:26Z</time>
   </trkpt>
   <trkpt lat="32.6093480" lon="35.1276180">
    <ele>191.4</ele>
    <time>2014-02-21T08:51:28Z</time>
   </trkpt>
   <trkpt lat="32.6093440" lon="35.1275650">
    <ele>191.5</ele>
    <time>2014-02-21T08:51:30Z</time>
   </trkpt>
   <trkpt lat="32.6093410" lon="35.1275060">
    <ele>191.6</ele>
    <time>2014-02-21T08:51:32Z</time>
   </trkpt>
   <trkpt lat="32.6093420" lon="35.1274720">
    <ele>191.8</ele>
    <time>2014-02-21T08:51:33Z</time>
   </trkpt>
   <trkpt lat="32.6093400" lon="35.1274370">
    <ele>191.8</ele>
    <time>2014-02-21T08:51:34Z</time>
   </trkpt>
   <trkpt lat="32.6093350" lon="35.1274040">
    <ele>191.8</ele>
    <time>2014-02-21T08:51:35Z</time>
   </trkpt>
   <trkpt lat="32.6093260" lon="35.1273720">
    <ele>191.6</ele>
    <time>2014-02-21T08:51:36Z</time>
   </trkpt>
   <trkpt lat="32.6093160" lon="35.1273380">
    <ele>191.4</ele>
    <time>2014-02-21T08:51:37Z</time>
   </trkpt>
   <trkpt lat="32.6093070" lon="35.1273030">
    <ele>191.2</ele>
    <time>2014-02-21T08:51:38Z</time>
   </trkpt>
   <trkpt lat="32.6092970" lon="35.1272580">
    <ele>191.0</ele>
    <time>2014-02-21T08:51:39Z</time>
   </trkpt>
   <trkpt lat="32.6092850" lon="35.1272090">
    <ele>190.8</ele>
    <time>2014-02-21T08:51:40Z</time>
   </trkpt>
   <trkpt lat="32.6092730" lon="35.1271590">
    <ele>190.5</ele>
    <time>2014-02-21T08:51:41Z</time>
   </trkpt>
   <trkpt lat="32.6092640" lon="35.1271060">
    <ele>190.4</ele>
    <time>2014-02-21T08:51:42Z</time>
   </trkpt>
   <trkpt lat="32.6092550" lon="35.1270560">
    <ele>190.2</ele>
    <time>2014-02-21T08:51:43Z</time>
   </trkpt>
   <trkpt lat="32.6092440" lon="35.1270060">
    <ele>189.9</ele>
    <time>2014-02-21T08:51:44Z</time>
   </trkpt>
   <trkpt lat="32.6092300" lon="35.1269580">
    <ele>189.5</ele>
    <time>2014-02-21T08:51:45Z</time>
   </trkpt>
   <trkpt lat="32.6092160" lon="35.1269080">
    <ele>189.1</ele>
    <time>2014-02-21T08:51:46Z</time>
   </trkpt>
   <trkpt lat="32.6092020" lon="35.1268580">
    <ele>188.7</ele>
    <time>2014-02-21T08:51:47Z</time>
   </trkpt>
   <trkpt lat="32.6091870" lon="35.1268050">
    <ele>188.4</ele>
    <time>2014-02-21T08:51:48Z</time>
   </trkpt>
   <trkpt lat="32.6091460" lon="35.1267240">
    <ele>187.2</ele>
    <time>2014-02-21T08:51:49Z</time>
   </trkpt>
   <trkpt lat="32.6091190" lon="35.1266620">
    <ele>186.5</ele>
    <time>2014-02-21T08:51:50Z</time>
   </trkpt>
   <trkpt lat="32.6090980" lon="35.1266030">
    <ele>186.0</ele>
    <time>2014-02-21T08:51:51Z</time>
   </trkpt>
   <trkpt lat="32.6090750" lon="35.1265320">
    <ele>185.5</ele>
    <time>2014-02-21T08:51:52Z</time>
   </trkpt>
   <trkpt lat="32.6090440" lon="35.1264670">
    <ele>184.7</ele>
    <time>2014-02-21T08:51:53Z</time>
   </trkpt>
   <trkpt lat="32.6090050" lon="35.1264080">
    <ele>183.7</ele>
    <time>2014-02-21T08:51:54Z</time>
   </trkpt>
   <trkpt lat="32.6089750" lon="35.1263400">
    <ele>183.1</ele>
    <time>2014-02-21T08:51:55Z</time>
   </trkpt>
   <trkpt lat="32.6089380" lon="35.1262800">
    <ele>182.3</ele>
    <time>2014-02-21T08:51:56Z</time>
   </trkpt>
   <trkpt lat="32.6089050" lon="35.1262160">
    <ele>181.6</ele>
    <time>2014-02-21T08:51:57Z</time>
   </trkpt>
   <trkpt lat="32.6088700" lon="35.1261580">
    <ele>180.9</ele>
    <time>2014-02-21T08:51:58Z</time>
   </trkpt>
   <trkpt lat="32.6088400" lon="35.1260920">
    <ele>180.4</ele>
    <time>2014-02-21T08:51:59Z</time>
   </trkpt>
   <trkpt lat="32.6088200" lon="35.1260230">
    <ele>180.2</ele>
    <time>2014-02-21T08:52:00Z</time>
   </trkpt>
   <trkpt lat="32.6088060" lon="35.1259470">
    <ele>180.3</ele>
    <time>2014-02-21T08:52:01Z</time>
   </trkpt>
   <trkpt lat="32.6087910" lon="35.1258840">
    <ele>180.2</ele>
    <time>2014-02-21T08:52:02Z</time>
   </trkpt>
   <trkpt lat="32.6087920" lon="35.1258080">
    <ele>180.7</ele>
    <time>2014-02-21T08:52:03Z</time>
   </trkpt>
   <trkpt lat="32.6088030" lon="35.1257220">
    <ele>181.5</ele>
    <time>2014-02-21T08:52:04Z</time>
   </trkpt>
   <trkpt lat="32.6088150" lon="35.1256310">
    <ele>182.2</ele>
    <time>2014-02-21T08:52:05Z</time>
   </trkpt>
   <trkpt lat="32.6088050" lon="35.1255390">
    <ele>182.5</ele>
    <time>2014-02-21T08:52:06Z</time>
   </trkpt>
   <trkpt lat="32.6087570" lon="35.1254600">
    <ele>181.9</ele>
    <time>2014-02-21T08:52:07Z</time>
   </trkpt>
   <trkpt lat="32.6087260" lon="35.1253760">
    <ele>182.4</ele>
    <time>2014-02-21T08:52:08Z</time>
   </trkpt>
   <trkpt lat="32.6086530" lon="35.1253360">
    <ele>183.2</ele>
    <time>2014-02-21T08:52:09Z</time>
   </trkpt>
   <trkpt lat="32.6085980" lon="35.1252760">
    <ele>183.7</ele>
    <time>2014-02-21T08:52:10Z</time>
   </trkpt>
   <trkpt lat="32.6085550" lon="35.1252220">
    <ele>184.1</ele>
    <time>2014-02-21T08:52:11Z</time>
   </trkpt>
   <trkpt lat="32.6085030" lon="35.1251750">
    <ele>184.4</ele>
    <time>2014-02-21T08:52:12Z</time>
   </trkpt>
   <trkpt lat="32.6084630" lon="35.1251140">
    <ele>184.6</ele>
    <time>2014-02-21T08:52:13Z</time>
   </trkpt>
   <trkpt lat="32.6084780" lon="35.1250180">
    <ele>184.6</ele>
    <time>2014-02-21T08:52:14Z</time>
   </trkpt>
   <trkpt lat="32.6084660" lon="35.1249510">
    <ele>184.7</ele>
    <time>2014-02-21T08:52:15Z</time>
   </trkpt>
   <trkpt lat="32.6084490" lon="35.1248910">
    <ele>184.7</ele>
    <time>2014-02-21T08:52:16Z</time>
   </trkpt>
   <trkpt lat="32.6084430" lon="35.1248250">
    <ele>184.7</ele>
    <time>2014-02-21T08:52:17Z</time>
   </trkpt>
   <trkpt lat="32.6084310" lon="35.1247660">
    <ele>184.7</ele>
    <time>2014-02-21T08:52:18Z</time>
   </trkpt>
   <trkpt lat="32.6084200" lon="35.1247040">
    <ele>184.6</ele>
    <time>2014-02-21T08:52:19Z</time>
   </trkpt>
   <trkpt lat="32.6084010" lon="35.1246480">
    <ele>184.5</ele>
    <time>2014-02-21T08:52:20Z</time>
   </trkpt>
   <trkpt lat="32.6083880" lon="35.1246040">
    <ele>184.4</ele>
    <time>2014-02-21T08:52:21Z</time>
   </trkpt>
   <trkpt lat="32.6083750" lon="35.1245690">
    <ele>184.3</ele>
    <time>2014-02-21T08:52:22Z</time>
   </trkpt>
   <trkpt lat="32.6083730" lon="35.1245270">
    <ele>184.3</ele>
    <time>2014-02-21T08:52:23Z</time>
   </trkpt>
   <trkpt lat="32.6083710" lon="35.1244860">
    <ele>184.4</ele>
    <time>2014-02-21T08:52:24Z</time>
   </trkpt>
   <trkpt lat="32.6083690" lon="35.1244500">
    <ele>184.4</ele>
    <time>2014-02-21T08:52:25Z</time>
   </trkpt>
   <trkpt lat="32.6083570" lon="35.1244160">
    <ele>184.3</ele>
    <time>2014-02-21T08:52:26Z</time>
   </trkpt>
   <trkpt lat="32.6083540" lon="35.1243820">
    <ele>184.3</ele>
    <time>2014-02-21T08:52:27Z</time>
   </trkpt>
   <trkpt lat="32.6083440" lon="35.1243500">
    <ele>184.2</ele>
    <time>2014-02-21T08:52:28Z</time>
   </trkpt>
   <trkpt lat="32.6083430" lon="35.1243150">
    <ele>184.2</ele>
    <time>2014-02-21T08:52:29Z</time>
   </trkpt>
   <trkpt lat="32.6083310" lon="35.1242480">
    <ele>184.2</ele>
    <time>2014-02-21T08:52:31Z</time>
   </trkpt>
   <trkpt lat="32.6083170" lon="35.1242170">
    <ele>184.1</ele>
    <time>2014-02-21T08:52:32Z</time>
   </trkpt>
   <trkpt lat="32.6083090" lon="35.1241820">
    <ele>184.0</ele>
    <time>2014-02-21T08:52:33Z</time>
   </trkpt>
   <trkpt lat="32.6083000" lon="35.1241450">
    <ele>183.9</ele>
    <time>2014-02-21T08:52:34Z</time>
   </trkpt>
   <trkpt lat="32.6082930" lon="35.1241060">
    <ele>183.9</ele>
    <time>2014-02-21T08:52:35Z</time>
   </trkpt>
   <trkpt lat="32.6082890" lon="35.1240660">
    <ele>183.8</ele>
    <time>2014-02-21T08:52:36Z</time>
   </trkpt>
   <trkpt lat="32.6082820" lon="35.1240230">
    <ele>183.8</ele>
    <time>2014-02-21T08:52:37Z</time>
   </trkpt>
   <trkpt lat="32.6082740" lon="35.1239730">
    <ele>183.7</ele>
    <time>2014-02-21T08:52:38Z</time>
   </trkpt>
   <trkpt lat="32.6082650" lon="35.1239220">
    <ele>183.6</ele>
    <time>2014-02-21T08:52:39Z</time>
   </trkpt>
   <trkpt lat="32.6082570" lon="35.1238690">
    <ele>183.5</ele>
    <time>2014-02-21T08:52:40Z</time>
   </trkpt>
   <trkpt lat="32.6082470" lon="35.1238140">
    <ele>183.4</ele>
    <time>2014-02-21T08:52:41Z</time>
   </trkpt>
   <trkpt lat="32.6082380" lon="35.1237360">
    <ele>183.4</ele>
    <time>2014-02-21T08:52:42Z</time>
   </trkpt>
   <trkpt lat="32.6082450" lon="35.1236880">
    <ele>183.9</ele>
    <time>2014-02-21T08:52:43Z</time>
   </trkpt>
   <trkpt lat="32.6082710" lon="35.1236270">
    <ele>184.7</ele>
    <time>2014-02-21T08:52:44Z</time>
   </trkpt>
   <trkpt lat="32.6082970" lon="35.1235800">
    <ele>185.4</ele>
    <time>2014-02-21T08:52:45Z</time>
   </trkpt>
   <trkpt lat="32.6083240" lon="35.1235220">
    <ele>186.2</ele>
    <time>2014-02-21T08:52:46Z</time>
   </trkpt>
   <trkpt lat="32.6083590" lon="35.1234580">
    <ele>187.0</ele>
    <time>2014-02-21T08:52:47Z</time>
   </trkpt>
   <trkpt lat="32.6083800" lon="35.1234260">
    <ele>187.4</ele>
    <time>2014-02-21T08:52:48Z</time>
   </trkpt>
   <trkpt lat="32.6084000" lon="35.1233970">
    <ele>187.8</ele>
    <time>2014-02-21T08:52:49Z</time>
   </trkpt>
   <trkpt lat="32.6084260" lon="35.1233690">
    <ele>188.2</ele>
    <time>2014-02-21T08:52:50Z</time>
   </trkpt>
   <trkpt lat="32.6084510" lon="35.1233460">
    <ele>188.6</ele>
    <time>2014-02-21T08:52:51Z</time>
   </trkpt>
   <trkpt lat="32.6084930" lon="35.1233760">
    <ele>188.8</ele>
    <time>2014-02-21T08:52:55Z</time>
   </trkpt>
   <trkpt lat="32.6085190" lon="35.1234010">
    <ele>188.8</ele>
    <time>2014-02-21T08:52:56Z</time>
   </trkpt>
   <trkpt lat="32.6085130" lon="35.1234350">
    <ele>188.6</ele>
    <time>2014-02-21T08:52:57Z</time>
   </trkpt>
   <trkpt lat="32.6085520" lon="35.1234640">
    <ele>188.8</ele>
    <time>2014-02-21T08:52:59Z</time>
   </trkpt>
   <trkpt lat="32.6085850" lon="35.1234950">
    <ele>189.0</ele>
    <time>2014-02-21T08:53:01Z</time>
   </trkpt>
   <trkpt lat="32.6086130" lon="35.1235300">
    <ele>189.1</ele>
    <time>2014-02-21T08:53:03Z</time>
   </trkpt>
   <trkpt lat="32.6086500" lon="35.1235490">
    <ele>189.4</ele>
    <time>2014-02-21T08:53:05Z</time>
   </trkpt>
   <trkpt lat="32.6086960" lon="35.1235580">
    <ele>189.9</ele>
    <time>2014-02-21T08:53:07Z</time>
   </trkpt>
   <trkpt lat="32.6087410" lon="35.1235520">
    <ele>190.4</ele>
    <time>2014-02-21T08:53:09Z</time>
   </trkpt>
   <trkpt lat="32.6087830" lon="35.1235210">
    <ele>190.9</ele>
    <time>2014-02-21T08:53:11Z</time>
   </trkpt>
   <trkpt lat="32.6088170" lon="35.1234930">
    <ele>191.2</ele>
    <time>2014-02-21T08:53:13Z</time>
   </trkpt>
   <trkpt lat="32.6088460" lon="35.1234700">
    <ele>191.5</ele>
    <time>2014-02-21T08:53:15Z</time>
   </trkpt>
   <trkpt lat="32.6088610" lon="35.1234430">
    <ele>191.7</ele>
    <time>2014-02-21T08:53:17Z</time>
   </trkpt>
   <trkpt lat="32.6088600" lon="35.1234100">
    <ele>191.7</ele>
    <time>2014-02-21T08:53:19Z</time>
   </trkpt>
   <trkpt lat="32.6088710" lon="35.1233700">
    <ele>191.9</ele>
    <time>2014-02-21T08:53:22Z</time>
   </trkpt>
   <trkpt lat="32.6088770" lon="35.1233360">
    <ele>192.0</ele>
    <time>2014-02-21T08:53:25Z</time>
   </trkpt>
   <trkpt lat="32.6088820" lon="35.1232980">
    <ele>192.1</ele>
    <time>2014-02-21T08:53:28Z</time>
   </trkpt>
   <trkpt lat="32.6088900" lon="35.1232490">
    <ele>192.2</ele>
    <time>2014-02-21T08:53:31Z</time>
   </trkpt>
   <trkpt lat="32.6089060" lon="35.1231950">
    <ele>192.4</ele>
    <time>2014-02-21T08:53:33Z</time>
   </trkpt>
   <trkpt lat="32.6089160" lon="35.1231370">
    <ele>192.5</ele>
    <time>2014-02-21T08:53:35Z</time>
   </trkpt>
   <trkpt lat="32.6089400" lon="35.1230980">
    <ele>192.7</ele>
    <time>2014-02-21T08:53:37Z</time>
   </trkpt>
   <trkpt lat="32.6089670" lon="35.1230680">
    <ele>192.9</ele>
    <time>2014-02-21T08:53:39Z</time>
   </trkpt>
   <trkpt lat="32.6089810" lon="35.1230330">
    <ele>193.0</ele>
    <time>2014-02-21T08:53:41Z</time>
   </trkpt>
   <trkpt lat="32.6089970" lon="35.1229980">
    <ele>193.1</ele>
    <time>2014-02-21T08:53:43Z</time>
   </trkpt>
   <trkpt lat="32.6090070" lon="35.1229640">
    <ele>193.2</ele>
    <time>2014-02-21T08:53:45Z</time>
   </trkpt>
   <trkpt lat="32.6090210" lon="35.1229330">
    <ele>193.3</ele>
    <time>2014-02-21T08:53:47Z</time>
   </trkpt>
   <trkpt lat="32.6090340" lon="35.1229020">
    <ele>193.6</ele>
    <time>2014-02-21T08:53:49Z</time>
   </trkpt>
   <trkpt lat="32.6090400" lon="35.1228690">
    <ele>194.1</ele>
    <time>2014-02-21T08:53:51Z</time>
   </trkpt>
   <trkpt lat="32.6090450" lon="35.1228280">
    <ele>194.7</ele>
    <time>2014-02-21T08:53:54Z</time>
   </trkpt>
   <trkpt lat="32.6090570" lon="35.1227900">
    <ele>195.3</ele>
    <time>2014-02-21T08:53:57Z</time>
   </trkpt>
   <trkpt lat="32.6090740" lon="35.1227600">
    <ele>195.9</ele>
    <time>2014-02-21T08:54:00Z</time>
   </trkpt>
   <trkpt lat="32.6090910" lon="35.1227270">
    <ele>196.4</ele>
    <time>2014-02-21T08:54:03Z</time>
   </trkpt>
   <trkpt lat="32.6090910" lon="35.1226920">
    <ele>196.9</ele>
    <time>2014-02-21T08:54:06Z</time>
   </trkpt>
   <trkpt lat="32.6090540" lon="35.1227160">
    <ele>196.4</ele>
    <time>2014-02-21T08:54:11Z</time>
   </trkpt>
   <trkpt lat="32.6090140" lon="35.1227610">
    <ele>195.6</ele>
    <time>2014-02-21T08:54:13Z</time>
   </trkpt>
   <trkpt lat="32.6089950" lon="35.1227870">
    <ele>195.1</ele>
    <time>2014-02-21T08:54:14Z</time>
   </trkpt>
   <trkpt lat="32.6089760" lon="35.1228140">
    <ele>194.6</ele>
    <time>2014-02-21T08:54:15Z</time>
   </trkpt>
   <trkpt lat="32.6089590" lon="35.1228420">
    <ele>194.1</ele>
    <time>2014-02-21T08:54:16Z</time>
   </trkpt>
   <trkpt lat="32.6089440" lon="35.1228700">
    <ele>193.6</ele>
    <time>2014-02-21T08:54:17Z</time>
   </trkpt>
   <trkpt lat="32.6089240" lon="35.1229200">
    <ele>192.8</ele>
    <time>2014-02-21T08:54:19Z</time>
   </trkpt>
   <trkpt lat="32.6089330" lon="35.1229510">
    <ele>192.8</ele>
    <time>2014-02-21T08:54:25Z</time>
   </trkpt>
   <trkpt lat="32.6089050" lon="35.1229560">
    <ele>192.7</ele>
    <time>2014-02-21T08:55:58Z</time>
   </trkpt>
   <trkpt lat="32.6089150" lon="35.1229220">
    <ele>192.8</ele>
    <time>2014-02-21T08:56:05Z</time>
   </trkpt>
   <trkpt lat="32.6089260" lon="35.1228930">
    <ele>193.2</ele>
    <time>2014-02-21T08:56:06Z</time>
   </trkpt>
   <trkpt lat="32.6089370" lon="35.1228630">
    <ele>193.7</ele>
    <time>2014-02-21T08:56:07Z</time>
   </trkpt>
   <trkpt lat="32.6089520" lon="35.1228350">
    <ele>194.2</ele>
    <time>2014-02-21T08:56:08Z</time>
   </trkpt>
   <trkpt lat="32.6089840" lon="35.1227820">
    <ele>195.1</ele>
    <time>2014-02-21T08:56:10Z</time>
   </trkpt>
   <trkpt lat="32.6090010" lon="35.1227550">
    <ele>195.6</ele>
    <time>2014-02-21T08:56:11Z</time>
   </trkpt>
   <trkpt lat="32.6090180" lon="35.1227290">
    <ele>196.1</ele>
    <time>2014-02-21T08:56:12Z</time>
   </trkpt>
   <trkpt lat="32.6090350" lon="35.1227020">
    <ele>196.5</ele>
    <time>2014-02-21T08:56:13Z</time>
   </trkpt>
   <trkpt lat="32.6090510" lon="35.1226760">
    <ele>197.0</ele>
    <time>2014-02-21T08:56:14Z</time>
   </trkpt>
   <trkpt lat="32.6090690" lon="35.1226500">
    <ele>197.4</ele>
    <time>2014-02-21T08:56:15Z</time>
   </trkpt>
   <trkpt lat="32.6090890" lon="35.1226250">
    <ele>197.9</ele>
    <time>2014-02-21T08:56:16Z</time>
   </trkpt>
   <trkpt lat="32.6091110" lon="35.1226030">
    <ele>198.3</ele>
    <time>2014-02-21T08:56:17Z</time>
   </trkpt>
   <trkpt lat="32.6091320" lon="35.1225840">
    <ele>198.7</ele>
    <time>2014-02-21T08:56:18Z</time>
   </trkpt>
   <trkpt lat="32.6091730" lon="35.1225550">
    <ele>199.2</ele>
    <time>2014-02-21T08:56:20Z</time>
   </trkpt>
   <trkpt lat="32.6092060" lon="35.1225180">
    <ele>199.9</ele>
    <time>2014-02-21T08:56:22Z</time>
   </trkpt>
   <trkpt lat="32.6092140" lon="35.1224740">
    <ele>200.5</ele>
    <time>2014-02-21T08:56:24Z</time>
   </trkpt>
   <trkpt lat="32.6092000" lon="35.1224270">
    <ele>201.2</ele>
    <time>2014-02-21T08:56:26Z</time>
   </trkpt>
   <trkpt lat="32.6091750" lon="35.1223830">
    <ele>201.7</ele>
    <time>2014-02-21T08:56:28Z</time>
   </trkpt>
   <trkpt lat="32.6091390" lon="35.1223560">
    <ele>202.0</ele>
    <time>2014-02-21T08:56:30Z</time>
   </trkpt>
   <trkpt lat="32.6091010" lon="35.1223360">
    <ele>202.2</ele>
    <time>2014-02-21T08:56:32Z</time>
   </trkpt>
   <trkpt lat="32.6090630" lon="35.1223160">
    <ele>202.3</ele>
    <time>2014-02-21T08:56:34Z</time>
   </trkpt>
   <trkpt lat="32.6090230" lon="35.1222940">
    <ele>202.5</ele>
    <time>2014-02-21T08:56:36Z</time>
   </trkpt>
   <trkpt lat="32.6089820" lon="35.1222690">
    <ele>202.8</ele>
    <time>2014-02-21T08:56:38Z</time>
   </trkpt>
   <trkpt lat="32.6089570" lon="35.1222540">
    <ele>202.9</ele>
    <time>2014-02-21T08:56:39Z</time>
   </trkpt>
   <trkpt lat="32.6089120" lon="35.1222230">
    <ele>203.3</ele>
    <time>2014-02-21T08:56:41Z</time>
   </trkpt>
   <trkpt lat="32.6088770" lon="35.1221840">
    <ele>203.8</ele>
    <time>2014-02-21T08:56:43Z</time>
   </trkpt>
   <trkpt lat="32.6088530" lon="35.1221400">
    <ele>204.4</ele>
    <time>2014-02-21T08:56:45Z</time>
   </trkpt>
   <trkpt lat="32.6088490" lon="35.1220940">
    <ele>205.1</ele>
    <time>2014-02-21T08:56:47Z</time>
   </trkpt>
   <trkpt lat="32.6088710" lon="35.1220520">
    <ele>206.1</ele>
    <time>2014-02-21T08:56:49Z</time>
   </trkpt>
   <trkpt lat="32.6089010" lon="35.1220360">
    <ele>206.7</ele>
    <time>2014-02-21T08:56:51Z</time>
   </trkpt>
   <trkpt lat="32.6089320" lon="35.1220290">
    <ele>206.9</ele>
    <time>2014-02-21T08:56:54Z</time>
   </trkpt>
   <trkpt lat="32.6089630" lon="35.1220150">
    <ele>207.4</ele>
    <time>2014-02-21T08:56:57Z</time>
   </trkpt>
   <trkpt lat="32.6089940" lon="35.1220020">
    <ele>207.8</ele>
    <time>2014-02-21T08:57:00Z</time>
   </trkpt>
   <trkpt lat="32.6090290" lon="35.1220090">
    <ele>207.7</ele>
    <time>2014-02-21T08:57:03Z</time>
   </trkpt>
   <trkpt lat="32.6090640" lon="35.1219990">
    <ele>208.0</ele>
    <time>2014-02-21T08:57:05Z</time>
   </trkpt>
   <trkpt lat="32.6091000" lon="35.1219810">
    <ele>208.6</ele>
    <time>2014-02-21T08:57:07Z</time>
   </trkpt>
   <trkpt lat="32.6091370" lon="35.1219830">
    <ele>208.6</ele>
    <time>2014-02-21T08:57:09Z</time>
   </trkpt>
   <trkpt lat="32.6091700" lon="35.1219890">
    <ele>208.6</ele>
    <time>2014-02-21T08:57:11Z</time>
   </trkpt>
   <trkpt lat="32.6092000" lon="35.1219880">
    <ele>208.6</ele>
    <time>2014-02-21T08:57:13Z</time>
   </trkpt>
   <trkpt lat="32.6092340" lon="35.1219750">
    <ele>209.1</ele>
    <time>2014-02-21T08:57:15Z</time>
   </trkpt>
   <trkpt lat="32.6092730" lon="35.1219670">
    <ele>209.4</ele>
    <time>2014-02-21T08:57:17Z</time>
   </trkpt>
   <trkpt lat="32.6093180" lon="35.1219600">
    <ele>209.7</ele>
    <time>2014-02-21T08:57:19Z</time>
   </trkpt>
   <trkpt lat="32.6093650" lon="35.1219500">
    <ele>210.0</ele>
    <time>2014-02-21T08:57:21Z</time>
   </trkpt>
   <trkpt lat="32.6094070" lon="35.1219430">
    <ele>210.3</ele>
    <time>2014-02-21T08:57:23Z</time>
   </trkpt>
   <trkpt lat="32.6094410" lon="35.1219380">
    <ele>210.5</ele>
    <time>2014-02-21T08:57:25Z</time>
   </trkpt>
   <trkpt lat="32.6094800" lon="35.1219200">
    <ele>211.1</ele>
    <time>2014-02-21T08:57:28Z</time>
   </trkpt>
   <trkpt lat="32.6095070" lon="35.1218960">
    <ele>211.8</ele>
    <time>2014-02-21T08:57:30Z</time>
   </trkpt>
   <trkpt lat="32.6095410" lon="35.1218640">
    <ele>212.7</ele>
    <time>2014-02-21T08:57:32Z</time>
   </trkpt>
   <trkpt lat="32.6095820" lon="35.1218440">
    <ele>213.3</ele>
    <time>2014-02-21T08:57:34Z</time>
   </trkpt>
   <trkpt lat="32.6096220" lon="35.1218250">
    <ele>213.6</ele>
    <time>2014-02-21T08:57:36Z</time>
   </trkpt>
   <trkpt lat="32.6096600" lon="35.1218010">
    <ele>214.0</ele>
    <time>2014-02-21T08:57:38Z</time>
   </trkpt>
   <trkpt lat="32.6096940" lon="35.1217700">
    <ele>214.5</ele>
    <time>2014-02-21T08:57:40Z</time>
   </trkpt>
   <trkpt lat="32.6097320" lon="35.1217410">
    <ele>214.9</ele>
    <time>2014-02-21T08:57:42Z</time>
   </trkpt>
   <trkpt lat="32.6097670" lon="35.1217240">
    <ele>215.1</ele>
    <time>2014-02-21T08:57:44Z</time>
   </trkpt>
   <trkpt lat="32.6098030" lon="35.1216990">
    <ele>215.4</ele>
    <time>2014-02-21T08:57:47Z</time>
   </trkpt>
   <trkpt lat="32.6098550" lon="35.1216550">
    <ele>216.0</ele>
    <time>2014-02-21T08:57:49Z</time>
   </trkpt>
   <trkpt lat="32.6098830" lon="35.1216290">
    <ele>216.3</ele>
    <time>2014-02-21T08:57:50Z</time>
   </trkpt>
   <trkpt lat="32.6099090" lon="35.1216090">
    <ele>216.5</ele>
    <time>2014-02-21T08:57:51Z</time>
   </trkpt>
   <trkpt lat="32.6099350" lon="35.1215920">
    <ele>216.6</ele>
    <time>2014-02-21T08:57:52Z</time>
   </trkpt>
   <trkpt lat="32.6099600" lon="35.1215760">
    <ele>216.7</ele>
    <time>2014-02-21T08:57:53Z</time>
   </trkpt>
   <trkpt lat="32.6099860" lon="35.1215540">
    <ele>216.9</ele>
    <time>2014-02-21T08:57:54Z</time>
   </trkpt>
   <trkpt lat="32.6100170" lon="35.1215320">
    <ele>217.1</ele>
    <time>2014-02-21T08:57:55Z</time>
   </trkpt>
   <trkpt lat="32.6100510" lon="35.1215120">
    <ele>217.1</ele>
    <time>2014-02-21T08:57:56Z</time>
   </trkpt>
   <trkpt lat="32.6101010" lon="35.1214930">
    <ele>216.9</ele>
    <time>2014-02-21T08:57:57Z</time>
   </trkpt>
   <trkpt lat="32.6101780" lon="35.1214850">
    <ele>216.2</ele>
    <time>2014-02-21T08:57:58Z</time>
   </trkpt>
   <trkpt lat="32.6102360" lon="35.1214780">
    <ele>215.7</ele>
    <time>2014-02-21T08:57:59Z</time>
   </trkpt>
   <trkpt lat="32.6102940" lon="35.1214970">
    <ele>214.8</ele>
    <time>2014-02-21T08:58:00Z</time>
   </trkpt>
   <trkpt lat="32.6103530" lon="35.1215120">
    <ele>213.9</ele>
    <time>2014-02-21T08:58:01Z</time>
   </trkpt>
   <trkpt lat="32.6104120" lon="35.1215290">
    <ele>213.0</ele>
    <time>2014-02-21T08:58:02Z</time>
   </trkpt>
   <trkpt lat="32.6104650" lon="35.1215310">
    <ele>212.3</ele>
    <time>2014-02-21T08:58:03Z</time>
   </trkpt>
   <trkpt lat="32.6105120" lon="35.1215280">
    <ele>211.7</ele>
    <time>2014-02-21T08:58:04Z</time>
   </trkpt>
   <trkpt lat="32.6105530" lon="35.1214980">
    <ele>211.4</ele>
    <time>2014-02-21T08:58:05Z</time>
   </trkpt>
   <trkpt lat="32.6105910" lon="35.1215090">
    <ele>210.8</ele>
    <time>2014-02-21T08:58:06Z</time>
   </trkpt>
   <trkpt lat="32.6106360" lon="35.1214940">
    <ele>210.3</ele>
    <time>2014-02-21T08:58:07Z</time>
   </trkpt>
   <trkpt lat="32.6106620" lon="35.1215130">
    <ele>209.7</ele>
    <time>2014-02-21T08:58:08Z</time>
   </trkpt>
   <trkpt lat="32.6107030" lon="35.1215090">
    <ele>209.2</ele>
    <time>2014-02-21T08:58:09Z</time>
   </trkpt>
   <trkpt lat="32.6107360" lon="35.1215130">
    <ele>208.7</ele>
    <time>2014-02-21T08:58:10Z</time>
   </trkpt>
   <trkpt lat="32.6107680" lon="35.1215150">
    <ele>208.2</ele>
    <time>2014-02-21T08:58:11Z</time>
   </trkpt>
   <trkpt lat="32.6108010" lon="35.1215220">
    <ele>207.7</ele>
    <time>2014-02-21T08:58:12Z</time>
   </trkpt>
   <trkpt lat="32.6108380" lon="35.1215220">
    <ele>207.1</ele>
    <time>2014-02-21T08:58:13Z</time>
   </trkpt>
   <trkpt lat="32.6108660" lon="35.1215250">
    <ele>206.7</ele>
    <time>2014-02-21T08:58:14Z</time>
   </trkpt>
   <trkpt lat="32.6109150" lon="35.1215370">
    <ele>206.0</ele>
    <time>2014-02-21T08:58:16Z</time>
   </trkpt>
   <trkpt lat="32.6109620" lon="35.1215580">
    <ele>205.2</ele>
    <time>2014-02-21T08:58:18Z</time>
   </trkpt>
   <trkpt lat="32.6110040" lon="35.1215860">
    <ele>204.6</ele>
    <time>2014-02-21T08:58:20Z</time>
   </trkpt>
   <trkpt lat="32.6110520" lon="35.1216150">
    <ele>203.9</ele>
    <time>2014-02-21T08:58:22Z</time>
   </trkpt>
   <trkpt lat="32.6110830" lon="35.1216300">
    <ele>203.5</ele>
    <time>2014-02-21T08:58:23Z</time>
   </trkpt>
   <trkpt lat="32.6111180" lon="35.1216450">
    <ele>203.0</ele>
    <time>2014-02-21T08:58:24Z</time>
   </trkpt>
   <trkpt lat="32.6111530" lon="35.1216630">
    <ele>202.6</ele>
    <time>2014-02-21T08:58:25Z</time>
   </trkpt>
   <trkpt lat="32.6111880" lon="35.1216850">
    <ele>202.2</ele>
    <time>2014-02-21T08:58:26Z</time>
   </trkpt>
   <trkpt lat="32.6112230" lon="35.1217100">
    <ele>201.8</ele>
    <time>2014-02-21T08:58:27Z</time>
   </trkpt>
   <trkpt lat="32.6112590" lon="35.1217370">
    <ele>201.4</ele>
    <time>2014-02-21T08:58:28Z</time>
   </trkpt>
   <trkpt lat="32.6112960" lon="35.1217690">
    <ele>200.5</ele>
    <time>2014-02-21T08:58:29Z</time>
   </trkpt>
   <trkpt lat="32.6113350" lon="35.1218080">
    <ele>199.6</ele>
    <time>2014-02-21T08:58:30Z</time>
   </trkpt>
   <trkpt lat="32.6113670" lon="35.1218560">
    <ele>198.9</ele>
    <time>2014-02-21T08:58:31Z</time>
   </trkpt>
   <trkpt lat="32.6113900" lon="35.1219130">
    <ele>198.6</ele>
    <time>2014-02-21T08:58:32Z</time>
   </trkpt>
   <trkpt lat="32.6114170" lon="35.1219680">
    <ele>198.1</ele>
    <time>2014-02-21T08:58:33Z</time>
   </trkpt>
   <trkpt lat="32.6114580" lon="35.1220120">
    <ele>197.4</ele>
    <time>2014-02-21T08:58:34Z</time>
   </trkpt>
   <trkpt lat="32.6114840" lon="35.1220660">
    <ele>197.1</ele>
    <time>2014-02-21T08:58:35Z</time>
   </trkpt>
   <trkpt lat="32.6115080" lon="35.1221040">
    <ele>197.0</ele>
    <time>2014-02-21T08:58:36Z</time>
   </trkpt>
   <trkpt lat="32.6115390" lon="35.1221570">
    <ele>196.9</ele>
    <time>2014-02-21T08:58:37Z</time>
   </trkpt>
   <trkpt lat="32.6115590" lon="35.1222130">
    <ele>197.2</ele>
    <time>2014-02-21T08:58:38Z</time>
   </trkpt>
   <trkpt lat="32.6115890" lon="35.1222620">
    <ele>197.3</ele>
    <time>2014-02-21T08:58:39Z</time>
   </trkpt>
   <trkpt lat="32.6116080" lon="35.1223040">
    <ele>197.5</ele>
    <time>2014-02-21T08:58:40Z</time>
   </trkpt>
   <trkpt lat="32.6116410" lon="35.1223300">
    <ele>197.3</ele>
    <time>2014-02-21T08:58:41Z</time>
   </trkpt>
   <trkpt lat="32.6116610" lon="35.1223700">
    <ele>197.5</ele>
    <time>2014-02-21T08:58:42Z</time>
   </trkpt>
   <trkpt lat="32.6116730" lon="35.1224200">
    <ele>198.1</ele>
    <time>2014-02-21T08:58:43Z</time>
   </trkpt>
   <trkpt lat="32.6117360" lon="35.1224180">
    <ele>197.2</ele>
    <time>2014-02-21T08:58:44Z</time>
   </trkpt>
   <trkpt lat="32.6117750" lon="35.1224520">
    <ele>197.2</ele>
    <time>2014-02-21T08:58:45Z</time>
   </trkpt>
   <trkpt lat="32.6118040" lon="35.1224810">
    <ele>197.4</ele>
    <time>2014-02-21T08:58:46Z</time>
   </trkpt>
   <trkpt lat="32.6118430" lon="35.1224890">
    <ele>197.0</ele>
    <time>2014-02-21T08:58:47Z</time>
   </trkpt>
   <trkpt lat="32.6118990" lon="35.1224920">
    <ele>196.5</ele>
    <time>2014-02-21T08:58:48Z</time>
   </trkpt>
   <trkpt lat="32.6119360" lon="35.1224910">
    <ele>196.0</ele>
    <time>2014-02-21T08:58:49Z</time>
   </trkpt>
   <trkpt lat="32.6119760" lon="35.1224900">
    <ele>195.5</ele>
    <time>2014-02-21T08:58:50Z</time>
   </trkpt>
   <trkpt lat="32.6120230" lon="35.1224700">
    <ele>194.5</ele>
    <time>2014-02-21T08:58:51Z</time>
   </trkpt>
   <trkpt lat="32.6120840" lon="35.1224310">
    <ele>192.9</ele>
    <time>2014-02-21T08:58:52Z</time>
   </trkpt>
   <trkpt lat="32.6121260" lon="35.1224040">
    <ele>192.0</ele>
    <time>2014-02-21T08:58:53Z</time>
   </trkpt>
   <trkpt lat="32.6121780" lon="35.1223830">
    <ele>191.2</ele>
    <time>2014-02-21T08:58:54Z</time>
   </trkpt>
   <trkpt lat="32.6122310" lon="35.1223570">
    <ele>190.2</ele>
    <time>2014-02-21T08:58:55Z</time>
   </trkpt>
   <trkpt lat="32.6122630" lon="35.1223480">
    <ele>189.8</ele>
    <time>2014-02-21T08:58:56Z</time>
   </trkpt>
   <trkpt lat="32.6122980" lon="35.1223430">
    <ele>189.4</ele>
    <time>2014-02-21T08:58:57Z</time>
   </trkpt>
   <trkpt lat="32.6123390" lon="35.1223370">
    <ele>189.0</ele>
    <time>2014-02-21T08:58:58Z</time>
   </trkpt>
   <trkpt lat="32.6123710" lon="35.1223520">
    <ele>189.2</ele>
    <time>2014-02-21T08:58:59Z</time>
   </trkpt>
   <trkpt lat="32.6124050" lon="35.1223640">
    <ele>189.2</ele>
    <time>2014-02-21T08:59:00Z</time>
   </trkpt>
   <trkpt lat="32.6124440" lon="35.1223720">
    <ele>189.2</ele>
    <time>2014-02-21T08:59:01Z</time>
   </trkpt>
   <trkpt lat="32.6124780" lon="35.1223850">
    <ele>189.2</ele>
    <time>2014-02-21T08:59:02Z</time>
   </trkpt>
   <trkpt lat="32.6125140" lon="35.1224010">
    <ele>189.4</ele>
    <time>2014-02-21T08:59:03Z</time>
   </trkpt>
   <trkpt lat="32.6125470" lon="35.1224230">
    <ele>189.8</ele>
    <time>2014-02-21T08:59:04Z</time>
   </trkpt>
   <trkpt lat="32.6125750" lon="35.1224530">
    <ele>190.3</ele>
    <time>2014-02-21T08:59:05Z</time>
   </trkpt>
   <trkpt lat="32.6126080" lon="35.1224740">
    <ele>190.7</ele>
    <time>2014-02-21T08:59:06Z</time>
   </trkpt>
   <trkpt lat="32.6126410" lon="35.1224960">
    <ele>191.0</ele>
    <time>2014-02-21T08:59:07Z</time>
   </trkpt>
   <trkpt lat="32.6126720" lon="35.1225190">
    <ele>191.5</ele>
    <time>2014-02-21T08:59:08Z</time>
   </trkpt>
   <trkpt lat="32.6127030" lon="35.1225460">
    <ele>192.0</ele>
    <time>2014-02-21T08:59:09Z</time>
   </trkpt>
   <trkpt lat="32.6127350" lon="35.1225710">
    <ele>192.5</ele>
    <time>2014-02-21T08:59:10Z</time>
   </trkpt>
   <trkpt lat="32.6127650" lon="35.1225970">
    <ele>193.0</ele>
    <time>2014-02-21T08:59:11Z</time>
   </trkpt>
   <trkpt lat="32.6127970" lon="35.1226220">
    <ele>193.5</ele>
    <time>2014-02-21T08:59:12Z</time>
   </trkpt>
   <trkpt lat="32.6128310" lon="35.1226480">
    <ele>194.0</ele>
    <time>2014-02-21T08:59:13Z</time>
   </trkpt>
   <trkpt lat="32.6128650" lon="35.1226720">
    <ele>194.5</ele>
    <time>2014-02-21T08:59:14Z</time>
   </trkpt>
   <trkpt lat="32.6128980" lon="35.1226950">
    <ele>195.0</ele>
    <time>2014-02-21T08:59:15Z</time>
   </trkpt>
   <trkpt lat="32.6129310" lon="35.1227170">
    <ele>195.6</ele>
    <time>2014-02-21T08:59:16Z</time>
   </trkpt>
   <trkpt lat="32.6129650" lon="35.1227380">
    <ele>196.4</ele>
    <time>2014-02-21T08:59:17Z</time>
   </trkpt>
   <trkpt lat="32.6129980" lon="35.1227560">
    <ele>197.1</ele>
    <time>2014-02-21T08:59:18Z</time>
   </trkpt>
   <trkpt lat="32.6130330" lon="35.1227690">
    <ele>197.7</ele>
    <time>2014-02-21T08:59:19Z</time>
   </trkpt>
   <trkpt lat="32.6130690" lon="35.1227790">
    <ele>198.1</ele>
    <time>2014-02-21T08:59:20Z</time>
   </trkpt>
   <trkpt lat="32.6131040" lon="35.1227590">
    <ele>197.9</ele>
    <time>2014-02-21T08:59:21Z</time>
   </trkpt>
   <trkpt lat="32.6131340" lon="35.1227210">
    <ele>197.2</ele>
    <time>2014-02-21T08:59:22Z</time>
   </trkpt>
   <trkpt lat="32.6131540" lon="35.1226730">
    <ele>196.2</ele>
    <time>2014-02-21T08:59:23Z</time>
   </trkpt>
   <trkpt lat="32.6131690" lon="35.1226260">
    <ele>195.3</ele>
    <time>2014-02-21T08:59:24Z</time>
   </trkpt>
   <trkpt lat="32.6131830" lon="35.1225790">
    <ele>194.3</ele>
    <time>2014-02-21T08:59:25Z</time>
   </trkpt>
   <trkpt lat="32.6131970" lon="35.1225350">
    <ele>193.5</ele>
    <time>2014-02-21T08:59:26Z</time>
   </trkpt>
   <trkpt lat="32.6132160" lon="35.1224950">
    <ele>192.8</ele>
    <time>2014-02-21T08:59:27Z</time>
   </trkpt>
   <trkpt lat="32.6132370" lon="35.1224580">
    <ele>192.2</ele>
    <time>2014-02-21T08:59:28Z</time>
   </trkpt>
   <trkpt lat="32.6132600" lon="35.1224220">
    <ele>191.8</ele>
    <time>2014-02-21T08:59:29Z</time>
   </trkpt>
   <trkpt lat="32.6132800" lon="35.1223900">
    <ele>191.4</ele>
    <time>2014-02-21T08:59:30Z</time>
   </trkpt>
   <trkpt lat="32.6133000" lon="35.1223590">
    <ele>191.0</ele>
    <time>2014-02-21T08:59:31Z</time>
   </trkpt>
   <trkpt lat="32.6133230" lon="35.1223290">
    <ele>190.7</ele>
    <time>2014-02-21T08:59:32Z</time>
   </trkpt>
   <trkpt lat="32.6133470" lon="35.1223000">
    <ele>190.5</ele>
    <time>2014-02-21T08:59:33Z</time>
   </trkpt>
   <trkpt lat="32.6133730" lon="35.1222690">
    <ele>190.3</ele>
    <time>2014-02-21T08:59:34Z</time>
   </trkpt>
   <trkpt lat="32.6134060" lon="35.1222350">
    <ele>190.2</ele>
    <time>2014-02-21T08:59:35Z</time>
   </trkpt>
   <trkpt lat="32.6134360" lon="35.1221950">
    <ele>190.0</ele>
    <time>2014-02-21T08:59:36Z</time>
   </trkpt>
   <trkpt lat="32.6134650" lon="35.1221540">
    <ele>189.8</ele>
    <time>2014-02-21T08:59:37Z</time>
   </trkpt>
   <trkpt lat="32.6134960" lon="35.1221100">
    <ele>189.6</ele>
    <time>2014-02-21T08:59:38Z</time>
   </trkpt>
   <trkpt lat="32.6135590" lon="35.1220600">
    <ele>189.9</ele>
    <time>2014-02-21T08:59:39Z</time>
   </trkpt>
   <trkpt lat="32.6136170" lon="35.1220520">
    <ele>190.9</ele>
    <time>2014-02-21T08:59:40Z</time>
   </trkpt>
   <trkpt lat="32.6136640" lon="35.1220760">
    <ele>192.2</ele>
    <time>2014-02-21T08:59:41Z</time>
   </trkpt>
   <trkpt lat="32.6136900" lon="35.1221090">
    <ele>193.2</ele>
    <time>2014-02-21T08:59:42Z</time>
   </trkpt>
   <trkpt lat="32.6137290" lon="35.1221390">
    <ele>194.3</ele>
    <time>2014-02-21T08:59:43Z</time>
   </trkpt>
   <trkpt lat="32.6137640" lon="35.1221660">
    <ele>195.1</ele>
    <time>2014-02-21T08:59:44Z</time>
   </trkpt>
   <trkpt lat="32.6137860" lon="35.1221970">
    <ele>195.6</ele>
    <time>2014-02-21T08:59:45Z</time>
   </trkpt>
   <trkpt lat="32.6138030" lon="35.1222290">
    <ele>196.1</ele>
    <time>2014-02-21T08:59:46Z</time>
   </trkpt>
   <trkpt lat="32.6138220" lon="35.1222640">
    <ele>196.6</ele>
    <time>2014-02-21T08:59:47Z</time>
   </trkpt>
   <trkpt lat="32.6138520" lon="35.1223180">
    <ele>197.3</ele>
    <time>2014-02-21T08:59:49Z</time>
   </trkpt>
   <trkpt lat="32.6138770" lon="35.1223420">
    <ele>197.7</ele>
    <time>2014-02-21T08:59:50Z</time>
   </trkpt>
   <trkpt lat="32.6139000" lon="35.1223730">
    <ele>198.1</ele>
    <time>2014-02-21T08:59:51Z</time>
   </trkpt>
   <trkpt lat="32.6139190" lon="35.1224040">
    <ele>198.5</ele>
    <time>2014-02-21T08:59:52Z</time>
   </trkpt>
   <trkpt lat="32.6139460" lon="35.1224330">
    <ele>198.9</ele>
    <time>2014-02-21T08:59:53Z</time>
   </trkpt>
   <trkpt lat="32.6139830" lon="35.1224440">
    <ele>199.2</ele>
    <time>2014-02-21T08:59:54Z</time>
   </trkpt>
   <trkpt lat="32.6140200" lon="35.1224640">
    <ele>199.5</ele>
    <time>2014-02-21T08:59:55Z</time>
   </trkpt>
   <trkpt lat="32.6140550" lon="35.1224880">
    <ele>199.8</ele>
    <time>2014-02-21T08:59:56Z</time>
   </trkpt>
   <trkpt lat="32.6140960" lon="35.1225090">
    <ele>200.1</ele>
    <time>2014-02-21T08:59:57Z</time>
   </trkpt>
   <trkpt lat="32.6141380" lon="35.1225260">
    <ele>200.4</ele>
    <time>2014-02-21T08:59:58Z</time>
   </trkpt>
   <trkpt lat="32.6141810" lon="35.1225400">
    <ele>200.6</ele>
    <time>2014-02-21T08:59:59Z</time>
   </trkpt>
   <trkpt lat="32.6142240" lon="35.1225620">
    <ele>200.9</ele>
    <time>2014-02-21T09:00:00Z</time>
   </trkpt>
   <trkpt lat="32.6142890" lon="35.1225930">
    <ele>201.2</ele>
    <time>2014-02-21T09:00:01Z</time>
   </trkpt>
   <trkpt lat="32.6143280" lon="35.1226250">
    <ele>201.5</ele>
    <time>2014-02-21T09:00:02Z</time>
   </trkpt>
   <trkpt lat="32.6143610" lon="35.1226610">
    <ele>201.8</ele>
    <time>2014-02-21T09:00:03Z</time>
   </trkpt>
   <trkpt lat="32.6143930" lon="35.1226880">
    <ele>202.0</ele>
    <time>2014-02-21T09:00:04Z</time>
   </trkpt>
   <trkpt lat="32.6144210" lon="35.1227040">
    <ele>202.1</ele>
    <time>2014-02-21T09:00:05Z</time>
   </trkpt>
   <trkpt lat="32.6144380" lon="35.1227500">
    <ele>202.3</ele>
    <time>2014-02-21T09:00:06Z</time>
   </trkpt>
   <trkpt lat="32.6144570" lon="35.1227870">
    <ele>202.5</ele>
    <time>2014-02-21T09:00:07Z</time>
   </trkpt>
   <trkpt lat="32.6144530" lon="35.1228310">
    <ele>202.7</ele>
    <time>2014-02-21T09:00:08Z</time>
   </trkpt>
   <trkpt lat="32.6144520" lon="35.1228640">
    <ele>202.9</ele>
    <time>2014-02-21T09:00:09Z</time>
   </trkpt>
   <trkpt lat="32.6144530" lon="35.1228960">
    <ele>203.1</ele>
    <time>2014-02-21T09:00:10Z</time>
   </trkpt>
   <trkpt lat="32.6144440" lon="35.1229360">
    <ele>203.2</ele>
    <time>2014-02-21T09:00:11Z</time>
   </trkpt>
   <trkpt lat="32.6144880" lon="35.1229840">
    <ele>203.2</ele>
    <time>2014-02-21T09:00:13Z</time>
   </trkpt>
   <trkpt lat="32.6144900" lon="35.1230340">
    <ele>203.3</ele>
    <time>2014-02-21T09:00:15Z</time>
   </trkpt>
   <trkpt lat="32.6145060" lon="35.1230850">
    <ele>203.3</ele>
    <time>2014-02-21T09:00:17Z</time>
   </trkpt>
   <trkpt lat="32.6145200" lon="35.1231270">
    <ele>203.4</ele>
    <time>2014-02-21T09:00:19Z</time>
   </trkpt>
   <trkpt lat="32.6145220" lon="35.1231660">
    <ele>203.4</ele>
    <time>2014-02-21T09:00:21Z</time>
   </trkpt>
   <trkpt lat="32.6145270" lon="35.1232030">
    <ele>203.5</ele>
    <time>2014-02-21T09:00:23Z</time>
   </trkpt>
   <trkpt lat="32.6145280" lon="35.1232360">
    <ele>203.5</ele>
    <time>2014-02-21T09:00:25Z</time>
   </trkpt>
   <trkpt lat="32.6145240" lon="35.1232750">
    <ele>203.6</ele>
    <time>2014-02-21T09:00:29Z</time>
   </trkpt>
   <trkpt lat="32.6145210" lon="35.1233080">
    <ele>203.6</ele>
    <time>2014-02-21T09:00:32Z</time>
   </trkpt>
   <trkpt lat="32.6145460" lon="35.1232850">
    <ele>203.5</ele>
    <time>2014-02-21T09:00:35Z</time>
   </trkpt>
   <trkpt lat="32.6145290" lon="35.1232450">
    <ele>203.5</ele>
    <time>2014-02-21T09:00:38Z</time>
   </trkpt>
   <trkpt lat="32.6145160" lon="35.1232040">
    <ele>203.5</ele>
    <time>2014-02-21T09:00:40Z</time>
   </trkpt>
   <trkpt lat="32.6145110" lon="35.1231600">
    <ele>203.4</ele>
    <time>2014-02-21T09:00:42Z</time>
   </trkpt>
   <trkpt lat="32.6145120" lon="35.1231180">
    <ele>203.4</ele>
    <time>2014-02-21T09:00:44Z</time>
   </trkpt>
   <trkpt lat="32.6145200" lon="35.1230630">
    <ele>203.3</ele>
    <time>2014-02-21T09:00:46Z</time>
   </trkpt>
   <trkpt lat="32.6145150" lon="35.1230280">
    <ele>203.2</ele>
    <time>2014-02-21T09:00:47Z</time>
   </trkpt>
   <trkpt lat="32.6145090" lon="35.1229840">
    <ele>203.2</ele>
    <time>2014-02-21T09:00:48Z</time>
   </trkpt>
   <trkpt lat="32.6145070" lon="35.1229400">
    <ele>203.1</ele>
    <time>2014-02-21T09:00:49Z</time>
   </trkpt>
   <trkpt lat="32.6145090" lon="35.1228970">
    <ele>203.0</ele>
    <time>2014-02-21T09:00:50Z</time>
   </trkpt>
   <trkpt lat="32.6145080" lon="35.1228530">
    <ele>202.8</ele>
    <time>2014-02-21T09:00:51Z</time>
   </trkpt>
   <trkpt lat="32.6145010" lon="35.1228060">
    <ele>202.6</ele>
    <time>2014-02-21T09:00:52Z</time>
   </trkpt>
   <trkpt lat="32.6144860" lon="35.1227580">
    <ele>202.4</ele>
    <time>2014-02-21T09:00:53Z</time>
   </trkpt>
   <trkpt lat="32.6144660" lon="35.1226760">
    <ele>202.0</ele>
    <time>2014-02-21T09:00:54Z</time>
   </trkpt>
   <trkpt lat="32.6144490" lon="35.1226340">
    <ele>201.8</ele>
    <time>2014-02-21T09:00:55Z</time>
   </trkpt>
   <trkpt lat="32.6144440" lon="35.1225970">
    <ele>201.6</ele>
    <time>2014-02-21T09:00:56Z</time>
   </trkpt>
   <trkpt lat="32.6144120" lon="35.1225730">
    <ele>201.4</ele>
    <time>2014-02-21T09:00:58Z</time>
   </trkpt>
   <trkpt lat="32.6143870" lon="35.1225430">
    <ele>201.2</ele>
    <time>2014-02-21T09:01:53Z</time>
   </trkpt>
   <trkpt lat="32.6143650" lon="35.1225120">
    <ele>200.9</ele>
    <time>2014-02-21T09:01:56Z</time>
   </trkpt>
   <trkpt lat="32.6143840" lon="35.1224790">
    <ele>200.8</ele>
    <time>2014-02-21T09:01:59Z</time>
   </trkpt>
   <trkpt lat="32.6144020" lon="35.1224430">
    <ele>200.6</ele>
    <time>2014-02-21T09:02:00Z</time>
   </trkpt>
   <trkpt lat="32.6144170" lon="35.1224150">
    <ele>200.6</ele>
    <time>2014-02-21T09:02:01Z</time>
   </trkpt>
   <trkpt lat="32.6144490" lon="35.1223780">
    <ele>200.5</ele>
    <time>2014-02-21T09:02:03Z</time>
   </trkpt>
   <trkpt lat="32.6144680" lon="35.1223460">
    <ele>200.4</ele>
    <time>2014-02-21T09:02:07Z</time>
   </trkpt>
   <trkpt lat="32.6145020" lon="35.1223130">
    <ele>200.4</ele>
    <time>2014-02-21T09:02:10Z</time>
   </trkpt>
   <trkpt lat="32.6145350" lon="35.1222810">
    <ele>200.5</ele>
    <time>2014-02-21T09:02:11Z</time>
   </trkpt>
   <trkpt lat="32.6145630" lon="35.1222470">
    <ele>200.5</ele>
    <time>2014-02-21T09:02:12Z</time>
   </trkpt>
   <trkpt lat="32.6145890" lon="35.1222170">
    <ele>200.4</ele>
    <time>2014-02-21T09:02:13Z</time>
   </trkpt>
   <trkpt lat="32.6146180" lon="35.1221970">
    <ele>199.8</ele>
    <time>2014-02-21T09:02:14Z</time>
   </trkpt>
   <trkpt lat="32.6146470" lon="35.1221900">
    <ele>199.3</ele>
    <time>2014-02-21T09:02:15Z</time>
   </trkpt>
   <trkpt lat="32.6146750" lon="35.1221960">
    <ele>198.8</ele>
    <time>2014-02-21T09:02:16Z</time>
   </trkpt>
   <trkpt lat="32.6147060" lon="35.1222170">
    <ele>198.3</ele>
    <time>2014-02-21T09:02:18Z</time>
   </trkpt>
   <trkpt lat="32.6147100" lon="35.1222480">
    <ele>198.4</ele>
    <time>2014-02-21T09:02:20Z</time>
   </trkpt>
   <trkpt lat="32.6147010" lon="35.1222850">
    <ele>198.7</ele>
    <time>2014-02-21T09:02:22Z</time>
   </trkpt>
   <trkpt lat="32.6146920" lon="35.1223190">
    <ele>199.0</ele>
    <time>2014-02-21T09:02:23Z</time>
   </trkpt>
   <trkpt lat="32.6146830" lon="35.1223580">
    <ele>199.3</ele>
    <time>2014-02-21T09:02:24Z</time>
   </trkpt>
   <trkpt lat="32.6146750" lon="35.1224050">
    <ele>199.6</ele>
    <time>2014-02-21T09:02:25Z</time>
   </trkpt>
   <trkpt lat="32.6146710" lon="35.1224470">
    <ele>199.9</ele>
    <time>2014-02-21T09:02:26Z</time>
   </trkpt>
   <trkpt lat="32.6146690" lon="35.1224880">
    <ele>200.1</ele>
    <time>2014-02-21T09:02:27Z</time>
   </trkpt>
   <trkpt lat="32.6146720" lon="35.1225270">
    <ele>200.2</ele>
    <time>2014-02-21T09:02:28Z</time>
   </trkpt>
   <trkpt lat="32.6146770" lon="35.1225620">
    <ele>200.2</ele>
    <time>2014-02-21T09:02:29Z</time>
   </trkpt>
   <trkpt lat="32.6146820" lon="35.1226140">
    <ele>200.4</ele>
    <time>2014-02-21T09:02:31Z</time>
   </trkpt>
   <trkpt lat="32.6146800" lon="35.1226720">
    <ele>200.6</ele>
    <time>2014-02-21T09:02:33Z</time>
   </trkpt>
   <trkpt lat="32.6146820" lon="35.1227080">
    <ele>200.7</ele>
    <time>2014-02-21T09:02:34Z</time>
   </trkpt>
   <trkpt lat="32.6146870" lon="35.1227570">
    <ele>200.9</ele>
    <time>2014-02-21T09:02:35Z</time>
   </trkpt>
   <trkpt lat="32.6147020" lon="35.1228040">
    <ele>200.8</ele>
    <time>2014-02-21T09:02:36Z</time>
   </trkpt>
   <trkpt lat="32.6147230" lon="35.1228470">
    <ele>200.7</ele>
    <time>2014-02-21T09:02:37Z</time>
   </trkpt>
   <trkpt lat="32.6147520" lon="35.1228810">
    <ele>200.4</ele>
    <time>2014-02-21T09:02:38Z</time>
   </trkpt>
   <trkpt lat="32.6147850" lon="35.1229060">
    <ele>200.0</ele>
    <time>2014-02-21T09:02:39Z</time>
   </trkpt>
   <trkpt lat="32.6148170" lon="35.1229120">
    <ele>199.6</ele>
    <time>2014-02-21T09:02:40Z</time>
   </trkpt>
   <trkpt lat="32.6148540" lon="35.1229030">
    <ele>199.0</ele>
    <time>2014-02-21T09:02:41Z</time>
   </trkpt>
   <trkpt lat="32.6148900" lon="35.1228790">
    <ele>198.4</ele>
    <time>2014-02-21T09:02:42Z</time>
   </trkpt>
   <trkpt lat="32.6149250" lon="35.1228440">
    <ele>197.7</ele>
    <time>2014-02-21T09:02:43Z</time>
   </trkpt>
   <trkpt lat="32.6150030" lon="35.1227540">
    <ele>196.1</ele>
    <time>2014-02-21T09:02:44Z</time>
   </trkpt>
   <trkpt lat="32.6150460" lon="35.1227250">
    <ele>195.3</ele>
    <time>2014-02-21T09:02:45Z</time>
   </trkpt>
   <trkpt lat="32.6150640" lon="35.1227000">
    <ele>194.8</ele>
    <time>2014-02-21T09:02:46Z</time>
   </trkpt>
   <trkpt lat="32.6150960" lon="35.1226690">
    <ele>194.2</ele>
    <time>2014-02-21T09:02:47Z</time>
   </trkpt>
   <trkpt lat="32.6151390" lon="35.1226280">
    <ele>193.3</ele>
    <time>2014-02-21T09:02:48Z</time>
   </trkpt>
   <trkpt lat="32.6151600" lon="35.1225990">
    <ele>192.8</ele>
    <time>2014-02-21T09:02:49Z</time>
   </trkpt>
   <trkpt lat="32.6151970" lon="35.1225740">
    <ele>192.0</ele>
    <time>2014-02-21T09:02:50Z</time>
   </trkpt>
   <trkpt lat="32.6152240" lon="35.1225380">
    <ele>191.4</ele>
    <time>2014-02-21T09:02:51Z</time>
   </trkpt>
   <trkpt lat="32.6152640" lon="35.1225190">
    <ele>190.6</ele>
    <time>2014-02-21T09:02:52Z</time>
   </trkpt>
   <trkpt lat="32.6152980" lon="35.1224860">
    <ele>189.8</ele>
    <time>2014-02-21T09:02:53Z</time>
   </trkpt>
   <trkpt lat="32.6153300" lon="35.1224570">
    <ele>189.1</ele>
    <time>2014-02-21T09:02:54Z</time>
   </trkpt>
   <trkpt lat="32.6153580" lon="35.1224230">
    <ele>188.4</ele>
    <time>2014-02-21T09:02:55Z</time>
   </trkpt>
   <trkpt lat="32.6153870" lon="35.1223880">
    <ele>187.7</ele>
    <time>2014-02-21T09:02:56Z</time>
   </trkpt>
   <trkpt lat="32.6154150" lon="35.1223570">
    <ele>187.0</ele>
    <time>2014-02-21T09:02:57Z</time>
   </trkpt>
   <trkpt lat="32.6154420" lon="35.1223240">
    <ele>186.7</ele>
    <time>2014-02-21T09:02:58Z</time>
   </trkpt>
   <trkpt lat="32.6154700" lon="35.1222920">
    <ele>186.4</ele>
    <time>2014-02-21T09:02:59Z</time>
   </trkpt>
   <trkpt lat="32.6154960" lon="35.1222580">
    <ele>186.1</ele>
    <time>2014-02-21T09:03:00Z</time>
   </trkpt>
   <trkpt lat="32.6155180" lon="35.1222210">
    <ele>185.8</ele>
    <time>2014-02-21T09:03:01Z</time>
   </trkpt>
   <trkpt lat="32.6155390" lon="35.1221850">
    <ele>185.4</ele>
    <time>2014-02-21T09:03:02Z</time>
   </trkpt>
   <trkpt lat="32.6155600" lon="35.1221490">
    <ele>185.1</ele>
    <time>2014-02-21T09:03:03Z</time>
   </trkpt>
   <trkpt lat="32.6155840" lon="35.1221210">
    <ele>184.7</ele>
    <time>2014-02-21T09:03:04Z</time>
   </trkpt>
   <trkpt lat="32.6156100" lon="35.1221000">
    <ele>184.5</ele>
    <time>2014-02-21T09:03:05Z</time>
   </trkpt>
   <trkpt lat="32.6156590" lon="35.1220850">
    <ele>184.1</ele>
    <time>2014-02-21T09:03:07Z</time>
   </trkpt>
   <trkpt lat="32.6157040" lon="35.1220750">
    <ele>183.9</ele>
    <time>2014-02-21T09:03:09Z</time>
   </trkpt>
   <trkpt lat="32.6157510" lon="35.1220590">
    <ele>183.5</ele>
    <time>2014-02-21T09:03:11Z</time>
   </trkpt>
   <trkpt lat="32.6157930" lon="35.1220440">
    <ele>183.2</ele>
    <time>2014-02-21T09:03:13Z</time>
   </trkpt>
   <trkpt lat="32.6158340" lon="35.1220350">
    <ele>183.0</ele>
    <time>2014-02-21T09:03:15Z</time>
   </trkpt>
   <trkpt lat="32.6158760" lon="35.1220260">
    <ele>182.7</ele>
    <time>2014-02-21T09:03:17Z</time>
   </trkpt>
   <trkpt lat="32.6159190" lon="35.1220180">
    <ele>182.5</ele>
    <time>2014-02-21T09:03:19Z</time>
   </trkpt>
   <trkpt lat="32.6159610" lon="35.1220070">
    <ele>182.2</ele>
    <time>2014-02-21T09:03:21Z</time>
   </trkpt>
   <trkpt lat="32.6160030" lon="35.1219970">
    <ele>182.0</ele>
    <time>2014-02-21T09:03:23Z</time>
   </trkpt>
   <trkpt lat="32.6160440" lon="35.1219940">
    <ele>181.8</ele>
    <time>2014-02-21T09:03:25Z</time>
   </trkpt>
   <trkpt lat="32.6160740" lon="35.1220070">
    <ele>181.9</ele>
    <time>2014-02-21T09:03:27Z</time>
   </trkpt>
   <trkpt lat="32.6161090" lon="35.1220180">
    <ele>181.9</ele>
    <time>2014-02-21T09:03:29Z</time>
   </trkpt>
   <trkpt lat="32.6161450" lon="35.1220280">
    <ele>181.8</ele>
    <time>2014-02-21T09:03:31Z</time>
   </trkpt>
   <trkpt lat="32.6161820" lon="35.1220380">
    <ele>181.8</ele>
    <time>2014-02-21T09:03:33Z</time>
   </trkpt>
   <trkpt lat="32.6162210" lon="35.1220380">
    <ele>181.7</ele>
    <time>2014-02-21T09:03:35Z</time>
   </trkpt>
   <trkpt lat="32.6162570" lon="35.1220390">
    <ele>181.7</ele>
    <time>2014-02-21T09:03:37Z</time>
   </trkpt>
   <trkpt lat="32.6162950" lon="35.1220470">
    <ele>182.3</ele>
    <time>2014-02-21T09:03:39Z</time>
   </trkpt>
   <trkpt lat="32.6163350" lon="35.1220560">
    <ele>183.0</ele>
    <time>2014-02-21T09:03:41Z</time>
   </trkpt>
   <trkpt lat="32.6163780" lon="35.1220570">
    <ele>183.6</ele>
    <time>2014-02-21T09:03:43Z</time>
   </trkpt>
   <trkpt lat="32.6164240" lon="35.1220470">
    <ele>184.2</ele>
    <time>2014-02-21T09:03:45Z</time>
   </trkpt>
   <trkpt lat="32.6164690" lon="35.1220310">
    <ele>184.7</ele>
    <time>2014-02-21T09:03:47Z</time>
   </trkpt>
   <trkpt lat="32.6165180" lon="35.1220060">
    <ele>185.2</ele>
    <time>2014-02-21T09:03:49Z</time>
   </trkpt>
   <trkpt lat="32.6165500" lon="35.1219900">
    <ele>185.5</ele>
    <time>2014-02-21T09:03:50Z</time>
   </trkpt>
   <trkpt lat="32.6165830" lon="35.1219630">
    <ele>185.8</ele>
    <time>2014-02-21T09:03:51Z</time>
   </trkpt>
   <trkpt lat="32.6166130" lon="35.1219340">
    <ele>185.9</ele>
    <time>2014-02-21T09:03:52Z</time>
   </trkpt>
   <trkpt lat="32.6166430" lon="35.1219040">
    <ele>186.1</ele>
    <time>2014-02-21T09:03:53Z</time>
   </trkpt>
   <trkpt lat="32.6166780" lon="35.1218720">
    <ele>186.4</ele>
    <time>2014-02-21T09:03:54Z</time>
   </trkpt>
   <trkpt lat="32.6167200" lon="35.1218340">
    <ele>186.7</ele>
    <time>2014-02-21T09:03:55Z</time>
   </trkpt>
   <trkpt lat="32.6167630" lon="35.1218010">
    <ele>187.1</ele>
    <time>2014-02-21T09:03:56Z</time>
   </trkpt>
   <trkpt lat="32.6168310" lon="35.1217590">
    <ele>187.8</ele>
    <time>2014-02-21T09:03:57Z</time>
   </trkpt>
   <trkpt lat="32.6168690" lon="35.1217480">
    <ele>188.3</ele>
    <time>2014-02-21T09:03:58Z</time>
   </trkpt>
   <trkpt lat="32.6169090" lon="35.1217380">
    <ele>188.8</ele>
    <time>2014-02-21T09:03:59Z</time>
   </trkpt>
   <trkpt lat="32.6169250" lon="35.1217730">
    <ele>189.3</ele>
    <time>2014-02-21T09:04:01Z</time>
   </trkpt>
   <trkpt lat="32.6169650" lon="35.1217420">
    <ele>189.7</ele>
    <time>2014-02-21T09:04:02Z</time>
   </trkpt>
   <trkpt lat="32.6170070" lon="35.1217390">
    <ele>190.3</ele>
    <time>2014-02-21T09:04:04Z</time>
   </trkpt>
   <trkpt lat="32.6170390" lon="35.1217220">
    <ele>190.7</ele>
    <time>2014-02-21T09:04:06Z</time>
   </trkpt>
   <trkpt lat="32.6170660" lon="35.1217000">
    <ele>191.0</ele>
    <time>2014-02-21T09:04:07Z</time>
   </trkpt>
   <trkpt lat="32.6170870" lon="35.1216780">
    <ele>191.1</ele>
    <time>2014-02-21T09:04:08Z</time>
   </trkpt>
   <trkpt lat="32.6171170" lon="35.1216420">
    <ele>191.2</ele>
    <time>2014-02-21T09:04:10Z</time>
   </trkpt>
   <trkpt lat="32.6171510" lon="35.1215880">
    <ele>191.2</ele>
    <time>2014-02-21T09:04:12Z</time>
   </trkpt>
   <trkpt lat="32.6171590" lon="35.1215530">
    <ele>191.0</ele>
    <time>2014-02-21T09:04:13Z</time>
   </trkpt>
   <trkpt lat="32.6171630" lon="35.1215200">
    <ele>190.8</ele>
    <time>2014-02-21T09:04:14Z</time>
   </trkpt>
   <trkpt lat="32.6171610" lon="35.1214680">
    <ele>190.3</ele>
    <time>2014-02-21T09:04:16Z</time>
   </trkpt>
   <trkpt lat="32.6171560" lon="35.1214280">
    <ele>190.0</ele>
    <time>2014-02-21T09:04:18Z</time>
   </trkpt>
   <trkpt lat="32.6171410" lon="35.1213900">
    <ele>189.6</ele>
    <time>2014-02-21T09:04:20Z</time>
   </trkpt>
   <trkpt lat="32.6171400" lon="35.1213400">
    <ele>189.2</ele>
    <time>2014-02-21T09:04:22Z</time>
   </trkpt>
   <trkpt lat="32.6171490" lon="35.1212890">
    <ele>188.9</ele>
    <time>2014-02-21T09:04:24Z</time>
   </trkpt>
   <trkpt lat="32.6171600" lon="35.1212410">
    <ele>188.4</ele>
    <time>2014-02-21T09:04:26Z</time>
   </trkpt>
   <trkpt lat="32.6171660" lon="35.1212070">
    <ele>187.7</ele>
    <time>2014-02-21T09:04:28Z</time>
   </trkpt>
   <trkpt lat="32.6171740" lon="35.1211680">
    <ele>186.9</ele>
    <time>2014-02-21T09:04:31Z</time>
   </trkpt>
   <trkpt lat="32.6171800" lon="35.1211270">
    <ele>186.0</ele>
    <time>2014-02-21T09:04:34Z</time>
   </trkpt>
   <trkpt lat="32.6171900" lon="35.1210940">
    <ele>185.3</ele>
    <time>2014-02-21T09:04:36Z</time>
   </trkpt>
   <trkpt lat="32.6171810" lon="35.1210500">
    <ele>184.3</ele>
    <time>2014-02-21T09:04:39Z</time>
   </trkpt>
   <trkpt lat="32.6171660" lon="35.1210100">
    <ele>183.3</ele>
    <time>2014-02-21T09:04:41Z</time>
   </trkpt>
   <trkpt lat="32.6171560" lon="35.1209810">
    <ele>182.6</ele>
    <time>2014-02-21T09:04:42Z</time>
   </trkpt>
   <trkpt lat="32.6171440" lon="35.1209280">
    <ele>181.3</ele>
    <time>2014-02-21T09:04:44Z</time>
   </trkpt>
   <trkpt lat="32.6171420" lon="35.1208910">
    <ele>180.5</ele>
    <time>2014-02-21T09:04:46Z</time>
   </trkpt>
   <trkpt lat="32.6171480" lon="35.1208520">
    <ele>179.6</ele>
    <time>2014-02-21T09:04:49Z</time>
   </trkpt>
   <trkpt lat="32.6171720" lon="35.1208250">
    <ele>179.1</ele>
    <time>2014-02-21T09:05:01Z</time>
   </trkpt>
   <trkpt lat="32.6171990" lon="35.1208070">
    <ele>178.8</ele>
    <time>2014-02-21T09:05:03Z</time>
   </trkpt>
   <trkpt lat="32.6172270" lon="35.1207950">
    <ele>178.6</ele>
    <time>2014-02-21T09:05:05Z</time>
   </trkpt>
   <trkpt lat="32.6172600" lon="35.1207770">
    <ele>178.3</ele>
    <time>2014-02-21T09:05:07Z</time>
   </trkpt>
   <trkpt lat="32.6172950" lon="35.1207590">
    <ele>178.0</ele>
    <time>2014-02-21T09:05:09Z</time>
   </trkpt>
   <trkpt lat="32.6173330" lon="35.1207410">
    <ele>177.6</ele>
    <time>2014-02-21T09:05:11Z</time>
   </trkpt>
   <trkpt lat="32.6173690" lon="35.1207120">
    <ele>177.0</ele>
    <time>2014-02-21T09:05:13Z</time>
   </trkpt>
   <trkpt lat="32.6174040" lon="35.1206880">
    <ele>176.5</ele>
    <time>2014-02-21T09:05:15Z</time>
   </trkpt>
   <trkpt lat="32.6174330" lon="35.1206580">
    <ele>175.8</ele>
    <time>2014-02-21T09:05:17Z</time>
   </trkpt>
   <trkpt lat="32.6174510" lon="35.1206300">
    <ele>175.1</ele>
    <time>2014-02-21T09:05:19Z</time>
   </trkpt>
   <trkpt lat="32.6174760" lon="35.1206060">
    <ele>174.5</ele>
    <time>2014-02-21T09:05:21Z</time>
   </trkpt>
   <trkpt lat="32.6175030" lon="35.1205920">
    <ele>174.1</ele>
    <time>2014-02-21T09:05:23Z</time>
   </trkpt>
   <trkpt lat="32.6175330" lon="35.1205650">
    <ele>173.4</ele>
    <time>2014-02-21T09:05:26Z</time>
   </trkpt>
   <trkpt lat="32.6175600" lon="35.1205430">
    <ele>172.9</ele>
    <time>2014-02-21T09:05:29Z</time>
   </trkpt>
   <trkpt lat="32.6175310" lon="35.1205600">
    <ele>173.3</ele>
    <time>2014-02-21T09:05:47Z</time>
   </trkpt>
   <trkpt lat="32.6175070" lon="35.1205760">
    <ele>173.7</ele>
    <time>2014-02-21T09:05:49Z</time>
   </trkpt>
   <trkpt lat="32.6174720" lon="35.1205780">
    <ele>173.7</ele>
    <time>2014-02-21T09:05:52Z</time>
   </trkpt>
   <trkpt lat="32.6174440" lon="35.1205730">
    <ele>173.6</ele>
    <time>2014-02-21T09:05:56Z</time>
   </trkpt>
   <trkpt lat="32.6174150" lon="35.1205800">
    <ele>173.8</ele>
    <time>2014-02-21T09:06:19Z</time>
   </trkpt>
   <trkpt lat="32.6173870" lon="35.1205990">
    <ele>174.2</ele>
    <time>2014-02-21T09:06:21Z</time>
   </trkpt>
   <trkpt lat="32.6173590" lon="35.1206150">
    <ele>174.6</ele>
    <time>2014-02-21T09:06:22Z</time>
   </trkpt>
   <trkpt lat="32.6173330" lon="35.1206310">
    <ele>174.9</ele>
    <time>2014-02-21T09:06:23Z</time>
   </trkpt>
   <trkpt lat="32.6173090" lon="35.1206470">
    <ele>175.3</ele>
    <time>2014-02-21T09:06:24Z</time>
   </trkpt>
   <trkpt lat="32.6172820" lon="35.1206610">
    <ele>175.6</ele>
    <time>2014-02-21T09:06:25Z</time>
   </trkpt>
   <trkpt lat="32.6172540" lon="35.1206730">
    <ele>175.8</ele>
    <time>2014-02-21T09:06:26Z</time>
   </trkpt>
   <trkpt lat="32.6172270" lon="35.1206860">
    <ele>176.1</ele>
    <time>2014-02-21T09:06:27Z</time>
   </trkpt>
   <trkpt lat="32.6171990" lon="35.1206990">
    <ele>176.3</ele>
    <time>2014-02-21T09:06:28Z</time>
   </trkpt>
   <trkpt lat="32.6171530" lon="35.1207230">
    <ele>176.8</ele>
    <time>2014-02-21T09:06:30Z</time>
   </trkpt>
   <trkpt lat="32.6171230" lon="35.1207430">
    <ele>177.2</ele>
    <time>2014-02-21T09:06:32Z</time>
   </trkpt>
   <trkpt lat="32.6170830" lon="35.1207660">
    <ele>177.5</ele>
    <time>2014-02-21T09:06:34Z</time>
   </trkpt>
   <trkpt lat="32.6170340" lon="35.1207920">
    <ele>177.7</ele>
    <time>2014-02-21T09:06:36Z</time>
   </trkpt>
   <trkpt lat="32.6170060" lon="35.1208040">
    <ele>177.7</ele>
    <time>2014-02-21T09:06:37Z</time>
   </trkpt>
   <trkpt lat="32.6169740" lon="35.1208150">
    <ele>177.7</ele>
    <time>2014-02-21T09:06:38Z</time>
   </trkpt>
   <trkpt lat="32.6169400" lon="35.1208280">
    <ele>177.6</ele>
    <time>2014-02-21T09:06:39Z</time>
   </trkpt>
   <trkpt lat="32.6169020" lon="35.1208440">
    <ele>177.6</ele>
    <time>2014-02-21T09:06:40Z</time>
   </trkpt>
   <trkpt lat="32.6168670" lon="35.1208570">
    <ele>177.5</ele>
    <time>2014-02-21T09:06:41Z</time>
   </trkpt>
   <trkpt lat="32.6168330" lon="35.1208700">
    <ele>177.4</ele>
    <time>2014-02-21T09:06:42Z</time>
   </trkpt>
   <trkpt lat="32.6168010" lon="35.1208830">
    <ele>177.3</ele>
    <time>2014-02-21T09:06:43Z</time>
   </trkpt>
   <trkpt lat="32.6167690" lon="35.1208940">
    <ele>177.1</ele>
    <time>2014-02-21T09:06:44Z</time>
   </trkpt>
   <trkpt lat="32.6167370" lon="35.1209010">
    <ele>176.9</ele>
    <time>2014-02-21T09:06:45Z</time>
   </trkpt>
   <trkpt lat="32.6167050" lon="35.1209090">
    <ele>176.7</ele>
    <time>2014-02-21T09:06:46Z</time>
   </trkpt>
   <trkpt lat="32.6166710" lon="35.1209190">
    <ele>176.5</ele>
    <time>2014-02-21T09:06:47Z</time>
   </trkpt>
   <trkpt lat="32.6166410" lon="35.1209360">
    <ele>176.4</ele>
    <time>2014-02-21T09:06:48Z</time>
   </trkpt>
   <trkpt lat="32.6166130" lon="35.1209550">
    <ele>176.3</ele>
    <time>2014-02-21T09:06:49Z</time>
   </trkpt>
   <trkpt lat="32.6165830" lon="35.1209770">
    <ele>176.3</ele>
    <time>2014-02-21T09:06:50Z</time>
   </trkpt>
   <trkpt lat="32.6165540" lon="35.1209990">
    <ele>176.2</ele>
    <time>2014-02-21T09:06:51Z</time>
   </trkpt>
   <trkpt lat="32.6165220" lon="35.1210110">
    <ele>175.9</ele>
    <time>2014-02-21T09:06:52Z</time>
   </trkpt>
   <trkpt lat="32.6164880" lon="35.1210120">
    <ele>175.5</ele>
    <time>2014-02-21T09:06:53Z</time>
   </trkpt>
   <trkpt lat="32.6164500" lon="35.1210000">
    <ele>174.9</ele>
    <time>2014-02-21T09:06:54Z</time>
   </trkpt>
   <trkpt lat="32.6164170" lon="35.1209770">
    <ele>174.3</ele>
    <time>2014-02-21T09:06:55Z</time>
   </trkpt>
   <trkpt lat="32.6163890" lon="35.1209450">
    <ele>173.7</ele>
    <time>2014-02-21T09:06:56Z</time>
   </trkpt>
   <trkpt lat="32.6163730" lon="35.1209060">
    <ele>173.2</ele>
    <time>2014-02-21T09:06:57Z</time>
   </trkpt>
   <trkpt lat="32.6163690" lon="35.1208590">
    <ele>172.8</ele>
    <time>2014-02-21T09:06:58Z</time>
   </trkpt>
   <trkpt lat="32.6163810" lon="35.1208070">
    <ele>172.5</ele>
    <time>2014-02-21T09:06:59Z</time>
   </trkpt>
   <trkpt lat="32.6163980" lon="35.1207560">
    <ele>172.2</ele>
    <time>2014-02-21T09:07:00Z</time>
   </trkpt>
   <trkpt lat="32.6164190" lon="35.1207070">
    <ele>171.9</ele>
    <time>2014-02-21T09:07:01Z</time>
   </trkpt>
   <trkpt lat="32.6164410" lon="35.1206550">
    <ele>171.5</ele>
    <time>2014-02-21T09:07:02Z</time>
   </trkpt>
   <trkpt lat="32.6164640" lon="35.1206010">
    <ele>171.1</ele>
    <time>2014-02-21T09:07:03Z</time>
   </trkpt>
   <trkpt lat="32.6164760" lon="35.1205480">
    <ele>170.6</ele>
    <time>2014-02-21T09:07:04Z</time>
   </trkpt>
   <trkpt lat="32.6164770" lon="35.1204940">
    <ele>170.1</ele>
    <time>2014-02-21T09:07:05Z</time>
   </trkpt>
   <trkpt lat="32.6164610" lon="35.1204440">
    <ele>169.5</ele>
    <time>2014-02-21T09:07:06Z</time>
   </trkpt>
   <trkpt lat="32.6163690" lon="35.1204120">
    <ele>169.0</ele>
    <time>2014-02-21T09:07:07Z</time>
   </trkpt>
   <trkpt lat="32.6163100" lon="35.1203740">
    <ele>168.1</ele>
    <time>2014-02-21T09:07:08Z</time>
   </trkpt>
   <trkpt lat="32.6162610" lon="35.1203380">
    <ele>167.3</ele>
    <time>2014-02-21T09:07:09Z</time>
   </trkpt>
   <trkpt lat="32.6162330" lon="35.1202850">
    <ele>166.0</ele>
    <time>2014-02-21T09:07:10Z</time>
   </trkpt>
   <trkpt lat="32.6162030" lon="35.1202460">
    <ele>164.8</ele>
    <time>2014-02-21T09:07:11Z</time>
   </trkpt>
   <trkpt lat="32.6162000" lon="35.1202020">
    <ele>163.8</ele>
    <time>2014-02-21T09:07:12Z</time>
   </trkpt>
   <trkpt lat="32.6162180" lon="35.1201720">
    <ele>163.4</ele>
    <time>2014-02-21T09:07:13Z</time>
   </trkpt>
   <trkpt lat="32.6162590" lon="35.1201580">
    <ele>163.4</ele>
    <time>2014-02-21T09:07:14Z</time>
   </trkpt>
   <trkpt lat="32.6162860" lon="35.1201420">
    <ele>163.0</ele>
    <time>2014-02-21T09:07:15Z</time>
   </trkpt>
   <trkpt lat="32.6163170" lon="35.1201320">
    <ele>162.7</ele>
    <time>2014-02-21T09:07:16Z</time>
   </trkpt>
   <trkpt lat="32.6163550" lon="35.1201140">
    <ele>162.2</ele>
    <time>2014-02-21T09:07:17Z</time>
   </trkpt>
   <trkpt lat="32.6163860" lon="35.1201050">
    <ele>161.9</ele>
    <time>2014-02-21T09:07:18Z</time>
   </trkpt>
   <trkpt lat="32.6164160" lon="35.1200900">
    <ele>161.4</ele>
    <time>2014-02-21T09:07:19Z</time>
   </trkpt>
   <trkpt lat="32.6164430" lon="35.1200830">
    <ele>161.2</ele>
    <time>2014-02-21T09:07:20Z</time>
   </trkpt>
   <trkpt lat="32.6164820" lon="35.1200650">
    <ele>160.6</ele>
    <time>2014-02-21T09:07:22Z</time>
   </trkpt>
   <trkpt lat="32.6165320" lon="35.1200540">
    <ele>160.2</ele>
    <time>2014-02-21T09:07:24Z</time>
   </trkpt>
   <trkpt lat="32.6165600" lon="35.1200520">
    <ele>160.0</ele>
    <time>2014-02-21T09:07:25Z</time>
   </trkpt>
   <trkpt lat="32.6165880" lon="35.1200520">
    <ele>159.9</ele>
    <time>2014-02-21T09:07:26Z</time>
   </trkpt>
   <trkpt lat="32.6166170" lon="35.1200530">
    <ele>159.9</ele>
    <time>2014-02-21T09:07:27Z</time>
   </trkpt>
   <trkpt lat="32.6166470" lon="35.1200510">
    <ele>159.7</ele>
    <time>2014-02-21T09:07:28Z</time>
   </trkpt>
   <trkpt lat="32.6166780" lon="35.1200480">
    <ele>159.5</ele>
    <time>2014-02-21T09:07:29Z</time>
   </trkpt>
   <trkpt lat="32.6167070" lon="35.1200440">
    <ele>159.3</ele>
    <time>2014-02-21T09:07:30Z</time>
   </trkpt>
   <trkpt lat="32.6167360" lon="35.1200380">
    <ele>159.0</ele>
    <time>2014-02-21T09:07:31Z</time>
   </trkpt>
   <trkpt lat="32.6167630" lon="35.1200330">
    <ele>158.8</ele>
    <time>2014-02-21T09:07:32Z</time>
   </trkpt>
   <trkpt lat="32.6168150" lon="35.1200330">
    <ele>158.6</ele>
    <time>2014-02-21T09:07:34Z</time>
   </trkpt>
   <trkpt lat="32.6168650" lon="35.1200270">
    <ele>158.2</ele>
    <time>2014-02-21T09:07:36Z</time>
   </trkpt>
   <trkpt lat="32.6169140" lon="35.1200240">
    <ele>157.9</ele>
    <time>2014-02-21T09:07:38Z</time>
   </trkpt>
   <trkpt lat="32.6169600" lon="35.1200300">
    <ele>157.9</ele>
    <time>2014-02-21T09:07:40Z</time>
   </trkpt>
   <trkpt lat="32.6170050" lon="35.1200300">
    <ele>157.8</ele>
    <time>2014-02-21T09:07:42Z</time>
   </trkpt>
   <trkpt lat="32.6170280" lon="35.1200470">
    <ele>158.2</ele>
    <time>2014-02-21T09:07:47Z</time>
   </trkpt>
   <trkpt lat="32.6170620" lon="35.1200400">
    <ele>157.9</ele>
    <time>2014-02-21T09:07:53Z</time>
   </trkpt>
   <trkpt lat="32.6171010" lon="35.1200420">
    <ele>157.8</ele>
    <time>2014-02-21T09:07:56Z</time>
   </trkpt>
   <trkpt lat="32.6171280" lon="35.1200350">
    <ele>157.6</ele>
    <time>2014-02-21T09:07:58Z</time>
   </trkpt>
   <trkpt lat="32.6171610" lon="35.1200410">
    <ele>157.8</ele>
    <time>2014-02-21T09:08:00Z</time>
   </trkpt>
   <trkpt lat="32.6171870" lon="35.1200550">
    <ele>158.2</ele>
    <time>2014-02-21T09:08:01Z</time>
   </trkpt>
   <trkpt lat="32.6172190" lon="35.1200710">
    <ele>158.7</ele>
    <time>2014-02-21T09:08:02Z</time>
   </trkpt>
   <trkpt lat="32.6172560" lon="35.1200800">
    <ele>159.0</ele>
    <time>2014-02-21T09:08:03Z</time>
   </trkpt>
   <trkpt lat="32.6172950" lon="35.1200820">
    <ele>159.0</ele>
    <time>2014-02-21T09:08:04Z</time>
   </trkpt>
   <trkpt lat="32.6173340" lon="35.1200780">
    <ele>158.8</ele>
    <time>2014-02-21T09:08:05Z</time>
   </trkpt>
   <trkpt lat="32.6173720" lon="35.1200690">
    <ele>158.5</ele>
    <time>2014-02-21T09:08:06Z</time>
   </trkpt>
   <trkpt lat="32.6174080" lon="35.1200560">
    <ele>158.1</ele>
    <time>2014-02-21T09:08:07Z</time>
   </trkpt>
   <trkpt lat="32.6174430" lon="35.1200410">
    <ele>157.6</ele>
    <time>2014-02-21T09:08:08Z</time>
   </trkpt>
   <trkpt lat="32.6174750" lon="35.1200290">
    <ele>157.2</ele>
    <time>2014-02-21T09:08:09Z</time>
   </trkpt>
   <trkpt lat="32.6175070" lon="35.1200190">
    <ele>156.8</ele>
    <time>2014-02-21T09:08:10Z</time>
   </trkpt>
   <trkpt lat="32.6175380" lon="35.1200090">
    <ele>156.5</ele>
    <time>2014-02-21T09:08:11Z</time>
   </trkpt>
   <trkpt lat="32.6175670" lon="35.1199980">
    <ele>156.1</ele>
    <time>2014-02-21T09:08:12Z</time>
   </trkpt>
   <trkpt lat="32.6175960" lon="35.1199870">
    <ele>155.8</ele>
    <time>2014-02-21T09:08:13Z</time>
   </trkpt>
   <trkpt lat="32.6176250" lon="35.1199790">
    <ele>155.5</ele>
    <time>2014-02-21T09:08:14Z</time>
   </trkpt>
   <trkpt lat="32.6176550" lon="35.1199730">
    <ele>155.3</ele>
    <time>2014-02-21T09:08:15Z</time>
   </trkpt>
   <trkpt lat="32.6176850" lon="35.1199660">
    <ele>155.1</ele>
    <time>2014-02-21T09:08:16Z</time>
   </trkpt>
   <trkpt lat="32.6177140" lon="35.1199550">
    <ele>154.7</ele>
    <time>2014-02-21T09:08:17Z</time>
   </trkpt>
   <trkpt lat="32.6177410" lon="35.1199450">
    <ele>154.4</ele>
    <time>2014-02-21T09:08:18Z</time>
   </trkpt>
   <trkpt lat="32.6177680" lon="35.1199330">
    <ele>154.0</ele>
    <time>2014-02-21T09:08:19Z</time>
   </trkpt>
   <trkpt lat="32.6177950" lon="35.1199200">
    <ele>153.6</ele>
    <time>2014-02-21T09:08:20Z</time>
   </trkpt>
   <trkpt lat="32.6178210" lon="35.1199060">
    <ele>153.1</ele>
    <time>2014-02-21T09:08:21Z</time>
   </trkpt>
   <trkpt lat="32.6178450" lon="35.1198900">
    <ele>152.6</ele>
    <time>2014-02-21T09:08:22Z</time>
   </trkpt>
   <trkpt lat="32.6178850" lon="35.1198630">
    <ele>151.7</ele>
    <time>2014-02-21T09:08:24Z</time>
   </trkpt>
   <trkpt lat="32.6179260" lon="35.1198350">
    <ele>151.0</ele>
    <time>2014-02-21T09:08:26Z</time>
   </trkpt>
   <trkpt lat="32.6179680" lon="35.1198060">
    <ele>150.9</ele>
    <time>2014-02-21T09:08:28Z</time>
   </trkpt>
   <trkpt lat="32.6180080" lon="35.1197700">
    <ele>150.6</ele>
    <time>2014-02-21T09:08:30Z</time>
   </trkpt>
   <trkpt lat="32.6180460" lon="35.1197330">
    <ele>150.3</ele>
    <time>2014-02-21T09:08:32Z</time>
   </trkpt>
   <trkpt lat="32.6180820" lon="35.1196970">
    <ele>149.9</ele>
    <time>2014-02-21T09:08:34Z</time>
   </trkpt>
   <trkpt lat="32.6181160" lon="35.1196650">
    <ele>149.7</ele>
    <time>2014-02-21T09:08:36Z</time>
   </trkpt>
   <trkpt lat="32.6181510" lon="35.1196300">
    <ele>149.4</ele>
    <time>2014-02-21T09:08:38Z</time>
   </trkpt>
   <trkpt lat="32.6181790" lon="35.1195950">
    <ele>149.0</ele>
    <time>2014-02-21T09:08:40Z</time>
   </trkpt>
   <trkpt lat="32.6182060" lon="35.1195740">
    <ele>149.1</ele>
    <time>2014-02-21T09:08:42Z</time>
   </trkpt>
   <trkpt lat="32.6182440" lon="35.1195430">
    <ele>149.3</ele>
    <time>2014-02-21T09:08:44Z</time>
   </trkpt>
   <trkpt lat="32.6182770" lon="35.1195000">
    <ele>149.2</ele>
    <time>2014-02-21T09:08:46Z</time>
   </trkpt>
   <trkpt lat="32.6182950" lon="35.1194760">
    <ele>149.1</ele>
    <time>2014-02-21T09:08:47Z</time>
   </trkpt>
   <trkpt lat="32.6183340" lon="35.1194310">
    <ele>149.0</ele>
    <time>2014-02-21T09:08:49Z</time>
   </trkpt>
   <trkpt lat="32.6183740" lon="35.1193910">
    <ele>148.9</ele>
    <time>2014-02-21T09:08:51Z</time>
   </trkpt>
   <trkpt lat="32.6184180" lon="35.1193620">
    <ele>149.0</ele>
    <time>2014-02-21T09:08:53Z</time>
   </trkpt>
   <trkpt lat="32.6184650" lon="35.1193460">
    <ele>149.5</ele>
    <time>2014-02-21T09:08:55Z</time>
   </trkpt>
   <trkpt lat="32.6185140" lon="35.1193420">
    <ele>150.2</ele>
    <time>2014-02-21T09:08:57Z</time>
   </trkpt>
   <trkpt lat="32.6185610" lon="35.1193490">
    <ele>151.1</ele>
    <time>2014-02-21T09:08:59Z</time>
   </trkpt>
   <trkpt lat="32.6186060" lon="35.1193560">
    <ele>152.0</ele>
    <time>2014-02-21T09:09:01Z</time>
   </trkpt>
   <trkpt lat="32.6186480" lon="35.1193680">
    <ele>153.1</ele>
    <time>2014-02-21T09:09:03Z</time>
   </trkpt>
   <trkpt lat="32.6186870" lon="35.1193810">
    <ele>154.1</ele>
    <time>2014-02-21T09:09:05Z</time>
   </trkpt>
   <trkpt lat="32.6187250" lon="35.1193950">
    <ele>155.1</ele>
    <time>2014-02-21T09:09:07Z</time>
   </trkpt>
   <trkpt lat="32.6187630" lon="35.1194180">
    <ele>156.1</ele>
    <time>2014-02-21T09:09:09Z</time>
   </trkpt>
   <trkpt lat="32.6188050" lon="35.1194380">
    <ele>156.4</ele>
    <time>2014-02-21T09:09:11Z</time>
   </trkpt>
   <trkpt lat="32.6188470" lon="35.1194550">
    <ele>156.6</ele>
    <time>2014-02-21T09:09:13Z</time>
   </trkpt>
   <trkpt lat="32.6188830" lon="35.1194830">
    <ele>157.2</ele>
    <time>2014-02-21T09:09:15Z</time>
   </trkpt>
   <trkpt lat="32.6189170" lon="35.1195100">
    <ele>157.7</ele>
    <time>2014-02-21T09:09:17Z</time>
   </trkpt>
   <trkpt lat="32.6189460" lon="35.1195420">
    <ele>158.4</ele>
    <time>2014-02-21T09:09:19Z</time>
   </trkpt>
   <trkpt lat="32.6189710" lon="35.1195770">
    <ele>159.2</ele>
    <time>2014-02-21T09:09:21Z</time>
   </trkpt>
   <trkpt lat="32.6189890" lon="35.1196140">
    <ele>160.0</ele>
    <time>2014-02-21T09:09:23Z</time>
   </trkpt>
   <trkpt lat="32.6190080" lon="35.1196510">
    <ele>160.7</ele>
    <time>2014-02-21T09:09:25Z</time>
   </trkpt>
   <trkpt lat="32.6190290" lon="35.1196940">
    <ele>161.6</ele>
    <time>2014-02-21T09:09:27Z</time>
   </trkpt>
   <trkpt lat="32.6190450" lon="35.1197410">
    <ele>162.5</ele>
    <time>2014-02-21T09:09:29Z</time>
   </trkpt>
   <trkpt lat="32.6190600" lon="35.1197860">
    <ele>163.5</ele>
    <time>2014-02-21T09:09:31Z</time>
   </trkpt>
   <trkpt lat="32.6190770" lon="35.1198310">
    <ele>164.4</ele>
    <time>2014-02-21T09:09:33Z</time>
   </trkpt>
   <trkpt lat="32.6190910" lon="35.1198760">
    <ele>165.4</ele>
    <time>2014-02-21T09:09:35Z</time>
   </trkpt>
   <trkpt lat="32.6190990" lon="35.1199230">
    <ele>166.4</ele>
    <time>2014-02-21T09:09:37Z</time>
   </trkpt>
   <trkpt lat="32.6191000" lon="35.1199670">
    <ele>167.4</ele>
    <time>2014-02-21T09:09:39Z</time>
   </trkpt>
   <trkpt lat="32.6191080" lon="35.1200080">
    <ele>168.3</ele>
    <time>2014-02-21T09:09:41Z</time>
   </trkpt>
   <trkpt lat="32.6191210" lon="35.1200470">
    <ele>169.1</ele>
    <time>2014-02-21T09:09:43Z</time>
   </trkpt>
   <trkpt lat="32.6191310" lon="35.1200850">
    <ele>170.0</ele>
    <time>2014-02-21T09:09:45Z</time>
   </trkpt>
   <trkpt lat="32.6191360" lon="35.1201210">
    <ele>170.8</ele>
    <time>2014-02-21T09:09:47Z</time>
   </trkpt>
   <trkpt lat="32.6191520" lon="35.1201630">
    <ele>171.7</ele>
    <time>2014-02-21T09:09:50Z</time>
   </trkpt>
   <trkpt lat="32.6191690" lon="35.1202040">
    <ele>172.5</ele>
    <time>2014-02-21T09:09:53Z</time>
   </trkpt>
   <trkpt lat="32.6191750" lon="35.1202480">
    <ele>173.5</ele>
    <time>2014-02-21T09:09:56Z</time>
   </trkpt>
   <trkpt lat="32.6191830" lon="35.1202900">
    <ele>174.4</ele>
    <time>2014-02-21T09:09:59Z</time>
   </trkpt>
   <trkpt lat="32.6191900" lon="35.1203240">
    <ele>175.2</ele>
    <time>2014-02-21T09:10:02Z</time>
   </trkpt>
   <trkpt lat="32.6192020" lon="35.1202890">
    <ele>174.3</ele>
    <time>2014-02-21T09:13:56Z</time>
   </trkpt>
   <trkpt lat="32.6192140" lon="35.1202600">
    <ele>173.5</ele>
    <time>2014-02-21T09:14:09Z</time>
   </trkpt>
   <trkpt lat="32.6192120" lon="35.1203010">
    <ele>174.5</ele>
    <time>2014-02-21T09:15:55Z</time>
   </trkpt>
   <trkpt lat="32.6192130" lon="35.1203480">
    <ele>175.6</ele>
    <time>2014-02-21T09:15:57Z</time>
   </trkpt>
   <trkpt lat="32.6192160" lon="35.1204160">
    <ele>177.2</ele>
    <time>2014-02-21T09:15:59Z</time>
   </trkpt>
   <trkpt lat="32.6192170" lon="35.1204590">
    <ele>177.9</ele>
    <time>2014-02-21T09:16:00Z</time>
   </trkpt>
   <trkpt lat="32.6192180" lon="35.1205020">
    <ele>178.6</ele>
    <time>2014-02-21T09:16:01Z</time>
   </trkpt>
   <trkpt lat="32.6192170" lon="35.1205470">
    <ele>179.3</ele>
    <time>2014-02-21T09:16:02Z</time>
   </trkpt>
   <trkpt lat="32.6192140" lon="35.1205930">
    <ele>180.1</ele>
    <time>2014-02-21T09:16:03Z</time>
   </trkpt>
   <trkpt lat="32.6191990" lon="35.1206450">
    <ele>181.1</ele>
    <time>2014-02-21T09:16:04Z</time>
   </trkpt>
   <trkpt lat="32.6191700" lon="35.1207150">
    <ele>182.5</ele>
    <time>2014-02-21T09:16:05Z</time>
   </trkpt>
   <trkpt lat="32.6191550" lon="35.1207480">
    <ele>183.2</ele>
    <time>2014-02-21T09:16:06Z</time>
   </trkpt>
   <trkpt lat="32.6191470" lon="35.1207810">
    <ele>183.8</ele>
    <time>2014-02-21T09:16:07Z</time>
   </trkpt>
   <trkpt lat="32.6191430" lon="35.1208220">
    <ele>184.6</ele>
    <time>2014-02-21T09:16:09Z</time>
   </trkpt>
   <trkpt lat="32.6191220" lon="35.1208630">
    <ele>185.5</ele>
    <time>2014-02-21T09:16:11Z</time>
   </trkpt>
   <trkpt lat="32.6190990" lon="35.1209190">
    <ele>186.7</ele>
    <time>2014-02-21T09:16:13Z</time>
   </trkpt>
   <trkpt lat="32.6190840" lon="35.1209490">
    <ele>187.4</ele>
    <time>2014-02-21T09:16:14Z</time>
   </trkpt>
   <trkpt lat="32.6190670" lon="35.1209780">
    <ele>188.2</ele>
    <time>2014-02-21T09:16:15Z</time>
   </trkpt>
   <trkpt lat="32.6190490" lon="35.1210090">
    <ele>189.0</ele>
    <time>2014-02-21T09:16:16Z</time>
   </trkpt>
   <trkpt lat="32.6190320" lon="35.1210400">
    <ele>189.7</ele>
    <time>2014-02-21T09:16:17Z</time>
   </trkpt>
   <trkpt lat="32.6190140" lon="35.1210720">
    <ele>190.6</ele>
    <time>2014-02-21T09:16:18Z</time>
   </trkpt>
   <trkpt lat="32.6189930" lon="35.1211010">
    <ele>191.4</ele>
    <time>2014-02-21T09:16:19Z</time>
   </trkpt>
   <trkpt lat="32.6189740" lon="35.1211310">
    <ele>192.2</ele>
    <time>2014-02-21T09:16:20Z</time>
   </trkpt>
   <trkpt lat="32.6189570" lon="35.1211610">
    <ele>193.1</ele>
    <time>2014-02-21T09:16:21Z</time>
   </trkpt>
   <trkpt lat="32.6189450" lon="35.1211920">
    <ele>193.8</ele>
    <time>2014-02-21T09:16:22Z</time>
   </trkpt>
   <trkpt lat="32.6189350" lon="35.1212250">
    <ele>194.6</ele>
    <time>2014-02-21T09:16:23Z</time>
   </trkpt>
   <trkpt lat="32.6189220" lon="35.1212620">
    <ele>195.4</ele>
    <time>2014-02-21T09:16:24Z</time>
   </trkpt>
   <trkpt lat="32.6189080" lon="35.1213000">
    <ele>195.8</ele>
    <time>2014-02-21T09:16:25Z</time>
   </trkpt>
   <trkpt lat="32.6188940" lon="35.1213370">
    <ele>196.3</ele>
    <time>2014-02-21T09:16:26Z</time>
   </trkpt>
   <trkpt lat="32.6188800" lon="35.1213750">
    <ele>196.7</ele>
    <time>2014-02-21T09:16:27Z</time>
   </trkpt>
   <trkpt lat="32.6188740" lon="35.1214180">
    <ele>197.1</ele>
    <time>2014-02-21T09:16:28Z</time>
   </trkpt>
   <trkpt lat="32.6188700" lon="35.1214600">
    <ele>197.5</ele>
    <time>2014-02-21T09:16:29Z</time>
   </trkpt>
   <trkpt lat="32.6188700" lon="35.1215040">
    <ele>197.7</ele>
    <time>2014-02-21T09:16:30Z</time>
   </trkpt>
   <trkpt lat="32.6188720" lon="35.1215480">
    <ele>198.0</ele>
    <time>2014-02-21T09:16:31Z</time>
   </trkpt>
   <trkpt lat="32.6188740" lon="35.1215930">
    <ele>198.2</ele>
    <time>2014-02-21T09:16:32Z</time>
   </trkpt>
   <trkpt lat="32.6188770" lon="35.1216390">
    <ele>198.4</ele>
    <time>2014-02-21T09:16:33Z</time>
   </trkpt>
   <trkpt lat="32.6188840" lon="35.1216850">
    <ele>198.6</ele>
    <time>2014-02-21T09:16:34Z</time>
   </trkpt>
   <trkpt lat="32.6188910" lon="35.1217310">
    <ele>198.7</ele>
    <time>2014-02-21T09:16:35Z</time>
   </trkpt>
   <trkpt lat="32.6189000" lon="35.1217750">
    <ele>198.7</ele>
    <time>2014-02-21T09:16:36Z</time>
   </trkpt>
   <trkpt lat="32.6189100" lon="35.1218200">
    <ele>198.7</ele>
    <time>2014-02-21T09:16:37Z</time>
   </trkpt>
   <trkpt lat="32.6189210" lon="35.1218650">
    <ele>198.7</ele>
    <time>2014-02-21T09:16:38Z</time>
   </trkpt>
   <trkpt lat="32.6189330" lon="35.1219140">
    <ele>198.6</ele>
    <time>2014-02-21T09:16:39Z</time>
   </trkpt>
   <trkpt lat="32.6189490" lon="35.1219630">
    <ele>198.4</ele>
    <time>2014-02-21T09:16:40Z</time>
   </trkpt>
   <trkpt lat="32.6189710" lon="35.1220080">
    <ele>198.0</ele>
    <time>2014-02-21T09:16:41Z</time>
   </trkpt>
   <trkpt lat="32.6190000" lon="35.1220520">
    <ele>197.4</ele>
    <time>2014-02-21T09:16:42Z</time>
   </trkpt>
   <trkpt lat="32.6190380" lon="35.1220870">
    <ele>196.4</ele>
    <time>2014-02-21T09:16:43Z</time>
   </trkpt>
   <trkpt lat="32.6190850" lon="35.1221090">
    <ele>195.4</ele>
    <time>2014-02-21T09:16:44Z</time>
   </trkpt>
   <trkpt lat="32.6191390" lon="35.1221090">
    <ele>193.8</ele>
    <time>2014-02-21T09:16:45Z</time>
   </trkpt>
   <trkpt lat="32.6192460" lon="35.1220510">
    <ele>190.1</ele>
    <time>2014-02-21T09:16:46Z</time>
   </trkpt>
   <trkpt lat="32.6192970" lon="35.1220300">
    <ele>188.6</ele>
    <time>2014-02-21T09:16:47Z</time>
   </trkpt>
   <trkpt lat="32.6193440" lon="35.1220070">
    <ele>187.3</ele>
    <time>2014-02-21T09:16:48Z</time>
   </trkpt>
   <trkpt lat="32.6193830" lon="35.1220200">
    <ele>186.2</ele>
    <time>2014-02-21T09:16:49Z</time>
   </trkpt>
   <trkpt lat="32.6194350" lon="35.1220100">
    <ele>184.7</ele>
    <time>2014-02-21T09:16:50Z</time>
   </trkpt>
   <trkpt lat="32.6194780" lon="35.1220070">
    <ele>183.5</ele>
    <time>2014-02-21T09:16:51Z</time>
   </trkpt>
   <trkpt lat="32.6195190" lon="35.1220060">
    <ele>182.3</ele>
    <time>2014-02-21T09:16:52Z</time>
   </trkpt>
   <trkpt lat="32.6195540" lon="35.1220070">
    <ele>181.3</ele>
    <time>2014-02-21T09:16:53Z</time>
   </trkpt>
   <trkpt lat="32.6195980" lon="35.1220020">
    <ele>180.2</ele>
    <time>2014-02-21T09:16:54Z</time>
   </trkpt>
   <trkpt lat="32.6196310" lon="35.1219990">
    <ele>179.5</ele>
    <time>2014-02-21T09:16:55Z</time>
   </trkpt>
   <trkpt lat="32.6196680" lon="35.1219930">
    <ele>178.8</ele>
    <time>2014-02-21T09:16:56Z</time>
   </trkpt>
   <trkpt lat="32.6197360" lon="35.1219990">
    <ele>177.4</ele>
    <time>2014-02-21T09:16:58Z</time>
   </trkpt>
   <trkpt lat="32.6197740" lon="35.1219870">
    <ele>176.6</ele>
    <time>2014-02-21T09:16:59Z</time>
   </trkpt>
   <trkpt lat="32.6198140" lon="35.1219830">
    <ele>175.8</ele>
    <time>2014-02-21T09:17:00Z</time>
   </trkpt>
   <trkpt lat="32.6198550" lon="35.1219770">
    <ele>174.9</ele>
    <time>2014-02-21T09:17:01Z</time>
   </trkpt>
   <trkpt lat="32.6198960" lon="35.1219790">
    <ele>174.1</ele>
    <time>2014-02-21T09:17:02Z</time>
   </trkpt>
   <trkpt lat="32.6199390" lon="35.1219800">
    <ele>173.2</ele>
    <time>2014-02-21T09:17:03Z</time>
   </trkpt>
   <trkpt lat="32.6199820" lon="35.1219820">
    <ele>172.3</ele>
    <time>2014-02-21T09:17:04Z</time>
   </trkpt>
   <trkpt lat="32.6200240" lon="35.1219820">
    <ele>171.4</ele>
    <time>2014-02-21T09:17:05Z</time>
   </trkpt>
   <trkpt lat="32.6200660" lon="35.1219850">
    <ele>170.5</ele>
    <time>2014-02-21T09:17:06Z</time>
   </trkpt>
   <trkpt lat="32.6201090" lon="35.1219900">
    <ele>169.7</ele>
    <time>2014-02-21T09:17:07Z</time>
   </trkpt>
   <trkpt lat="32.6201530" lon="35.1219960">
    <ele>168.8</ele>
    <time>2014-02-21T09:17:08Z</time>
   </trkpt>
   <trkpt lat="32.6202160" lon="35.1220140">
    <ele>167.8</ele>
    <time>2014-02-21T09:17:09Z</time>
   </trkpt>
   <trkpt lat="32.6202680" lon="35.1220220">
    <ele>166.8</ele>
    <time>2014-02-21T09:17:10Z</time>
   </trkpt>
   <trkpt lat="32.6203200" lon="35.1220290">
    <ele>165.9</ele>
    <time>2014-02-21T09:17:11Z</time>
   </trkpt>
   <trkpt lat="32.6203700" lon="35.1220220">
    <ele>164.8</ele>
    <time>2014-02-21T09:17:12Z</time>
   </trkpt>
   <trkpt lat="32.6204180" lon="35.1220240">
    <ele>163.9</ele>
    <time>2014-02-21T09:17:13Z</time>
   </trkpt>
   <trkpt lat="32.6204620" lon="35.1220220">
    <ele>163.4</ele>
    <time>2014-02-21T09:17:14Z</time>
   </trkpt>
   <trkpt lat="32.6205250" lon="35.1220220">
    <ele>162.6</ele>
    <time>2014-02-21T09:17:15Z</time>
   </trkpt>
   <trkpt lat="32.6205840" lon="35.1220110">
    <ele>161.7</ele>
    <time>2014-02-21T09:17:16Z</time>
   </trkpt>
   <trkpt lat="32.6206430" lon="35.1220040">
    <ele>160.8</ele>
    <time>2014-02-21T09:17:17Z</time>
   </trkpt>
   <trkpt lat="32.6207040" lon="35.1219990">
    <ele>160.0</ele>
    <time>2014-02-21T09:17:18Z</time>
   </trkpt>
   <trkpt lat="32.6207590" lon="35.1220010">
    <ele>159.3</ele>
    <time>2014-02-21T09:17:19Z</time>
   </trkpt>
   <trkpt lat="32.6208200" lon="35.1220050">
    <ele>158.7</ele>
    <time>2014-02-21T09:17:20Z</time>
   </trkpt>
   <trkpt lat="32.6208890" lon="35.1219910">
    <ele>157.5</ele>
    <time>2014-02-21T09:17:21Z</time>
   </trkpt>
   <trkpt lat="32.6209520" lon="35.1219830">
    <ele>156.5</ele>
    <time>2014-02-21T09:17:22Z</time>
   </trkpt>
   <trkpt lat="32.6210210" lon="35.1219830">
    <ele>155.6</ele>
    <time>2014-02-21T09:17:23Z</time>
   </trkpt>
   <trkpt lat="32.6210860" lon="35.1219980">
    <ele>155.2</ele>
    <time>2014-02-21T09:17:24Z</time>
   </trkpt>
   <trkpt lat="32.6211360" lon="35.1220220">
    <ele>155.4</ele>
    <time>2014-02-21T09:17:25Z</time>
   </trkpt>
   <trkpt lat="32.6211720" lon="35.1220390">
    <ele>155.5</ele>
    <time>2014-02-21T09:17:26Z</time>
   </trkpt>
   <trkpt lat="32.6212090" lon="35.1220510">
    <ele>155.4</ele>
    <time>2014-02-21T09:17:27Z</time>
   </trkpt>
   <trkpt lat="32.6212350" lon="35.1220610">
    <ele>155.4</ele>
    <time>2014-02-21T09:17:28Z</time>
   </trkpt>
   <trkpt lat="32.6212690" lon="35.1220840">
    <ele>155.8</ele>
    <time>2014-02-21T09:17:29Z</time>
   </trkpt>
   <trkpt lat="32.6212880" lon="35.1221070">
    <ele>156.4</ele>
    <time>2014-02-21T09:17:30Z</time>
   </trkpt>
   <trkpt lat="32.6213130" lon="35.1221330">
    <ele>157.1</ele>
    <time>2014-02-21T09:17:31Z</time>
   </trkpt>
   <trkpt lat="32.6213370" lon="35.1221540">
    <ele>157.6</ele>
    <time>2014-02-21T09:17:32Z</time>
   </trkpt>
   <trkpt lat="32.6213630" lon="35.1221660">
    <ele>157.7</ele>
    <time>2014-02-21T09:17:33Z</time>
   </trkpt>
   <trkpt lat="32.6213920" lon="35.1221900">
    <ele>158.2</ele>
    <time>2014-02-21T09:17:34Z</time>
   </trkpt>
   <trkpt lat="32.6214190" lon="35.1222120">
    <ele>158.7</ele>
    <time>2014-02-21T09:17:35Z</time>
   </trkpt>
   <trkpt lat="32.6214490" lon="35.1222380">
    <ele>159.2</ele>
    <time>2014-02-21T09:17:36Z</time>
   </trkpt>
   <trkpt lat="32.6214720" lon="35.1222700">
    <ele>160.1</ele>
    <time>2014-02-21T09:17:37Z</time>
   </trkpt>
   <trkpt lat="32.6215000" lon="35.1222980">
    <ele>160.8</ele>
    <time>2014-02-21T09:17:38Z</time>
   </trkpt>
   <trkpt lat="32.6215260" lon="35.1223310">
    <ele>161.6</ele>
    <time>2014-02-21T09:17:39Z</time>
   </trkpt>
   <trkpt lat="32.6215550" lon="35.1223700">
    <ele>162.7</ele>
    <time>2014-02-21T09:17:40Z</time>
   </trkpt>
   <trkpt lat="32.6215830" lon="35.1224060">
    <ele>163.6</ele>
    <time>2014-02-21T09:17:41Z</time>
   </trkpt>
   <trkpt lat="32.6216090" lon="35.1224440">
    <ele>164.6</ele>
    <time>2014-02-21T09:17:42Z</time>
   </trkpt>
   <trkpt lat="32.6216360" lon="35.1224800">
    <ele>165.5</ele>
    <time>2014-02-21T09:17:43Z</time>
   </trkpt>
   <trkpt lat="32.6216610" lon="35.1225160">
    <ele>166.5</ele>
    <time>2014-02-21T09:17:44Z</time>
   </trkpt>
   <trkpt lat="32.6216850" lon="35.1225520">
    <ele>167.4</ele>
    <time>2014-02-21T09:17:45Z</time>
   </trkpt>
   <trkpt lat="32.6217080" lon="35.1225890">
    <ele>168.4</ele>
    <time>2014-02-21T09:17:46Z</time>
   </trkpt>
   <trkpt lat="32.6217300" lon="35.1226270">
    <ele>169.4</ele>
    <time>2014-02-21T09:17:47Z</time>
   </trkpt>
   <trkpt lat="32.6217530" lon="35.1226660">
    <ele>170.4</ele>
    <time>2014-02-21T09:17:48Z</time>
   </trkpt>
   <trkpt lat="32.6217740" lon="35.1227060">
    <ele>171.5</ele>
    <time>2014-02-21T09:17:49Z</time>
   </trkpt>
   <trkpt lat="32.6217940" lon="35.1227480">
    <ele>172.7</ele>
    <time>2014-02-21T09:17:50Z</time>
   </trkpt>
   <trkpt lat="32.6218120" lon="35.1227910">
    <ele>173.9</ele>
    <time>2014-02-21T09:17:51Z</time>
   </trkpt>
   <trkpt lat="32.6218300" lon="35.1228360">
    <ele>175.2</ele>
    <time>2014-02-21T09:17:52Z</time>
   </trkpt>
   <trkpt lat="32.6218630" lon="35.1228910">
    <ele>176.6</ele>
    <time>2014-02-21T09:17:53Z</time>
   </trkpt>
   <trkpt lat="32.6218840" lon="35.1229390">
    <ele>177.6</ele>
    <time>2014-02-21T09:17:54Z</time>
   </trkpt>
   <trkpt lat="32.6219130" lon="35.1229880">
    <ele>178.2</ele>
    <time>2014-02-21T09:17:55Z</time>
   </trkpt>
   <trkpt lat="32.6219410" lon="35.1230340">
    <ele>178.7</ele>
    <time>2014-02-21T09:17:56Z</time>
   </trkpt>
   <trkpt lat="32.6219620" lon="35.1230850">
    <ele>179.5</ele>
    <time>2014-02-21T09:17:57Z</time>
   </trkpt>
   <trkpt lat="32.6219890" lon="35.1231390">
    <ele>180.2</ele>
    <time>2014-02-21T09:17:58Z</time>
   </trkpt>
   <trkpt lat="32.6220110" lon="35.1232040">
    <ele>181.2</ele>
    <time>2014-02-21T09:17:59Z</time>
   </trkpt>
   <trkpt lat="32.6220320" lon="35.1232730">
    <ele>182.3</ele>
    <time>2014-02-21T09:18:00Z</time>
   </trkpt>
   <trkpt lat="32.6220560" lon="35.1233460">
    <ele>183.4</ele>
    <time>2014-02-21T09:18:01Z</time>
   </trkpt>
   <trkpt lat="32.6220820" lon="35.1234170">
    <ele>184.4</ele>
    <time>2014-02-21T09:18:02Z</time>
   </trkpt>
   <trkpt lat="32.6221110" lon="35.1234870">
    <ele>184.5</ele>
    <time>2014-02-21T09:18:03Z</time>
   </trkpt>
   <trkpt lat="32.6221440" lon="35.1235670">
    <ele>184.5</ele>
    <time>2014-02-21T09:18:04Z</time>
   </trkpt>
   <trkpt lat="32.6221700" lon="35.1236530">
    <ele>185.0</ele>
    <time>2014-02-21T09:18:05Z</time>
   </trkpt>
   <trkpt lat="32.6221930" lon="35.1237470">
    <ele>185.8</ele>
    <time>2014-02-21T09:18:06Z</time>
   </trkpt>
   <trkpt lat="32.6222060" lon="35.1238450">
    <ele>185.8</ele>
    <time>2014-02-21T09:18:07Z</time>
   </trkpt>
   <trkpt lat="32.6222130" lon="35.1239380">
    <ele>186.2</ele>
    <time>2014-02-21T09:18:08Z</time>
   </trkpt>
   <trkpt lat="32.6222190" lon="35.1240330">
    <ele>186.6</ele>
    <time>2014-02-21T09:18:09Z</time>
   </trkpt>
   <trkpt lat="32.6222220" lon="35.1241110">
    <ele>187.1</ele>
    <time>2014-02-21T09:18:10Z</time>
   </trkpt>
   <trkpt lat="32.6222300" lon="35.1241840">
    <ele>187.2</ele>
    <time>2014-02-21T09:18:11Z</time>
   </trkpt>
   <trkpt lat="32.6222420" lon="35.1242450">
    <ele>187.0</ele>
    <time>2014-02-21T09:18:12Z</time>
   </trkpt>
   <trkpt lat="32.6222590" lon="35.1243090">
    <ele>186.5</ele>
    <time>2014-02-21T09:18:13Z</time>
   </trkpt>
   <trkpt lat="32.6222740" lon="35.1243800">
    <ele>186.2</ele>
    <time>2014-02-21T09:18:14Z</time>
   </trkpt>
   <trkpt lat="32.6222890" lon="35.1244440">
    <ele>185.8</ele>
    <time>2014-02-21T09:18:15Z</time>
   </trkpt>
   <trkpt lat="32.6223070" lon="35.1245120">
    <ele>185.3</ele>
    <time>2014-02-21T09:18:16Z</time>
   </trkpt>
   <trkpt lat="32.6223160" lon="35.1245810">
    <ele>185.3</ele>
    <time>2014-02-21T09:18:17Z</time>
   </trkpt>
   <trkpt lat="32.6223090" lon="35.1246550">
    <ele>186.1</ele>
    <time>2014-02-21T09:18:18Z</time>
   </trkpt>
   <trkpt lat="32.6223140" lon="35.1247040">
    <ele>186.1</ele>
    <time>2014-02-21T09:18:19Z</time>
   </trkpt>
   <trkpt lat="32.6223110" lon="35.1247670">
    <ele>186.7</ele>
    <time>2014-02-21T09:18:20Z</time>
   </trkpt>
   <trkpt lat="32.6223110" lon="35.1248270">
    <ele>187.0</ele>
    <time>2014-02-21T09:18:21Z</time>
   </trkpt>
   <trkpt lat="32.6223170" lon="35.1248820">
    <ele>187.0</ele>
    <time>2014-02-21T09:18:22Z</time>
   </trkpt>
   <trkpt lat="32.6223230" lon="35.1249500">
    <ele>187.1</ele>
    <time>2014-02-21T09:18:23Z</time>
   </trkpt>
   <trkpt lat="32.6223280" lon="35.1250110">
    <ele>187.1</ele>
    <time>2014-02-21T09:18:24Z</time>
   </trkpt>
   <trkpt lat="32.6223300" lon="35.1250600">
    <ele>187.3</ele>
    <time>2014-02-21T09:18:25Z</time>
   </trkpt>
   <trkpt lat="32.6223590" lon="35.1251030">
    <ele>186.1</ele>
    <time>2014-02-21T09:18:26Z</time>
   </trkpt>
   <trkpt lat="32.6223690" lon="35.1251560">
    <ele>185.9</ele>
    <time>2014-02-21T09:18:27Z</time>
   </trkpt>
   <trkpt lat="32.6223820" lon="35.1252050">
    <ele>185.6</ele>
    <time>2014-02-21T09:18:28Z</time>
   </trkpt>
   <trkpt lat="32.6224020" lon="35.1252630">
    <ele>185.0</ele>
    <time>2014-02-21T09:18:29Z</time>
   </trkpt>
   <trkpt lat="32.6224060" lon="35.1253230">
    <ele>185.2</ele>
    <time>2014-02-21T09:18:30Z</time>
   </trkpt>
   <trkpt lat="32.6224220" lon="35.1253760">
    <ele>184.9</ele>
    <time>2014-02-21T09:18:31Z</time>
   </trkpt>
   <trkpt lat="32.6224300" lon="35.1254270">
    <ele>184.7</ele>
    <time>2014-02-21T09:18:32Z</time>
   </trkpt>
   <trkpt lat="32.6224450" lon="35.1254960">
    <ele>183.8</ele>
    <time>2014-02-21T09:18:33Z</time>
   </trkpt>
   <trkpt lat="32.6225020" lon="35.1255480">
    <ele>181.1</ele>
    <time>2014-02-21T09:18:34Z</time>
   </trkpt>
   <trkpt lat="32.6225320" lon="35.1255930">
    <ele>179.7</ele>
    <time>2014-02-21T09:18:35Z</time>
   </trkpt>
   <trkpt lat="32.6225420" lon="35.1256340">
    <ele>179.2</ele>
    <time>2014-02-21T09:18:36Z</time>
   </trkpt>
   <trkpt lat="32.6225840" lon="35.1256820">
    <ele>177.4</ele>
    <time>2014-02-21T09:18:37Z</time>
   </trkpt>
   <trkpt lat="32.6226090" lon="35.1257600">
    <ele>176.4</ele>
    <time>2014-02-21T09:18:38Z</time>
   </trkpt>
   <trkpt lat="32.6226000" lon="35.1258490">
    <ele>176.8</ele>
    <time>2014-02-21T09:18:39Z</time>
   </trkpt>
   <trkpt lat="32.6225960" lon="35.1259090">
    <ele>176.9</ele>
    <time>2014-02-21T09:18:40Z</time>
   </trkpt>
   <trkpt lat="32.6226180" lon="35.1259690">
    <ele>176.2</ele>
    <time>2014-02-21T09:18:41Z</time>
   </trkpt>
   <trkpt lat="32.6226270" lon="35.1260460">
    <ele>175.9</ele>
    <time>2014-02-21T09:18:42Z</time>
   </trkpt>
   <trkpt lat="32.6226410" lon="35.1261230">
    <ele>175.5</ele>
    <time>2014-02-21T09:18:43Z</time>
   </trkpt>
   <trkpt lat="32.6226420" lon="35.1261930">
    <ele>175.5</ele>
    <time>2014-02-21T09:18:44Z</time>
   </trkpt>
   <trkpt lat="32.6226420" lon="35.1262610">
    <ele>175.4</ele>
    <time>2014-02-21T09:18:45Z</time>
   </trkpt>
   <trkpt lat="32.6226260" lon="35.1263370">
    <ele>174.7</ele>
    <time>2014-02-21T09:18:46Z</time>
   </trkpt>
   <trkpt lat="32.6226210" lon="35.1264070">
    <ele>173.7</ele>
    <time>2014-02-21T09:18:47Z</time>
   </trkpt>
   <trkpt lat="32.6226110" lon="35.1264770">
    <ele>172.9</ele>
    <time>2014-02-21T09:18:48Z</time>
   </trkpt>
   <trkpt lat="32.6226120" lon="35.1265430">
    <ele>171.8</ele>
    <time>2014-02-21T09:18:49Z</time>
   </trkpt>
   <trkpt lat="32.6225920" lon="35.1266130">
    <ele>171.1</ele>
    <time>2014-02-21T09:18:50Z</time>
   </trkpt>
   <trkpt lat="32.6225850" lon="35.1266810">
    <ele>170.1</ele>
    <time>2014-02-21T09:18:51Z</time>
   </trkpt>
   <trkpt lat="32.6225740" lon="35.1267350">
    <ele>169.5</ele>
    <time>2014-02-21T09:18:52Z</time>
   </trkpt>
   <trkpt lat="32.6225660" lon="35.1267740">
    <ele>168.9</ele>
    <time>2014-02-21T09:18:53Z</time>
   </trkpt>
   <trkpt lat="32.6225500" lon="35.1268300">
    <ele>168.3</ele>
    <time>2014-02-21T09:18:54Z</time>
   </trkpt>
   <trkpt lat="32.6225330" lon="35.1268800">
    <ele>167.7</ele>
    <time>2014-02-21T09:18:55Z</time>
   </trkpt>
   <trkpt lat="32.6224990" lon="35.1269200">
    <ele>167.5</ele>
    <time>2014-02-21T09:18:56Z</time>
   </trkpt>
   <trkpt lat="32.6224570" lon="35.1269490">
    <ele>167.5</ele>
    <time>2014-02-21T09:18:57Z</time>
   </trkpt>
   <trkpt lat="32.6224200" lon="35.1269760">
    <ele>167.5</ele>
    <time>2014-02-21T09:18:58Z</time>
   </trkpt>
   <trkpt lat="32.6223850" lon="35.1270030">
    <ele>167.4</ele>
    <time>2014-02-21T09:18:59Z</time>
   </trkpt>
   <trkpt lat="32.6223380" lon="35.1270240">
    <ele>167.5</ele>
    <time>2014-02-21T09:19:00Z</time>
   </trkpt>
   <trkpt lat="32.6222960" lon="35.1270400">
    <ele>167.7</ele>
    <time>2014-02-21T09:19:01Z</time>
   </trkpt>
   <trkpt lat="32.6222460" lon="35.1270470">
    <ele>168.1</ele>
    <time>2014-02-21T09:19:02Z</time>
   </trkpt>
   <trkpt lat="32.6222190" lon="35.1270310">
    <ele>168.8</ele>
    <time>2014-02-21T09:19:03Z</time>
   </trkpt>
   <trkpt lat="32.6221820" lon="35.1270330">
    <ele>169.2</ele>
    <time>2014-02-21T09:19:04Z</time>
   </trkpt>
   <trkpt lat="32.6221320" lon="35.1270270">
    <ele>169.9</ele>
    <time>2014-02-21T09:19:05Z</time>
   </trkpt>
   <trkpt lat="32.6220800" lon="35.1269980">
    <ele>171.3</ele>
    <time>2014-02-21T09:19:06Z</time>
   </trkpt>
   <trkpt lat="32.6220340" lon="35.1269960">
    <ele>172.1</ele>
    <time>2014-02-21T09:19:07Z</time>
   </trkpt>
   <trkpt lat="32.6219930" lon="35.1269720">
    <ele>173.4</ele>
    <time>2014-02-21T09:19:08Z</time>
   </trkpt>
   <trkpt lat="32.6219550" lon="35.1269570">
    <ele>174.4</ele>
    <time>2014-02-21T09:19:09Z</time>
   </trkpt>
   <trkpt lat="32.6219260" lon="35.1269380">
    <ele>175.3</ele>
    <time>2014-02-21T09:19:10Z</time>
   </trkpt>
   <trkpt lat="32.6218900" lon="35.1269010">
    <ele>176.8</ele>
    <time>2014-02-21T09:19:12Z</time>
   </trkpt>
   <trkpt lat="32.6218650" lon="35.1268850">
    <ele>177.5</ele>
    <time>2014-02-21T09:19:13Z</time>
   </trkpt>
   <trkpt lat="32.6218340" lon="35.1268670">
    <ele>178.4</ele>
    <time>2014-02-21T09:19:14Z</time>
   </trkpt>
   <trkpt lat="32.6218060" lon="35.1268500">
    <ele>179.2</ele>
    <time>2014-02-21T09:19:15Z</time>
   </trkpt>
   <trkpt lat="32.6217650" lon="35.1268390">
    <ele>180.1</ele>
    <time>2014-02-21T09:19:16Z</time>
   </trkpt>
   <trkpt lat="32.6217270" lon="35.1268290">
    <ele>180.8</ele>
    <time>2014-02-21T09:19:17Z</time>
   </trkpt>
   <trkpt lat="32.6216780" lon="35.1268330">
    <ele>181.4</ele>
    <time>2014-02-21T09:19:18Z</time>
   </trkpt>
   <trkpt lat="32.6216470" lon="35.1268160">
    <ele>182.2</ele>
    <time>2014-02-21T09:19:19Z</time>
   </trkpt>
   <trkpt lat="32.6216220" lon="35.1268030">
    <ele>182.8</ele>
    <time>2014-02-21T09:19:20Z</time>
   </trkpt>
   <trkpt lat="32.6215940" lon="35.1267940">
    <ele>183.4</ele>
    <time>2014-02-21T09:19:21Z</time>
   </trkpt>
   <trkpt lat="32.6215430" lon="35.1267770">
    <ele>184.4</ele>
    <time>2014-02-21T09:19:23Z</time>
   </trkpt>
   <trkpt lat="32.6214990" lon="35.1267750">
    <ele>185.1</ele>
    <time>2014-02-21T09:19:25Z</time>
   </trkpt>
   <trkpt lat="32.6214530" lon="35.1267780">
    <ele>185.6</ele>
    <time>2014-02-21T09:19:27Z</time>
   </trkpt>
   <trkpt lat="32.6214240" lon="35.1267820">
    <ele>186.0</ele>
    <time>2014-02-21T09:19:29Z</time>
   </trkpt>
   <trkpt lat="32.6213940" lon="35.1267780">
    <ele>186.4</ele>
    <time>2014-02-21T09:19:32Z</time>
   </trkpt>
   <trkpt lat="32.6213660" lon="35.1267780">
    <ele>186.8</ele>
    <time>2014-02-21T09:19:35Z</time>
   </trkpt>
   <trkpt lat="32.6213340" lon="35.1267920">
    <ele>187.0</ele>
    <time>2014-02-21T09:19:38Z</time>
   </trkpt>
   <trkpt lat="32.6213220" lon="35.1268240">
    <ele>186.7</ele>
    <time>2014-02-21T09:19:42Z</time>
   </trkpt>
   <trkpt lat="32.6213470" lon="35.1268070">
    <ele>186.6</ele>
    <time>2014-02-21T09:19:50Z</time>
   </trkpt>
   <trkpt lat="32.6213820" lon="35.1267910">
    <ele>186.4</ele>
    <time>2014-02-21T09:21:12Z</time>
   </trkpt>
   <trkpt lat="32.6214090" lon="35.1267680">
    <ele>186.4</ele>
    <time>2014-02-21T09:21:14Z</time>
   </trkpt>
   <trkpt lat="32.6214360" lon="35.1267560">
    <ele>186.2</ele>
    <time>2014-02-21T09:21:16Z</time>
   </trkpt>
   <trkpt lat="32.6214740" lon="35.1267640">
    <ele>185.6</ele>
    <time>2014-02-21T09:21:19Z</time>
   </trkpt>
   <trkpt lat="32.6215130" lon="35.1267720">
    <ele>184.9</ele>
    <time>2014-02-21T09:21:21Z</time>
   </trkpt>
   <trkpt lat="32.6215410" lon="35.1267780">
    <ele>184.4</ele>
    <time>2014-02-21T09:21:22Z</time>
   </trkpt>
   <trkpt lat="32.6215680" lon="35.1267860">
    <ele>183.9</ele>
    <time>2014-02-21T09:21:23Z</time>
   </trkpt>
   <trkpt lat="32.6215970" lon="35.1267950">
    <ele>183.3</ele>
    <time>2014-02-21T09:21:24Z</time>
   </trkpt>
   <trkpt lat="32.6216260" lon="35.1268080">
    <ele>182.7</ele>
    <time>2014-02-21T09:21:25Z</time>
   </trkpt>
   <trkpt lat="32.6216590" lon="35.1268290">
    <ele>181.8</ele>
    <time>2014-02-21T09:21:26Z</time>
   </trkpt>
   <trkpt lat="32.6216930" lon="35.1268520">
    <ele>180.8</ele>
    <time>2014-02-21T09:21:27Z</time>
   </trkpt>
   <trkpt lat="32.6217290" lon="35.1268760">
    <ele>179.8</ele>
    <time>2014-02-21T09:21:28Z</time>
   </trkpt>
   <trkpt lat="32.6217660" lon="35.1268980">
    <ele>178.8</ele>
    <time>2014-02-21T09:21:29Z</time>
   </trkpt>
   <trkpt lat="32.6218000" lon="35.1269140">
    <ele>177.9</ele>
    <time>2014-02-21T09:21:30Z</time>
   </trkpt>
   <trkpt lat="32.6218280" lon="35.1269300">
    <ele>177.1</ele>
    <time>2014-02-21T09:21:31Z</time>
   </trkpt>
   <trkpt lat="32.6218500" lon="35.1269510">
    <ele>176.2</ele>
    <time>2014-02-21T09:21:33Z</time>
   </trkpt>
   <trkpt lat="32.6218210" lon="35.1269520">
    <ele>176.7</ele>
    <time>2014-02-21T09:21:39Z</time>
   </trkpt>
   <trkpt lat="32.6217810" lon="35.1269250">
    <ele>177.9</ele>
    <time>2014-02-21T09:21:47Z</time>
   </trkpt>
   <trkpt lat="32.6217520" lon="35.1269040">
    <ele>178.8</ele>
    <time>2014-02-21T09:21:49Z</time>
   </trkpt>
   <trkpt lat="32.6217170" lon="35.1269030">
    <ele>179.4</ele>
    <time>2014-02-21T09:21:51Z</time>
   </trkpt>
   <trkpt lat="32.6216810" lon="35.1268890">
    <ele>180.2</ele>
    <time>2014-02-21T09:21:53Z</time>
   </trkpt>
   <trkpt lat="32.6216490" lon="35.1268730">
    <ele>181.1</ele>
    <time>2014-02-21T09:21:55Z</time>
   </trkpt>
   <trkpt lat="32.6216140" lon="35.1268590">
    <ele>181.9</ele>
    <time>2014-02-21T09:21:57Z</time>
   </trkpt>
   <trkpt lat="32.6215760" lon="35.1268460">
    <ele>182.7</ele>
    <time>2014-02-21T09:21:59Z</time>
   </trkpt>
   <trkpt lat="32.6215370" lon="35.1268330">
    <ele>183.5</ele>
    <time>2014-02-21T09:22:01Z</time>
   </trkpt>
   <trkpt lat="32.6214980" lon="35.1268160">
    <ele>184.3</ele>
    <time>2014-02-21T09:22:03Z</time>
   </trkpt>
   <trkpt lat="32.6214590" lon="35.1268050">
    <ele>185.1</ele>
    <time>2014-02-21T09:22:05Z</time>
   </trkpt>
   <trkpt lat="32.6214220" lon="35.1268000">
    <ele>185.7</ele>
    <time>2014-02-21T09:22:07Z</time>
   </trkpt>
   <trkpt lat="32.6213840" lon="35.1267930">
    <ele>186.3</ele>
    <time>2014-02-21T09:22:10Z</time>
   </trkpt>
   <trkpt lat="32.6213530" lon="35.1267960">
    <ele>186.7</ele>
    <time>2014-02-21T09:22:13Z</time>
   </trkpt>
   <trkpt lat="32.6213290" lon="35.1268210">
    <ele>186.7</ele>
    <time>2014-02-21T09:22:16Z</time>
   </trkpt>
   <trkpt lat="32.6213300" lon="35.1268540">
    <ele>186.1</ele>
    <time>2014-02-21T09:22:18Z</time>
   </trkpt>
   <trkpt lat="32.6213280" lon="35.1268860">
    <ele>185.7</ele>
    <time>2014-02-21T09:22:20Z</time>
   </trkpt>
   <trkpt lat="32.6213520" lon="35.1269090">
    <ele>184.9</ele>
    <time>2014-02-21T09:22:22Z</time>
   </trkpt>
   <trkpt lat="32.6213920" lon="35.1269290">
    <ele>184.0</ele>
    <time>2014-02-21T09:22:24Z</time>
   </trkpt>
   <trkpt lat="32.6214320" lon="35.1269600">
    <ele>182.8</ele>
    <time>2014-02-21T09:22:25Z</time>
   </trkpt>
   <trkpt lat="32.6214910" lon="35.1270030">
    <ele>181.1</ele>
    <time>2014-02-21T09:22:26Z</time>
   </trkpt>
   <trkpt lat="32.6216100" lon="35.1271230">
    <ele>177.2</ele>
    <time>2014-02-21T09:22:27Z</time>
   </trkpt>
   <trkpt lat="32.6216680" lon="35.1271970">
    <ele>175.5</ele>
    <time>2014-02-21T09:22:28Z</time>
   </trkpt>
   <trkpt lat="32.6217420" lon="35.1272660">
    <ele>173.3</ele>
    <time>2014-02-21T09:22:29Z</time>
   </trkpt>
   <trkpt lat="32.6218300" lon="35.1273210">
    <ele>170.9</ele>
    <time>2014-02-21T09:22:30Z</time>
   </trkpt>
   <trkpt lat="32.6218900" lon="35.1273970">
    <ele>168.7</ele>
    <time>2014-02-21T09:22:31Z</time>
   </trkpt>
   <trkpt lat="32.6219370" lon="35.1274710">
    <ele>166.8</ele>
    <time>2014-02-21T09:22:32Z</time>
   </trkpt>
   <trkpt lat="32.6220130" lon="35.1275030">
    <ele>164.6</ele>
    <time>2014-02-21T09:22:33Z</time>
   </trkpt>
   <trkpt lat="32.6220780" lon="35.1275900">
    <ele>161.8</ele>
    <time>2014-02-21T09:22:34Z</time>
   </trkpt>
   <trkpt lat="32.6221510" lon="35.1276640">
    <ele>159.6</ele>
    <time>2014-02-21T09:22:35Z</time>
   </trkpt>
   <trkpt lat="32.6222380" lon="35.1277410">
    <ele>157.0</ele>
    <time>2014-02-21T09:22:36Z</time>
   </trkpt>
   <trkpt lat="32.6223150" lon="35.1278140">
    <ele>154.5</ele>
    <time>2014-02-21T09:22:37Z</time>
   </trkpt>
   <trkpt lat="32.6223780" lon="35.1279030">
    <ele>151.9</ele>
    <time>2014-02-21T09:22:38Z</time>
   </trkpt>
   <trkpt lat="32.6224650" lon="35.1279790">
    <ele>149.6</ele>
    <time>2014-02-21T09:22:39Z</time>
   </trkpt>
   <trkpt lat="32.6225340" lon="35.1280610">
    <ele>147.4</ele>
    <time>2014-02-21T09:22:40Z</time>
   </trkpt>
   <trkpt lat="32.6226100" lon="35.1281540">
    <ele>144.8</ele>
    <time>2014-02-21T09:22:41Z</time>
   </trkpt>
   <trkpt lat="32.6226720" lon="35.1282420">
    <ele>142.3</ele>
    <time>2014-02-21T09:22:42Z</time>
   </trkpt>
   <trkpt lat="32.6227520" lon="35.1283160">
    <ele>139.4</ele>
    <time>2014-02-21T09:22:43Z</time>
   </trkpt>
   <trkpt lat="32.6228040" lon="35.1283880">
    <ele>137.0</ele>
    <time>2014-02-21T09:22:44Z</time>
   </trkpt>
   <trkpt lat="32.6228580" lon="35.1284630">
    <ele>134.4</ele>
    <time>2014-02-21T09:22:45Z</time>
   </trkpt>
   <trkpt lat="32.6229170" lon="35.1285410">
    <ele>131.5</ele>
    <time>2014-02-21T09:22:46Z</time>
   </trkpt>
   <trkpt lat="32.6229570" lon="35.1286220">
    <ele>129.3</ele>
    <time>2014-02-21T09:22:47Z</time>
   </trkpt>
   <trkpt lat="32.6230050" lon="35.1286980">
    <ele>127.1</ele>
    <time>2014-02-21T09:22:48Z</time>
   </trkpt>
   <trkpt lat="32.6230490" lon="35.1287730">
    <ele>125.4</ele>
    <time>2014-02-21T09:22:49Z</time>
   </trkpt>
   <trkpt lat="32.6231150" lon="35.1288120">
    <ele>124.0</ele>
    <time>2014-02-21T09:22:50Z</time>
   </trkpt>
   <trkpt lat="32.6231610" lon="35.1288570">
    <ele>123.0</ele>
    <time>2014-02-21T09:22:51Z</time>
   </trkpt>
   <trkpt lat="32.6231940" lon="35.1289140">
    <ele>122.2</ele>
    <time>2014-02-21T09:22:52Z</time>
   </trkpt>
   <trkpt lat="32.6232190" lon="35.1289480">
    <ele>121.5</ele>
    <time>2014-02-21T09:22:53Z</time>
   </trkpt>
   <trkpt lat="32.6232280" lon="35.1290050">
    <ele>121.1</ele>
    <time>2014-02-21T09:22:55Z</time>
   </trkpt>
   <trkpt lat="32.6232520" lon="35.1290540">
    <ele>120.5</ele>
    <time>2014-02-21T09:22:57Z</time>
   </trkpt>
   <trkpt lat="32.6232660" lon="35.1290690">
    <ele>120.1</ele>
    <time>2014-02-21T09:23:41Z</time>
   </trkpt>
   <trkpt lat="32.6232790" lon="35.1290840">
    <ele>119.8</ele>
    <time>2014-02-21T09:23:51Z</time>
   </trkpt>
   <trkpt lat="32.6232970" lon="35.1291040">
    <ele>119.3</ele>
    <time>2014-02-21T09:23:52Z</time>
   </trkpt>
   <trkpt lat="32.6233670" lon="35.1291710">
    <ele>117.5</ele>
    <time>2014-02-21T09:23:53Z</time>
   </trkpt>
   <trkpt lat="32.6233850" lon="35.1291970">
    <ele>117.0</ele>
    <time>2014-02-21T09:23:54Z</time>
   </trkpt>
   <trkpt lat="32.6234140" lon="35.1292210">
    <ele>116.2</ele>
    <time>2014-02-21T09:23:56Z</time>
   </trkpt>
   <trkpt lat="32.6234420" lon="35.1292090">
    <ele>115.6</ele>
    <time>2014-02-21T09:24:17Z</time>
   </trkpt>
   <trkpt lat="32.6234920" lon="35.1292050">
    <ele>114.5</ele>
    <time>2014-02-21T09:24:20Z</time>
   </trkpt>
   <trkpt lat="32.6235280" lon="35.1292180">
    <ele>113.6</ele>
    <time>2014-02-21T09:24:21Z</time>
   </trkpt>
   <trkpt lat="32.6235650" lon="35.1292400">
    <ele>112.7</ele>
    <time>2014-02-21T09:24:22Z</time>
   </trkpt>
   <trkpt lat="32.6236090" lon="35.1292680">
    <ele>111.5</ele>
    <time>2014-02-21T09:24:23Z</time>
   </trkpt>
   <trkpt lat="32.6236810" lon="35.1292940">
    <ele>109.7</ele>
    <time>2014-02-21T09:24:24Z</time>
   </trkpt>
   <trkpt lat="32.6237400" lon="35.1293110">
    <ele>108.2</ele>
    <time>2014-02-21T09:24:25Z</time>
   </trkpt>
   <trkpt lat="32.6238030" lon="35.1293290">
    <ele>106.9</ele>
    <time>2014-02-21T09:24:26Z</time>
   </trkpt>
   <trkpt lat="32.6238560" lon="35.1293050">
    <ele>106.1</ele>
    <time>2014-02-21T09:24:27Z</time>
   </trkpt>
   <trkpt lat="32.6239090" lon="35.1292660">
    <ele>105.4</ele>
    <time>2014-02-21T09:24:28Z</time>
   </trkpt>
   <trkpt lat="32.6239730" lon="35.1292350">
    <ele>104.3</ele>
    <time>2014-02-21T09:24:29Z</time>
   </trkpt>
   <trkpt lat="32.6240240" lon="35.1292190">
    <ele>103.4</ele>
    <time>2014-02-21T09:24:30Z</time>
   </trkpt>
   <trkpt lat="32.6240800" lon="35.1291890">
    <ele>102.4</ele>
    <time>2014-02-21T09:24:31Z</time>
   </trkpt>
   <trkpt lat="32.6241380" lon="35.1291510">
    <ele>101.3</ele>
    <time>2014-02-21T09:24:32Z</time>
   </trkpt>
   <trkpt lat="32.6241950" lon="35.1291140">
    <ele>100.2</ele>
    <time>2014-02-21T09:24:33Z</time>
   </trkpt>
   <trkpt lat="32.6242510" lon="35.1290820">
    <ele>99.0</ele>
    <time>2014-02-21T09:24:34Z</time>
   </trkpt>
   <trkpt lat="32.6242950" lon="35.1290450">
    <ele>98.0</ele>
    <time>2014-02-21T09:24:35Z</time>
   </trkpt>
   <trkpt lat="32.6243410" lon="35.1289950">
    <ele>96.9</ele>
    <time>2014-02-21T09:24:36Z</time>
   </trkpt>
   <trkpt lat="32.6243890" lon="35.1289510">
    <ele>95.7</ele>
    <time>2014-02-21T09:24:37Z</time>
   </trkpt>
   <trkpt lat="32.6244500" lon="35.1289150">
    <ele>94.2</ele>
    <time>2014-02-21T09:24:38Z</time>
   </trkpt>
   <trkpt lat="32.6245020" lon="35.1288810">
    <ele>92.8</ele>
    <time>2014-02-21T09:24:39Z</time>
   </trkpt>
   <trkpt lat="32.6245430" lon="35.1288270">
    <ele>91.5</ele>
    <time>2014-02-21T09:24:40Z</time>
   </trkpt>
   <trkpt lat="32.6245870" lon="35.1287910">
    <ele>90.2</ele>
    <time>2014-02-21T09:24:41Z</time>
   </trkpt>
   <trkpt lat="32.6246190" lon="35.1287720">
    <ele>90.0</ele>
    <time>2014-02-21T09:24:42Z</time>
   </trkpt>
   <trkpt lat="32.6246800" lon="35.1287700">
    <ele>89.6</ele>
    <time>2014-02-21T09:24:44Z</time>
   </trkpt>
   <trkpt lat="32.6247360" lon="35.1287760">
    <ele>89.4</ele>
    <time>2014-02-21T09:24:46Z</time>
   </trkpt>
   <trkpt lat="32.6247690" lon="35.1287810">
    <ele>89.3</ele>
    <time>2014-02-21T09:24:47Z</time>
   </trkpt>
   <trkpt lat="32.6248070" lon="35.1287870">
    <ele>89.1</ele>
    <time>2014-02-21T09:24:48Z</time>
   </trkpt>
   <trkpt lat="32.6248420" lon="35.1287990">
    <ele>89.0</ele>
    <time>2014-02-21T09:24:49Z</time>
   </trkpt>
   <trkpt lat="32.6248710" lon="35.1287950">
    <ele>88.8</ele>
    <time>2014-02-21T09:24:50Z</time>
   </trkpt>
   <trkpt lat="32.6248990" lon="35.1287990">
    <ele>88.7</ele>
    <time>2014-02-21T09:24:51Z</time>
   </trkpt>
   <trkpt lat="32.6249340" lon="35.1287740">
    <ele>88.4</ele>
    <time>2014-02-21T09:24:53Z</time>
   </trkpt>
   <trkpt lat="32.6249400" lon="35.1287220">
    <ele>88.5</ele>
    <time>2014-02-21T09:26:11Z</time>
   </trkpt>
   <trkpt lat="32.6249680" lon="35.1286650">
    <ele>89.0</ele>
    <time>2014-02-21T09:26:13Z</time>
   </trkpt>
   <trkpt lat="32.6249950" lon="35.1286390">
    <ele>89.2</ele>
    <time>2014-02-21T09:26:14Z</time>
   </trkpt>
   <trkpt lat="32.6250220" lon="35.1286110">
    <ele>89.5</ele>
    <time>2014-02-21T09:26:15Z</time>
   </trkpt>
   <trkpt lat="32.6250470" lon="35.1285810">
    <ele>89.8</ele>
    <time>2014-02-21T09:26:16Z</time>
   </trkpt>
   <trkpt lat="32.6250690" lon="35.1285480">
    <ele>90.2</ele>
    <time>2014-02-21T09:26:17Z</time>
   </trkpt>
   <trkpt lat="32.6250890" lon="35.1285190">
    <ele>90.6</ele>
    <time>2014-02-21T09:26:18Z</time>
   </trkpt>
   <trkpt lat="32.6251060" lon="35.1284930">
    <ele>91.0</ele>
    <time>2014-02-21T09:26:19Z</time>
   </trkpt>
   <trkpt lat="32.6251330" lon="35.1284790">
    <ele>91.2</ele>
    <time>2014-02-21T09:26:22Z</time>
   </trkpt>
   <trkpt lat="32.6251600" lon="35.1284890">
    <ele>91.1</ele>
    <time>2014-02-21T09:26:24Z</time>
   </trkpt>
   <trkpt lat="32.6251790" lon="35.1285240">
    <ele>90.6</ele>
    <time>2014-02-21T09:26:26Z</time>
   </trkpt>
   <trkpt lat="32.6251920" lon="35.1285750">
    <ele>89.8</ele>
    <time>2014-02-21T09:26:28Z</time>
   </trkpt>
   <trkpt lat="32.6252070" lon="35.1286060">
    <ele>89.3</ele>
    <time>2014-02-21T09:26:29Z</time>
   </trkpt>
   <trkpt lat="32.6252320" lon="35.1286550">
    <ele>88.5</ele>
    <time>2014-02-21T09:26:30Z</time>
   </trkpt>
   <trkpt lat="32.6252540" lon="35.1286980">
    <ele>87.7</ele>
    <time>2014-02-21T09:26:31Z</time>
   </trkpt>
   <trkpt lat="32.6252770" lon="35.1287400">
    <ele>86.9</ele>
    <time>2014-02-21T09:26:32Z</time>
   </trkpt>
   <trkpt lat="32.6252970" lon="35.1287830">
    <ele>86.6</ele>
    <time>2014-02-21T09:26:33Z</time>
   </trkpt>
   <trkpt lat="32.6253150" lon="35.1288280">
    <ele>86.5</ele>
    <time>2014-02-21T09:26:34Z</time>
   </trkpt>
   <trkpt lat="32.6253320" lon="35.1288740">
    <ele>86.5</ele>
    <time>2014-02-21T09:26:35Z</time>
   </trkpt>
   <trkpt lat="32.6253500" lon="35.1289260">
    <ele>86.4</ele>
    <time>2014-02-21T09:26:36Z</time>
   </trkpt>
   <trkpt lat="32.6253680" lon="35.1289780">
    <ele>86.3</ele>
    <time>2014-02-21T09:26:37Z</time>
   </trkpt>
   <trkpt lat="32.6253850" lon="35.1290300">
    <ele>86.2</ele>
    <time>2014-02-21T09:26:38Z</time>
   </trkpt>
   <trkpt lat="32.6254060" lon="35.1290820">
    <ele>86.1</ele>
    <time>2014-02-21T09:26:39Z</time>
   </trkpt>
   <trkpt lat="32.6254380" lon="35.1291400">
    <ele>86.3</ele>
    <time>2014-02-21T09:26:40Z</time>
   </trkpt>
   <trkpt lat="32.6255520" lon="35.1292660">
    <ele>87.9</ele>
    <time>2014-02-21T09:26:41Z</time>
   </trkpt>
   <trkpt lat="32.6256030" lon="35.1293420">
    <ele>88.4</ele>
    <time>2014-02-21T09:26:42Z</time>
   </trkpt>
   <trkpt lat="32.6256430" lon="35.1293980">
    <ele>88.7</ele>
    <time>2014-02-21T09:26:43Z</time>
   </trkpt>
   <trkpt lat="32.6256930" lon="35.1294480">
    <ele>89.1</ele>
    <time>2014-02-21T09:26:44Z</time>
   </trkpt>
   <trkpt lat="32.6257240" lon="35.1295260">
    <ele>89.2</ele>
    <time>2014-02-21T09:26:45Z</time>
   </trkpt>
   <trkpt lat="32.6257930" lon="35.1295660">
    <ele>89.7</ele>
    <time>2014-02-21T09:26:46Z</time>
   </trkpt>
   <trkpt lat="32.6258490" lon="35.1296040">
    <ele>90.2</ele>
    <time>2014-02-21T09:26:47Z</time>
   </trkpt>
   <trkpt lat="32.6258780" lon="35.1296590">
    <ele>90.7</ele>
    <time>2014-02-21T09:26:48Z</time>
   </trkpt>
   <trkpt lat="32.6259100" lon="35.1297190">
    <ele>91.0</ele>
    <time>2014-02-21T09:26:49Z</time>
   </trkpt>
   <trkpt lat="32.6259440" lon="35.1297810">
    <ele>91.3</ele>
    <time>2014-02-21T09:26:50Z</time>
   </trkpt>
   <trkpt lat="32.6259580" lon="35.1298440">
    <ele>91.3</ele>
    <time>2014-02-21T09:26:51Z</time>
   </trkpt>
   <trkpt lat="32.6259810" lon="35.1298830">
    <ele>91.3</ele>
    <time>2014-02-21T09:26:52Z</time>
   </trkpt>
   <trkpt lat="32.6259830" lon="35.1299470">
    <ele>91.3</ele>
    <time>2014-02-21T09:26:53Z</time>
   </trkpt>
   <trkpt lat="32.6259700" lon="35.1300240">
    <ele>91.3</ele>
    <time>2014-02-21T09:26:54Z</time>
   </trkpt>
   <trkpt lat="32.6259910" lon="35.1300580">
    <ele>91.2</ele>
    <time>2014-02-21T09:26:55Z</time>
   </trkpt>
   <trkpt lat="32.6260160" lon="35.1301210">
    <ele>90.9</ele>
    <time>2014-02-21T09:26:56Z</time>
   </trkpt>
   <trkpt lat="32.6259970" lon="35.1301590">
    <ele>91.1</ele>
    <time>2014-02-21T09:26:57Z</time>
   </trkpt>
   <trkpt lat="32.6260060" lon="35.1302150">
    <ele>90.9</ele>
    <time>2014-02-21T09:26:58Z</time>
   </trkpt>
   <trkpt lat="32.6260140" lon="35.1302720">
    <ele>90.7</ele>
    <time>2014-02-21T09:26:59Z</time>
   </trkpt>
   <trkpt lat="32.6260290" lon="35.1303130">
    <ele>90.4</ele>
    <time>2014-02-21T09:27:00Z</time>
   </trkpt>
   <trkpt lat="32.6260550" lon="35.1303490">
    <ele>89.9</ele>
    <time>2014-02-21T09:27:01Z</time>
   </trkpt>
   <trkpt lat="32.6260590" lon="35.1303860">
    <ele>89.8</ele>
    <time>2014-02-21T09:27:02Z</time>
   </trkpt>
   <trkpt lat="32.6260930" lon="35.1304630">
    <ele>89.4</ele>
    <time>2014-02-21T09:27:04Z</time>
   </trkpt>
   <trkpt lat="32.6261280" lon="35.1305260">
    <ele>89.2</ele>
    <time>2014-02-21T09:27:05Z</time>
   </trkpt>
   <trkpt lat="32.6261720" lon="35.1305950">
    <ele>88.8</ele>
    <time>2014-02-21T09:27:06Z</time>
   </trkpt>
   <trkpt lat="32.6261970" lon="35.1306520">
    <ele>88.6</ele>
    <time>2014-02-21T09:27:07Z</time>
   </trkpt>
   <trkpt lat="32.6262460" lon="35.1306850">
    <ele>87.7</ele>
    <time>2014-02-21T09:27:08Z</time>
   </trkpt>
   <trkpt lat="32.6262870" lon="35.1307310">
    <ele>88.0</ele>
    <time>2014-02-21T09:27:09Z</time>
   </trkpt>
   <trkpt lat="32.6263180" lon="35.1307800">
    <ele>88.3</ele>
    <time>2014-02-21T09:27:10Z</time>
   </trkpt>
   <trkpt lat="32.6263510" lon="35.1308130">
    <ele>88.4</ele>
    <time>2014-02-21T09:27:11Z</time>
   </trkpt>
   <trkpt lat="32.6263940" lon="35.1308000">
    <ele>88.4</ele>
    <time>2014-02-21T09:27:12Z</time>
   </trkpt>
   <trkpt lat="32.6264480" lon="35.1308400">
    <ele>88.5</ele>
    <time>2014-02-21T09:27:13Z</time>
   </trkpt>
   <trkpt lat="32.6265270" lon="35.1308860">
    <ele>88.4</ele>
    <time>2014-02-21T09:27:14Z</time>
   </trkpt>
   <trkpt lat="32.6265720" lon="35.1309170">
    <ele>88.3</ele>
    <time>2014-02-21T09:27:15Z</time>
   </trkpt>
   <trkpt lat="32.6266060" lon="35.1309580">
    <ele>88.1</ele>
    <time>2014-02-21T09:27:16Z</time>
   </trkpt>
   <trkpt lat="32.6266530" lon="35.1309840">
    <ele>87.8</ele>
    <time>2014-02-21T09:27:17Z</time>
   </trkpt>
   <trkpt lat="32.6266950" lon="35.1310220">
    <ele>87.5</ele>
    <time>2014-02-21T09:27:18Z</time>
   </trkpt>
   <trkpt lat="32.6267330" lon="35.1310670">
    <ele>87.0</ele>
    <time>2014-02-21T09:27:19Z</time>
   </trkpt>
   <trkpt lat="32.6267790" lon="35.1311010">
    <ele>86.4</ele>
    <time>2014-02-21T09:27:20Z</time>
   </trkpt>
   <trkpt lat="32.6268110" lon="35.1311400">
    <ele>85.9</ele>
    <time>2014-02-21T09:27:21Z</time>
   </trkpt>
   <trkpt lat="32.6268640" lon="35.1311880">
    <ele>85.0</ele>
    <time>2014-02-21T09:27:22Z</time>
   </trkpt>
   <trkpt lat="32.6269190" lon="35.1312320">
    <ele>84.0</ele>
    <time>2014-02-21T09:27:23Z</time>
   </trkpt>
   <trkpt lat="32.6269570" lon="35.1312610">
    <ele>83.4</ele>
    <time>2014-02-21T09:27:24Z</time>
   </trkpt>
   <trkpt lat="32.6269990" lon="35.1312930">
    <ele>82.9</ele>
    <time>2014-02-21T09:27:25Z</time>
   </trkpt>
   <trkpt lat="32.6270440" lon="35.1313200">
    <ele>82.3</ele>
    <time>2014-02-21T09:27:26Z</time>
   </trkpt>
   <trkpt lat="32.6270820" lon="35.1313330">
    <ele>81.8</ele>
    <time>2014-02-21T09:27:27Z</time>
   </trkpt>
   <trkpt lat="32.6271180" lon="35.1313630">
    <ele>82.0</ele>
    <time>2014-02-21T09:27:28Z</time>
   </trkpt>
   <trkpt lat="32.6271390" lon="35.1313930">
    <ele>82.1</ele>
    <time>2014-02-21T09:27:29Z</time>
   </trkpt>
   <trkpt lat="32.6271520" lon="35.1314430">
    <ele>82.0</ele>
    <time>2014-02-21T09:27:31Z</time>
   </trkpt>
   <trkpt lat="32.6271720" lon="35.1314690">
    <ele>82.1</ele>
    <time>2014-02-21T09:27:32Z</time>
   </trkpt>
   <trkpt lat="32.6271940" lon="35.1314910">
    <ele>82.2</ele>
    <time>2014-02-21T09:27:33Z</time>
   </trkpt>
   <trkpt lat="32.6272100" lon="35.1315180">
    <ele>82.1</ele>
    <time>2014-02-21T09:27:34Z</time>
   </trkpt>
   <trkpt lat="32.6272410" lon="35.1315580">
    <ele>82.1</ele>
    <time>2014-02-21T09:27:36Z</time>
   </trkpt>
   <trkpt lat="32.6272670" lon="35.1315810">
    <ele>82.1</ele>
    <time>2014-02-21T09:27:38Z</time>
   </trkpt>
   <trkpt lat="32.6273080" lon="35.1315960">
    <ele>82.3</ele>
    <time>2014-02-21T09:27:40Z</time>
   </trkpt>
   <trkpt lat="32.6273530" lon="35.1316190">
    <ele>82.3</ele>
    <time>2014-02-21T09:27:42Z</time>
   </trkpt>
   <trkpt lat="32.6273880" lon="35.1316500">
    <ele>82.2</ele>
    <time>2014-02-21T09:27:44Z</time>
   </trkpt>
   <trkpt lat="32.6274160" lon="35.1316990">
    <ele>81.9</ele>
    <time>2014-02-21T09:28:33Z</time>
   </trkpt>
   <trkpt lat="32.6274360" lon="35.1317220">
    <ele>81.8</ele>
    <time>2014-02-21T09:28:34Z</time>
   </trkpt>
   <trkpt lat="32.6274710" lon="35.1317480">
    <ele>81.7</ele>
    <time>2014-02-21T09:28:35Z</time>
   </trkpt>
   <trkpt lat="32.6275080" lon="35.1317650">
    <ele>81.6</ele>
    <time>2014-02-21T09:28:36Z</time>
   </trkpt>
   <trkpt lat="32.6275430" lon="35.1317750">
    <ele>81.5</ele>
    <time>2014-02-21T09:28:37Z</time>
   </trkpt>
   <trkpt lat="32.6275720" lon="35.1317800">
    <ele>81.5</ele>
    <time>2014-02-21T09:28:39Z</time>
   </trkpt>
   <trkpt lat="32.6275820" lon="35.1318170">
    <ele>81.1</ele>
    <time>2014-02-21T09:28:53Z</time>
   </trkpt>
   <trkpt lat="32.6275700" lon="35.1318480">
    <ele>80.8</ele>
    <time>2014-02-21T09:28:54Z</time>
   </trkpt>
   <trkpt lat="32.6275490" lon="35.1318950">
    <ele>80.3</ele>
    <time>2014-02-21T09:28:55Z</time>
   </trkpt>
   <trkpt lat="32.6275310" lon="35.1319430">
    <ele>79.8</ele>
    <time>2014-02-21T09:28:56Z</time>
   </trkpt>
   <trkpt lat="32.6275160" lon="35.1319910">
    <ele>79.4</ele>
    <time>2014-02-21T09:28:57Z</time>
   </trkpt>
   <trkpt lat="32.6275070" lon="35.1320330">
    <ele>79.0</ele>
    <time>2014-02-21T09:28:58Z</time>
   </trkpt>
   <trkpt lat="32.6274980" lon="35.1320640">
    <ele>78.7</ele>
    <time>2014-02-21T09:28:59Z</time>
   </trkpt>
   <trkpt lat="32.6274720" lon="35.1320920">
    <ele>78.6</ele>
    <time>2014-02-21T09:29:02Z</time>
   </trkpt>
   <trkpt lat="32.6274700" lon="35.1321290">
    <ele>78.4</ele>
    <time>2014-02-21T09:29:04Z</time>
   </trkpt>
   <trkpt lat="32.6275140" lon="35.1321440">
    <ele>78.2</ele>
    <time>2014-02-21T09:29:06Z</time>
   </trkpt>
   <trkpt lat="32.6275510" lon="35.1321090">
    <ele>78.2</ele>
    <time>2014-02-21T09:29:08Z</time>
   </trkpt>
   <trkpt lat="32.6275680" lon="35.1320670">
    <ele>78.4</ele>
    <time>2014-02-21T09:29:10Z</time>
   </trkpt>
   <trkpt lat="32.6275760" lon="35.1320270">
    <ele>78.8</ele>
    <time>2014-02-21T09:29:12Z</time>
   </trkpt>
   <trkpt lat="32.6275860" lon="35.1319910">
    <ele>79.2</ele>
    <time>2014-02-21T09:29:14Z</time>
   </trkpt>
   <trkpt lat="32.6276010" lon="35.1319610">
    <ele>79.5</ele>
    <time>2014-02-21T09:29:16Z</time>
   </trkpt>
   <trkpt lat="32.6276220" lon="35.1319350">
    <ele>79.8</ele>
    <time>2014-02-21T09:29:18Z</time>
   </trkpt>
   <trkpt lat="32.6276420" lon="35.1319100">
    <ele>80.1</ele>
    <time>2014-02-21T09:29:20Z</time>
   </trkpt>
   <trkpt lat="32.6276620" lon="35.1318850">
    <ele>80.4</ele>
    <time>2014-02-21T09:29:22Z</time>
   </trkpt>
   <trkpt lat="32.6276810" lon="35.1318600">
    <ele>80.7</ele>
    <time>2014-02-21T09:29:24Z</time>
   </trkpt>
   <trkpt lat="32.6277070" lon="35.1318250">
    <ele>81.2</ele>
    <time>2014-02-21T09:29:27Z</time>
   </trkpt>
   <trkpt lat="32.6277260" lon="35.1317980">
    <ele>81.5</ele>
    <time>2014-02-21T09:29:29Z</time>
   </trkpt>
   <trkpt lat="32.6277480" lon="35.1317720">
    <ele>81.9</ele>
    <time>2014-02-21T09:29:31Z</time>
   </trkpt>
   <trkpt lat="32.6277710" lon="35.1317460">
    <ele>82.3</ele>
    <time>2014-02-21T09:29:33Z</time>
   </trkpt>
   <trkpt lat="32.6277880" lon="35.1317160">
    <ele>82.8</ele>
    <time>2014-02-21T09:29:35Z</time>
   </trkpt>
   <trkpt lat="32.6278010" lon="35.1316820">
    <ele>83.4</ele>
    <time>2014-02-21T09:29:37Z</time>
   </trkpt>
   <trkpt lat="32.6278150" lon="35.1316490">
    <ele>83.9</ele>
    <time>2014-02-21T09:29:39Z</time>
   </trkpt>
   <trkpt lat="32.6278230" lon="35.1316170">
    <ele>84.4</ele>
    <time>2014-02-21T09:29:41Z</time>
   </trkpt>
   <trkpt lat="32.6278420" lon="35.1315850">
    <ele>85.0</ele>
    <time>2014-02-21T09:29:43Z</time>
   </trkpt>
   <trkpt lat="32.6278590" lon="35.1315520">
    <ele>85.6</ele>
    <time>2014-02-21T09:29:45Z</time>
   </trkpt>
   <trkpt lat="32.6278730" lon="35.1315180">
    <ele>86.2</ele>
    <time>2014-02-21T09:29:47Z</time>
   </trkpt>
   <trkpt lat="32.6278880" lon="35.1314860">
    <ele>86.8</ele>
    <time>2014-02-21T09:29:49Z</time>
   </trkpt>
   <trkpt lat="32.6279060" lon="35.1314560">
    <ele>87.5</ele>
    <time>2014-02-21T09:29:51Z</time>
   </trkpt>
   <trkpt lat="32.6279290" lon="35.1314280">
    <ele>88.0</ele>
    <time>2014-02-21T09:29:53Z</time>
   </trkpt>
   <trkpt lat="32.6279560" lon="35.1314100">
    <ele>88.2</ele>
    <time>2014-02-21T09:29:55Z</time>
   </trkpt>
   <trkpt lat="32.6279880" lon="35.1314070">
    <ele>88.2</ele>
    <time>2014-02-21T09:29:58Z</time>
   </trkpt>
   <trkpt lat="32.6280240" lon="35.1314000">
    <ele>88.2</ele>
    <time>2014-02-21T09:30:01Z</time>
   </trkpt>
   <trkpt lat="32.6280510" lon="35.1313960">
    <ele>88.3</ele>
    <time>2014-02-21T09:30:03Z</time>
   </trkpt>
   <trkpt lat="32.6280820" lon="35.1313900">
    <ele>88.3</ele>
    <time>2014-02-21T09:30:05Z</time>
   </trkpt>
   <trkpt lat="32.6281090" lon="35.1313850">
    <ele>88.3</ele>
    <time>2014-02-21T09:30:07Z</time>
   </trkpt>
   <trkpt lat="32.6281370" lon="35.1313840">
    <ele>88.3</ele>
    <time>2014-02-21T09:30:09Z</time>
   </trkpt>
   <trkpt lat="32.6281790" lon="35.1313770">
    <ele>88.3</ele>
    <time>2014-02-21T09:30:12Z</time>
   </trkpt>
   <trkpt lat="32.6282130" lon="35.1313690">
    <ele>88.3</ele>
    <time>2014-02-21T09:30:14Z</time>
   </trkpt>
   <trkpt lat="32.6282470" lon="35.1313600">
    <ele>88.4</ele>
    <time>2014-02-21T09:30:16Z</time>
   </trkpt>
   <trkpt lat="32.6282810" lon="35.1313480">
    <ele>88.5</ele>
    <time>2014-02-21T09:30:18Z</time>
   </trkpt>
   <trkpt lat="32.6283180" lon="35.1313390">
    <ele>88.6</ele>
    <time>2014-02-21T09:30:20Z</time>
   </trkpt>
   <trkpt lat="32.6283500" lon="35.1313310">
    <ele>88.6</ele>
    <time>2014-02-21T09:30:22Z</time>
   </trkpt>
   <trkpt lat="32.6283810" lon="35.1313220">
    <ele>88.7</ele>
    <time>2014-02-21T09:30:24Z</time>
   </trkpt>
   <trkpt lat="32.6284190" lon="35.1313130">
    <ele>88.8</ele>
    <time>2014-02-21T09:30:27Z</time>
   </trkpt>
   <trkpt lat="32.6284530" lon="35.1313060">
    <ele>88.8</ele>
    <time>2014-02-21T09:30:30Z</time>
   </trkpt>
   <trkpt lat="32.6284860" lon="35.1312990">
    <ele>88.9</ele>
    <time>2014-02-21T09:30:33Z</time>
   </trkpt>
   <trkpt lat="32.6285140" lon="35.1312890">
    <ele>88.9</ele>
    <time>2014-02-21T09:30:36Z</time>
   </trkpt>
   <trkpt lat="32.6285400" lon="35.1312790">
    <ele>89.0</ele>
    <time>2014-02-21T09:30:39Z</time>
   </trkpt>
   <trkpt lat="32.6285670" lon="35.1312670">
    <ele>89.2</ele>
    <time>2014-02-21T09:30:42Z</time>
   </trkpt>
   <trkpt lat="32.6285970" lon="35.1312540">
    <ele>89.3</ele>
    <time>2014-02-21T09:30:45Z</time>
   </trkpt>
   <trkpt lat="32.6286360" lon="35.1312370">
    <ele>89.5</ele>
    <time>2014-02-21T09:30:49Z</time>
   </trkpt>
   <trkpt lat="32.6286760" lon="35.1312200">
    <ele>89.6</ele>
    <time>2014-02-21T09:30:51Z</time>
   </trkpt>
   <trkpt lat="32.6287120" lon="35.1312040">
    <ele>89.7</ele>
    <time>2014-02-21T09:30:53Z</time>
   </trkpt>
   <trkpt lat="32.6287410" lon="35.1311890">
    <ele>89.9</ele>
    <time>2014-02-21T09:30:55Z</time>
   </trkpt>
   <trkpt lat="32.6287670" lon="35.1311760">
    <ele>89.8</ele>
    <time>2014-02-21T09:30:57Z</time>
   </trkpt>
   <trkpt lat="32.6287950" lon="35.1311680">
    <ele>89.5</ele>
    <time>2014-02-21T09:30:59Z</time>
   </trkpt>
   <trkpt lat="32.6288220" lon="35.1311600">
    <ele>89.3</ele>
    <time>2014-02-21T09:31:01Z</time>
   </trkpt>
   <trkpt lat="32.6288430" lon="35.1311390">
    <ele>89.3</ele>
    <time>2014-02-21T09:31:11Z</time>
   </trkpt>
   <trkpt lat="32.6288740" lon="35.1311250">
    <ele>89.0</ele>
    <time>2014-02-21T09:31:16Z</time>
   </trkpt>
   <trkpt lat="32.6289190" lon="35.1311130">
    <ele>88.5</ele>
    <time>2014-02-21T09:31:18Z</time>
   </trkpt>
   <trkpt lat="32.6289720" lon="35.1311020">
    <ele>87.9</ele>
    <time>2014-02-21T09:31:20Z</time>
   </trkpt>
   <trkpt lat="32.6290030" lon="35.1310960">
    <ele>87.6</ele>
    <time>2014-02-21T09:31:21Z</time>
   </trkpt>
   <trkpt lat="32.6290370" lon="35.1310890">
    <ele>87.2</ele>
    <time>2014-02-21T09:31:22Z</time>
   </trkpt>
   <trkpt lat="32.6290770" lon="35.1310790">
    <ele>86.8</ele>
    <time>2014-02-21T09:31:23Z</time>
   </trkpt>
   <trkpt lat="32.6291150" lon="35.1310680">
    <ele>86.4</ele>
    <time>2014-02-21T09:31:24Z</time>
   </trkpt>
   <trkpt lat="32.6291510" lon="35.1310510">
    <ele>86.1</ele>
    <time>2014-02-21T09:31:25Z</time>
   </trkpt>
   <trkpt lat="32.6291830" lon="35.1310320">
    <ele>85.9</ele>
    <time>2014-02-21T09:31:26Z</time>
   </trkpt>
   <trkpt lat="32.6292110" lon="35.1310110">
    <ele>85.8</ele>
    <time>2014-02-21T09:31:27Z</time>
   </trkpt>
   <trkpt lat="32.6292340" lon="35.1309880">
    <ele>85.8</ele>
    <time>2014-02-21T09:31:28Z</time>
   </trkpt>
   <trkpt lat="32.6292750" lon="35.1309630">
    <ele>85.6</ele>
    <time>2014-02-21T09:31:30Z</time>
   </trkpt>
   <trkpt lat="32.6293130" lon="35.1309480">
    <ele>85.2</ele>
    <time>2014-02-21T09:31:32Z</time>
   </trkpt>
   <trkpt lat="32.6293380" lon="35.1309340">
    <ele>85.1</ele>
    <time>2014-02-21T09:31:34Z</time>
   </trkpt>
   <trkpt lat="32.6293630" lon="35.1309150">
    <ele>85.0</ele>
    <time>2014-02-21T09:31:36Z</time>
   </trkpt>
   <trkpt lat="32.6293960" lon="35.1308880">
    <ele>84.9</ele>
    <time>2014-02-21T09:31:38Z</time>
   </trkpt>
   <trkpt lat="32.6294210" lon="35.1308690">
    <ele>84.8</ele>
    <time>2014-02-21T09:31:39Z</time>
   </trkpt>
   <trkpt lat="32.6294460" lon="35.1308520">
    <ele>84.7</ele>
    <time>2014-02-21T09:31:40Z</time>
   </trkpt>
   <trkpt lat="32.6294740" lon="35.1308380">
    <ele>84.5</ele>
    <time>2014-02-21T09:31:41Z</time>
   </trkpt>
   <trkpt lat="32.6295030" lon="35.1308250">
    <ele>84.3</ele>
    <time>2014-02-21T09:31:42Z</time>
   </trkpt>
   <trkpt lat="32.6295330" lon="35.1308100">
    <ele>84.1</ele>
    <time>2014-02-21T09:31:43Z</time>
   </trkpt>
   <trkpt lat="32.6295630" lon="35.1307920">
    <ele>83.9</ele>
    <time>2014-02-21T09:31:44Z</time>
   </trkpt>
   <trkpt lat="32.6295970" lon="35.1307730">
    <ele>83.7</ele>
    <time>2014-02-21T09:31:45Z</time>
   </trkpt>
   <trkpt lat="32.6296330" lon="35.1307550">
    <ele>83.4</ele>
    <time>2014-02-21T09:31:46Z</time>
   </trkpt>
   <trkpt lat="32.6296680" lon="35.1307290">
    <ele>83.3</ele>
    <time>2014-02-21T09:31:47Z</time>
   </trkpt>
   <trkpt lat="32.6297020" lon="35.1306990">
    <ele>83.2</ele>
    <time>2014-02-21T09:31:48Z</time>
   </trkpt>
   <trkpt lat="32.6297360" lon="35.1306670">
    <ele>83.2</ele>
    <time>2014-02-21T09:31:49Z</time>
   </trkpt>
   <trkpt lat="32.6297710" lon="35.1306370">
    <ele>83.0</ele>
    <time>2014-02-21T09:31:50Z</time>
   </trkpt>
   <trkpt lat="32.6298100" lon="35.1306040">
    <ele>82.9</ele>
    <time>2014-02-21T09:31:51Z</time>
   </trkpt>
   <trkpt lat="32.6298480" lon="35.1305720">
    <ele>82.7</ele>
    <time>2014-02-21T09:31:52Z</time>
   </trkpt>
   <trkpt lat="32.6298870" lon="35.1305400">
    <ele>82.4</ele>
    <time>2014-02-21T09:31:53Z</time>
   </trkpt>
   <trkpt lat="32.6299340" lon="35.1304910">
    <ele>82.3</ele>
    <time>2014-02-21T09:31:54Z</time>
   </trkpt>
   <trkpt lat="32.6299710" lon="35.1304540">
    <ele>82.1</ele>
    <time>2014-02-21T09:31:55Z</time>
   </trkpt>
   <trkpt lat="32.6300110" lon="35.1304230">
    <ele>81.7</ele>
    <time>2014-02-21T09:31:56Z</time>
   </trkpt>
   <trkpt lat="32.6300480" lon="35.1303920">
    <ele>81.4</ele>
    <time>2014-02-21T09:31:57Z</time>
   </trkpt>
   <trkpt lat="32.6300890" lon="35.1303600">
    <ele>81.1</ele>
    <time>2014-02-21T09:31:58Z</time>
   </trkpt>
   <trkpt lat="32.6301260" lon="35.1303290">
    <ele>80.8</ele>
    <time>2014-02-21T09:31:59Z</time>
   </trkpt>
   <trkpt lat="32.6301640" lon="35.1302990">
    <ele>80.6</ele>
    <time>2014-02-21T09:32:00Z</time>
   </trkpt>
   <trkpt lat="32.6302010" lon="35.1302650">
    <ele>80.4</ele>
    <time>2014-02-21T09:32:01Z</time>
   </trkpt>
   <trkpt lat="32.6302380" lon="35.1302370">
    <ele>80.2</ele>
    <time>2014-02-21T09:32:02Z</time>
   </trkpt>
   <trkpt lat="32.6302750" lon="35.1302070">
    <ele>80.0</ele>
    <time>2014-02-21T09:32:03Z</time>
   </trkpt>
   <trkpt lat="32.6303120" lon="35.1301770">
    <ele>79.9</ele>
    <time>2014-02-21T09:32:04Z</time>
   </trkpt>
   <trkpt lat="32.6303460" lon="35.1301420">
    <ele>79.9</ele>
    <time>2014-02-21T09:32:05Z</time>
   </trkpt>
   <trkpt lat="32.6303850" lon="35.1301130">
    <ele>79.8</ele>
    <time>2014-02-21T09:32:06Z</time>
   </trkpt>
   <trkpt lat="32.6304190" lon="35.1300830">
    <ele>79.8</ele>
    <time>2014-02-21T09:32:07Z</time>
   </trkpt>
   <trkpt lat="32.6304570" lon="35.1300490">
    <ele>80.0</ele>
    <time>2014-02-21T09:32:08Z</time>
   </trkpt>
   <trkpt lat="32.6304940" lon="35.1300120">
    <ele>80.1</ele>
    <time>2014-02-21T09:32:09Z</time>
   </trkpt>
   <trkpt lat="32.6305300" lon="35.1299810">
    <ele>80.2</ele>
    <time>2014-02-21T09:32:10Z</time>
   </trkpt>
   <trkpt lat="32.6305680" lon="35.1299500">
    <ele>80.3</ele>
    <time>2014-02-21T09:32:11Z</time>
   </trkpt>
   <trkpt lat="32.6306030" lon="35.1299240">
    <ele>80.3</ele>
    <time>2014-02-21T09:32:12Z</time>
   </trkpt>
   <trkpt lat="32.6306420" lon="35.1298960">
    <ele>80.2</ele>
    <time>2014-02-21T09:32:13Z</time>
   </trkpt>
   <trkpt lat="32.6306810" lon="35.1298640">
    <ele>80.2</ele>
    <time>2014-02-21T09:32:14Z</time>
   </trkpt>
   <trkpt lat="32.6307210" lon="35.1298390">
    <ele>80.1</ele>
    <time>2014-02-21T09:32:15Z</time>
   </trkpt>
   <trkpt lat="32.6307590" lon="35.1298120">
    <ele>80.0</ele>
    <time>2014-02-21T09:32:16Z</time>
   </trkpt>
   <trkpt lat="32.6307990" lon="35.1297780">
    <ele>79.9</ele>
    <time>2014-02-21T09:32:17Z</time>
   </trkpt>
   <trkpt lat="32.6308340" lon="35.1297490">
    <ele>79.8</ele>
    <time>2014-02-21T09:32:18Z</time>
   </trkpt>
   <trkpt lat="32.6308720" lon="35.1297200">
    <ele>79.6</ele>
    <time>2014-02-21T09:32:19Z</time>
   </trkpt>
   <trkpt lat="32.6309050" lon="35.1296900">
    <ele>79.5</ele>
    <time>2014-02-21T09:32:20Z</time>
   </trkpt>
   <trkpt lat="32.6309430" lon="35.1296610">
    <ele>79.3</ele>
    <time>2014-02-21T09:32:21Z</time>
   </trkpt>
   <trkpt lat="32.6309800" lon="35.1296340">
    <ele>79.1</ele>
    <time>2014-02-21T09:32:22Z</time>
   </trkpt>
   <trkpt lat="32.6310120" lon="35.1296040">
    <ele>79.0</ele>
    <time>2014-02-21T09:32:23Z</time>
   </trkpt>
   <trkpt lat="32.6310440" lon="35.1295800">
    <ele>78.8</ele>
    <time>2014-02-21T09:32:24Z</time>
   </trkpt>
   <trkpt lat="32.6310760" lon="35.1295620">
    <ele>78.6</ele>
    <time>2014-02-21T09:32:25Z</time>
   </trkpt>
   <trkpt lat="32.6311050" lon="35.1295450">
    <ele>78.4</ele>
    <time>2014-02-21T09:32:26Z</time>
   </trkpt>
   <trkpt lat="32.6311470" lon="35.1295080">
    <ele>78.2</ele>
    <time>2014-02-21T09:32:28Z</time>
   </trkpt>
   <trkpt lat="32.6311930" lon="35.1294690">
    <ele>78.0</ele>
    <time>2014-02-21T09:32:30Z</time>
   </trkpt>
   <trkpt lat="32.6312180" lon="35.1294470">
    <ele>77.8</ele>
    <time>2014-02-21T09:32:31Z</time>
   </trkpt>
   <trkpt lat="32.6312440" lon="35.1294250">
    <ele>77.6</ele>
    <time>2014-02-21T09:32:32Z</time>
   </trkpt>
   <trkpt lat="32.6312700" lon="35.1294030">
    <ele>77.6</ele>
    <time>2014-02-21T09:32:33Z</time>
   </trkpt>
   <trkpt lat="32.6312960" lon="35.1293810">
    <ele>77.6</ele>
    <time>2014-02-21T09:32:34Z</time>
   </trkpt>
   <trkpt lat="32.6313230" lon="35.1293590">
    <ele>77.6</ele>
    <time>2014-02-21T09:32:35Z</time>
   </trkpt>
   <trkpt lat="32.6313490" lon="35.1293370">
    <ele>77.5</ele>
    <time>2014-02-21T09:32:36Z</time>
   </trkpt>
   <trkpt lat="32.6313740" lon="35.1293150">
    <ele>77.5</ele>
    <time>2014-02-21T09:32:37Z</time>
   </trkpt>
   <trkpt lat="32.6313980" lon="35.1292920">
    <ele>77.5</ele>
    <time>2014-02-21T09:32:38Z</time>
   </trkpt>
   <trkpt lat="32.6314200" lon="35.1292690">
    <ele>77.6</ele>
    <time>2014-02-21T09:32:39Z</time>
   </trkpt>
   <trkpt lat="32.6314440" lon="35.1292480">
    <ele>77.5</ele>
    <time>2014-02-21T09:32:40Z</time>
   </trkpt>
   <trkpt lat="32.6314680" lon="35.1292280">
    <ele>77.5</ele>
    <time>2014-02-21T09:32:41Z</time>
   </trkpt>
   <trkpt lat="32.6314920" lon="35.1292070">
    <ele>77.5</ele>
    <time>2014-02-21T09:32:42Z</time>
   </trkpt>
   <trkpt lat="32.6315170" lon="35.1291840">
    <ele>77.5</ele>
    <time>2014-02-21T09:32:43Z</time>
   </trkpt>
   <trkpt lat="32.6315420" lon="35.1291600">
    <ele>77.4</ele>
    <time>2014-02-21T09:32:44Z</time>
   </trkpt>
   <trkpt lat="32.6315680" lon="35.1291360">
    <ele>77.4</ele>
    <time>2014-02-21T09:32:45Z</time>
   </trkpt>
   <trkpt lat="32.6315940" lon="35.1291140">
    <ele>77.3</ele>
    <time>2014-02-21T09:32:46Z</time>
   </trkpt>
   <trkpt lat="32.6316190" lon="35.1290950">
    <ele>77.3</ele>
    <time>2014-02-21T09:32:47Z</time>
   </trkpt>
   <trkpt lat="32.6316440" lon="35.1290790">
    <ele>77.1</ele>
    <time>2014-02-21T09:32:48Z</time>
   </trkpt>
   <trkpt lat="32.6316880" lon="35.1290480">
    <ele>77.0</ele>
    <time>2014-02-21T09:32:50Z</time>
   </trkpt>
   <trkpt lat="32.6317100" lon="35.1290290">
    <ele>76.9</ele>
    <time>2014-02-21T09:32:51Z</time>
   </trkpt>
   <trkpt lat="32.6317330" lon="35.1290090">
    <ele>76.8</ele>
    <time>2014-02-21T09:32:52Z</time>
   </trkpt>
   <trkpt lat="32.6317560" lon="35.1289860">
    <ele>76.8</ele>
    <time>2014-02-21T09:32:53Z</time>
   </trkpt>
   <trkpt lat="32.6317800" lon="35.1289620">
    <ele>76.7</ele>
    <time>2014-02-21T09:32:54Z</time>
   </trkpt>
   <trkpt lat="32.6318010" lon="35.1289380">
    <ele>76.7</ele>
    <time>2014-02-21T09:32:55Z</time>
   </trkpt>
   <trkpt lat="32.6318210" lon="35.1289130">
    <ele>76.7</ele>
    <time>2014-02-21T09:32:56Z</time>
   </trkpt>
   <trkpt lat="32.6318410" lon="35.1288890">
    <ele>76.6</ele>
    <time>2014-02-21T09:32:57Z</time>
   </trkpt>
   <trkpt lat="32.6318640" lon="35.1288660">
    <ele>76.6</ele>
    <time>2014-02-21T09:32:58Z</time>
   </trkpt>
   <trkpt lat="32.6318870" lon="35.1288440">
    <ele>76.5</ele>
    <time>2014-02-21T09:32:59Z</time>
   </trkpt>
   <trkpt lat="32.6319090" lon="35.1288240">
    <ele>76.4</ele>
    <time>2014-02-21T09:33:00Z</time>
   </trkpt>
   <trkpt lat="32.6319320" lon="35.1288030">
    <ele>76.3</ele>
    <time>2014-02-21T09:33:01Z</time>
   </trkpt>
   <trkpt lat="32.6319540" lon="35.1287800">
    <ele>76.2</ele>
    <time>2014-02-21T09:33:02Z</time>
   </trkpt>
   <trkpt lat="32.6319760" lon="35.1287550">
    <ele>76.1</ele>
    <time>2014-02-21T09:33:03Z</time>
   </trkpt>
   <trkpt lat="32.6319970" lon="35.1287290">
    <ele>76.3</ele>
    <time>2014-02-21T09:33:04Z</time>
   </trkpt>
   <trkpt lat="32.6320200" lon="35.1287040">
    <ele>76.4</ele>
    <time>2014-02-21T09:33:05Z</time>
   </trkpt>
   <trkpt lat="32.6320470" lon="35.1286830">
    <ele>76.4</ele>
    <time>2014-02-21T09:33:06Z</time>
   </trkpt>
   <trkpt lat="32.6320760" lon="35.1286630">
    <ele>76.4</ele>
    <time>2014-02-21T09:33:07Z</time>
   </trkpt>
   <trkpt lat="32.6321010" lon="35.1286440">
    <ele>76.6</ele>
    <time>2014-02-21T09:33:08Z</time>
   </trkpt>
   <trkpt lat="32.6321340" lon="35.1286230">
    <ele>76.7</ele>
    <time>2014-02-21T09:33:09Z</time>
   </trkpt>
   <trkpt lat="32.6321630" lon="35.1286020">
    <ele>76.9</ele>
    <time>2014-02-21T09:33:10Z</time>
   </trkpt>
   <trkpt lat="32.6321910" lon="35.1285810">
    <ele>77.0</ele>
    <time>2014-02-21T09:33:11Z</time>
   </trkpt>
   <trkpt lat="32.6322210" lon="35.1285620">
    <ele>77.2</ele>
    <time>2014-02-21T09:33:12Z</time>
   </trkpt>
   <trkpt lat="32.6322520" lon="35.1285470">
    <ele>77.2</ele>
    <time>2014-02-21T09:33:13Z</time>
   </trkpt>
   <trkpt lat="32.6322840" lon="35.1285350">
    <ele>77.2</ele>
    <time>2014-02-21T09:33:14Z</time>
   </trkpt>
   <trkpt lat="32.6323160" lon="35.1285240">
    <ele>77.2</ele>
    <time>2014-02-21T09:33:15Z</time>
   </trkpt>
   <trkpt lat="32.6323460" lon="35.1285140">
    <ele>77.2</ele>
    <time>2014-02-21T09:33:16Z</time>
   </trkpt>
   <trkpt lat="32.6323740" lon="35.1285070">
    <ele>77.1</ele>
    <time>2014-02-21T09:33:17Z</time>
   </trkpt>
   <trkpt lat="32.6324020" lon="35.1285080">
    <ele>76.9</ele>
    <time>2014-02-21T09:33:18Z</time>
   </trkpt>
   <trkpt lat="32.6324300" lon="35.1285160">
    <ele>76.6</ele>
    <time>2014-02-21T09:33:19Z</time>
   </trkpt>
   <trkpt lat="32.6324590" lon="35.1285290">
    <ele>76.3</ele>
    <time>2014-02-21T09:33:20Z</time>
   </trkpt>
   <trkpt lat="32.6324870" lon="35.1285420">
    <ele>75.9</ele>
    <time>2014-02-21T09:33:21Z</time>
   </trkpt>
   <trkpt lat="32.6325220" lon="35.1285610">
    <ele>75.5</ele>
    <time>2014-02-21T09:33:22Z</time>
   </trkpt>
   <trkpt lat="32.6325610" lon="35.1285820">
    <ele>75.0</ele>
    <time>2014-02-21T09:33:23Z</time>
   </trkpt>
   <trkpt lat="32.6326000" lon="35.1285990">
    <ele>74.5</ele>
    <time>2014-02-21T09:33:24Z</time>
   </trkpt>
   <trkpt lat="32.6326420" lon="35.1286250">
    <ele>74.0</ele>
    <time>2014-02-21T09:33:25Z</time>
   </trkpt>
   <trkpt lat="32.6326990" lon="35.1286320">
    <ele>73.6</ele>
    <time>2014-02-21T09:33:26Z</time>
   </trkpt>
   <trkpt lat="32.6327480" lon="35.1286240">
    <ele>73.4</ele>
    <time>2014-02-21T09:33:27Z</time>
   </trkpt>
   <trkpt lat="32.6328000" lon="35.1286030">
    <ele>73.4</ele>
    <time>2014-02-21T09:33:28Z</time>
   </trkpt>
   <trkpt lat="32.6328470" lon="35.1285680">
    <ele>73.6</ele>
    <time>2014-02-21T09:33:29Z</time>
   </trkpt>
   <trkpt lat="32.6328890" lon="35.1285330">
    <ele>73.8</ele>
    <time>2014-02-21T09:33:30Z</time>
   </trkpt>
   <trkpt lat="32.6329330" lon="35.1284940">
    <ele>74.0</ele>
    <time>2014-02-21T09:33:31Z</time>
   </trkpt>
   <trkpt lat="32.6329760" lon="35.1284570">
    <ele>74.2</ele>
    <time>2014-02-21T09:33:32Z</time>
   </trkpt>
   <trkpt lat="32.6330190" lon="35.1284240">
    <ele>74.4</ele>
    <time>2014-02-21T09:33:33Z</time>
   </trkpt>
   <trkpt lat="32.6330580" lon="35.1283870">
    <ele>74.6</ele>
    <time>2014-02-21T09:33:34Z</time>
   </trkpt>
   <trkpt lat="32.6331010" lon="35.1283580">
    <ele>74.6</ele>
    <time>2014-02-21T09:33:35Z</time>
   </trkpt>
   <trkpt lat="32.6331460" lon="35.1283290">
    <ele>74.7</ele>
    <time>2014-02-21T09:33:36Z</time>
   </trkpt>
   <trkpt lat="32.6331820" lon="35.1283040">
    <ele>74.7</ele>
    <time>2014-02-21T09:33:37Z</time>
   </trkpt>
   <trkpt lat="32.6332080" lon="35.1282780">
    <ele>74.8</ele>
    <time>2014-02-21T09:33:38Z</time>
   </trkpt>
   <trkpt lat="32.6332410" lon="35.1282470">
    <ele>74.9</ele>
    <time>2014-02-21T09:33:39Z</time>
   </trkpt>
   <trkpt lat="32.6332760" lon="35.1282220">
    <ele>74.9</ele>
    <time>2014-02-21T09:33:40Z</time>
   </trkpt>
   <trkpt lat="32.6333120" lon="35.1281940">
    <ele>75.0</ele>
    <time>2014-02-21T09:33:41Z</time>
   </trkpt>
   <trkpt lat="32.6333430" lon="35.1281700">
    <ele>75.0</ele>
    <time>2014-02-21T09:33:42Z</time>
   </trkpt>
   <trkpt lat="32.6333790" lon="35.1281430">
    <ele>75.0</ele>
    <time>2014-02-21T09:33:43Z</time>
   </trkpt>
   <trkpt lat="32.6334010" lon="35.1281120">
    <ele>75.1</ele>
    <time>2014-02-21T09:33:44Z</time>
   </trkpt>
   <trkpt lat="32.6334260" lon="35.1280730">
    <ele>75.3</ele>
    <time>2014-02-21T09:33:45Z</time>
   </trkpt>
   <trkpt lat="32.6334720" lon="35.1280520">
    <ele>75.1</ele>
    <time>2014-02-21T09:33:46Z</time>
   </trkpt>
   <trkpt lat="32.6335070" lon="35.1280220">
    <ele>75.1</ele>
    <time>2014-02-21T09:33:47Z</time>
   </trkpt>
   <trkpt lat="32.6335400" lon="35.1279900">
    <ele>75.1</ele>
    <time>2014-02-21T09:33:48Z</time>
   </trkpt>
   <trkpt lat="32.6335730" lon="35.1279600">
    <ele>75.1</ele>
    <time>2014-02-21T09:33:49Z</time>
   </trkpt>
   <trkpt lat="32.6336040" lon="35.1279280">
    <ele>75.1</ele>
    <time>2014-02-21T09:33:50Z</time>
   </trkpt>
   <trkpt lat="32.6336330" lon="35.1278950">
    <ele>75.4</ele>
    <time>2014-02-21T09:33:51Z</time>
   </trkpt>
   <trkpt lat="32.6336630" lon="35.1278610">
    <ele>75.8</ele>
    <time>2014-02-21T09:33:52Z</time>
   </trkpt>
   <trkpt lat="32.6336940" lon="35.1278280">
    <ele>76.1</ele>
    <time>2014-02-21T09:33:53Z</time>
   </trkpt>
   <trkpt lat="32.6337270" lon="35.1277980">
    <ele>76.3</ele>
    <time>2014-02-21T09:33:54Z</time>
   </trkpt>
   <trkpt lat="32.6337610" lon="35.1277670">
    <ele>76.6</ele>
    <time>2014-02-21T09:33:55Z</time>
   </trkpt>
   <trkpt lat="32.6337950" lon="35.1277370">
    <ele>76.8</ele>
    <time>2014-02-21T09:33:56Z</time>
   </trkpt>
   <trkpt lat="32.6338290" lon="35.1277070">
    <ele>77.0</ele>
    <time>2014-02-21T09:33:57Z</time>
   </trkpt>
   <trkpt lat="32.6338640" lon="35.1276790">
    <ele>77.1</ele>
    <time>2014-02-21T09:33:58Z</time>
   </trkpt>
   <trkpt lat="32.6338960" lon="35.1276460">
    <ele>77.3</ele>
    <time>2014-02-21T09:33:59Z</time>
   </trkpt>
   <trkpt lat="32.6339240" lon="35.1276080">
    <ele>77.5</ele>
    <time>2014-02-21T09:34:00Z</time>
   </trkpt>
   <trkpt lat="32.6339480" lon="35.1275650">
    <ele>77.9</ele>
    <time>2014-02-21T09:34:01Z</time>
   </trkpt>
   <trkpt lat="32.6339690" lon="35.1275100">
    <ele>78.5</ele>
    <time>2014-02-21T09:34:02Z</time>
   </trkpt>
   <trkpt lat="32.6339960" lon="35.1274650">
    <ele>78.8</ele>
    <time>2014-02-21T09:34:03Z</time>
   </trkpt>
   <trkpt lat="32.6340190" lon="35.1274240">
    <ele>79.0</ele>
    <time>2014-02-21T09:34:04Z</time>
   </trkpt>
   <trkpt lat="32.6340480" lon="35.1273810">
    <ele>79.2</ele>
    <time>2014-02-21T09:34:05Z</time>
   </trkpt>
   <trkpt lat="32.6340740" lon="35.1273290">
    <ele>79.5</ele>
    <time>2014-02-21T09:34:06Z</time>
   </trkpt>
   <trkpt lat="32.6340990" lon="35.1272840">
    <ele>79.7</ele>
    <time>2014-02-21T09:34:07Z</time>
   </trkpt>
   <trkpt lat="32.6341300" lon="35.1272340">
    <ele>79.8</ele>
    <time>2014-02-21T09:34:08Z</time>
   </trkpt>
   <trkpt lat="32.6341560" lon="35.1271860">
    <ele>80.0</ele>
    <time>2014-02-21T09:34:09Z</time>
   </trkpt>
   <trkpt lat="32.6341800" lon="35.1271400">
    <ele>80.1</ele>
    <time>2014-02-21T09:34:10Z</time>
   </trkpt>
   <trkpt lat="32.6342020" lon="35.1270980">
    <ele>80.2</ele>
    <time>2014-02-21T09:34:11Z</time>
   </trkpt>
   <trkpt lat="32.6342250" lon="35.1270450">
    <ele>80.4</ele>
    <time>2014-02-21T09:34:12Z</time>
   </trkpt>
   <trkpt lat="32.6342590" lon="35.1270000">
    <ele>80.4</ele>
    <time>2014-02-21T09:34:13Z</time>
   </trkpt>
   <trkpt lat="32.6342830" lon="35.1269480">
    <ele>80.7</ele>
    <time>2014-02-21T09:34:14Z</time>
   </trkpt>
   <trkpt lat="32.6343210" lon="35.1269070">
    <ele>80.5</ele>
    <time>2014-02-21T09:34:15Z</time>
   </trkpt>
   <trkpt lat="32.6343510" lon="35.1268590">
    <ele>80.6</ele>
    <time>2014-02-21T09:34:16Z</time>
   </trkpt>
   <trkpt lat="32.6343820" lon="35.1268010">
    <ele>80.8</ele>
    <time>2014-02-21T09:34:17Z</time>
   </trkpt>
   <trkpt lat="32.6344140" lon="35.1267380">
    <ele>81.0</ele>
    <time>2014-02-21T09:34:18Z</time>
   </trkpt>
   <trkpt lat="32.6344540" lon="35.1267020">
    <ele>80.7</ele>
    <time>2014-02-21T09:34:19Z</time>
   </trkpt>
   <trkpt lat="32.6344880" lon="35.1266590">
    <ele>80.5</ele>
    <time>2014-02-21T09:34:20Z</time>
   </trkpt>
   <trkpt lat="32.6345200" lon="35.1266140">
    <ele>80.5</ele>
    <time>2014-02-21T09:34:21Z</time>
   </trkpt>
   <trkpt lat="32.6345490" lon="35.1265600">
    <ele>80.6</ele>
    <time>2014-02-21T09:34:22Z</time>
   </trkpt>
   <trkpt lat="32.6345890" lon="35.1264980">
    <ele>80.6</ele>
    <time>2014-02-21T09:34:23Z</time>
   </trkpt>
   <trkpt lat="32.6346290" lon="35.1264470">
    <ele>80.5</ele>
    <time>2014-02-21T09:34:24Z</time>
   </trkpt>
   <trkpt lat="32.6346630" lon="35.1264030">
    <ele>80.3</ele>
    <time>2014-02-21T09:34:25Z</time>
   </trkpt>
   <trkpt lat="32.6346960" lon="35.1263570">
    <ele>80.2</ele>
    <time>2014-02-21T09:34:26Z</time>
   </trkpt>
   <trkpt lat="32.6347260" lon="35.1263000">
    <ele>80.3</ele>
    <time>2014-02-21T09:34:27Z</time>
   </trkpt>
   <trkpt lat="32.6347620" lon="35.1262460">
    <ele>80.2</ele>
    <time>2014-02-21T09:34:28Z</time>
   </trkpt>
   <trkpt lat="32.6348020" lon="35.1261970">
    <ele>79.7</ele>
    <time>2014-02-21T09:34:29Z</time>
   </trkpt>
   <trkpt lat="32.6348440" lon="35.1261510">
    <ele>79.1</ele>
    <time>2014-02-21T09:34:30Z</time>
   </trkpt>
   <trkpt lat="32.6348820" lon="35.1261050">
    <ele>78.7</ele>
    <time>2014-02-21T09:34:31Z</time>
   </trkpt>
   <trkpt lat="32.6349250" lon="35.1260610">
    <ele>78.1</ele>
    <time>2014-02-21T09:34:32Z</time>
   </trkpt>
   <trkpt lat="32.6349790" lon="35.1260180">
    <ele>77.4</ele>
    <time>2014-02-21T09:34:33Z</time>
   </trkpt>
   <trkpt lat="32.6350260" lon="35.1259850">
    <ele>76.7</ele>
    <time>2014-02-21T09:34:34Z</time>
   </trkpt>
   <trkpt lat="32.6350660" lon="35.1259510">
    <ele>76.2</ele>
    <time>2014-02-21T09:34:35Z</time>
   </trkpt>
   <trkpt lat="32.6350930" lon="35.1259250">
    <ele>75.9</ele>
    <time>2014-02-21T09:34:36Z</time>
   </trkpt>
   <trkpt lat="32.6351370" lon="35.1259000">
    <ele>75.3</ele>
    <time>2014-02-21T09:34:37Z</time>
   </trkpt>
   <trkpt lat="32.6351810" lon="35.1258710">
    <ele>74.7</ele>
    <time>2014-02-21T09:34:38Z</time>
   </trkpt>
   <trkpt lat="32.6352290" lon="35.1258460">
    <ele>74.0</ele>
    <time>2014-02-21T09:34:39Z</time>
   </trkpt>
   <trkpt lat="32.6352780" lon="35.1258240">
    <ele>73.3</ele>
    <time>2014-02-21T09:34:40Z</time>
   </trkpt>
   <trkpt lat="32.6353260" lon="35.1258030">
    <ele>72.6</ele>
    <time>2014-02-21T09:34:41Z</time>
   </trkpt>
   <trkpt lat="32.6353730" lon="35.1257820">
    <ele>71.9</ele>
    <time>2014-02-21T09:34:42Z</time>
   </trkpt>
   <trkpt lat="32.6354200" lon="35.1257680">
    <ele>71.2</ele>
    <time>2014-02-21T09:34:43Z</time>
   </trkpt>
   <trkpt lat="32.6354590" lon="35.1257590">
    <ele>71.1</ele>
    <time>2014-02-21T09:34:44Z</time>
   </trkpt>
   <trkpt lat="32.6355060" lon="35.1257440">
    <ele>71.0</ele>
    <time>2014-02-21T09:34:45Z</time>
   </trkpt>
   <trkpt lat="32.6355540" lon="35.1257190">
    <ele>71.0</ele>
    <time>2014-02-21T09:34:46Z</time>
   </trkpt>
   <trkpt lat="32.6356050" lon="35.1257040">
    <ele>70.9</ele>
    <time>2014-02-21T09:34:47Z</time>
   </trkpt>
   <trkpt lat="32.6356580" lon="35.1256800">
    <ele>70.9</ele>
    <time>2014-02-21T09:34:48Z</time>
   </trkpt>
   <trkpt lat="32.6357060" lon="35.1256590">
    <ele>70.8</ele>
    <time>2014-02-21T09:34:49Z</time>
   </trkpt>
   <trkpt lat="32.6357560" lon="35.1256460">
    <ele>70.7</ele>
    <time>2014-02-21T09:34:50Z</time>
   </trkpt>
   <trkpt lat="32.6357970" lon="35.1256240">
    <ele>70.7</ele>
    <time>2014-02-21T09:34:51Z</time>
   </trkpt>
   <trkpt lat="32.6358480" lon="35.1256010">
    <ele>70.7</ele>
    <time>2014-02-21T09:34:52Z</time>
   </trkpt>
   <trkpt lat="32.6358920" lon="35.1255810">
    <ele>70.6</ele>
    <time>2014-02-21T09:34:53Z</time>
   </trkpt>
   <trkpt lat="32.6359300" lon="35.1255560">
    <ele>70.6</ele>
    <time>2014-02-21T09:34:54Z</time>
   </trkpt>
   <trkpt lat="32.6359840" lon="35.1255320">
    <ele>70.5</ele>
    <time>2014-02-21T09:34:55Z</time>
   </trkpt>
   <trkpt lat="32.6360380" lon="35.1255050">
    <ele>70.5</ele>
    <time>2014-02-21T09:34:56Z</time>
   </trkpt>
   <trkpt lat="32.6360880" lon="35.1254750">
    <ele>70.5</ele>
    <time>2014-02-21T09:34:57Z</time>
   </trkpt>
   <trkpt lat="32.6361480" lon="35.1254450">
    <ele>70.4</ele>
    <time>2014-02-21T09:34:58Z</time>
   </trkpt>
   <trkpt lat="32.6362020" lon="35.1254140">
    <ele>70.3</ele>
    <time>2014-02-21T09:34:59Z</time>
   </trkpt>
   <trkpt lat="32.6362580" lon="35.1253910">
    <ele>70.3</ele>
    <time>2014-02-21T09:35:00Z</time>
   </trkpt>
   <trkpt lat="32.6363130" lon="35.1253660">
    <ele>70.3</ele>
    <time>2014-02-21T09:35:01Z</time>
   </trkpt>
   <trkpt lat="32.6363720" lon="35.1253430">
    <ele>70.2</ele>
    <time>2014-02-21T09:35:02Z</time>
   </trkpt>
   <trkpt lat="32.6364310" lon="35.1253270">
    <ele>69.9</ele>
    <time>2014-02-21T09:35:03Z</time>
   </trkpt>
   <trkpt lat="32.6364890" lon="35.1253060">
    <ele>69.7</ele>
    <time>2014-02-21T09:35:04Z</time>
   </trkpt>
   <trkpt lat="32.6365480" lon="35.1252800">
    <ele>69.5</ele>
    <time>2014-02-21T09:35:05Z</time>
   </trkpt>
   <trkpt lat="32.6366110" lon="35.1252580">
    <ele>69.2</ele>
    <time>2014-02-21T09:35:06Z</time>
   </trkpt>
   <trkpt lat="32.6366650" lon="35.1252460">
    <ele>68.9</ele>
    <time>2014-02-21T09:35:07Z</time>
   </trkpt>
   <trkpt lat="32.6367160" lon="35.1252220">
    <ele>68.6</ele>
    <time>2014-02-21T09:35:08Z</time>
   </trkpt>
   <trkpt lat="32.6367760" lon="35.1252020">
    <ele>68.3</ele>
    <time>2014-02-21T09:35:09Z</time>
   </trkpt>
   <trkpt lat="32.6368320" lon="35.1251870">
    <ele>67.9</ele>
    <time>2014-02-21T09:35:10Z</time>
   </trkpt>
   <trkpt lat="32.6368840" lon="35.1251660">
    <ele>67.5</ele>
    <time>2014-02-21T09:35:11Z</time>
   </trkpt>
   <trkpt lat="32.6369430" lon="35.1251360">
    <ele>67.1</ele>
    <time>2014-02-21T09:35:12Z</time>
   </trkpt>
   <trkpt lat="32.6370010" lon="35.1251140">
    <ele>66.7</ele>
    <time>2014-02-21T09:35:13Z</time>
   </trkpt>
   <trkpt lat="32.6370620" lon="35.1250910">
    <ele>66.2</ele>
    <time>2014-02-21T09:35:14Z</time>
   </trkpt>
   <trkpt lat="32.6371140" lon="35.1250710">
    <ele>65.9</ele>
    <time>2014-02-21T09:35:15Z</time>
   </trkpt>
   <trkpt lat="32.6371720" lon="35.1250560">
    <ele>65.6</ele>
    <time>2014-02-21T09:35:16Z</time>
   </trkpt>
   <trkpt lat="32.6372300" lon="35.1250350">
    <ele>65.4</ele>
    <time>2014-02-21T09:35:17Z</time>
   </trkpt>
   <trkpt lat="32.6372860" lon="35.1250150">
    <ele>65.1</ele>
    <time>2014-02-21T09:35:18Z</time>
   </trkpt>
   <trkpt lat="32.6373370" lon="35.1249940">
    <ele>64.9</ele>
    <time>2014-02-21T09:35:19Z</time>
   </trkpt>
   <trkpt lat="32.6373910" lon="35.1249770">
    <ele>64.6</ele>
    <time>2014-02-21T09:35:20Z</time>
   </trkpt>
   <trkpt lat="32.6374460" lon="35.1249580">
    <ele>64.2</ele>
    <time>2014-02-21T09:35:21Z</time>
   </trkpt>
   <trkpt lat="32.6375010" lon="35.1249450">
    <ele>63.9</ele>
    <time>2014-02-21T09:35:22Z</time>
   </trkpt>
   <trkpt lat="32.6375520" lon="35.1249230">
    <ele>63.6</ele>
    <time>2014-02-21T09:35:23Z</time>
   </trkpt>
   <trkpt lat="32.6375950" lon="35.1249020">
    <ele>63.3</ele>
    <time>2014-02-21T09:35:24Z</time>
   </trkpt>
   <trkpt lat="32.6376400" lon="35.1248850">
    <ele>63.1</ele>
    <time>2014-02-21T09:35:25Z</time>
   </trkpt>
   <trkpt lat="32.6376830" lon="35.1248740">
    <ele>62.8</ele>
    <time>2014-02-21T09:35:26Z</time>
   </trkpt>
   <trkpt lat="32.6377320" lon="35.1248600">
    <ele>62.4</ele>
    <time>2014-02-21T09:35:27Z</time>
   </trkpt>
   <trkpt lat="32.6377760" lon="35.1248370">
    <ele>62.1</ele>
    <time>2014-02-21T09:35:28Z</time>
   </trkpt>
   <trkpt lat="32.6378150" lon="35.1248280">
    <ele>61.8</ele>
    <time>2014-02-21T09:35:29Z</time>
   </trkpt>
   <trkpt lat="32.6378620" lon="35.1248160">
    <ele>61.4</ele>
    <time>2014-02-21T09:35:30Z</time>
   </trkpt>
   <trkpt lat="32.6379080" lon="35.1248080">
    <ele>61.1</ele>
    <time>2014-02-21T09:35:31Z</time>
   </trkpt>
   <trkpt lat="32.6379520" lon="35.1247920">
    <ele>60.8</ele>
    <time>2014-02-21T09:35:32Z</time>
   </trkpt>
   <trkpt lat="32.6380020" lon="35.1247860">
    <ele>60.6</ele>
    <time>2014-02-21T09:35:33Z</time>
   </trkpt>
   <trkpt lat="32.6380480" lon="35.1247810">
    <ele>60.3</ele>
    <time>2014-02-21T09:35:34Z</time>
   </trkpt>
   <trkpt lat="32.6380980" lon="35.1247760">
    <ele>60.1</ele>
    <time>2014-02-21T09:35:35Z</time>
   </trkpt>
   <trkpt lat="32.6381460" lon="35.1247670">
    <ele>59.8</ele>
    <time>2014-02-21T09:35:36Z</time>
   </trkpt>
   <trkpt lat="32.6381930" lon="35.1247690">
    <ele>59.6</ele>
    <time>2014-02-21T09:35:37Z</time>
   </trkpt>
   <trkpt lat="32.6382420" lon="35.1247580">
    <ele>59.4</ele>
    <time>2014-02-21T09:35:38Z</time>
   </trkpt>
   <trkpt lat="32.6382960" lon="35.1247530">
    <ele>59.1</ele>
    <time>2014-02-21T09:35:39Z</time>
   </trkpt>
   <trkpt lat="32.6383480" lon="35.1247550">
    <ele>58.8</ele>
    <time>2014-02-21T09:35:40Z</time>
   </trkpt>
   <trkpt lat="32.6383980" lon="35.1247510">
    <ele>58.6</ele>
    <time>2014-02-21T09:35:41Z</time>
   </trkpt>
   <trkpt lat="32.6384510" lon="35.1247530">
    <ele>58.3</ele>
    <time>2014-02-21T09:35:42Z</time>
   </trkpt>
   <trkpt lat="32.6385030" lon="35.1247420">
    <ele>58.1</ele>
    <time>2014-02-21T09:35:43Z</time>
   </trkpt>
   <trkpt lat="32.6385560" lon="35.1247380">
    <ele>57.8</ele>
    <time>2014-02-21T09:35:44Z</time>
   </trkpt>
   <trkpt lat="32.6386040" lon="35.1247290">
    <ele>57.6</ele>
    <time>2014-02-21T09:35:45Z</time>
   </trkpt>
   <trkpt lat="32.6386550" lon="35.1247180">
    <ele>57.3</ele>
    <time>2014-02-21T09:35:46Z</time>
   </trkpt>
   <trkpt lat="32.6387030" lon="35.1247060">
    <ele>57.1</ele>
    <time>2014-02-21T09:35:47Z</time>
   </trkpt>
   <trkpt lat="32.6387460" lon="35.1247060">
    <ele>56.9</ele>
    <time>2014-02-21T09:35:48Z</time>
   </trkpt>
   <trkpt lat="32.6387890" lon="35.1247070">
    <ele>56.8</ele>
    <time>2014-02-21T09:35:49Z</time>
   </trkpt>
   <trkpt lat="32.6388280" lon="35.1246890">
    <ele>56.8</ele>
    <time>2014-02-21T09:35:50Z</time>
   </trkpt>
   <trkpt lat="32.6388550" lon="35.1246620">
    <ele>56.9</ele>
    <time>2014-02-21T09:35:51Z</time>
   </trkpt>
   <trkpt lat="32.6388640" lon="35.1246100">
    <ele>57.0</ele>
    <time>2014-02-21T09:35:52Z</time>
   </trkpt>
   <trkpt lat="32.6388640" lon="35.1245630">
    <ele>57.1</ele>
    <time>2014-02-21T09:35:53Z</time>
   </trkpt>
   <trkpt lat="32.6388830" lon="35.1245140">
    <ele>57.4</ele>
    <time>2014-02-21T09:35:54Z</time>
   </trkpt>
   <trkpt lat="32.6389120" lon="35.1244840">
    <ele>57.6</ele>
    <time>2014-02-21T09:35:55Z</time>
   </trkpt>
   <trkpt lat="32.6389450" lon="35.1244560">
    <ele>57.8</ele>
    <time>2014-02-21T09:35:56Z</time>
   </trkpt>
   <trkpt lat="32.6389730" lon="35.1244270">
    <ele>57.9</ele>
    <time>2014-02-21T09:35:57Z</time>
   </trkpt>
   <trkpt lat="32.6389990" lon="35.1244040">
    <ele>58.1</ele>
    <time>2014-02-21T09:35:58Z</time>
   </trkpt>
   <trkpt lat="32.6390190" lon="35.1243810">
    <ele>58.2</ele>
    <time>2014-02-21T09:35:59Z</time>
   </trkpt>
   <trkpt lat="32.6390420" lon="35.1243590">
    <ele>58.3</ele>
    <time>2014-02-21T09:36:00Z</time>
   </trkpt>
   <trkpt lat="32.6390650" lon="35.1243400">
    <ele>58.5</ele>
    <time>2014-02-21T09:36:01Z</time>
   </trkpt>
   <trkpt lat="32.6391120" lon="35.1243100">
    <ele>58.6</ele>
    <time>2014-02-21T09:36:03Z</time>
   </trkpt>
   <trkpt lat="32.6391360" lon="35.1242940">
    <ele>58.7</ele>
    <time>2014-02-21T09:36:04Z</time>
   </trkpt>
   <trkpt lat="32.6391600" lon="35.1242770">
    <ele>58.8</ele>
    <time>2014-02-21T09:36:05Z</time>
   </trkpt>
   <trkpt lat="32.6391840" lon="35.1242600">
    <ele>58.9</ele>
    <time>2014-02-21T09:36:06Z</time>
   </trkpt>
   <trkpt lat="32.6392080" lon="35.1242440">
    <ele>59.0</ele>
    <time>2014-02-21T09:36:07Z</time>
   </trkpt>
   <trkpt lat="32.6392330" lon="35.1242260">
    <ele>59.1</ele>
    <time>2014-02-21T09:36:08Z</time>
   </trkpt>
   <trkpt lat="32.6392560" lon="35.1242090">
    <ele>59.2</ele>
    <time>2014-02-21T09:36:09Z</time>
   </trkpt>
   <trkpt lat="32.6392790" lon="35.1241910">
    <ele>59.4</ele>
    <time>2014-02-21T09:36:10Z</time>
   </trkpt>
   <trkpt lat="32.6393020" lon="35.1241740">
    <ele>59.5</ele>
    <time>2014-02-21T09:36:11Z</time>
   </trkpt>
   <trkpt lat="32.6393500" lon="35.1241480">
    <ele>59.6</ele>
    <time>2014-02-21T09:36:13Z</time>
   </trkpt>
   <trkpt lat="32.6393980" lon="35.1241290">
    <ele>59.7</ele>
    <time>2014-02-21T09:36:15Z</time>
   </trkpt>
   <trkpt lat="32.6394500" lon="35.1241120">
    <ele>59.8</ele>
    <time>2014-02-21T09:36:17Z</time>
   </trkpt>
   <trkpt lat="32.6394770" lon="35.1241040">
    <ele>59.9</ele>
    <time>2014-02-21T09:36:18Z</time>
   </trkpt>
   <trkpt lat="32.6395290" lon="35.1240910">
    <ele>60.0</ele>
    <time>2014-02-21T09:36:20Z</time>
   </trkpt>
   <trkpt lat="32.6395810" lon="35.1240780">
    <ele>60.0</ele>
    <time>2014-02-21T09:36:22Z</time>
   </trkpt>
   <trkpt lat="32.6396320" lon="35.1240730">
    <ele>60.3</ele>
    <time>2014-02-21T09:36:24Z</time>
   </trkpt>
   <trkpt lat="32.6396800" lon="35.1240770">
    <ele>60.5</ele>
    <time>2014-02-21T09:36:26Z</time>
   </trkpt>
   <trkpt lat="32.6397250" lon="35.1240890">
    <ele>60.6</ele>
    <time>2014-02-21T09:36:28Z</time>
   </trkpt>
   <trkpt lat="32.6397690" lon="35.1241040">
    <ele>60.7</ele>
    <time>2014-02-21T09:36:30Z</time>
   </trkpt>
   <trkpt lat="32.6398050" lon="35.1241090">
    <ele>60.8</ele>
    <time>2014-02-21T09:36:32Z</time>
   </trkpt>
   <trkpt lat="32.6398370" lon="35.1241050">
    <ele>61.0</ele>
    <time>2014-02-21T09:36:34Z</time>
   </trkpt>
   <trkpt lat="32.6398630" lon="35.1241200">
    <ele>61.0</ele>
    <time>2014-02-21T09:36:36Z</time>
   </trkpt>
   <trkpt lat="32.6398820" lon="35.1241680">
    <ele>60.7</ele>
    <time>2014-02-21T09:36:38Z</time>
   </trkpt>
   <trkpt lat="32.6398930" lon="35.1242150">
    <ele>60.4</ele>
    <time>2014-02-21T09:36:39Z</time>
   </trkpt>
   <trkpt lat="32.6398980" lon="35.1242670">
    <ele>60.1</ele>
    <time>2014-02-21T09:36:40Z</time>
   </trkpt>
   <trkpt lat="32.6398970" lon="35.1243340">
    <ele>59.6</ele>
    <time>2014-02-21T09:36:41Z</time>
   </trkpt>
   <trkpt lat="32.6398810" lon="35.1244170">
    <ele>58.9</ele>
    <time>2014-02-21T09:36:42Z</time>
   </trkpt>
   <trkpt lat="32.6398940" lon="35.1244760">
    <ele>58.5</ele>
    <time>2014-02-21T09:36:43Z</time>
   </trkpt>
   <trkpt lat="32.6399330" lon="35.1245210">
    <ele>58.3</ele>
    <time>2014-02-21T09:36:44Z</time>
   </trkpt>
   <trkpt lat="32.6399820" lon="35.1245440">
    <ele>58.3</ele>
    <time>2014-02-21T09:36:45Z</time>
   </trkpt>
   <trkpt lat="32.6400280" lon="35.1245450">
    <ele>58.4</ele>
    <time>2014-02-21T09:36:46Z</time>
   </trkpt>
   <trkpt lat="32.6400730" lon="35.1245350">
    <ele>58.6</ele>
    <time>2014-02-21T09:36:47Z</time>
   </trkpt>
   <trkpt lat="32.6401160" lon="35.1245480">
    <ele>58.6</ele>
    <time>2014-02-21T09:36:48Z</time>
   </trkpt>
   <trkpt lat="32.6401590" lon="35.1245680">
    <ele>58.5</ele>
    <time>2014-02-21T09:36:49Z</time>
   </trkpt>
   <trkpt lat="32.6402090" lon="35.1245640">
    <ele>58.7</ele>
    <time>2014-02-21T09:36:50Z</time>
   </trkpt>
   <trkpt lat="32.6402520" lon="35.1245540">
    <ele>58.9</ele>
    <time>2014-02-21T09:36:51Z</time>
   </trkpt>
   <trkpt lat="32.6402970" lon="35.1245460">
    <ele>59.1</ele>
    <time>2014-02-21T09:36:52Z</time>
   </trkpt>
   <trkpt lat="32.6403350" lon="35.1245310">
    <ele>59.3</ele>
    <time>2014-02-21T09:36:53Z</time>
   </trkpt>
   <trkpt lat="32.6403790" lon="35.1245330">
    <ele>59.4</ele>
    <time>2014-02-21T09:36:54Z</time>
   </trkpt>
   <trkpt lat="32.6404210" lon="35.1245250">
    <ele>59.5</ele>
    <time>2014-02-21T09:36:55Z</time>
   </trkpt>
   <trkpt lat="32.6404580" lon="35.1245290">
    <ele>59.4</ele>
    <time>2014-02-21T09:36:56Z</time>
   </trkpt>
   <trkpt lat="32.6404940" lon="35.1245360">
    <ele>59.2</ele>
    <time>2014-02-21T09:36:57Z</time>
   </trkpt>
   <trkpt lat="32.6405300" lon="35.1245420">
    <ele>59.1</ele>
    <time>2014-02-21T09:36:58Z</time>
   </trkpt>
   <trkpt lat="32.6405630" lon="35.1245460">
    <ele>59.0</ele>
    <time>2014-02-21T09:36:59Z</time>
   </trkpt>
   <trkpt lat="32.6406000" lon="35.1245400">
    <ele>58.9</ele>
    <time>2014-02-21T09:37:00Z</time>
   </trkpt>
   <trkpt lat="32.6406360" lon="35.1245330">
    <ele>58.9</ele>
    <time>2014-02-21T09:37:01Z</time>
   </trkpt>
   <trkpt lat="32.6406760" lon="35.1245260">
    <ele>58.8</ele>
    <time>2014-02-21T09:37:02Z</time>
   </trkpt>
   <trkpt lat="32.6407160" lon="35.1245210">
    <ele>58.8</ele>
    <time>2014-02-21T09:37:03Z</time>
   </trkpt>
   <trkpt lat="32.6407580" lon="35.1245160">
    <ele>58.7</ele>
    <time>2014-02-21T09:37:04Z</time>
   </trkpt>
   <trkpt lat="32.6408050" lon="35.1245120">
    <ele>58.6</ele>
    <time>2014-02-21T09:37:05Z</time>
   </trkpt>
   <trkpt lat="32.6408520" lon="35.1245060">
    <ele>58.5</ele>
    <time>2014-02-21T09:37:06Z</time>
   </trkpt>
   <trkpt lat="32.6409050" lon="35.1244890">
    <ele>58.5</ele>
    <time>2014-02-21T09:37:07Z</time>
   </trkpt>
   <trkpt lat="32.6409500" lon="35.1244810">
    <ele>58.4</ele>
    <time>2014-02-21T09:37:08Z</time>
   </trkpt>
   <trkpt lat="32.6409980" lon="35.1244700">
    <ele>58.3</ele>
    <time>2014-02-21T09:37:09Z</time>
   </trkpt>
   <trkpt lat="32.6410510" lon="35.1244580">
    <ele>58.2</ele>
    <time>2014-02-21T09:37:10Z</time>
   </trkpt>
   <trkpt lat="32.6410950" lon="35.1244480">
    <ele>58.1</ele>
    <time>2014-02-21T09:37:11Z</time>
   </trkpt>
   <trkpt lat="32.6411390" lon="35.1244390">
    <ele>58.1</ele>
    <time>2014-02-21T09:37:12Z</time>
   </trkpt>
   <trkpt lat="32.6411830" lon="35.1244260">
    <ele>58.0</ele>
    <time>2014-02-21T09:37:13Z</time>
   </trkpt>
   <trkpt lat="32.6412280" lon="35.1244080">
    <ele>57.9</ele>
    <time>2014-02-21T09:37:14Z</time>
   </trkpt>
   <trkpt lat="32.6412690" lon="35.1243950">
    <ele>57.9</ele>
    <time>2014-02-21T09:37:15Z</time>
   </trkpt>
   <trkpt lat="32.6413170" lon="35.1243820">
    <ele>58.0</ele>
    <time>2014-02-21T09:37:16Z</time>
   </trkpt>
   <trkpt lat="32.6413620" lon="35.1243670">
    <ele>58.1</ele>
    <time>2014-02-21T09:37:17Z</time>
   </trkpt>
   <trkpt lat="32.6414060" lon="35.1243450">
    <ele>58.2</ele>
    <time>2014-02-21T09:37:18Z</time>
   </trkpt>
   <trkpt lat="32.6414480" lon="35.1243320">
    <ele>58.3</ele>
    <time>2014-02-21T09:37:19Z</time>
   </trkpt>
   <trkpt lat="32.6414890" lon="35.1243170">
    <ele>58.4</ele>
    <time>2014-02-21T09:37:20Z</time>
   </trkpt>
   <trkpt lat="32.6415250" lon="35.1242910">
    <ele>58.5</ele>
    <time>2014-02-21T09:37:21Z</time>
   </trkpt>
   <trkpt lat="32.6415730" lon="35.1242640">
    <ele>58.7</ele>
    <time>2014-02-21T09:37:22Z</time>
   </trkpt>
   <trkpt lat="32.6416110" lon="35.1242470">
    <ele>58.8</ele>
    <time>2014-02-21T09:37:23Z</time>
   </trkpt>
   <trkpt lat="32.6416470" lon="35.1242310">
    <ele>58.9</ele>
    <time>2014-02-21T09:37:24Z</time>
   </trkpt>
   <trkpt lat="32.6416870" lon="35.1242140">
    <ele>59.0</ele>
    <time>2014-02-21T09:37:25Z</time>
   </trkpt>
   <trkpt lat="32.6417340" lon="35.1241930">
    <ele>59.1</ele>
    <time>2014-02-21T09:37:26Z</time>
   </trkpt>
   <trkpt lat="32.6417740" lon="35.1241700">
    <ele>59.3</ele>
    <time>2014-02-21T09:37:27Z</time>
   </trkpt>
   <trkpt lat="32.6418210" lon="35.1241500">
    <ele>59.4</ele>
    <time>2014-02-21T09:37:28Z</time>
   </trkpt>
   <trkpt lat="32.6418640" lon="35.1241290">
    <ele>59.6</ele>
    <time>2014-02-21T09:37:29Z</time>
   </trkpt>
   <trkpt lat="32.6419050" lon="35.1241050">
    <ele>59.7</ele>
    <time>2014-02-21T09:37:30Z</time>
   </trkpt>
   <trkpt lat="32.6419480" lon="35.1240820">
    <ele>59.9</ele>
    <time>2014-02-21T09:37:31Z</time>
   </trkpt>
   <trkpt lat="32.6419880" lon="35.1240630">
    <ele>60.1</ele>
    <time>2014-02-21T09:37:32Z</time>
   </trkpt>
   <trkpt lat="32.6420290" lon="35.1240420">
    <ele>60.2</ele>
    <time>2014-02-21T09:37:33Z</time>
   </trkpt>
   <trkpt lat="32.6420750" lon="35.1240210">
    <ele>60.4</ele>
    <time>2014-02-21T09:37:34Z</time>
   </trkpt>
   <trkpt lat="32.6421180" lon="35.1239980">
    <ele>60.4</ele>
    <time>2014-02-21T09:37:35Z</time>
   </trkpt>
   <trkpt lat="32.6421550" lon="35.1239820">
    <ele>60.4</ele>
    <time>2014-02-21T09:37:36Z</time>
   </trkpt>
   <trkpt lat="32.6421980" lon="35.1239620">
    <ele>60.4</ele>
    <time>2014-02-21T09:37:37Z</time>
   </trkpt>
   <trkpt lat="32.6422410" lon="35.1239460">
    <ele>60.4</ele>
    <time>2014-02-21T09:37:38Z</time>
   </trkpt>
   <trkpt lat="32.6422790" lon="35.1239190">
    <ele>60.5</ele>
    <time>2014-02-21T09:37:39Z</time>
   </trkpt>
   <trkpt lat="32.6423190" lon="35.1238940">
    <ele>60.5</ele>
    <time>2014-02-21T09:37:40Z</time>
   </trkpt>
   <trkpt lat="32.6423620" lon="35.1238710">
    <ele>60.6</ele>
    <time>2014-02-21T09:37:41Z</time>
   </trkpt>
   <trkpt lat="32.6423980" lon="35.1238490">
    <ele>60.6</ele>
    <time>2014-02-21T09:37:42Z</time>
   </trkpt>
   <trkpt lat="32.6424360" lon="35.1238170">
    <ele>60.7</ele>
    <time>2014-02-21T09:37:43Z</time>
   </trkpt>
   <trkpt lat="32.6424760" lon="35.1237980">
    <ele>60.7</ele>
    <time>2014-02-21T09:37:44Z</time>
   </trkpt>
   <trkpt lat="32.6425180" lon="35.1237810">
    <ele>60.8</ele>
    <time>2014-02-21T09:37:45Z</time>
   </trkpt>
   <trkpt lat="32.6425600" lon="35.1237580">
    <ele>60.8</ele>
    <time>2014-02-21T09:37:46Z</time>
   </trkpt>
   <trkpt lat="32.6426000" lon="35.1237370">
    <ele>60.9</ele>
    <time>2014-02-21T09:37:47Z</time>
   </trkpt>
   <trkpt lat="32.6426410" lon="35.1237180">
    <ele>61.0</ele>
    <time>2014-02-21T09:37:48Z</time>
   </trkpt>
   <trkpt lat="32.6426810" lon="35.1236950">
    <ele>61.1</ele>
    <time>2014-02-21T09:37:49Z</time>
   </trkpt>
   <trkpt lat="32.6427160" lon="35.1236690">
    <ele>61.2</ele>
    <time>2014-02-21T09:37:50Z</time>
   </trkpt>
   <trkpt lat="32.6427480" lon="35.1236440">
    <ele>61.3</ele>
    <time>2014-02-21T09:37:51Z</time>
   </trkpt>
   <trkpt lat="32.6427800" lon="35.1236280">
    <ele>61.4</ele>
    <time>2014-02-21T09:37:52Z</time>
   </trkpt>
   <trkpt lat="32.6428140" lon="35.1236130">
    <ele>61.4</ele>
    <time>2014-02-21T09:37:53Z</time>
   </trkpt>
   <trkpt lat="32.6428490" lon="35.1235920">
    <ele>61.5</ele>
    <time>2014-02-21T09:37:54Z</time>
   </trkpt>
   <trkpt lat="32.6428850" lon="35.1235710">
    <ele>61.6</ele>
    <time>2014-02-21T09:37:55Z</time>
   </trkpt>
   <trkpt lat="32.6429210" lon="35.1235460">
    <ele>61.7</ele>
    <time>2014-02-21T09:37:56Z</time>
   </trkpt>
   <trkpt lat="32.6429560" lon="35.1235210">
    <ele>61.8</ele>
    <time>2014-02-21T09:37:57Z</time>
   </trkpt>
   <trkpt lat="32.6429910" lon="35.1235000">
    <ele>61.9</ele>
    <time>2014-02-21T09:37:58Z</time>
   </trkpt>
   <trkpt lat="32.6430260" lon="35.1234780">
    <ele>61.9</ele>
    <time>2014-02-21T09:37:59Z</time>
   </trkpt>
   <trkpt lat="32.6430600" lon="35.1234540">
    <ele>62.0</ele>
    <time>2014-02-21T09:38:00Z</time>
   </trkpt>
   <trkpt lat="32.6430930" lon="35.1234280">
    <ele>62.1</ele>
    <time>2014-02-21T09:38:01Z</time>
   </trkpt>
   <trkpt lat="32.6431270" lon="35.1234040">
    <ele>62.2</ele>
    <time>2014-02-21T09:38:02Z</time>
   </trkpt>
   <trkpt lat="32.6431620" lon="35.1233800">
    <ele>62.3</ele>
    <time>2014-02-21T09:38:03Z</time>
   </trkpt>
   <trkpt lat="32.6431960" lon="35.1233570">
    <ele>62.3</ele>
    <time>2014-02-21T09:38:04Z</time>
   </trkpt>
   <trkpt lat="32.6432320" lon="35.1233340">
    <ele>62.4</ele>
    <time>2014-02-21T09:38:05Z</time>
   </trkpt>
   <trkpt lat="32.6432680" lon="35.1233110">
    <ele>62.4</ele>
    <time>2014-02-21T09:38:06Z</time>
   </trkpt>
   <trkpt lat="32.6433030" lon="35.1232870">
    <ele>62.4</ele>
    <time>2014-02-21T09:38:07Z</time>
   </trkpt>
   <trkpt lat="32.6433390" lon="35.1232620">
    <ele>62.5</ele>
    <time>2014-02-21T09:38:08Z</time>
   </trkpt>
   <trkpt lat="32.6433750" lon="35.1232370">
    <ele>62.5</ele>
    <time>2014-02-21T09:38:09Z</time>
   </trkpt>
   <trkpt lat="32.6434110" lon="35.1232100">
    <ele>62.6</ele>
    <time>2014-02-21T09:38:10Z</time>
   </trkpt>
   <trkpt lat="32.6434470" lon="35.1231850">
    <ele>62.6</ele>
    <time>2014-02-21T09:38:11Z</time>
   </trkpt>
   <trkpt lat="32.6434820" lon="35.1231610">
    <ele>62.6</ele>
    <time>2014-02-21T09:38:12Z</time>
   </trkpt>
   <trkpt lat="32.6435180" lon="35.1231360">
    <ele>62.7</ele>
    <time>2014-02-21T09:38:13Z</time>
   </trkpt>
   <trkpt lat="32.6435530" lon="35.1231100">
    <ele>62.7</ele>
    <time>2014-02-21T09:38:14Z</time>
   </trkpt>
   <trkpt lat="32.6435880" lon="35.1230810">
    <ele>62.7</ele>
    <time>2014-02-21T09:38:15Z</time>
   </trkpt>
   <trkpt lat="32.6436230" lon="35.1230530">
    <ele>62.7</ele>
    <time>2014-02-21T09:38:16Z</time>
   </trkpt>
   <trkpt lat="32.6436590" lon="35.1230230">
    <ele>62.8</ele>
    <time>2014-02-21T09:38:17Z</time>
   </trkpt>
   <trkpt lat="32.6436960" lon="35.1229950">
    <ele>62.8</ele>
    <time>2014-02-21T09:38:18Z</time>
   </trkpt>
   <trkpt lat="32.6437320" lon="35.1229680">
    <ele>62.8</ele>
    <time>2014-02-21T09:38:19Z</time>
   </trkpt>
   <trkpt lat="32.6437680" lon="35.1229410">
    <ele>62.7</ele>
    <time>2014-02-21T09:38:20Z</time>
   </trkpt>
   <trkpt lat="32.6438010" lon="35.1229120">
    <ele>62.5</ele>
    <time>2014-02-21T09:38:21Z</time>
   </trkpt>
   <trkpt lat="32.6438310" lon="35.1228820">
    <ele>62.3</ele>
    <time>2014-02-21T09:38:22Z</time>
   </trkpt>
   <trkpt lat="32.6438620" lon="35.1228530">
    <ele>62.1</ele>
    <time>2014-02-21T09:38:23Z</time>
   </trkpt>
   <trkpt lat="32.6438960" lon="35.1228250">
    <ele>61.8</ele>
    <time>2014-02-21T09:38:24Z</time>
   </trkpt>
   <trkpt lat="32.6439300" lon="35.1227990">
    <ele>61.6</ele>
    <time>2014-02-21T09:38:25Z</time>
   </trkpt>
   <trkpt lat="32.6439610" lon="35.1227730">
    <ele>61.3</ele>
    <time>2014-02-21T09:38:26Z</time>
   </trkpt>
   <trkpt lat="32.6439900" lon="35.1227430">
    <ele>61.1</ele>
    <time>2014-02-21T09:38:27Z</time>
   </trkpt>
   <trkpt lat="32.6440170" lon="35.1227120">
    <ele>60.9</ele>
    <time>2014-02-21T09:38:28Z</time>
   </trkpt>
   <trkpt lat="32.6440430" lon="35.1226860">
    <ele>60.7</ele>
    <time>2014-02-21T09:38:29Z</time>
   </trkpt>
   <trkpt lat="32.6440710" lon="35.1226600">
    <ele>60.5</ele>
    <time>2014-02-21T09:38:30Z</time>
   </trkpt>
   <trkpt lat="32.6441000" lon="35.1226350">
    <ele>60.3</ele>
    <time>2014-02-21T09:38:31Z</time>
   </trkpt>
   <trkpt lat="32.6441280" lon="35.1226070">
    <ele>60.1</ele>
    <time>2014-02-21T09:38:32Z</time>
   </trkpt>
   <trkpt lat="32.6441560" lon="35.1225800">
    <ele>59.9</ele>
    <time>2014-02-21T09:38:33Z</time>
   </trkpt>
   <trkpt lat="32.6441840" lon="35.1225520">
    <ele>59.7</ele>
    <time>2014-02-21T09:38:34Z</time>
   </trkpt>
   <trkpt lat="32.6442140" lon="35.1225250">
    <ele>59.5</ele>
    <time>2014-02-21T09:38:35Z</time>
   </trkpt>
   <trkpt lat="32.6442430" lon="35.1224980">
    <ele>59.3</ele>
    <time>2014-02-21T09:38:36Z</time>
   </trkpt>
   <trkpt lat="32.6442720" lon="35.1224710">
    <ele>59.1</ele>
    <time>2014-02-21T09:38:37Z</time>
   </trkpt>
   <trkpt lat="32.6443010" lon="35.1224420">
    <ele>58.8</ele>
    <time>2014-02-21T09:38:38Z</time>
   </trkpt>
   <trkpt lat="32.6443300" lon="35.1224140">
    <ele>58.6</ele>
    <time>2014-02-21T09:38:39Z</time>
   </trkpt>
   <trkpt lat="32.6443600" lon="35.1223860">
    <ele>58.4</ele>
    <time>2014-02-21T09:38:40Z</time>
   </trkpt>
   <trkpt lat="32.6443910" lon="35.1223580">
    <ele>58.2</ele>
    <time>2014-02-21T09:38:41Z</time>
   </trkpt>
   <trkpt lat="32.6444220" lon="35.1223310">
    <ele>58.0</ele>
    <time>2014-02-21T09:38:42Z</time>
   </trkpt>
   <trkpt lat="32.6444530" lon="35.1223040">
    <ele>57.7</ele>
    <time>2014-02-21T09:38:43Z</time>
   </trkpt>
   <trkpt lat="32.6444840" lon="35.1222760">
    <ele>57.5</ele>
    <time>2014-02-21T09:38:44Z</time>
   </trkpt>
   <trkpt lat="32.6445140" lon="35.1222460">
    <ele>57.3</ele>
    <time>2014-02-21T09:38:45Z</time>
   </trkpt>
   <trkpt lat="32.6445450" lon="35.1222150">
    <ele>57.1</ele>
    <time>2014-02-21T09:38:46Z</time>
   </trkpt>
   <trkpt lat="32.6445760" lon="35.1221840">
    <ele>56.8</ele>
    <time>2014-02-21T09:38:47Z</time>
   </trkpt>
   <trkpt lat="32.6446060" lon="35.1221540">
    <ele>56.7</ele>
    <time>2014-02-21T09:38:48Z</time>
   </trkpt>
   <trkpt lat="32.6446370" lon="35.1221260">
    <ele>56.7</ele>
    <time>2014-02-21T09:38:49Z</time>
   </trkpt>
   <trkpt lat="32.6446670" lon="35.1220960">
    <ele>56.7</ele>
    <time>2014-02-21T09:38:50Z</time>
   </trkpt>
   <trkpt lat="32.6446970" lon="35.1220650">
    <ele>56.6</ele>
    <time>2014-02-21T09:38:51Z</time>
   </trkpt>
   <trkpt lat="32.6447260" lon="35.1220330">
    <ele>56.6</ele>
    <time>2014-02-21T09:38:52Z</time>
   </trkpt>
   <trkpt lat="32.6447570" lon="35.1220030">
    <ele>56.5</ele>
    <time>2014-02-21T09:38:53Z</time>
   </trkpt>
   <trkpt lat="32.6447890" lon="35.1219730">
    <ele>56.4</ele>
    <time>2014-02-21T09:38:54Z</time>
   </trkpt>
   <trkpt lat="32.6448230" lon="35.1219420">
    <ele>56.3</ele>
    <time>2014-02-21T09:38:55Z</time>
   </trkpt>
   <trkpt lat="32.6448550" lon="35.1219090">
    <ele>56.2</ele>
    <time>2014-02-21T09:38:56Z</time>
   </trkpt>
   <trkpt lat="32.6448860" lon="35.1218750">
    <ele>56.1</ele>
    <time>2014-02-21T09:38:57Z</time>
   </trkpt>
   <trkpt lat="32.6449160" lon="35.1218460">
    <ele>56.0</ele>
    <time>2014-02-21T09:38:58Z</time>
   </trkpt>
   <trkpt lat="32.6449400" lon="35.1218270">
    <ele>55.9</ele>
    <time>2014-02-21T09:38:59Z</time>
   </trkpt>
   <trkpt lat="32.6449800" lon="35.1218050">
    <ele>55.8</ele>
    <time>2014-02-21T09:39:01Z</time>
   </trkpt>
   <trkpt lat="32.6450060" lon="35.1217930">
    <ele>55.6</ele>
    <time>2014-02-21T09:39:03Z</time>
   </trkpt>
   <trkpt lat="32.6450390" lon="35.1217870">
    <ele>55.5</ele>
    <time>2014-02-21T09:39:06Z</time>
   </trkpt>
   <trkpt lat="32.6450710" lon="35.1217920">
    <ele>55.3</ele>
    <time>2014-02-21T09:39:47Z</time>
   </trkpt>
   <trkpt lat="32.6450990" lon="35.1217920">
    <ele>55.2</ele>
    <time>2014-02-21T09:40:20Z</time>
   </trkpt>
   <trkpt lat="32.6451170" lon="35.1217680">
    <ele>55.1</ele>
    <time>2014-02-21T09:40:21Z</time>
   </trkpt>
   <trkpt lat="32.6451260" lon="35.1217200">
    <ele>55.1</ele>
    <time>2014-02-21T09:40:23Z</time>
   </trkpt>
   <trkpt lat="32.6451410" lon="35.1216930">
    <ele>55.0</ele>
    <time>2014-02-21T09:40:24Z</time>
   </trkpt>
   <trkpt lat="32.6451690" lon="35.1216530">
    <ele>54.8</ele>
    <time>2014-02-21T09:40:25Z</time>
   </trkpt>
   <trkpt lat="32.6451950" lon="35.1216080">
    <ele>54.7</ele>
    <time>2014-02-21T09:40:26Z</time>
   </trkpt>
   <trkpt lat="32.6452160" lon="35.1215600">
    <ele>54.5</ele>
    <time>2014-02-21T09:40:27Z</time>
   </trkpt>
   <trkpt lat="32.6452330" lon="35.1215100">
    <ele>54.4</ele>
    <time>2014-02-21T09:40:28Z</time>
   </trkpt>
   <trkpt lat="32.6452510" lon="35.1214620">
    <ele>54.3</ele>
    <time>2014-02-21T09:40:29Z</time>
   </trkpt>
   <trkpt lat="32.6452750" lon="35.1214160">
    <ele>54.1</ele>
    <time>2014-02-21T09:40:30Z</time>
   </trkpt>
   <trkpt lat="32.6453070" lon="35.1213770">
    <ele>53.9</ele>
    <time>2014-02-21T09:40:31Z</time>
   </trkpt>
   <trkpt lat="32.6453720" lon="35.1213460">
    <ele>53.4</ele>
    <time>2014-02-21T09:40:32Z</time>
   </trkpt>
   <trkpt lat="32.6454130" lon="35.1213100">
    <ele>53.1</ele>
    <time>2014-02-21T09:40:33Z</time>
   </trkpt>
   <trkpt lat="32.6454530" lon="35.1212690">
    <ele>53.0</ele>
    <time>2014-02-21T09:40:34Z</time>
   </trkpt>
   <trkpt lat="32.6454940" lon="35.1212350">
    <ele>53.0</ele>
    <time>2014-02-21T09:40:35Z</time>
   </trkpt>
   <trkpt lat="32.6455300" lon="35.1211970">
    <ele>53.1</ele>
    <time>2014-02-21T09:40:36Z</time>
   </trkpt>
   <trkpt lat="32.6455760" lon="35.1211640">
    <ele>53.2</ele>
    <time>2014-02-21T09:40:37Z</time>
   </trkpt>
   <trkpt lat="32.6456190" lon="35.1211300">
    <ele>53.3</ele>
    <time>2014-02-21T09:40:38Z</time>
   </trkpt>
   <trkpt lat="32.6456700" lon="35.1211100">
    <ele>53.3</ele>
    <time>2014-02-21T09:40:39Z</time>
   </trkpt>
   <trkpt lat="32.6457070" lon="35.1210720">
    <ele>53.4</ele>
    <time>2014-02-21T09:40:40Z</time>
   </trkpt>
   <trkpt lat="32.6457390" lon="35.1210280">
    <ele>53.4</ele>
    <time>2014-02-21T09:40:41Z</time>
   </trkpt>
   <trkpt lat="32.6457770" lon="35.1209870">
    <ele>53.5</ele>
    <time>2014-02-21T09:40:42Z</time>
   </trkpt>
   <trkpt lat="32.6458170" lon="35.1209440">
    <ele>53.6</ele>
    <time>2014-02-21T09:40:43Z</time>
   </trkpt>
   <trkpt lat="32.6458520" lon="35.1209070">
    <ele>53.6</ele>
    <time>2014-02-21T09:40:44Z</time>
   </trkpt>
   <trkpt lat="32.6458940" lon="35.1208690">
    <ele>53.7</ele>
    <time>2014-02-21T09:40:45Z</time>
   </trkpt>
   <trkpt lat="32.6459290" lon="35.1208330">
    <ele>53.7</ele>
    <time>2014-02-21T09:40:46Z</time>
   </trkpt>
   <trkpt lat="32.6459630" lon="35.1207960">
    <ele>53.7</ele>
    <time>2014-02-21T09:40:47Z</time>
   </trkpt>
   <trkpt lat="32.6460000" lon="35.1207550">
    <ele>53.8</ele>
    <time>2014-02-21T09:40:48Z</time>
   </trkpt>
   <trkpt lat="32.6460360" lon="35.1207150">
    <ele>53.8</ele>
    <time>2014-02-21T09:40:49Z</time>
   </trkpt>
   <trkpt lat="32.6460700" lon="35.1206820">
    <ele>53.8</ele>
    <time>2014-02-21T09:40:50Z</time>
   </trkpt>
   <trkpt lat="32.6461140" lon="35.1206370">
    <ele>53.9</ele>
    <time>2014-02-21T09:40:51Z</time>
   </trkpt>
   <trkpt lat="32.6461490" lon="35.1205970">
    <ele>53.9</ele>
    <time>2014-02-21T09:40:52Z</time>
   </trkpt>
   <trkpt lat="32.6461880" lon="35.1205590">
    <ele>53.9</ele>
    <time>2014-02-21T09:40:53Z</time>
   </trkpt>
   <trkpt lat="32.6462240" lon="35.1205220">
    <ele>53.9</ele>
    <time>2014-02-21T09:40:54Z</time>
   </trkpt>
   <trkpt lat="32.6462550" lon="35.1204810">
    <ele>53.9</ele>
    <time>2014-02-21T09:40:55Z</time>
   </trkpt>
   <trkpt lat="32.6462870" lon="35.1204430">
    <ele>53.9</ele>
    <time>2014-02-21T09:40:56Z</time>
   </trkpt>
   <trkpt lat="32.6463290" lon="35.1204070">
    <ele>53.8</ele>
    <time>2014-02-21T09:40:57Z</time>
   </trkpt>
   <trkpt lat="32.6463650" lon="35.1203770">
    <ele>53.8</ele>
    <time>2014-02-21T09:40:58Z</time>
   </trkpt>
   <trkpt lat="32.6464060" lon="35.1203540">
    <ele>53.7</ele>
    <time>2014-02-21T09:40:59Z</time>
   </trkpt>
   <trkpt lat="32.6464470" lon="35.1203270">
    <ele>53.6</ele>
    <time>2014-02-21T09:41:00Z</time>
   </trkpt>
   <trkpt lat="32.6464760" lon="35.1202840">
    <ele>53.6</ele>
    <time>2014-02-21T09:41:01Z</time>
   </trkpt>
   <trkpt lat="32.6465060" lon="35.1202420">
    <ele>53.6</ele>
    <time>2014-02-21T09:41:02Z</time>
   </trkpt>
   <trkpt lat="32.6465400" lon="35.1202100">
    <ele>53.6</ele>
    <time>2014-02-21T09:41:03Z</time>
   </trkpt>
   <trkpt lat="32.6465750" lon="35.1201770">
    <ele>53.5</ele>
    <time>2014-02-21T09:41:04Z</time>
   </trkpt>
   <trkpt lat="32.6466030" lon="35.1201430">
    <ele>53.5</ele>
    <time>2014-02-21T09:41:05Z</time>
   </trkpt>
   <trkpt lat="32.6466350" lon="35.1201070">
    <ele>53.4</ele>
    <time>2014-02-21T09:41:06Z</time>
   </trkpt>
   <trkpt lat="32.6466720" lon="35.1200700">
    <ele>53.4</ele>
    <time>2014-02-21T09:41:07Z</time>
   </trkpt>
   <trkpt lat="32.6467060" lon="35.1200350">
    <ele>53.4</ele>
    <time>2014-02-21T09:41:08Z</time>
   </trkpt>
   <trkpt lat="32.6467390" lon="35.1199980">
    <ele>53.3</ele>
    <time>2014-02-21T09:41:09Z</time>
   </trkpt>
   <trkpt lat="32.6467710" lon="35.1199620">
    <ele>53.3</ele>
    <time>2014-02-21T09:41:10Z</time>
   </trkpt>
   <trkpt lat="32.6468030" lon="35.1199280">
    <ele>53.3</ele>
    <time>2014-02-21T09:41:11Z</time>
   </trkpt>
   <trkpt lat="32.6468330" lon="35.1198930">
    <ele>53.2</ele>
    <time>2014-02-21T09:41:12Z</time>
   </trkpt>
   <trkpt lat="32.6468650" lon="35.1198620">
    <ele>53.2</ele>
    <time>2014-02-21T09:41:13Z</time>
   </trkpt>
   <trkpt lat="32.6468950" lon="35.1198300">
    <ele>53.2</ele>
    <time>2014-02-21T09:41:14Z</time>
   </trkpt>
   <trkpt lat="32.6469240" lon="35.1197990">
    <ele>53.1</ele>
    <time>2014-02-21T09:41:15Z</time>
   </trkpt>
   <trkpt lat="32.6469530" lon="35.1197670">
    <ele>53.1</ele>
    <time>2014-02-21T09:41:16Z</time>
   </trkpt>
   <trkpt lat="32.6469830" lon="35.1197370">
    <ele>53.1</ele>
    <time>2014-02-21T09:41:17Z</time>
   </trkpt>
   <trkpt lat="32.6470140" lon="35.1197110">
    <ele>53.0</ele>
    <time>2014-02-21T09:41:18Z</time>
   </trkpt>
   <trkpt lat="32.6470450" lon="35.1196870">
    <ele>53.0</ele>
    <time>2014-02-21T09:41:19Z</time>
   </trkpt>
   <trkpt lat="32.6470740" lon="35.1196610">
    <ele>52.9</ele>
    <time>2014-02-21T09:41:20Z</time>
   </trkpt>
   <trkpt lat="32.6471030" lon="35.1196330">
    <ele>53.0</ele>
    <time>2014-02-21T09:41:21Z</time>
   </trkpt>
   <trkpt lat="32.6471300" lon="35.1196020">
    <ele>53.0</ele>
    <time>2014-02-21T09:41:22Z</time>
   </trkpt>
   <trkpt lat="32.6471570" lon="35.1195700">
    <ele>53.1</ele>
    <time>2014-02-21T09:41:23Z</time>
   </trkpt>
   <trkpt lat="32.6471840" lon="35.1195380">
    <ele>53.2</ele>
    <time>2014-02-21T09:41:24Z</time>
   </trkpt>
   <trkpt lat="32.6472120" lon="35.1195070">
    <ele>53.2</ele>
    <time>2014-02-21T09:41:25Z</time>
   </trkpt>
   <trkpt lat="32.6472410" lon="35.1194770">
    <ele>53.3</ele>
    <time>2014-02-21T09:41:26Z</time>
   </trkpt>
   <trkpt lat="32.6472680" lon="35.1194470">
    <ele>53.3</ele>
    <time>2014-02-21T09:41:27Z</time>
   </trkpt>
   <trkpt lat="32.6472930" lon="35.1194180">
    <ele>53.4</ele>
    <time>2014-02-21T09:41:28Z</time>
   </trkpt>
   <trkpt lat="32.6473140" lon="35.1193930">
    <ele>53.4</ele>
    <time>2014-02-21T09:41:29Z</time>
   </trkpt>
   <trkpt lat="32.6473340" lon="35.1193660">
    <ele>53.5</ele>
    <time>2014-02-21T09:41:30Z</time>
   </trkpt>
   <trkpt lat="32.6473520" lon="35.1193380">
    <ele>53.5</ele>
    <time>2014-02-21T09:41:31Z</time>
   </trkpt>
   <trkpt lat="32.6473870" lon="35.1192930">
    <ele>53.6</ele>
    <time>2014-02-21T09:41:33Z</time>
   </trkpt>
   <trkpt lat="32.6474180" lon="35.1192650">
    <ele>53.6</ele>
    <time>2014-02-21T09:41:35Z</time>
   </trkpt>
   <trkpt lat="32.6474610" lon="35.1192280">
    <ele>53.7</ele>
    <time>2014-02-21T09:41:37Z</time>
   </trkpt>
   <trkpt lat="32.6474880" lon="35.1192050">
    <ele>53.7</ele>
    <time>2014-02-21T09:41:38Z</time>
   </trkpt>
   <trkpt lat="32.6475150" lon="35.1191820">
    <ele>53.8</ele>
    <time>2014-02-21T09:41:39Z</time>
   </trkpt>
   <trkpt lat="32.6475410" lon="35.1191600">
    <ele>53.8</ele>
    <time>2014-02-21T09:41:40Z</time>
   </trkpt>
   <trkpt lat="32.6475680" lon="35.1191370">
    <ele>53.8</ele>
    <time>2014-02-21T09:41:41Z</time>
   </trkpt>
   <trkpt lat="32.6475950" lon="35.1191180">
    <ele>53.8</ele>
    <time>2014-02-21T09:41:42Z</time>
   </trkpt>
   <trkpt lat="32.6476210" lon="35.1190970">
    <ele>53.9</ele>
    <time>2014-02-21T09:41:43Z</time>
   </trkpt>
   <trkpt lat="32.6476460" lon="35.1190760">
    <ele>53.9</ele>
    <time>2014-02-21T09:41:44Z</time>
   </trkpt>
   <trkpt lat="32.6476690" lon="35.1190540">
    <ele>53.9</ele>
    <time>2014-02-21T09:41:45Z</time>
   </trkpt>
   <trkpt lat="32.6476910" lon="35.1190320">
    <ele>53.9</ele>
    <time>2014-02-21T09:41:46Z</time>
   </trkpt>
   <trkpt lat="32.6477110" lon="35.1190090">
    <ele>53.9</ele>
    <time>2014-02-21T09:41:47Z</time>
   </trkpt>
   <trkpt lat="32.6477320" lon="35.1189850">
    <ele>53.9</ele>
    <time>2014-02-21T09:41:48Z</time>
   </trkpt>
   <trkpt lat="32.6477380" lon="35.1189510">
    <ele>53.9</ele>
    <time>2014-02-21T09:41:50Z</time>
   </trkpt>
   <trkpt lat="32.6477450" lon="35.1189160">
    <ele>54.0</ele>
    <time>2014-02-21T09:41:52Z</time>
   </trkpt>
   <trkpt lat="32.6477500" lon="35.1188720">
    <ele>54.0</ele>
    <time>2014-02-21T09:41:54Z</time>
   </trkpt>
   <trkpt lat="32.6477490" lon="35.1188370">
    <ele>54.0</ele>
    <time>2014-02-21T09:41:55Z</time>
   </trkpt>
   <trkpt lat="32.6477440" lon="35.1188020">
    <ele>54.0</ele>
    <time>2014-02-21T09:41:56Z</time>
   </trkpt>
   <trkpt lat="32.6477360" lon="35.1187660">
    <ele>54.0</ele>
    <time>2014-02-21T09:41:57Z</time>
   </trkpt>
   <trkpt lat="32.6477260" lon="35.1187300">
    <ele>54.1</ele>
    <time>2014-02-21T09:41:58Z</time>
   </trkpt>
   <trkpt lat="32.6477110" lon="35.1186940">
    <ele>54.2</ele>
    <time>2014-02-21T09:41:59Z</time>
   </trkpt>
   <trkpt lat="32.6476890" lon="35.1186540">
    <ele>54.4</ele>
    <time>2014-02-21T09:42:00Z</time>
   </trkpt>
   <trkpt lat="32.6476670" lon="35.1186150">
    <ele>54.5</ele>
    <time>2014-02-21T09:42:01Z</time>
   </trkpt>
   <trkpt lat="32.6476480" lon="35.1185750">
    <ele>54.7</ele>
    <time>2014-02-21T09:42:02Z</time>
   </trkpt>
   <trkpt lat="32.6476320" lon="35.1185360">
    <ele>54.9</ele>
    <time>2014-02-21T09:42:03Z</time>
   </trkpt>
   <trkpt lat="32.6476180" lon="35.1184940">
    <ele>55.0</ele>
    <time>2014-02-21T09:42:04Z</time>
   </trkpt>
   <trkpt lat="32.6476020" lon="35.1184540">
    <ele>55.2</ele>
    <time>2014-02-21T09:42:05Z</time>
   </trkpt>
   <trkpt lat="32.6475830" lon="35.1184150">
    <ele>55.4</ele>
    <time>2014-02-21T09:42:06Z</time>
   </trkpt>
   <trkpt lat="32.6475640" lon="35.1183780">
    <ele>55.5</ele>
    <time>2014-02-21T09:42:07Z</time>
   </trkpt>
   <trkpt lat="32.6475430" lon="35.1183420">
    <ele>55.7</ele>
    <time>2014-02-21T09:42:08Z</time>
   </trkpt>
   <trkpt lat="32.6475230" lon="35.1183070">
    <ele>55.8</ele>
    <time>2014-02-21T09:42:09Z</time>
   </trkpt>
   <trkpt lat="32.6475060" lon="35.1182710">
    <ele>56.0</ele>
    <time>2014-02-21T09:42:10Z</time>
   </trkpt>
   <trkpt lat="32.6474900" lon="35.1182350">
    <ele>56.2</ele>
    <time>2014-02-21T09:42:11Z</time>
   </trkpt>
   <trkpt lat="32.6474750" lon="35.1181980">
    <ele>56.3</ele>
    <time>2014-02-21T09:42:12Z</time>
   </trkpt>
   <trkpt lat="32.6474590" lon="35.1181610">
    <ele>56.5</ele>
    <time>2014-02-21T09:42:13Z</time>
   </trkpt>
   <trkpt lat="32.6474410" lon="35.1181260">
    <ele>56.7</ele>
    <time>2014-02-21T09:42:14Z</time>
   </trkpt>
   <trkpt lat="32.6474260" lon="35.1180920">
    <ele>56.8</ele>
    <time>2014-02-21T09:42:15Z</time>
   </trkpt>
   <trkpt lat="32.6474080" lon="35.1180330">
    <ele>57.1</ele>
    <time>2014-02-21T09:42:17Z</time>
   </trkpt>
   <trkpt lat="32.6473920" lon="35.1179720">
    <ele>57.4</ele>
    <time>2014-02-21T09:42:19Z</time>
   </trkpt>
   <trkpt lat="32.6473810" lon="35.1179420">
    <ele>57.5</ele>
    <time>2014-02-21T09:42:20Z</time>
   </trkpt>
   <trkpt lat="32.6473680" lon="35.1179120">
    <ele>57.7</ele>
    <time>2014-02-21T09:42:21Z</time>
   </trkpt>
   <trkpt lat="32.6473560" lon="35.1178810">
    <ele>57.8</ele>
    <time>2014-02-21T09:42:22Z</time>
   </trkpt>
   <trkpt lat="32.6473420" lon="35.1178480">
    <ele>57.9</ele>
    <time>2014-02-21T09:42:23Z</time>
   </trkpt>
   <trkpt lat="32.6473280" lon="35.1178140">
    <ele>58.1</ele>
    <time>2014-02-21T09:42:24Z</time>
   </trkpt>
   <trkpt lat="32.6473080" lon="35.1177780">
    <ele>58.2</ele>
    <time>2014-02-21T09:42:25Z</time>
   </trkpt>
   <trkpt lat="32.6472890" lon="35.1177410">
    <ele>58.4</ele>
    <time>2014-02-21T09:42:26Z</time>
   </trkpt>
   <trkpt lat="32.6472700" lon="35.1177030">
    <ele>58.5</ele>
    <time>2014-02-21T09:42:27Z</time>
   </trkpt>
   <trkpt lat="32.6472510" lon="35.1176660">
    <ele>58.7</ele>
    <time>2014-02-21T09:42:28Z</time>
   </trkpt>
   <trkpt lat="32.6472320" lon="35.1176290">
    <ele>58.9</ele>
    <time>2014-02-21T09:42:29Z</time>
   </trkpt>
   <trkpt lat="32.6472140" lon="35.1175920">
    <ele>59.0</ele>
    <time>2014-02-21T09:42:30Z</time>
   </trkpt>
   <trkpt lat="32.6471950" lon="35.1175560">
    <ele>59.2</ele>
    <time>2014-02-21T09:42:31Z</time>
   </trkpt>
   <trkpt lat="32.6471780" lon="35.1175190">
    <ele>59.3</ele>
    <time>2014-02-21T09:42:32Z</time>
   </trkpt>
   <trkpt lat="32.6471600" lon="35.1174820">
    <ele>59.5</ele>
    <time>2014-02-21T09:42:33Z</time>
   </trkpt>
   <trkpt lat="32.6471430" lon="35.1174440">
    <ele>59.6</ele>
    <time>2014-02-21T09:42:34Z</time>
   </trkpt>
   <trkpt lat="32.6471260" lon="35.1174070">
    <ele>59.8</ele>
    <time>2014-02-21T09:42:35Z</time>
   </trkpt>
   <trkpt lat="32.6471090" lon="35.1173700">
    <ele>59.9</ele>
    <time>2014-02-21T09:42:36Z</time>
   </trkpt>
   <trkpt lat="32.6470910" lon="35.1173340">
    <ele>60.1</ele>
    <time>2014-02-21T09:42:37Z</time>
   </trkpt>
   <trkpt lat="32.6470730" lon="35.1172970">
    <ele>60.2</ele>
    <time>2014-02-21T09:42:38Z</time>
   </trkpt>
   <trkpt lat="32.6470550" lon="35.1172610">
    <ele>60.3</ele>
    <time>2014-02-21T09:42:39Z</time>
   </trkpt>
   <trkpt lat="32.6470390" lon="35.1172240">
    <ele>60.4</ele>
    <time>2014-02-21T09:42:40Z</time>
   </trkpt>
   <trkpt lat="32.6470220" lon="35.1171860">
    <ele>60.6</ele>
    <time>2014-02-21T09:42:41Z</time>
   </trkpt>
   <trkpt lat="32.6470060" lon="35.1171480">
    <ele>60.7</ele>
    <time>2014-02-21T09:42:42Z</time>
   </trkpt>
   <trkpt lat="32.6469910" lon="35.1171090">
    <ele>60.8</ele>
    <time>2014-02-21T09:42:43Z</time>
   </trkpt>
   <trkpt lat="32.6469750" lon="35.1170710">
    <ele>60.9</ele>
    <time>2014-02-21T09:42:44Z</time>
   </trkpt>
   <trkpt lat="32.6469600" lon="35.1170340">
    <ele>61.0</ele>
    <time>2014-02-21T09:42:45Z</time>
   </trkpt>
   <trkpt lat="32.6469410" lon="35.1169980">
    <ele>61.1</ele>
    <time>2014-02-21T09:42:46Z</time>
   </trkpt>
   <trkpt lat="32.6469210" lon="35.1169630">
    <ele>61.2</ele>
    <time>2014-02-21T09:42:47Z</time>
   </trkpt>
   <trkpt lat="32.6469010" lon="35.1169270">
    <ele>61.3</ele>
    <time>2014-02-21T09:42:48Z</time>
   </trkpt>
   <trkpt lat="32.6468820" lon="35.1168920">
    <ele>61.4</ele>
    <time>2014-02-21T09:42:49Z</time>
   </trkpt>
   <trkpt lat="32.6468660" lon="35.1168550">
    <ele>61.6</ele>
    <time>2014-02-21T09:42:50Z</time>
   </trkpt>
   <trkpt lat="32.6468520" lon="35.1168160">
    <ele>61.8</ele>
    <time>2014-02-21T09:42:51Z</time>
   </trkpt>
   <trkpt lat="32.6468410" lon="35.1167760">
    <ele>61.9</ele>
    <time>2014-02-21T09:42:52Z</time>
   </trkpt>
   <trkpt lat="32.6468280" lon="35.1167350">
    <ele>62.1</ele>
    <time>2014-02-21T09:42:53Z</time>
   </trkpt>
   <trkpt lat="32.6468130" lon="35.1166960">
    <ele>62.3</ele>
    <time>2014-02-21T09:42:54Z</time>
   </trkpt>
   <trkpt lat="32.6467990" lon="35.1166560">
    <ele>62.6</ele>
    <time>2014-02-21T09:42:55Z</time>
   </trkpt>
   <trkpt lat="32.6467860" lon="35.1166160">
    <ele>62.8</ele>
    <time>2014-02-21T09:42:56Z</time>
   </trkpt>
   <trkpt lat="32.6467710" lon="35.1165780">
    <ele>63.0</ele>
    <time>2014-02-21T09:42:57Z</time>
   </trkpt>
   <trkpt lat="32.6467550" lon="35.1165400">
    <ele>63.3</ele>
    <time>2014-02-21T09:42:58Z</time>
   </trkpt>
   <trkpt lat="32.6467370" lon="35.1165030">
    <ele>63.6</ele>
    <time>2014-02-21T09:42:59Z</time>
   </trkpt>
   <trkpt lat="32.6467200" lon="35.1164660">
    <ele>63.9</ele>
    <time>2014-02-21T09:43:00Z</time>
   </trkpt>
   <trkpt lat="32.6467060" lon="35.1164290">
    <ele>64.2</ele>
    <time>2014-02-21T09:43:01Z</time>
   </trkpt>
   <trkpt lat="32.6466920" lon="35.1163920">
    <ele>64.5</ele>
    <time>2014-02-21T09:43:02Z</time>
   </trkpt>
   <trkpt lat="32.6466760" lon="35.1163570">
    <ele>64.8</ele>
    <time>2014-02-21T09:43:03Z</time>
   </trkpt>
   <trkpt lat="32.6466590" lon="35.1163220">
    <ele>65.1</ele>
    <time>2014-02-21T09:43:04Z</time>
   </trkpt>
   <trkpt lat="32.6466420" lon="35.1162870">
    <ele>65.5</ele>
    <time>2014-02-21T09:43:05Z</time>
   </trkpt>
   <trkpt lat="32.6466240" lon="35.1162530">
    <ele>65.8</ele>
    <time>2014-02-21T09:43:06Z</time>
   </trkpt>
   <trkpt lat="32.6466070" lon="35.1162160">
    <ele>66.4</ele>
    <time>2014-02-21T09:43:07Z</time>
   </trkpt>
   <trkpt lat="32.6465900" lon="35.1161830">
    <ele>67.0</ele>
    <time>2014-02-21T09:43:08Z</time>
   </trkpt>
   <trkpt lat="32.6465760" lon="35.1161470">
    <ele>67.6</ele>
    <time>2014-02-21T09:43:09Z</time>
   </trkpt>
   <trkpt lat="32.6465620" lon="35.1161100">
    <ele>68.2</ele>
    <time>2014-02-21T09:43:10Z</time>
   </trkpt>
   <trkpt lat="32.6465470" lon="35.1160750">
    <ele>68.8</ele>
    <time>2014-02-21T09:43:11Z</time>
   </trkpt>
   <trkpt lat="32.6465320" lon="35.1160410">
    <ele>69.4</ele>
    <time>2014-02-21T09:43:12Z</time>
   </trkpt>
   <trkpt lat="32.6465160" lon="35.1160070">
    <ele>70.0</ele>
    <time>2014-02-21T09:43:13Z</time>
   </trkpt>
   <trkpt lat="32.6465010" lon="35.1159740">
    <ele>70.6</ele>
    <time>2014-02-21T09:43:14Z</time>
   </trkpt>
   <trkpt lat="32.6464850" lon="35.1159420">
    <ele>71.2</ele>
    <time>2014-02-21T09:43:15Z</time>
   </trkpt>
   <trkpt lat="32.6464700" lon="35.1159090">
    <ele>71.8</ele>
    <time>2014-02-21T09:43:16Z</time>
   </trkpt>
   <trkpt lat="32.6464560" lon="35.1158760">
    <ele>72.4</ele>
    <time>2014-02-21T09:43:17Z</time>
   </trkpt>
   <trkpt lat="32.6464460" lon="35.1158410">
    <ele>73.0</ele>
    <time>2014-02-21T09:43:18Z</time>
   </trkpt>
   <trkpt lat="32.6464390" lon="35.1158090">
    <ele>73.6</ele>
    <time>2014-02-21T09:43:19Z</time>
   </trkpt>
   <trkpt lat="32.6464290" lon="35.1157780">
    <ele>74.1</ele>
    <time>2014-02-21T09:43:20Z</time>
   </trkpt>
   <trkpt lat="32.6464160" lon="35.1157490">
    <ele>74.7</ele>
    <time>2014-02-21T09:43:21Z</time>
   </trkpt>
   <trkpt lat="32.6464030" lon="35.1157200">
    <ele>75.3</ele>
    <time>2014-02-21T09:43:22Z</time>
   </trkpt>
   <trkpt lat="32.6463870" lon="35.1156920">
    <ele>75.9</ele>
    <time>2014-02-21T09:43:23Z</time>
   </trkpt>
   <trkpt lat="32.6463720" lon="35.1156640">
    <ele>76.5</ele>
    <time>2014-02-21T09:43:24Z</time>
   </trkpt>
   <trkpt lat="32.6463600" lon="35.1156340">
    <ele>77.1</ele>
    <time>2014-02-21T09:43:25Z</time>
   </trkpt>
   <trkpt lat="32.6463350" lon="35.1155780">
    <ele>78.3</ele>
    <time>2014-02-21T09:43:27Z</time>
   </trkpt>
   <trkpt lat="32.6463070" lon="35.1155280">
    <ele>79.4</ele>
    <time>2014-02-21T09:43:29Z</time>
   </trkpt>
   <trkpt lat="32.6462720" lon="35.1154900">
    <ele>80.5</ele>
    <time>2014-02-21T09:43:31Z</time>
   </trkpt>
   <trkpt lat="32.6462470" lon="35.1154750">
    <ele>81.1</ele>
    <time>2014-02-21T09:43:32Z</time>
   </trkpt>
   <trkpt lat="32.6462210" lon="35.1154620">
    <ele>81.3</ele>
    <time>2014-02-21T09:43:33Z</time>
   </trkpt>
   <trkpt lat="32.6461940" lon="35.1154520">
    <ele>81.5</ele>
    <time>2014-02-21T09:43:34Z</time>
   </trkpt>
   <trkpt lat="32.6461670" lon="35.1154420">
    <ele>81.7</ele>
    <time>2014-02-21T09:43:35Z</time>
   </trkpt>
   <trkpt lat="32.6461380" lon="35.1154340">
    <ele>81.9</ele>
    <time>2014-02-21T09:43:36Z</time>
   </trkpt>
   <trkpt lat="32.6461100" lon="35.1154270">
    <ele>82.0</ele>
    <time>2014-02-21T09:43:37Z</time>
   </trkpt>
   <trkpt lat="32.6460790" lon="35.1154230">
    <ele>82.1</ele>
    <time>2014-02-21T09:43:38Z</time>
   </trkpt>
   <trkpt lat="32.6460480" lon="35.1154200">
    <ele>82.2</ele>
    <time>2014-02-21T09:43:39Z</time>
   </trkpt>
   <trkpt lat="32.6460170" lon="35.1154180">
    <ele>82.3</ele>
    <time>2014-02-21T09:43:40Z</time>
   </trkpt>
   <trkpt lat="32.6459880" lon="35.1154150">
    <ele>82.4</ele>
    <time>2014-02-21T09:43:41Z</time>
   </trkpt>
   <trkpt lat="32.6459380" lon="35.1154020">
    <ele>82.8</ele>
    <time>2014-02-21T09:43:43Z</time>
   </trkpt>
   <trkpt lat="32.6459050" lon="35.1153920">
    <ele>83.1</ele>
    <time>2014-02-21T09:43:45Z</time>
   </trkpt>
   <trkpt lat="32.6458680" lon="35.1153850">
    <ele>83.3</ele>
    <time>2014-02-21T09:43:47Z</time>
   </trkpt>
   <trkpt lat="32.6458310" lon="35.1153810">
    <ele>83.5</ele>
    <time>2014-02-21T09:43:49Z</time>
   </trkpt>
   <trkpt lat="32.6457920" lon="35.1153730">
    <ele>83.7</ele>
    <time>2014-02-21T09:43:51Z</time>
   </trkpt>
   <trkpt lat="32.6457480" lon="35.1153640">
    <ele>84.0</ele>
    <time>2014-02-21T09:43:53Z</time>
   </trkpt>
   <trkpt lat="32.6457000" lon="35.1153620">
    <ele>84.1</ele>
    <time>2014-02-21T09:43:55Z</time>
   </trkpt>
   <trkpt lat="32.6456490" lon="35.1153570">
    <ele>84.3</ele>
    <time>2014-02-21T09:43:57Z</time>
   </trkpt>
   <trkpt lat="32.6455990" lon="35.1153510">
    <ele>84.5</ele>
    <time>2014-02-21T09:43:59Z</time>
   </trkpt>
   <trkpt lat="32.6455560" lon="35.1153370">
    <ele>84.9</ele>
    <time>2014-02-21T09:44:01Z</time>
   </trkpt>
   <trkpt lat="32.6455150" lon="35.1153170">
    <ele>85.4</ele>
    <time>2014-02-21T09:44:03Z</time>
   </trkpt>
   <trkpt lat="32.6454750" lon="35.1152960">
    <ele>86.0</ele>
    <time>2014-02-21T09:44:05Z</time>
   </trkpt>
   <trkpt lat="32.6454360" lon="35.1152760">
    <ele>86.5</ele>
    <time>2014-02-21T09:44:07Z</time>
   </trkpt>
   <trkpt lat="32.6453980" lon="35.1152510">
    <ele>87.0</ele>
    <time>2014-02-21T09:44:09Z</time>
   </trkpt>
   <trkpt lat="32.6453600" lon="35.1152270">
    <ele>87.3</ele>
    <time>2014-02-21T09:44:11Z</time>
   </trkpt>
   <trkpt lat="32.6453220" lon="35.1152070">
    <ele>87.5</ele>
    <time>2014-02-21T09:44:13Z</time>
   </trkpt>
   <trkpt lat="32.6452810" lon="35.1151840">
    <ele>87.7</ele>
    <time>2014-02-21T09:44:15Z</time>
   </trkpt>
   <trkpt lat="32.6452390" lon="35.1151660">
    <ele>87.7</ele>
    <time>2014-02-21T09:44:17Z</time>
   </trkpt>
   <trkpt lat="32.6452000" lon="35.1151550">
    <ele>87.6</ele>
    <time>2014-02-21T09:44:19Z</time>
   </trkpt>
   <trkpt lat="32.6451630" lon="35.1151400">
    <ele>87.6</ele>
    <time>2014-02-21T09:44:21Z</time>
   </trkpt>
   <trkpt lat="32.6451260" lon="35.1151210">
    <ele>87.7</ele>
    <time>2014-02-21T09:44:23Z</time>
   </trkpt>
   <trkpt lat="32.6450850" lon="35.1151030">
    <ele>87.7</ele>
    <time>2014-02-21T09:44:25Z</time>
   </trkpt>
   <trkpt lat="32.6450450" lon="35.1150830">
    <ele>87.7</ele>
    <time>2014-02-21T09:44:27Z</time>
   </trkpt>
   <trkpt lat="32.6450090" lon="35.1150610">
    <ele>87.8</ele>
    <time>2014-02-21T09:44:29Z</time>
   </trkpt>
   <trkpt lat="32.6449720" lon="35.1150490">
    <ele>87.7</ele>
    <time>2014-02-21T09:44:31Z</time>
   </trkpt>
   <trkpt lat="32.6449350" lon="35.1150380">
    <ele>87.6</ele>
    <time>2014-02-21T09:44:33Z</time>
   </trkpt>
   <trkpt lat="32.6449010" lon="35.1150190">
    <ele>87.6</ele>
    <time>2014-02-21T09:44:35Z</time>
   </trkpt>
   <trkpt lat="32.6448670" lon="35.1149980">
    <ele>87.6</ele>
    <time>2014-02-21T09:44:37Z</time>
   </trkpt>
   <trkpt lat="32.6448290" lon="35.1149800">
    <ele>87.5</ele>
    <time>2014-02-21T09:44:39Z</time>
   </trkpt>
   <trkpt lat="32.6447910" lon="35.1149570">
    <ele>87.5</ele>
    <time>2014-02-21T09:44:41Z</time>
   </trkpt>
   <trkpt lat="32.6447490" lon="35.1149400">
    <ele>87.3</ele>
    <time>2014-02-21T09:44:43Z</time>
   </trkpt>
   <trkpt lat="32.6447080" lon="35.1149160">
    <ele>87.3</ele>
    <time>2014-02-21T09:44:45Z</time>
   </trkpt>
   <trkpt lat="32.6446710" lon="35.1148850">
    <ele>87.4</ele>
    <time>2014-02-21T09:44:47Z</time>
   </trkpt>
   <trkpt lat="32.6446350" lon="35.1148550">
    <ele>87.4</ele>
    <time>2014-02-21T09:44:49Z</time>
   </trkpt>
   <trkpt lat="32.6445950" lon="35.1148300">
    <ele>87.3</ele>
    <time>2014-02-21T09:44:51Z</time>
   </trkpt>
   <trkpt lat="32.6445530" lon="35.1148010">
    <ele>87.3</ele>
    <time>2014-02-21T09:44:53Z</time>
   </trkpt>
   <trkpt lat="32.6445100" lon="35.1147700">
    <ele>87.3</ele>
    <time>2014-02-21T09:44:55Z</time>
   </trkpt>
   <trkpt lat="32.6444720" lon="35.1147360">
    <ele>87.4</ele>
    <time>2014-02-21T09:44:57Z</time>
   </trkpt>
   <trkpt lat="32.6444450" lon="35.1146980">
    <ele>87.7</ele>
    <time>2014-02-21T09:44:59Z</time>
   </trkpt>
   <trkpt lat="32.6444120" lon="35.1146650">
    <ele>87.9</ele>
    <time>2014-02-21T09:45:01Z</time>
   </trkpt>
   <trkpt lat="32.6443740" lon="35.1146370">
    <ele>87.9</ele>
    <time>2014-02-21T09:45:03Z</time>
   </trkpt>
   <trkpt lat="32.6443390" lon="35.1146080">
    <ele>88.0</ele>
    <time>2014-02-21T09:45:05Z</time>
   </trkpt>
   <trkpt lat="32.6443020" lon="35.1145770">
    <ele>88.1</ele>
    <time>2014-02-21T09:45:07Z</time>
   </trkpt>
   <trkpt lat="32.6442560" lon="35.1145530">
    <ele>88.3</ele>
    <time>2014-02-21T09:45:09Z</time>
   </trkpt>
   <trkpt lat="32.6442310" lon="35.1145400">
    <ele>88.4</ele>
    <time>2014-02-21T09:45:10Z</time>
   </trkpt>
   <trkpt lat="32.6442050" lon="35.1145260">
    <ele>88.5</ele>
    <time>2014-02-21T09:45:11Z</time>
   </trkpt>
   <trkpt lat="32.6441740" lon="35.1145060">
    <ele>88.7</ele>
    <time>2014-02-21T09:45:12Z</time>
   </trkpt>
   <trkpt lat="32.6441430" lon="35.1144870">
    <ele>88.9</ele>
    <time>2014-02-21T09:45:13Z</time>
   </trkpt>
   <trkpt lat="32.6441110" lon="35.1144710">
    <ele>89.0</ele>
    <time>2014-02-21T09:45:14Z</time>
   </trkpt>
   <trkpt lat="32.6440800" lon="35.1144530">
    <ele>89.1</ele>
    <time>2014-02-21T09:45:15Z</time>
   </trkpt>
   <trkpt lat="32.6440500" lon="35.1144340">
    <ele>89.3</ele>
    <time>2014-02-21T09:45:16Z</time>
   </trkpt>
   <trkpt lat="32.6440200" lon="35.1144150">
    <ele>89.5</ele>
    <time>2014-02-21T09:45:17Z</time>
   </trkpt>
   <trkpt lat="32.6439890" lon="35.1143980">
    <ele>89.6</ele>
    <time>2014-02-21T09:45:18Z</time>
   </trkpt>
   <trkpt lat="32.6439560" lon="35.1143840">
    <ele>89.6</ele>
    <time>2014-02-21T09:45:19Z</time>
   </trkpt>
   <trkpt lat="32.6439250" lon="35.1143690">
    <ele>89.7</ele>
    <time>2014-02-21T09:45:20Z</time>
   </trkpt>
   <trkpt lat="32.6438950" lon="35.1143520">
    <ele>89.8</ele>
    <time>2014-02-21T09:45:21Z</time>
   </trkpt>
   <trkpt lat="32.6438690" lon="35.1143290">
    <ele>90.1</ele>
    <time>2014-02-21T09:45:22Z</time>
   </trkpt>
   <trkpt lat="32.6438440" lon="35.1143050">
    <ele>90.4</ele>
    <time>2014-02-21T09:45:23Z</time>
   </trkpt>
   <trkpt lat="32.6438190" lon="35.1142840">
    <ele>90.7</ele>
    <time>2014-02-21T09:45:24Z</time>
   </trkpt>
   <trkpt lat="32.6437910" lon="35.1142670">
    <ele>90.8</ele>
    <time>2014-02-21T09:45:25Z</time>
   </trkpt>
   <trkpt lat="32.6437620" lon="35.1142530">
    <ele>90.9</ele>
    <time>2014-02-21T09:45:26Z</time>
   </trkpt>
   <trkpt lat="32.6437310" lon="35.1142420">
    <ele>91.1</ele>
    <time>2014-02-21T09:45:27Z</time>
   </trkpt>
   <trkpt lat="32.6437010" lon="35.1142330">
    <ele>91.4</ele>
    <time>2014-02-21T09:45:28Z</time>
   </trkpt>
   <trkpt lat="32.6436680" lon="35.1142270">
    <ele>91.7</ele>
    <time>2014-02-21T09:45:29Z</time>
   </trkpt>
   <trkpt lat="32.6436340" lon="35.1142230">
    <ele>91.9</ele>
    <time>2014-02-21T09:45:30Z</time>
   </trkpt>
   <trkpt lat="32.6436000" lon="35.1142200">
    <ele>92.1</ele>
    <time>2014-02-21T09:45:31Z</time>
   </trkpt>
   <trkpt lat="32.6435660" lon="35.1142200">
    <ele>92.2</ele>
    <time>2014-02-21T09:45:32Z</time>
   </trkpt>
   <trkpt lat="32.6435310" lon="35.1142200">
    <ele>92.3</ele>
    <time>2014-02-21T09:45:33Z</time>
   </trkpt>
   <trkpt lat="32.6434930" lon="35.1142210">
    <ele>92.4</ele>
    <time>2014-02-21T09:45:34Z</time>
   </trkpt>
   <trkpt lat="32.6434490" lon="35.1142200">
    <ele>92.6</ele>
    <time>2014-02-21T09:45:35Z</time>
   </trkpt>
   <trkpt lat="32.6434010" lon="35.1142170">
    <ele>92.8</ele>
    <time>2014-02-21T09:45:36Z</time>
   </trkpt>
   <trkpt lat="32.6433540" lon="35.1142130">
    <ele>93.0</ele>
    <time>2014-02-21T09:45:37Z</time>
   </trkpt>
   <trkpt lat="32.6433050" lon="35.1142080">
    <ele>93.3</ele>
    <time>2014-02-21T09:45:38Z</time>
   </trkpt>
   <trkpt lat="32.6432370" lon="35.1141950">
    <ele>93.9</ele>
    <time>2014-02-21T09:45:39Z</time>
   </trkpt>
   <trkpt lat="32.6431860" lon="35.1141820">
    <ele>94.3</ele>
    <time>2014-02-21T09:45:40Z</time>
   </trkpt>
   <trkpt lat="32.6431380" lon="35.1141690">
    <ele>94.8</ele>
    <time>2014-02-21T09:45:41Z</time>
   </trkpt>
   <trkpt lat="32.6430830" lon="35.1141660">
    <ele>95.0</ele>
    <time>2014-02-21T09:45:42Z</time>
   </trkpt>
   <trkpt lat="32.6430290" lon="35.1141590">
    <ele>95.3</ele>
    <time>2014-02-21T09:45:43Z</time>
   </trkpt>
   <trkpt lat="32.6429650" lon="35.1141590">
    <ele>95.5</ele>
    <time>2014-02-21T09:45:44Z</time>
   </trkpt>
   <trkpt lat="32.6429100" lon="35.1141480">
    <ele>96.0</ele>
    <time>2014-02-21T09:45:45Z</time>
   </trkpt>
   <trkpt lat="32.6428550" lon="35.1141440">
    <ele>96.7</ele>
    <time>2014-02-21T09:45:46Z</time>
   </trkpt>
   <trkpt lat="32.6427980" lon="35.1141400">
    <ele>97.4</ele>
    <time>2014-02-21T09:45:47Z</time>
   </trkpt>
   <trkpt lat="32.6427370" lon="35.1141390">
    <ele>98.0</ele>
    <time>2014-02-21T09:45:48Z</time>
   </trkpt>
   <trkpt lat="32.6426830" lon="35.1141470">
    <ele>98.4</ele>
    <time>2014-02-21T09:45:49Z</time>
   </trkpt>
   <trkpt lat="32.6426510" lon="35.1142210">
    <ele>96.8</ele>
    <time>2014-02-21T09:45:50Z</time>
   </trkpt>
   <trkpt lat="32.6425910" lon="35.1142640">
    <ele>96.3</ele>
    <time>2014-02-21T09:45:51Z</time>
   </trkpt>
   <trkpt lat="32.6425290" lon="35.1143040">
    <ele>95.8</ele>
    <time>2014-02-21T09:45:52Z</time>
   </trkpt>
   <trkpt lat="32.6424680" lon="35.1143170">
    <ele>96.0</ele>
    <time>2014-02-21T09:45:53Z</time>
   </trkpt>
   <trkpt lat="32.6424230" lon="35.1143630">
    <ele>95.1</ele>
    <time>2014-02-21T09:45:54Z</time>
   </trkpt>
   <trkpt lat="32.6423670" lon="35.1143980">
    <ele>94.6</ele>
    <time>2014-02-21T09:45:55Z</time>
   </trkpt>
   <trkpt lat="32.6423140" lon="35.1144170">
    <ele>94.4</ele>
    <time>2014-02-21T09:45:56Z</time>
   </trkpt>
   <trkpt lat="32.6422800" lon="35.1144280">
    <ele>94.4</ele>
    <time>2014-02-21T09:45:57Z</time>
   </trkpt>
   <trkpt lat="32.6422180" lon="35.1144490">
    <ele>94.2</ele>
    <time>2014-02-21T09:45:58Z</time>
   </trkpt>
   <trkpt lat="32.6421560" lon="35.1144680">
    <ele>94.1</ele>
    <time>2014-02-21T09:45:59Z</time>
   </trkpt>
   <trkpt lat="32.6421050" lon="35.1144880">
    <ele>93.8</ele>
    <time>2014-02-21T09:46:00Z</time>
   </trkpt>
   <trkpt lat="32.6420530" lon="35.1145020">
    <ele>93.6</ele>
    <time>2014-02-21T09:46:01Z</time>
   </trkpt>
   <trkpt lat="32.6420020" lon="35.1145070">
    <ele>93.6</ele>
    <time>2014-02-21T09:46:02Z</time>
   </trkpt>
   <trkpt lat="32.6419550" lon="35.1145020">
    <ele>93.8</ele>
    <time>2014-02-21T09:46:03Z</time>
   </trkpt>
   <trkpt lat="32.6419140" lon="35.1144860">
    <ele>94.4</ele>
    <time>2014-02-21T09:46:04Z</time>
   </trkpt>
   <trkpt lat="32.6418720" lon="35.1144940">
    <ele>94.3</ele>
    <time>2014-02-21T09:46:05Z</time>
   </trkpt>
   <trkpt lat="32.6418200" lon="35.1145510">
    <ele>92.6</ele>
    <time>2014-02-21T09:46:06Z</time>
   </trkpt>
   <trkpt lat="32.6417790" lon="35.1145580">
    <ele>92.5</ele>
    <time>2014-02-21T09:46:07Z</time>
   </trkpt>
   <trkpt lat="32.6417320" lon="35.1145620">
    <ele>92.5</ele>
    <time>2014-02-21T09:46:08Z</time>
   </trkpt>
   <trkpt lat="32.6416890" lon="35.1145580">
    <ele>92.7</ele>
    <time>2014-02-21T09:46:09Z</time>
   </trkpt>
   <trkpt lat="32.6416420" lon="35.1145640">
    <ele>92.7</ele>
    <time>2014-02-21T09:46:10Z</time>
   </trkpt>
   <trkpt lat="32.6416000" lon="35.1145650">
    <ele>92.7</ele>
    <time>2014-02-21T09:46:11Z</time>
   </trkpt>
   <trkpt lat="32.6415570" lon="35.1145740">
    <ele>92.6</ele>
    <time>2014-02-21T09:46:12Z</time>
   </trkpt>
   <trkpt lat="32.6415210" lon="35.1145620">
    <ele>93.0</ele>
    <time>2014-02-21T09:46:13Z</time>
   </trkpt>
   <trkpt lat="32.6414850" lon="35.1145620">
    <ele>93.1</ele>
    <time>2014-02-21T09:46:14Z</time>
   </trkpt>
   <trkpt lat="32.6414450" lon="35.1145750">
    <ele>92.8</ele>
    <time>2014-02-21T09:46:15Z</time>
   </trkpt>
   <trkpt lat="32.6414170" lon="35.1145740">
    <ele>92.9</ele>
    <time>2014-02-21T09:46:16Z</time>
   </trkpt>
   <trkpt lat="32.6413810" lon="35.1145850">
    <ele>92.6</ele>
    <time>2014-02-21T09:46:17Z</time>
   </trkpt>
   <trkpt lat="32.6413450" lon="35.1145890">
    <ele>92.6</ele>
    <time>2014-02-21T09:46:18Z</time>
   </trkpt>
   <trkpt lat="32.6413120" lon="35.1145940">
    <ele>92.6</ele>
    <time>2014-02-21T09:46:19Z</time>
   </trkpt>
   <trkpt lat="32.6412780" lon="35.1145980">
    <ele>92.6</ele>
    <time>2014-02-21T09:46:20Z</time>
   </trkpt>
   <trkpt lat="32.6412460" lon="35.1146010">
    <ele>92.5</ele>
    <time>2014-02-21T09:46:21Z</time>
   </trkpt>
   <trkpt lat="32.6412130" lon="35.1146040">
    <ele>92.1</ele>
    <time>2014-02-21T09:46:22Z</time>
   </trkpt>
   <trkpt lat="32.6411800" lon="35.1146070">
    <ele>91.7</ele>
    <time>2014-02-21T09:46:23Z</time>
   </trkpt>
   <trkpt lat="32.6411460" lon="35.1146060">
    <ele>91.4</ele>
    <time>2014-02-21T09:46:24Z</time>
   </trkpt>
   <trkpt lat="32.6411120" lon="35.1146060">
    <ele>91.0</ele>
    <time>2014-02-21T09:46:25Z</time>
   </trkpt>
   <trkpt lat="32.6410770" lon="35.1146010">
    <ele>90.8</ele>
    <time>2014-02-21T09:46:26Z</time>
   </trkpt>
   <trkpt lat="32.6410430" lon="35.1145940">
    <ele>90.5</ele>
    <time>2014-02-21T09:46:27Z</time>
   </trkpt>
   <trkpt lat="32.6410100" lon="35.1145860">
    <ele>90.4</ele>
    <time>2014-02-21T09:46:28Z</time>
   </trkpt>
   <trkpt lat="32.6409770" lon="35.1145780">
    <ele>90.2</ele>
    <time>2014-02-21T09:46:29Z</time>
   </trkpt>
   <trkpt lat="32.6409440" lon="35.1145720">
    <ele>90.0</ele>
    <time>2014-02-21T09:46:30Z</time>
   </trkpt>
   <trkpt lat="32.6409130" lon="35.1145640">
    <ele>89.9</ele>
    <time>2014-02-21T09:46:31Z</time>
   </trkpt>
   <trkpt lat="32.6408850" lon="35.1145550">
    <ele>89.8</ele>
    <time>2014-02-21T09:46:32Z</time>
   </trkpt>
   <trkpt lat="32.6408310" lon="35.1145450">
    <ele>89.4</ele>
    <time>2014-02-21T09:46:34Z</time>
   </trkpt>
   <trkpt lat="32.6408000" lon="35.1145440">
    <ele>89.1</ele>
    <time>2014-02-21T09:46:35Z</time>
   </trkpt>
   <trkpt lat="32.6407690" lon="35.1145430">
    <ele>88.8</ele>
    <time>2014-02-21T09:46:36Z</time>
   </trkpt>
   <trkpt lat="32.6407350" lon="35.1145370">
    <ele>88.5</ele>
    <time>2014-02-21T09:46:37Z</time>
   </trkpt>
   <trkpt lat="32.6407060" lon="35.1145300">
    <ele>88.3</ele>
    <time>2014-02-21T09:46:38Z</time>
   </trkpt>
   <trkpt lat="32.6406790" lon="35.1145220">
    <ele>88.2</ele>
    <time>2014-02-21T09:46:39Z</time>
   </trkpt>
   <trkpt lat="32.6406330" lon="35.1144910">
    <ele>88.3</ele>
    <time>2014-02-21T09:46:41Z</time>
   </trkpt>
   <trkpt lat="32.6405930" lon="35.1144520">
    <ele>88.6</ele>
    <time>2014-02-21T09:46:43Z</time>
   </trkpt>
   <trkpt lat="32.6405770" lon="35.1144260">
    <ele>89.0</ele>
    <time>2014-02-21T09:46:44Z</time>
   </trkpt>
   <trkpt lat="32.6405630" lon="35.1143970">
    <ele>89.4</ele>
    <time>2014-02-21T09:46:45Z</time>
   </trkpt>
   <trkpt lat="32.6405520" lon="35.1143680">
    <ele>89.8</ele>
    <time>2014-02-21T09:46:46Z</time>
   </trkpt>
   <trkpt lat="32.6405400" lon="35.1143380">
    <ele>90.2</ele>
    <time>2014-02-21T09:46:47Z</time>
   </trkpt>
   <trkpt lat="32.6405280" lon="35.1143070">
    <ele>90.7</ele>
    <time>2014-02-21T09:46:48Z</time>
   </trkpt>
   <trkpt lat="32.6405120" lon="35.1142790">
    <ele>91.0</ele>
    <time>2014-02-21T09:46:49Z</time>
   </trkpt>
   <trkpt lat="32.6404940" lon="35.1142540">
    <ele>91.2</ele>
    <time>2014-02-21T09:46:50Z</time>
   </trkpt>
   <trkpt lat="32.6404780" lon="35.1142280">
    <ele>91.4</ele>
    <time>2014-02-21T09:46:51Z</time>
   </trkpt>
   <trkpt lat="32.6404500" lon="35.1141840">
    <ele>91.8</ele>
    <time>2014-02-21T09:46:53Z</time>
   </trkpt>
   <trkpt lat="32.6404090" lon="35.1141530">
    <ele>91.6</ele>
    <time>2014-02-21T09:46:55Z</time>
   </trkpt>
   <trkpt lat="32.6403560" lon="35.1141360">
    <ele>91.1</ele>
    <time>2014-02-21T09:46:57Z</time>
   </trkpt>
   <trkpt lat="32.6403290" lon="35.1141270">
    <ele>90.9</ele>
    <time>2014-02-21T09:46:58Z</time>
   </trkpt>
   <trkpt lat="32.6403060" lon="35.1141110">
    <ele>90.8</ele>
    <time>2014-02-21T09:46:59Z</time>
   </trkpt>
   <trkpt lat="32.6402700" lon="35.1140650">
    <ele>90.9</ele>
    <time>2014-02-21T09:47:01Z</time>
   </trkpt>
   <trkpt lat="32.6402550" lon="35.1140370">
    <ele>91.1</ele>
    <time>2014-02-21T09:47:02Z</time>
   </trkpt>
   <trkpt lat="32.6402410" lon="35.1140070">
    <ele>91.3</ele>
    <time>2014-02-21T09:47:03Z</time>
   </trkpt>
   <trkpt lat="32.6402280" lon="35.1139750">
    <ele>91.5</ele>
    <time>2014-02-21T09:47:04Z</time>
   </trkpt>
   <trkpt lat="32.6402140" lon="35.1139450">
    <ele>91.7</ele>
    <time>2014-02-21T09:47:05Z</time>
   </trkpt>
   <trkpt lat="32.6401990" lon="35.1139160">
    <ele>91.8</ele>
    <time>2014-02-21T09:47:06Z</time>
   </trkpt>
   <trkpt lat="32.6401830" lon="35.1138870">
    <ele>91.9</ele>
    <time>2014-02-21T09:47:07Z</time>
   </trkpt>
   <trkpt lat="32.6401630" lon="35.1138580">
    <ele>91.8</ele>
    <time>2014-02-21T09:47:08Z</time>
   </trkpt>
   <trkpt lat="32.6401270" lon="35.1138230">
    <ele>91.5</ele>
    <time>2014-02-21T09:47:09Z</time>
   </trkpt>
   <trkpt lat="32.6400870" lon="35.1137940">
    <ele>91.0</ele>
    <time>2014-02-21T09:47:10Z</time>
   </trkpt>
   <trkpt lat="32.6400470" lon="35.1137640">
    <ele>90.4</ele>
    <time>2014-02-21T09:47:11Z</time>
   </trkpt>
   <trkpt lat="32.6400130" lon="35.1137300">
    <ele>90.1</ele>
    <time>2014-02-21T09:47:12Z</time>
   </trkpt>
   <trkpt lat="32.6399830" lon="35.1136950">
    <ele>89.9</ele>
    <time>2014-02-21T09:47:13Z</time>
   </trkpt>
   <trkpt lat="32.6399590" lon="35.1136550">
    <ele>89.8</ele>
    <time>2014-02-21T09:47:14Z</time>
   </trkpt>
   <trkpt lat="32.6399350" lon="35.1136170">
    <ele>89.8</ele>
    <time>2014-02-21T09:47:15Z</time>
   </trkpt>
   <trkpt lat="32.6399120" lon="35.1135780">
    <ele>89.7</ele>
    <time>2014-02-21T09:47:16Z</time>
   </trkpt>
   <trkpt lat="32.6398880" lon="35.1135410">
    <ele>89.6</ele>
    <time>2014-02-21T09:47:17Z</time>
   </trkpt>
   <trkpt lat="32.6398670" lon="35.1135040">
    <ele>89.5</ele>
    <time>2014-02-21T09:47:18Z</time>
   </trkpt>
   <trkpt lat="32.6398570" lon="35.1134670">
    <ele>89.7</ele>
    <time>2014-02-21T09:47:19Z</time>
   </trkpt>
   <trkpt lat="32.6398520" lon="35.1134310">
    <ele>90.1</ele>
    <time>2014-02-21T09:47:20Z</time>
   </trkpt>
   <trkpt lat="32.6398510" lon="35.1133970">
    <ele>90.4</ele>
    <time>2014-02-21T09:47:21Z</time>
   </trkpt>
   <trkpt lat="32.6398480" lon="35.1133630">
    <ele>90.8</ele>
    <time>2014-02-21T09:47:22Z</time>
   </trkpt>
   <trkpt lat="32.6398470" lon="35.1133300">
    <ele>91.2</ele>
    <time>2014-02-21T09:47:23Z</time>
   </trkpt>
   <trkpt lat="32.6398390" lon="35.1132890">
    <ele>91.4</ele>
    <time>2014-02-21T09:47:25Z</time>
   </trkpt>
   <trkpt lat="32.6398100" lon="35.1132580">
    <ele>91.0</ele>
    <time>2014-02-21T09:47:27Z</time>
   </trkpt>
   <trkpt lat="32.6397690" lon="35.1132220">
    <ele>90.3</ele>
    <time>2014-02-21T09:47:29Z</time>
   </trkpt>
   <trkpt lat="32.6397470" lon="35.1132010">
    <ele>89.9</ele>
    <time>2014-02-21T09:47:30Z</time>
   </trkpt>
   <trkpt lat="32.6397260" lon="35.1131600">
    <ele>89.8</ele>
    <time>2014-02-21T09:47:32Z</time>
   </trkpt>
   <trkpt lat="32.6397140" lon="35.1131100">
    <ele>90.0</ele>
    <time>2014-02-21T09:47:34Z</time>
   </trkpt>
   <trkpt lat="32.6397000" lon="35.1130480">
    <ele>90.2</ele>
    <time>2014-02-21T09:47:36Z</time>
   </trkpt>
   <trkpt lat="32.6396890" lon="35.1130140">
    <ele>90.3</ele>
    <time>2014-02-21T09:47:37Z</time>
   </trkpt>
   <trkpt lat="32.6396710" lon="35.1129830">
    <ele>90.0</ele>
    <time>2014-02-21T09:47:38Z</time>
   </trkpt>
   <trkpt lat="32.6396520" lon="35.1129520">
    <ele>89.8</ele>
    <time>2014-02-21T09:47:39Z</time>
   </trkpt>
   <trkpt lat="32.6396370" lon="35.1129160">
    <ele>89.7</ele>
    <time>2014-02-21T09:47:40Z</time>
   </trkpt>
   <trkpt lat="32.6396310" lon="35.1128780">
    <ele>90.4</ele>
    <time>2014-02-21T09:47:41Z</time>
   </trkpt>
   <trkpt lat="32.6396290" lon="35.1128420">
    <ele>91.1</ele>
    <time>2014-02-21T09:47:42Z</time>
   </trkpt>
   <trkpt lat="32.6396330" lon="35.1128070">
    <ele>92.0</ele>
    <time>2014-02-21T09:47:43Z</time>
   </trkpt>
   <trkpt lat="32.6396350" lon="35.1127710">
    <ele>92.9</ele>
    <time>2014-02-21T09:47:44Z</time>
   </trkpt>
   <trkpt lat="32.6396360" lon="35.1127330">
    <ele>93.7</ele>
    <time>2014-02-21T09:47:45Z</time>
   </trkpt>
   <trkpt lat="32.6396340" lon="35.1126930">
    <ele>94.6</ele>
    <time>2014-02-21T09:47:46Z</time>
   </trkpt>
   <trkpt lat="32.6396270" lon="35.1126530">
    <ele>95.3</ele>
    <time>2014-02-21T09:47:47Z</time>
   </trkpt>
   <trkpt lat="32.6396150" lon="35.1126140">
    <ele>95.8</ele>
    <time>2014-02-21T09:47:48Z</time>
   </trkpt>
   <trkpt lat="32.6395980" lon="35.1125750">
    <ele>96.2</ele>
    <time>2014-02-21T09:47:49Z</time>
   </trkpt>
   <trkpt lat="32.6395780" lon="35.1125360">
    <ele>96.6</ele>
    <time>2014-02-21T09:47:50Z</time>
   </trkpt>
   <trkpt lat="32.6395520" lon="35.1125010">
    <ele>97.1</ele>
    <time>2014-02-21T09:47:51Z</time>
   </trkpt>
   <trkpt lat="32.6395250" lon="35.1124670">
    <ele>97.5</ele>
    <time>2014-02-21T09:47:52Z</time>
   </trkpt>
   <trkpt lat="32.6395000" lon="35.1124320">
    <ele>98.0</ele>
    <time>2014-02-21T09:47:53Z</time>
   </trkpt>
   <trkpt lat="32.6394800" lon="35.1123950">
    <ele>98.5</ele>
    <time>2014-02-21T09:47:54Z</time>
   </trkpt>
   <trkpt lat="32.6394620" lon="35.1123570">
    <ele>99.2</ele>
    <time>2014-02-21T09:47:55Z</time>
   </trkpt>
   <trkpt lat="32.6394420" lon="35.1123240">
    <ele>99.6</ele>
    <time>2014-02-21T09:47:56Z</time>
   </trkpt>
   <trkpt lat="32.6394190" lon="35.1122930">
    <ele>100.0</ele>
    <time>2014-02-21T09:47:57Z</time>
   </trkpt>
   <trkpt lat="32.6393980" lon="35.1122630">
    <ele>100.4</ele>
    <time>2014-02-21T09:47:58Z</time>
   </trkpt>
   <trkpt lat="32.6393780" lon="35.1122320">
    <ele>100.8</ele>
    <time>2014-02-21T09:47:59Z</time>
   </trkpt>
   <trkpt lat="32.6393550" lon="35.1122020">
    <ele>101.1</ele>
    <time>2014-02-21T09:48:00Z</time>
   </trkpt>
   <trkpt lat="32.6393230" lon="35.1121740">
    <ele>101.3</ele>
    <time>2014-02-21T09:48:01Z</time>
   </trkpt>
   <trkpt lat="32.6392870" lon="35.1121490">
    <ele>101.3</ele>
    <time>2014-02-21T09:48:02Z</time>
   </trkpt>
   <trkpt lat="32.6392500" lon="35.1121240">
    <ele>101.3</ele>
    <time>2014-02-21T09:48:03Z</time>
   </trkpt>
   <trkpt lat="32.6392130" lon="35.1121000">
    <ele>101.3</ele>
    <time>2014-02-21T09:48:04Z</time>
   </trkpt>
   <trkpt lat="32.6391750" lon="35.1120770">
    <ele>101.3</ele>
    <time>2014-02-21T09:48:05Z</time>
   </trkpt>
   <trkpt lat="32.6391370" lon="35.1120540">
    <ele>101.6</ele>
    <time>2014-02-21T09:48:06Z</time>
   </trkpt>
   <trkpt lat="32.6390990" lon="35.1120290">
    <ele>102.0</ele>
    <time>2014-02-21T09:48:07Z</time>
   </trkpt>
   <trkpt lat="32.6390620" lon="35.1120080">
    <ele>102.2</ele>
    <time>2014-02-21T09:48:08Z</time>
   </trkpt>
   <trkpt lat="32.6390240" lon="35.1119880">
    <ele>102.3</ele>
    <time>2014-02-21T09:48:09Z</time>
   </trkpt>
   <trkpt lat="32.6389870" lon="35.1119690">
    <ele>102.5</ele>
    <time>2014-02-21T09:48:10Z</time>
   </trkpt>
   <trkpt lat="32.6389490" lon="35.1119540">
    <ele>102.4</ele>
    <time>2014-02-21T09:48:11Z</time>
   </trkpt>
   <trkpt lat="32.6389110" lon="35.1119400">
    <ele>102.4</ele>
    <time>2014-02-21T09:48:12Z</time>
   </trkpt>
   <trkpt lat="32.6388730" lon="35.1119250">
    <ele>102.3</ele>
    <time>2014-02-21T09:48:13Z</time>
   </trkpt>
   <trkpt lat="32.6388370" lon="35.1119090">
    <ele>102.4</ele>
    <time>2014-02-21T09:48:14Z</time>
   </trkpt>
   <trkpt lat="32.6387990" lon="35.1118960">
    <ele>102.3</ele>
    <time>2014-02-21T09:48:15Z</time>
   </trkpt>
   <trkpt lat="32.6387600" lon="35.1118850">
    <ele>102.1</ele>
    <time>2014-02-21T09:48:16Z</time>
   </trkpt>
   <trkpt lat="32.6387180" lon="35.1118730">
    <ele>101.9</ele>
    <time>2014-02-21T09:48:17Z</time>
   </trkpt>
   <trkpt lat="32.6386790" lon="35.1118590">
    <ele>101.8</ele>
    <time>2014-02-21T09:48:18Z</time>
   </trkpt>
   <trkpt lat="32.6386420" lon="35.1118420">
    <ele>101.9</ele>
    <time>2014-02-21T09:48:19Z</time>
   </trkpt>
   <trkpt lat="32.6386070" lon="35.1118260">
    <ele>101.9</ele>
    <time>2014-02-21T09:48:20Z</time>
   </trkpt>
   <trkpt lat="32.6385730" lon="35.1118100">
    <ele>101.9</ele>
    <time>2014-02-21T09:48:21Z</time>
   </trkpt>
   <trkpt lat="32.6385370" lon="35.1117960">
    <ele>101.8</ele>
    <time>2014-02-21T09:48:22Z</time>
   </trkpt>
   <trkpt lat="32.6385020" lon="35.1117830">
    <ele>101.7</ele>
    <time>2014-02-21T09:48:23Z</time>
   </trkpt>
   <trkpt lat="32.6384660" lon="35.1117700">
    <ele>101.5</ele>
    <time>2014-02-21T09:48:24Z</time>
   </trkpt>
   <trkpt lat="32.6384320" lon="35.1117590">
    <ele>101.3</ele>
    <time>2014-02-21T09:48:25Z</time>
   </trkpt>
   <trkpt lat="32.6384000" lon="35.1117470">
    <ele>101.1</ele>
    <time>2014-02-21T09:48:26Z</time>
   </trkpt>
   <trkpt lat="32.6383700" lon="35.1117380">
    <ele>100.9</ele>
    <time>2014-02-21T09:48:27Z</time>
   </trkpt>
   <trkpt lat="32.6383390" lon="35.1117290">
    <ele>100.7</ele>
    <time>2014-02-21T09:48:28Z</time>
   </trkpt>
   <trkpt lat="32.6383080" lon="35.1117200">
    <ele>100.4</ele>
    <time>2014-02-21T09:48:29Z</time>
   </trkpt>
   <trkpt lat="32.6382770" lon="35.1117120">
    <ele>100.1</ele>
    <time>2014-02-21T09:48:30Z</time>
   </trkpt>
   <trkpt lat="32.6382450" lon="35.1117020">
    <ele>99.8</ele>
    <time>2014-02-21T09:48:31Z</time>
   </trkpt>
   <trkpt lat="32.6382150" lon="35.1116870">
    <ele>99.7</ele>
    <time>2014-02-21T09:48:32Z</time>
   </trkpt>
   <trkpt lat="32.6381840" lon="35.1116730">
    <ele>99.5</ele>
    <time>2014-02-21T09:48:33Z</time>
   </trkpt>
   <trkpt lat="32.6381530" lon="35.1116610">
    <ele>99.2</ele>
    <time>2014-02-21T09:48:34Z</time>
   </trkpt>
   <trkpt lat="32.6381220" lon="35.1116500">
    <ele>99.0</ele>
    <time>2014-02-21T09:48:35Z</time>
   </trkpt>
   <trkpt lat="32.6380910" lon="35.1116390">
    <ele>98.7</ele>
    <time>2014-02-21T09:48:36Z</time>
   </trkpt>
   <trkpt lat="32.6380620" lon="35.1116240">
    <ele>98.5</ele>
    <time>2014-02-21T09:48:37Z</time>
   </trkpt>
   <trkpt lat="32.6380370" lon="35.1116060">
    <ele>98.4</ele>
    <time>2014-02-21T09:48:38Z</time>
   </trkpt>
   <trkpt lat="32.6380150" lon="35.1115810">
    <ele>98.5</ele>
    <time>2014-02-21T09:48:39Z</time>
   </trkpt>
   <trkpt lat="32.6379930" lon="35.1115560">
    <ele>98.6</ele>
    <time>2014-02-21T09:48:40Z</time>
   </trkpt>
   <trkpt lat="32.6379690" lon="35.1115330">
    <ele>98.6</ele>
    <time>2014-02-21T09:48:41Z</time>
   </trkpt>
   <trkpt lat="32.6379450" lon="35.1115150">
    <ele>98.5</ele>
    <time>2014-02-21T09:48:42Z</time>
   </trkpt>
   <trkpt lat="32.6379010" lon="35.1114760">
    <ele>98.6</ele>
    <time>2014-02-21T09:48:44Z</time>
   </trkpt>
   <trkpt lat="32.6378620" lon="35.1114340">
    <ele>99.1</ele>
    <time>2014-02-21T09:48:46Z</time>
   </trkpt>
   <trkpt lat="32.6378400" lon="35.1114130">
    <ele>99.3</ele>
    <time>2014-02-21T09:48:47Z</time>
   </trkpt>
   <trkpt lat="32.6378170" lon="35.1113900">
    <ele>99.6</ele>
    <time>2014-02-21T09:48:48Z</time>
   </trkpt>
   <trkpt lat="32.6377990" lon="35.1113620">
    <ele>99.9</ele>
    <time>2014-02-21T09:48:49Z</time>
   </trkpt>
   <trkpt lat="32.6377770" lon="35.1113350">
    <ele>100.2</ele>
    <time>2014-02-21T09:48:50Z</time>
   </trkpt>
   <trkpt lat="32.6377500" lon="35.1113110">
    <ele>100.4</ele>
    <time>2014-02-21T09:48:51Z</time>
   </trkpt>
   <trkpt lat="32.6377220" lon="35.1112860">
    <ele>100.5</ele>
    <time>2014-02-21T09:48:52Z</time>
   </trkpt>
   <trkpt lat="32.6376920" lon="35.1112620">
    <ele>100.7</ele>
    <time>2014-02-21T09:48:53Z</time>
   </trkpt>
   <trkpt lat="32.6376660" lon="35.1112350">
    <ele>100.8</ele>
    <time>2014-02-21T09:48:54Z</time>
   </trkpt>
   <trkpt lat="32.6376440" lon="35.1112090">
    <ele>100.9</ele>
    <time>2014-02-21T09:48:55Z</time>
   </trkpt>
   <trkpt lat="32.6376220" lon="35.1111820">
    <ele>100.9</ele>
    <time>2014-02-21T09:48:56Z</time>
   </trkpt>
   <trkpt lat="32.6376000" lon="35.1111540">
    <ele>101.0</ele>
    <time>2014-02-21T09:48:57Z</time>
   </trkpt>
   <trkpt lat="32.6375770" lon="35.1111260">
    <ele>101.1</ele>
    <time>2014-02-21T09:48:58Z</time>
   </trkpt>
   <trkpt lat="32.6375620" lon="35.1110970">
    <ele>101.2</ele>
    <time>2014-02-21T09:48:59Z</time>
   </trkpt>
   <trkpt lat="32.6375460" lon="35.1110700">
    <ele>101.3</ele>
    <time>2014-02-21T09:49:00Z</time>
   </trkpt>
   <trkpt lat="32.6375310" lon="35.1110430">
    <ele>101.4</ele>
    <time>2014-02-21T09:49:01Z</time>
   </trkpt>
   <trkpt lat="32.6375150" lon="35.1110160">
    <ele>101.4</ele>
    <time>2014-02-21T09:49:02Z</time>
   </trkpt>
   <trkpt lat="32.6374990" lon="35.1109880">
    <ele>101.5</ele>
    <time>2014-02-21T09:49:03Z</time>
   </trkpt>
   <trkpt lat="32.6374840" lon="35.1109590">
    <ele>101.6</ele>
    <time>2014-02-21T09:49:04Z</time>
   </trkpt>
   <trkpt lat="32.6374680" lon="35.1109300">
    <ele>101.6</ele>
    <time>2014-02-21T09:49:05Z</time>
   </trkpt>
   <trkpt lat="32.6374520" lon="35.1109020">
    <ele>101.6</ele>
    <time>2014-02-21T09:49:06Z</time>
   </trkpt>
   <trkpt lat="32.6374170" lon="35.1108580">
    <ele>101.5</ele>
    <time>2014-02-21T09:49:08Z</time>
   </trkpt>
   <trkpt lat="32.6373920" lon="35.1108360">
    <ele>101.3</ele>
    <time>2014-02-21T09:49:10Z</time>
   </trkpt>
   <trkpt lat="32.6373670" lon="35.1107980">
    <ele>101.2</ele>
    <time>2014-02-21T09:49:12Z</time>
   </trkpt>
   <trkpt lat="32.6373540" lon="35.1107690">
    <ele>101.2</ele>
    <time>2014-02-21T09:49:13Z</time>
   </trkpt>
   <trkpt lat="32.6373280" lon="35.1107140">
    <ele>101.2</ele>
    <time>2014-02-21T09:49:15Z</time>
   </trkpt>
   <trkpt lat="32.6373120" lon="35.1106880">
    <ele>101.1</ele>
    <time>2014-02-21T09:49:16Z</time>
   </trkpt>
   <trkpt lat="32.6372830" lon="35.1106420">
    <ele>100.9</ele>
    <time>2014-02-21T09:49:18Z</time>
   </trkpt>
   <trkpt lat="32.6372640" lon="35.1106060">
    <ele>100.7</ele>
    <time>2014-02-21T09:49:20Z</time>
   </trkpt>
   <trkpt lat="32.6372510" lon="35.1105720">
    <ele>100.7</ele>
    <time>2014-02-21T09:49:22Z</time>
   </trkpt>
   <trkpt lat="32.6372430" lon="35.1105390">
    <ele>100.7</ele>
    <time>2014-02-21T09:49:24Z</time>
   </trkpt>
   <trkpt lat="32.6372340" lon="35.1105070">
    <ele>100.7</ele>
    <time>2014-02-21T09:49:26Z</time>
   </trkpt>
   <trkpt lat="32.6372270" lon="35.1104740">
    <ele>100.8</ele>
    <time>2014-02-21T09:49:28Z</time>
   </trkpt>
   <trkpt lat="32.6372180" lon="35.1104440">
    <ele>100.8</ele>
    <time>2014-02-21T09:49:30Z</time>
   </trkpt>
   <trkpt lat="32.6372070" lon="35.1104120">
    <ele>100.7</ele>
    <time>2014-02-21T09:49:32Z</time>
   </trkpt>
   <trkpt lat="32.6371920" lon="35.1103760">
    <ele>100.6</ele>
    <time>2014-02-21T09:49:34Z</time>
   </trkpt>
   <trkpt lat="32.6371730" lon="35.1103360">
    <ele>100.4</ele>
    <time>2014-02-21T09:49:36Z</time>
   </trkpt>
   <trkpt lat="32.6371560" lon="35.1102970">
    <ele>100.3</ele>
    <time>2014-02-21T09:49:38Z</time>
   </trkpt>
   <trkpt lat="32.6371420" lon="35.1102610">
    <ele>100.2</ele>
    <time>2014-02-21T09:49:40Z</time>
   </trkpt>
   <trkpt lat="32.6371110" lon="35.1102570">
    <ele>99.6</ele>
    <time>2014-02-21T09:49:43Z</time>
   </trkpt>
   <trkpt lat="32.6370840" lon="35.1102690">
    <ele>98.9</ele>
    <time>2014-02-21T09:49:47Z</time>
   </trkpt>
   <trkpt lat="32.6370550" lon="35.1102580">
    <ele>99.0</ele>
    <time>2014-02-21T09:50:10Z</time>
   </trkpt>
   <trkpt lat="32.6370540" lon="35.1102220">
    <ele>99.3</ele>
    <time>2014-02-21T09:50:12Z</time>
   </trkpt>
   <trkpt lat="32.6370540" lon="35.1101810">
    <ele>99.5</ele>
    <time>2014-02-21T09:50:14Z</time>
   </trkpt>
   <trkpt lat="32.6370460" lon="35.1101270">
    <ele>99.9</ele>
    <time>2014-02-21T09:50:16Z</time>
   </trkpt>
   <trkpt lat="32.6370370" lon="35.1100750">
    <ele>100.3</ele>
    <time>2014-02-21T09:50:18Z</time>
   </trkpt>
   <trkpt lat="32.6370330" lon="35.1100280">
    <ele>100.6</ele>
    <time>2014-02-21T09:50:20Z</time>
   </trkpt>
   <trkpt lat="32.6370240" lon="35.1099800">
    <ele>101.0</ele>
    <time>2014-02-21T09:50:22Z</time>
   </trkpt>
   <trkpt lat="32.6370120" lon="35.1099300">
    <ele>101.5</ele>
    <time>2014-02-21T09:50:24Z</time>
   </trkpt>
   <trkpt lat="32.6370090" lon="35.1098830">
    <ele>101.8</ele>
    <time>2014-02-21T09:50:26Z</time>
   </trkpt>
   <trkpt lat="32.6370100" lon="35.1098330">
    <ele>102.1</ele>
    <time>2014-02-21T09:50:28Z</time>
   </trkpt>
   <trkpt lat="32.6370090" lon="35.1097850">
    <ele>102.5</ele>
    <time>2014-02-21T09:50:30Z</time>
   </trkpt>
   <trkpt lat="32.6370080" lon="35.1097350">
    <ele>102.8</ele>
    <time>2014-02-21T09:50:32Z</time>
   </trkpt>
   <trkpt lat="32.6370160" lon="35.1096840">
    <ele>103.1</ele>
    <time>2014-02-21T09:50:34Z</time>
   </trkpt>
   <trkpt lat="32.6370190" lon="35.1096320">
    <ele>103.4</ele>
    <time>2014-02-21T09:50:36Z</time>
   </trkpt>
   <trkpt lat="32.6370200" lon="35.1095820">
    <ele>103.8</ele>
    <time>2014-02-21T09:50:38Z</time>
   </trkpt>
   <trkpt lat="32.6370250" lon="35.1095310">
    <ele>103.9</ele>
    <time>2014-02-21T09:50:40Z</time>
   </trkpt>
   <trkpt lat="32.6370230" lon="35.1094820">
    <ele>104.1</ele>
    <time>2014-02-21T09:50:42Z</time>
   </trkpt>
   <trkpt lat="32.6370140" lon="35.1094360">
    <ele>104.3</ele>
    <time>2014-02-21T09:50:44Z</time>
   </trkpt>
   <trkpt lat="32.6370050" lon="35.1093930">
    <ele>104.6</ele>
    <time>2014-02-21T09:50:46Z</time>
   </trkpt>
   <trkpt lat="32.6370020" lon="35.1093510">
    <ele>104.8</ele>
    <time>2014-02-21T09:50:48Z</time>
   </trkpt>
   <trkpt lat="32.6370060" lon="35.1093120">
    <ele>104.9</ele>
    <time>2014-02-21T09:50:50Z</time>
   </trkpt>
   <trkpt lat="32.6370170" lon="35.1092730">
    <ele>104.9</ele>
    <time>2014-02-21T09:50:52Z</time>
   </trkpt>
   <trkpt lat="32.6370220" lon="35.1092350">
    <ele>104.9</ele>
    <time>2014-02-21T09:50:54Z</time>
   </trkpt>
   <trkpt lat="32.6370230" lon="35.1091930">
    <ele>105.0</ele>
    <time>2014-02-21T09:50:57Z</time>
   </trkpt>
   <trkpt lat="32.6370280" lon="35.1091540">
    <ele>105.1</ele>
    <time>2014-02-21T09:51:00Z</time>
   </trkpt>
   <trkpt lat="32.6370340" lon="35.1091130">
    <ele>105.1</ele>
    <time>2014-02-21T09:51:03Z</time>
   </trkpt>
   <trkpt lat="32.6370520" lon="35.1090800">
    <ele>104.8</ele>
    <time>2014-02-21T09:51:06Z</time>
   </trkpt>
   <trkpt lat="32.6370690" lon="35.1090490">
    <ele>104.6</ele>
    <time>2014-02-21T09:51:09Z</time>
   </trkpt>
   <trkpt lat="32.6370540" lon="35.1090200">
    <ele>105.0</ele>
    <time>2014-02-21T09:51:12Z</time>
   </trkpt>
   <trkpt lat="32.6370220" lon="35.1090080">
    <ele>105.7</ele>
    <time>2014-02-21T09:58:25Z</time>
   </trkpt>
   <trkpt lat="32.6370580" lon="35.1089730">
    <ele>105.0</ele>
    <time>2014-02-21T09:58:32Z</time>
   </trkpt>
   <trkpt lat="32.6370800" lon="35.1089450">
    <ele>104.6</ele>
    <time>2014-02-21T09:58:34Z</time>
   </trkpt>
   <trkpt lat="32.6371020" lon="35.1089120">
    <ele>105.0</ele>
    <time>2014-02-21T09:58:36Z</time>
   </trkpt>
   <trkpt lat="32.6371290" lon="35.1088680">
    <ele>105.6</ele>
    <time>2014-02-21T09:58:38Z</time>
   </trkpt>
   <trkpt lat="32.6371580" lon="35.1088180">
    <ele>106.2</ele>
    <time>2014-02-21T09:58:40Z</time>
   </trkpt>
   <trkpt lat="32.6371900" lon="35.1087760">
    <ele>106.9</ele>
    <time>2014-02-21T09:58:42Z</time>
   </trkpt>
   <trkpt lat="32.6372190" lon="35.1087350">
    <ele>107.5</ele>
    <time>2014-02-21T09:58:44Z</time>
   </trkpt>
   <trkpt lat="32.6372370" lon="35.1086870">
    <ele>107.8</ele>
    <time>2014-02-21T09:58:46Z</time>
   </trkpt>
   <trkpt lat="32.6372490" lon="35.1086400">
    <ele>108.0</ele>
    <time>2014-02-21T09:58:48Z</time>
   </trkpt>
   <trkpt lat="32.6372590" lon="35.1086010">
    <ele>108.2</ele>
    <time>2014-02-21T09:58:50Z</time>
   </trkpt>
   <trkpt lat="32.6372710" lon="35.1085650">
    <ele>108.4</ele>
    <time>2014-02-21T09:58:52Z</time>
   </trkpt>
   <trkpt lat="32.6372850" lon="35.1085230">
    <ele>108.6</ele>
    <time>2014-02-21T09:58:54Z</time>
   </trkpt>
   <trkpt lat="32.6372990" lon="35.1084820">
    <ele>108.8</ele>
    <time>2014-02-21T09:58:56Z</time>
   </trkpt>
   <trkpt lat="32.6373150" lon="35.1084450">
    <ele>109.0</ele>
    <time>2014-02-21T09:58:58Z</time>
   </trkpt>
   <trkpt lat="32.6373320" lon="35.1084100">
    <ele>109.2</ele>
    <time>2014-02-21T09:59:00Z</time>
   </trkpt>
   <trkpt lat="32.6373510" lon="35.1083750">
    <ele>109.4</ele>
    <time>2014-02-21T09:59:02Z</time>
   </trkpt>
   <trkpt lat="32.6373680" lon="35.1083390">
    <ele>109.6</ele>
    <time>2014-02-21T09:59:04Z</time>
   </trkpt>
   <trkpt lat="32.6373850" lon="35.1083020">
    <ele>109.8</ele>
    <time>2014-02-21T09:59:06Z</time>
   </trkpt>
   <trkpt lat="32.6374040" lon="35.1082670">
    <ele>109.9</ele>
    <time>2014-02-21T09:59:08Z</time>
   </trkpt>
   <trkpt lat="32.6374250" lon="35.1082310">
    <ele>110.1</ele>
    <time>2014-02-21T09:59:10Z</time>
   </trkpt>
   <trkpt lat="32.6374460" lon="35.1081910">
    <ele>110.2</ele>
    <time>2014-02-21T09:59:12Z</time>
   </trkpt>
   <trkpt lat="32.6374690" lon="35.1081480">
    <ele>110.4</ele>
    <time>2014-02-21T09:59:14Z</time>
   </trkpt>
   <trkpt lat="32.6374940" lon="35.1081050">
    <ele>110.5</ele>
    <time>2014-02-21T09:59:16Z</time>
   </trkpt>
   <trkpt lat="32.6375180" lon="35.1080650">
    <ele>110.6</ele>
    <time>2014-02-21T09:59:18Z</time>
   </trkpt>
   <trkpt lat="32.6375410" lon="35.1080270">
    <ele>110.7</ele>
    <time>2014-02-21T09:59:20Z</time>
   </trkpt>
   <trkpt lat="32.6375620" lon="35.1079890">
    <ele>110.7</ele>
    <time>2014-02-21T09:59:22Z</time>
   </trkpt>
   <trkpt lat="32.6375810" lon="35.1079510">
    <ele>110.7</ele>
    <time>2014-02-21T09:59:24Z</time>
   </trkpt>
   <trkpt lat="32.6376010" lon="35.1079130">
    <ele>110.7</ele>
    <time>2014-02-21T09:59:26Z</time>
   </trkpt>
   <trkpt lat="32.6376200" lon="35.1078740">
    <ele>111.0</ele>
    <time>2014-02-21T09:59:28Z</time>
   </trkpt>
   <trkpt lat="32.6376400" lon="35.1078340">
    <ele>111.2</ele>
    <time>2014-02-21T09:59:30Z</time>
   </trkpt>
   <trkpt lat="32.6376590" lon="35.1077940">
    <ele>111.4</ele>
    <time>2014-02-21T09:59:32Z</time>
   </trkpt>
   <trkpt lat="32.6376820" lon="35.1077550">
    <ele>111.6</ele>
    <time>2014-02-21T09:59:34Z</time>
   </trkpt>
   <trkpt lat="32.6377060" lon="35.1077160">
    <ele>111.7</ele>
    <time>2014-02-21T09:59:36Z</time>
   </trkpt>
   <trkpt lat="32.6377300" lon="35.1076750">
    <ele>111.9</ele>
    <time>2014-02-21T09:59:38Z</time>
   </trkpt>
   <trkpt lat="32.6377560" lon="35.1076360">
    <ele>111.9</ele>
    <time>2014-02-21T09:59:40Z</time>
   </trkpt>
   <trkpt lat="32.6377790" lon="35.1075950">
    <ele>112.0</ele>
    <time>2014-02-21T09:59:42Z</time>
   </trkpt>
   <trkpt lat="32.6378040" lon="35.1075540">
    <ele>112.0</ele>
    <time>2014-02-21T09:59:44Z</time>
   </trkpt>
   <trkpt lat="32.6378260" lon="35.1075130">
    <ele>112.0</ele>
    <time>2014-02-21T09:59:46Z</time>
   </trkpt>
   <trkpt lat="32.6378470" lon="35.1074730">
    <ele>112.0</ele>
    <time>2014-02-21T09:59:48Z</time>
   </trkpt>
   <trkpt lat="32.6378700" lon="35.1074320">
    <ele>111.9</ele>
    <time>2014-02-21T09:59:50Z</time>
   </trkpt>
   <trkpt lat="32.6378930" lon="35.1073950">
    <ele>111.8</ele>
    <time>2014-02-21T09:59:52Z</time>
   </trkpt>
   <trkpt lat="32.6379150" lon="35.1073580">
    <ele>111.7</ele>
    <time>2014-02-21T09:59:54Z</time>
   </trkpt>
   <trkpt lat="32.6379370" lon="35.1073210">
    <ele>112.1</ele>
    <time>2014-02-21T09:59:56Z</time>
   </trkpt>
   <trkpt lat="32.6379600" lon="35.1072840">
    <ele>112.5</ele>
    <time>2014-02-21T09:59:58Z</time>
   </trkpt>
   <trkpt lat="32.6379830" lon="35.1072460">
    <ele>112.9</ele>
    <time>2014-02-21T10:00:00Z</time>
   </trkpt>
   <trkpt lat="32.6380030" lon="35.1072060">
    <ele>113.2</ele>
    <time>2014-02-21T10:00:02Z</time>
   </trkpt>
   <trkpt lat="32.6380250" lon="35.1071650">
    <ele>113.5</ele>
    <time>2014-02-21T10:00:04Z</time>
   </trkpt>
   <trkpt lat="32.6380460" lon="35.1071260">
    <ele>113.8</ele>
    <time>2014-02-21T10:00:06Z</time>
   </trkpt>
   <trkpt lat="32.6380670" lon="35.1070850">
    <ele>114.1</ele>
    <time>2014-02-21T10:00:08Z</time>
   </trkpt>
   <trkpt lat="32.6380890" lon="35.1070430">
    <ele>114.5</ele>
    <time>2014-02-21T10:00:10Z</time>
   </trkpt>
   <trkpt lat="32.6381180" lon="35.1069940">
    <ele>115.0</ele>
    <time>2014-02-21T10:00:12Z</time>
   </trkpt>
   <trkpt lat="32.6381330" lon="35.1069660">
    <ele>115.3</ele>
    <time>2014-02-21T10:00:13Z</time>
   </trkpt>
   <trkpt lat="32.6381580" lon="35.1069130">
    <ele>115.7</ele>
    <time>2014-02-21T10:00:15Z</time>
   </trkpt>
   <trkpt lat="32.6381760" lon="35.1068640">
    <ele>115.9</ele>
    <time>2014-02-21T10:00:17Z</time>
   </trkpt>
   <trkpt lat="32.6381920" lon="35.1068250">
    <ele>116.1</ele>
    <time>2014-02-21T10:00:19Z</time>
   </trkpt>
   <trkpt lat="32.6382150" lon="35.1067940">
    <ele>116.4</ele>
    <time>2014-02-21T10:00:21Z</time>
   </trkpt>
   <trkpt lat="32.6382280" lon="35.1067610">
    <ele>116.5</ele>
    <time>2014-02-21T10:00:23Z</time>
   </trkpt>
   <trkpt lat="32.6382380" lon="35.1067240">
    <ele>116.6</ele>
    <time>2014-02-21T10:00:25Z</time>
   </trkpt>
   <trkpt lat="32.6382520" lon="35.1066930">
    <ele>116.7</ele>
    <time>2014-02-21T10:00:27Z</time>
   </trkpt>
   <trkpt lat="32.6382710" lon="35.1066590">
    <ele>116.9</ele>
    <time>2014-02-21T10:00:29Z</time>
   </trkpt>
   <trkpt lat="32.6382900" lon="35.1066230">
    <ele>117.0</ele>
    <time>2014-02-21T10:00:31Z</time>
   </trkpt>
   <trkpt lat="32.6383050" lon="35.1065860">
    <ele>117.1</ele>
    <time>2014-02-21T10:00:33Z</time>
   </trkpt>
   <trkpt lat="32.6383270" lon="35.1065550">
    <ele>117.2</ele>
    <time>2014-02-21T10:00:35Z</time>
   </trkpt>
   <trkpt lat="32.6383550" lon="35.1065260">
    <ele>117.4</ele>
    <time>2014-02-21T10:00:37Z</time>
   </trkpt>
   <trkpt lat="32.6383800" lon="35.1064910">
    <ele>117.5</ele>
    <time>2014-02-21T10:00:39Z</time>
   </trkpt>
   <trkpt lat="32.6384010" lon="35.1064540">
    <ele>117.6</ele>
    <time>2014-02-21T10:00:41Z</time>
   </trkpt>
   <trkpt lat="32.6384250" lon="35.1064160">
    <ele>117.6</ele>
    <time>2014-02-21T10:00:43Z</time>
   </trkpt>
   <trkpt lat="32.6384500" lon="35.1063770">
    <ele>117.6</ele>
    <time>2014-02-21T10:00:45Z</time>
   </trkpt>
   <trkpt lat="32.6384740" lon="35.1063400">
    <ele>117.6</ele>
    <time>2014-02-21T10:00:47Z</time>
   </trkpt>
   <trkpt lat="32.6385020" lon="35.1063020">
    <ele>117.6</ele>
    <time>2014-02-21T10:00:49Z</time>
   </trkpt>
   <trkpt lat="32.6385310" lon="35.1062630">
    <ele>117.5</ele>
    <time>2014-02-21T10:00:51Z</time>
   </trkpt>
   <trkpt lat="32.6385590" lon="35.1062240">
    <ele>117.6</ele>
    <time>2014-02-21T10:00:53Z</time>
   </trkpt>
   <trkpt lat="32.6385890" lon="35.1061860">
    <ele>117.8</ele>
    <time>2014-02-21T10:00:55Z</time>
   </trkpt>
   <trkpt lat="32.6386190" lon="35.1061480">
    <ele>118.0</ele>
    <time>2014-02-21T10:00:57Z</time>
   </trkpt>
   <trkpt lat="32.6386470" lon="35.1061170">
    <ele>118.1</ele>
    <time>2014-02-21T10:00:59Z</time>
   </trkpt>
   <trkpt lat="32.6386740" lon="35.1060900">
    <ele>118.2</ele>
    <time>2014-02-21T10:01:01Z</time>
   </trkpt>
   <trkpt lat="32.6387050" lon="35.1060610">
    <ele>118.3</ele>
    <time>2014-02-21T10:01:03Z</time>
   </trkpt>
   <trkpt lat="32.6387360" lon="35.1060320">
    <ele>118.4</ele>
    <time>2014-02-21T10:01:05Z</time>
   </trkpt>
   <trkpt lat="32.6387680" lon="35.1060050">
    <ele>118.7</ele>
    <time>2014-02-21T10:01:07Z</time>
   </trkpt>
   <trkpt lat="32.6388040" lon="35.1059790">
    <ele>119.3</ele>
    <time>2014-02-21T10:01:09Z</time>
   </trkpt>
   <trkpt lat="32.6388390" lon="35.1059480">
    <ele>119.9</ele>
    <time>2014-02-21T10:01:11Z</time>
   </trkpt>
   <trkpt lat="32.6388680" lon="35.1059150">
    <ele>120.3</ele>
    <time>2014-02-21T10:01:13Z</time>
   </trkpt>
   <trkpt lat="32.6389010" lon="35.1058870">
    <ele>120.7</ele>
    <time>2014-02-21T10:01:15Z</time>
   </trkpt>
   <trkpt lat="32.6389290" lon="35.1058630">
    <ele>121.1</ele>
    <time>2014-02-21T10:01:17Z</time>
   </trkpt>
   <trkpt lat="32.6389470" lon="35.1058320">
    <ele>121.3</ele>
    <time>2014-02-21T10:01:20Z</time>
   </trkpt>
   <trkpt lat="32.6389740" lon="35.1058070">
    <ele>121.6</ele>
    <time>2014-02-21T10:01:23Z</time>
   </trkpt>
   <trkpt lat="32.6389970" lon="35.1057860">
    <ele>121.9</ele>
    <time>2014-02-21T10:01:25Z</time>
   </trkpt>
   <trkpt lat="32.6390200" lon="35.1057650">
    <ele>122.2</ele>
    <time>2014-02-21T10:01:27Z</time>
   </trkpt>
   <trkpt lat="32.6390450" lon="35.1057470">
    <ele>122.5</ele>
    <time>2014-02-21T10:01:29Z</time>
   </trkpt>
   <trkpt lat="32.6390710" lon="35.1057280">
    <ele>122.8</ele>
    <time>2014-02-21T10:01:31Z</time>
   </trkpt>
   <trkpt lat="32.6391080" lon="35.1057000">
    <ele>123.3</ele>
    <time>2014-02-21T10:01:33Z</time>
   </trkpt>
   <trkpt lat="32.6391440" lon="35.1056760">
    <ele>123.7</ele>
    <time>2014-02-21T10:01:35Z</time>
   </trkpt>
   <trkpt lat="32.6391740" lon="35.1056500">
    <ele>124.0</ele>
    <time>2014-02-21T10:01:37Z</time>
   </trkpt>
   <trkpt lat="32.6391980" lon="35.1056230">
    <ele>124.2</ele>
    <time>2014-02-21T10:01:39Z</time>
   </trkpt>
   <trkpt lat="32.6392230" lon="35.1055980">
    <ele>124.4</ele>
    <time>2014-02-21T10:01:41Z</time>
   </trkpt>
   <trkpt lat="32.6392450" lon="35.1055680">
    <ele>124.5</ele>
    <time>2014-02-21T10:01:43Z</time>
   </trkpt>
   <trkpt lat="32.6392690" lon="35.1055360">
    <ele>124.7</ele>
    <time>2014-02-21T10:01:45Z</time>
   </trkpt>
   <trkpt lat="32.6393000" lon="35.1055060">
    <ele>124.9</ele>
    <time>2014-02-21T10:01:47Z</time>
   </trkpt>
   <trkpt lat="32.6393260" lon="35.1054680">
    <ele>125.0</ele>
    <time>2014-02-21T10:01:49Z</time>
   </trkpt>
   <trkpt lat="32.6393530" lon="35.1054300">
    <ele>125.1</ele>
    <time>2014-02-21T10:01:51Z</time>
   </trkpt>
   <trkpt lat="32.6393770" lon="35.1053890">
    <ele>125.1</ele>
    <time>2014-02-21T10:01:53Z</time>
   </trkpt>
   <trkpt lat="32.6394000" lon="35.1053550">
    <ele>125.2</ele>
    <time>2014-02-21T10:01:55Z</time>
   </trkpt>
   <trkpt lat="32.6394220" lon="35.1053220">
    <ele>125.3</ele>
    <time>2014-02-21T10:01:57Z</time>
   </trkpt>
   <trkpt lat="32.6394410" lon="35.1052850">
    <ele>125.2</ele>
    <time>2014-02-21T10:01:59Z</time>
   </trkpt>
   <trkpt lat="32.6394660" lon="35.1052470">
    <ele>125.3</ele>
    <time>2014-02-21T10:02:01Z</time>
   </trkpt>
   <trkpt lat="32.6394840" lon="35.1052050">
    <ele>125.2</ele>
    <time>2014-02-21T10:02:03Z</time>
   </trkpt>
   <trkpt lat="32.6395020" lon="35.1051600">
    <ele>125.0</ele>
    <time>2014-02-21T10:02:05Z</time>
   </trkpt>
   <trkpt lat="32.6395230" lon="35.1051180">
    <ele>124.9</ele>
    <time>2014-02-21T10:02:07Z</time>
   </trkpt>
   <trkpt lat="32.6395390" lon="35.1050710">
    <ele>124.7</ele>
    <time>2014-02-21T10:02:09Z</time>
   </trkpt>
   <trkpt lat="32.6395520" lon="35.1050170">
    <ele>124.4</ele>
    <time>2014-02-21T10:02:11Z</time>
   </trkpt>
   <trkpt lat="32.6395630" lon="35.1049690">
    <ele>124.1</ele>
    <time>2014-02-21T10:02:13Z</time>
   </trkpt>
   <trkpt lat="32.6395720" lon="35.1049320">
    <ele>123.8</ele>
    <time>2014-02-21T10:02:15Z</time>
   </trkpt>
   <trkpt lat="32.6395750" lon="35.1048900">
    <ele>123.5</ele>
    <time>2014-02-21T10:02:18Z</time>
   </trkpt>
   <trkpt lat="32.6395840" lon="35.1048530">
    <ele>123.3</ele>
    <time>2014-02-21T10:02:20Z</time>
   </trkpt>
   <trkpt lat="32.6396000" lon="35.1048170">
    <ele>123.4</ele>
    <time>2014-02-21T10:02:22Z</time>
   </trkpt>
   <trkpt lat="32.6396060" lon="35.1047830">
    <ele>123.3</ele>
    <time>2014-02-21T10:02:24Z</time>
   </trkpt>
   <trkpt lat="32.6395970" lon="35.1047530">
    <ele>122.8</ele>
    <time>2014-02-21T10:02:58Z</time>
   </trkpt>
   <trkpt lat="32.6396240" lon="35.1047450">
    <ele>123.4</ele>
    <time>2014-02-21T10:03:04Z</time>
   </trkpt>
   <trkpt lat="32.6395990" lon="35.1047130">
    <ele>122.5</ele>
    <time>2014-02-21T10:03:36Z</time>
   </trkpt>
   <trkpt lat="32.6395720" lon="35.1047000">
    <ele>121.9</ele>
    <time>2014-02-21T10:04:03Z</time>
   </trkpt>
   <trkpt lat="32.6395790" lon="35.1046660">
    <ele>121.7</ele>
    <time>2014-02-21T10:04:11Z</time>
   </trkpt>
   <trkpt lat="32.6395940" lon="35.1046120">
    <ele>121.5</ele>
    <time>2014-02-21T10:04:13Z</time>
   </trkpt>
   <trkpt lat="32.6396130" lon="35.1045550">
    <ele>121.7</ele>
    <time>2014-02-21T10:04:15Z</time>
   </trkpt>
   <trkpt lat="32.6396350" lon="35.1045010">
    <ele>122.2</ele>
    <time>2014-02-21T10:04:17Z</time>
   </trkpt>
   <trkpt lat="32.6396540" lon="35.1044450">
    <ele>122.6</ele>
    <time>2014-02-21T10:04:19Z</time>
   </trkpt>
   <trkpt lat="32.6396710" lon="35.1043870">
    <ele>123.0</ele>
    <time>2014-02-21T10:04:21Z</time>
   </trkpt>
   <trkpt lat="32.6396800" lon="35.1043570">
    <ele>123.1</ele>
    <time>2014-02-21T10:04:22Z</time>
   </trkpt>
   <trkpt lat="32.6396920" lon="35.1043190">
    <ele>123.3</ele>
    <time>2014-02-21T10:04:23Z</time>
   </trkpt>
   <trkpt lat="32.6397040" lon="35.1042800">
    <ele>123.5</ele>
    <time>2014-02-21T10:04:24Z</time>
   </trkpt>
   <trkpt lat="32.6397150" lon="35.1042410">
    <ele>123.7</ele>
    <time>2014-02-21T10:04:25Z</time>
   </trkpt>
   <trkpt lat="32.6397270" lon="35.1042010">
    <ele>123.8</ele>
    <time>2014-02-21T10:04:26Z</time>
   </trkpt>
   <trkpt lat="32.6397390" lon="35.1041610">
    <ele>124.0</ele>
    <time>2014-02-21T10:04:27Z</time>
   </trkpt>
   <trkpt lat="32.6397510" lon="35.1041200">
    <ele>124.1</ele>
    <time>2014-02-21T10:04:28Z</time>
   </trkpt>
   <trkpt lat="32.6397650" lon="35.1040800">
    <ele>124.3</ele>
    <time>2014-02-21T10:04:29Z</time>
   </trkpt>
   <trkpt lat="32.6397800" lon="35.1040410">
    <ele>124.4</ele>
    <time>2014-02-21T10:04:30Z</time>
   </trkpt>
   <trkpt lat="32.6397990" lon="35.1040030">
    <ele>124.6</ele>
    <time>2014-02-21T10:04:31Z</time>
   </trkpt>
   <trkpt lat="32.6398190" lon="35.1039660">
    <ele>124.8</ele>
    <time>2014-02-21T10:04:32Z</time>
   </trkpt>
   <trkpt lat="32.6398380" lon="35.1039280">
    <ele>125.0</ele>
    <time>2014-02-21T10:04:33Z</time>
   </trkpt>
   <trkpt lat="32.6398580" lon="35.1038890">
    <ele>125.2</ele>
    <time>2014-02-21T10:04:34Z</time>
   </trkpt>
   <trkpt lat="32.6398770" lon="35.1038510">
    <ele>125.3</ele>
    <time>2014-02-21T10:04:35Z</time>
   </trkpt>
   <trkpt lat="32.6398950" lon="35.1038120">
    <ele>125.4</ele>
    <time>2014-02-21T10:04:36Z</time>
   </trkpt>
   <trkpt lat="32.6399130" lon="35.1037720">
    <ele>125.5</ele>
    <time>2014-02-21T10:04:37Z</time>
   </trkpt>
   <trkpt lat="32.6399300" lon="35.1037320">
    <ele>125.6</ele>
    <time>2014-02-21T10:04:38Z</time>
   </trkpt>
   <trkpt lat="32.6399480" lon="35.1036920">
    <ele>125.8</ele>
    <time>2014-02-21T10:04:39Z</time>
   </trkpt>
   <trkpt lat="32.6399660" lon="35.1036520">
    <ele>126.1</ele>
    <time>2014-02-21T10:04:40Z</time>
   </trkpt>
   <trkpt lat="32.6399820" lon="35.1036100">
    <ele>126.2</ele>
    <time>2014-02-21T10:04:41Z</time>
   </trkpt>
   <trkpt lat="32.6399990" lon="35.1035680">
    <ele>126.4</ele>
    <time>2014-02-21T10:04:42Z</time>
   </trkpt>
   <trkpt lat="32.6400130" lon="35.1035260">
    <ele>126.5</ele>
    <time>2014-02-21T10:04:43Z</time>
   </trkpt>
   <trkpt lat="32.6400280" lon="35.1034850">
    <ele>126.6</ele>
    <time>2014-02-21T10:04:44Z</time>
   </trkpt>
   <trkpt lat="32.6400410" lon="35.1034450">
    <ele>126.6</ele>
    <time>2014-02-21T10:04:45Z</time>
   </trkpt>
   <trkpt lat="32.6400520" lon="35.1034040">
    <ele>126.6</ele>
    <time>2014-02-21T10:04:46Z</time>
   </trkpt>
   <trkpt lat="32.6400630" lon="35.1033610">
    <ele>126.6</ele>
    <time>2014-02-21T10:04:47Z</time>
   </trkpt>
   <trkpt lat="32.6400730" lon="35.1033180">
    <ele>126.6</ele>
    <time>2014-02-21T10:04:48Z</time>
   </trkpt>
   <trkpt lat="32.6400840" lon="35.1032740">
    <ele>126.6</ele>
    <time>2014-02-21T10:04:49Z</time>
   </trkpt>
   <trkpt lat="32.6400960" lon="35.1032310">
    <ele>126.5</ele>
    <time>2014-02-21T10:04:50Z</time>
   </trkpt>
   <trkpt lat="32.6401080" lon="35.1031880">
    <ele>126.5</ele>
    <time>2014-02-21T10:04:51Z</time>
   </trkpt>
   <trkpt lat="32.6401210" lon="35.1031450">
    <ele>126.4</ele>
    <time>2014-02-21T10:04:52Z</time>
   </trkpt>
   <trkpt lat="32.6401360" lon="35.1031030">
    <ele>126.3</ele>
    <time>2014-02-21T10:04:53Z</time>
   </trkpt>
   <trkpt lat="32.6401510" lon="35.1030620">
    <ele>126.1</ele>
    <time>2014-02-21T10:04:54Z</time>
   </trkpt>
   <trkpt lat="32.6401670" lon="35.1030210">
    <ele>126.0</ele>
    <time>2014-02-21T10:04:55Z</time>
   </trkpt>
   <trkpt lat="32.6401830" lon="35.1029810">
    <ele>125.8</ele>
    <time>2014-02-21T10:04:56Z</time>
   </trkpt>
   <trkpt lat="32.6401980" lon="35.1029410">
    <ele>125.6</ele>
    <time>2014-02-21T10:04:57Z</time>
   </trkpt>
   <trkpt lat="32.6402150" lon="35.1029010">
    <ele>125.5</ele>
    <time>2014-02-21T10:04:58Z</time>
   </trkpt>
   <trkpt lat="32.6402320" lon="35.1028610">
    <ele>125.7</ele>
    <time>2014-02-21T10:04:59Z</time>
   </trkpt>
   <trkpt lat="32.6402500" lon="35.1028210">
    <ele>125.8</ele>
    <time>2014-02-21T10:05:00Z</time>
   </trkpt>
   <trkpt lat="32.6402670" lon="35.1027830">
    <ele>125.9</ele>
    <time>2014-02-21T10:05:01Z</time>
   </trkpt>
   <trkpt lat="32.6402850" lon="35.1027460">
    <ele>126.0</ele>
    <time>2014-02-21T10:05:02Z</time>
   </trkpt>
   <trkpt lat="32.6403030" lon="35.1027090">
    <ele>126.1</ele>
    <time>2014-02-21T10:05:03Z</time>
   </trkpt>
   <trkpt lat="32.6403220" lon="35.1026730">
    <ele>126.2</ele>
    <time>2014-02-21T10:05:04Z</time>
   </trkpt>
   <trkpt lat="32.6403400" lon="35.1026360">
    <ele>126.3</ele>
    <time>2014-02-21T10:05:05Z</time>
   </trkpt>
   <trkpt lat="32.6403590" lon="35.1025980">
    <ele>126.3</ele>
    <time>2014-02-21T10:05:06Z</time>
   </trkpt>
   <trkpt lat="32.6403790" lon="35.1025610">
    <ele>126.4</ele>
    <time>2014-02-21T10:05:07Z</time>
   </trkpt>
   <trkpt lat="32.6403990" lon="35.1025250">
    <ele>126.5</ele>
    <time>2014-02-21T10:05:08Z</time>
   </trkpt>
   <trkpt lat="32.6404200" lon="35.1024890">
    <ele>126.6</ele>
    <time>2014-02-21T10:05:09Z</time>
   </trkpt>
   <trkpt lat="32.6404400" lon="35.1024530">
    <ele>126.8</ele>
    <time>2014-02-21T10:05:10Z</time>
   </trkpt>
   <trkpt lat="32.6404600" lon="35.1024160">
    <ele>127.1</ele>
    <time>2014-02-21T10:05:11Z</time>
   </trkpt>
   <trkpt lat="32.6404800" lon="35.1023810">
    <ele>127.3</ele>
    <time>2014-02-21T10:05:12Z</time>
   </trkpt>
   <trkpt lat="32.6404990" lon="35.1023460">
    <ele>127.5</ele>
    <time>2014-02-21T10:05:13Z</time>
   </trkpt>
   <trkpt lat="32.6405150" lon="35.1023190">
    <ele>127.7</ele>
    <time>2014-02-21T10:05:14Z</time>
   </trkpt>
   <trkpt lat="32.6405330" lon="35.1022900">
    <ele>127.9</ele>
    <time>2014-02-21T10:05:15Z</time>
   </trkpt>
   <trkpt lat="32.6405510" lon="35.1022620">
    <ele>128.0</ele>
    <time>2014-02-21T10:05:16Z</time>
   </trkpt>
   <trkpt lat="32.6405700" lon="35.1022330">
    <ele>128.2</ele>
    <time>2014-02-21T10:05:17Z</time>
   </trkpt>
   <trkpt lat="32.6405890" lon="35.1022030">
    <ele>128.4</ele>
    <time>2014-02-21T10:05:18Z</time>
   </trkpt>
   <trkpt lat="32.6406080" lon="35.1021720">
    <ele>128.5</ele>
    <time>2014-02-21T10:05:19Z</time>
   </trkpt>
   <trkpt lat="32.6406270" lon="35.1021400">
    <ele>128.7</ele>
    <time>2014-02-21T10:05:20Z</time>
   </trkpt>
   <trkpt lat="32.6406480" lon="35.1021070">
    <ele>128.8</ele>
    <time>2014-02-21T10:05:21Z</time>
   </trkpt>
   <trkpt lat="32.6406680" lon="35.1020740">
    <ele>128.9</ele>
    <time>2014-02-21T10:05:22Z</time>
   </trkpt>
   <trkpt lat="32.6406890" lon="35.1020410">
    <ele>129.0</ele>
    <time>2014-02-21T10:05:23Z</time>
   </trkpt>
   <trkpt lat="32.6407100" lon="35.1020080">
    <ele>129.1</ele>
    <time>2014-02-21T10:05:24Z</time>
   </trkpt>
   <trkpt lat="32.6407300" lon="35.1019750">
    <ele>129.2</ele>
    <time>2014-02-21T10:05:25Z</time>
   </trkpt>
   <trkpt lat="32.6407500" lon="35.1019420">
    <ele>129.3</ele>
    <time>2014-02-21T10:05:26Z</time>
   </trkpt>
   <trkpt lat="32.6407690" lon="35.1019100">
    <ele>129.4</ele>
    <time>2014-02-21T10:05:27Z</time>
   </trkpt>
   <trkpt lat="32.6407870" lon="35.1018770">
    <ele>129.5</ele>
    <time>2014-02-21T10:05:28Z</time>
   </trkpt>
   <trkpt lat="32.6408050" lon="35.1018440">
    <ele>129.6</ele>
    <time>2014-02-21T10:05:29Z</time>
   </trkpt>
   <trkpt lat="32.6408230" lon="35.1018130">
    <ele>129.6</ele>
    <time>2014-02-21T10:05:30Z</time>
   </trkpt>
   <trkpt lat="32.6408400" lon="35.1017810">
    <ele>129.7</ele>
    <time>2014-02-21T10:05:31Z</time>
   </trkpt>
   <trkpt lat="32.6408560" lon="35.1017490">
    <ele>129.7</ele>
    <time>2014-02-21T10:05:32Z</time>
   </trkpt>
   <trkpt lat="32.6408690" lon="35.1017150">
    <ele>129.8</ele>
    <time>2014-02-21T10:05:33Z</time>
   </trkpt>
   <trkpt lat="32.6408800" lon="35.1016790">
    <ele>129.8</ele>
    <time>2014-02-21T10:05:34Z</time>
   </trkpt>
   <trkpt lat="32.6408880" lon="35.1016420">
    <ele>129.9</ele>
    <time>2014-02-21T10:05:35Z</time>
   </trkpt>
   <trkpt lat="32.6408940" lon="35.1016040">
    <ele>129.9</ele>
    <time>2014-02-21T10:05:36Z</time>
   </trkpt>
   <trkpt lat="32.6408990" lon="35.1015660">
    <ele>129.9</ele>
    <time>2014-02-21T10:05:37Z</time>
   </trkpt>
   <trkpt lat="32.6409040" lon="35.1015270">
    <ele>129.9</ele>
    <time>2014-02-21T10:05:38Z</time>
   </trkpt>
   <trkpt lat="32.6409100" lon="35.1014880">
    <ele>129.9</ele>
    <time>2014-02-21T10:05:39Z</time>
   </trkpt>
   <trkpt lat="32.6409170" lon="35.1014490">
    <ele>130.0</ele>
    <time>2014-02-21T10:05:40Z</time>
   </trkpt>
   <trkpt lat="32.6409250" lon="35.1014100">
    <ele>130.0</ele>
    <time>2014-02-21T10:05:41Z</time>
   </trkpt>
   <trkpt lat="32.6409340" lon="35.1013710">
    <ele>130.0</ele>
    <time>2014-02-21T10:05:42Z</time>
   </trkpt>
   <trkpt lat="32.6409450" lon="35.1013320">
    <ele>130.0</ele>
    <time>2014-02-21T10:05:43Z</time>
   </trkpt>
   <trkpt lat="32.6409570" lon="35.1012950">
    <ele>130.0</ele>
    <time>2014-02-21T10:05:44Z</time>
   </trkpt>
   <trkpt lat="32.6409690" lon="35.1012590">
    <ele>130.0</ele>
    <time>2014-02-21T10:05:45Z</time>
   </trkpt>
   <trkpt lat="32.6409800" lon="35.1012240">
    <ele>130.1</ele>
    <time>2014-02-21T10:05:46Z</time>
   </trkpt>
   <trkpt lat="32.6409910" lon="35.1011890">
    <ele>130.2</ele>
    <time>2014-02-21T10:05:47Z</time>
   </trkpt>
   <trkpt lat="32.6410010" lon="35.1011530">
    <ele>130.4</ele>
    <time>2014-02-21T10:05:48Z</time>
   </trkpt>
   <trkpt lat="32.6410090" lon="35.1011140">
    <ele>130.5</ele>
    <time>2014-02-21T10:05:49Z</time>
   </trkpt>
   <trkpt lat="32.6410150" lon="35.1010750">
    <ele>130.7</ele>
    <time>2014-02-21T10:05:50Z</time>
   </trkpt>
   <trkpt lat="32.6410190" lon="35.1010360">
    <ele>130.8</ele>
    <time>2014-02-21T10:05:51Z</time>
   </trkpt>
   <trkpt lat="32.6410210" lon="35.1009980">
    <ele>131.0</ele>
    <time>2014-02-21T10:05:52Z</time>
   </trkpt>
   <trkpt lat="32.6410200" lon="35.1009610">
    <ele>131.1</ele>
    <time>2014-02-21T10:05:53Z</time>
   </trkpt>
   <trkpt lat="32.6410240" lon="35.1009140">
    <ele>131.3</ele>
    <time>2014-02-21T10:05:55Z</time>
   </trkpt>
   <trkpt lat="32.6410350" lon="35.1008760">
    <ele>131.4</ele>
    <time>2014-02-21T10:05:57Z</time>
   </trkpt>
   <trkpt lat="32.6410390" lon="35.1008420">
    <ele>131.6</ele>
    <time>2014-02-21T10:06:00Z</time>
   </trkpt>
   <trkpt lat="32.6410350" lon="35.1008020">
    <ele>131.7</ele>
    <time>2014-02-21T10:06:03Z</time>
   </trkpt>
   <trkpt lat="32.6410210" lon="35.1007430">
    <ele>131.9</ele>
    <time>2014-02-21T10:06:05Z</time>
   </trkpt>
   <trkpt lat="32.6410090" lon="35.1007120">
    <ele>132.0</ele>
    <time>2014-02-21T10:06:06Z</time>
   </trkpt>
   <trkpt lat="32.6409950" lon="35.1006810">
    <ele>132.1</ele>
    <time>2014-02-21T10:06:07Z</time>
   </trkpt>
   <trkpt lat="32.6409790" lon="35.1006520">
    <ele>132.2</ele>
    <time>2014-02-21T10:06:08Z</time>
   </trkpt>
   <trkpt lat="32.6409600" lon="35.1006250">
    <ele>132.2</ele>
    <time>2014-02-21T10:06:09Z</time>
   </trkpt>
   <trkpt lat="32.6409380" lon="35.1005990">
    <ele>132.2</ele>
    <time>2014-02-21T10:06:10Z</time>
   </trkpt>
   <trkpt lat="32.6409150" lon="35.1005730">
    <ele>132.3</ele>
    <time>2014-02-21T10:06:11Z</time>
   </trkpt>
   <trkpt lat="32.6408920" lon="35.1005470">
    <ele>132.3</ele>
    <time>2014-02-21T10:06:12Z</time>
   </trkpt>
   <trkpt lat="32.6408680" lon="35.1005200">
    <ele>132.3</ele>
    <time>2014-02-21T10:06:13Z</time>
   </trkpt>
   <trkpt lat="32.6408440" lon="35.1004920">
    <ele>132.3</ele>
    <time>2014-02-21T10:06:14Z</time>
   </trkpt>
   <trkpt lat="32.6408170" lon="35.1004590">
    <ele>132.3</ele>
    <time>2014-02-21T10:06:15Z</time>
   </trkpt>
   <trkpt lat="32.6407920" lon="35.1004270">
    <ele>132.3</ele>
    <time>2014-02-21T10:06:16Z</time>
   </trkpt>
   <trkpt lat="32.6407690" lon="35.1003950">
    <ele>132.4</ele>
    <time>2014-02-21T10:06:17Z</time>
   </trkpt>
   <trkpt lat="32.6407460" lon="35.1003640">
    <ele>132.4</ele>
    <time>2014-02-21T10:06:18Z</time>
   </trkpt>
   <trkpt lat="32.6407230" lon="35.1003330">
    <ele>132.5</ele>
    <time>2014-02-21T10:06:19Z</time>
   </trkpt>
   <trkpt lat="32.6407010" lon="35.1003010">
    <ele>132.5</ele>
    <time>2014-02-21T10:06:20Z</time>
   </trkpt>
   <trkpt lat="32.6406790" lon="35.1002690">
    <ele>132.6</ele>
    <time>2014-02-21T10:06:21Z</time>
   </trkpt>
   <trkpt lat="32.6406570" lon="35.1002350">
    <ele>132.6</ele>
    <time>2014-02-21T10:06:22Z</time>
   </trkpt>
   <trkpt lat="32.6406320" lon="35.1001990">
    <ele>132.7</ele>
    <time>2014-02-21T10:06:23Z</time>
   </trkpt>
   <trkpt lat="32.6406060" lon="35.1001660">
    <ele>132.7</ele>
    <time>2014-02-21T10:06:24Z</time>
   </trkpt>
   <trkpt lat="32.6405790" lon="35.1001350">
    <ele>132.7</ele>
    <time>2014-02-21T10:06:25Z</time>
   </trkpt>
   <trkpt lat="32.6405520" lon="35.1001030">
    <ele>132.7</ele>
    <time>2014-02-21T10:06:26Z</time>
   </trkpt>
   <trkpt lat="32.6405240" lon="35.1000740">
    <ele>132.7</ele>
    <time>2014-02-21T10:06:27Z</time>
   </trkpt>
   <trkpt lat="32.6404950" lon="35.1000450">
    <ele>132.7</ele>
    <time>2014-02-21T10:06:28Z</time>
   </trkpt>
   <trkpt lat="32.6404660" lon="35.1000190">
    <ele>132.7</ele>
    <time>2014-02-21T10:06:29Z</time>
   </trkpt>
   <trkpt lat="32.6404360" lon="35.0999930">
    <ele>132.6</ele>
    <time>2014-02-21T10:06:30Z</time>
   </trkpt>
   <trkpt lat="32.6404060" lon="35.0999690">
    <ele>132.7</ele>
    <time>2014-02-21T10:06:31Z</time>
   </trkpt>
   <trkpt lat="32.6403760" lon="35.0999480">
    <ele>133.0</ele>
    <time>2014-02-21T10:06:32Z</time>
   </trkpt>
   <trkpt lat="32.6403460" lon="35.0999300">
    <ele>133.3</ele>
    <time>2014-02-21T10:06:33Z</time>
   </trkpt>
   <trkpt lat="32.6403140" lon="35.0999150">
    <ele>133.7</ele>
    <time>2014-02-21T10:06:34Z</time>
   </trkpt>
   <trkpt lat="32.6402830" lon="35.0999010">
    <ele>134.0</ele>
    <time>2014-02-21T10:06:35Z</time>
   </trkpt>
   <trkpt lat="32.6402530" lon="35.0998880">
    <ele>134.3</ele>
    <time>2014-02-21T10:06:36Z</time>
   </trkpt>
   <trkpt lat="32.6402270" lon="35.0998760">
    <ele>134.5</ele>
    <time>2014-02-21T10:06:37Z</time>
   </trkpt>
   <trkpt lat="32.6402020" lon="35.0998610">
    <ele>134.8</ele>
    <time>2014-02-21T10:06:38Z</time>
   </trkpt>
   <trkpt lat="32.6401770" lon="35.0998430">
    <ele>135.1</ele>
    <time>2014-02-21T10:06:39Z</time>
   </trkpt>
   <trkpt lat="32.6401530" lon="35.0998220">
    <ele>135.4</ele>
    <time>2014-02-21T10:06:40Z</time>
   </trkpt>
   <trkpt lat="32.6401300" lon="35.0997990">
    <ele>135.6</ele>
    <time>2014-02-21T10:06:41Z</time>
   </trkpt>
   <trkpt lat="32.6401070" lon="35.0997740">
    <ele>135.9</ele>
    <time>2014-02-21T10:06:42Z</time>
   </trkpt>
   <trkpt lat="32.6400850" lon="35.0997500">
    <ele>136.2</ele>
    <time>2014-02-21T10:06:43Z</time>
   </trkpt>
   <trkpt lat="32.6400640" lon="35.0997250">
    <ele>136.5</ele>
    <time>2014-02-21T10:06:44Z</time>
   </trkpt>
   <trkpt lat="32.6400450" lon="35.0997010">
    <ele>136.7</ele>
    <time>2014-02-21T10:06:45Z</time>
   </trkpt>
   <trkpt lat="32.6400270" lon="35.0996760">
    <ele>136.9</ele>
    <time>2014-02-21T10:06:46Z</time>
   </trkpt>
   <trkpt lat="32.6400070" lon="35.0996500">
    <ele>137.2</ele>
    <time>2014-02-21T10:06:47Z</time>
   </trkpt>
   <trkpt lat="32.6399980" lon="35.0996190">
    <ele>137.4</ele>
    <time>2014-02-21T10:06:48Z</time>
   </trkpt>
   <trkpt lat="32.6399870" lon="35.0995880">
    <ele>137.6</ele>
    <time>2014-02-21T10:06:49Z</time>
   </trkpt>
   <trkpt lat="32.6399790" lon="35.0995550">
    <ele>137.8</ele>
    <time>2014-02-21T10:06:50Z</time>
   </trkpt>
   <trkpt lat="32.6399720" lon="35.0995220">
    <ele>138.0</ele>
    <time>2014-02-21T10:06:51Z</time>
   </trkpt>
   <trkpt lat="32.6399680" lon="35.0994870">
    <ele>138.2</ele>
    <time>2014-02-21T10:06:52Z</time>
   </trkpt>
   <trkpt lat="32.6399650" lon="35.0994530">
    <ele>138.4</ele>
    <time>2014-02-21T10:06:53Z</time>
   </trkpt>
   <trkpt lat="32.6399620" lon="35.0994190">
    <ele>138.6</ele>
    <time>2014-02-21T10:06:54Z</time>
   </trkpt>
   <trkpt lat="32.6399580" lon="35.0993860">
    <ele>138.8</ele>
    <time>2014-02-21T10:06:55Z</time>
   </trkpt>
   <trkpt lat="32.6399530" lon="35.0993510">
    <ele>139.0</ele>
    <time>2014-02-21T10:06:56Z</time>
   </trkpt>
   <trkpt lat="32.6399480" lon="35.0993170">
    <ele>139.3</ele>
    <time>2014-02-21T10:06:57Z</time>
   </trkpt>
   <trkpt lat="32.6399440" lon="35.0992830">
    <ele>139.5</ele>
    <time>2014-02-21T10:06:58Z</time>
   </trkpt>
   <trkpt lat="32.6399420" lon="35.0992500">
    <ele>139.6</ele>
    <time>2014-02-21T10:06:59Z</time>
   </trkpt>
   <trkpt lat="32.6399410" lon="35.0991930">
    <ele>139.9</ele>
    <time>2014-02-21T10:07:01Z</time>
   </trkpt>
   <trkpt lat="32.6399470" lon="35.0991390">
    <ele>140.1</ele>
    <time>2014-02-21T10:07:03Z</time>
   </trkpt>
   <trkpt lat="32.6399560" lon="35.0990830">
    <ele>140.3</ele>
    <time>2014-02-21T10:07:05Z</time>
   </trkpt>
   <trkpt lat="32.6399670" lon="35.0990250">
    <ele>140.5</ele>
    <time>2014-02-21T10:07:07Z</time>
   </trkpt>
   <trkpt lat="32.6399780" lon="35.0989640">
    <ele>140.7</ele>
    <time>2014-02-21T10:07:09Z</time>
   </trkpt>
   <trkpt lat="32.6399890" lon="35.0989040">
    <ele>140.9</ele>
    <time>2014-02-21T10:07:11Z</time>
   </trkpt>
   <trkpt lat="32.6399980" lon="35.0988430">
    <ele>141.1</ele>
    <time>2014-02-21T10:07:13Z</time>
   </trkpt>
   <trkpt lat="32.6400040" lon="35.0987800">
    <ele>141.3</ele>
    <time>2014-02-21T10:07:15Z</time>
   </trkpt>
   <trkpt lat="32.6400040" lon="35.0987470">
    <ele>141.5</ele>
    <time>2014-02-21T10:07:16Z</time>
   </trkpt>
   <trkpt lat="32.6400040" lon="35.0986840">
    <ele>141.8</ele>
    <time>2014-02-21T10:07:18Z</time>
   </trkpt>
   <trkpt lat="32.6400110" lon="35.0986210">
    <ele>142.0</ele>
    <time>2014-02-21T10:07:20Z</time>
   </trkpt>
   <trkpt lat="32.6400160" lon="35.0985880">
    <ele>142.1</ele>
    <time>2014-02-21T10:07:21Z</time>
   </trkpt>
   <trkpt lat="32.6400220" lon="35.0985560">
    <ele>142.2</ele>
    <time>2014-02-21T10:07:22Z</time>
   </trkpt>
   <trkpt lat="32.6400290" lon="35.0985230">
    <ele>142.2</ele>
    <time>2014-02-21T10:07:23Z</time>
   </trkpt>
   <trkpt lat="32.6400360" lon="35.0984900">
    <ele>142.3</ele>
    <time>2014-02-21T10:07:24Z</time>
   </trkpt>
   <trkpt lat="32.6400440" lon="35.0984570">
    <ele>142.4</ele>
    <time>2014-02-21T10:07:25Z</time>
   </trkpt>
   <trkpt lat="32.6400510" lon="35.0984240">
    <ele>142.4</ele>
    <time>2014-02-21T10:07:26Z</time>
   </trkpt>
   <trkpt lat="32.6400590" lon="35.0983900">
    <ele>142.5</ele>
    <time>2014-02-21T10:07:27Z</time>
   </trkpt>
   <trkpt lat="32.6400660" lon="35.0983550">
    <ele>142.5</ele>
    <time>2014-02-21T10:07:28Z</time>
   </trkpt>
   <trkpt lat="32.6400740" lon="35.0983200">
    <ele>142.6</ele>
    <time>2014-02-21T10:07:29Z</time>
   </trkpt>
   <trkpt lat="32.6400810" lon="35.0982840">
    <ele>142.6</ele>
    <time>2014-02-21T10:07:30Z</time>
   </trkpt>
   <trkpt lat="32.6400880" lon="35.0982490">
    <ele>142.7</ele>
    <time>2014-02-21T10:07:31Z</time>
   </trkpt>
   <trkpt lat="32.6400960" lon="35.0982130">
    <ele>142.7</ele>
    <time>2014-02-21T10:07:32Z</time>
   </trkpt>
   <trkpt lat="32.6401030" lon="35.0981790">
    <ele>142.8</ele>
    <time>2014-02-21T10:07:33Z</time>
   </trkpt>
   <trkpt lat="32.6401100" lon="35.0981460">
    <ele>142.8</ele>
    <time>2014-02-21T10:07:34Z</time>
   </trkpt>
   <trkpt lat="32.6401180" lon="35.0981140">
    <ele>142.8</ele>
    <time>2014-02-21T10:07:35Z</time>
   </trkpt>
   <trkpt lat="32.6401260" lon="35.0980830">
    <ele>142.9</ele>
    <time>2014-02-21T10:07:36Z</time>
   </trkpt>
   <trkpt lat="32.6401330" lon="35.0980520">
    <ele>142.9</ele>
    <time>2014-02-21T10:07:37Z</time>
   </trkpt>
   <trkpt lat="32.6401400" lon="35.0980190">
    <ele>142.9</ele>
    <time>2014-02-21T10:07:38Z</time>
   </trkpt>
   <trkpt lat="32.6401470" lon="35.0979860">
    <ele>142.9</ele>
    <time>2014-02-21T10:07:39Z</time>
   </trkpt>
   <trkpt lat="32.6401540" lon="35.0979520">
    <ele>143.0</ele>
    <time>2014-02-21T10:07:40Z</time>
   </trkpt>
   <trkpt lat="32.6401610" lon="35.0979180">
    <ele>143.0</ele>
    <time>2014-02-21T10:07:41Z</time>
   </trkpt>
   <trkpt lat="32.6401680" lon="35.0978830">
    <ele>143.0</ele>
    <time>2014-02-21T10:07:42Z</time>
   </trkpt>
   <trkpt lat="32.6401740" lon="35.0978490">
    <ele>143.1</ele>
    <time>2014-02-21T10:07:43Z</time>
   </trkpt>
   <trkpt lat="32.6401780" lon="35.0978150">
    <ele>143.2</ele>
    <time>2014-02-21T10:07:44Z</time>
   </trkpt>
   <trkpt lat="32.6401830" lon="35.0977820">
    <ele>143.2</ele>
    <time>2014-02-21T10:07:45Z</time>
   </trkpt>
   <trkpt lat="32.6401890" lon="35.0977490">
    <ele>143.3</ele>
    <time>2014-02-21T10:07:46Z</time>
   </trkpt>
   <trkpt lat="32.6401960" lon="35.0977160">
    <ele>143.3</ele>
    <time>2014-02-21T10:07:47Z</time>
   </trkpt>
   <trkpt lat="32.6402030" lon="35.0976840">
    <ele>143.4</ele>
    <time>2014-02-21T10:07:48Z</time>
   </trkpt>
   <trkpt lat="32.6402100" lon="35.0976530">
    <ele>143.4</ele>
    <time>2014-02-21T10:07:49Z</time>
   </trkpt>
   <trkpt lat="32.6402180" lon="35.0976220">
    <ele>143.4</ele>
    <time>2014-02-21T10:07:50Z</time>
   </trkpt>
   <trkpt lat="32.6402260" lon="35.0975880">
    <ele>143.5</ele>
    <time>2014-02-21T10:07:51Z</time>
   </trkpt>
   <trkpt lat="32.6402340" lon="35.0975550">
    <ele>143.5</ele>
    <time>2014-02-21T10:07:52Z</time>
   </trkpt>
   <trkpt lat="32.6402410" lon="35.0975230">
    <ele>143.5</ele>
    <time>2014-02-21T10:07:53Z</time>
   </trkpt>
   <trkpt lat="32.6402480" lon="35.0974910">
    <ele>143.6</ele>
    <time>2014-02-21T10:07:54Z</time>
   </trkpt>
   <trkpt lat="32.6402560" lon="35.0974580">
    <ele>143.6</ele>
    <time>2014-02-21T10:07:55Z</time>
   </trkpt>
   <trkpt lat="32.6402640" lon="35.0974260">
    <ele>143.6</ele>
    <time>2014-02-21T10:07:56Z</time>
   </trkpt>
   <trkpt lat="32.6402710" lon="35.0973940">
    <ele>143.7</ele>
    <time>2014-02-21T10:07:57Z</time>
   </trkpt>
   <trkpt lat="32.6402790" lon="35.0973620">
    <ele>143.7</ele>
    <time>2014-02-21T10:07:58Z</time>
   </trkpt>
   <trkpt lat="32.6402880" lon="35.0973300">
    <ele>143.7</ele>
    <time>2014-02-21T10:07:59Z</time>
   </trkpt>
   <trkpt lat="32.6402970" lon="35.0973000">
    <ele>143.7</ele>
    <time>2014-02-21T10:08:00Z</time>
   </trkpt>
   <trkpt lat="32.6403110" lon="35.0972400">
    <ele>143.8</ele>
    <time>2014-02-21T10:08:02Z</time>
   </trkpt>
   <trkpt lat="32.6403270" lon="35.0971790">
    <ele>143.8</ele>
    <time>2014-02-21T10:08:04Z</time>
   </trkpt>
   <trkpt lat="32.6403420" lon="35.0971180">
    <ele>143.9</ele>
    <time>2014-02-21T10:08:06Z</time>
   </trkpt>
   <trkpt lat="32.6403500" lon="35.0970870">
    <ele>143.9</ele>
    <time>2014-02-21T10:08:07Z</time>
   </trkpt>
   <trkpt lat="32.6403650" lon="35.0970280">
    <ele>144.1</ele>
    <time>2014-02-21T10:08:09Z</time>
   </trkpt>
   <trkpt lat="32.6403780" lon="35.0969700">
    <ele>144.2</ele>
    <time>2014-02-21T10:08:11Z</time>
   </trkpt>
   <trkpt lat="32.6403920" lon="35.0969130">
    <ele>144.4</ele>
    <time>2014-02-21T10:08:13Z</time>
   </trkpt>
   <trkpt lat="32.6404070" lon="35.0968580">
    <ele>144.5</ele>
    <time>2014-02-21T10:08:15Z</time>
   </trkpt>
   <trkpt lat="32.6404190" lon="35.0968050">
    <ele>144.7</ele>
    <time>2014-02-21T10:08:17Z</time>
   </trkpt>
   <trkpt lat="32.6404290" lon="35.0967630">
    <ele>144.9</ele>
    <time>2014-02-21T10:08:19Z</time>
   </trkpt>
   <trkpt lat="32.6404420" lon="35.0967210">
    <ele>145.1</ele>
    <time>2014-02-21T10:08:21Z</time>
   </trkpt>
   <trkpt lat="32.6404540" lon="35.0966760">
    <ele>145.3</ele>
    <time>2014-02-21T10:08:23Z</time>
   </trkpt>
   <trkpt lat="32.6404640" lon="35.0966270">
    <ele>145.5</ele>
    <time>2014-02-21T10:08:25Z</time>
   </trkpt>
   <trkpt lat="32.6404740" lon="35.0965830">
    <ele>145.7</ele>
    <time>2014-02-21T10:08:27Z</time>
   </trkpt>
   <trkpt lat="32.6404830" lon="35.0965490">
    <ele>145.9</ele>
    <time>2014-02-21T10:08:29Z</time>
   </trkpt>
   <trkpt lat="32.6404920" lon="35.0965160">
    <ele>146.0</ele>
    <time>2014-02-21T10:08:31Z</time>
   </trkpt>
   <trkpt lat="32.6404990" lon="35.0964800">
    <ele>146.2</ele>
    <time>2014-02-21T10:08:33Z</time>
   </trkpt>
   <trkpt lat="32.6405050" lon="35.0964460">
    <ele>146.4</ele>
    <time>2014-02-21T10:08:35Z</time>
   </trkpt>
   <trkpt lat="32.6405120" lon="35.0964140">
    <ele>146.5</ele>
    <time>2014-02-21T10:08:37Z</time>
   </trkpt>
   <trkpt lat="32.6405190" lon="35.0963800">
    <ele>146.7</ele>
    <time>2014-02-21T10:08:39Z</time>
   </trkpt>
   <trkpt lat="32.6405270" lon="35.0963430">
    <ele>146.8</ele>
    <time>2014-02-21T10:08:41Z</time>
   </trkpt>
   <trkpt lat="32.6405360" lon="35.0963050">
    <ele>147.0</ele>
    <time>2014-02-21T10:08:43Z</time>
   </trkpt>
   <trkpt lat="32.6405440" lon="35.0962630">
    <ele>147.2</ele>
    <time>2014-02-21T10:08:45Z</time>
   </trkpt>
   <trkpt lat="32.6405550" lon="35.0962180">
    <ele>147.4</ele>
    <time>2014-02-21T10:08:47Z</time>
   </trkpt>
   <trkpt lat="32.6405710" lon="35.0961600">
    <ele>147.7</ele>
    <time>2014-02-21T10:08:49Z</time>
   </trkpt>
   <trkpt lat="32.6405780" lon="35.0961260">
    <ele>147.8</ele>
    <time>2014-02-21T10:08:50Z</time>
   </trkpt>
   <trkpt lat="32.6405840" lon="35.0960940">
    <ele>148.0</ele>
    <time>2014-02-21T10:08:51Z</time>
   </trkpt>
   <trkpt lat="32.6405960" lon="35.0960340">
    <ele>148.3</ele>
    <time>2014-02-21T10:08:53Z</time>
   </trkpt>
   <trkpt lat="32.6406090" lon="35.0959770">
    <ele>148.6</ele>
    <time>2014-02-21T10:08:55Z</time>
   </trkpt>
   <trkpt lat="32.6406230" lon="35.0959210">
    <ele>148.9</ele>
    <time>2014-02-21T10:08:57Z</time>
   </trkpt>
   <trkpt lat="32.6406370" lon="35.0958630">
    <ele>149.2</ele>
    <time>2014-02-21T10:08:59Z</time>
   </trkpt>
   <trkpt lat="32.6406510" lon="35.0957990">
    <ele>149.6</ele>
    <time>2014-02-21T10:09:01Z</time>
   </trkpt>
   <trkpt lat="32.6406580" lon="35.0957660">
    <ele>149.8</ele>
    <time>2014-02-21T10:09:02Z</time>
   </trkpt>
   <trkpt lat="32.6406660" lon="35.0957300">
    <ele>150.0</ele>
    <time>2014-02-21T10:09:03Z</time>
   </trkpt>
   <trkpt lat="32.6406740" lon="35.0956940">
    <ele>150.2</ele>
    <time>2014-02-21T10:09:04Z</time>
   </trkpt>
   <trkpt lat="32.6406820" lon="35.0956600">
    <ele>150.4</ele>
    <time>2014-02-21T10:09:05Z</time>
   </trkpt>
   <trkpt lat="32.6406900" lon="35.0956260">
    <ele>150.6</ele>
    <time>2014-02-21T10:09:06Z</time>
   </trkpt>
   <trkpt lat="32.6406970" lon="35.0955910">
    <ele>150.8</ele>
    <time>2014-02-21T10:09:07Z</time>
   </trkpt>
   <trkpt lat="32.6407060" lon="35.0955560">
    <ele>151.0</ele>
    <time>2014-02-21T10:09:08Z</time>
   </trkpt>
   <trkpt lat="32.6407150" lon="35.0955220">
    <ele>151.2</ele>
    <time>2014-02-21T10:09:09Z</time>
   </trkpt>
   <trkpt lat="32.6407240" lon="35.0954880">
    <ele>151.4</ele>
    <time>2014-02-21T10:09:10Z</time>
   </trkpt>
   <trkpt lat="32.6407330" lon="35.0954530">
    <ele>151.6</ele>
    <time>2014-02-21T10:09:11Z</time>
   </trkpt>
   <trkpt lat="32.6407420" lon="35.0954180">
    <ele>151.8</ele>
    <time>2014-02-21T10:09:12Z</time>
   </trkpt>
   <trkpt lat="32.6407510" lon="35.0953840">
    <ele>152.1</ele>
    <time>2014-02-21T10:09:13Z</time>
   </trkpt>
   <trkpt lat="32.6407590" lon="35.0953500">
    <ele>152.4</ele>
    <time>2014-02-21T10:09:14Z</time>
   </trkpt>
   <trkpt lat="32.6407690" lon="35.0953160">
    <ele>152.7</ele>
    <time>2014-02-21T10:09:15Z</time>
   </trkpt>
   <trkpt lat="32.6407790" lon="35.0952830">
    <ele>153.0</ele>
    <time>2014-02-21T10:09:16Z</time>
   </trkpt>
   <trkpt lat="32.6407890" lon="35.0952520">
    <ele>153.2</ele>
    <time>2014-02-21T10:09:17Z</time>
   </trkpt>
   <trkpt lat="32.6408010" lon="35.0952210">
    <ele>153.4</ele>
    <time>2014-02-21T10:09:18Z</time>
   </trkpt>
   <trkpt lat="32.6408130" lon="35.0951920">
    <ele>153.6</ele>
    <time>2014-02-21T10:09:19Z</time>
   </trkpt>
   <trkpt lat="32.6408260" lon="35.0951620">
    <ele>153.8</ele>
    <time>2014-02-21T10:09:20Z</time>
   </trkpt>
   <trkpt lat="32.6408390" lon="35.0951320">
    <ele>154.0</ele>
    <time>2014-02-21T10:09:21Z</time>
   </trkpt>
   <trkpt lat="32.6408520" lon="35.0951030">
    <ele>154.2</ele>
    <time>2014-02-21T10:09:22Z</time>
   </trkpt>
   <trkpt lat="32.6408660" lon="35.0950750">
    <ele>154.3</ele>
    <time>2014-02-21T10:09:23Z</time>
   </trkpt>
   <trkpt lat="32.6408810" lon="35.0950480">
    <ele>154.5</ele>
    <time>2014-02-21T10:09:24Z</time>
   </trkpt>
   <trkpt lat="32.6408960" lon="35.0950200">
    <ele>154.6</ele>
    <time>2014-02-21T10:09:25Z</time>
   </trkpt>
   <trkpt lat="32.6409120" lon="35.0949930">
    <ele>154.7</ele>
    <time>2014-02-21T10:09:26Z</time>
   </trkpt>
   <trkpt lat="32.6409280" lon="35.0949650">
    <ele>154.8</ele>
    <time>2014-02-21T10:09:27Z</time>
   </trkpt>
   <trkpt lat="32.6409450" lon="35.0949360">
    <ele>154.9</ele>
    <time>2014-02-21T10:09:28Z</time>
   </trkpt>
   <trkpt lat="32.6409620" lon="35.0949080">
    <ele>155.0</ele>
    <time>2014-02-21T10:09:29Z</time>
   </trkpt>
   <trkpt lat="32.6409780" lon="35.0948800">
    <ele>155.0</ele>
    <time>2014-02-21T10:09:30Z</time>
   </trkpt>
   <trkpt lat="32.6409940" lon="35.0948530">
    <ele>155.1</ele>
    <time>2014-02-21T10:09:31Z</time>
   </trkpt>
   <trkpt lat="32.6410090" lon="35.0948240">
    <ele>155.2</ele>
    <time>2014-02-21T10:09:32Z</time>
   </trkpt>
   <trkpt lat="32.6410250" lon="35.0947970">
    <ele>155.2</ele>
    <time>2014-02-21T10:09:33Z</time>
   </trkpt>
   <trkpt lat="32.6410400" lon="35.0947690">
    <ele>155.2</ele>
    <time>2014-02-21T10:09:34Z</time>
   </trkpt>
   <trkpt lat="32.6410550" lon="35.0947400">
    <ele>155.3</ele>
    <time>2014-02-21T10:09:35Z</time>
   </trkpt>
   <trkpt lat="32.6410700" lon="35.0947110">
    <ele>155.3</ele>
    <time>2014-02-21T10:09:36Z</time>
   </trkpt>
   <trkpt lat="32.6410850" lon="35.0946830">
    <ele>155.3</ele>
    <time>2014-02-21T10:09:37Z</time>
   </trkpt>
   <trkpt lat="32.6410990" lon="35.0946540">
    <ele>155.4</ele>
    <time>2014-02-21T10:09:38Z</time>
   </trkpt>
   <trkpt lat="32.6411130" lon="35.0946260">
    <ele>155.4</ele>
    <time>2014-02-21T10:09:39Z</time>
   </trkpt>
   <trkpt lat="32.6411260" lon="35.0945970">
    <ele>155.4</ele>
    <time>2014-02-21T10:09:40Z</time>
   </trkpt>
   <trkpt lat="32.6411390" lon="35.0945680">
    <ele>155.4</ele>
    <time>2014-02-21T10:09:41Z</time>
   </trkpt>
   <trkpt lat="32.6411500" lon="35.0945380">
    <ele>155.5</ele>
    <time>2014-02-21T10:09:42Z</time>
   </trkpt>
   <trkpt lat="32.6411620" lon="35.0945060">
    <ele>155.6</ele>
    <time>2014-02-21T10:09:43Z</time>
   </trkpt>
   <trkpt lat="32.6411750" lon="35.0944750">
    <ele>155.6</ele>
    <time>2014-02-21T10:09:44Z</time>
   </trkpt>
   <trkpt lat="32.6411870" lon="35.0944440">
    <ele>155.7</ele>
    <time>2014-02-21T10:09:45Z</time>
   </trkpt>
   <trkpt lat="32.6411970" lon="35.0944120">
    <ele>155.8</ele>
    <time>2014-02-21T10:09:46Z</time>
   </trkpt>
   <trkpt lat="32.6412050" lon="35.0943800">
    <ele>155.9</ele>
    <time>2014-02-21T10:09:47Z</time>
   </trkpt>
   <trkpt lat="32.6412120" lon="35.0943480">
    <ele>156.0</ele>
    <time>2014-02-21T10:09:48Z</time>
   </trkpt>
   <trkpt lat="32.6412190" lon="35.0943150">
    <ele>156.1</ele>
    <time>2014-02-21T10:09:49Z</time>
   </trkpt>
   <trkpt lat="32.6412250" lon="35.0942830">
    <ele>156.2</ele>
    <time>2014-02-21T10:09:50Z</time>
   </trkpt>
   <trkpt lat="32.6412340" lon="35.0942520">
    <ele>156.2</ele>
    <time>2014-02-21T10:09:51Z</time>
   </trkpt>
   <trkpt lat="32.6412450" lon="35.0942220">
    <ele>156.2</ele>
    <time>2014-02-21T10:09:52Z</time>
   </trkpt>
   <trkpt lat="32.6412730" lon="35.0941670">
    <ele>156.4</ele>
    <time>2014-02-21T10:09:54Z</time>
   </trkpt>
   <trkpt lat="32.6412880" lon="35.0941400">
    <ele>156.5</ele>
    <time>2014-02-21T10:09:55Z</time>
   </trkpt>
   <trkpt lat="32.6413160" lon="35.0940870">
    <ele>156.6</ele>
    <time>2014-02-21T10:09:57Z</time>
   </trkpt>
   <trkpt lat="32.6413460" lon="35.0940350">
    <ele>156.8</ele>
    <time>2014-02-21T10:09:59Z</time>
   </trkpt>
   <trkpt lat="32.6413780" lon="35.0939850">
    <ele>156.9</ele>
    <time>2014-02-21T10:10:01Z</time>
   </trkpt>
   <trkpt lat="32.6414090" lon="35.0939340">
    <ele>157.0</ele>
    <time>2014-02-21T10:10:03Z</time>
   </trkpt>
   <trkpt lat="32.6414370" lon="35.0938800">
    <ele>157.2</ele>
    <time>2014-02-21T10:10:05Z</time>
   </trkpt>
   <trkpt lat="32.6414500" lon="35.0938510">
    <ele>157.3</ele>
    <time>2014-02-21T10:10:06Z</time>
   </trkpt>
   <trkpt lat="32.6414610" lon="35.0938210">
    <ele>157.4</ele>
    <time>2014-02-21T10:10:07Z</time>
   </trkpt>
   <trkpt lat="32.6414800" lon="35.0937620">
    <ele>157.6</ele>
    <time>2014-02-21T10:10:09Z</time>
   </trkpt>
   <trkpt lat="32.6414960" lon="35.0937040">
    <ele>158.3</ele>
    <time>2014-02-21T10:10:11Z</time>
   </trkpt>
   <trkpt lat="32.6415100" lon="35.0936450">
    <ele>159.3</ele>
    <time>2014-02-21T10:10:13Z</time>
   </trkpt>
   <trkpt lat="32.6415240" lon="35.0935860">
    <ele>160.2</ele>
    <time>2014-02-21T10:10:15Z</time>
   </trkpt>
   <trkpt lat="32.6415390" lon="35.0935290">
    <ele>161.1</ele>
    <time>2014-02-21T10:10:17Z</time>
   </trkpt>
   <trkpt lat="32.6415530" lon="35.0934870">
    <ele>161.7</ele>
    <time>2014-02-21T10:10:19Z</time>
   </trkpt>
   <trkpt lat="32.6415720" lon="35.0934640">
    <ele>162.0</ele>
    <time>2014-02-21T10:10:21Z</time>
   </trkpt>
   <trkpt lat="32.6416050" lon="35.0934580">
    <ele>161.8</ele>
    <time>2014-02-21T10:10:23Z</time>
   </trkpt>
   <trkpt lat="32.6416480" lon="35.0934850">
    <ele>161.0</ele>
    <time>2014-02-21T10:10:25Z</time>
   </trkpt>
   <trkpt lat="32.6416810" lon="35.0935260">
    <ele>160.0</ele>
    <time>2014-02-21T10:10:27Z</time>
   </trkpt>
   <trkpt lat="32.6417190" lon="35.0935680">
    <ele>159.0</ele>
    <time>2014-02-21T10:10:29Z</time>
   </trkpt>
   <trkpt lat="32.6417580" lon="35.0936100">
    <ele>158.1</ele>
    <time>2014-02-21T10:10:31Z</time>
   </trkpt>
   <trkpt lat="32.6417910" lon="35.0936540">
    <ele>157.2</ele>
    <time>2014-02-21T10:10:33Z</time>
   </trkpt>
   <trkpt lat="32.6418200" lon="35.0937050">
    <ele>156.2</ele>
    <time>2014-02-21T10:10:35Z</time>
   </trkpt>
   <trkpt lat="32.6418430" lon="35.0937590">
    <ele>155.4</ele>
    <time>2014-02-21T10:10:37Z</time>
   </trkpt>
   <trkpt lat="32.6418710" lon="35.0938100">
    <ele>155.0</ele>
    <time>2014-02-21T10:10:39Z</time>
   </trkpt>
   <trkpt lat="32.6419040" lon="35.0938580">
    <ele>154.6</ele>
    <time>2014-02-21T10:10:41Z</time>
   </trkpt>
   <trkpt lat="32.6419440" lon="35.0938980">
    <ele>154.2</ele>
    <time>2014-02-21T10:10:43Z</time>
   </trkpt>
   <trkpt lat="32.6419870" lon="35.0939320">
    <ele>153.9</ele>
    <time>2014-02-21T10:10:45Z</time>
   </trkpt>
   <trkpt lat="32.6420320" lon="35.0939630">
    <ele>153.5</ele>
    <time>2014-02-21T10:10:47Z</time>
   </trkpt>
   <trkpt lat="32.6420770" lon="35.0939950">
    <ele>153.2</ele>
    <time>2014-02-21T10:10:49Z</time>
   </trkpt>
   <trkpt lat="32.6421240" lon="35.0940230">
    <ele>153.3</ele>
    <time>2014-02-21T10:10:51Z</time>
   </trkpt>
   <trkpt lat="32.6421500" lon="35.0940340">
    <ele>153.4</ele>
    <time>2014-02-21T10:10:52Z</time>
   </trkpt>
   <trkpt lat="32.6421760" lon="35.0940450">
    <ele>153.6</ele>
    <time>2014-02-21T10:10:53Z</time>
   </trkpt>
   <trkpt lat="32.6422020" lon="35.0940550">
    <ele>153.7</ele>
    <time>2014-02-21T10:10:54Z</time>
   </trkpt>
   <trkpt lat="32.6422280" lon="35.0940640">
    <ele>153.9</ele>
    <time>2014-02-21T10:10:55Z</time>
   </trkpt>
   <trkpt lat="32.6422800" lon="35.0940770">
    <ele>154.2</ele>
    <time>2014-02-21T10:10:57Z</time>
   </trkpt>
   <trkpt lat="32.6423300" lon="35.0940910">
    <ele>154.5</ele>
    <time>2014-02-21T10:10:59Z</time>
   </trkpt>
   <trkpt lat="32.6423780" lon="35.0941090">
    <ele>154.8</ele>
    <time>2014-02-21T10:11:01Z</time>
   </trkpt>
   <trkpt lat="32.6424290" lon="35.0941280">
    <ele>155.1</ele>
    <time>2014-02-21T10:11:03Z</time>
   </trkpt>
   <trkpt lat="32.6424780" lon="35.0941480">
    <ele>155.4</ele>
    <time>2014-02-21T10:11:05Z</time>
   </trkpt>
   <trkpt lat="32.6425240" lon="35.0941560">
    <ele>155.7</ele>
    <time>2014-02-21T10:11:07Z</time>
   </trkpt>
   <trkpt lat="32.6425560" lon="35.0941590">
    <ele>155.9</ele>
    <time>2014-02-21T10:11:19Z</time>
   </trkpt>
   <trkpt lat="32.6425900" lon="35.0941620">
    <ele>156.2</ele>
    <time>2014-02-21T10:11:22Z</time>
   </trkpt>
   <trkpt lat="32.6426250" lon="35.0941580">
    <ele>156.4</ele>
    <time>2014-02-21T10:11:26Z</time>
   </trkpt>
   <trkpt lat="32.6426660" lon="35.0941540">
    <ele>156.7</ele>
    <time>2014-02-21T10:11:29Z</time>
   </trkpt>
   <trkpt lat="32.6426990" lon="35.0941310">
    <ele>157.0</ele>
    <time>2014-02-21T10:11:31Z</time>
   </trkpt>
   <trkpt lat="32.6427230" lon="35.0940880">
    <ele>157.2</ele>
    <time>2014-02-21T10:11:33Z</time>
   </trkpt>
   <trkpt lat="32.6427350" lon="35.0940450">
    <ele>157.4</ele>
    <time>2014-02-21T10:11:35Z</time>
   </trkpt>
   <trkpt lat="32.6427330" lon="35.0940000">
    <ele>157.5</ele>
    <time>2014-02-21T10:11:37Z</time>
   </trkpt>
   <trkpt lat="32.6427210" lon="35.0939600">
    <ele>157.5</ele>
    <time>2014-02-21T10:11:39Z</time>
   </trkpt>
   <trkpt lat="32.6427010" lon="35.0939290">
    <ele>157.4</ele>
    <time>2014-02-21T10:11:41Z</time>
   </trkpt>
   <trkpt lat="32.6426830" lon="35.0939000">
    <ele>157.3</ele>
    <time>2014-02-21T10:11:43Z</time>
   </trkpt>
   <trkpt lat="32.6426600" lon="35.0938780">
    <ele>157.2</ele>
    <time>2014-02-21T10:11:45Z</time>
   </trkpt>
   <trkpt lat="32.6426410" lon="35.0938400">
    <ele>157.2</ele>
    <time>2014-02-21T10:11:48Z</time>
   </trkpt>
   <trkpt lat="32.6426380" lon="35.0938070">
    <ele>157.2</ele>
    <time>2014-02-21T10:11:50Z</time>
   </trkpt>
   <trkpt lat="32.6426410" lon="35.0937690">
    <ele>157.3</ele>
    <time>2014-02-21T10:11:52Z</time>
   </trkpt>
   <trkpt lat="32.6426440" lon="35.0937330">
    <ele>157.5</ele>
    <time>2014-02-21T10:11:54Z</time>
   </trkpt>
   <trkpt lat="32.6426450" lon="35.0936960">
    <ele>157.7</ele>
    <time>2014-02-21T10:12:35Z</time>
   </trkpt>
   <trkpt lat="32.6426270" lon="35.0937360">
    <ele>157.4</ele>
    <time>2014-02-21T10:12:43Z</time>
   </trkpt>
   <trkpt lat="32.6426080" lon="35.0937640">
    <ele>157.1</ele>
    <time>2014-02-21T10:12:48Z</time>
   </trkpt>
   <trkpt lat="32.6425990" lon="35.0937340">
    <ele>157.2</ele>
    <time>2014-02-21T10:13:51Z</time>
   </trkpt>
   <trkpt lat="32.6426250" lon="35.0937250">
    <ele>157.4</ele>
    <time>2014-02-21T10:18:10Z</time>
   </trkpt>
   <trkpt lat="32.6426200" lon="35.0937560">
    <ele>157.2</ele>
    <time>2014-02-21T10:18:58Z</time>
   </trkpt>
   <trkpt lat="32.6426350" lon="35.0937930">
    <ele>157.2</ele>
    <time>2014-02-21T10:19:03Z</time>
   </trkpt>
   <trkpt lat="32.6426280" lon="35.0938290">
    <ele>157.1</ele>
    <time>2014-02-21T10:19:07Z</time>
   </trkpt>
   <trkpt lat="32.6426460" lon="35.0938660">
    <ele>157.1</ele>
    <time>2014-02-21T10:19:11Z</time>
   </trkpt>
   <trkpt lat="32.6426680" lon="35.0938880">
    <ele>157.2</ele>
    <time>2014-02-21T10:19:13Z</time>
   </trkpt>
   <trkpt lat="32.6426870" lon="35.0939200">
    <ele>157.3</ele>
    <time>2014-02-21T10:19:16Z</time>
   </trkpt>
   <trkpt lat="32.6427050" lon="35.0939490">
    <ele>157.4</ele>
    <time>2014-02-21T10:19:19Z</time>
   </trkpt>
   <trkpt lat="32.6427140" lon="35.0939950">
    <ele>157.3</ele>
    <time>2014-02-21T10:19:21Z</time>
   </trkpt>
   <trkpt lat="32.6427110" lon="35.0940400">
    <ele>157.2</ele>
    <time>2014-02-21T10:19:23Z</time>
   </trkpt>
   <trkpt lat="32.6427000" lon="35.0940870">
    <ele>157.1</ele>
    <time>2014-02-21T10:19:25Z</time>
   </trkpt>
   <trkpt lat="32.6426790" lon="35.0941130">
    <ele>156.9</ele>
    <time>2014-02-21T10:19:27Z</time>
   </trkpt>
   <trkpt lat="32.6426510" lon="35.0941170">
    <ele>156.7</ele>
    <time>2014-02-21T10:19:29Z</time>
   </trkpt>
   <trkpt lat="32.6425990" lon="35.0941370">
    <ele>156.3</ele>
    <time>2014-02-21T10:19:32Z</time>
   </trkpt>
   <trkpt lat="32.6425030" lon="35.0941180">
    <ele>155.6</ele>
    <time>2014-02-21T10:19:33Z</time>
   </trkpt>
   <trkpt lat="32.6424060" lon="35.0940990">
    <ele>155.0</ele>
    <time>2014-02-21T10:19:34Z</time>
   </trkpt>
   <trkpt lat="32.6423170" lon="35.0940750">
    <ele>154.5</ele>
    <time>2014-02-21T10:19:35Z</time>
   </trkpt>
   <trkpt lat="32.6422270" lon="35.0940460">
    <ele>153.9</ele>
    <time>2014-02-21T10:19:36Z</time>
   </trkpt>
   <trkpt lat="32.6421430" lon="35.0940100">
    <ele>153.5</ele>
    <time>2014-02-21T10:19:37Z</time>
   </trkpt>
   <trkpt lat="32.6420720" lon="35.0939640">
    <ele>153.3</ele>
    <time>2014-02-21T10:19:38Z</time>
   </trkpt>
   <trkpt lat="32.6420020" lon="35.0939020">
    <ele>153.9</ele>
    <time>2014-02-21T10:19:39Z</time>
   </trkpt>
   <trkpt lat="32.6419400" lon="35.0938260">
    <ele>154.6</ele>
    <time>2014-02-21T10:19:40Z</time>
   </trkpt>
   <trkpt lat="32.6418950" lon="35.0937480">
    <ele>155.2</ele>
    <time>2014-02-21T10:19:41Z</time>
   </trkpt>
   <trkpt lat="32.6418400" lon="35.0936740">
    <ele>156.6</ele>
    <time>2014-02-21T10:19:42Z</time>
   </trkpt>
   <trkpt lat="32.6417840" lon="35.0936010">
    <ele>158.0</ele>
    <time>2014-02-21T10:19:43Z</time>
   </trkpt>
   <trkpt lat="32.6417120" lon="35.0935440">
    <ele>159.5</ele>
    <time>2014-02-21T10:19:44Z</time>
   </trkpt>
   <trkpt lat="32.6416440" lon="35.0934860">
    <ele>161.0</ele>
    <time>2014-02-21T10:19:45Z</time>
   </trkpt>
   <trkpt lat="32.6415940" lon="35.0934280">
    <ele>162.4</ele>
    <time>2014-02-21T10:19:46Z</time>
   </trkpt>
   <trkpt lat="32.6415800" lon="35.0933690">
    <ele>163.5</ele>
    <time>2014-02-21T10:19:47Z</time>
   </trkpt>
   <trkpt lat="32.6415850" lon="35.0933170">
    <ele>164.4</ele>
    <time>2014-02-21T10:19:48Z</time>
   </trkpt>
   <trkpt lat="32.6416020" lon="35.0932780">
    <ele>164.8</ele>
    <time>2014-02-21T10:19:49Z</time>
   </trkpt>
   <trkpt lat="32.6416280" lon="35.0932460">
    <ele>165.1</ele>
    <time>2014-02-21T10:19:50Z</time>
   </trkpt>
   <trkpt lat="32.6416440" lon="35.0932140">
    <ele>165.4</ele>
    <time>2014-02-21T10:19:51Z</time>
   </trkpt>
   <trkpt lat="32.6416520" lon="35.0931820">
    <ele>165.9</ele>
    <time>2014-02-21T10:19:52Z</time>
   </trkpt>
   <trkpt lat="32.6416630" lon="35.0931500">
    <ele>166.3</ele>
    <time>2014-02-21T10:19:53Z</time>
   </trkpt>
   <trkpt lat="32.6416750" lon="35.0930940">
    <ele>167.0</ele>
    <time>2014-02-21T10:19:55Z</time>
   </trkpt>
   <trkpt lat="32.6416820" lon="35.0930620">
    <ele>167.4</ele>
    <time>2014-02-21T10:19:56Z</time>
   </trkpt>
   <trkpt lat="32.6416930" lon="35.0930280">
    <ele>167.8</ele>
    <time>2014-02-21T10:19:57Z</time>
   </trkpt>
   <trkpt lat="32.6416980" lon="35.0929970">
    <ele>168.3</ele>
    <time>2014-02-21T10:19:58Z</time>
   </trkpt>
   <trkpt lat="32.6417010" lon="35.0929410">
    <ele>169.1</ele>
    <time>2014-02-21T10:20:00Z</time>
   </trkpt>
   <trkpt lat="32.6417070" lon="35.0928850">
    <ele>169.9</ele>
    <time>2014-02-21T10:20:02Z</time>
   </trkpt>
   <trkpt lat="32.6417130" lon="35.0928350">
    <ele>170.5</ele>
    <time>2014-02-21T10:20:04Z</time>
   </trkpt>
   <trkpt lat="32.6417150" lon="35.0927910">
    <ele>171.1</ele>
    <time>2014-02-21T10:20:06Z</time>
   </trkpt>
   <trkpt lat="32.6417160" lon="35.0927450">
    <ele>171.8</ele>
    <time>2014-02-21T10:20:08Z</time>
   </trkpt>
   <trkpt lat="32.6417190" lon="35.0927010">
    <ele>172.4</ele>
    <time>2014-02-21T10:20:10Z</time>
   </trkpt>
   <trkpt lat="32.6417160" lon="35.0926560">
    <ele>173.1</ele>
    <time>2014-02-21T10:20:12Z</time>
   </trkpt>
   <trkpt lat="32.6417070" lon="35.0926110">
    <ele>173.9</ele>
    <time>2014-02-21T10:20:14Z</time>
   </trkpt>
   <trkpt lat="32.6416950" lon="35.0925670">
    <ele>174.8</ele>
    <time>2014-02-21T10:20:16Z</time>
   </trkpt>
   <trkpt lat="32.6416740" lon="35.0925290">
    <ele>175.7</ele>
    <time>2014-02-21T10:20:18Z</time>
   </trkpt>
   <trkpt lat="32.6416430" lon="35.0924980">
    <ele>176.7</ele>
    <time>2014-02-21T10:20:20Z</time>
   </trkpt>
   <trkpt lat="32.6416060" lon="35.0924770">
    <ele>177.7</ele>
    <time>2014-02-21T10:20:22Z</time>
   </trkpt>
   <trkpt lat="32.6415630" lon="35.0924710">
    <ele>178.5</ele>
    <time>2014-02-21T10:20:24Z</time>
   </trkpt>
   <trkpt lat="32.6415210" lon="35.0924810">
    <ele>179.1</ele>
    <time>2014-02-21T10:20:26Z</time>
   </trkpt>
   <trkpt lat="32.6414820" lon="35.0925020">
    <ele>179.4</ele>
    <time>2014-02-21T10:20:28Z</time>
   </trkpt>
   <trkpt lat="32.6414400" lon="35.0925220">
    <ele>179.8</ele>
    <time>2014-02-21T10:20:30Z</time>
   </trkpt>
   <trkpt lat="32.6413920" lon="35.0925420">
    <ele>180.3</ele>
    <time>2014-02-21T10:20:32Z</time>
   </trkpt>
   <trkpt lat="32.6413440" lon="35.0925640">
    <ele>180.8</ele>
    <time>2014-02-21T10:20:34Z</time>
   </trkpt>
   <trkpt lat="32.6412950" lon="35.0925830">
    <ele>181.2</ele>
    <time>2014-02-21T10:20:36Z</time>
   </trkpt>
   <trkpt lat="32.6412430" lon="35.0926010">
    <ele>181.8</ele>
    <time>2014-02-21T10:20:38Z</time>
   </trkpt>
   <trkpt lat="32.6412170" lon="35.0926130">
    <ele>182.0</ele>
    <time>2014-02-21T10:20:39Z</time>
   </trkpt>
   <trkpt lat="32.6411940" lon="35.0926290">
    <ele>182.1</ele>
    <time>2014-02-21T10:20:40Z</time>
   </trkpt>
   <trkpt lat="32.6411540" lon="35.0926710">
    <ele>182.0</ele>
    <time>2014-02-21T10:20:42Z</time>
   </trkpt>
   <trkpt lat="32.6411150" lon="35.0927060">
    <ele>182.0</ele>
    <time>2014-02-21T10:20:44Z</time>
   </trkpt>
   <trkpt lat="32.6410770" lon="35.0927390">
    <ele>182.0</ele>
    <time>2014-02-21T10:20:46Z</time>
   </trkpt>
   <trkpt lat="32.6410360" lon="35.0927760">
    <ele>182.0</ele>
    <time>2014-02-21T10:20:48Z</time>
   </trkpt>
   <trkpt lat="32.6410150" lon="35.0927980">
    <ele>181.9</ele>
    <time>2014-02-21T10:20:49Z</time>
   </trkpt>
   <trkpt lat="32.6409940" lon="35.0928190">
    <ele>181.8</ele>
    <time>2014-02-21T10:20:50Z</time>
   </trkpt>
   <trkpt lat="32.6409700" lon="35.0928360">
    <ele>181.9</ele>
    <time>2014-02-21T10:20:51Z</time>
   </trkpt>
   <trkpt lat="32.6409450" lon="35.0928530">
    <ele>182.0</ele>
    <time>2014-02-21T10:20:52Z</time>
   </trkpt>
   <trkpt lat="32.6409190" lon="35.0928710">
    <ele>182.0</ele>
    <time>2014-02-21T10:20:53Z</time>
   </trkpt>
   <trkpt lat="32.6408940" lon="35.0928900">
    <ele>182.1</ele>
    <time>2014-02-21T10:20:54Z</time>
   </trkpt>
   <trkpt lat="32.6408680" lon="35.0929110">
    <ele>182.1</ele>
    <time>2014-02-21T10:20:55Z</time>
   </trkpt>
   <trkpt lat="32.6408420" lon="35.0929310">
    <ele>182.1</ele>
    <time>2014-02-21T10:20:56Z</time>
   </trkpt>
   <trkpt lat="32.6408170" lon="35.0929550">
    <ele>182.1</ele>
    <time>2014-02-21T10:20:57Z</time>
   </trkpt>
   <trkpt lat="32.6407920" lon="35.0929760">
    <ele>182.1</ele>
    <time>2014-02-21T10:20:58Z</time>
   </trkpt>
   <trkpt lat="32.6407680" lon="35.0929970">
    <ele>182.1</ele>
    <time>2014-02-21T10:20:59Z</time>
   </trkpt>
   <trkpt lat="32.6407440" lon="35.0930190">
    <ele>182.1</ele>
    <time>2014-02-21T10:21:00Z</time>
   </trkpt>
   <trkpt lat="32.6407210" lon="35.0930410">
    <ele>182.1</ele>
    <time>2014-02-21T10:21:01Z</time>
   </trkpt>
   <trkpt lat="32.6406990" lon="35.0930630">
    <ele>182.1</ele>
    <time>2014-02-21T10:21:02Z</time>
   </trkpt>
   <trkpt lat="32.6406760" lon="35.0930860">
    <ele>182.1</ele>
    <time>2014-02-21T10:21:03Z</time>
   </trkpt>
   <trkpt lat="32.6406520" lon="35.0931090">
    <ele>182.1</ele>
    <time>2014-02-21T10:21:04Z</time>
   </trkpt>
   <trkpt lat="32.6406290" lon="35.0931330">
    <ele>182.0</ele>
    <time>2014-02-21T10:21:05Z</time>
   </trkpt>
   <trkpt lat="32.6406040" lon="35.0931550">
    <ele>182.1</ele>
    <time>2014-02-21T10:21:06Z</time>
   </trkpt>
   <trkpt lat="32.6405790" lon="35.0931790">
    <ele>182.1</ele>
    <time>2014-02-21T10:21:07Z</time>
   </trkpt>
   <trkpt lat="32.6405540" lon="35.0932020">
    <ele>182.2</ele>
    <time>2014-02-21T10:21:08Z</time>
   </trkpt>
   <trkpt lat="32.6405300" lon="35.0932230">
    <ele>182.3</ele>
    <time>2014-02-21T10:21:09Z</time>
   </trkpt>
   <trkpt lat="32.6405050" lon="35.0932440">
    <ele>182.3</ele>
    <time>2014-02-21T10:21:10Z</time>
   </trkpt>
   <trkpt lat="32.6404800" lon="35.0932650">
    <ele>182.5</ele>
    <time>2014-02-21T10:21:11Z</time>
   </trkpt>
   <trkpt lat="32.6404560" lon="35.0932870">
    <ele>182.5</ele>
    <time>2014-02-21T10:21:12Z</time>
   </trkpt>
   <trkpt lat="32.6404300" lon="35.0933090">
    <ele>182.6</ele>
    <time>2014-02-21T10:21:13Z</time>
   </trkpt>
   <trkpt lat="32.6404040" lon="35.0933290">
    <ele>182.8</ele>
    <time>2014-02-21T10:21:14Z</time>
   </trkpt>
   <trkpt lat="32.6403780" lon="35.0933490">
    <ele>183.1</ele>
    <time>2014-02-21T10:21:15Z</time>
   </trkpt>
   <trkpt lat="32.6403530" lon="35.0933710">
    <ele>183.3</ele>
    <time>2014-02-21T10:21:16Z</time>
   </trkpt>
   <trkpt lat="32.6403290" lon="35.0933920">
    <ele>183.5</ele>
    <time>2014-02-21T10:21:17Z</time>
   </trkpt>
   <trkpt lat="32.6403060" lon="35.0934130">
    <ele>183.7</ele>
    <time>2014-02-21T10:21:18Z</time>
   </trkpt>
   <trkpt lat="32.6402830" lon="35.0934330">
    <ele>183.9</ele>
    <time>2014-02-21T10:21:19Z</time>
   </trkpt>
   <trkpt lat="32.6402560" lon="35.0934540">
    <ele>184.1</ele>
    <time>2014-02-21T10:21:20Z</time>
   </trkpt>
   <trkpt lat="32.6402290" lon="35.0934760">
    <ele>184.3</ele>
    <time>2014-02-21T10:21:21Z</time>
   </trkpt>
   <trkpt lat="32.6402010" lon="35.0934990">
    <ele>184.5</ele>
    <time>2014-02-21T10:21:22Z</time>
   </trkpt>
   <trkpt lat="32.6401740" lon="35.0935240">
    <ele>184.7</ele>
    <time>2014-02-21T10:21:23Z</time>
   </trkpt>
   <trkpt lat="32.6401480" lon="35.0935480">
    <ele>184.9</ele>
    <time>2014-02-21T10:21:24Z</time>
   </trkpt>
   <trkpt lat="32.6401220" lon="35.0935720">
    <ele>185.0</ele>
    <time>2014-02-21T10:21:25Z</time>
   </trkpt>
   <trkpt lat="32.6400960" lon="35.0935950">
    <ele>185.2</ele>
    <time>2014-02-21T10:21:26Z</time>
   </trkpt>
   <trkpt lat="32.6400710" lon="35.0936170">
    <ele>185.3</ele>
    <time>2014-02-21T10:21:27Z</time>
   </trkpt>
   <trkpt lat="32.6400480" lon="35.0936390">
    <ele>185.4</ele>
    <time>2014-02-21T10:21:28Z</time>
   </trkpt>
   <trkpt lat="32.6400230" lon="35.0936600">
    <ele>185.6</ele>
    <time>2014-02-21T10:21:29Z</time>
   </trkpt>
   <trkpt lat="32.6399990" lon="35.0936810">
    <ele>185.7</ele>
    <time>2014-02-21T10:21:30Z</time>
   </trkpt>
   <trkpt lat="32.6399740" lon="35.0937020">
    <ele>185.9</ele>
    <time>2014-02-21T10:21:31Z</time>
   </trkpt>
   <trkpt lat="32.6399480" lon="35.0937200">
    <ele>186.1</ele>
    <time>2014-02-21T10:21:32Z</time>
   </trkpt>
   <trkpt lat="32.6399210" lon="35.0937360">
    <ele>186.4</ele>
    <time>2014-02-21T10:21:33Z</time>
   </trkpt>
   <trkpt lat="32.6398930" lon="35.0937500">
    <ele>186.7</ele>
    <time>2014-02-21T10:21:34Z</time>
   </trkpt>
   <trkpt lat="32.6398660" lon="35.0937640">
    <ele>187.0</ele>
    <time>2014-02-21T10:21:35Z</time>
   </trkpt>
   <trkpt lat="32.6398390" lon="35.0937770">
    <ele>187.3</ele>
    <time>2014-02-21T10:21:36Z</time>
   </trkpt>
   <trkpt lat="32.6398110" lon="35.0937890">
    <ele>187.7</ele>
    <time>2014-02-21T10:21:37Z</time>
   </trkpt>
   <trkpt lat="32.6397870" lon="35.0938030">
    <ele>187.9</ele>
    <time>2014-02-21T10:21:38Z</time>
   </trkpt>
   <trkpt lat="32.6397400" lon="35.0938340">
    <ele>188.3</ele>
    <time>2014-02-21T10:21:40Z</time>
   </trkpt>
   <trkpt lat="32.6397160" lon="35.0938490">
    <ele>188.5</ele>
    <time>2014-02-21T10:21:41Z</time>
   </trkpt>
   <trkpt lat="32.6396700" lon="35.0938810">
    <ele>188.8</ele>
    <time>2014-02-21T10:21:43Z</time>
   </trkpt>
   <trkpt lat="32.6396460" lon="35.0938980">
    <ele>188.9</ele>
    <time>2014-02-21T10:21:44Z</time>
   </trkpt>
   <trkpt lat="32.6396200" lon="35.0939170">
    <ele>189.1</ele>
    <time>2014-02-21T10:21:45Z</time>
   </trkpt>
   <trkpt lat="32.6395960" lon="35.0939350">
    <ele>189.2</ele>
    <time>2014-02-21T10:21:46Z</time>
   </trkpt>
   <trkpt lat="32.6395720" lon="35.0939540">
    <ele>189.2</ele>
    <time>2014-02-21T10:21:47Z</time>
   </trkpt>
   <trkpt lat="32.6395490" lon="35.0939730">
    <ele>189.0</ele>
    <time>2014-02-21T10:21:48Z</time>
   </trkpt>
   <trkpt lat="32.6395250" lon="35.0939910">
    <ele>188.8</ele>
    <time>2014-02-21T10:21:49Z</time>
   </trkpt>
   <trkpt lat="32.6395010" lon="35.0940090">
    <ele>188.7</ele>
    <time>2014-02-21T10:21:50Z</time>
   </trkpt>
   <trkpt lat="32.6394770" lon="35.0940250">
    <ele>188.5</ele>
    <time>2014-02-21T10:21:51Z</time>
   </trkpt>
   <trkpt lat="32.6394510" lon="35.0940410">
    <ele>188.4</ele>
    <time>2014-02-21T10:21:52Z</time>
   </trkpt>
   <trkpt lat="32.6394260" lon="35.0940550">
    <ele>188.3</ele>
    <time>2014-02-21T10:21:53Z</time>
   </trkpt>
   <trkpt lat="32.6393990" lon="35.0940690">
    <ele>188.3</ele>
    <time>2014-02-21T10:21:54Z</time>
   </trkpt>
   <trkpt lat="32.6393730" lon="35.0940820">
    <ele>188.2</ele>
    <time>2014-02-21T10:21:55Z</time>
   </trkpt>
   <trkpt lat="32.6393470" lon="35.0940950">
    <ele>188.2</ele>
    <time>2014-02-21T10:21:56Z</time>
   </trkpt>
   <trkpt lat="32.6393200" lon="35.0941070">
    <ele>188.2</ele>
    <time>2014-02-21T10:21:57Z</time>
   </trkpt>
   <trkpt lat="32.6392950" lon="35.0941180">
    <ele>188.2</ele>
    <time>2014-02-21T10:21:58Z</time>
   </trkpt>
   <trkpt lat="32.6392470" lon="35.0941430">
    <ele>188.1</ele>
    <time>2014-02-21T10:22:00Z</time>
   </trkpt>
   <trkpt lat="32.6392100" lon="35.0941620">
    <ele>188.0</ele>
    <time>2014-02-21T10:22:02Z</time>
   </trkpt>
   <trkpt lat="32.6391660" lon="35.0941810">
    <ele>188.0</ele>
    <time>2014-02-21T10:22:04Z</time>
   </trkpt>
   <trkpt lat="32.6391240" lon="35.0942030">
    <ele>187.9</ele>
    <time>2014-02-21T10:22:06Z</time>
   </trkpt>
   <trkpt lat="32.6390820" lon="35.0942240">
    <ele>187.9</ele>
    <time>2014-02-21T10:22:08Z</time>
   </trkpt>
   <trkpt lat="32.6390410" lon="35.0942490">
    <ele>187.7</ele>
    <time>2014-02-21T10:22:10Z</time>
   </trkpt>
   <trkpt lat="32.6390020" lon="35.0942760">
    <ele>187.5</ele>
    <time>2014-02-21T10:22:12Z</time>
   </trkpt>
   <trkpt lat="32.6389600" lon="35.0942960">
    <ele>187.5</ele>
    <time>2014-02-21T10:22:14Z</time>
   </trkpt>
   <trkpt lat="32.6389170" lon="35.0943160">
    <ele>187.5</ele>
    <time>2014-02-21T10:22:16Z</time>
   </trkpt>
   <trkpt lat="32.6388760" lon="35.0943370">
    <ele>187.4</ele>
    <time>2014-02-21T10:22:18Z</time>
   </trkpt>
   <trkpt lat="32.6388350" lon="35.0943580">
    <ele>187.4</ele>
    <time>2014-02-21T10:22:20Z</time>
   </trkpt>
   <trkpt lat="32.6387950" lon="35.0943850">
    <ele>187.2</ele>
    <time>2014-02-21T10:22:22Z</time>
   </trkpt>
   <trkpt lat="32.6387560" lon="35.0944140">
    <ele>187.0</ele>
    <time>2014-02-21T10:22:24Z</time>
   </trkpt>
   <trkpt lat="32.6387190" lon="35.0944420">
    <ele>186.4</ele>
    <time>2014-02-21T10:22:26Z</time>
   </trkpt>
   <trkpt lat="32.6386830" lon="35.0944750">
    <ele>185.7</ele>
    <time>2014-02-21T10:22:28Z</time>
   </trkpt>
   <trkpt lat="32.6386470" lon="35.0945110">
    <ele>185.0</ele>
    <time>2014-02-21T10:22:30Z</time>
   </trkpt>
   <trkpt lat="32.6386100" lon="35.0945440">
    <ele>184.3</ele>
    <time>2014-02-21T10:22:32Z</time>
   </trkpt>
   <trkpt lat="32.6385740" lon="35.0945770">
    <ele>183.7</ele>
    <time>2014-02-21T10:22:34Z</time>
   </trkpt>
   <trkpt lat="32.6385390" lon="35.0946100">
    <ele>183.4</ele>
    <time>2014-02-21T10:22:36Z</time>
   </trkpt>
   <trkpt lat="32.6385000" lon="35.0946390">
    <ele>183.3</ele>
    <time>2014-02-21T10:22:38Z</time>
   </trkpt>
   <trkpt lat="32.6384640" lon="35.0946710">
    <ele>183.2</ele>
    <time>2014-02-21T10:22:40Z</time>
   </trkpt>
   <trkpt lat="32.6384300" lon="35.0947010">
    <ele>183.1</ele>
    <time>2014-02-21T10:22:42Z</time>
   </trkpt>
   <trkpt lat="32.6383890" lon="35.0947190">
    <ele>183.0</ele>
    <time>2014-02-21T10:22:44Z</time>
   </trkpt>
   <trkpt lat="32.6383450" lon="35.0947280">
    <ele>182.9</ele>
    <time>2014-02-21T10:22:46Z</time>
   </trkpt>
   <trkpt lat="32.6382970" lon="35.0947270">
    <ele>182.9</ele>
    <time>2014-02-21T10:22:48Z</time>
   </trkpt>
   <trkpt lat="32.6382490" lon="35.0947250">
    <ele>182.8</ele>
    <time>2014-02-21T10:22:50Z</time>
   </trkpt>
   <trkpt lat="32.6382020" lon="35.0947200">
    <ele>182.7</ele>
    <time>2014-02-21T10:22:52Z</time>
   </trkpt>
   <trkpt lat="32.6381530" lon="35.0947170">
    <ele>182.7</ele>
    <time>2014-02-21T10:22:54Z</time>
   </trkpt>
   <trkpt lat="32.6381010" lon="35.0947180">
    <ele>182.6</ele>
    <time>2014-02-21T10:22:56Z</time>
   </trkpt>
   <trkpt lat="32.6380670" lon="35.0947180">
    <ele>182.5</ele>
    <time>2014-02-21T10:22:57Z</time>
   </trkpt>
   <trkpt lat="32.6380350" lon="35.0947190">
    <ele>182.5</ele>
    <time>2014-02-21T10:22:58Z</time>
   </trkpt>
   <trkpt lat="32.6380040" lon="35.0947200">
    <ele>182.5</ele>
    <time>2014-02-21T10:22:59Z</time>
   </trkpt>
   <trkpt lat="32.6379740" lon="35.0947200">
    <ele>182.4</ele>
    <time>2014-02-21T10:23:00Z</time>
   </trkpt>
   <trkpt lat="32.6379450" lon="35.0947190">
    <ele>182.4</ele>
    <time>2014-02-21T10:23:01Z</time>
   </trkpt>
   <trkpt lat="32.6379150" lon="35.0947150">
    <ele>182.3</ele>
    <time>2014-02-21T10:23:02Z</time>
   </trkpt>
   <trkpt lat="32.6378840" lon="35.0947120">
    <ele>182.3</ele>
    <time>2014-02-21T10:23:03Z</time>
   </trkpt>
   <trkpt lat="32.6378510" lon="35.0947090">
    <ele>182.3</ele>
    <time>2014-02-21T10:23:04Z</time>
   </trkpt>
   <trkpt lat="32.6378090" lon="35.0947060">
    <ele>182.4</ele>
    <time>2014-02-21T10:23:05Z</time>
   </trkpt>
   <trkpt lat="32.6377670" lon="35.0947030">
    <ele>182.4</ele>
    <time>2014-02-21T10:23:06Z</time>
   </trkpt>
   <trkpt lat="32.6377240" lon="35.0947010">
    <ele>182.4</ele>
    <time>2014-02-21T10:23:07Z</time>
   </trkpt>
   <trkpt lat="32.6376800" lon="35.0946960">
    <ele>182.5</ele>
    <time>2014-02-21T10:23:08Z</time>
   </trkpt>
   <trkpt lat="32.6376170" lon="35.0946760">
    <ele>182.5</ele>
    <time>2014-02-21T10:23:09Z</time>
   </trkpt>
   <trkpt lat="32.6375630" lon="35.0946530">
    <ele>182.7</ele>
    <time>2014-02-21T10:23:10Z</time>
   </trkpt>
   <trkpt lat="32.6375000" lon="35.0946170">
    <ele>182.9</ele>
    <time>2014-02-21T10:23:11Z</time>
   </trkpt>
   <trkpt lat="32.6374480" lon="35.0945680">
    <ele>183.3</ele>
    <time>2014-02-21T10:23:12Z</time>
   </trkpt>
   <trkpt lat="32.6374050" lon="35.0945060">
    <ele>184.3</ele>
    <time>2014-02-21T10:23:13Z</time>
   </trkpt>
   <trkpt lat="32.6373780" lon="35.0944320">
    <ele>185.4</ele>
    <time>2014-02-21T10:23:14Z</time>
   </trkpt>
   <trkpt lat="32.6373580" lon="35.0943650">
    <ele>186.5</ele>
    <time>2014-02-21T10:23:15Z</time>
   </trkpt>
   <trkpt lat="32.6373460" lon="35.0942900">
    <ele>187.7</ele>
    <time>2014-02-21T10:23:16Z</time>
   </trkpt>
   <trkpt lat="32.6373450" lon="35.0942260">
    <ele>188.6</ele>
    <time>2014-02-21T10:23:17Z</time>
   </trkpt>
   <trkpt lat="32.6373510" lon="35.0941790">
    <ele>189.2</ele>
    <time>2014-02-21T10:23:18Z</time>
   </trkpt>
   <trkpt lat="32.6373540" lon="35.0941410">
    <ele>189.8</ele>
    <time>2014-02-21T10:23:19Z</time>
   </trkpt>
   <trkpt lat="32.6373610" lon="35.0940770">
    <ele>190.6</ele>
    <time>2014-02-21T10:23:21Z</time>
   </trkpt>
   <trkpt lat="32.6373590" lon="35.0940410">
    <ele>191.2</ele>
    <time>2014-02-21T10:23:22Z</time>
   </trkpt>
   <trkpt lat="32.6373570" lon="35.0940070">
    <ele>191.7</ele>
    <time>2014-02-21T10:23:23Z</time>
   </trkpt>
   <trkpt lat="32.6373560" lon="35.0939750">
    <ele>192.1</ele>
    <time>2014-02-21T10:23:24Z</time>
   </trkpt>
   <trkpt lat="32.6373530" lon="35.0939390">
    <ele>192.7</ele>
    <time>2014-02-21T10:23:25Z</time>
   </trkpt>
   <trkpt lat="32.6373380" lon="35.0938780">
    <ele>193.8</ele>
    <time>2014-02-21T10:23:27Z</time>
   </trkpt>
   <trkpt lat="32.6373270" lon="35.0938450">
    <ele>194.4</ele>
    <time>2014-02-21T10:23:28Z</time>
   </trkpt>
   <trkpt lat="32.6373140" lon="35.0938120">
    <ele>195.0</ele>
    <time>2014-02-21T10:23:29Z</time>
   </trkpt>
   <trkpt lat="32.6372990" lon="35.0937790">
    <ele>195.7</ele>
    <time>2014-02-21T10:23:30Z</time>
   </trkpt>
   <trkpt lat="32.6372830" lon="35.0937480">
    <ele>196.4</ele>
    <time>2014-02-21T10:23:31Z</time>
   </trkpt>
   <trkpt lat="32.6372630" lon="35.0937190">
    <ele>196.8</ele>
    <time>2014-02-21T10:23:32Z</time>
   </trkpt>
   <trkpt lat="32.6372410" lon="35.0936920">
    <ele>197.3</ele>
    <time>2014-02-21T10:23:33Z</time>
   </trkpt>
   <trkpt lat="32.6372160" lon="35.0936690">
    <ele>197.7</ele>
    <time>2014-02-21T10:23:34Z</time>
   </trkpt>
   <trkpt lat="32.6371880" lon="35.0936500">
    <ele>198.2</ele>
    <time>2014-02-21T10:23:35Z</time>
   </trkpt>
   <trkpt lat="32.6371570" lon="35.0936390">
    <ele>198.6</ele>
    <time>2014-02-21T10:23:36Z</time>
   </trkpt>
   <trkpt lat="32.6371250" lon="35.0936330">
    <ele>199.0</ele>
    <time>2014-02-21T10:23:37Z</time>
   </trkpt>
   <trkpt lat="32.6370940" lon="35.0936290">
    <ele>199.4</ele>
    <time>2014-02-21T10:23:38Z</time>
   </trkpt>
   <trkpt lat="32.6370650" lon="35.0936230">
    <ele>199.8</ele>
    <time>2014-02-21T10:23:39Z</time>
   </trkpt>
   <trkpt lat="32.6370320" lon="35.0935870">
    <ele>200.4</ele>
    <time>2014-02-21T10:23:41Z</time>
   </trkpt>
   <trkpt lat="32.6370250" lon="35.0935300">
    <ele>200.8</ele>
    <time>2014-02-21T10:23:43Z</time>
   </trkpt>
   <trkpt lat="32.6370230" lon="35.0934690">
    <ele>201.1</ele>
    <time>2014-02-21T10:23:45Z</time>
   </trkpt>
   <trkpt lat="32.6370150" lon="35.0934070">
    <ele>201.5</ele>
    <time>2014-02-21T10:23:47Z</time>
   </trkpt>
   <trkpt lat="32.6370110" lon="35.0933450">
    <ele>201.9</ele>
    <time>2014-02-21T10:23:49Z</time>
   </trkpt>
   <trkpt lat="32.6370150" lon="35.0932880">
    <ele>202.1</ele>
    <time>2014-02-21T10:23:51Z</time>
   </trkpt>
   <trkpt lat="32.6370180" lon="35.0932350">
    <ele>202.4</ele>
    <time>2014-02-21T10:23:53Z</time>
   </trkpt>
   <trkpt lat="32.6370160" lon="35.0931880">
    <ele>202.6</ele>
    <time>2014-02-21T10:23:55Z</time>
   </trkpt>
   <trkpt lat="32.6370170" lon="35.0931390">
    <ele>202.8</ele>
    <time>2014-02-21T10:23:57Z</time>
   </trkpt>
   <trkpt lat="32.6370320" lon="35.0930950">
    <ele>202.9</ele>
    <time>2014-02-21T10:23:59Z</time>
   </trkpt>
   <trkpt lat="32.6370430" lon="35.0930500">
    <ele>202.9</ele>
    <time>2014-02-21T10:24:01Z</time>
   </trkpt>
   <trkpt lat="32.6370510" lon="35.0930030">
    <ele>203.0</ele>
    <time>2014-02-21T10:24:03Z</time>
   </trkpt>
   <trkpt lat="32.6370560" lon="35.0929530">
    <ele>203.2</ele>
    <time>2014-02-21T10:24:05Z</time>
   </trkpt>
   <trkpt lat="32.6370580" lon="35.0929010">
    <ele>203.4</ele>
    <time>2014-02-21T10:24:07Z</time>
   </trkpt>
   <trkpt lat="32.6370570" lon="35.0928470">
    <ele>203.7</ele>
    <time>2014-02-21T10:24:09Z</time>
   </trkpt>
   <trkpt lat="32.6370590" lon="35.0927910">
    <ele>203.9</ele>
    <time>2014-02-21T10:24:11Z</time>
   </trkpt>
   <trkpt lat="32.6370650" lon="35.0927360">
    <ele>204.1</ele>
    <time>2014-02-21T10:24:13Z</time>
   </trkpt>
   <trkpt lat="32.6370780" lon="35.0926810">
    <ele>204.2</ele>
    <time>2014-02-21T10:24:15Z</time>
   </trkpt>
   <trkpt lat="32.6370900" lon="35.0926490">
    <ele>204.2</ele>
    <time>2014-02-21T10:24:16Z</time>
   </trkpt>
   <trkpt lat="32.6371100" lon="35.0925920">
    <ele>204.4</ele>
    <time>2014-02-21T10:24:18Z</time>
   </trkpt>
   <trkpt lat="32.6371160" lon="35.0925330">
    <ele>204.7</ele>
    <time>2014-02-21T10:24:20Z</time>
   </trkpt>
   <trkpt lat="32.6370970" lon="35.0924750">
    <ele>205.1</ele>
    <time>2014-02-21T10:24:22Z</time>
   </trkpt>
   <trkpt lat="32.6370780" lon="35.0924490">
    <ele>205.3</ele>
    <time>2014-02-21T10:24:23Z</time>
   </trkpt>
   <trkpt lat="32.6370570" lon="35.0924250">
    <ele>205.6</ele>
    <time>2014-02-21T10:24:24Z</time>
   </trkpt>
   <trkpt lat="32.6370370" lon="35.0924020">
    <ele>206.0</ele>
    <time>2014-02-21T10:24:25Z</time>
   </trkpt>
   <trkpt lat="32.6370180" lon="35.0923770">
    <ele>206.3</ele>
    <time>2014-02-21T10:24:26Z</time>
   </trkpt>
   <trkpt lat="32.6370000" lon="35.0923510">
    <ele>206.6</ele>
    <time>2014-02-21T10:24:27Z</time>
   </trkpt>
   <trkpt lat="32.6369830" lon="35.0923260">
    <ele>206.9</ele>
    <time>2014-02-21T10:24:28Z</time>
   </trkpt>
   <trkpt lat="32.6369620" lon="35.0922760">
    <ele>207.3</ele>
    <time>2014-02-21T10:24:30Z</time>
   </trkpt>
   <trkpt lat="32.6369630" lon="35.0922340">
    <ele>207.4</ele>
    <time>2014-02-21T10:24:32Z</time>
   </trkpt>
   <trkpt lat="32.6369780" lon="35.0921930">
    <ele>207.4</ele>
    <time>2014-02-21T10:24:34Z</time>
   </trkpt>
   <trkpt lat="32.6370040" lon="35.0921540">
    <ele>207.4</ele>
    <time>2014-02-21T10:24:36Z</time>
   </trkpt>
   <trkpt lat="32.6370390" lon="35.0921150">
    <ele>207.2</ele>
    <time>2014-02-21T10:24:38Z</time>
   </trkpt>
   <trkpt lat="32.6370860" lon="35.0920950">
    <ele>206.9</ele>
    <time>2014-02-21T10:24:40Z</time>
   </trkpt>
   <trkpt lat="32.6371340" lon="35.0920800">
    <ele>207.0</ele>
    <time>2014-02-21T10:24:42Z</time>
   </trkpt>
   <trkpt lat="32.6371780" lon="35.0920570">
    <ele>207.1</ele>
    <time>2014-02-21T10:24:44Z</time>
   </trkpt>
   <trkpt lat="32.6372220" lon="35.0920630">
    <ele>207.0</ele>
    <time>2014-02-21T10:24:46Z</time>
   </trkpt>
   <trkpt lat="32.6372650" lon="35.0920690">
    <ele>206.9</ele>
    <time>2014-02-21T10:24:48Z</time>
   </trkpt>
   <trkpt lat="32.6373060" lon="35.0920570">
    <ele>206.9</ele>
    <time>2014-02-21T10:24:50Z</time>
   </trkpt>
   <trkpt lat="32.6373420" lon="35.0920300">
    <ele>207.1</ele>
    <time>2014-02-21T10:24:52Z</time>
   </trkpt>
   <trkpt lat="32.6373710" lon="35.0919870">
    <ele>207.4</ele>
    <time>2014-02-21T10:24:54Z</time>
   </trkpt>
   <trkpt lat="32.6373910" lon="35.0919360">
    <ele>207.7</ele>
    <time>2014-02-21T10:24:56Z</time>
   </trkpt>
   <trkpt lat="32.6374090" lon="35.0918840">
    <ele>208.1</ele>
    <time>2014-02-21T10:24:58Z</time>
   </trkpt>
   <trkpt lat="32.6374240" lon="35.0918310">
    <ele>208.5</ele>
    <time>2014-02-21T10:25:00Z</time>
   </trkpt>
   <trkpt lat="32.6374290" lon="35.0917800">
    <ele>208.9</ele>
    <time>2014-02-21T10:25:02Z</time>
   </trkpt>
   <trkpt lat="32.6374270" lon="35.0917300">
    <ele>209.2</ele>
    <time>2014-02-21T10:25:04Z</time>
   </trkpt>
   <trkpt lat="32.6374180" lon="35.0916820">
    <ele>209.6</ele>
    <time>2014-02-21T10:25:06Z</time>
   </trkpt>
   <trkpt lat="32.6374150" lon="35.0916390">
    <ele>209.9</ele>
    <time>2014-02-21T10:25:08Z</time>
   </trkpt>
   <trkpt lat="32.6374220" lon="35.0916060">
    <ele>210.2</ele>
    <time>2014-02-21T10:25:10Z</time>
   </trkpt>
   <trkpt lat="32.6374120" lon="35.0915690">
    <ele>210.4</ele>
    <time>2014-02-21T10:25:12Z</time>
   </trkpt>
   <trkpt lat="32.6373840" lon="35.0915410">
    <ele>210.6</ele>
    <time>2014-02-21T10:25:14Z</time>
   </trkpt>
   <trkpt lat="32.6373460" lon="35.0915170">
    <ele>210.7</ele>
    <time>2014-02-21T10:25:18Z</time>
   </trkpt>
   <trkpt lat="32.6373140" lon="35.0914950">
    <ele>210.8</ele>
    <time>2014-02-21T10:25:20Z</time>
   </trkpt>
   <trkpt lat="32.6372840" lon="35.0914750">
    <ele>210.9</ele>
    <time>2014-02-21T10:25:22Z</time>
   </trkpt>
   <trkpt lat="32.6372450" lon="35.0914520">
    <ele>211.0</ele>
    <time>2014-02-21T10:25:24Z</time>
   </trkpt>
   <trkpt lat="32.6372040" lon="35.0914270">
    <ele>211.1</ele>
    <time>2014-02-21T10:25:26Z</time>
   </trkpt>
   <trkpt lat="32.6371680" lon="35.0913980">
    <ele>211.3</ele>
    <time>2014-02-21T10:25:28Z</time>
   </trkpt>
   <trkpt lat="32.6371330" lon="35.0913650">
    <ele>211.4</ele>
    <time>2014-02-21T10:25:30Z</time>
   </trkpt>
   <trkpt lat="32.6371020" lon="35.0913250">
    <ele>211.6</ele>
    <time>2014-02-21T10:25:32Z</time>
   </trkpt>
   <trkpt lat="32.6370820" lon="35.0912740">
    <ele>211.9</ele>
    <time>2014-02-21T10:25:34Z</time>
   </trkpt>
   <trkpt lat="32.6370800" lon="35.0912110">
    <ele>212.2</ele>
    <time>2014-02-21T10:25:36Z</time>
   </trkpt>
   <trkpt lat="32.6370910" lon="35.0911510">
    <ele>212.6</ele>
    <time>2014-02-21T10:25:38Z</time>
   </trkpt>
   <trkpt lat="32.6371240" lon="35.0911210">
    <ele>212.9</ele>
    <time>2014-02-21T10:25:40Z</time>
   </trkpt>
   <trkpt lat="32.6371620" lon="35.0911310">
    <ele>213.0</ele>
    <time>2014-02-21T10:25:42Z</time>
   </trkpt>
   <trkpt lat="32.6371900" lon="35.0911520">
    <ele>212.9</ele>
    <time>2014-02-21T10:25:44Z</time>
   </trkpt>
   <trkpt lat="32.6372200" lon="35.0911660">
    <ele>212.9</ele>
    <time>2014-02-21T10:25:46Z</time>
   </trkpt>
   <trkpt lat="32.6372550" lon="35.0911720">
    <ele>213.0</ele>
    <time>2014-02-21T10:25:48Z</time>
   </trkpt>
   <trkpt lat="32.6373050" lon="35.0911720">
    <ele>213.1</ele>
    <time>2014-02-21T10:25:50Z</time>
   </trkpt>
   <trkpt lat="32.6373500" lon="35.0911660">
    <ele>213.3</ele>
    <time>2014-02-21T10:25:52Z</time>
   </trkpt>
   <trkpt lat="32.6373710" lon="35.0911350">
    <ele>213.7</ele>
    <time>2014-02-21T10:25:54Z</time>
   </trkpt>
   <trkpt lat="32.6373850" lon="35.0910890">
    <ele>214.1</ele>
    <time>2014-02-21T10:25:56Z</time>
   </trkpt>
   <trkpt lat="32.6373830" lon="35.0910470">
    <ele>214.5</ele>
    <time>2014-02-21T10:25:58Z</time>
   </trkpt>
   <trkpt lat="32.6373580" lon="35.0910150">
    <ele>214.6</ele>
    <time>2014-02-21T10:26:00Z</time>
   </trkpt>
   <trkpt lat="32.6373300" lon="35.0909920">
    <ele>214.7</ele>
    <time>2014-02-21T10:26:02Z</time>
   </trkpt>
   <trkpt lat="32.6372940" lon="35.0909720">
    <ele>214.7</ele>
    <time>2014-02-21T10:26:04Z</time>
   </trkpt>
   <trkpt lat="32.6372570" lon="35.0909500">
    <ele>214.7</ele>
    <time>2014-02-21T10:26:06Z</time>
   </trkpt>
   <trkpt lat="32.6372200" lon="35.0909140">
    <ele>214.7</ele>
    <time>2014-02-21T10:26:08Z</time>
   </trkpt>
   <trkpt lat="32.6371860" lon="35.0908720">
    <ele>214.8</ele>
    <time>2014-02-21T10:26:10Z</time>
   </trkpt>
   <trkpt lat="32.6371560" lon="35.0908250">
    <ele>215.0</ele>
    <time>2014-02-21T10:26:12Z</time>
   </trkpt>
   <trkpt lat="32.6371270" lon="35.0907700">
    <ele>215.2</ele>
    <time>2014-02-21T10:26:14Z</time>
   </trkpt>
   <trkpt lat="32.6371100" lon="35.0907120">
    <ele>215.4</ele>
    <time>2014-02-21T10:26:16Z</time>
   </trkpt>
   <trkpt lat="32.6371130" lon="35.0906580">
    <ele>215.8</ele>
    <time>2014-02-21T10:26:18Z</time>
   </trkpt>
   <trkpt lat="32.6371150" lon="35.0906060">
    <ele>216.1</ele>
    <time>2014-02-21T10:26:20Z</time>
   </trkpt>
   <trkpt lat="32.6370860" lon="35.0905790">
    <ele>216.0</ele>
    <time>2014-02-21T10:26:22Z</time>
   </trkpt>
   <trkpt lat="32.6370490" lon="35.0906080">
    <ele>215.6</ele>
    <time>2014-02-21T10:26:24Z</time>
   </trkpt>
   <trkpt lat="32.6370170" lon="35.0906480">
    <ele>215.1</ele>
    <time>2014-02-21T10:26:26Z</time>
   </trkpt>
   <trkpt lat="32.6369880" lon="35.0906820">
    <ele>214.7</ele>
    <time>2014-02-21T10:26:28Z</time>
   </trkpt>
   <trkpt lat="32.6369750" lon="35.0907330">
    <ele>214.4</ele>
    <time>2014-02-21T10:26:30Z</time>
   </trkpt>
   <trkpt lat="32.6369600" lon="35.0907950">
    <ele>214.0</ele>
    <time>2014-02-21T10:26:32Z</time>
   </trkpt>
   <trkpt lat="32.6369480" lon="35.0908400">
    <ele>213.7</ele>
    <time>2014-02-21T10:26:33Z</time>
   </trkpt>
   <trkpt lat="32.6369330" lon="35.0908830">
    <ele>213.5</ele>
    <time>2014-02-21T10:26:34Z</time>
   </trkpt>
   <trkpt lat="32.6369170" lon="35.0909240">
    <ele>213.3</ele>
    <time>2014-02-21T10:26:35Z</time>
   </trkpt>
   <trkpt lat="32.6368990" lon="35.0909630">
    <ele>213.0</ele>
    <time>2014-02-21T10:26:36Z</time>
   </trkpt>
   <trkpt lat="32.6368810" lon="35.0910030">
    <ele>212.8</ele>
    <time>2014-02-21T10:26:37Z</time>
   </trkpt>
   <trkpt lat="32.6368630" lon="35.0910420">
    <ele>212.7</ele>
    <time>2014-02-21T10:26:38Z</time>
   </trkpt>
   <trkpt lat="32.6368480" lon="35.0910820">
    <ele>212.5</ele>
    <time>2014-02-21T10:26:39Z</time>
   </trkpt>
   <trkpt lat="32.6368320" lon="35.0911220">
    <ele>212.4</ele>
    <time>2014-02-21T10:26:40Z</time>
   </trkpt>
   <trkpt lat="32.6368170" lon="35.0911620">
    <ele>212.2</ele>
    <time>2014-02-21T10:26:41Z</time>
   </trkpt>
   <trkpt lat="32.6368000" lon="35.0911990">
    <ele>212.1</ele>
    <time>2014-02-21T10:26:42Z</time>
   </trkpt>
   <trkpt lat="32.6367830" lon="35.0912360">
    <ele>212.0</ele>
    <time>2014-02-21T10:26:43Z</time>
   </trkpt>
   <trkpt lat="32.6367640" lon="35.0912720">
    <ele>211.9</ele>
    <time>2014-02-21T10:26:44Z</time>
   </trkpt>
   <trkpt lat="32.6367440" lon="35.0913080">
    <ele>211.9</ele>
    <time>2014-02-21T10:26:45Z</time>
   </trkpt>
   <trkpt lat="32.6367230" lon="35.0913410">
    <ele>211.8</ele>
    <time>2014-02-21T10:26:46Z</time>
   </trkpt>
   <trkpt lat="32.6367010" lon="35.0913720">
    <ele>211.7</ele>
    <time>2014-02-21T10:26:47Z</time>
   </trkpt>
   <trkpt lat="32.6366790" lon="35.0914020">
    <ele>211.7</ele>
    <time>2014-02-21T10:26:48Z</time>
   </trkpt>
   <trkpt lat="32.6366550" lon="35.0914300">
    <ele>211.7</ele>
    <time>2014-02-21T10:26:49Z</time>
   </trkpt>
   <trkpt lat="32.6366330" lon="35.0914590">
    <ele>211.7</ele>
    <time>2014-02-21T10:26:50Z</time>
   </trkpt>
   <trkpt lat="32.6366130" lon="35.0914910">
    <ele>211.7</ele>
    <time>2014-02-21T10:26:51Z</time>
   </trkpt>
   <trkpt lat="32.6365960" lon="35.0915260">
    <ele>211.7</ele>
    <time>2014-02-21T10:26:52Z</time>
   </trkpt>
   <trkpt lat="32.6365810" lon="35.0915610">
    <ele>211.7</ele>
    <time>2014-02-21T10:26:53Z</time>
   </trkpt>
   <trkpt lat="32.6365660" lon="35.0915960">
    <ele>211.7</ele>
    <time>2014-02-21T10:26:54Z</time>
   </trkpt>
   <trkpt lat="32.6365530" lon="35.0916320">
    <ele>211.8</ele>
    <time>2014-02-21T10:26:55Z</time>
   </trkpt>
   <trkpt lat="32.6365400" lon="35.0916690">
    <ele>211.8</ele>
    <time>2014-02-21T10:26:56Z</time>
   </trkpt>
   <trkpt lat="32.6365300" lon="35.0917050">
    <ele>211.8</ele>
    <time>2014-02-21T10:26:57Z</time>
   </trkpt>
   <trkpt lat="32.6365180" lon="35.0917420">
    <ele>211.9</ele>
    <time>2014-02-21T10:26:58Z</time>
   </trkpt>
   <trkpt lat="32.6365040" lon="35.0917770">
    <ele>211.9</ele>
    <time>2014-02-21T10:26:59Z</time>
   </trkpt>
   <trkpt lat="32.6364890" lon="35.0918100">
    <ele>212.0</ele>
    <time>2014-02-21T10:27:00Z</time>
   </trkpt>
   <trkpt lat="32.6364740" lon="35.0918390">
    <ele>212.1</ele>
    <time>2014-02-21T10:27:01Z</time>
   </trkpt>
   <trkpt lat="32.6364560" lon="35.0918700">
    <ele>212.2</ele>
    <time>2014-02-21T10:27:03Z</time>
   </trkpt>
   <trkpt lat="32.6364340" lon="35.0919190">
    <ele>212.4</ele>
    <time>2014-02-21T10:27:05Z</time>
   </trkpt>
   <trkpt lat="32.6364240" lon="35.0919600">
    <ele>212.5</ele>
    <time>2014-02-21T10:27:06Z</time>
   </trkpt>
   <trkpt lat="32.6364140" lon="35.0920020">
    <ele>212.6</ele>
    <time>2014-02-21T10:27:07Z</time>
   </trkpt>
   <trkpt lat="32.6364030" lon="35.0920440">
    <ele>212.7</ele>
    <time>2014-02-21T10:27:08Z</time>
   </trkpt>
   <trkpt lat="32.6363900" lon="35.0920860">
    <ele>212.8</ele>
    <time>2014-02-21T10:27:09Z</time>
   </trkpt>
   <trkpt lat="32.6363780" lon="35.0921290">
    <ele>212.9</ele>
    <time>2014-02-21T10:27:10Z</time>
   </trkpt>
   <trkpt lat="32.6363660" lon="35.0921720">
    <ele>213.1</ele>
    <time>2014-02-21T10:27:11Z</time>
   </trkpt>
   <trkpt lat="32.6363540" lon="35.0922140">
    <ele>213.2</ele>
    <time>2014-02-21T10:27:12Z</time>
   </trkpt>
   <trkpt lat="32.6363400" lon="35.0922530">
    <ele>213.3</ele>
    <time>2014-02-21T10:27:13Z</time>
   </trkpt>
   <trkpt lat="32.6363250" lon="35.0922920">
    <ele>213.5</ele>
    <time>2014-02-21T10:27:14Z</time>
   </trkpt>
   <trkpt lat="32.6363090" lon="35.0923310">
    <ele>213.7</ele>
    <time>2014-02-21T10:27:15Z</time>
   </trkpt>
   <trkpt lat="32.6362930" lon="35.0923700">
    <ele>213.9</ele>
    <time>2014-02-21T10:27:16Z</time>
   </trkpt>
   <trkpt lat="32.6362780" lon="35.0924080">
    <ele>214.1</ele>
    <time>2014-02-21T10:27:17Z</time>
   </trkpt>
   <trkpt lat="32.6362620" lon="35.0924480">
    <ele>214.3</ele>
    <time>2014-02-21T10:27:18Z</time>
   </trkpt>
   <trkpt lat="32.6362450" lon="35.0924880">
    <ele>214.4</ele>
    <time>2014-02-21T10:27:19Z</time>
   </trkpt>
   <trkpt lat="32.6362280" lon="35.0925310">
    <ele>214.3</ele>
    <time>2014-02-21T10:27:20Z</time>
   </trkpt>
   <trkpt lat="32.6362090" lon="35.0925760">
    <ele>214.2</ele>
    <time>2014-02-21T10:27:21Z</time>
   </trkpt>
   <trkpt lat="32.6361920" lon="35.0926220">
    <ele>214.1</ele>
    <time>2014-02-21T10:27:22Z</time>
   </trkpt>
   <trkpt lat="32.6361730" lon="35.0926680">
    <ele>214.0</ele>
    <time>2014-02-21T10:27:23Z</time>
   </trkpt>
   <trkpt lat="32.6361570" lon="35.0927150">
    <ele>214.0</ele>
    <time>2014-02-21T10:27:24Z</time>
   </trkpt>
   <trkpt lat="32.6361400" lon="35.0927610">
    <ele>213.9</ele>
    <time>2014-02-21T10:27:25Z</time>
   </trkpt>
   <trkpt lat="32.6361230" lon="35.0928060">
    <ele>213.9</ele>
    <time>2014-02-21T10:27:26Z</time>
   </trkpt>
   <trkpt lat="32.6361040" lon="35.0928490">
    <ele>213.8</ele>
    <time>2014-02-21T10:27:27Z</time>
   </trkpt>
   <trkpt lat="32.6360870" lon="35.0928900">
    <ele>213.8</ele>
    <time>2014-02-21T10:27:28Z</time>
   </trkpt>
   <trkpt lat="32.6360630" lon="35.0929290">
    <ele>213.6</ele>
    <time>2014-02-21T10:27:29Z</time>
   </trkpt>
   <trkpt lat="32.6360340" lon="35.0929610">
    <ele>213.2</ele>
    <time>2014-02-21T10:27:30Z</time>
   </trkpt>
   <trkpt lat="32.6360000" lon="35.0929870">
    <ele>212.8</ele>
    <time>2014-02-21T10:27:31Z</time>
   </trkpt>
   <trkpt lat="32.6359630" lon="35.0930090">
    <ele>212.5</ele>
    <time>2014-02-21T10:27:32Z</time>
   </trkpt>
   <trkpt lat="32.6359290" lon="35.0930290">
    <ele>212.1</ele>
    <time>2014-02-21T10:27:33Z</time>
   </trkpt>
   <trkpt lat="32.6358940" lon="35.0930450">
    <ele>211.8</ele>
    <time>2014-02-21T10:27:34Z</time>
   </trkpt>
   <trkpt lat="32.6358610" lon="35.0930530">
    <ele>211.6</ele>
    <time>2014-02-21T10:27:35Z</time>
   </trkpt>
   <trkpt lat="32.6358270" lon="35.0930570">
    <ele>211.4</ele>
    <time>2014-02-21T10:27:36Z</time>
   </trkpt>
   <trkpt lat="32.6357940" lon="35.0930610">
    <ele>211.2</ele>
    <time>2014-02-21T10:27:37Z</time>
   </trkpt>
   <trkpt lat="32.6357560" lon="35.0930590">
    <ele>210.9</ele>
    <time>2014-02-21T10:27:38Z</time>
   </trkpt>
   <trkpt lat="32.6357150" lon="35.0930500">
    <ele>210.7</ele>
    <time>2014-02-21T10:27:39Z</time>
   </trkpt>
   <trkpt lat="32.6356740" lon="35.0930310">
    <ele>210.5</ele>
    <time>2014-02-21T10:27:40Z</time>
   </trkpt>
   <trkpt lat="32.6356330" lon="35.0930070">
    <ele>210.3</ele>
    <time>2014-02-21T10:27:41Z</time>
   </trkpt>
   <trkpt lat="32.6355920" lon="35.0929790">
    <ele>210.1</ele>
    <time>2014-02-21T10:27:42Z</time>
   </trkpt>
   <trkpt lat="32.6355550" lon="35.0929480">
    <ele>209.9</ele>
    <time>2014-02-21T10:27:43Z</time>
   </trkpt>
   <trkpt lat="32.6355200" lon="35.0929150">
    <ele>209.7</ele>
    <time>2014-02-21T10:27:44Z</time>
   </trkpt>
   <trkpt lat="32.6354870" lon="35.0928810">
    <ele>209.3</ele>
    <time>2014-02-21T10:27:45Z</time>
   </trkpt>
   <trkpt lat="32.6354570" lon="35.0928440">
    <ele>208.8</ele>
    <time>2014-02-21T10:27:46Z</time>
   </trkpt>
   <trkpt lat="32.6354310" lon="35.0928070">
    <ele>208.3</ele>
    <time>2014-02-21T10:27:47Z</time>
   </trkpt>
   <trkpt lat="32.6354090" lon="35.0927670">
    <ele>207.8</ele>
    <time>2014-02-21T10:27:48Z</time>
   </trkpt>
   <trkpt lat="32.6353910" lon="35.0927270">
    <ele>207.1</ele>
    <time>2014-02-21T10:27:49Z</time>
   </trkpt>
   <trkpt lat="32.6353770" lon="35.0926860">
    <ele>206.5</ele>
    <time>2014-02-21T10:27:50Z</time>
   </trkpt>
   <trkpt lat="32.6353700" lon="35.0926440">
    <ele>206.0</ele>
    <time>2014-02-21T10:27:51Z</time>
   </trkpt>
   <trkpt lat="32.6353710" lon="35.0926020">
    <ele>205.8</ele>
    <time>2014-02-21T10:27:52Z</time>
   </trkpt>
   <trkpt lat="32.6353740" lon="35.0925610">
    <ele>205.5</ele>
    <time>2014-02-21T10:27:53Z</time>
   </trkpt>
   <trkpt lat="32.6353750" lon="35.0925190">
    <ele>205.3</ele>
    <time>2014-02-21T10:27:54Z</time>
   </trkpt>
   <trkpt lat="32.6353750" lon="35.0924780">
    <ele>205.0</ele>
    <time>2014-02-21T10:27:55Z</time>
   </trkpt>
   <trkpt lat="32.6353780" lon="35.0924360">
    <ele>204.7</ele>
    <time>2014-02-21T10:27:56Z</time>
   </trkpt>
   <trkpt lat="32.6353840" lon="35.0923940">
    <ele>204.6</ele>
    <time>2014-02-21T10:27:57Z</time>
   </trkpt>
   <trkpt lat="32.6353930" lon="35.0923520">
    <ele>204.4</ele>
    <time>2014-02-21T10:27:58Z</time>
   </trkpt>
   <trkpt lat="32.6354050" lon="35.0923100">
    <ele>204.4</ele>
    <time>2014-02-21T10:27:59Z</time>
   </trkpt>
   <trkpt lat="32.6354200" lon="35.0922680">
    <ele>204.4</ele>
    <time>2014-02-21T10:28:00Z</time>
   </trkpt>
   <trkpt lat="32.6354380" lon="35.0922260">
    <ele>204.3</ele>
    <time>2014-02-21T10:28:01Z</time>
   </trkpt>
   <trkpt lat="32.6354540" lon="35.0921860">
    <ele>204.2</ele>
    <time>2014-02-21T10:28:02Z</time>
   </trkpt>
   <trkpt lat="32.6354670" lon="35.0921470">
    <ele>204.1</ele>
    <time>2014-02-21T10:28:03Z</time>
   </trkpt>
   <trkpt lat="32.6354730" lon="35.0921100">
    <ele>203.9</ele>
    <time>2014-02-21T10:28:04Z</time>
   </trkpt>
   <trkpt lat="32.6354790" lon="35.0920710">
    <ele>203.7</ele>
    <time>2014-02-21T10:28:07Z</time>
   </trkpt>
   <trkpt lat="32.6354530" lon="35.0920510">
    <ele>203.1</ele>
    <time>2014-02-21T10:28:50Z</time>
   </trkpt>
   <trkpt lat="32.6354720" lon="35.0920280">
    <ele>203.2</ele>
    <time>2014-02-21T10:30:21Z</time>
   </trkpt>
  </trkseg>
 </trk>
</gpx>
